<?xml version="1.0" encoding="UTF-8" standalone="no" ?>
<gpx xmlns="http://www.topografix.com/GPX/1/1" xmlns:xsi="http://www.w3.org/2001/XMLSchema-instance" xsi:schemaLocation="http://www.topografix.com/GPX/1/1 http://www.topografix.com/GPX/1/1/gpx.xsd" version="1.1" creator="VisuGPX - https://www.visugpx.com">
  <metadata>
    <name>L Aulp Du Seuil</name>
    <desc><![CDATA[grp_trc:[nouvelles]]]></desc>
  </metadata>
  <trk>
    <name><![CDATA[11 nov. 2021 à 09:53:34]]></name>
    <cmt><![CDATA[11 nov. 2021 à 09:53:34]]></cmt>
    <trkseg>
      <trkpt lat="45.58162" lon="6.06201">
        <ele>1058.5</ele>
        <time>2021-11-11T08:53:34Z</time>
      </trkpt>
      <trkpt lat="45.58153" lon="6.06214">
        <ele>1006</ele>
        <time>2021-11-11T08:53:35Z</time>
      </trkpt>
      <trkpt lat="45.58148" lon="6.06218">
        <ele>1038</ele>
        <time>2021-11-11T08:53:37Z</time>
      </trkpt>
      <trkpt lat="45.58132" lon="6.06211">
        <ele>1049</ele>
        <time>2021-11-11T08:53:47Z</time>
      </trkpt>
      <trkpt lat="45.58104" lon="6.06204">
        <ele>1047</ele>
        <time>2021-11-11T08:54:07Z</time>
      </trkpt>
      <trkpt lat="45.58101" lon="6.06198">
        <ele>1048</ele>
        <time>2021-11-11T08:54:12Z</time>
      </trkpt>
      <trkpt lat="45.58095" lon="6.06199">
        <ele>1047</ele>
        <time>2021-11-11T08:54:18Z</time>
      </trkpt>
      <trkpt lat="45.58088" lon="6.06198">
        <ele>1046</ele>
        <time>2021-11-11T08:54:24Z</time>
      </trkpt>
      <trkpt lat="45.58084" lon="6.06204">
        <ele>1044</ele>
        <time>2021-11-11T08:54:29Z</time>
      </trkpt>
      <trkpt lat="45.58091" lon="6.06207">
        <ele>1043</ele>
        <time>2021-11-11T08:54:35Z</time>
      </trkpt>
      <trkpt lat="45.58096" lon="6.06208">
        <ele>1043</ele>
        <time>2021-11-11T08:54:41Z</time>
      </trkpt>
      <trkpt lat="45.58106" lon="6.06212">
        <ele>1042</ele>
        <time>2021-11-11T08:54:51Z</time>
      </trkpt>
      <trkpt lat="45.58113" lon="6.06217">
        <ele>1042</ele>
        <time>2021-11-11T08:54:56Z</time>
      </trkpt>
      <trkpt lat="45.58121" lon="6.06229">
        <ele>1039</ele>
        <time>2021-11-11T08:55:07Z</time>
      </trkpt>
      <trkpt lat="45.58143" lon="6.06258">
        <ele>1037</ele>
        <time>2021-11-11T08:55:28Z</time>
      </trkpt>
      <trkpt lat="45.58157" lon="6.06267">
        <ele>1036</ele>
        <time>2021-11-11T08:55:41Z</time>
      </trkpt>
      <trkpt lat="45.58172" lon="6.06272">
        <ele>1035</ele>
        <time>2021-11-11T08:55:52Z</time>
      </trkpt>
      <trkpt lat="45.58185" lon="6.06281">
        <ele>1034</ele>
        <time>2021-11-11T08:56:06Z</time>
      </trkpt>
      <trkpt lat="45.582" lon="6.06305">
        <ele>1032</ele>
        <time>2021-11-11T08:56:26Z</time>
      </trkpt>
      <trkpt lat="45.58185" lon="6.06317">
        <ele>1037</ele>
        <time>2021-11-11T08:56:57Z</time>
      </trkpt>
      <trkpt lat="45.58162" lon="6.06332">
        <ele>1039</ele>
        <time>2021-11-11T08:57:22Z</time>
      </trkpt>
      <trkpt lat="45.58122" lon="6.06324">
        <ele>1046</ele>
        <time>2021-11-11T08:58:06Z</time>
      </trkpt>
      <trkpt lat="45.58115" lon="6.06328">
        <ele>1047</ele>
        <time>2021-11-11T08:58:13Z</time>
      </trkpt>
      <trkpt lat="45.58096" lon="6.0635">
        <ele>1048</ele>
        <time>2021-11-11T08:58:55Z</time>
      </trkpt>
      <trkpt lat="45.58091" lon="6.06356">
        <ele>1048</ele>
        <time>2021-11-11T08:59:00Z</time>
      </trkpt>
      <trkpt lat="45.58055" lon="6.06379">
        <ele>1053</ele>
        <time>2021-11-11T08:59:36Z</time>
      </trkpt>
      <trkpt lat="45.58034" lon="6.064">
        <ele>1056</ele>
        <time>2021-11-11T09:00:09Z</time>
      </trkpt>
      <trkpt lat="45.58021" lon="6.06409">
        <ele>1058</ele>
        <time>2021-11-11T09:00:23Z</time>
      </trkpt>
      <trkpt lat="45.58018" lon="6.06417">
        <ele>1059</ele>
        <time>2021-11-11T09:00:27Z</time>
      </trkpt>
      <trkpt lat="45.58016" lon="6.06425">
        <ele>1059</ele>
        <time>2021-11-11T09:00:33Z</time>
      </trkpt>
      <trkpt lat="45.58016" lon="6.06435">
        <ele>1060</ele>
        <time>2021-11-11T09:00:42Z</time>
      </trkpt>
      <trkpt lat="45.58019" lon="6.06444">
        <ele>1061</ele>
        <time>2021-11-11T09:00:47Z</time>
      </trkpt>
      <trkpt lat="45.58021" lon="6.06451">
        <ele>1063</ele>
        <time>2021-11-11T09:00:51Z</time>
      </trkpt>
      <trkpt lat="45.58021" lon="6.06459">
        <ele>1062</ele>
        <time>2021-11-11T09:00:57Z</time>
      </trkpt>
      <trkpt lat="45.58034" lon="6.06506">
        <ele>1067</ele>
        <time>2021-11-11T09:01:32Z</time>
      </trkpt>
      <trkpt lat="45.58034" lon="6.06526">
        <ele>1072</ele>
        <time>2021-11-11T09:01:56Z</time>
      </trkpt>
      <trkpt lat="45.58031" lon="6.06549">
        <ele>1076</ele>
        <time>2021-11-11T09:02:18Z</time>
      </trkpt>
      <trkpt lat="45.5805" lon="6.0655">
        <ele>1077</ele>
        <time>2021-11-11T09:02:42Z</time>
      </trkpt>
      <trkpt lat="45.58068" lon="6.06562">
        <ele>1080</ele>
        <time>2021-11-11T09:03:07Z</time>
      </trkpt>
      <trkpt lat="45.58083" lon="6.06585">
        <ele>1082</ele>
        <time>2021-11-11T09:03:28Z</time>
      </trkpt>
      <trkpt lat="45.58109" lon="6.06594">
        <ele>1085</ele>
        <time>2021-11-11T09:03:54Z</time>
      </trkpt>
      <trkpt lat="45.58138" lon="6.06593">
        <ele>1087</ele>
        <time>2021-11-11T09:04:14Z</time>
      </trkpt>
      <trkpt lat="45.58158" lon="6.06592">
        <ele>1091</ele>
        <time>2021-11-11T09:04:39Z</time>
      </trkpt>
      <trkpt lat="45.5818" lon="6.06603">
        <ele>1092</ele>
        <time>2021-11-11T09:05:09Z</time>
      </trkpt>
      <trkpt lat="45.58194" lon="6.066">
        <ele>1093</ele>
        <time>2021-11-11T09:05:20Z</time>
      </trkpt>
      <trkpt lat="45.58207" lon="6.06592">
        <ele>1093</ele>
        <time>2021-11-11T09:05:31Z</time>
      </trkpt>
      <trkpt lat="45.58236" lon="6.06581">
        <ele>1097</ele>
        <time>2021-11-11T09:05:56Z</time>
      </trkpt>
      <trkpt lat="45.58251" lon="6.06581">
        <ele>1097</ele>
        <time>2021-11-11T09:06:07Z</time>
      </trkpt>
      <trkpt lat="45.58266" lon="6.0659">
        <ele>1097</ele>
        <time>2021-11-11T09:06:26Z</time>
      </trkpt>
      <trkpt lat="45.58326" lon="6.06615">
        <ele>1103</ele>
        <time>2021-11-11T09:07:35Z</time>
      </trkpt>
      <trkpt lat="45.58353" lon="6.06629">
        <ele>1104</ele>
        <time>2021-11-11T09:07:55Z</time>
      </trkpt>
      <trkpt lat="45.58389" lon="6.0663">
        <ele>1107</ele>
        <time>2021-11-11T09:08:39Z</time>
      </trkpt>
      <trkpt lat="45.58417" lon="6.06649">
        <ele>1118</ele>
        <time>2021-11-11T09:09:58Z</time>
      </trkpt>
      <trkpt lat="45.58444" lon="6.06675">
        <ele>1122</ele>
        <time>2021-11-11T09:10:35Z</time>
      </trkpt>
      <trkpt lat="45.5846" lon="6.06715">
        <ele>1125</ele>
        <time>2021-11-11T09:11:18Z</time>
      </trkpt>
      <trkpt lat="45.58449" lon="6.06762">
        <ele>1138</ele>
        <time>2021-11-11T09:12:43Z</time>
      </trkpt>
      <trkpt lat="45.58466" lon="6.06803">
        <ele>1147</ele>
        <time>2021-11-11T09:13:49Z</time>
      </trkpt>
      <trkpt lat="45.58456" lon="6.06848">
        <ele>1157</ele>
        <time>2021-11-11T09:14:55Z</time>
      </trkpt>
      <trkpt lat="45.58456" lon="6.06892">
        <ele>1167</ele>
        <time>2021-11-11T09:16:05Z</time>
      </trkpt>
      <trkpt lat="45.58472" lon="6.0693">
        <ele>1174</ele>
        <time>2021-11-11T09:17:00Z</time>
      </trkpt>
      <trkpt lat="45.58463" lon="6.06951">
        <ele>1185</ele>
        <time>2021-11-11T09:17:55Z</time>
      </trkpt>
      <trkpt lat="45.58446" lon="6.06962">
        <ele>1188</ele>
        <time>2021-11-11T09:18:36Z</time>
      </trkpt>
      <trkpt lat="45.58412" lon="6.06961">
        <ele>1185</ele>
        <time>2021-11-11T09:19:10Z</time>
      </trkpt>
      <trkpt lat="45.58386" lon="6.06968">
        <ele>1181</ele>
        <time>2021-11-11T09:20:37Z</time>
      </trkpt>
      <trkpt lat="45.58369" lon="6.06967">
        <ele>1182</ele>
        <time>2021-11-11T09:20:51Z</time>
      </trkpt>
      <trkpt lat="45.58355" lon="6.06972">
        <ele>1183</ele>
        <time>2021-11-11T09:21:02Z</time>
      </trkpt>
      <trkpt lat="45.58341" lon="6.06957">
        <ele>1184</ele>
        <time>2021-11-11T09:21:37Z</time>
      </trkpt>
      <trkpt lat="45.58327" lon="6.06944">
        <ele>1185</ele>
        <time>2021-11-11T09:21:50Z</time>
      </trkpt>
      <trkpt lat="45.58312" lon="6.06942">
        <ele>1186</ele>
        <time>2021-11-11T09:22:04Z</time>
      </trkpt>
      <trkpt lat="45.58301" lon="6.06957">
        <ele>1191</ele>
        <time>2021-11-11T09:22:29Z</time>
      </trkpt>
      <trkpt lat="45.5829" lon="6.06963">
        <ele>1194</ele>
        <time>2021-11-11T09:22:57Z</time>
      </trkpt>
      <trkpt lat="45.58273" lon="6.06972">
        <ele>1199</ele>
        <time>2021-11-11T09:23:26Z</time>
      </trkpt>
      <trkpt lat="45.58261" lon="6.06986">
        <ele>1209</ele>
        <time>2021-11-11T09:24:14Z</time>
      </trkpt>
      <trkpt lat="45.58284" lon="6.0702">
        <ele>1221</ele>
        <time>2021-11-11T09:25:34Z</time>
      </trkpt>
      <trkpt lat="45.58299" lon="6.07053">
        <ele>1242</ele>
        <time>2021-11-11T09:28:01Z</time>
      </trkpt>
      <trkpt lat="45.5832" lon="6.07095">
        <ele>1262</ele>
        <time>2021-11-11T09:30:40Z</time>
      </trkpt>
      <trkpt lat="45.58291" lon="6.07108">
        <ele>1283</ele>
        <time>2021-11-11T09:32:48Z</time>
      </trkpt>
      <trkpt lat="45.58262" lon="6.07112">
        <ele>1290</ele>
        <time>2021-11-11T09:33:40Z</time>
      </trkpt>
      <trkpt lat="45.58252" lon="6.07129">
        <ele>1299</ele>
        <time>2021-11-11T09:34:38Z</time>
      </trkpt>
      <trkpt lat="45.58259" lon="6.0716">
        <ele>1307</ele>
        <time>2021-11-11T09:35:20Z</time>
      </trkpt>
      <trkpt lat="45.5828" lon="6.0719">
        <ele>1325</ele>
        <time>2021-11-11T09:37:20Z</time>
      </trkpt>
      <trkpt lat="45.5827" lon="6.07231">
        <ele>1348</ele>
        <time>2021-11-11T09:40:07Z</time>
      </trkpt>
      <trkpt lat="45.58253" lon="6.07263">
        <ele>1364</ele>
        <time>2021-11-11T09:41:45Z</time>
      </trkpt>
      <trkpt lat="45.58259" lon="6.07305">
        <ele>1374</ele>
        <time>2021-11-11T09:43:17Z</time>
      </trkpt>
      <trkpt lat="45.58272" lon="6.07344">
        <ele>1385</ele>
        <time>2021-11-11T09:44:41Z</time>
      </trkpt>
      <trkpt lat="45.58301" lon="6.0736">
        <ele>1394</ele>
        <time>2021-11-11T09:46:05Z</time>
      </trkpt>
      <trkpt lat="45.5833" lon="6.07376">
        <ele>1403</ele>
        <time>2021-11-11T09:47:15Z</time>
      </trkpt>
      <trkpt lat="45.58359" lon="6.07376">
        <ele>1411</ele>
        <time>2021-11-11T09:47:57Z</time>
      </trkpt>
      <trkpt lat="45.58358" lon="6.07426">
        <ele>1426</ele>
        <time>2021-11-11T09:50:04Z</time>
      </trkpt>
      <trkpt lat="45.58332" lon="6.07409">
        <ele>1442</ele>
        <time>2021-11-11T09:52:20Z</time>
      </trkpt>
      <trkpt lat="45.58297" lon="6.07416">
        <ele>1441</ele>
        <time>2021-11-11T09:52:51Z</time>
      </trkpt>
      <trkpt lat="45.58272" lon="6.07434">
        <ele>1449</ele>
        <time>2021-11-11T09:53:41Z</time>
      </trkpt>
      <trkpt lat="45.58243" lon="6.07438">
        <ele>1459</ele>
        <time>2021-11-11T09:55:11Z</time>
      </trkpt>
      <trkpt lat="45.58216" lon="6.07453">
        <ele>1463</ele>
        <time>2021-11-11T09:56:02Z</time>
      </trkpt>
      <trkpt lat="45.58201" lon="6.07448">
        <ele>1463</ele>
        <time>2021-11-11T09:56:15Z</time>
      </trkpt>
      <trkpt lat="45.5819" lon="6.07436">
        <ele>1462</ele>
        <time>2021-11-11T09:56:31Z</time>
      </trkpt>
      <trkpt lat="45.58166" lon="6.07428">
        <ele>1459</ele>
        <time>2021-11-11T09:56:56Z</time>
      </trkpt>
      <trkpt lat="45.58151" lon="6.07431">
        <ele>1458</ele>
        <time>2021-11-11T09:57:08Z</time>
      </trkpt>
      <trkpt lat="45.58131" lon="6.07444">
        <ele>1454</ele>
        <time>2021-11-11T09:57:37Z</time>
      </trkpt>
      <trkpt lat="45.58125" lon="6.0745">
        <ele>1454</ele>
        <time>2021-11-11T09:57:46Z</time>
      </trkpt>
      <trkpt lat="45.58116" lon="6.07457">
        <ele>1454</ele>
        <time>2021-11-11T09:57:59Z</time>
      </trkpt>
      <trkpt lat="45.58095" lon="6.07454">
        <ele>1450</ele>
        <time>2021-11-11T09:58:24Z</time>
      </trkpt>
      <trkpt lat="45.58066" lon="6.07438">
        <ele>1445</ele>
        <time>2021-11-11T09:58:53Z</time>
      </trkpt>
      <trkpt lat="45.58023" lon="6.07425">
        <ele>1443</ele>
        <time>2021-11-11T09:59:37Z</time>
      </trkpt>
      <trkpt lat="45.57975" lon="6.07418">
        <ele>1444</ele>
        <time>2021-11-11T10:00:27Z</time>
      </trkpt>
      <trkpt lat="45.57941" lon="6.07423">
        <ele>1446</ele>
        <time>2021-11-11T10:00:59Z</time>
      </trkpt>
      <trkpt lat="45.57882" lon="6.07442">
        <ele>1444</ele>
        <time>2021-11-11T10:01:56Z</time>
      </trkpt>
      <trkpt lat="45.57855" lon="6.07459">
        <ele>1443</ele>
        <time>2021-11-11T10:02:21Z</time>
      </trkpt>
      <trkpt lat="45.57796" lon="6.07472">
        <ele>1445</ele>
        <time>2021-11-11T10:03:16Z</time>
      </trkpt>
      <trkpt lat="45.57783" lon="6.07489">
        <ele>1443</ele>
        <time>2021-11-11T10:03:34Z</time>
      </trkpt>
      <trkpt lat="45.57777" lon="6.07492">
        <ele>1444</ele>
        <time>2021-11-11T10:03:40Z</time>
      </trkpt>
      <trkpt lat="45.57771" lon="6.07502">
        <ele>1444</ele>
        <time>2021-11-11T10:04:11Z</time>
      </trkpt>
      <trkpt lat="45.57767" lon="6.07508">
        <ele>1444</ele>
        <time>2021-11-11T10:04:16Z</time>
      </trkpt>
      <trkpt lat="45.57765" lon="6.07515">
        <ele>1444</ele>
        <time>2021-11-11T10:04:21Z</time>
      </trkpt>
      <trkpt lat="45.57759" lon="6.07526">
        <ele>1444</ele>
        <time>2021-11-11T10:04:32Z</time>
      </trkpt>
      <trkpt lat="45.57754" lon="6.07534">
        <ele>1443</ele>
        <time>2021-11-11T10:04:39Z</time>
      </trkpt>
      <trkpt lat="45.57749" lon="6.07542">
        <ele>1442</ele>
        <time>2021-11-11T10:04:47Z</time>
      </trkpt>
      <trkpt lat="45.57748" lon="6.07551">
        <ele>1442</ele>
        <time>2021-11-11T10:04:53Z</time>
      </trkpt>
      <trkpt lat="45.57741" lon="6.07557">
        <ele>1443</ele>
        <time>2021-11-11T10:05:29Z</time>
      </trkpt>
      <trkpt lat="45.57736" lon="6.07562">
        <ele>1443</ele>
        <time>2021-11-11T10:06:11Z</time>
      </trkpt>
      <trkpt lat="45.5773" lon="6.07559">
        <ele>1444</ele>
        <time>2021-11-11T10:06:17Z</time>
      </trkpt>
      <trkpt lat="45.57724" lon="6.07557">
        <ele>1444</ele>
        <time>2021-11-11T10:06:22Z</time>
      </trkpt>
      <trkpt lat="45.57719" lon="6.07552">
        <ele>1444</ele>
        <time>2021-11-11T10:06:27Z</time>
      </trkpt>
      <trkpt lat="45.57719" lon="6.07543">
        <ele>1443</ele>
        <time>2021-11-11T10:06:33Z</time>
      </trkpt>
      <trkpt lat="45.57721" lon="6.07523">
        <ele>1445</ele>
        <time>2021-11-11T10:06:44Z</time>
      </trkpt>
      <trkpt lat="45.5772" lon="6.07514">
        <ele>1444</ele>
        <time>2021-11-11T10:06:53Z</time>
      </trkpt>
      <trkpt lat="45.57715" lon="6.07509">
        <ele>1445</ele>
        <time>2021-11-11T10:06:59Z</time>
      </trkpt>
      <trkpt lat="45.5771" lon="6.07504">
        <ele>1445</ele>
        <time>2021-11-11T10:07:04Z</time>
      </trkpt>
      <trkpt lat="45.57707" lon="6.07496">
        <ele>1447</ele>
        <time>2021-11-11T10:07:09Z</time>
      </trkpt>
      <trkpt lat="45.57703" lon="6.07491">
        <ele>1446</ele>
        <time>2021-11-11T10:07:15Z</time>
      </trkpt>
      <trkpt lat="45.57698" lon="6.07485">
        <ele>1447</ele>
        <time>2021-11-11T10:07:20Z</time>
      </trkpt>
      <trkpt lat="45.57692" lon="6.07478">
        <ele>1447</ele>
        <time>2021-11-11T10:07:29Z</time>
      </trkpt>
      <trkpt lat="45.57686" lon="6.07475">
        <ele>1448</ele>
        <time>2021-11-11T10:07:35Z</time>
      </trkpt>
      <trkpt lat="45.5768" lon="6.07468">
        <ele>1447</ele>
        <time>2021-11-11T10:07:41Z</time>
      </trkpt>
      <trkpt lat="45.57673" lon="6.07459">
        <ele>1448</ele>
        <time>2021-11-11T10:07:52Z</time>
      </trkpt>
      <trkpt lat="45.57663" lon="6.07448">
        <ele>1448</ele>
        <time>2021-11-11T10:08:05Z</time>
      </trkpt>
      <trkpt lat="45.57654" lon="6.07442">
        <ele>1449</ele>
        <time>2021-11-11T10:08:18Z</time>
      </trkpt>
      <trkpt lat="45.57647" lon="6.07433">
        <ele>1450</ele>
        <time>2021-11-11T10:08:36Z</time>
      </trkpt>
      <trkpt lat="45.57639" lon="6.07434">
        <ele>1450</ele>
        <time>2021-11-11T10:08:42Z</time>
      </trkpt>
      <trkpt lat="45.57624" lon="6.07428">
        <ele>1451</ele>
        <time>2021-11-11T10:08:58Z</time>
      </trkpt>
      <trkpt lat="45.57607" lon="6.07419">
        <ele>1451</ele>
        <time>2021-11-11T10:09:14Z</time>
      </trkpt>
      <trkpt lat="45.57587" lon="6.07409">
        <ele>1454</ele>
        <time>2021-11-11T10:09:39Z</time>
      </trkpt>
      <trkpt lat="45.57568" lon="6.07402">
        <ele>1453</ele>
        <time>2021-11-11T10:09:59Z</time>
      </trkpt>
      <trkpt lat="45.57547" lon="6.07385">
        <ele>1453</ele>
        <time>2021-11-11T10:10:20Z</time>
      </trkpt>
      <trkpt lat="45.57517" lon="6.0736">
        <ele>1450</ele>
        <time>2021-11-11T10:10:51Z</time>
      </trkpt>
      <trkpt lat="45.57507" lon="6.07351">
        <ele>1451</ele>
        <time>2021-11-11T10:11:01Z</time>
      </trkpt>
      <trkpt lat="45.57494" lon="6.07338">
        <ele>1447</ele>
        <time>2021-11-11T10:11:26Z</time>
      </trkpt>
      <trkpt lat="45.57489" lon="6.07311">
        <ele>1446</ele>
        <time>2021-11-11T10:11:45Z</time>
      </trkpt>
      <trkpt lat="45.57482" lon="6.07292">
        <ele>1445</ele>
        <time>2021-11-11T10:11:56Z</time>
      </trkpt>
      <trkpt lat="45.57453" lon="6.07266">
        <ele>1445</ele>
        <time>2021-11-11T10:12:24Z</time>
      </trkpt>
      <trkpt lat="45.57434" lon="6.07258">
        <ele>1443</ele>
        <time>2021-11-11T10:12:39Z</time>
      </trkpt>
      <trkpt lat="45.57429" lon="6.07255">
        <ele>1440</ele>
        <time>2021-11-11T10:12:43Z</time>
      </trkpt>
      <trkpt lat="45.57424" lon="6.07253">
        <ele>1441</ele>
        <time>2021-11-11T10:12:48Z</time>
      </trkpt>
      <trkpt lat="45.57418" lon="6.07251">
        <ele>1442</ele>
        <time>2021-11-11T10:12:53Z</time>
      </trkpt>
      <trkpt lat="45.57399" lon="6.07242">
        <ele>1442</ele>
        <time>2021-11-11T10:13:12Z</time>
      </trkpt>
      <trkpt lat="45.57387" lon="6.07241">
        <ele>1443</ele>
        <time>2021-11-11T10:13:22Z</time>
      </trkpt>
      <trkpt lat="45.57379" lon="6.07237">
        <ele>1443</ele>
        <time>2021-11-11T10:13:31Z</time>
      </trkpt>
      <trkpt lat="45.5737" lon="6.07229">
        <ele>1443</ele>
        <time>2021-11-11T10:13:40Z</time>
      </trkpt>
      <trkpt lat="45.57362" lon="6.07224">
        <ele>1445</ele>
        <time>2021-11-11T10:13:54Z</time>
      </trkpt>
      <trkpt lat="45.5736" lon="6.07216">
        <ele>1446</ele>
        <time>2021-11-11T10:14:06Z</time>
      </trkpt>
      <trkpt lat="45.57351" lon="6.07211">
        <ele>1448</ele>
        <time>2021-11-11T10:14:19Z</time>
      </trkpt>
      <trkpt lat="45.57346" lon="6.07205">
        <ele>1450</ele>
        <time>2021-11-11T10:14:31Z</time>
      </trkpt>
      <trkpt lat="45.57338" lon="6.07201">
        <ele>1452</ele>
        <time>2021-11-11T10:14:43Z</time>
      </trkpt>
      <trkpt lat="45.57329" lon="6.07188">
        <ele>1455</ele>
        <time>2021-11-11T10:15:03Z</time>
      </trkpt>
      <trkpt lat="45.57324" lon="6.07184">
        <ele>1455</ele>
        <time>2021-11-11T10:15:08Z</time>
      </trkpt>
      <trkpt lat="45.57319" lon="6.07164">
        <ele>1459</ele>
        <time>2021-11-11T10:15:29Z</time>
      </trkpt>
      <trkpt lat="45.57314" lon="6.07157">
        <ele>1461</ele>
        <time>2021-11-11T10:15:47Z</time>
      </trkpt>
      <trkpt lat="45.57307" lon="6.07162">
        <ele>1466</ele>
        <time>2021-11-11T10:16:17Z</time>
      </trkpt>
      <trkpt lat="45.57298" lon="6.07154">
        <ele>1469</ele>
        <time>2021-11-11T10:16:35Z</time>
      </trkpt>
      <trkpt lat="45.57291" lon="6.07149">
        <ele>1470</ele>
        <time>2021-11-11T10:16:43Z</time>
      </trkpt>
      <trkpt lat="45.57285" lon="6.07141">
        <ele>1471</ele>
        <time>2021-11-11T10:16:49Z</time>
      </trkpt>
      <trkpt lat="45.57279" lon="6.07136">
        <ele>1472</ele>
        <time>2021-11-11T10:16:54Z</time>
      </trkpt>
      <trkpt lat="45.57273" lon="6.07135">
        <ele>1471</ele>
        <time>2021-11-11T10:16:59Z</time>
      </trkpt>
      <trkpt lat="45.57267" lon="6.07133">
        <ele>1472</ele>
        <time>2021-11-11T10:17:03Z</time>
      </trkpt>
      <trkpt lat="45.57261" lon="6.07135">
        <ele>1470</ele>
        <time>2021-11-11T10:17:08Z</time>
      </trkpt>
      <trkpt lat="45.57256" lon="6.07139">
        <ele>1470</ele>
        <time>2021-11-11T10:17:14Z</time>
      </trkpt>
      <trkpt lat="45.5725" lon="6.07144">
        <ele>1471</ele>
        <time>2021-11-11T10:17:19Z</time>
      </trkpt>
      <trkpt lat="45.57245" lon="6.07147">
        <ele>1471</ele>
        <time>2021-11-11T10:17:25Z</time>
      </trkpt>
      <trkpt lat="45.5724" lon="6.07144">
        <ele>1472</ele>
        <time>2021-11-11T10:17:31Z</time>
      </trkpt>
      <trkpt lat="45.57227" lon="6.07148">
        <ele>1473</ele>
        <time>2021-11-11T10:17:51Z</time>
      </trkpt>
      <trkpt lat="45.57224" lon="6.07161">
        <ele>1477</ele>
        <time>2021-11-11T10:18:11Z</time>
      </trkpt>
      <trkpt lat="45.57226" lon="6.0717">
        <ele>1482</ele>
        <time>2021-11-11T10:18:35Z</time>
      </trkpt>
      <trkpt lat="45.57209" lon="6.07165">
        <ele>1481</ele>
        <time>2021-11-11T10:19:00Z</time>
      </trkpt>
      <trkpt lat="45.57194" lon="6.0715">
        <ele>1487</ele>
        <time>2021-11-11T10:19:26Z</time>
      </trkpt>
      <trkpt lat="45.57183" lon="6.07137">
        <ele>1494</ele>
        <time>2021-11-11T10:19:53Z</time>
      </trkpt>
      <trkpt lat="45.5717" lon="6.07128">
        <ele>1495</ele>
        <time>2021-11-11T10:20:29Z</time>
      </trkpt>
      <trkpt lat="45.57159" lon="6.07113">
        <ele>1501</ele>
        <time>2021-11-11T10:22:12Z</time>
      </trkpt>
      <trkpt lat="45.57155" lon="6.07103">
        <ele>1502</ele>
        <time>2021-11-11T10:22:36Z</time>
      </trkpt>
      <trkpt lat="45.57154" lon="6.07091">
        <ele>1504</ele>
        <time>2021-11-11T10:22:54Z</time>
      </trkpt>
      <trkpt lat="45.57148" lon="6.07074">
        <ele>1508</ele>
        <time>2021-11-11T10:23:14Z</time>
      </trkpt>
      <trkpt lat="45.57141" lon="6.07067">
        <ele>1510</ele>
        <time>2021-11-11T10:23:28Z</time>
      </trkpt>
      <trkpt lat="45.57133" lon="6.07057">
        <ele>1516</ele>
        <time>2021-11-11T10:23:47Z</time>
      </trkpt>
      <trkpt lat="45.5713" lon="6.07044">
        <ele>1517</ele>
        <time>2021-11-11T10:24:05Z</time>
      </trkpt>
      <trkpt lat="45.57129" lon="6.07035">
        <ele>1520</ele>
        <time>2021-11-11T10:24:23Z</time>
      </trkpt>
      <trkpt lat="45.57123" lon="6.07039">
        <ele>1522</ele>
        <time>2021-11-11T10:24:35Z</time>
      </trkpt>
      <trkpt lat="45.57115" lon="6.07063">
        <ele>1527</ele>
        <time>2021-11-11T10:25:06Z</time>
      </trkpt>
      <trkpt lat="45.57114" lon="6.07074">
        <ele>1530</ele>
        <time>2021-11-11T10:25:30Z</time>
      </trkpt>
      <trkpt lat="45.57113" lon="6.07087">
        <ele>1535</ele>
        <time>2021-11-11T10:25:44Z</time>
      </trkpt>
      <trkpt lat="45.57107" lon="6.07082">
        <ele>1535</ele>
        <time>2021-11-11T10:25:56Z</time>
      </trkpt>
      <trkpt lat="45.57098" lon="6.07074">
        <ele>1537</ele>
        <time>2021-11-11T10:26:08Z</time>
      </trkpt>
      <trkpt lat="45.57088" lon="6.07074">
        <ele>1540</ele>
        <time>2021-11-11T10:26:21Z</time>
      </trkpt>
      <trkpt lat="45.5708" lon="6.07069">
        <ele>1541</ele>
        <time>2021-11-11T10:26:36Z</time>
      </trkpt>
      <trkpt lat="45.57077" lon="6.07062">
        <ele>1542</ele>
        <time>2021-11-11T10:26:42Z</time>
      </trkpt>
      <trkpt lat="45.57064" lon="6.07059">
        <ele>1546</ele>
        <time>2021-11-11T10:27:38Z</time>
      </trkpt>
      <trkpt lat="45.5706" lon="6.07052">
        <ele>1549</ele>
        <time>2021-11-11T10:28:02Z</time>
      </trkpt>
      <trkpt lat="45.57052" lon="6.07046">
        <ele>1551</ele>
        <time>2021-11-11T10:28:20Z</time>
      </trkpt>
      <trkpt lat="45.57047" lon="6.07049">
        <ele>1552</ele>
        <time>2021-11-11T10:28:38Z</time>
      </trkpt>
      <trkpt lat="45.5704" lon="6.07048">
        <ele>1557</ele>
        <time>2021-11-11T10:28:56Z</time>
      </trkpt>
      <trkpt lat="45.57034" lon="6.07046">
        <ele>1559</ele>
        <time>2021-11-11T10:29:09Z</time>
      </trkpt>
      <trkpt lat="45.57025" lon="6.07042">
        <ele>1559</ele>
        <time>2021-11-11T10:29:29Z</time>
      </trkpt>
      <trkpt lat="45.57019" lon="6.07038">
        <ele>1570</ele>
        <time>2021-11-11T10:29:53Z</time>
      </trkpt>
      <trkpt lat="45.57016" lon="6.07031">
        <ele>1571</ele>
        <time>2021-11-11T10:30:11Z</time>
      </trkpt>
      <trkpt lat="45.5701" lon="6.07028">
        <ele>1574</ele>
        <time>2021-11-11T10:30:23Z</time>
      </trkpt>
      <trkpt lat="45.57001" lon="6.07023">
        <ele>1575</ele>
        <time>2021-11-11T10:30:41Z</time>
      </trkpt>
      <trkpt lat="45.56997" lon="6.07017">
        <ele>1578</ele>
        <time>2021-11-11T10:30:53Z</time>
      </trkpt>
      <trkpt lat="45.56991" lon="6.07016">
        <ele>1581</ele>
        <time>2021-11-11T10:31:11Z</time>
      </trkpt>
      <trkpt lat="45.56986" lon="6.07011">
        <ele>1583</ele>
        <time>2021-11-11T10:31:23Z</time>
      </trkpt>
      <trkpt lat="45.56978" lon="6.0701">
        <ele>1587</ele>
        <time>2021-11-11T10:31:53Z</time>
      </trkpt>
      <trkpt lat="45.56969" lon="6.07012">
        <ele>1589</ele>
        <time>2021-11-11T10:32:11Z</time>
      </trkpt>
      <trkpt lat="45.56963" lon="6.07007">
        <ele>1595</ele>
        <time>2021-11-11T10:32:34Z</time>
      </trkpt>
      <trkpt lat="45.56956" lon="6.07001">
        <ele>1598</ele>
        <time>2021-11-11T10:32:47Z</time>
      </trkpt>
      <trkpt lat="45.5695" lon="6.07002">
        <ele>1600</ele>
        <time>2021-11-11T10:32:59Z</time>
      </trkpt>
      <trkpt lat="45.56943" lon="6.07008">
        <ele>1604</ele>
        <time>2021-11-11T10:33:15Z</time>
      </trkpt>
      <trkpt lat="45.56926" lon="6.07016">
        <ele>1610</ele>
        <time>2021-11-11T10:33:48Z</time>
      </trkpt>
      <trkpt lat="45.56919" lon="6.07016">
        <ele>1610</ele>
        <time>2021-11-11T10:33:57Z</time>
      </trkpt>
      <trkpt lat="45.56913" lon="6.07026">
        <ele>1611</ele>
        <time>2021-11-11T10:34:10Z</time>
      </trkpt>
      <trkpt lat="45.56904" lon="6.07026">
        <ele>1615</ele>
        <time>2021-11-11T10:34:22Z</time>
      </trkpt>
      <trkpt lat="45.56897" lon="6.07022">
        <ele>1616</ele>
        <time>2021-11-11T10:34:32Z</time>
      </trkpt>
      <trkpt lat="45.56886" lon="6.07021">
        <ele>1618</ele>
        <time>2021-11-11T10:34:44Z</time>
      </trkpt>
      <trkpt lat="45.56874" lon="6.07021">
        <ele>1616</ele>
        <time>2021-11-11T10:34:54Z</time>
      </trkpt>
      <trkpt lat="45.56868" lon="6.07023">
        <ele>1616</ele>
        <time>2021-11-11T10:34:59Z</time>
      </trkpt>
      <trkpt lat="45.56862" lon="6.07026">
        <ele>1615</ele>
        <time>2021-11-11T10:35:01Z</time>
      </trkpt>
      <trkpt lat="45.56849" lon="6.07032">
        <ele>1615</ele>
        <time>2021-11-11T10:35:05Z</time>
      </trkpt>
      <trkpt lat="45.5684" lon="6.07037">
        <ele>1614</ele>
        <time>2021-11-11T10:35:10Z</time>
      </trkpt>
      <trkpt lat="45.56835" lon="6.07039">
        <ele>1614</ele>
        <time>2021-11-11T10:35:15Z</time>
      </trkpt>
      <trkpt lat="45.56816" lon="6.07046">
        <ele>1614</ele>
        <time>2021-11-11T10:35:31Z</time>
      </trkpt>
      <trkpt lat="45.56808" lon="6.07046">
        <ele>1615</ele>
        <time>2021-11-11T10:35:39Z</time>
      </trkpt>
      <trkpt lat="45.56803" lon="6.0705">
        <ele>1615</ele>
        <time>2021-11-11T10:35:44Z</time>
      </trkpt>
      <trkpt lat="45.56797" lon="6.07048">
        <ele>1615</ele>
        <time>2021-11-11T10:35:50Z</time>
      </trkpt>
      <trkpt lat="45.56792" lon="6.07046">
        <ele>1616</ele>
        <time>2021-11-11T10:35:54Z</time>
      </trkpt>
      <trkpt lat="45.56786" lon="6.07045">
        <ele>1616</ele>
        <time>2021-11-11T10:35:58Z</time>
      </trkpt>
      <trkpt lat="45.5678" lon="6.07044">
        <ele>1616</ele>
        <time>2021-11-11T10:36:02Z</time>
      </trkpt>
      <trkpt lat="45.56774" lon="6.07043">
        <ele>1617</ele>
        <time>2021-11-11T10:36:07Z</time>
      </trkpt>
      <trkpt lat="45.56765" lon="6.07042">
        <ele>1617</ele>
        <time>2021-11-11T10:36:17Z</time>
      </trkpt>
      <trkpt lat="45.56758" lon="6.07042">
        <ele>1618</ele>
        <time>2021-11-11T10:36:23Z</time>
      </trkpt>
      <trkpt lat="45.56753" lon="6.07041">
        <ele>1618</ele>
        <time>2021-11-11T10:36:27Z</time>
      </trkpt>
      <trkpt lat="45.56741" lon="6.07035">
        <ele>1619</ele>
        <time>2021-11-11T10:36:35Z</time>
      </trkpt>
      <trkpt lat="45.56734" lon="6.07035">
        <ele>1619</ele>
        <time>2021-11-11T10:36:43Z</time>
      </trkpt>
      <trkpt lat="45.56729" lon="6.07034">
        <ele>1620</ele>
        <time>2021-11-11T10:36:48Z</time>
      </trkpt>
      <trkpt lat="45.56721" lon="6.07035">
        <ele>1622</ele>
        <time>2021-11-11T10:36:56Z</time>
      </trkpt>
      <trkpt lat="45.56715" lon="6.07036">
        <ele>1621</ele>
        <time>2021-11-11T10:37:01Z</time>
      </trkpt>
      <trkpt lat="45.56709" lon="6.07036">
        <ele>1622</ele>
        <time>2021-11-11T10:37:06Z</time>
      </trkpt>
      <trkpt lat="45.56703" lon="6.07036">
        <ele>1622</ele>
        <time>2021-11-11T10:37:13Z</time>
      </trkpt>
      <trkpt lat="45.56691" lon="6.07032">
        <ele>1625</ele>
        <time>2021-11-11T10:37:24Z</time>
      </trkpt>
      <trkpt lat="45.56685" lon="6.07027">
        <ele>1625</ele>
        <time>2021-11-11T10:37:32Z</time>
      </trkpt>
      <trkpt lat="45.56681" lon="6.07022">
        <ele>1626</ele>
        <time>2021-11-11T10:37:37Z</time>
      </trkpt>
      <trkpt lat="45.56676" lon="6.07017">
        <ele>1627</ele>
        <time>2021-11-11T10:37:42Z</time>
      </trkpt>
      <trkpt lat="45.56671" lon="6.0701">
        <ele>1628</ele>
        <time>2021-11-11T10:37:47Z</time>
      </trkpt>
      <trkpt lat="45.56667" lon="6.07003">
        <ele>1628</ele>
        <time>2021-11-11T10:37:55Z</time>
      </trkpt>
      <trkpt lat="45.56662" lon="6.06992">
        <ele>1631</ele>
        <time>2021-11-11T10:38:07Z</time>
      </trkpt>
      <trkpt lat="45.56657" lon="6.06977">
        <ele>1632</ele>
        <time>2021-11-11T10:38:19Z</time>
      </trkpt>
      <trkpt lat="45.56654" lon="6.06971">
        <ele>1633</ele>
        <time>2021-11-11T10:38:25Z</time>
      </trkpt>
      <trkpt lat="45.56653" lon="6.06953">
        <ele>1637</ele>
        <time>2021-11-11T10:38:39Z</time>
      </trkpt>
      <trkpt lat="45.56651" lon="6.06944">
        <ele>1636</ele>
        <time>2021-11-11T10:38:45Z</time>
      </trkpt>
      <trkpt lat="45.56651" lon="6.06936">
        <ele>1639</ele>
        <time>2021-11-11T10:38:50Z</time>
      </trkpt>
      <trkpt lat="45.56645" lon="6.06929">
        <ele>1639</ele>
        <time>2021-11-11T10:38:58Z</time>
      </trkpt>
      <trkpt lat="45.56645" lon="6.0692">
        <ele>1640</ele>
        <time>2021-11-11T10:39:06Z</time>
      </trkpt>
      <trkpt lat="45.56647" lon="6.06906">
        <ele>1642</ele>
        <time>2021-11-11T10:39:17Z</time>
      </trkpt>
      <trkpt lat="45.56646" lon="6.06898">
        <ele>1643</ele>
        <time>2021-11-11T10:39:26Z</time>
      </trkpt>
      <trkpt lat="45.56641" lon="6.06886">
        <ele>1644</ele>
        <time>2021-11-11T10:39:38Z</time>
      </trkpt>
      <trkpt lat="45.56641" lon="6.06862">
        <ele>1647</ele>
        <time>2021-11-11T10:40:02Z</time>
      </trkpt>
      <trkpt lat="45.56649" lon="6.06842">
        <ele>1653</ele>
        <time>2021-11-11T10:40:31Z</time>
      </trkpt>
      <trkpt lat="45.5665" lon="6.06832">
        <ele>1656</ele>
        <time>2021-11-11T10:40:46Z</time>
      </trkpt>
      <trkpt lat="45.56648" lon="6.0682">
        <ele>1658</ele>
        <time>2021-11-11T10:41:02Z</time>
      </trkpt>
      <trkpt lat="45.5665" lon="6.06814">
        <ele>1662</ele>
        <time>2021-11-11T10:42:43Z</time>
      </trkpt>
      <trkpt lat="45.56644" lon="6.06811">
        <ele>1661</ele>
        <time>2021-11-11T10:44:13Z</time>
      </trkpt>
      <trkpt lat="45.56638" lon="6.06807">
        <ele>1663</ele>
        <time>2021-11-11T10:44:31Z</time>
      </trkpt>
      <trkpt lat="45.56635" lon="6.068">
        <ele>1664</ele>
        <time>2021-11-11T10:44:43Z</time>
      </trkpt>
      <trkpt lat="45.56631" lon="6.06792">
        <ele>1664</ele>
        <time>2021-11-11T10:44:55Z</time>
      </trkpt>
      <trkpt lat="45.56627" lon="6.06785">
        <ele>1665</ele>
        <time>2021-11-11T10:45:01Z</time>
      </trkpt>
      <trkpt lat="45.56624" lon="6.06775">
        <ele>1664</ele>
        <time>2021-11-11T10:45:11Z</time>
      </trkpt>
      <trkpt lat="45.56622" lon="6.06767">
        <ele>1664</ele>
        <time>2021-11-11T10:45:17Z</time>
      </trkpt>
      <trkpt lat="45.56621" lon="6.06757">
        <ele>1667</ele>
        <time>2021-11-11T10:45:31Z</time>
      </trkpt>
      <trkpt lat="45.56617" lon="6.06746">
        <ele>1666</ele>
        <time>2021-11-11T10:45:44Z</time>
      </trkpt>
      <trkpt lat="45.56613" lon="6.06739">
        <ele>1667</ele>
        <time>2021-11-11T10:45:56Z</time>
      </trkpt>
      <trkpt lat="45.56606" lon="6.06735">
        <ele>1669</ele>
        <time>2021-11-11T10:46:08Z</time>
      </trkpt>
      <trkpt lat="45.56602" lon="6.06723">
        <ele>1668</ele>
        <time>2021-11-11T10:46:20Z</time>
      </trkpt>
      <trkpt lat="45.56601" lon="6.06714">
        <ele>1671</ele>
        <time>2021-11-11T10:46:32Z</time>
      </trkpt>
      <trkpt lat="45.56597" lon="6.06702">
        <ele>1668</ele>
        <time>2021-11-11T10:46:45Z</time>
      </trkpt>
      <trkpt lat="45.56594" lon="6.06695">
        <ele>1673</ele>
        <time>2021-11-11T10:46:53Z</time>
      </trkpt>
      <trkpt lat="45.56594" lon="6.06685">
        <ele>1672</ele>
        <time>2021-11-11T10:47:05Z</time>
      </trkpt>
      <trkpt lat="45.56591" lon="6.06677">
        <ele>1676</ele>
        <time>2021-11-11T10:47:17Z</time>
      </trkpt>
      <trkpt lat="45.56589" lon="6.06669">
        <ele>1675</ele>
        <time>2021-11-11T10:47:27Z</time>
      </trkpt>
      <trkpt lat="45.56595" lon="6.06673">
        <ele>1675</ele>
        <time>2021-11-11T10:48:23Z</time>
      </trkpt>
      <trkpt lat="45.56595" lon="6.0666">
        <ele>1674</ele>
        <time>2021-11-11T10:48:58Z</time>
      </trkpt>
      <trkpt lat="45.56592" lon="6.06659">
        <ele>1672</ele>
        <time>2021-11-11T10:53:22Z</time>
      </trkpt>
      <trkpt lat="45.56591" lon="6.06667">
        <ele>1672</ele>
        <time>2021-11-11T10:55:48Z</time>
      </trkpt>
      <trkpt lat="45.56584" lon="6.06668">
        <ele>1670</ele>
        <time>2021-11-11T10:58:00Z</time>
      </trkpt>
      <trkpt lat="45.56586" lon="6.06666">
        <ele>1671</ele>
        <time>2021-11-11T10:59:54Z</time>
      </trkpt>
      <trkpt lat="45.56587" lon="6.06667">
        <ele>1672</ele>
        <time>2021-11-11T11:15:16Z</time>
      </trkpt>
      <trkpt lat="45.56593" lon="6.06656">
        <ele>1672</ele>
        <time>2021-11-11T11:16:32Z</time>
      </trkpt>
      <trkpt lat="45.56595" lon="6.06662">
        <ele>1667</ele>
        <time>2021-11-11T11:18:43Z</time>
      </trkpt>
      <trkpt lat="45.5659" lon="6.06666">
        <ele>1665</ele>
        <time>2021-11-11T11:18:47Z</time>
      </trkpt>
      <trkpt lat="45.56582" lon="6.06683">
        <ele>1661</ele>
        <time>2021-11-11T11:19:02Z</time>
      </trkpt>
      <trkpt lat="45.56577" lon="6.06687">
        <ele>1660</ele>
        <time>2021-11-11T11:19:07Z</time>
      </trkpt>
      <trkpt lat="45.56574" lon="6.06693">
        <ele>1657</ele>
        <time>2021-11-11T11:19:16Z</time>
      </trkpt>
      <trkpt lat="45.56565" lon="6.06694">
        <ele>1654</ele>
        <time>2021-11-11T11:20:05Z</time>
      </trkpt>
      <trkpt lat="45.56526" lon="6.06667">
        <ele>1636</ele>
        <time>2021-11-11T11:20:48Z</time>
      </trkpt>
      <trkpt lat="45.5651" lon="6.06675">
        <ele>1626</ele>
        <time>2021-11-11T11:21:12Z</time>
      </trkpt>
      <trkpt lat="45.56479" lon="6.06674">
        <ele>1607</ele>
        <time>2021-11-11T11:22:00Z</time>
      </trkpt>
      <trkpt lat="45.56464" lon="6.06669">
        <ele>1600</ele>
        <time>2021-11-11T11:22:25Z</time>
      </trkpt>
      <trkpt lat="45.56426" lon="6.06663">
        <ele>1581</ele>
        <time>2021-11-11T11:23:13Z</time>
      </trkpt>
      <trkpt lat="45.5641" lon="6.06662">
        <ele>1571</ele>
        <time>2021-11-11T11:23:41Z</time>
      </trkpt>
      <trkpt lat="45.56381" lon="6.06658">
        <ele>1555</ele>
        <time>2021-11-11T11:24:26Z</time>
      </trkpt>
      <trkpt lat="45.56342" lon="6.06636">
        <ele>1539</ele>
        <time>2021-11-11T11:25:17Z</time>
      </trkpt>
      <trkpt lat="45.56311" lon="6.06624">
        <ele>1525</ele>
        <time>2021-11-11T11:26:02Z</time>
      </trkpt>
      <trkpt lat="45.56297" lon="6.0661">
        <ele>1518</ele>
        <time>2021-11-11T11:26:27Z</time>
      </trkpt>
      <trkpt lat="45.56265" lon="6.06594">
        <ele>1509</ele>
        <time>2021-11-11T11:27:04Z</time>
      </trkpt>
      <trkpt lat="45.56249" lon="6.06589">
        <ele>1504</ele>
        <time>2021-11-11T11:27:33Z</time>
      </trkpt>
      <trkpt lat="45.56218" lon="6.06567">
        <ele>1491</ele>
        <time>2021-11-11T11:28:21Z</time>
      </trkpt>
      <trkpt lat="45.56177" lon="6.06557">
        <ele>1472</ele>
        <time>2021-11-11T11:29:14Z</time>
      </trkpt>
      <trkpt lat="45.56161" lon="6.06563">
        <ele>1464</ele>
        <time>2021-11-11T11:29:38Z</time>
      </trkpt>
      <trkpt lat="45.56175" lon="6.0652">
        <ele>1457</ele>
        <time>2021-11-11T11:30:11Z</time>
      </trkpt>
      <trkpt lat="45.56189" lon="6.06494">
        <ele>1454</ele>
        <time>2021-11-11T11:30:40Z</time>
      </trkpt>
      <trkpt lat="45.56237" lon="6.06459">
        <ele>1448</ele>
        <time>2021-11-11T11:31:46Z</time>
      </trkpt>
      <trkpt lat="45.56234" lon="6.06455">
        <ele>1433</ele>
        <time>2021-11-11T11:33:02Z</time>
      </trkpt>
      <trkpt lat="45.56264" lon="6.06439">
        <ele>1421</ele>
        <time>2021-11-11T11:34:11Z</time>
      </trkpt>
      <trkpt lat="45.56315" lon="6.06406">
        <ele>1407</ele>
        <time>2021-11-11T11:35:40Z</time>
      </trkpt>
      <trkpt lat="45.56338" lon="6.06357">
        <ele>1406</ele>
        <time>2021-11-11T11:36:33Z</time>
      </trkpt>
      <trkpt lat="45.56341" lon="6.06294">
        <ele>1392</ele>
        <time>2021-11-11T11:37:32Z</time>
      </trkpt>
      <trkpt lat="45.56386" lon="6.0623">
        <ele>1377</ele>
        <time>2021-11-11T11:38:28Z</time>
      </trkpt>
      <trkpt lat="45.56403" lon="6.06203">
        <ele>1372</ele>
        <time>2021-11-11T11:38:56Z</time>
      </trkpt>
      <trkpt lat="45.56432" lon="6.06174">
        <ele>1357</ele>
        <time>2021-11-11T11:40:11Z</time>
      </trkpt>
      <trkpt lat="45.56462" lon="6.06157">
        <ele>1352</ele>
        <time>2021-11-11T11:40:50Z</time>
      </trkpt>
      <trkpt lat="45.5651" lon="6.06097">
        <ele>1339</ele>
        <time>2021-11-11T11:41:45Z</time>
      </trkpt>
      <trkpt lat="45.56535" lon="6.06075">
        <ele>1335</ele>
        <time>2021-11-11T11:42:07Z</time>
      </trkpt>
      <trkpt lat="45.56552" lon="6.06047">
        <ele>1334</ele>
        <time>2021-11-11T11:42:35Z</time>
      </trkpt>
      <trkpt lat="45.56584" lon="6.0602">
        <ele>1338</ele>
        <time>2021-11-11T11:43:09Z</time>
      </trkpt>
      <trkpt lat="45.56611" lon="6.06013">
        <ele>1335</ele>
        <time>2021-11-11T11:43:32Z</time>
      </trkpt>
      <trkpt lat="45.56626" lon="6.05977">
        <ele>1323</ele>
        <time>2021-11-11T11:44:15Z</time>
      </trkpt>
      <trkpt lat="45.56664" lon="6.05972">
        <ele>1317</ele>
        <time>2021-11-11T11:50:17Z</time>
      </trkpt>
      <trkpt lat="45.56686" lon="6.05944">
        <ele>1310</ele>
        <time>2021-11-11T11:50:39Z</time>
      </trkpt>
      <trkpt lat="45.56726" lon="6.05916">
        <ele>1305</ele>
        <time>2021-11-11T11:51:44Z</time>
      </trkpt>
      <trkpt lat="45.56759" lon="6.05878">
        <ele>1303</ele>
        <time>2021-11-11T11:52:18Z</time>
      </trkpt>
      <trkpt lat="45.56787" lon="6.05874">
        <ele>1304</ele>
        <time>2021-11-11T11:52:39Z</time>
      </trkpt>
      <trkpt lat="45.5682" lon="6.05903">
        <ele>1296</ele>
        <time>2021-11-11T11:53:23Z</time>
      </trkpt>
      <trkpt lat="45.56861" lon="6.05936">
        <ele>1287</ele>
        <time>2021-11-11T11:53:59Z</time>
      </trkpt>
      <trkpt lat="45.56873" lon="6.0595">
        <ele>1285</ele>
        <time>2021-11-11T11:54:13Z</time>
      </trkpt>
      <trkpt lat="45.56881" lon="6.05967">
        <ele>1283</ele>
        <time>2021-11-11T11:54:22Z</time>
      </trkpt>
      <trkpt lat="45.56897" lon="6.05981">
        <ele>1281</ele>
        <time>2021-11-11T11:54:36Z</time>
      </trkpt>
      <trkpt lat="45.56906" lon="6.05994">
        <ele>1277</ele>
        <time>2021-11-11T11:54:51Z</time>
      </trkpt>
      <trkpt lat="45.56938" lon="6.06051">
        <ele>1270</ele>
        <time>2021-11-11T11:55:34Z</time>
      </trkpt>
      <trkpt lat="45.56948" lon="6.06069">
        <ele>1266</ele>
        <time>2021-11-11T11:55:48Z</time>
      </trkpt>
      <trkpt lat="45.56969" lon="6.06101">
        <ele>1260</ele>
        <time>2021-11-11T11:56:19Z</time>
      </trkpt>
      <trkpt lat="45.56993" lon="6.06128">
        <ele>1258</ele>
        <time>2021-11-11T11:56:42Z</time>
      </trkpt>
      <trkpt lat="45.57021" lon="6.06141">
        <ele>1258</ele>
        <time>2021-11-11T11:57:01Z</time>
      </trkpt>
      <trkpt lat="45.57069" lon="6.06185">
        <ele>1247</ele>
        <time>2021-11-11T11:57:55Z</time>
      </trkpt>
      <trkpt lat="45.57115" lon="6.06257">
        <ele>1236</ele>
        <time>2021-11-11T11:59:38Z</time>
      </trkpt>
      <trkpt lat="45.57145" lon="6.06252">
        <ele>1220</ele>
        <time>2021-11-11T12:00:37Z</time>
      </trkpt>
      <trkpt lat="45.57178" lon="6.06267">
        <ele>1208</ele>
        <time>2021-11-11T12:01:20Z</time>
      </trkpt>
      <trkpt lat="45.57214" lon="6.06287">
        <ele>1197</ele>
        <time>2021-11-11T12:01:55Z</time>
      </trkpt>
      <trkpt lat="45.57245" lon="6.06295">
        <ele>1192</ele>
        <time>2021-11-11T12:02:22Z</time>
      </trkpt>
      <trkpt lat="45.57287" lon="6.06321">
        <ele>1186</ele>
        <time>2021-11-11T12:04:33Z</time>
      </trkpt>
      <trkpt lat="45.57322" lon="6.06326">
        <ele>1176</ele>
        <time>2021-11-11T12:05:27Z</time>
      </trkpt>
      <trkpt lat="45.57358" lon="6.06357">
        <ele>1172</ele>
        <time>2021-11-11T12:05:58Z</time>
      </trkpt>
      <trkpt lat="45.574" lon="6.06415">
        <ele>1160</ele>
        <time>2021-11-11T12:06:47Z</time>
      </trkpt>
      <trkpt lat="45.57423" lon="6.06437">
        <ele>1157</ele>
        <time>2021-11-11T12:07:38Z</time>
      </trkpt>
      <trkpt lat="45.57477" lon="6.06474">
        <ele>1148</ele>
        <time>2021-11-11T12:08:38Z</time>
      </trkpt>
      <trkpt lat="45.57538" lon="6.06522">
        <ele>1141</ele>
        <time>2021-11-11T12:09:36Z</time>
      </trkpt>
      <trkpt lat="45.57564" lon="6.06544">
        <ele>1141</ele>
        <time>2021-11-11T12:09:59Z</time>
      </trkpt>
      <trkpt lat="45.5759" lon="6.06561">
        <ele>1145</ele>
        <time>2021-11-11T12:10:27Z</time>
      </trkpt>
      <trkpt lat="45.57612" lon="6.06586">
        <ele>1146</ele>
        <time>2021-11-11T12:10:54Z</time>
      </trkpt>
      <trkpt lat="45.57626" lon="6.06595">
        <ele>1146</ele>
        <time>2021-11-11T12:11:11Z</time>
      </trkpt>
      <trkpt lat="45.57644" lon="6.06587">
        <ele>1143</ele>
        <time>2021-11-11T12:12:06Z</time>
      </trkpt>
      <trkpt lat="45.57681" lon="6.06582">
        <ele>1140</ele>
        <time>2021-11-11T12:12:40Z</time>
      </trkpt>
      <trkpt lat="45.57696" lon="6.06579">
        <ele>1139</ele>
        <time>2021-11-11T12:12:50Z</time>
      </trkpt>
      <trkpt lat="45.57712" lon="6.06582">
        <ele>1137</ele>
        <time>2021-11-11T12:13:00Z</time>
      </trkpt>
      <trkpt lat="45.57726" lon="6.06581">
        <ele>1137</ele>
        <time>2021-11-11T12:13:11Z</time>
      </trkpt>
      <trkpt lat="45.57741" lon="6.06586">
        <ele>1137</ele>
        <time>2021-11-11T12:13:25Z</time>
      </trkpt>
      <trkpt lat="45.57754" lon="6.06599">
        <ele>1133</ele>
        <time>2021-11-11T12:13:42Z</time>
      </trkpt>
      <trkpt lat="45.57777" lon="6.06601">
        <ele>1127</ele>
        <time>2021-11-11T12:14:34Z</time>
      </trkpt>
      <trkpt lat="45.57821" lon="6.0659">
        <ele>1112</ele>
        <time>2021-11-11T12:15:26Z</time>
      </trkpt>
      <trkpt lat="45.57838" lon="6.06591">
        <ele>1109</ele>
        <time>2021-11-11T12:15:40Z</time>
      </trkpt>
      <trkpt lat="45.57881" lon="6.06566">
        <ele>1102</ele>
        <time>2021-11-11T12:16:12Z</time>
      </trkpt>
      <trkpt lat="45.57894" lon="6.0656">
        <ele>1101</ele>
        <time>2021-11-11T12:16:24Z</time>
      </trkpt>
      <trkpt lat="45.57909" lon="6.0655">
        <ele>1099</ele>
        <time>2021-11-11T12:16:35Z</time>
      </trkpt>
      <trkpt lat="45.57924" lon="6.06543">
        <ele>1099</ele>
        <time>2021-11-11T12:16:45Z</time>
      </trkpt>
      <trkpt lat="45.57937" lon="6.06533">
        <ele>1097</ele>
        <time>2021-11-11T12:16:55Z</time>
      </trkpt>
      <trkpt lat="45.57951" lon="6.06525">
        <ele>1099</ele>
        <time>2021-11-11T12:17:08Z</time>
      </trkpt>
      <trkpt lat="45.57962" lon="6.06511">
        <ele>1096</ele>
        <time>2021-11-11T12:17:39Z</time>
      </trkpt>
      <trkpt lat="45.57976" lon="6.06499">
        <ele>1093</ele>
        <time>2021-11-11T12:18:01Z</time>
      </trkpt>
      <trkpt lat="45.57986" lon="6.06517">
        <ele>1091</ele>
        <time>2021-11-11T12:18:12Z</time>
      </trkpt>
      <trkpt lat="45.57992" lon="6.06535">
        <ele>1090</ele>
        <time>2021-11-11T12:18:25Z</time>
      </trkpt>
      <trkpt lat="45.58009" lon="6.06564">
        <ele>1085</ele>
        <time>2021-11-11T12:18:57Z</time>
      </trkpt>
      <trkpt lat="45.5803" lon="6.0655">
        <ele>1080</ele>
        <time>2021-11-11T12:19:18Z</time>
      </trkpt>
      <trkpt lat="45.58046" lon="6.0653">
        <ele>1075</ele>
        <time>2021-11-11T12:20:58Z</time>
      </trkpt>
      <trkpt lat="45.58043" lon="6.06508">
        <ele>1072</ele>
        <time>2021-11-11T12:21:12Z</time>
      </trkpt>
      <trkpt lat="45.58027" lon="6.06471">
        <ele>1067</ele>
        <time>2021-11-11T12:21:29Z</time>
      </trkpt>
      <trkpt lat="45.58016" lon="6.06429">
        <ele>1065</ele>
        <time>2021-11-11T12:21:53Z</time>
      </trkpt>
      <trkpt lat="45.58031" lon="6.064">
        <ele>1058</ele>
        <time>2021-11-11T12:22:26Z</time>
      </trkpt>
      <trkpt lat="45.58045" lon="6.06389">
        <ele>1057</ele>
        <time>2021-11-11T12:22:37Z</time>
      </trkpt>
      <trkpt lat="45.58066" lon="6.0636">
        <ele>1053</ele>
        <time>2021-11-11T12:22:58Z</time>
      </trkpt>
      <trkpt lat="45.58082" lon="6.06354">
        <ele>1052</ele>
        <time>2021-11-11T12:23:10Z</time>
      </trkpt>
      <trkpt lat="45.58096" lon="6.06344">
        <ele>1049</ele>
        <time>2021-11-11T12:23:19Z</time>
      </trkpt>
      <trkpt lat="45.58107" lon="6.06331">
        <ele>1050</ele>
        <time>2021-11-11T12:23:31Z</time>
      </trkpt>
      <trkpt lat="45.58118" lon="6.06317">
        <ele>1049</ele>
        <time>2021-11-11T12:23:45Z</time>
      </trkpt>
      <trkpt lat="45.58134" lon="6.06314">
        <ele>1046</ele>
        <time>2021-11-11T12:24:01Z</time>
      </trkpt>
      <trkpt lat="45.58148" lon="6.0632">
        <ele>1043</ele>
        <time>2021-11-11T12:24:11Z</time>
      </trkpt>
      <trkpt lat="45.58211" lon="6.06306">
        <ele>1039</ele>
        <time>2021-11-11T12:24:55Z</time>
      </trkpt>
      <trkpt lat="45.5816" lon="6.0626">
        <ele>1040</ele>
        <time>2021-11-11T12:25:55Z</time>
      </trkpt>
      <trkpt lat="45.58096" lon="6.0621">
        <ele>1048</ele>
        <time>2021-11-11T12:27:04Z</time>
      </trkpt>
      <trkpt lat="45.58145" lon="6.06216">
        <ele>1056</ele>
        <time>2021-11-11T12:28:17Z</time>
      </trkpt>
      <trkpt lat="45.58174" lon="6.06224">
        <ele>1059</ele>
        <time>2021-11-11T12:28:47Z</time>
      </trkpt>
      <trkpt lat="45.5816" lon="6.06216">
        <ele>1059</ele>
        <time>2021-11-11T12:31:10Z</time>
      </trkpt>
      <trkpt lat="45.58086" lon="6.06191">
        <ele>1053</ele>
        <time>2021-11-11T12:31:18Z</time>
      </trkpt>
      <trkpt lat="45.58056" lon="6.06178">
        <ele>1051</ele>
        <time>2021-11-11T12:31:21Z</time>
      </trkpt>
      <trkpt lat="45.58038" lon="6.06135">
        <ele>1045</ele>
        <time>2021-11-11T12:31:25Z</time>
      </trkpt>
      <trkpt lat="45.58016" lon="6.0609">
        <ele>1040</ele>
        <time>2021-11-11T12:31:29Z</time>
      </trkpt>
      <trkpt lat="45.57989" lon="6.06068">
        <ele>1040</ele>
        <time>2021-11-11T12:31:32Z</time>
      </trkpt>
      <trkpt lat="45.57959" lon="6.06046">
        <ele>1036</ele>
        <time>2021-11-11T12:31:35Z</time>
      </trkpt>
      <trkpt lat="45.5791" lon="6.0597">
        <ele>1028</ele>
        <time>2021-11-11T12:31:41Z</time>
      </trkpt>
      <trkpt lat="45.57888" lon="6.05888">
        <ele>1023</ele>
        <time>2021-11-11T12:31:45Z</time>
      </trkpt>
      <trkpt lat="45.57884" lon="6.05843">
        <ele>1020</ele>
        <time>2021-11-11T12:31:47Z</time>
      </trkpt>
      <trkpt lat="45.5805" lon="6.05199">
        <ele>969</ele>
        <time>2021-11-11T12:32:20Z</time>
      </trkpt>
      <trkpt lat="45.58069" lon="6.05163">
        <ele>966</ele>
        <time>2021-11-11T12:32:23Z</time>
      </trkpt>
      <trkpt lat="45.58034" lon="6.05182">
        <ele>960</ele>
        <time>2021-11-11T12:32:33Z</time>
      </trkpt>
      <trkpt lat="45.57914" lon="6.05408">
        <ele>944</ele>
        <time>2021-11-11T12:32:49Z</time>
      </trkpt>
      <trkpt lat="45.57905" lon="6.0538">
        <ele>930</ele>
        <time>2021-11-11T12:33:03Z</time>
      </trkpt>
      <trkpt lat="45.57967" lon="6.05135">
        <ele>918</ele>
        <time>2021-11-11T12:33:18Z</time>
      </trkpt>
      <trkpt lat="45.58005" lon="6.05055">
        <ele>910</ele>
        <time>2021-11-11T12:33:24Z</time>
      </trkpt>
      <trkpt lat="45.58033" lon="6.0502">
        <ele>907</ele>
        <time>2021-11-11T12:33:27Z</time>
      </trkpt>
      <trkpt lat="45.58063" lon="6.05004">
        <ele>901</ele>
        <time>2021-11-11T12:33:31Z</time>
      </trkpt>
      <trkpt lat="45.58068" lon="6.04933">
        <ele>896</ele>
        <time>2021-11-11T12:33:37Z</time>
      </trkpt>
      <trkpt lat="45.58071" lon="6.04883">
        <ele>893</ele>
        <time>2021-11-11T12:33:40Z</time>
      </trkpt>
      <trkpt lat="45.58088" lon="6.04844">
        <ele>889</ele>
        <time>2021-11-11T12:33:43Z</time>
      </trkpt>
      <trkpt lat="45.58105" lon="6.048">
        <ele>885</ele>
        <time>2021-11-11T12:33:46Z</time>
      </trkpt>
      <trkpt lat="45.58107" lon="6.04749">
        <ele>883</ele>
        <time>2021-11-11T12:33:49Z</time>
      </trkpt>
      <trkpt lat="45.58211" lon="6.04544">
        <ele>865</ele>
        <time>2021-11-11T12:34:04Z</time>
      </trkpt>
      <trkpt lat="45.58233" lon="6.04502">
        <ele>863</ele>
        <time>2021-11-11T12:34:07Z</time>
      </trkpt>
      <trkpt lat="45.58293" lon="6.0444">
        <ele>855</ele>
        <time>2021-11-11T12:34:13Z</time>
      </trkpt>
      <trkpt lat="45.58359" lon="6.04402">
        <ele>846</ele>
        <time>2021-11-11T12:34:21Z</time>
      </trkpt>
      <trkpt lat="45.58389" lon="6.04369">
        <ele>839</ele>
        <time>2021-11-11T12:34:25Z</time>
      </trkpt>
      <trkpt lat="45.58393" lon="6.04328">
        <ele>840</ele>
        <time>2021-11-11T12:34:28Z</time>
      </trkpt>
      <trkpt lat="45.58439" lon="6.04301">
        <ele>830</ele>
        <time>2021-11-11T12:34:35Z</time>
      </trkpt>
      <trkpt lat="45.5846" lon="6.04275">
        <ele>827</ele>
        <time>2021-11-11T12:34:39Z</time>
      </trkpt>
      <trkpt lat="45.58444" lon="6.04203">
        <ele>826</ele>
        <time>2021-11-11T12:34:45Z</time>
      </trkpt>
      <trkpt lat="45.58418" lon="6.04148">
        <ele>822</ele>
        <time>2021-11-11T12:34:49Z</time>
      </trkpt>
      <trkpt lat="45.58406" lon="6.04112">
        <ele>820</ele>
        <time>2021-11-11T12:34:52Z</time>
      </trkpt>
      <trkpt lat="45.58434" lon="6.04069">
        <ele>814</ele>
        <time>2021-11-11T12:34:56Z</time>
      </trkpt>
      <trkpt lat="45.5847" lon="6.04065">
        <ele>809</ele>
        <time>2021-11-11T12:35:00Z</time>
      </trkpt>
      <trkpt lat="45.58498" lon="6.04038">
        <ele>805</ele>
        <time>2021-11-11T12:35:04Z</time>
      </trkpt>
      <trkpt lat="45.58488" lon="6.03999">
        <ele>805</ele>
        <time>2021-11-11T12:35:08Z</time>
      </trkpt>
      <trkpt lat="45.58507" lon="6.03953">
        <ele>800</ele>
        <time>2021-11-11T12:35:13Z</time>
      </trkpt>
      <trkpt lat="45.58537" lon="6.03923">
        <ele>797</ele>
        <time>2021-11-11T12:35:16Z</time>
      </trkpt>
      <trkpt lat="45.5857" lon="6.03904">
        <ele>796</ele>
        <time>2021-11-11T12:35:19Z</time>
      </trkpt>
      <trkpt lat="45.58601" lon="6.03897">
        <ele>792</ele>
        <time>2021-11-11T12:35:22Z</time>
      </trkpt>
      <trkpt lat="45.58619" lon="6.03858">
        <ele>792</ele>
        <time>2021-11-11T12:35:26Z</time>
      </trkpt>
      <trkpt lat="45.58634" lon="6.0381">
        <ele>790</ele>
        <time>2021-11-11T12:35:30Z</time>
      </trkpt>
      <trkpt lat="45.58655" lon="6.03774">
        <ele>788</ele>
        <time>2021-11-11T12:35:34Z</time>
      </trkpt>
      <trkpt lat="45.58623" lon="6.03779">
        <ele>784</ele>
        <time>2021-11-11T12:35:47Z</time>
      </trkpt>
      <trkpt lat="45.58613" lon="6.03818">
        <ele>783</ele>
        <time>2021-11-11T12:35:50Z</time>
      </trkpt>
      <trkpt lat="45.58587" lon="6.03841">
        <ele>780</ele>
        <time>2021-11-11T12:35:53Z</time>
      </trkpt>
      <trkpt lat="45.5848" lon="6.03878">
        <ele>776</ele>
        <time>2021-11-11T12:36:02Z</time>
      </trkpt>
      <trkpt lat="45.58452" lon="6.03904">
        <ele>772</ele>
        <time>2021-11-11T12:36:05Z</time>
      </trkpt>
      <trkpt lat="45.58432" lon="6.03939">
        <ele>771</ele>
        <time>2021-11-11T12:36:08Z</time>
      </trkpt>
      <trkpt lat="45.58398" lon="6.03955">
        <ele>767</ele>
        <time>2021-11-11T12:36:12Z</time>
      </trkpt>
      <trkpt lat="45.58363" lon="6.03959">
        <ele>767</ele>
        <time>2021-11-11T12:36:15Z</time>
      </trkpt>
      <trkpt lat="45.58331" lon="6.03943">
        <ele>767</ele>
        <time>2021-11-11T12:36:18Z</time>
      </trkpt>
      <trkpt lat="45.58367" lon="6.03908">
        <ele>762</ele>
        <time>2021-11-11T12:36:25Z</time>
      </trkpt>
      <trkpt lat="45.5839" lon="6.03875">
        <ele>762</ele>
        <time>2021-11-11T12:36:29Z</time>
      </trkpt>
      <trkpt lat="45.58408" lon="6.03839">
        <ele>761</ele>
        <time>2021-11-11T12:36:32Z</time>
      </trkpt>
      <trkpt lat="45.58462" lon="6.03788">
        <ele>754</ele>
        <time>2021-11-11T12:36:38Z</time>
      </trkpt>
      <trkpt lat="45.58485" lon="6.03756">
        <ele>750</ele>
        <time>2021-11-11T12:36:41Z</time>
      </trkpt>
      <trkpt lat="45.5849" lon="6.03713">
        <ele>750</ele>
        <time>2021-11-11T12:36:44Z</time>
      </trkpt>
      <trkpt lat="45.58509" lon="6.03619">
        <ele>745</ele>
        <time>2021-11-11T12:36:50Z</time>
      </trkpt>
      <trkpt lat="45.58526" lon="6.03572">
        <ele>742</ele>
        <time>2021-11-11T12:36:53Z</time>
      </trkpt>
      <trkpt lat="45.58548" lon="6.03537">
        <ele>738</ele>
        <time>2021-11-11T12:36:56Z</time>
      </trkpt>
      <trkpt lat="45.58575" lon="6.03503">
        <ele>732</ele>
        <time>2021-11-11T12:37:00Z</time>
      </trkpt>
      <trkpt lat="45.58535" lon="6.03503">
        <ele>730</ele>
        <time>2021-11-11T12:37:07Z</time>
      </trkpt>
      <trkpt lat="45.58404" lon="6.03615">
        <ele>722</ele>
        <time>2021-11-11T12:37:19Z</time>
      </trkpt>
      <trkpt lat="45.5822" lon="6.03656">
        <ele>708</ele>
        <time>2021-11-11T12:37:34Z</time>
      </trkpt>
      <trkpt lat="45.5819" lon="6.0364">
        <ele>703</ele>
        <time>2021-11-11T12:37:38Z</time>
      </trkpt>
      <trkpt lat="45.58179" lon="6.03595">
        <ele>701</ele>
        <time>2021-11-11T12:37:42Z</time>
      </trkpt>
      <trkpt lat="45.58206" lon="6.03557">
        <ele>698</ele>
        <time>2021-11-11T12:37:46Z</time>
      </trkpt>
      <trkpt lat="45.58335" lon="6.03453">
        <ele>693</ele>
        <time>2021-11-11T12:37:58Z</time>
      </trkpt>
      <trkpt lat="45.58622" lon="6.03022">
        <ele>665</ele>
        <time>2021-11-11T12:38:29Z</time>
      </trkpt>
      <trkpt lat="45.58749" lon="6.02903">
        <ele>658</ele>
        <time>2021-11-11T12:38:40Z</time>
      </trkpt>
      <trkpt lat="45.58887" lon="6.02859">
        <ele>649</ele>
        <time>2021-11-11T12:38:53Z</time>
      </trkpt>
      <trkpt lat="45.59161" lon="6.02698">
        <ele>634</ele>
        <time>2021-11-11T12:39:18Z</time>
      </trkpt>
      <trkpt lat="45.59218" lon="6.02626">
        <ele>628</ele>
        <time>2021-11-11T12:39:24Z</time>
      </trkpt>
      <trkpt lat="45.59242" lon="6.02593">
        <ele>620</ele>
        <time>2021-11-11T12:39:27Z</time>
      </trkpt>
      <trkpt lat="45.5924" lon="6.0255">
        <ele>619</ele>
        <time>2021-11-11T12:39:30Z</time>
      </trkpt>
      <trkpt lat="45.59222" lon="6.02505">
        <ele>618</ele>
        <time>2021-11-11T12:39:33Z</time>
      </trkpt>
      <trkpt lat="45.59202" lon="6.02461">
        <ele>614</ele>
        <time>2021-11-11T12:39:36Z</time>
      </trkpt>
      <trkpt lat="45.59177" lon="6.02427">
        <ele>609</ele>
        <time>2021-11-11T12:39:39Z</time>
      </trkpt>
      <trkpt lat="45.59145" lon="6.02421">
        <ele>607</ele>
        <time>2021-11-11T12:39:42Z</time>
      </trkpt>
      <trkpt lat="45.58998" lon="6.02304">
        <ele>588</ele>
        <time>2021-11-11T12:39:57Z</time>
      </trkpt>
      <trkpt lat="45.58961" lon="6.0231">
        <ele>587</ele>
        <time>2021-11-11T12:40:01Z</time>
      </trkpt>
      <trkpt lat="45.58931" lon="6.0232">
        <ele>583</ele>
        <time>2021-11-11T12:40:04Z</time>
      </trkpt>
      <trkpt lat="45.58868" lon="6.02271">
        <ele>574</ele>
        <time>2021-11-11T12:40:10Z</time>
      </trkpt>
      <trkpt lat="45.58832" lon="6.02261">
        <ele>571</ele>
        <time>2021-11-11T12:40:14Z</time>
      </trkpt>
      <trkpt lat="45.58799" lon="6.02244">
        <ele>568</ele>
        <time>2021-11-11T12:40:18Z</time>
      </trkpt>
      <trkpt lat="45.58821" lon="6.02199">
        <ele>559</ele>
        <time>2021-11-11T12:40:24Z</time>
      </trkpt>
      <trkpt lat="45.58886" lon="6.02237">
        <ele>552</ele>
        <time>2021-11-11T12:40:30Z</time>
      </trkpt>
      <trkpt lat="45.58919" lon="6.02241">
        <ele>550</ele>
        <time>2021-11-11T12:40:33Z</time>
      </trkpt>
      <trkpt lat="45.58944" lon="6.02212">
        <ele>549</ele>
        <time>2021-11-11T12:40:36Z</time>
      </trkpt>
      <trkpt lat="45.58976" lon="6.0219">
        <ele>543</ele>
        <time>2021-11-11T12:40:40Z</time>
      </trkpt>
      <trkpt lat="45.59005" lon="6.02187">
        <ele>541</ele>
        <time>2021-11-11T12:40:43Z</time>
      </trkpt>
      <trkpt lat="45.59056" lon="6.02192">
        <ele>537</ele>
        <time>2021-11-11T12:40:47Z</time>
      </trkpt>
      <trkpt lat="45.5912" lon="6.02182">
        <ele>534</ele>
        <time>2021-11-11T12:40:52Z</time>
      </trkpt>
      <trkpt lat="45.59152" lon="6.02185">
        <ele>527</ele>
        <time>2021-11-11T12:40:55Z</time>
      </trkpt>
      <trkpt lat="45.59178" lon="6.02162">
        <ele>525</ele>
        <time>2021-11-11T12:40:59Z</time>
      </trkpt>
      <trkpt lat="45.59179" lon="6.02117">
        <ele>525</ele>
        <time>2021-11-11T12:41:03Z</time>
      </trkpt>
      <trkpt lat="45.59166" lon="6.02072">
        <ele>525</ele>
        <time>2021-11-11T12:41:07Z</time>
      </trkpt>
      <trkpt lat="45.59079" lon="6.02006">
        <ele>536</ele>
        <time>2021-11-11T12:41:16Z</time>
      </trkpt>
      <trkpt lat="45.59051" lon="6.01986">
        <ele>540</ele>
        <time>2021-11-11T12:41:19Z</time>
      </trkpt>
      <trkpt lat="45.59029" lon="6.01942">
        <ele>543</ele>
        <time>2021-11-11T12:41:23Z</time>
      </trkpt>
      <trkpt lat="45.59001" lon="6.01919">
        <ele>548</ele>
        <time>2021-11-11T12:41:27Z</time>
      </trkpt>
      <trkpt lat="45.58823" lon="6.01821">
        <ele>570</ele>
        <time>2021-11-11T12:41:42Z</time>
      </trkpt>
      <trkpt lat="45.58844" lon="6.01803">
        <ele>576</ele>
        <time>2021-11-11T12:41:53Z</time>
      </trkpt>
      <trkpt lat="45.58877" lon="6.01817">
        <ele>580</ele>
        <time>2021-11-11T12:41:56Z</time>
      </trkpt>
      <trkpt lat="45.5891" lon="6.01835">
        <ele>582</ele>
        <time>2021-11-11T12:41:59Z</time>
      </trkpt>
      <trkpt lat="45.59001" lon="6.0186">
        <ele>592</ele>
        <time>2021-11-11T12:42:07Z</time>
      </trkpt>
      <trkpt lat="45.59036" lon="6.01867">
        <ele>595</ele>
        <time>2021-11-11T12:42:11Z</time>
      </trkpt>
      <trkpt lat="45.59031" lon="6.01825">
        <ele>602</ele>
        <time>2021-11-11T12:42:22Z</time>
      </trkpt>
      <trkpt lat="45.58906" lon="6.01389">
        <ele>622</ele>
        <time>2021-11-11T12:42:48Z</time>
      </trkpt>
      <trkpt lat="45.58839" lon="6.01297">
        <ele>621</ele>
        <time>2021-11-11T12:42:55Z</time>
      </trkpt>
      <trkpt lat="45.58746" lon="6.01169">
        <ele>616</ele>
        <time>2021-11-11T12:43:05Z</time>
      </trkpt>
      <trkpt lat="45.58704" lon="6.01116">
        <ele>615</ele>
        <time>2021-11-11T12:43:10Z</time>
      </trkpt>
      <trkpt lat="45.58644" lon="6.01071">
        <ele>612</ele>
        <time>2021-11-11T12:43:15Z</time>
      </trkpt>
      <trkpt lat="45.58617" lon="6.01036">
        <ele>613</ele>
        <time>2021-11-11T12:43:18Z</time>
      </trkpt>
      <trkpt lat="45.58578" lon="6.00493">
        <ele>601</ele>
        <time>2021-11-11T12:43:43Z</time>
      </trkpt>
      <trkpt lat="45.58578" lon="6.00437">
        <ele>600</ele>
        <time>2021-11-11T12:43:46Z</time>
      </trkpt>
      <trkpt lat="45.58583" lon="6.00265">
        <ele>595</ele>
        <time>2021-11-11T12:43:55Z</time>
      </trkpt>
      <trkpt lat="45.58579" lon="5.99972">
        <ele>588</ele>
        <time>2021-11-11T12:44:11Z</time>
      </trkpt>
      <trkpt lat="45.58576" lon="5.99856">
        <ele>590</ele>
        <time>2021-11-11T12:44:17Z</time>
      </trkpt>
      <trkpt lat="45.58584" lon="5.99713">
        <ele>587</ele>
        <time>2021-11-11T12:44:26Z</time>
      </trkpt>
      <trkpt lat="45.58594" lon="5.99668">
        <ele>585</ele>
        <time>2021-11-11T12:44:36Z</time>
      </trkpt>
      <trkpt lat="45.58591" lon="5.99482">
        <ele>582</ele>
        <time>2021-11-11T12:44:55Z</time>
      </trkpt>
      <trkpt lat="45.58583" lon="5.99392">
        <ele>578</ele>
        <time>2021-11-11T12:45:04Z</time>
      </trkpt>
      <trkpt lat="45.58579" lon="5.99246">
        <ele>573</ele>
        <time>2021-11-11T12:45:17Z</time>
      </trkpt>
      <trkpt lat="45.58573" lon="5.99205">
        <ele>572</ele>
        <time>2021-11-11T12:45:20Z</time>
      </trkpt>
      <trkpt lat="45.58596" lon="5.9901">
        <ele>562</ele>
        <time>2021-11-11T12:45:36Z</time>
      </trkpt>
      <trkpt lat="45.586" lon="5.98779">
        <ele>546</ele>
        <time>2021-11-11T12:45:52Z</time>
      </trkpt>
      <trkpt lat="45.58593" lon="5.98732">
        <ele>543</ele>
        <time>2021-11-11T12:45:56Z</time>
      </trkpt>
      <trkpt lat="45.58559" lon="5.98654">
        <ele>537</ele>
        <time>2021-11-11T12:46:04Z</time>
      </trkpt>
      <trkpt lat="45.58544" lon="5.98604">
        <ele>533</ele>
        <time>2021-11-11T12:46:08Z</time>
      </trkpt>
      <trkpt lat="45.58544" lon="5.9856">
        <ele>530</ele>
        <time>2021-11-11T12:46:11Z</time>
      </trkpt>
      <trkpt lat="45.58568" lon="5.98424">
        <ele>523</ele>
        <time>2021-11-11T12:46:20Z</time>
      </trkpt>
      <trkpt lat="45.58572" lon="5.98337">
        <ele>518</ele>
        <time>2021-11-11T12:46:26Z</time>
      </trkpt>
      <trkpt lat="45.5857" lon="5.98285">
        <ele>512</ele>
        <time>2021-11-11T12:46:30Z</time>
      </trkpt>
      <trkpt lat="45.58546" lon="5.98258">
        <ele>509</ele>
        <time>2021-11-11T12:46:34Z</time>
      </trkpt>
      <trkpt lat="45.58513" lon="5.98284">
        <ele>506</ele>
        <time>2021-11-11T12:46:39Z</time>
      </trkpt>
      <trkpt lat="45.58479" lon="5.98375">
        <ele>500</ele>
        <time>2021-11-11T12:46:46Z</time>
      </trkpt>
      <trkpt lat="45.58465" lon="5.98352">
        <ele>493</ele>
        <time>2021-11-11T12:46:58Z</time>
      </trkpt>
      <trkpt lat="45.58446" lon="5.98245">
        <ele>492</ele>
        <time>2021-11-11T12:47:05Z</time>
      </trkpt>
      <trkpt lat="45.58405" lon="5.98117">
        <ele>485</ele>
        <time>2021-11-11T12:47:12Z</time>
      </trkpt>
      <trkpt lat="45.584" lon="5.98062">
        <ele>481</ele>
        <time>2021-11-11T12:47:15Z</time>
      </trkpt>
      <trkpt lat="45.58412" lon="5.98016">
        <ele>477</ele>
        <time>2021-11-11T12:47:18Z</time>
      </trkpt>
      <trkpt lat="45.58468" lon="5.97982">
        <ele>469</ele>
        <time>2021-11-11T12:47:24Z</time>
      </trkpt>
      <trkpt lat="45.58498" lon="5.97967">
        <ele>467</ele>
        <time>2021-11-11T12:47:27Z</time>
      </trkpt>
      <trkpt lat="45.58524" lon="5.97937">
        <ele>466</ele>
        <time>2021-11-11T12:47:31Z</time>
      </trkpt>
      <trkpt lat="45.58507" lon="5.97925">
        <ele>459</ele>
        <time>2021-11-11T12:47:45Z</time>
      </trkpt>
      <trkpt lat="45.58445" lon="5.97903">
        <ele>454</ele>
        <time>2021-11-11T12:47:51Z</time>
      </trkpt>
      <trkpt lat="45.58377" lon="5.97904">
        <ele>451</ele>
        <time>2021-11-11T12:47:57Z</time>
      </trkpt>
      <trkpt lat="45.58347" lon="5.97906">
        <ele>445</ele>
        <time>2021-11-11T12:48:00Z</time>
      </trkpt>
      <trkpt lat="45.58361" lon="5.97912">
        <ele>438</ele>
        <time>2021-11-11T12:48:12Z</time>
      </trkpt>
      <trkpt lat="45.58438" lon="5.97877">
        <ele>432</ele>
        <time>2021-11-11T12:48:18Z</time>
      </trkpt>
      <trkpt lat="45.5847" lon="5.97862">
        <ele>426</ele>
        <time>2021-11-11T12:48:21Z</time>
      </trkpt>
      <trkpt lat="45.58503" lon="5.9784">
        <ele>424</ele>
        <time>2021-11-11T12:48:24Z</time>
      </trkpt>
      <trkpt lat="45.5853" lon="5.9781">
        <ele>424</ele>
        <time>2021-11-11T12:48:27Z</time>
      </trkpt>
      <trkpt lat="45.58617" lon="5.9775">
        <ele>411</ele>
        <time>2021-11-11T12:48:37Z</time>
      </trkpt>
      <trkpt lat="45.58609" lon="5.97679">
        <ele>414</ele>
        <time>2021-11-11T12:48:53Z</time>
      </trkpt>
      <trkpt lat="45.58575" lon="5.97583">
        <ele>413</ele>
        <time>2021-11-11T12:49:02Z</time>
      </trkpt>
      <trkpt lat="45.58388" lon="5.97507">
        <ele>400</ele>
        <time>2021-11-11T12:49:18Z</time>
      </trkpt>
      <trkpt lat="45.58329" lon="5.97453">
        <ele>396</ele>
        <time>2021-11-11T12:49:21Z</time>
      </trkpt>
      <trkpt lat="45.58222" lon="5.97374">
        <ele>389</ele>
        <time>2021-11-11T12:49:29Z</time>
      </trkpt>
      <trkpt lat="45.58138" lon="5.97339">
        <ele>381</ele>
        <time>2021-11-11T12:49:35Z</time>
      </trkpt>
      <trkpt lat="45.58036" lon="5.97315">
        <ele>375</ele>
        <time>2021-11-11T12:49:41Z</time>
      </trkpt>
      <trkpt lat="45.58002" lon="5.97294">
        <ele>371</ele>
        <time>2021-11-11T12:49:43Z</time>
      </trkpt>
      <trkpt lat="45.58025" lon="5.9724">
        <ele>365</ele>
        <time>2021-11-11T12:49:53Z</time>
      </trkpt>
      <trkpt lat="45.58038" lon="5.97187">
        <ele>363</ele>
        <time>2021-11-11T12:49:57Z</time>
      </trkpt>
      <trkpt lat="45.5809" lon="5.97036">
        <ele>348</ele>
        <time>2021-11-11T12:50:16Z</time>
      </trkpt>
      <trkpt lat="45.58083" lon="5.96987">
        <ele>343</ele>
        <time>2021-11-11T12:50:25Z</time>
      </trkpt>
      <trkpt lat="45.58083" lon="5.9694">
        <ele>342</ele>
        <time>2021-11-11T12:50:28Z</time>
      </trkpt>
      <trkpt lat="45.58089" lon="5.96831">
        <ele>334</ele>
        <time>2021-11-11T12:50:36Z</time>
      </trkpt>
      <trkpt lat="45.58081" lon="5.96764">
        <ele>327</ele>
        <time>2021-11-11T12:50:40Z</time>
      </trkpt>
      <trkpt lat="45.58071" lon="5.96712">
        <ele>325</ele>
        <time>2021-11-11T12:50:43Z</time>
      </trkpt>
      <trkpt lat="45.57977" lon="5.96613">
        <ele>311</ele>
        <time>2021-11-11T12:50:54Z</time>
      </trkpt>
      <trkpt lat="45.57888" lon="5.96572">
        <ele>311</ele>
        <time>2021-11-11T12:51:01Z</time>
      </trkpt>
      <trkpt lat="45.57819" lon="5.96513">
        <ele>310</ele>
        <time>2021-11-11T12:51:09Z</time>
      </trkpt>
      <trkpt lat="45.57793" lon="5.96478">
        <ele>307</ele>
        <time>2021-11-11T12:51:13Z</time>
      </trkpt>
      <trkpt lat="45.57768" lon="5.96449">
        <ele>309</ele>
        <time>2021-11-11T12:51:17Z</time>
      </trkpt>
      <trkpt lat="45.57717" lon="5.96388">
        <ele>308</ele>
        <time>2021-11-11T12:51:23Z</time>
      </trkpt>
      <trkpt lat="45.57683" lon="5.96362">
        <ele>310</ele>
        <time>2021-11-11T12:51:26Z</time>
      </trkpt>
      <trkpt lat="45.57636" lon="5.96363">
        <ele>311</ele>
        <time>2021-11-11T12:51:29Z</time>
      </trkpt>
      <trkpt lat="45.57531" lon="5.96383">
        <ele>310</ele>
        <time>2021-11-11T12:51:36Z</time>
      </trkpt>
      <trkpt lat="45.575" lon="5.9639">
        <ele>306</ele>
        <time>2021-11-11T12:51:39Z</time>
      </trkpt>
      <trkpt lat="45.57468" lon="5.96407">
        <ele>307</ele>
        <time>2021-11-11T12:51:43Z</time>
      </trkpt>
      <trkpt lat="45.57439" lon="5.96412">
        <ele>307</ele>
        <time>2021-11-11T12:51:47Z</time>
      </trkpt>
      <trkpt lat="45.57322" lon="5.96362">
        <ele>307</ele>
        <time>2021-11-11T12:52:02Z</time>
      </trkpt>
      <trkpt lat="45.57289" lon="5.96346">
        <ele>307</ele>
        <time>2021-11-11T12:52:05Z</time>
      </trkpt>
      <trkpt lat="45.57238" lon="5.96181">
        <ele>307</ele>
        <time>2021-11-11T12:52:14Z</time>
      </trkpt>
      <trkpt lat="45.57209" lon="5.96001">
        <ele>304</ele>
        <time>2021-11-11T12:52:27Z</time>
      </trkpt>
    </trkseg>
  </trk>
  <trk>
    <name><![CDATA[23 oct. 2021 à 15:36:40]]></name>
    <cmt><![CDATA[23 oct. 2021 à 15:36:40]]></cmt>
    <trkseg>
      <trkpt lat="45.186" lon="5.56616">
        <ele>1094</ele>
        <time>2021-10-23T13:36:40Z</time>
      </trkpt>
      <trkpt lat="45.18599" lon="5.56616">
        <ele>1094</ele>
        <time>2021-10-23T13:36:41Z</time>
      </trkpt>
      <trkpt lat="45.18596" lon="5.5663">
        <ele>1096</ele>
        <time>2021-10-23T13:36:53Z</time>
      </trkpt>
      <trkpt lat="45.18593" lon="5.56638">
        <ele>1096</ele>
        <time>2021-10-23T13:36:58Z</time>
      </trkpt>
      <trkpt lat="45.18589" lon="5.56644">
        <ele>1097</ele>
        <time>2021-10-23T13:37:04Z</time>
      </trkpt>
      <trkpt lat="45.18585" lon="5.56664">
        <ele>1100</ele>
        <time>2021-10-23T13:37:18Z</time>
      </trkpt>
      <trkpt lat="45.18584" lon="5.56678">
        <ele>1099</ele>
        <time>2021-10-23T13:37:27Z</time>
      </trkpt>
      <trkpt lat="45.18582" lon="5.56685">
        <ele>1102</ele>
        <time>2021-10-23T13:37:32Z</time>
      </trkpt>
      <trkpt lat="45.18579" lon="5.56716">
        <ele>1106</ele>
        <time>2021-10-23T13:37:58Z</time>
      </trkpt>
      <trkpt lat="45.18575" lon="5.56729">
        <ele>1109</ele>
        <time>2021-10-23T13:38:13Z</time>
      </trkpt>
      <trkpt lat="45.18574" lon="5.56737">
        <ele>1113</ele>
        <time>2021-10-23T13:38:18Z</time>
      </trkpt>
      <trkpt lat="45.18569" lon="5.56743">
        <ele>1110</ele>
        <time>2021-10-23T13:38:22Z</time>
      </trkpt>
      <trkpt lat="45.18557" lon="5.56753">
        <ele>1110</ele>
        <time>2021-10-23T13:38:34Z</time>
      </trkpt>
      <trkpt lat="45.18553" lon="5.56763">
        <ele>1110</ele>
        <time>2021-10-23T13:38:41Z</time>
      </trkpt>
      <trkpt lat="45.18553" lon="5.56775">
        <ele>1112</ele>
        <time>2021-10-23T13:38:48Z</time>
      </trkpt>
      <trkpt lat="45.18547" lon="5.56783">
        <ele>1114</ele>
        <time>2021-10-23T13:39:02Z</time>
      </trkpt>
      <trkpt lat="45.18525" lon="5.56797">
        <ele>1117</ele>
        <time>2021-10-23T13:39:22Z</time>
      </trkpt>
      <trkpt lat="45.18516" lon="5.56797">
        <ele>1118</ele>
        <time>2021-10-23T13:39:28Z</time>
      </trkpt>
      <trkpt lat="45.1851" lon="5.56801">
        <ele>1119</ele>
        <time>2021-10-23T13:39:33Z</time>
      </trkpt>
      <trkpt lat="45.18479" lon="5.56806">
        <ele>1127</ele>
        <time>2021-10-23T13:40:09Z</time>
      </trkpt>
      <trkpt lat="45.18469" lon="5.56805">
        <ele>1130</ele>
        <time>2021-10-23T13:40:22Z</time>
      </trkpt>
      <trkpt lat="45.1846" lon="5.56816">
        <ele>1135</ele>
        <time>2021-10-23T13:40:41Z</time>
      </trkpt>
      <trkpt lat="45.18451" lon="5.5683">
        <ele>1139</ele>
        <time>2021-10-23T13:40:59Z</time>
      </trkpt>
      <trkpt lat="45.18419" lon="5.56854">
        <ele>1150</ele>
        <time>2021-10-23T13:41:51Z</time>
      </trkpt>
      <trkpt lat="45.18408" lon="5.5687">
        <ele>1156</ele>
        <time>2021-10-23T13:42:14Z</time>
      </trkpt>
      <trkpt lat="45.18404" lon="5.5688">
        <ele>1161</ele>
        <time>2021-10-23T13:43:35Z</time>
      </trkpt>
      <trkpt lat="45.18393" lon="5.56871">
        <ele>1161</ele>
        <time>2021-10-23T13:43:50Z</time>
      </trkpt>
      <trkpt lat="45.1835" lon="5.5687">
        <ele>1169</ele>
        <time>2021-10-23T13:44:25Z</time>
      </trkpt>
      <trkpt lat="45.18344" lon="5.56869">
        <ele>1170</ele>
        <time>2021-10-23T13:44:31Z</time>
      </trkpt>
      <trkpt lat="45.18355" lon="5.56894">
        <ele>1175</ele>
        <time>2021-10-23T13:45:05Z</time>
      </trkpt>
      <trkpt lat="45.18353" lon="5.56904">
        <ele>1179</ele>
        <time>2021-10-23T13:45:22Z</time>
      </trkpt>
      <trkpt lat="45.18344" lon="5.56913">
        <ele>1182</ele>
        <time>2021-10-23T13:45:36Z</time>
      </trkpt>
      <trkpt lat="45.18338" lon="5.56921">
        <ele>1182</ele>
        <time>2021-10-23T13:45:59Z</time>
      </trkpt>
      <trkpt lat="45.18323" lon="5.56911">
        <ele>1183</ele>
        <time>2021-10-23T13:46:09Z</time>
      </trkpt>
      <trkpt lat="45.18315" lon="5.56911">
        <ele>1183</ele>
        <time>2021-10-23T13:46:14Z</time>
      </trkpt>
      <trkpt lat="45.1831" lon="5.56918">
        <ele>1184</ele>
        <time>2021-10-23T13:46:22Z</time>
      </trkpt>
      <trkpt lat="45.18319" lon="5.56929">
        <ele>1187</ele>
        <time>2021-10-23T13:46:36Z</time>
      </trkpt>
      <trkpt lat="45.18327" lon="5.5693">
        <ele>1188</ele>
        <time>2021-10-23T13:46:41Z</time>
      </trkpt>
      <trkpt lat="45.18333" lon="5.56937">
        <ele>1189</ele>
        <time>2021-10-23T13:46:47Z</time>
      </trkpt>
      <trkpt lat="45.18334" lon="5.56947">
        <ele>1191</ele>
        <time>2021-10-23T13:46:55Z</time>
      </trkpt>
      <trkpt lat="45.18323" lon="5.56956">
        <ele>1193</ele>
        <time>2021-10-23T13:47:10Z</time>
      </trkpt>
      <trkpt lat="45.18317" lon="5.56964">
        <ele>1194</ele>
        <time>2021-10-23T13:47:13Z</time>
      </trkpt>
      <trkpt lat="45.18313" lon="5.5697">
        <ele>1195</ele>
        <time>2021-10-23T13:47:27Z</time>
      </trkpt>
      <trkpt lat="45.18319" lon="5.56972">
        <ele>1196</ele>
        <time>2021-10-23T13:47:32Z</time>
      </trkpt>
      <trkpt lat="45.18325" lon="5.56971">
        <ele>1196</ele>
        <time>2021-10-23T13:47:36Z</time>
      </trkpt>
      <trkpt lat="45.1833" lon="5.56968">
        <ele>1197</ele>
        <time>2021-10-23T13:47:41Z</time>
      </trkpt>
      <trkpt lat="45.18336" lon="5.56969">
        <ele>1197</ele>
        <time>2021-10-23T13:47:46Z</time>
      </trkpt>
      <trkpt lat="45.18351" lon="5.56972">
        <ele>1200</ele>
        <time>2021-10-23T13:47:59Z</time>
      </trkpt>
      <trkpt lat="45.18379" lon="5.5699">
        <ele>1203</ele>
        <time>2021-10-23T13:48:26Z</time>
      </trkpt>
      <trkpt lat="45.18403" lon="5.57011">
        <ele>1210</ele>
        <time>2021-10-23T13:48:57Z</time>
      </trkpt>
      <trkpt lat="45.18422" lon="5.57039">
        <ele>1216</ele>
        <time>2021-10-23T13:49:26Z</time>
      </trkpt>
      <trkpt lat="45.18476" lon="5.57065">
        <ele>1224</ele>
        <time>2021-10-23T13:50:13Z</time>
      </trkpt>
      <trkpt lat="45.18501" lon="5.57086">
        <ele>1230</ele>
        <time>2021-10-23T13:50:44Z</time>
      </trkpt>
      <trkpt lat="45.18524" lon="5.57115">
        <ele>1235</ele>
        <time>2021-10-23T13:51:15Z</time>
      </trkpt>
      <trkpt lat="45.18547" lon="5.57184">
        <ele>1243</ele>
        <time>2021-10-23T13:52:08Z</time>
      </trkpt>
      <trkpt lat="45.18547" lon="5.57221">
        <ele>1240</ele>
        <time>2021-10-23T13:52:28Z</time>
      </trkpt>
      <trkpt lat="45.18545" lon="5.57285">
        <ele>1248</ele>
        <time>2021-10-23T13:53:23Z</time>
      </trkpt>
      <trkpt lat="45.18532" lon="5.57319">
        <ele>1255</ele>
        <time>2021-10-23T13:53:54Z</time>
      </trkpt>
      <trkpt lat="45.1853" lon="5.57351">
        <ele>1264</ele>
        <time>2021-10-23T13:54:33Z</time>
      </trkpt>
      <trkpt lat="45.18524" lon="5.57379">
        <ele>1269</ele>
        <time>2021-10-23T13:54:56Z</time>
      </trkpt>
      <trkpt lat="45.18533" lon="5.57401">
        <ele>1272</ele>
        <time>2021-10-23T13:55:16Z</time>
      </trkpt>
      <trkpt lat="45.18546" lon="5.57408">
        <ele>1274</ele>
        <time>2021-10-23T13:55:32Z</time>
      </trkpt>
      <trkpt lat="45.18562" lon="5.57416">
        <ele>1282</ele>
        <time>2021-10-23T13:56:03Z</time>
      </trkpt>
      <trkpt lat="45.18592" lon="5.57409">
        <ele>1292</ele>
        <time>2021-10-23T13:56:57Z</time>
      </trkpt>
      <trkpt lat="45.18614" lon="5.57383">
        <ele>1301</ele>
        <time>2021-10-23T13:57:40Z</time>
      </trkpt>
      <trkpt lat="45.18647" lon="5.57371">
        <ele>1311</ele>
        <time>2021-10-23T13:58:27Z</time>
      </trkpt>
      <trkpt lat="45.18671" lon="5.57362">
        <ele>1321</ele>
        <time>2021-10-23T13:59:09Z</time>
      </trkpt>
      <trkpt lat="45.18686" lon="5.5736">
        <ele>1327</ele>
        <time>2021-10-23T13:59:41Z</time>
      </trkpt>
      <trkpt lat="45.18699" lon="5.57369">
        <ele>1332</ele>
        <time>2021-10-23T14:00:07Z</time>
      </trkpt>
      <trkpt lat="45.18712" lon="5.57387">
        <ele>1339</ele>
        <time>2021-10-23T14:00:43Z</time>
      </trkpt>
      <trkpt lat="45.18726" lon="5.57395">
        <ele>1343</ele>
        <time>2021-10-23T14:01:03Z</time>
      </trkpt>
      <trkpt lat="45.1874" lon="5.57409">
        <ele>1348</ele>
        <time>2021-10-23T14:01:30Z</time>
      </trkpt>
      <trkpt lat="45.18745" lon="5.57438">
        <ele>1354</ele>
        <time>2021-10-23T14:02:03Z</time>
      </trkpt>
      <trkpt lat="45.18764" lon="5.57471">
        <ele>1359</ele>
        <time>2021-10-23T14:02:42Z</time>
      </trkpt>
      <trkpt lat="45.18773" lon="5.57511">
        <ele>1376</ele>
        <time>2021-10-23T14:04:20Z</time>
      </trkpt>
      <trkpt lat="45.18746" lon="5.57535">
        <ele>1383</ele>
        <time>2021-10-23T14:05:04Z</time>
      </trkpt>
      <trkpt lat="45.18731" lon="5.57531">
        <ele>1387</ele>
        <time>2021-10-23T14:05:31Z</time>
      </trkpt>
      <trkpt lat="45.18696" lon="5.57532">
        <ele>1398</ele>
        <time>2021-10-23T14:06:24Z</time>
      </trkpt>
      <trkpt lat="45.18693" lon="5.5756">
        <ele>1402</ele>
        <time>2021-10-23T14:06:46Z</time>
      </trkpt>
      <trkpt lat="45.18698" lon="5.5758">
        <ele>1405</ele>
        <time>2021-10-23T14:07:08Z</time>
      </trkpt>
      <trkpt lat="45.18714" lon="5.57601">
        <ele>1408</ele>
        <time>2021-10-23T14:07:29Z</time>
      </trkpt>
      <trkpt lat="45.18719" lon="5.57619">
        <ele>1408</ele>
        <time>2021-10-23T14:07:41Z</time>
      </trkpt>
      <trkpt lat="45.18749" lon="5.57632">
        <ele>1416</ele>
        <time>2021-10-23T14:08:16Z</time>
      </trkpt>
      <trkpt lat="45.18754" lon="5.57678">
        <ele>1429</ele>
        <time>2021-10-23T14:09:31Z</time>
      </trkpt>
      <trkpt lat="45.18738" lon="5.57713">
        <ele>1439</ele>
        <time>2021-10-23T14:10:35Z</time>
      </trkpt>
      <trkpt lat="45.18705" lon="5.57754">
        <ele>1447</ele>
        <time>2021-10-23T14:11:15Z</time>
      </trkpt>
      <trkpt lat="45.18681" lon="5.57763">
        <ele>1450</ele>
        <time>2021-10-23T14:11:35Z</time>
      </trkpt>
      <trkpt lat="45.1865" lon="5.57766">
        <ele>1453</ele>
        <time>2021-10-23T14:11:58Z</time>
      </trkpt>
      <trkpt lat="45.18627" lon="5.57792">
        <ele>1454</ele>
        <time>2021-10-23T14:12:18Z</time>
      </trkpt>
      <trkpt lat="45.18589" lon="5.57853">
        <ele>1460</ele>
        <time>2021-10-23T14:13:58Z</time>
      </trkpt>
      <trkpt lat="45.1859" lon="5.57937">
        <ele>1471</ele>
        <time>2021-10-23T14:14:46Z</time>
      </trkpt>
      <trkpt lat="45.18572" lon="5.57968">
        <ele>1479</ele>
        <time>2021-10-23T14:15:21Z</time>
      </trkpt>
      <trkpt lat="45.18535" lon="5.58004">
        <ele>1489</ele>
        <time>2021-10-23T14:16:07Z</time>
      </trkpt>
      <trkpt lat="45.18509" lon="5.58029">
        <ele>1498</ele>
        <time>2021-10-23T14:16:49Z</time>
      </trkpt>
      <trkpt lat="45.18478" lon="5.58044">
        <ele>1501</ele>
        <time>2021-10-23T14:17:12Z</time>
      </trkpt>
      <trkpt lat="45.18467" lon="5.58023">
        <ele>1505</ele>
        <time>2021-10-23T14:17:54Z</time>
      </trkpt>
      <trkpt lat="45.18482" lon="5.58018">
        <ele>1505</ele>
        <time>2021-10-23T14:18:07Z</time>
      </trkpt>
      <trkpt lat="45.1851" lon="5.58015">
        <ele>1506</ele>
        <time>2021-10-23T14:18:30Z</time>
      </trkpt>
      <trkpt lat="45.18522" lon="5.58026">
        <ele>1507</ele>
        <time>2021-10-23T14:18:39Z</time>
      </trkpt>
      <trkpt lat="45.18549" lon="5.58014">
        <ele>1507</ele>
        <time>2021-10-23T14:19:01Z</time>
      </trkpt>
      <trkpt lat="45.18562" lon="5.58028">
        <ele>1507</ele>
        <time>2021-10-23T14:19:32Z</time>
      </trkpt>
      <trkpt lat="45.18595" lon="5.58072">
        <ele>1508</ele>
        <time>2021-10-23T14:20:12Z</time>
      </trkpt>
      <trkpt lat="45.18609" lon="5.58078">
        <ele>1508</ele>
        <time>2021-10-23T14:20:20Z</time>
      </trkpt>
      <trkpt lat="45.18614" lon="5.58098">
        <ele>1509</ele>
        <time>2021-10-23T14:20:31Z</time>
      </trkpt>
      <trkpt lat="45.18626" lon="5.58113">
        <ele>1509</ele>
        <time>2021-10-23T14:20:41Z</time>
      </trkpt>
      <trkpt lat="45.18631" lon="5.58132">
        <ele>1509</ele>
        <time>2021-10-23T14:20:53Z</time>
      </trkpt>
      <trkpt lat="45.18634" lon="5.58153">
        <ele>1510</ele>
        <time>2021-10-23T14:21:04Z</time>
      </trkpt>
      <trkpt lat="45.18641" lon="5.5817">
        <ele>1510</ele>
        <time>2021-10-23T14:21:13Z</time>
      </trkpt>
      <trkpt lat="45.1864" lon="5.58206">
        <ele>1510</ele>
        <time>2021-10-23T14:21:32Z</time>
      </trkpt>
      <trkpt lat="45.18649" lon="5.58223">
        <ele>1510</ele>
        <time>2021-10-23T14:21:44Z</time>
      </trkpt>
      <trkpt lat="45.18662" lon="5.58235">
        <ele>1510</ele>
        <time>2021-10-23T14:21:52Z</time>
      </trkpt>
      <trkpt lat="45.18667" lon="5.58258">
        <ele>1511</ele>
        <time>2021-10-23T14:22:04Z</time>
      </trkpt>
      <trkpt lat="45.18666" lon="5.58278">
        <ele>1511</ele>
        <time>2021-10-23T14:22:12Z</time>
      </trkpt>
      <trkpt lat="45.18677" lon="5.58292">
        <ele>1511</ele>
        <time>2021-10-23T14:22:23Z</time>
      </trkpt>
      <trkpt lat="45.1868" lon="5.58338">
        <ele>1511</ele>
        <time>2021-10-23T14:22:41Z</time>
      </trkpt>
      <trkpt lat="45.18719" lon="5.58383">
        <ele>1512</ele>
        <time>2021-10-23T14:23:35Z</time>
      </trkpt>
      <trkpt lat="45.18741" lon="5.58393">
        <ele>1513</ele>
        <time>2021-10-23T14:23:50Z</time>
      </trkpt>
      <trkpt lat="45.18752" lon="5.58403">
        <ele>1514</ele>
        <time>2021-10-23T14:24:03Z</time>
      </trkpt>
      <trkpt lat="45.18766" lon="5.58417">
        <ele>1513</ele>
        <time>2021-10-23T14:24:15Z</time>
      </trkpt>
      <trkpt lat="45.1878" lon="5.58444">
        <ele>1514</ele>
        <time>2021-10-23T14:24:35Z</time>
      </trkpt>
      <trkpt lat="45.18792" lon="5.58455">
        <ele>1515</ele>
        <time>2021-10-23T14:24:43Z</time>
      </trkpt>
      <trkpt lat="45.18806" lon="5.58465">
        <ele>1515</ele>
        <time>2021-10-23T14:24:57Z</time>
      </trkpt>
      <trkpt lat="45.18864" lon="5.58438">
        <ele>1518</ele>
        <time>2021-10-23T14:25:30Z</time>
      </trkpt>
      <trkpt lat="45.18877" lon="5.58436">
        <ele>1517</ele>
        <time>2021-10-23T14:25:38Z</time>
      </trkpt>
      <trkpt lat="45.18893" lon="5.58434">
        <ele>1517</ele>
        <time>2021-10-23T14:25:48Z</time>
      </trkpt>
      <trkpt lat="45.18899" lon="5.58432">
        <ele>1520</ele>
        <time>2021-10-23T14:25:51Z</time>
      </trkpt>
      <trkpt lat="45.18904" lon="5.58434">
        <ele>1518</ele>
        <time>2021-10-23T14:25:55Z</time>
      </trkpt>
      <trkpt lat="45.1891" lon="5.58435">
        <ele>1520</ele>
        <time>2021-10-23T14:25:59Z</time>
      </trkpt>
      <trkpt lat="45.18916" lon="5.58433">
        <ele>1519</ele>
        <time>2021-10-23T14:26:04Z</time>
      </trkpt>
      <trkpt lat="45.18922" lon="5.58433">
        <ele>1521</ele>
        <time>2021-10-23T14:26:08Z</time>
      </trkpt>
      <trkpt lat="45.18935" lon="5.58433">
        <ele>1519</ele>
        <time>2021-10-23T14:26:20Z</time>
      </trkpt>
      <trkpt lat="45.18934" lon="5.58433">
        <ele>1521</ele>
        <time>2021-10-23T14:27:33Z</time>
      </trkpt>
      <trkpt lat="45.18928" lon="5.58433">
        <ele>1521</ele>
        <time>2021-10-23T14:27:35Z</time>
      </trkpt>
      <trkpt lat="45.18922" lon="5.58432">
        <ele>1520</ele>
        <time>2021-10-23T14:27:37Z</time>
      </trkpt>
      <trkpt lat="45.1891" lon="5.58431">
        <ele>1520</ele>
        <time>2021-10-23T14:27:42Z</time>
      </trkpt>
      <trkpt lat="45.18905" lon="5.5843">
        <ele>1520</ele>
        <time>2021-10-23T14:27:44Z</time>
      </trkpt>
      <trkpt lat="45.189" lon="5.58424">
        <ele>1520</ele>
        <time>2021-10-23T14:27:46Z</time>
      </trkpt>
      <trkpt lat="45.18895" lon="5.58416">
        <ele>1519</ele>
        <time>2021-10-23T14:27:49Z</time>
      </trkpt>
      <trkpt lat="45.18883" lon="5.58403">
        <ele>1515</ele>
        <time>2021-10-23T14:27:59Z</time>
      </trkpt>
      <trkpt lat="45.18871" lon="5.58399">
        <ele>1512</ele>
        <time>2021-10-23T14:28:09Z</time>
      </trkpt>
      <trkpt lat="45.18855" lon="5.58391">
        <ele>1506</ele>
        <time>2021-10-23T14:28:21Z</time>
      </trkpt>
      <trkpt lat="45.1885" lon="5.58386">
        <ele>1506</ele>
        <time>2021-10-23T14:28:25Z</time>
      </trkpt>
      <trkpt lat="45.18844" lon="5.5838">
        <ele>1504</ele>
        <time>2021-10-23T14:28:28Z</time>
      </trkpt>
      <trkpt lat="45.18837" lon="5.58369">
        <ele>1504</ele>
        <time>2021-10-23T14:28:33Z</time>
      </trkpt>
      <trkpt lat="45.18835" lon="5.58362">
        <ele>1502</ele>
        <time>2021-10-23T14:28:37Z</time>
      </trkpt>
      <trkpt lat="45.18831" lon="5.58356">
        <ele>1503</ele>
        <time>2021-10-23T14:28:41Z</time>
      </trkpt>
      <trkpt lat="45.18828" lon="5.5835">
        <ele>1502</ele>
        <time>2021-10-23T14:28:45Z</time>
      </trkpt>
      <trkpt lat="45.18826" lon="5.58341">
        <ele>1501</ele>
        <time>2021-10-23T14:28:50Z</time>
      </trkpt>
      <trkpt lat="45.18833" lon="5.58308">
        <ele>1496</ele>
        <time>2021-10-23T14:29:04Z</time>
      </trkpt>
      <trkpt lat="45.18836" lon="5.58297">
        <ele>1494</ele>
        <time>2021-10-23T14:29:08Z</time>
      </trkpt>
      <trkpt lat="45.1884" lon="5.58291">
        <ele>1494</ele>
        <time>2021-10-23T14:29:11Z</time>
      </trkpt>
      <trkpt lat="45.18852" lon="5.58262">
        <ele>1488</ele>
        <time>2021-10-23T14:29:24Z</time>
      </trkpt>
      <trkpt lat="45.18854" lon="5.58245">
        <ele>1486</ele>
        <time>2021-10-23T14:29:31Z</time>
      </trkpt>
      <trkpt lat="45.18855" lon="5.58225">
        <ele>1482</ele>
        <time>2021-10-23T14:29:40Z</time>
      </trkpt>
      <trkpt lat="45.18853" lon="5.58215">
        <ele>1480</ele>
        <time>2021-10-23T14:29:44Z</time>
      </trkpt>
      <trkpt lat="45.18849" lon="5.58205">
        <ele>1479</ele>
        <time>2021-10-23T14:29:49Z</time>
      </trkpt>
      <trkpt lat="45.18847" lon="5.58194">
        <ele>1477</ele>
        <time>2021-10-23T14:29:56Z</time>
      </trkpt>
      <trkpt lat="45.18848" lon="5.58172">
        <ele>1471</ele>
        <time>2021-10-23T14:30:09Z</time>
      </trkpt>
      <trkpt lat="45.18858" lon="5.58141">
        <ele>1465</ele>
        <time>2021-10-23T14:30:27Z</time>
      </trkpt>
      <trkpt lat="45.18864" lon="5.58137">
        <ele>1463</ele>
        <time>2021-10-23T14:30:33Z</time>
      </trkpt>
      <trkpt lat="45.18879" lon="5.58128">
        <ele>1458</ele>
        <time>2021-10-23T14:30:45Z</time>
      </trkpt>
      <trkpt lat="45.18908" lon="5.58082">
        <ele>1449</ele>
        <time>2021-10-23T14:31:10Z</time>
      </trkpt>
      <trkpt lat="45.18917" lon="5.58051">
        <ele>1444</ele>
        <time>2021-10-23T14:31:30Z</time>
      </trkpt>
      <trkpt lat="45.18918" lon="5.58039">
        <ele>1443</ele>
        <time>2021-10-23T14:31:35Z</time>
      </trkpt>
      <trkpt lat="45.18924" lon="5.58031">
        <ele>1440</ele>
        <time>2021-10-23T14:31:42Z</time>
      </trkpt>
      <trkpt lat="45.18932" lon="5.58004">
        <ele>1435</ele>
        <time>2021-10-23T14:31:54Z</time>
      </trkpt>
      <trkpt lat="45.18938" lon="5.57995">
        <ele>1433</ele>
        <time>2021-10-23T14:31:59Z</time>
      </trkpt>
      <trkpt lat="45.18938" lon="5.57997">
        <ele>1427</ele>
        <time>2021-10-23T14:32:18Z</time>
      </trkpt>
      <trkpt lat="45.18924" lon="5.58003">
        <ele>1428</ele>
        <time>2021-10-23T14:32:42Z</time>
      </trkpt>
      <trkpt lat="45.1892" lon="5.58007">
        <ele>1427</ele>
        <time>2021-10-23T14:32:44Z</time>
      </trkpt>
      <trkpt lat="45.18911" lon="5.58011">
        <ele>1427</ele>
        <time>2021-10-23T14:32:48Z</time>
      </trkpt>
      <trkpt lat="45.18865" lon="5.58018">
        <ele>1424</ele>
        <time>2021-10-23T14:33:08Z</time>
      </trkpt>
      <trkpt lat="45.18847" lon="5.5801">
        <ele>1423</ele>
        <time>2021-10-23T14:33:16Z</time>
      </trkpt>
      <trkpt lat="45.1883" lon="5.57988">
        <ele>1421</ele>
        <time>2021-10-23T14:33:24Z</time>
      </trkpt>
      <trkpt lat="45.18814" lon="5.57977">
        <ele>1421</ele>
        <time>2021-10-23T14:33:30Z</time>
      </trkpt>
      <trkpt lat="45.18797" lon="5.57965">
        <ele>1421</ele>
        <time>2021-10-23T14:33:37Z</time>
      </trkpt>
      <trkpt lat="45.18773" lon="5.57915">
        <ele>1419</ele>
        <time>2021-10-23T14:34:01Z</time>
      </trkpt>
      <trkpt lat="45.18733" lon="5.57857">
        <ele>1423</ele>
        <time>2021-10-23T14:34:37Z</time>
      </trkpt>
      <trkpt lat="45.18729" lon="5.57837">
        <ele>1421</ele>
        <time>2021-10-23T14:34:47Z</time>
      </trkpt>
      <trkpt lat="45.18733" lon="5.57814">
        <ele>1421</ele>
        <time>2021-10-23T14:34:58Z</time>
      </trkpt>
      <trkpt lat="45.18738" lon="5.57795">
        <ele>1421</ele>
        <time>2021-10-23T14:35:08Z</time>
      </trkpt>
      <trkpt lat="45.18747" lon="5.57776">
        <ele>1421</ele>
        <time>2021-10-23T14:35:19Z</time>
      </trkpt>
      <trkpt lat="45.18756" lon="5.57737">
        <ele>1420</ele>
        <time>2021-10-23T14:35:42Z</time>
      </trkpt>
      <trkpt lat="45.18755" lon="5.57694">
        <ele>1420</ele>
        <time>2021-10-23T14:35:58Z</time>
      </trkpt>
      <trkpt lat="45.18752" lon="5.57652">
        <ele>1424</ele>
        <time>2021-10-23T14:36:15Z</time>
      </trkpt>
      <trkpt lat="45.18751" lon="5.57645">
        <ele>1424</ele>
        <time>2021-10-23T14:36:19Z</time>
      </trkpt>
      <trkpt lat="45.1875" lon="5.57636">
        <ele>1422</ele>
        <time>2021-10-23T14:36:23Z</time>
      </trkpt>
      <trkpt lat="45.18747" lon="5.5763">
        <ele>1420</ele>
        <time>2021-10-23T14:36:27Z</time>
      </trkpt>
      <trkpt lat="45.18739" lon="5.57621">
        <ele>1416</ele>
        <time>2021-10-23T14:36:35Z</time>
      </trkpt>
      <trkpt lat="45.18723" lon="5.57607">
        <ele>1412</ele>
        <time>2021-10-23T14:36:46Z</time>
      </trkpt>
      <trkpt lat="45.18715" lon="5.57598">
        <ele>1410</ele>
        <time>2021-10-23T14:36:50Z</time>
      </trkpt>
      <trkpt lat="45.18707" lon="5.57585">
        <ele>1409</ele>
        <time>2021-10-23T14:36:54Z</time>
      </trkpt>
      <trkpt lat="45.18692" lon="5.57559">
        <ele>1406</ele>
        <time>2021-10-23T14:37:06Z</time>
      </trkpt>
      <trkpt lat="45.18688" lon="5.57547">
        <ele>1402</ele>
        <time>2021-10-23T14:37:16Z</time>
      </trkpt>
      <trkpt lat="45.18719" lon="5.57538">
        <ele>1388</ele>
        <time>2021-10-23T14:37:54Z</time>
      </trkpt>
      <trkpt lat="45.18736" lon="5.57535">
        <ele>1385</ele>
        <time>2021-10-23T14:38:11Z</time>
      </trkpt>
      <trkpt lat="45.18743" lon="5.57528">
        <ele>1382</ele>
        <time>2021-10-23T14:38:15Z</time>
      </trkpt>
      <trkpt lat="45.18752" lon="5.57523">
        <ele>1381</ele>
        <time>2021-10-23T14:38:23Z</time>
      </trkpt>
      <trkpt lat="45.18781" lon="5.57487">
        <ele>1373</ele>
        <time>2021-10-23T14:38:43Z</time>
      </trkpt>
      <trkpt lat="45.18788" lon="5.57468">
        <ele>1370</ele>
        <time>2021-10-23T14:38:50Z</time>
      </trkpt>
      <trkpt lat="45.18766" lon="5.57467">
        <ele>1360</ele>
        <time>2021-10-23T14:39:13Z</time>
      </trkpt>
      <trkpt lat="45.1874" lon="5.57439">
        <ele>1354</ele>
        <time>2021-10-23T14:39:35Z</time>
      </trkpt>
      <trkpt lat="45.18731" lon="5.57418">
        <ele>1350</ele>
        <time>2021-10-23T14:39:47Z</time>
      </trkpt>
      <trkpt lat="45.18728" lon="5.57397">
        <ele>1344</ele>
        <time>2021-10-23T14:40:00Z</time>
      </trkpt>
      <trkpt lat="45.18717" lon="5.57385">
        <ele>1340</ele>
        <time>2021-10-23T14:40:09Z</time>
      </trkpt>
      <trkpt lat="45.18699" lon="5.5735">
        <ele>1331</ele>
        <time>2021-10-23T14:40:31Z</time>
      </trkpt>
      <trkpt lat="45.18687" lon="5.57334">
        <ele>1326</ele>
        <time>2021-10-23T14:40:43Z</time>
      </trkpt>
      <trkpt lat="45.18646" lon="5.57341">
        <ele>1311</ele>
        <time>2021-10-23T14:41:24Z</time>
      </trkpt>
      <trkpt lat="45.18605" lon="5.57375">
        <ele>1296</ele>
        <time>2021-10-23T14:42:05Z</time>
      </trkpt>
      <trkpt lat="45.18577" lon="5.57387">
        <ele>1288</ele>
        <time>2021-10-23T14:42:28Z</time>
      </trkpt>
      <trkpt lat="45.18544" lon="5.57375">
        <ele>1275</ele>
        <time>2021-10-23T14:43:03Z</time>
      </trkpt>
      <trkpt lat="45.18522" lon="5.57355">
        <ele>1266</ele>
        <time>2021-10-23T14:43:29Z</time>
      </trkpt>
      <trkpt lat="45.18528" lon="5.57312">
        <ele>1255</ele>
        <time>2021-10-23T14:43:57Z</time>
      </trkpt>
      <trkpt lat="45.18542" lon="5.57273">
        <ele>1246</ele>
        <time>2021-10-23T14:44:21Z</time>
      </trkpt>
      <trkpt lat="45.18548" lon="5.57257">
        <ele>1243</ele>
        <time>2021-10-23T14:45:08Z</time>
      </trkpt>
      <trkpt lat="45.18564" lon="5.57256">
        <ele>1232</ele>
        <time>2021-10-23T14:48:53Z</time>
      </trkpt>
      <trkpt lat="45.18578" lon="5.57265">
        <ele>1219</ele>
        <time>2021-10-23T14:49:41Z</time>
      </trkpt>
      <trkpt lat="45.18592" lon="5.57207">
        <ele>1202</ele>
        <time>2021-10-23T14:50:54Z</time>
      </trkpt>
      <trkpt lat="45.18597" lon="5.57162">
        <ele>1191</ele>
        <time>2021-10-23T14:51:19Z</time>
      </trkpt>
      <trkpt lat="45.18598" lon="5.57122">
        <ele>1182</ele>
        <time>2021-10-23T14:51:39Z</time>
      </trkpt>
      <trkpt lat="45.18612" lon="5.57069">
        <ele>1170</ele>
        <time>2021-10-23T14:52:12Z</time>
      </trkpt>
      <trkpt lat="45.18606" lon="5.57025">
        <ele>1158</ele>
        <time>2021-10-23T14:52:43Z</time>
      </trkpt>
      <trkpt lat="45.18595" lon="5.56943">
        <ele>1143</ele>
        <time>2021-10-23T14:53:23Z</time>
      </trkpt>
      <trkpt lat="45.18592" lon="5.56877">
        <ele>1132</ele>
        <time>2021-10-23T14:53:56Z</time>
      </trkpt>
      <trkpt lat="45.18595" lon="5.56855">
        <ele>1129</ele>
        <time>2021-10-23T14:54:02Z</time>
      </trkpt>
      <trkpt lat="45.18588" lon="5.56836">
        <ele>1128</ele>
        <time>2021-10-23T14:54:11Z</time>
      </trkpt>
      <trkpt lat="45.18571" lon="5.56805">
        <ele>1121</ele>
        <time>2021-10-23T14:54:30Z</time>
      </trkpt>
      <trkpt lat="45.18563" lon="5.56783">
        <ele>1119</ele>
        <time>2021-10-23T14:54:41Z</time>
      </trkpt>
      <trkpt lat="45.18563" lon="5.56761">
        <ele>1115</ele>
        <time>2021-10-23T14:54:49Z</time>
      </trkpt>
      <trkpt lat="45.18568" lon="5.56727">
        <ele>1113</ele>
        <time>2021-10-23T14:54:57Z</time>
      </trkpt>
      <trkpt lat="45.1857" lon="5.5672">
        <ele>1113</ele>
        <time>2021-10-23T14:54:59Z</time>
      </trkpt>
      <trkpt lat="45.18572" lon="5.56714">
        <ele>1112</ele>
        <time>2021-10-23T14:55:01Z</time>
      </trkpt>
      <trkpt lat="45.18576" lon="5.56702">
        <ele>1110</ele>
        <time>2021-10-23T14:55:05Z</time>
      </trkpt>
      <trkpt lat="45.18584" lon="5.56666">
        <ele>1106</ele>
        <time>2021-10-23T14:55:18Z</time>
      </trkpt>
      <trkpt lat="45.18597" lon="5.56637">
        <ele>1103</ele>
        <time>2021-10-23T14:55:30Z</time>
      </trkpt>
      <trkpt lat="45.18599" lon="5.56628">
        <ele>1103</ele>
        <time>2021-10-23T14:55:33Z</time>
      </trkpt>
      <trkpt lat="45.18601" lon="5.56616">
        <ele>1100</ele>
        <time>2021-10-23T14:55:37Z</time>
      </trkpt>
      <trkpt lat="45.1861" lon="5.56592">
        <ele>1097</ele>
        <time>2021-10-23T14:55:46Z</time>
      </trkpt>
      <trkpt lat="45.18614" lon="5.56584">
        <ele>1097</ele>
        <time>2021-10-23T14:55:49Z</time>
      </trkpt>
      <trkpt lat="45.18612" lon="5.5657">
        <ele>1094</ele>
        <time>2021-10-23T14:56:31Z</time>
      </trkpt>
      <trkpt lat="45.18615" lon="5.56557">
        <ele>1094</ele>
        <time>2021-10-23T14:56:34Z</time>
      </trkpt>
      <trkpt lat="45.18619" lon="5.56543">
        <ele>1092</ele>
        <time>2021-10-23T14:56:37Z</time>
      </trkpt>
      <trkpt lat="45.18624" lon="5.56531">
        <ele>1092</ele>
        <time>2021-10-23T14:56:39Z</time>
      </trkpt>
      <trkpt lat="45.18631" lon="5.56495">
        <ele>1091</ele>
        <time>2021-10-23T14:56:43Z</time>
      </trkpt>
      <trkpt lat="45.18639" lon="5.56479">
        <ele>1091</ele>
        <time>2021-10-23T14:56:45Z</time>
      </trkpt>
      <trkpt lat="45.18649" lon="5.56415">
        <ele>1086</ele>
        <time>2021-10-23T14:56:51Z</time>
      </trkpt>
      <trkpt lat="45.1865" lon="5.56402">
        <ele>1085</ele>
        <time>2021-10-23T14:56:53Z</time>
      </trkpt>
      <trkpt lat="45.18644" lon="5.56383">
        <ele>1083</ele>
        <time>2021-10-23T14:56:57Z</time>
      </trkpt>
      <trkpt lat="45.18599" lon="5.56323">
        <ele>1079</ele>
        <time>2021-10-23T14:57:05Z</time>
      </trkpt>
      <trkpt lat="45.18591" lon="5.56312">
        <ele>1079</ele>
        <time>2021-10-23T14:57:06Z</time>
      </trkpt>
      <trkpt lat="45.1859" lon="5.56301">
        <ele>1079</ele>
        <time>2021-10-23T14:57:07Z</time>
      </trkpt>
      <trkpt lat="45.1859" lon="5.56287">
        <ele>1079</ele>
        <time>2021-10-23T14:57:08Z</time>
      </trkpt>
      <trkpt lat="45.18586" lon="5.56268">
        <ele>1079</ele>
        <time>2021-10-23T14:57:10Z</time>
      </trkpt>
      <trkpt lat="45.18586" lon="5.56259">
        <ele>1079</ele>
        <time>2021-10-23T14:57:11Z</time>
      </trkpt>
      <trkpt lat="45.18593" lon="5.56238">
        <ele>1081</ele>
        <time>2021-10-23T14:57:14Z</time>
      </trkpt>
      <trkpt lat="45.18616" lon="5.56204">
        <ele>1083</ele>
        <time>2021-10-23T14:57:20Z</time>
      </trkpt>
      <trkpt lat="45.18606" lon="5.56177">
        <ele>1083</ele>
        <time>2021-10-23T14:57:24Z</time>
      </trkpt>
      <trkpt lat="45.18341" lon="5.55863">
        <ele>1077</ele>
        <time>2021-10-23T14:57:55Z</time>
      </trkpt>
      <trkpt lat="45.18175" lon="5.55747">
        <ele>1073</ele>
        <time>2021-10-23T14:58:10Z</time>
      </trkpt>
      <trkpt lat="45.18158" lon="5.55724">
        <ele>1072</ele>
        <time>2021-10-23T14:58:12Z</time>
      </trkpt>
      <trkpt lat="45.18149" lon="5.55713">
        <ele>1072</ele>
        <time>2021-10-23T14:58:13Z</time>
      </trkpt>
      <trkpt lat="45.18116" lon="5.55652">
        <ele>1071</ele>
        <time>2021-10-23T14:58:18Z</time>
      </trkpt>
      <trkpt lat="45.18102" lon="5.55625">
        <ele>1066</ele>
        <time>2021-10-23T14:58:24Z</time>
      </trkpt>
      <trkpt lat="45.18085" lon="5.55586">
        <ele>1066</ele>
        <time>2021-10-23T14:58:29Z</time>
      </trkpt>
      <trkpt lat="45.18084" lon="5.55574">
        <ele>1064</ele>
        <time>2021-10-23T14:58:42Z</time>
      </trkpt>
      <trkpt lat="45.18057" lon="5.5552">
        <ele>1064</ele>
        <time>2021-10-23T14:58:49Z</time>
      </trkpt>
      <trkpt lat="45.18046" lon="5.55498">
        <ele>1063</ele>
        <time>2021-10-23T14:58:53Z</time>
      </trkpt>
      <trkpt lat="45.18056" lon="5.55484">
        <ele>1062</ele>
        <time>2021-10-23T14:58:57Z</time>
      </trkpt>
      <trkpt lat="45.18126" lon="5.55374">
        <ele>1065</ele>
        <time>2021-10-23T14:59:09Z</time>
      </trkpt>
      <trkpt lat="45.18128" lon="5.55358">
        <ele>1065</ele>
        <time>2021-10-23T14:59:10Z</time>
      </trkpt>
      <trkpt lat="45.18137" lon="5.55334">
        <ele>1066</ele>
        <time>2021-10-23T14:59:12Z</time>
      </trkpt>
      <trkpt lat="45.18144" lon="5.55329">
        <ele>1066</ele>
        <time>2021-10-23T14:59:13Z</time>
      </trkpt>
      <trkpt lat="45.18156" lon="5.55323">
        <ele>1066</ele>
        <time>2021-10-23T14:59:15Z</time>
      </trkpt>
      <trkpt lat="45.18161" lon="5.5532">
        <ele>1066</ele>
        <time>2021-10-23T14:59:16Z</time>
      </trkpt>
      <trkpt lat="45.18169" lon="5.55319">
        <ele>1066</ele>
        <time>2021-10-23T14:59:17Z</time>
      </trkpt>
      <trkpt lat="45.18175" lon="5.55326">
        <ele>1067</ele>
        <time>2021-10-23T14:59:18Z</time>
      </trkpt>
      <trkpt lat="45.18181" lon="5.55334">
        <ele>1068</ele>
        <time>2021-10-23T14:59:19Z</time>
      </trkpt>
      <trkpt lat="45.18187" lon="5.55343">
        <ele>1068</ele>
        <time>2021-10-23T14:59:20Z</time>
      </trkpt>
      <trkpt lat="45.18194" lon="5.55351">
        <ele>1069</ele>
        <time>2021-10-23T14:59:21Z</time>
      </trkpt>
      <trkpt lat="45.18202" lon="5.55359">
        <ele>1069</ele>
        <time>2021-10-23T14:59:22Z</time>
      </trkpt>
      <trkpt lat="45.18209" lon="5.55367">
        <ele>1069</ele>
        <time>2021-10-23T14:59:23Z</time>
      </trkpt>
      <trkpt lat="45.18216" lon="5.55376">
        <ele>1069</ele>
        <time>2021-10-23T14:59:24Z</time>
      </trkpt>
      <trkpt lat="45.1823" lon="5.55394">
        <ele>1071</ele>
        <time>2021-10-23T14:59:26Z</time>
      </trkpt>
      <trkpt lat="45.18237" lon="5.55403">
        <ele>1071</ele>
        <time>2021-10-23T14:59:27Z</time>
      </trkpt>
      <trkpt lat="45.18243" lon="5.55411">
        <ele>1071</ele>
        <time>2021-10-23T14:59:28Z</time>
      </trkpt>
      <trkpt lat="45.18249" lon="5.55418">
        <ele>1071</ele>
        <time>2021-10-23T14:59:29Z</time>
      </trkpt>
      <trkpt lat="45.18254" lon="5.55427">
        <ele>1072</ele>
        <time>2021-10-23T14:59:30Z</time>
      </trkpt>
      <trkpt lat="45.18309" lon="5.55498">
        <ele>1074</ele>
        <time>2021-10-23T14:59:40Z</time>
      </trkpt>
      <trkpt lat="45.18323" lon="5.55511">
        <ele>1076</ele>
        <time>2021-10-23T14:59:42Z</time>
      </trkpt>
      <trkpt lat="45.18331" lon="5.55515">
        <ele>1076</ele>
        <time>2021-10-23T14:59:43Z</time>
      </trkpt>
      <trkpt lat="45.1834" lon="5.55517">
        <ele>1077</ele>
        <time>2021-10-23T14:59:44Z</time>
      </trkpt>
      <trkpt lat="45.18348" lon="5.55514">
        <ele>1077</ele>
        <time>2021-10-23T14:59:45Z</time>
      </trkpt>
      <trkpt lat="45.18362" lon="5.55501">
        <ele>1078</ele>
        <time>2021-10-23T14:59:47Z</time>
      </trkpt>
      <trkpt lat="45.18367" lon="5.55492">
        <ele>1078</ele>
        <time>2021-10-23T14:59:48Z</time>
      </trkpt>
      <trkpt lat="45.18381" lon="5.55449">
        <ele>1081</ele>
        <time>2021-10-23T14:59:54Z</time>
      </trkpt>
      <trkpt lat="45.18381" lon="5.55441">
        <ele>1081</ele>
        <time>2021-10-23T15:00:16Z</time>
      </trkpt>
      <trkpt lat="45.18379" lon="5.55429">
        <ele>1081</ele>
        <time>2021-10-23T15:00:51Z</time>
      </trkpt>
      <trkpt lat="45.18379" lon="5.5542">
        <ele>1082</ele>
        <time>2021-10-23T15:00:55Z</time>
      </trkpt>
      <trkpt lat="45.18378" lon="5.55413">
        <ele>1081</ele>
        <time>2021-10-23T15:00:58Z</time>
      </trkpt>
      <trkpt lat="45.18376" lon="5.55404">
        <ele>1083</ele>
        <time>2021-10-23T15:01:02Z</time>
      </trkpt>
      <trkpt lat="45.18375" lon="5.55396">
        <ele>1082</ele>
        <time>2021-10-23T15:01:06Z</time>
      </trkpt>
      <trkpt lat="45.18373" lon="5.55389">
        <ele>1084</ele>
        <time>2021-10-23T15:01:11Z</time>
      </trkpt>
      <trkpt lat="45.18371" lon="5.55381">
        <ele>1083</ele>
        <time>2021-10-23T15:01:15Z</time>
      </trkpt>
      <trkpt lat="45.18369" lon="5.55373">
        <ele>1082</ele>
        <time>2021-10-23T15:01:19Z</time>
      </trkpt>
      <trkpt lat="45.18365" lon="5.55367">
        <ele>1084</ele>
        <time>2021-10-23T15:01:23Z</time>
      </trkpt>
      <trkpt lat="45.18362" lon="5.55358">
        <ele>1083</ele>
        <time>2021-10-23T15:01:28Z</time>
      </trkpt>
      <trkpt lat="45.18362" lon="5.55348">
        <ele>1084</ele>
        <time>2021-10-23T15:01:33Z</time>
      </trkpt>
      <trkpt lat="45.18361" lon="5.5534">
        <ele>1083</ele>
        <time>2021-10-23T15:01:37Z</time>
      </trkpt>
      <trkpt lat="45.18359" lon="5.55332">
        <ele>1083</ele>
        <time>2021-10-23T15:01:43Z</time>
      </trkpt>
      <trkpt lat="45.18353" lon="5.55323">
        <ele>1084</ele>
        <time>2021-10-23T15:01:47Z</time>
      </trkpt>
      <trkpt lat="45.1835" lon="5.55317">
        <ele>1083</ele>
        <time>2021-10-23T15:01:51Z</time>
      </trkpt>
      <trkpt lat="45.18346" lon="5.55301">
        <ele>1083</ele>
        <time>2021-10-23T15:01:59Z</time>
      </trkpt>
      <trkpt lat="45.18344" lon="5.55293">
        <ele>1083</ele>
        <time>2021-10-23T15:02:04Z</time>
      </trkpt>
      <trkpt lat="45.18341" lon="5.55285">
        <ele>1082</ele>
        <time>2021-10-23T15:02:10Z</time>
      </trkpt>
      <trkpt lat="45.18342" lon="5.55238">
        <ele>1087</ele>
        <time>2021-10-23T15:03:32Z</time>
      </trkpt>
      <trkpt lat="45.18333" lon="5.55205">
        <ele>1085</ele>
        <time>2021-10-23T15:04:33Z</time>
      </trkpt>
      <trkpt lat="45.18333" lon="5.55205">
        <ele>1085</ele>
        <time>2021-10-23T15:04:34Z</time>
      </trkpt>
    </trkseg>
  </trk>
  <trk>
    <name><![CDATA[16 oct. 2021 à 08:51:13]]></name>
    <cmt><![CDATA[16 oct. 2021 à 08:51:13]]></cmt>
    <trkseg>
      <trkpt lat="45.49778" lon="6.96818">
        <ele>2978</ele>
        <time>2021-10-16T06:51:19Z</time>
      </trkpt>
      <trkpt lat="45.49778" lon="6.96817">
        <ele>2979</ele>
        <time>2021-10-16T06:51:20Z</time>
      </trkpt>
      <trkpt lat="45.50371" lon="6.97803">
        <ele>3151</ele>
        <time>2021-10-16T07:27:13Z</time>
      </trkpt>
      <trkpt lat="45.50369" lon="6.97813">
        <ele>3158</ele>
        <time>2021-10-16T07:28:06Z</time>
      </trkpt>
      <trkpt lat="45.50376" lon="6.97817">
        <ele>3161</ele>
        <time>2021-10-16T07:28:26Z</time>
      </trkpt>
      <trkpt lat="45.50381" lon="6.97816">
        <ele>3162</ele>
        <time>2021-10-16T07:28:38Z</time>
      </trkpt>
      <trkpt lat="45.50387" lon="6.97809">
        <ele>3163</ele>
        <time>2021-10-16T07:28:50Z</time>
      </trkpt>
      <trkpt lat="45.50393" lon="6.97816">
        <ele>3166</ele>
        <time>2021-10-16T07:29:14Z</time>
      </trkpt>
      <trkpt lat="45.50401" lon="6.97818">
        <ele>3172</ele>
        <time>2021-10-16T07:29:50Z</time>
      </trkpt>
      <trkpt lat="45.50404" lon="6.97832">
        <ele>3177</ele>
        <time>2021-10-16T07:30:26Z</time>
      </trkpt>
      <trkpt lat="45.50401" lon="6.97843">
        <ele>3179</ele>
        <time>2021-10-16T07:30:44Z</time>
      </trkpt>
      <trkpt lat="45.50408" lon="6.97849">
        <ele>3186</ele>
        <time>2021-10-16T07:31:32Z</time>
      </trkpt>
      <trkpt lat="45.50417" lon="6.97854">
        <ele>3189</ele>
        <time>2021-10-16T07:31:56Z</time>
      </trkpt>
      <trkpt lat="45.50423" lon="6.97864">
        <ele>3191</ele>
        <time>2021-10-16T07:32:14Z</time>
      </trkpt>
      <trkpt lat="45.50426" lon="6.97869">
        <ele>3195</ele>
        <time>2021-10-16T07:32:38Z</time>
      </trkpt>
      <trkpt lat="45.50434" lon="6.97875">
        <ele>3197</ele>
        <time>2021-10-16T07:33:02Z</time>
      </trkpt>
      <trkpt lat="45.50442" lon="6.97874">
        <ele>3200</ele>
        <time>2021-10-16T07:33:26Z</time>
      </trkpt>
      <trkpt lat="45.50448" lon="6.97882">
        <ele>3203</ele>
        <time>2021-10-16T07:33:50Z</time>
      </trkpt>
      <trkpt lat="45.50458" lon="6.97882">
        <ele>3206</ele>
        <time>2021-10-16T07:34:14Z</time>
      </trkpt>
      <trkpt lat="45.50465" lon="6.97883">
        <ele>3210</ele>
        <time>2021-10-16T07:34:44Z</time>
      </trkpt>
      <trkpt lat="45.50472" lon="6.97882">
        <ele>3213</ele>
        <time>2021-10-16T07:35:19Z</time>
      </trkpt>
      <trkpt lat="45.50472" lon="6.97895">
        <ele>3217</ele>
        <time>2021-10-16T07:35:43Z</time>
      </trkpt>
      <trkpt lat="45.50477" lon="6.97931">
        <ele>3244</ele>
        <time>2021-10-16T07:40:24Z</time>
      </trkpt>
      <trkpt lat="45.5047" lon="6.97938">
        <ele>3251</ele>
        <time>2021-10-16T07:41:35Z</time>
      </trkpt>
      <trkpt lat="45.50484" lon="6.97951">
        <ele>3253</ele>
        <time>2021-10-16T07:42:23Z</time>
      </trkpt>
      <trkpt lat="45.50488" lon="6.97953">
        <ele>3255</ele>
        <time>2021-10-16T07:42:35Z</time>
      </trkpt>
      <trkpt lat="45.50492" lon="6.97959">
        <ele>3255</ele>
        <time>2021-10-16T07:42:47Z</time>
      </trkpt>
      <trkpt lat="45.50497" lon="6.97963">
        <ele>3256</ele>
        <time>2021-10-16T07:42:59Z</time>
      </trkpt>
      <trkpt lat="45.50503" lon="6.9798">
        <ele>3258</ele>
        <time>2021-10-16T07:43:23Z</time>
      </trkpt>
      <trkpt lat="45.50505" lon="6.9799">
        <ele>3261</ele>
        <time>2021-10-16T07:43:41Z</time>
      </trkpt>
      <trkpt lat="45.50504" lon="6.97998">
        <ele>3262</ele>
        <time>2021-10-16T07:43:53Z</time>
      </trkpt>
      <trkpt lat="45.50505" lon="6.98008">
        <ele>3265</ele>
        <time>2021-10-16T07:44:16Z</time>
      </trkpt>
      <trkpt lat="45.50505" lon="6.98015">
        <ele>3267</ele>
        <time>2021-10-16T07:44:34Z</time>
      </trkpt>
      <trkpt lat="45.50503" lon="6.98023">
        <ele>3273</ele>
        <time>2021-10-16T07:46:17Z</time>
      </trkpt>
      <trkpt lat="45.50507" lon="6.9805">
        <ele>3275</ele>
        <time>2021-10-16T07:46:39Z</time>
      </trkpt>
      <trkpt lat="45.50509" lon="6.9806">
        <ele>3277</ele>
        <time>2021-10-16T07:46:58Z</time>
      </trkpt>
      <trkpt lat="45.50512" lon="6.98081">
        <ele>3281</ele>
        <time>2021-10-16T07:47:28Z</time>
      </trkpt>
      <trkpt lat="45.50514" lon="6.98095">
        <ele>3279</ele>
        <time>2021-10-16T07:47:46Z</time>
      </trkpt>
      <trkpt lat="45.50521" lon="6.98103">
        <ele>3278</ele>
        <time>2021-10-16T07:47:58Z</time>
      </trkpt>
      <trkpt lat="45.50524" lon="6.98115">
        <ele>3277</ele>
        <time>2021-10-16T07:48:12Z</time>
      </trkpt>
      <trkpt lat="45.5053" lon="6.98133">
        <ele>3276</ele>
        <time>2021-10-16T07:48:34Z</time>
      </trkpt>
      <trkpt lat="45.50537" lon="6.98153">
        <ele>3280</ele>
        <time>2021-10-16T07:49:07Z</time>
      </trkpt>
      <trkpt lat="45.50546" lon="6.98174">
        <ele>3283</ele>
        <time>2021-10-16T07:49:40Z</time>
      </trkpt>
      <trkpt lat="45.50545" lon="6.98185">
        <ele>3285</ele>
        <time>2021-10-16T07:49:58Z</time>
      </trkpt>
      <trkpt lat="45.50543" lon="6.98198">
        <ele>3288</ele>
        <time>2021-10-16T07:50:16Z</time>
      </trkpt>
      <trkpt lat="45.50542" lon="6.98207">
        <ele>3291</ele>
        <time>2021-10-16T07:50:39Z</time>
      </trkpt>
      <trkpt lat="45.50545" lon="6.98214">
        <ele>3292</ele>
        <time>2021-10-16T07:50:57Z</time>
      </trkpt>
      <trkpt lat="45.50545" lon="6.98222">
        <ele>3294</ele>
        <time>2021-10-16T07:51:09Z</time>
      </trkpt>
      <trkpt lat="45.50548" lon="6.98231">
        <ele>3295</ele>
        <time>2021-10-16T07:51:21Z</time>
      </trkpt>
      <trkpt lat="45.50548" lon="6.98239">
        <ele>3297</ele>
        <time>2021-10-16T07:51:33Z</time>
      </trkpt>
      <trkpt lat="45.50552" lon="6.98248">
        <ele>3299</ele>
        <time>2021-10-16T07:51:57Z</time>
      </trkpt>
      <trkpt lat="45.50555" lon="6.98258">
        <ele>3302</ele>
        <time>2021-10-16T07:52:21Z</time>
      </trkpt>
      <trkpt lat="45.50553" lon="6.98267">
        <ele>3304</ele>
        <time>2021-10-16T07:52:39Z</time>
      </trkpt>
      <trkpt lat="45.50558" lon="6.98288">
        <ele>3306</ele>
        <time>2021-10-16T07:53:05Z</time>
      </trkpt>
      <trkpt lat="45.50563" lon="6.98301">
        <ele>3307</ele>
        <time>2021-10-16T07:53:16Z</time>
      </trkpt>
      <trkpt lat="45.50565" lon="6.98308">
        <ele>3307</ele>
        <time>2021-10-16T07:53:22Z</time>
      </trkpt>
      <trkpt lat="45.50564" lon="6.98318">
        <ele>3307</ele>
        <time>2021-10-16T07:53:31Z</time>
      </trkpt>
      <trkpt lat="45.50569" lon="6.98331">
        <ele>3308</ele>
        <time>2021-10-16T07:53:43Z</time>
      </trkpt>
      <trkpt lat="45.50572" lon="6.9834">
        <ele>3308</ele>
        <time>2021-10-16T07:53:49Z</time>
      </trkpt>
      <trkpt lat="45.5057" lon="6.98353">
        <ele>3309</ele>
        <time>2021-10-16T07:54:03Z</time>
      </trkpt>
      <trkpt lat="45.50571" lon="6.98361">
        <ele>3309</ele>
        <time>2021-10-16T07:54:09Z</time>
      </trkpt>
      <trkpt lat="45.5057" lon="6.98372">
        <ele>3310</ele>
        <time>2021-10-16T07:54:18Z</time>
      </trkpt>
      <trkpt lat="45.5057" lon="6.98382">
        <ele>3311</ele>
        <time>2021-10-16T07:54:27Z</time>
      </trkpt>
      <trkpt lat="45.50574" lon="6.98394">
        <ele>3312</ele>
        <time>2021-10-16T07:54:36Z</time>
      </trkpt>
      <trkpt lat="45.50573" lon="6.98408">
        <ele>3313</ele>
        <time>2021-10-16T07:54:51Z</time>
      </trkpt>
      <trkpt lat="45.50569" lon="6.9843">
        <ele>3315</ele>
        <time>2021-10-16T07:55:08Z</time>
      </trkpt>
      <trkpt lat="45.50569" lon="6.98438">
        <ele>3315</ele>
        <time>2021-10-16T07:55:13Z</time>
      </trkpt>
      <trkpt lat="45.50569" lon="6.98459">
        <ele>3315</ele>
        <time>2021-10-16T07:55:34Z</time>
      </trkpt>
      <trkpt lat="45.50565" lon="6.98474">
        <ele>3315</ele>
        <time>2021-10-16T07:55:46Z</time>
      </trkpt>
      <trkpt lat="45.50563" lon="6.98495">
        <ele>3314</ele>
        <time>2021-10-16T07:56:02Z</time>
      </trkpt>
      <trkpt lat="45.5056" lon="6.98506">
        <ele>3315</ele>
        <time>2021-10-16T07:56:11Z</time>
      </trkpt>
      <trkpt lat="45.50558" lon="6.98529">
        <ele>3316</ele>
        <time>2021-10-16T07:56:28Z</time>
      </trkpt>
      <trkpt lat="45.50555" lon="6.98545">
        <ele>3315</ele>
        <time>2021-10-16T07:56:43Z</time>
      </trkpt>
      <trkpt lat="45.50549" lon="6.98553">
        <ele>3317</ele>
        <time>2021-10-16T07:56:55Z</time>
      </trkpt>
      <trkpt lat="45.50549" lon="6.98567">
        <ele>3317</ele>
        <time>2021-10-16T07:57:08Z</time>
      </trkpt>
      <trkpt lat="45.50555" lon="6.98585">
        <ele>3316</ele>
        <time>2021-10-16T07:57:22Z</time>
      </trkpt>
      <trkpt lat="45.50553" lon="6.98595">
        <ele>3315</ele>
        <time>2021-10-16T07:57:30Z</time>
      </trkpt>
      <trkpt lat="45.50556" lon="6.98605">
        <ele>3314</ele>
        <time>2021-10-16T07:57:38Z</time>
      </trkpt>
      <trkpt lat="45.50556" lon="6.98612">
        <ele>3313</ele>
        <time>2021-10-16T07:57:46Z</time>
      </trkpt>
      <trkpt lat="45.50559" lon="6.98619">
        <ele>3312</ele>
        <time>2021-10-16T07:57:51Z</time>
      </trkpt>
      <trkpt lat="45.50557" lon="6.9863">
        <ele>3311</ele>
        <time>2021-10-16T07:58:00Z</time>
      </trkpt>
      <trkpt lat="45.50555" lon="6.98641">
        <ele>3311</ele>
        <time>2021-10-16T07:58:07Z</time>
      </trkpt>
      <trkpt lat="45.50552" lon="6.98649">
        <ele>3312</ele>
        <time>2021-10-16T07:58:13Z</time>
      </trkpt>
      <trkpt lat="45.50549" lon="6.98657">
        <ele>3313</ele>
        <time>2021-10-16T07:58:23Z</time>
      </trkpt>
      <trkpt lat="45.50545" lon="6.9869">
        <ele>3317</ele>
        <time>2021-10-16T07:58:59Z</time>
      </trkpt>
      <trkpt lat="45.50544" lon="6.98705">
        <ele>3318</ele>
        <time>2021-10-16T07:59:11Z</time>
      </trkpt>
      <trkpt lat="45.50539" lon="6.98723">
        <ele>3320</ele>
        <time>2021-10-16T07:59:31Z</time>
      </trkpt>
      <trkpt lat="45.50537" lon="6.98759">
        <ele>3325</ele>
        <time>2021-10-16T08:00:07Z</time>
      </trkpt>
      <trkpt lat="45.50532" lon="6.98781">
        <ele>3328</ele>
        <time>2021-10-16T08:00:34Z</time>
      </trkpt>
      <trkpt lat="45.50532" lon="6.9879">
        <ele>3328</ele>
        <time>2021-10-16T08:00:40Z</time>
      </trkpt>
      <trkpt lat="45.50531" lon="6.98801">
        <ele>3329</ele>
        <time>2021-10-16T08:00:55Z</time>
      </trkpt>
      <trkpt lat="45.50526" lon="6.98804">
        <ele>3331</ele>
        <time>2021-10-16T08:01:07Z</time>
      </trkpt>
      <trkpt lat="45.50524" lon="6.98798">
        <ele>3331</ele>
        <time>2021-10-16T08:03:37Z</time>
      </trkpt>
      <trkpt lat="45.50528" lon="6.98779">
        <ele>3329</ele>
        <time>2021-10-16T08:03:49Z</time>
      </trkpt>
      <trkpt lat="45.50528" lon="6.98772">
        <ele>3330</ele>
        <time>2021-10-16T08:03:55Z</time>
      </trkpt>
      <trkpt lat="45.50527" lon="6.98764">
        <ele>3329</ele>
        <time>2021-10-16T08:04:45Z</time>
      </trkpt>
      <trkpt lat="45.5053" lon="6.98795">
        <ele>3331</ele>
        <time>2021-10-16T08:05:18Z</time>
      </trkpt>
      <trkpt lat="45.50529" lon="6.98806">
        <ele>3332</ele>
        <time>2021-10-16T08:05:29Z</time>
      </trkpt>
      <trkpt lat="45.50526" lon="6.98809">
        <ele>3333</ele>
        <time>2021-10-16T08:06:23Z</time>
      </trkpt>
      <trkpt lat="45.50522" lon="6.98812">
        <ele>3337</ele>
        <time>2021-10-16T08:13:05Z</time>
      </trkpt>
      <trkpt lat="45.50529" lon="6.98836">
        <ele>3340</ele>
        <time>2021-10-16T08:16:36Z</time>
      </trkpt>
      <trkpt lat="45.50532" lon="6.98879">
        <ele>3346</ele>
        <time>2021-10-16T08:17:30Z</time>
      </trkpt>
      <trkpt lat="45.50536" lon="6.98899">
        <ele>3349</ele>
        <time>2021-10-16T08:17:51Z</time>
      </trkpt>
      <trkpt lat="45.50537" lon="6.98931">
        <ele>3350</ele>
        <time>2021-10-16T08:18:24Z</time>
      </trkpt>
      <trkpt lat="45.5054" lon="6.98954">
        <ele>3349</ele>
        <time>2021-10-16T08:18:48Z</time>
      </trkpt>
      <trkpt lat="45.50542" lon="6.98995">
        <ele>3359</ele>
        <time>2021-10-16T08:19:53Z</time>
      </trkpt>
      <trkpt lat="45.50537" lon="6.99018">
        <ele>3369</ele>
        <time>2021-10-16T08:21:23Z</time>
      </trkpt>
      <trkpt lat="45.50537" lon="6.99039">
        <ele>3373</ele>
        <time>2021-10-16T08:21:53Z</time>
      </trkpt>
      <trkpt lat="45.50537" lon="6.99062">
        <ele>3378</ele>
        <time>2021-10-16T08:22:40Z</time>
      </trkpt>
      <trkpt lat="45.5054" lon="6.99083">
        <ele>3380</ele>
        <time>2021-10-16T08:23:04Z</time>
      </trkpt>
      <trkpt lat="45.50541" lon="6.99115">
        <ele>3385</ele>
        <time>2021-10-16T08:23:49Z</time>
      </trkpt>
      <trkpt lat="45.50544" lon="6.99137">
        <ele>3390</ele>
        <time>2021-10-16T08:24:27Z</time>
      </trkpt>
      <trkpt lat="45.50544" lon="6.99173">
        <ele>3402</ele>
        <time>2021-10-16T08:26:21Z</time>
      </trkpt>
      <trkpt lat="45.50551" lon="6.99191">
        <ele>3409</ele>
        <time>2021-10-16T08:27:21Z</time>
      </trkpt>
      <trkpt lat="45.50556" lon="6.99211">
        <ele>3414</ele>
        <time>2021-10-16T08:28:03Z</time>
      </trkpt>
      <trkpt lat="45.50556" lon="6.99234">
        <ele>3421</ele>
        <time>2021-10-16T08:29:09Z</time>
      </trkpt>
      <trkpt lat="45.50555" lon="6.99257">
        <ele>3425</ele>
        <time>2021-10-16T08:29:57Z</time>
      </trkpt>
      <trkpt lat="45.50557" lon="6.99285">
        <ele>3440</ele>
        <time>2021-10-16T08:31:49Z</time>
      </trkpt>
      <trkpt lat="45.50561" lon="6.99307">
        <ele>3451</ele>
        <time>2021-10-16T08:33:18Z</time>
      </trkpt>
      <trkpt lat="45.50566" lon="6.99328">
        <ele>3462</ele>
        <time>2021-10-16T08:34:48Z</time>
      </trkpt>
      <trkpt lat="45.50575" lon="6.9936">
        <ele>3472</ele>
        <time>2021-10-16T08:36:48Z</time>
      </trkpt>
      <trkpt lat="45.50573" lon="6.99385">
        <ele>3477</ele>
        <time>2021-10-16T08:37:48Z</time>
      </trkpt>
      <trkpt lat="45.50571" lon="6.99405">
        <ele>3483</ele>
        <time>2021-10-16T08:38:42Z</time>
      </trkpt>
      <trkpt lat="45.50569" lon="6.99425">
        <ele>3489</ele>
        <time>2021-10-16T08:39:46Z</time>
      </trkpt>
      <trkpt lat="45.50574" lon="6.9945">
        <ele>3496</ele>
        <time>2021-10-16T08:41:10Z</time>
      </trkpt>
      <trkpt lat="45.50568" lon="6.99468">
        <ele>3506</ele>
        <time>2021-10-16T08:43:16Z</time>
      </trkpt>
      <trkpt lat="45.50568" lon="6.99495">
        <ele>3513</ele>
        <time>2021-10-16T08:44:54Z</time>
      </trkpt>
      <trkpt lat="45.50566" lon="6.99521">
        <ele>3516</ele>
        <time>2021-10-16T08:45:25Z</time>
      </trkpt>
      <trkpt lat="45.50557" lon="6.99536">
        <ele>3523</ele>
        <time>2021-10-16T08:46:36Z</time>
      </trkpt>
      <trkpt lat="45.50553" lon="6.99558">
        <ele>3526</ele>
        <time>2021-10-16T08:47:06Z</time>
      </trkpt>
      <trkpt lat="45.50545" lon="6.99575">
        <ele>3532</ele>
        <time>2021-10-16T08:48:12Z</time>
      </trkpt>
      <trkpt lat="45.50538" lon="6.99596">
        <ele>3542</ele>
        <time>2021-10-16T08:49:43Z</time>
      </trkpt>
      <trkpt lat="45.50545" lon="6.99617">
        <ele>3549</ele>
        <time>2021-10-16T08:51:37Z</time>
      </trkpt>
      <trkpt lat="45.50548" lon="6.99638">
        <ele>3559</ele>
        <time>2021-10-16T08:53:48Z</time>
      </trkpt>
      <trkpt lat="45.50549" lon="6.9966">
        <ele>3567</ele>
        <time>2021-10-16T08:55:18Z</time>
      </trkpt>
      <trkpt lat="45.5055" lon="6.9968">
        <ele>3576</ele>
        <time>2021-10-16T08:57:18Z</time>
      </trkpt>
      <trkpt lat="45.50542" lon="6.99698">
        <ele>3587</ele>
        <time>2021-10-16T08:59:06Z</time>
      </trkpt>
      <trkpt lat="45.50535" lon="6.9972">
        <ele>3596</ele>
        <time>2021-10-16T09:00:51Z</time>
      </trkpt>
      <trkpt lat="45.50546" lon="6.99739">
        <ele>3605</ele>
        <time>2021-10-16T09:02:14Z</time>
      </trkpt>
      <trkpt lat="45.50541" lon="6.99757">
        <ele>3612</ele>
        <time>2021-10-16T09:03:44Z</time>
      </trkpt>
      <trkpt lat="45.50548" lon="6.99775">
        <ele>3619</ele>
        <time>2021-10-16T09:04:50Z</time>
      </trkpt>
      <trkpt lat="45.50538" lon="6.9979">
        <ele>3628</ele>
        <time>2021-10-16T09:06:14Z</time>
      </trkpt>
      <trkpt lat="45.50534" lon="6.99811">
        <ele>3637</ele>
        <time>2021-10-16T09:08:12Z</time>
      </trkpt>
      <trkpt lat="45.50526" lon="6.9983">
        <ele>3651</ele>
        <time>2021-10-16T09:10:56Z</time>
      </trkpt>
      <trkpt lat="45.50525" lon="6.99849">
        <ele>3656</ele>
        <time>2021-10-16T09:11:56Z</time>
      </trkpt>
      <trkpt lat="45.50508" lon="6.99852">
        <ele>3671</ele>
        <time>2021-10-16T09:14:30Z</time>
      </trkpt>
      <trkpt lat="45.50516" lon="6.99874">
        <ele>3676</ele>
        <time>2021-10-16T09:15:14Z</time>
      </trkpt>
      <trkpt lat="45.50514" lon="6.99899">
        <ele>3681</ele>
        <time>2021-10-16T09:16:14Z</time>
      </trkpt>
      <trkpt lat="45.50517" lon="6.99921">
        <ele>3694</ele>
        <time>2021-10-16T09:18:31Z</time>
      </trkpt>
      <trkpt lat="45.50512" lon="6.99941">
        <ele>3704</ele>
        <time>2021-10-16T09:20:17Z</time>
      </trkpt>
      <trkpt lat="45.50515" lon="6.99962">
        <ele>3711</ele>
        <time>2021-10-16T09:21:50Z</time>
      </trkpt>
      <trkpt lat="45.50507" lon="6.9998">
        <ele>3723</ele>
        <time>2021-10-16T09:24:01Z</time>
      </trkpt>
      <trkpt lat="45.50499" lon="6.99992">
        <ele>3731</ele>
        <time>2021-10-16T09:26:01Z</time>
      </trkpt>
      <trkpt lat="45.50503" lon="6.99986">
        <ele>3732</ele>
        <time>2021-10-16T09:29:06Z</time>
      </trkpt>
      <trkpt lat="45.50494" lon="6.99985">
        <ele>3732</ele>
        <time>2021-10-16T09:29:18Z</time>
      </trkpt>
      <trkpt lat="45.50486" lon="6.99986">
        <ele>3730</ele>
        <time>2021-10-16T09:29:42Z</time>
      </trkpt>
      <trkpt lat="45.50484" lon="6.99982">
        <ele>3732</ele>
        <time>2021-10-16T09:30:53Z</time>
      </trkpt>
      <trkpt lat="45.50491" lon="6.99985">
        <ele>3734</ele>
        <time>2021-10-16T09:32:05Z</time>
      </trkpt>
      <trkpt lat="45.50495" lon="6.99985">
        <ele>3734</ele>
        <time>2021-10-16T09:32:17Z</time>
      </trkpt>
      <trkpt lat="45.50492" lon="6.99987">
        <ele>3743</ele>
        <time>2021-10-16T09:38:38Z</time>
      </trkpt>
      <trkpt lat="45.50496" lon="6.99995">
        <ele>3739</ele>
        <time>2021-10-16T09:39:56Z</time>
      </trkpt>
      <trkpt lat="45.50499" lon="6.9999">
        <ele>3739</ele>
        <time>2021-10-16T09:40:32Z</time>
      </trkpt>
      <trkpt lat="45.50499" lon="6.99988">
        <ele>3740</ele>
        <time>2021-10-16T09:42:08Z</time>
      </trkpt>
      <trkpt lat="45.50499" lon="6.99988">
        <ele>3746</ele>
        <time>2021-10-16T09:51:53Z</time>
      </trkpt>
      <trkpt lat="45.50504" lon="6.99968">
        <ele>3750</ele>
        <time>2021-10-16T09:54:11Z</time>
      </trkpt>
      <trkpt lat="45.50508" lon="6.99945">
        <ele>3747</ele>
        <time>2021-10-16T09:54:19Z</time>
      </trkpt>
      <trkpt lat="45.50498" lon="6.99927">
        <ele>3744</ele>
        <time>2021-10-16T09:54:30Z</time>
      </trkpt>
      <trkpt lat="45.50497" lon="6.99934">
        <ele>3746</ele>
        <time>2021-10-16T09:56:34Z</time>
      </trkpt>
      <trkpt lat="45.50501" lon="6.99967">
        <ele>3745</ele>
        <time>2021-10-16T09:57:28Z</time>
      </trkpt>
      <trkpt lat="45.50501" lon="6.99975">
        <ele>3747</ele>
        <time>2021-10-16T10:02:30Z</time>
      </trkpt>
      <trkpt lat="45.505" lon="6.99983">
        <ele>3748</ele>
        <time>2021-10-16T10:03:02Z</time>
      </trkpt>
      <trkpt lat="45.50495" lon="6.99989">
        <ele>3747</ele>
        <time>2021-10-16T10:07:57Z</time>
      </trkpt>
      <trkpt lat="45.50498" lon="6.99989">
        <ele>3761</ele>
        <time>2021-10-16T10:14:26Z</time>
      </trkpt>
      <trkpt lat="45.50495" lon="6.99988">
        <ele>3751</ele>
        <time>2021-10-16T10:28:14Z</time>
      </trkpt>
      <trkpt lat="45.50495" lon="6.99983">
        <ele>3751</ele>
        <time>2021-10-16T10:33:24Z</time>
      </trkpt>
      <trkpt lat="45.50495" lon="6.99985">
        <ele>3752</ele>
        <time>2021-10-16T10:38:47Z</time>
      </trkpt>
      <trkpt lat="45.50502" lon="6.99975">
        <ele>3745</ele>
        <time>2021-10-16T10:51:16Z</time>
      </trkpt>
      <trkpt lat="45.50509" lon="6.99954">
        <ele>3732</ele>
        <time>2021-10-16T10:53:23Z</time>
      </trkpt>
      <trkpt lat="45.50511" lon="6.99934">
        <ele>3724</ele>
        <time>2021-10-16T10:54:25Z</time>
      </trkpt>
      <trkpt lat="45.50514" lon="6.99921">
        <ele>3717</ele>
        <time>2021-10-16T10:55:07Z</time>
      </trkpt>
      <trkpt lat="45.50509" lon="6.99907">
        <ele>3710</ele>
        <time>2021-10-16T10:55:39Z</time>
      </trkpt>
      <trkpt lat="45.50517" lon="6.99899">
        <ele>3706</ele>
        <time>2021-10-16T10:56:03Z</time>
      </trkpt>
      <trkpt lat="45.50512" lon="6.99892">
        <ele>3703</ele>
        <time>2021-10-16T10:56:15Z</time>
      </trkpt>
      <trkpt lat="45.50508" lon="6.99885">
        <ele>3701</ele>
        <time>2021-10-16T10:56:33Z</time>
      </trkpt>
      <trkpt lat="45.50513" lon="6.99878">
        <ele>3698</ele>
        <time>2021-10-16T10:56:51Z</time>
      </trkpt>
      <trkpt lat="45.50509" lon="6.99873">
        <ele>3695</ele>
        <time>2021-10-16T10:57:03Z</time>
      </trkpt>
      <trkpt lat="45.50503" lon="6.99871">
        <ele>3693</ele>
        <time>2021-10-16T10:57:15Z</time>
      </trkpt>
      <trkpt lat="45.50504" lon="6.99857">
        <ele>3685</ele>
        <time>2021-10-16T10:57:51Z</time>
      </trkpt>
      <trkpt lat="45.50512" lon="6.99851">
        <ele>3683</ele>
        <time>2021-10-16T10:58:03Z</time>
      </trkpt>
      <trkpt lat="45.50522" lon="6.99845">
        <ele>3677</ele>
        <time>2021-10-16T10:58:33Z</time>
      </trkpt>
      <trkpt lat="45.50526" lon="6.99836">
        <ele>3674</ele>
        <time>2021-10-16T10:58:51Z</time>
      </trkpt>
      <trkpt lat="45.50522" lon="6.99825">
        <ele>3672</ele>
        <time>2021-10-16T10:59:03Z</time>
      </trkpt>
      <trkpt lat="45.50515" lon="6.99819">
        <ele>3666</ele>
        <time>2021-10-16T10:59:39Z</time>
      </trkpt>
      <trkpt lat="45.50518" lon="6.99808">
        <ele>3660</ele>
        <time>2021-10-16T11:00:13Z</time>
      </trkpt>
      <trkpt lat="45.50526" lon="6.99803">
        <ele>3657</ele>
        <time>2021-10-16T11:00:28Z</time>
      </trkpt>
      <trkpt lat="45.50528" lon="6.99796">
        <ele>3653</ele>
        <time>2021-10-16T11:00:48Z</time>
      </trkpt>
      <trkpt lat="45.50533" lon="6.99787">
        <ele>3646</ele>
        <time>2021-10-16T11:01:24Z</time>
      </trkpt>
      <trkpt lat="45.50539" lon="6.99781">
        <ele>3641</ele>
        <time>2021-10-16T11:02:00Z</time>
      </trkpt>
      <trkpt lat="45.50545" lon="6.99778">
        <ele>3638</ele>
        <time>2021-10-16T11:02:12Z</time>
      </trkpt>
      <trkpt lat="45.50538" lon="6.99756">
        <ele>3630</ele>
        <time>2021-10-16T11:02:54Z</time>
      </trkpt>
      <trkpt lat="45.50546" lon="6.99747">
        <ele>3626</ele>
        <time>2021-10-16T11:03:14Z</time>
      </trkpt>
      <trkpt lat="45.50538" lon="6.99724">
        <ele>3615</ele>
        <time>2021-10-16T11:04:10Z</time>
      </trkpt>
      <trkpt lat="45.50536" lon="6.997">
        <ele>3606</ele>
        <time>2021-10-16T11:04:52Z</time>
      </trkpt>
      <trkpt lat="45.50536" lon="6.99678">
        <ele>3596</ele>
        <time>2021-10-16T11:05:46Z</time>
      </trkpt>
      <trkpt lat="45.50538" lon="6.99657">
        <ele>3586</ele>
        <time>2021-10-16T11:06:46Z</time>
      </trkpt>
      <trkpt lat="45.50539" lon="6.99635">
        <ele>3575</ele>
        <time>2021-10-16T11:08:03Z</time>
      </trkpt>
      <trkpt lat="45.50552" lon="6.99605">
        <ele>3554</ele>
        <time>2021-10-16T11:10:43Z</time>
      </trkpt>
      <trkpt lat="45.50546" lon="6.99581">
        <ele>3546</ele>
        <time>2021-10-16T11:11:25Z</time>
      </trkpt>
      <trkpt lat="45.50556" lon="6.99565">
        <ele>3542</ele>
        <time>2021-10-16T11:12:55Z</time>
      </trkpt>
      <trkpt lat="45.50565" lon="6.99519">
        <ele>3535</ele>
        <time>2021-10-16T11:14:35Z</time>
      </trkpt>
      <trkpt lat="45.50568" lon="6.99498">
        <ele>3533</ele>
        <time>2021-10-16T11:15:13Z</time>
      </trkpt>
      <trkpt lat="45.50571" lon="6.99477">
        <ele>3523</ele>
        <time>2021-10-16T11:16:30Z</time>
      </trkpt>
      <trkpt lat="45.5057" lon="6.99458">
        <ele>3514</ele>
        <time>2021-10-16T11:17:42Z</time>
      </trkpt>
      <trkpt lat="45.5057" lon="6.99433">
        <ele>3506</ele>
        <time>2021-10-16T11:18:30Z</time>
      </trkpt>
      <trkpt lat="45.50568" lon="6.99401">
        <ele>3496</ele>
        <time>2021-10-16T11:20:00Z</time>
      </trkpt>
      <trkpt lat="45.50564" lon="6.99372">
        <ele>3484</ele>
        <time>2021-10-16T11:21:25Z</time>
      </trkpt>
      <trkpt lat="45.50566" lon="6.9935">
        <ele>3479</ele>
        <time>2021-10-16T11:21:47Z</time>
      </trkpt>
      <trkpt lat="45.50555" lon="6.99331">
        <ele>3473</ele>
        <time>2021-10-16T11:22:19Z</time>
      </trkpt>
      <trkpt lat="45.50554" lon="6.99308">
        <ele>3463</ele>
        <time>2021-10-16T11:23:17Z</time>
      </trkpt>
      <trkpt lat="45.50548" lon="6.99289">
        <ele>3450</ele>
        <time>2021-10-16T11:25:11Z</time>
      </trkpt>
      <trkpt lat="45.50541" lon="6.99272">
        <ele>3445</ele>
        <time>2021-10-16T11:25:43Z</time>
      </trkpt>
      <trkpt lat="45.5055" lon="6.99244">
        <ele>3434</ele>
        <time>2021-10-16T11:26:33Z</time>
      </trkpt>
      <trkpt lat="45.50543" lon="6.99238">
        <ele>3429</ele>
        <time>2021-10-16T11:26:52Z</time>
      </trkpt>
      <trkpt lat="45.50542" lon="6.99222">
        <ele>3426</ele>
        <time>2021-10-16T11:27:02Z</time>
      </trkpt>
      <trkpt lat="45.50538" lon="6.99214">
        <ele>3424</ele>
        <time>2021-10-16T11:27:13Z</time>
      </trkpt>
      <trkpt lat="45.50536" lon="6.99184">
        <ele>3418</ele>
        <time>2021-10-16T11:27:41Z</time>
      </trkpt>
      <trkpt lat="45.50537" lon="6.99176">
        <ele>3417</ele>
        <time>2021-10-16T11:30:52Z</time>
      </trkpt>
      <trkpt lat="45.5054" lon="6.99166">
        <ele>3416</ele>
        <time>2021-10-16T11:31:34Z</time>
      </trkpt>
      <trkpt lat="45.50538" lon="6.99158">
        <ele>3411</ele>
        <time>2021-10-16T11:32:04Z</time>
      </trkpt>
      <trkpt lat="45.50536" lon="6.9915">
        <ele>3409</ele>
        <time>2021-10-16T11:32:34Z</time>
      </trkpt>
      <trkpt lat="45.50533" lon="6.99127">
        <ele>3403</ele>
        <time>2021-10-16T11:33:07Z</time>
      </trkpt>
      <trkpt lat="45.50534" lon="6.99108">
        <ele>3399</ele>
        <time>2021-10-16T11:33:22Z</time>
      </trkpt>
      <trkpt lat="45.50531" lon="6.99087">
        <ele>3397</ele>
        <time>2021-10-16T11:33:36Z</time>
      </trkpt>
      <trkpt lat="45.50529" lon="6.99075">
        <ele>3393</ele>
        <time>2021-10-16T11:33:50Z</time>
      </trkpt>
      <trkpt lat="45.50532" lon="6.99062">
        <ele>3389</ele>
        <time>2021-10-16T11:34:08Z</time>
      </trkpt>
      <trkpt lat="45.50538" lon="6.99052">
        <ele>3385</ele>
        <time>2021-10-16T11:34:26Z</time>
      </trkpt>
      <trkpt lat="45.50535" lon="6.99043">
        <ele>3382</ele>
        <time>2021-10-16T11:34:33Z</time>
      </trkpt>
      <trkpt lat="45.50532" lon="6.99036">
        <ele>3383</ele>
        <time>2021-10-16T11:34:39Z</time>
      </trkpt>
      <trkpt lat="45.50533" lon="6.99026">
        <ele>3379</ele>
        <time>2021-10-16T11:34:58Z</time>
      </trkpt>
      <trkpt lat="45.50537" lon="6.99017">
        <ele>3374</ele>
        <time>2021-10-16T11:35:16Z</time>
      </trkpt>
      <trkpt lat="45.50534" lon="6.98994">
        <ele>3370</ele>
        <time>2021-10-16T11:35:40Z</time>
      </trkpt>
      <trkpt lat="45.50533" lon="6.98978">
        <ele>3367</ele>
        <time>2021-10-16T11:35:56Z</time>
      </trkpt>
      <trkpt lat="45.50534" lon="6.98967">
        <ele>3366</ele>
        <time>2021-10-16T11:36:04Z</time>
      </trkpt>
      <trkpt lat="45.50529" lon="6.98943">
        <ele>3366</ele>
        <time>2021-10-16T11:36:30Z</time>
      </trkpt>
      <trkpt lat="45.50529" lon="6.98933">
        <ele>3365</ele>
        <time>2021-10-16T11:36:38Z</time>
      </trkpt>
      <trkpt lat="45.50526" lon="6.9892">
        <ele>3365</ele>
        <time>2021-10-16T11:36:44Z</time>
      </trkpt>
      <trkpt lat="45.50525" lon="6.9891">
        <ele>3365</ele>
        <time>2021-10-16T11:36:48Z</time>
      </trkpt>
      <trkpt lat="45.50529" lon="6.98885">
        <ele>3362</ele>
        <time>2021-10-16T11:37:03Z</time>
      </trkpt>
      <trkpt lat="45.50525" lon="6.98865">
        <ele>3357</ele>
        <time>2021-10-16T11:37:25Z</time>
      </trkpt>
      <trkpt lat="45.50526" lon="6.98825">
        <ele>3355</ele>
        <time>2021-10-16T11:37:49Z</time>
      </trkpt>
      <trkpt lat="45.50527" lon="6.98817">
        <ele>3355</ele>
        <time>2021-10-16T11:38:28Z</time>
      </trkpt>
      <trkpt lat="45.50527" lon="6.98812">
        <ele>3354</ele>
        <time>2021-10-16T11:38:59Z</time>
      </trkpt>
      <trkpt lat="45.50519" lon="6.9881">
        <ele>3352</ele>
        <time>2021-10-16T11:46:36Z</time>
      </trkpt>
      <trkpt lat="45.50527" lon="6.9881">
        <ele>3347</ele>
        <time>2021-10-16T11:46:59Z</time>
      </trkpt>
      <trkpt lat="45.50527" lon="6.98776">
        <ele>3346</ele>
        <time>2021-10-16T12:28:31Z</time>
      </trkpt>
      <trkpt lat="45.50527" lon="6.98772">
        <ele>3346</ele>
        <time>2021-10-16T12:28:32Z</time>
      </trkpt>
      <trkpt lat="45.50532" lon="6.98764">
        <ele>3344</ele>
        <time>2021-10-16T12:29:26Z</time>
      </trkpt>
      <trkpt lat="45.50527" lon="6.98754">
        <ele>3341</ele>
        <time>2021-10-16T12:29:44Z</time>
      </trkpt>
      <trkpt lat="45.50532" lon="6.98736">
        <ele>3340</ele>
        <time>2021-10-16T12:30:16Z</time>
      </trkpt>
      <trkpt lat="45.50534" lon="6.98725">
        <ele>3338</ele>
        <time>2021-10-16T12:30:20Z</time>
      </trkpt>
      <trkpt lat="45.50536" lon="6.98707">
        <ele>3337</ele>
        <time>2021-10-16T12:30:38Z</time>
      </trkpt>
      <trkpt lat="45.50544" lon="6.98673">
        <ele>3334</ele>
        <time>2021-10-16T12:31:03Z</time>
      </trkpt>
      <trkpt lat="45.50546" lon="6.98663">
        <ele>3331</ele>
        <time>2021-10-16T12:31:10Z</time>
      </trkpt>
      <trkpt lat="45.5055" lon="6.98642">
        <ele>3331</ele>
        <time>2021-10-16T12:31:23Z</time>
      </trkpt>
      <trkpt lat="45.50549" lon="6.98632">
        <ele>3331</ele>
        <time>2021-10-16T12:31:30Z</time>
      </trkpt>
      <trkpt lat="45.50547" lon="6.98621">
        <ele>3332</ele>
        <time>2021-10-16T12:31:38Z</time>
      </trkpt>
      <trkpt lat="45.50543" lon="6.98609">
        <ele>3333</ele>
        <time>2021-10-16T12:31:53Z</time>
      </trkpt>
      <trkpt lat="45.50545" lon="6.98594">
        <ele>3335</ele>
        <time>2021-10-16T12:32:17Z</time>
      </trkpt>
      <trkpt lat="45.50544" lon="6.98577">
        <ele>3334</ele>
        <time>2021-10-16T12:32:32Z</time>
      </trkpt>
      <trkpt lat="45.50544" lon="6.98566">
        <ele>3336</ele>
        <time>2021-10-16T12:32:50Z</time>
      </trkpt>
      <trkpt lat="45.50548" lon="6.98555">
        <ele>3335</ele>
        <time>2021-10-16T12:33:02Z</time>
      </trkpt>
      <trkpt lat="45.50549" lon="6.98537">
        <ele>3336</ele>
        <time>2021-10-16T12:33:16Z</time>
      </trkpt>
      <trkpt lat="45.50551" lon="6.98523">
        <ele>3333</ele>
        <time>2021-10-16T12:33:27Z</time>
      </trkpt>
      <trkpt lat="45.50554" lon="6.9851">
        <ele>3334</ele>
        <time>2021-10-16T12:33:37Z</time>
      </trkpt>
      <trkpt lat="45.50555" lon="6.98495">
        <ele>3334</ele>
        <time>2021-10-16T12:33:47Z</time>
      </trkpt>
      <trkpt lat="45.50557" lon="6.98485">
        <ele>3334</ele>
        <time>2021-10-16T12:33:54Z</time>
      </trkpt>
      <trkpt lat="45.50561" lon="6.98477">
        <ele>3335</ele>
        <time>2021-10-16T12:34:02Z</time>
      </trkpt>
      <trkpt lat="45.50561" lon="6.98464">
        <ele>3334</ele>
        <time>2021-10-16T12:34:12Z</time>
      </trkpt>
      <trkpt lat="45.50565" lon="6.98414">
        <ele>3331</ele>
        <time>2021-10-16T12:34:49Z</time>
      </trkpt>
      <trkpt lat="45.50564" lon="6.98385">
        <ele>3329</ele>
        <time>2021-10-16T12:35:10Z</time>
      </trkpt>
      <trkpt lat="45.50563" lon="6.98375">
        <ele>3329</ele>
        <time>2021-10-16T12:35:15Z</time>
      </trkpt>
      <trkpt lat="45.50565" lon="6.98363">
        <ele>3328</ele>
        <time>2021-10-16T12:35:22Z</time>
      </trkpt>
      <trkpt lat="45.50562" lon="6.98353">
        <ele>3328</ele>
        <time>2021-10-16T12:35:28Z</time>
      </trkpt>
      <trkpt lat="45.50557" lon="6.9833">
        <ele>3326</ele>
        <time>2021-10-16T12:35:46Z</time>
      </trkpt>
      <trkpt lat="45.50554" lon="6.9832">
        <ele>3325</ele>
        <time>2021-10-16T12:35:51Z</time>
      </trkpt>
      <trkpt lat="45.50552" lon="6.9831">
        <ele>3326</ele>
        <time>2021-10-16T12:36:00Z</time>
      </trkpt>
      <trkpt lat="45.50548" lon="6.98301">
        <ele>3325</ele>
        <time>2021-10-16T12:36:12Z</time>
      </trkpt>
      <trkpt lat="45.50549" lon="6.98283">
        <ele>3324</ele>
        <time>2021-10-16T12:36:30Z</time>
      </trkpt>
      <trkpt lat="45.50541" lon="6.98256">
        <ele>3318</ele>
        <time>2021-10-16T12:36:58Z</time>
      </trkpt>
      <trkpt lat="45.50538" lon="6.98228">
        <ele>3312</ele>
        <time>2021-10-16T12:37:18Z</time>
      </trkpt>
      <trkpt lat="45.50535" lon="6.98217">
        <ele>3312</ele>
        <time>2021-10-16T12:37:29Z</time>
      </trkpt>
      <trkpt lat="45.50535" lon="6.98192">
        <ele>3305</ele>
        <time>2021-10-16T12:37:52Z</time>
      </trkpt>
      <trkpt lat="45.50527" lon="6.9817">
        <ele>3302</ele>
        <time>2021-10-16T12:38:12Z</time>
      </trkpt>
      <trkpt lat="45.50527" lon="6.98157">
        <ele>3300</ele>
        <time>2021-10-16T12:38:26Z</time>
      </trkpt>
      <trkpt lat="45.50523" lon="6.98147">
        <ele>3299</ele>
        <time>2021-10-16T12:38:34Z</time>
      </trkpt>
      <trkpt lat="45.50522" lon="6.98136">
        <ele>3298</ele>
        <time>2021-10-16T12:38:42Z</time>
      </trkpt>
      <trkpt lat="45.50521" lon="6.98127">
        <ele>3297</ele>
        <time>2021-10-16T12:38:47Z</time>
      </trkpt>
      <trkpt lat="45.50518" lon="6.98117">
        <ele>3297</ele>
        <time>2021-10-16T12:39:01Z</time>
      </trkpt>
      <trkpt lat="45.50514" lon="6.98105">
        <ele>3299</ele>
        <time>2021-10-16T12:39:19Z</time>
      </trkpt>
      <trkpt lat="45.50509" lon="6.98094">
        <ele>3302</ele>
        <time>2021-10-16T12:39:43Z</time>
      </trkpt>
      <trkpt lat="45.50509" lon="6.98082">
        <ele>3301</ele>
        <time>2021-10-16T12:39:58Z</time>
      </trkpt>
      <trkpt lat="45.50503" lon="6.98065">
        <ele>3299</ele>
        <time>2021-10-16T12:40:13Z</time>
      </trkpt>
      <trkpt lat="45.50501" lon="6.98052">
        <ele>3298</ele>
        <time>2021-10-16T12:40:25Z</time>
      </trkpt>
      <trkpt lat="45.505" lon="6.98033">
        <ele>3295</ele>
        <time>2021-10-16T12:40:39Z</time>
      </trkpt>
      <trkpt lat="45.50502" lon="6.98024">
        <ele>3294</ele>
        <time>2021-10-16T12:40:55Z</time>
      </trkpt>
      <trkpt lat="45.505" lon="6.98014">
        <ele>3291</ele>
        <time>2021-10-16T12:41:13Z</time>
      </trkpt>
      <trkpt lat="45.50504" lon="6.98004">
        <ele>3288</ele>
        <time>2021-10-16T12:41:31Z</time>
      </trkpt>
      <trkpt lat="45.50511" lon="6.97996">
        <ele>3284</ele>
        <time>2021-10-16T12:41:49Z</time>
      </trkpt>
      <trkpt lat="45.50505" lon="6.97992">
        <ele>3280</ele>
        <time>2021-10-16T12:42:01Z</time>
      </trkpt>
      <trkpt lat="45.50504" lon="6.97981">
        <ele>3280</ele>
        <time>2021-10-16T12:42:19Z</time>
      </trkpt>
      <trkpt lat="45.505" lon="6.97971">
        <ele>3274</ele>
        <time>2021-10-16T12:42:37Z</time>
      </trkpt>
      <trkpt lat="45.50495" lon="6.97933">
        <ele>3269</ele>
        <time>2021-10-16T12:43:12Z</time>
      </trkpt>
      <trkpt lat="45.505" lon="6.9792">
        <ele>3264</ele>
        <time>2021-10-16T12:43:31Z</time>
      </trkpt>
      <trkpt lat="45.50496" lon="6.97913">
        <ele>3261</ele>
        <time>2021-10-16T12:44:01Z</time>
      </trkpt>
      <trkpt lat="45.5049" lon="6.9792">
        <ele>3268</ele>
        <time>2021-10-16T12:45:13Z</time>
      </trkpt>
      <trkpt lat="45.50495" lon="6.97928">
        <ele>3270</ele>
        <time>2021-10-16T12:45:31Z</time>
      </trkpt>
      <trkpt lat="45.50489" lon="6.97947">
        <ele>3275</ele>
        <time>2021-10-16T12:46:07Z</time>
      </trkpt>
      <trkpt lat="45.5048" lon="6.97947">
        <ele>3275</ele>
        <time>2021-10-16T12:46:31Z</time>
      </trkpt>
      <trkpt lat="45.50471" lon="6.97947">
        <ele>3278</ele>
        <time>2021-10-16T12:48:13Z</time>
      </trkpt>
      <trkpt lat="45.50465" lon="6.97922">
        <ele>3267</ele>
        <time>2021-10-16T12:51:16Z</time>
      </trkpt>
      <trkpt lat="45.50463" lon="6.97893">
        <ele>3238</ele>
        <time>2021-10-16T12:58:11Z</time>
      </trkpt>
      <trkpt lat="45.50429" lon="6.9788">
        <ele>3228</ele>
        <time>2021-10-16T12:58:52Z</time>
      </trkpt>
      <trkpt lat="45.50423" lon="6.9788">
        <ele>3228</ele>
        <time>2021-10-16T12:59:00Z</time>
      </trkpt>
      <trkpt lat="45.50418" lon="6.97874">
        <ele>3225</ele>
        <time>2021-10-16T12:59:12Z</time>
      </trkpt>
      <trkpt lat="45.504" lon="6.97861">
        <ele>3217</ele>
        <time>2021-10-16T12:59:48Z</time>
      </trkpt>
      <trkpt lat="45.50399" lon="6.9785">
        <ele>3212</ele>
        <time>2021-10-16T13:00:36Z</time>
      </trkpt>
      <trkpt lat="45.50399" lon="6.9784">
        <ele>3205</ele>
        <time>2021-10-16T13:01:01Z</time>
      </trkpt>
      <trkpt lat="45.50376" lon="6.97838">
        <ele>3198</ele>
        <time>2021-10-16T13:01:27Z</time>
      </trkpt>
      <trkpt lat="45.50373" lon="6.97827">
        <ele>3195</ele>
        <time>2021-10-16T13:01:40Z</time>
      </trkpt>
      <trkpt lat="45.50367" lon="6.97828">
        <ele>3194</ele>
        <time>2021-10-16T13:01:46Z</time>
      </trkpt>
      <trkpt lat="45.50366" lon="6.97819">
        <ele>3190</ele>
        <time>2021-10-16T13:01:59Z</time>
      </trkpt>
      <trkpt lat="45.50356" lon="6.97817">
        <ele>3182</ele>
        <time>2021-10-16T13:02:30Z</time>
      </trkpt>
      <trkpt lat="45.50351" lon="6.97821">
        <ele>3182</ele>
        <time>2021-10-16T13:02:35Z</time>
      </trkpt>
      <trkpt lat="45.50346" lon="6.9782">
        <ele>3172</ele>
        <time>2021-10-16T13:03:28Z</time>
      </trkpt>
      <trkpt lat="45.50342" lon="6.97812">
        <ele>3170</ele>
        <time>2021-10-16T13:03:40Z</time>
      </trkpt>
      <trkpt lat="45.50332" lon="6.97781">
        <ele>3163</ele>
        <time>2021-10-16T13:04:15Z</time>
      </trkpt>
      <trkpt lat="45.50326" lon="6.97774">
        <ele>3160</ele>
        <time>2021-10-16T13:04:27Z</time>
      </trkpt>
      <trkpt lat="45.50321" lon="6.9777">
        <ele>3153</ele>
        <time>2021-10-16T13:04:51Z</time>
      </trkpt>
      <trkpt lat="45.50312" lon="6.97769">
        <ele>3150</ele>
        <time>2021-10-16T13:05:10Z</time>
      </trkpt>
      <trkpt lat="45.50307" lon="6.97759">
        <ele>3147</ele>
        <time>2021-10-16T13:05:22Z</time>
      </trkpt>
      <trkpt lat="45.50309" lon="6.97752">
        <ele>3145</ele>
        <time>2021-10-16T13:05:29Z</time>
      </trkpt>
      <trkpt lat="45.50301" lon="6.97743">
        <ele>3141</ele>
        <time>2021-10-16T13:05:42Z</time>
      </trkpt>
      <trkpt lat="45.50296" lon="6.97736">
        <ele>3140</ele>
        <time>2021-10-16T13:05:50Z</time>
      </trkpt>
      <trkpt lat="45.50297" lon="6.97722">
        <ele>3138</ele>
        <time>2021-10-16T13:06:01Z</time>
      </trkpt>
      <trkpt lat="45.50293" lon="6.9771">
        <ele>3134</ele>
        <time>2021-10-16T13:06:13Z</time>
      </trkpt>
      <trkpt lat="45.50285" lon="6.97701">
        <ele>3131</ele>
        <time>2021-10-16T13:06:25Z</time>
      </trkpt>
      <trkpt lat="45.50277" lon="6.97697">
        <ele>3130</ele>
        <time>2021-10-16T13:06:33Z</time>
      </trkpt>
      <trkpt lat="45.50271" lon="6.97698">
        <ele>3130</ele>
        <time>2021-10-16T13:06:38Z</time>
      </trkpt>
      <trkpt lat="45.50267" lon="6.97697">
        <ele>3130</ele>
        <time>2021-10-16T13:08:16Z</time>
      </trkpt>
      <trkpt lat="45.50261" lon="6.97685">
        <ele>3127</ele>
        <time>2021-10-16T13:08:36Z</time>
      </trkpt>
      <trkpt lat="45.50259" lon="6.97677">
        <ele>3127</ele>
        <time>2021-10-16T13:08:41Z</time>
      </trkpt>
      <trkpt lat="45.50255" lon="6.9767">
        <ele>3126</ele>
        <time>2021-10-16T13:08:46Z</time>
      </trkpt>
      <trkpt lat="45.50253" lon="6.97663">
        <ele>3125</ele>
        <time>2021-10-16T13:08:51Z</time>
      </trkpt>
      <trkpt lat="45.50246" lon="6.97654">
        <ele>3122</ele>
        <time>2021-10-16T13:09:04Z</time>
      </trkpt>
      <trkpt lat="45.50233" lon="6.97629">
        <ele>3116</ele>
        <time>2021-10-16T13:09:27Z</time>
      </trkpt>
      <trkpt lat="45.50229" lon="6.97623">
        <ele>3116</ele>
        <time>2021-10-16T13:09:33Z</time>
      </trkpt>
      <trkpt lat="45.50227" lon="6.97619">
        <ele>3116</ele>
        <time>2021-10-16T13:09:36Z</time>
      </trkpt>
      <trkpt lat="45.50222" lon="6.97608">
        <ele>3116</ele>
        <time>2021-10-16T13:09:43Z</time>
      </trkpt>
      <trkpt lat="45.50212" lon="6.97588">
        <ele>3115</ele>
        <time>2021-10-16T13:09:59Z</time>
      </trkpt>
      <trkpt lat="45.50206" lon="6.97572">
        <ele>3113</ele>
        <time>2021-10-16T13:10:09Z</time>
      </trkpt>
      <trkpt lat="45.50198" lon="6.97556">
        <ele>3112</ele>
        <time>2021-10-16T13:10:20Z</time>
      </trkpt>
      <trkpt lat="45.50192" lon="6.97537">
        <ele>3113</ele>
        <time>2021-10-16T13:10:36Z</time>
      </trkpt>
      <trkpt lat="45.50188" lon="6.9753">
        <ele>3113</ele>
        <time>2021-10-16T13:10:41Z</time>
      </trkpt>
      <trkpt lat="45.50187" lon="6.97518">
        <ele>3115</ele>
        <time>2021-10-16T13:10:50Z</time>
      </trkpt>
      <trkpt lat="45.50186" lon="6.97508">
        <ele>3116</ele>
        <time>2021-10-16T13:10:59Z</time>
      </trkpt>
      <trkpt lat="45.50183" lon="6.97503">
        <ele>3116</ele>
        <time>2021-10-16T13:11:03Z</time>
      </trkpt>
      <trkpt lat="45.50182" lon="6.97498">
        <ele>3116</ele>
        <time>2021-10-16T13:11:08Z</time>
      </trkpt>
      <trkpt lat="45.50182" lon="6.97493">
        <ele>3117</ele>
        <time>2021-10-16T13:11:16Z</time>
      </trkpt>
      <trkpt lat="45.50179" lon="6.97481">
        <ele>3118</ele>
        <time>2021-10-16T13:11:28Z</time>
      </trkpt>
      <trkpt lat="45.50174" lon="6.97472">
        <ele>3119</ele>
        <time>2021-10-16T13:11:39Z</time>
      </trkpt>
      <trkpt lat="45.5017" lon="6.97465">
        <ele>3120</ele>
        <time>2021-10-16T13:11:52Z</time>
      </trkpt>
      <trkpt lat="45.50168" lon="6.97451">
        <ele>3122</ele>
        <time>2021-10-16T13:12:11Z</time>
      </trkpt>
      <trkpt lat="45.50166" lon="6.97444">
        <ele>3124</ele>
        <time>2021-10-16T13:12:22Z</time>
      </trkpt>
      <trkpt lat="45.50165" lon="6.97439">
        <ele>3124</ele>
        <time>2021-10-16T13:12:26Z</time>
      </trkpt>
      <trkpt lat="45.5016" lon="6.97429">
        <ele>3125</ele>
        <time>2021-10-16T13:12:39Z</time>
      </trkpt>
      <trkpt lat="45.50158" lon="6.97418">
        <ele>3125</ele>
        <time>2021-10-16T13:12:49Z</time>
      </trkpt>
      <trkpt lat="45.50147" lon="6.97393">
        <ele>3126</ele>
        <time>2021-10-16T13:13:15Z</time>
      </trkpt>
      <trkpt lat="45.50125" lon="6.97364">
        <ele>3127</ele>
        <time>2021-10-16T13:13:46Z</time>
      </trkpt>
      <trkpt lat="45.50106" lon="6.97342">
        <ele>3127</ele>
        <time>2021-10-16T13:14:08Z</time>
      </trkpt>
      <trkpt lat="45.50086" lon="6.97324">
        <ele>3126</ele>
        <time>2021-10-16T13:14:29Z</time>
      </trkpt>
      <trkpt lat="45.50074" lon="6.97312">
        <ele>3125</ele>
        <time>2021-10-16T13:14:42Z</time>
      </trkpt>
      <trkpt lat="45.5007" lon="6.97305">
        <ele>3124</ele>
        <time>2021-10-16T13:14:48Z</time>
      </trkpt>
      <trkpt lat="45.50065" lon="6.97301">
        <ele>3124</ele>
        <time>2021-10-16T13:14:53Z</time>
      </trkpt>
      <trkpt lat="45.50061" lon="6.97302">
        <ele>3123</ele>
        <time>2021-10-16T13:14:57Z</time>
      </trkpt>
      <trkpt lat="45.50054" lon="6.97297">
        <ele>3123</ele>
        <time>2021-10-16T13:15:06Z</time>
      </trkpt>
      <trkpt lat="45.5005" lon="6.97291">
        <ele>3123</ele>
        <time>2021-10-16T13:15:11Z</time>
      </trkpt>
      <trkpt lat="45.50016" lon="6.97263">
        <ele>3118</ele>
        <time>2021-10-16T13:15:47Z</time>
      </trkpt>
      <trkpt lat="45.5001" lon="6.97259">
        <ele>3117</ele>
        <time>2021-10-16T13:15:53Z</time>
      </trkpt>
      <trkpt lat="45.50008" lon="6.97251">
        <ele>3116</ele>
        <time>2021-10-16T13:15:59Z</time>
      </trkpt>
      <trkpt lat="45.49996" lon="6.97238">
        <ele>3111</ele>
        <time>2021-10-16T13:16:19Z</time>
      </trkpt>
      <trkpt lat="45.49994" lon="6.9723">
        <ele>3110</ele>
        <time>2021-10-16T13:16:25Z</time>
      </trkpt>
      <trkpt lat="45.49984" lon="6.97211">
        <ele>3105</ele>
        <time>2021-10-16T13:16:43Z</time>
      </trkpt>
      <trkpt lat="45.49982" lon="6.97202">
        <ele>3104</ele>
        <time>2021-10-16T13:16:50Z</time>
      </trkpt>
      <trkpt lat="45.49978" lon="6.97196">
        <ele>3103</ele>
        <time>2021-10-16T13:16:56Z</time>
      </trkpt>
      <trkpt lat="45.49975" lon="6.97187">
        <ele>3102</ele>
        <time>2021-10-16T13:17:03Z</time>
      </trkpt>
      <trkpt lat="45.49971" lon="6.97181">
        <ele>3100</ele>
        <time>2021-10-16T13:17:08Z</time>
      </trkpt>
      <trkpt lat="45.49968" lon="6.97174">
        <ele>3099</ele>
        <time>2021-10-16T13:17:14Z</time>
      </trkpt>
      <trkpt lat="45.49958" lon="6.97161">
        <ele>3096</ele>
        <time>2021-10-16T13:17:26Z</time>
      </trkpt>
      <trkpt lat="45.49954" lon="6.97148">
        <ele>3092</ele>
        <time>2021-10-16T13:17:40Z</time>
      </trkpt>
      <trkpt lat="45.49947" lon="6.97137">
        <ele>3089</ele>
        <time>2021-10-16T13:17:53Z</time>
      </trkpt>
      <trkpt lat="45.4994" lon="6.97131">
        <ele>3087</ele>
        <time>2021-10-16T13:18:02Z</time>
      </trkpt>
      <trkpt lat="45.49936" lon="6.97123">
        <ele>3085</ele>
        <time>2021-10-16T13:18:14Z</time>
      </trkpt>
      <trkpt lat="45.49935" lon="6.97113">
        <ele>3082</ele>
        <time>2021-10-16T13:18:26Z</time>
      </trkpt>
      <trkpt lat="45.49928" lon="6.97104">
        <ele>3078</ele>
        <time>2021-10-16T13:18:40Z</time>
      </trkpt>
      <trkpt lat="45.49926" lon="6.97094">
        <ele>3075</ele>
        <time>2021-10-16T13:18:52Z</time>
      </trkpt>
      <trkpt lat="45.49925" lon="6.97087">
        <ele>3072</ele>
        <time>2021-10-16T13:19:02Z</time>
      </trkpt>
      <trkpt lat="45.49921" lon="6.97072">
        <ele>3066</ele>
        <time>2021-10-16T13:19:22Z</time>
      </trkpt>
      <trkpt lat="45.49918" lon="6.97062">
        <ele>3062</ele>
        <time>2021-10-16T13:19:37Z</time>
      </trkpt>
      <trkpt lat="45.49916" lon="6.97054">
        <ele>3058</ele>
        <time>2021-10-16T13:19:52Z</time>
      </trkpt>
      <trkpt lat="45.49911" lon="6.97047">
        <ele>3054</ele>
        <time>2021-10-16T13:20:12Z</time>
      </trkpt>
      <trkpt lat="45.4991" lon="6.97039">
        <ele>3050</ele>
        <time>2021-10-16T13:20:32Z</time>
      </trkpt>
      <trkpt lat="45.49893" lon="6.97027">
        <ele>3040</ele>
        <time>2021-10-16T13:21:18Z</time>
      </trkpt>
      <trkpt lat="45.49886" lon="6.97026">
        <ele>3037</ele>
        <time>2021-10-16T13:21:33Z</time>
      </trkpt>
      <trkpt lat="45.49888" lon="6.9702">
        <ele>3036</ele>
        <time>2021-10-16T13:21:43Z</time>
      </trkpt>
      <trkpt lat="45.49888" lon="6.97015">
        <ele>3035</ele>
        <time>2021-10-16T13:21:47Z</time>
      </trkpt>
      <trkpt lat="45.4989" lon="6.97008">
        <ele>3033</ele>
        <time>2021-10-16T13:21:59Z</time>
      </trkpt>
      <trkpt lat="45.49887" lon="6.97003">
        <ele>3031</ele>
        <time>2021-10-16T13:22:09Z</time>
      </trkpt>
      <trkpt lat="45.49888" lon="6.96988">
        <ele>3023</ele>
        <time>2021-10-16T13:22:44Z</time>
      </trkpt>
      <trkpt lat="45.49893" lon="6.96987">
        <ele>3021</ele>
        <time>2021-10-16T13:23:04Z</time>
      </trkpt>
      <trkpt lat="45.49888" lon="6.96981">
        <ele>3016</ele>
        <time>2021-10-16T13:23:39Z</time>
      </trkpt>
      <trkpt lat="45.49889" lon="6.96972">
        <ele>3014</ele>
        <time>2021-10-16T13:23:54Z</time>
      </trkpt>
      <trkpt lat="45.49884" lon="6.96964">
        <ele>3011</ele>
        <time>2021-10-16T13:24:24Z</time>
      </trkpt>
      <trkpt lat="45.49877" lon="6.96946">
        <ele>3006</ele>
        <time>2021-10-16T13:24:50Z</time>
      </trkpt>
      <trkpt lat="45.49878" lon="6.96941">
        <ele>3005</ele>
        <time>2021-10-16T13:24:54Z</time>
      </trkpt>
      <trkpt lat="45.49878" lon="6.96933">
        <ele>3002</ele>
        <time>2021-10-16T13:25:11Z</time>
      </trkpt>
      <trkpt lat="45.49873" lon="6.96913">
        <ele>2998</ele>
        <time>2021-10-16T13:25:33Z</time>
      </trkpt>
      <trkpt lat="45.49867" lon="6.96899">
        <ele>2996</ele>
        <time>2021-10-16T13:25:46Z</time>
      </trkpt>
      <trkpt lat="45.49864" lon="6.96889">
        <ele>2994</ele>
        <time>2021-10-16T13:26:01Z</time>
      </trkpt>
      <trkpt lat="45.4986" lon="6.96881">
        <ele>2991</ele>
        <time>2021-10-16T13:26:13Z</time>
      </trkpt>
      <trkpt lat="45.49855" lon="6.96877">
        <ele>2989</ele>
        <time>2021-10-16T13:26:31Z</time>
      </trkpt>
      <trkpt lat="45.49851" lon="6.96871">
        <ele>2988</ele>
        <time>2021-10-16T13:26:38Z</time>
      </trkpt>
      <trkpt lat="45.49842" lon="6.96866">
        <ele>2986</ele>
        <time>2021-10-16T13:26:48Z</time>
      </trkpt>
      <trkpt lat="45.49839" lon="6.96856">
        <ele>2985</ele>
        <time>2021-10-16T13:26:58Z</time>
      </trkpt>
      <trkpt lat="45.49832" lon="6.96849">
        <ele>2983</ele>
        <time>2021-10-16T13:27:09Z</time>
      </trkpt>
      <trkpt lat="45.49818" lon="6.96841">
        <ele>2981</ele>
        <time>2021-10-16T13:27:30Z</time>
      </trkpt>
      <trkpt lat="45.49818" lon="6.9683">
        <ele>2978</ele>
        <time>2021-10-16T13:27:42Z</time>
      </trkpt>
      <trkpt lat="45.49809" lon="6.96827">
        <ele>2975</ele>
        <time>2021-10-16T13:27:55Z</time>
      </trkpt>
      <trkpt lat="45.49804" lon="6.96818">
        <ele>2974</ele>
        <time>2021-10-16T13:28:04Z</time>
      </trkpt>
      <trkpt lat="45.49802" lon="6.96809">
        <ele>2972</ele>
        <time>2021-10-16T13:28:12Z</time>
      </trkpt>
      <trkpt lat="45.49795" lon="6.96799">
        <ele>2970</ele>
        <time>2021-10-16T13:28:26Z</time>
      </trkpt>
      <trkpt lat="45.4979" lon="6.96793">
        <ele>2968</ele>
        <time>2021-10-16T13:28:33Z</time>
      </trkpt>
      <trkpt lat="45.49783" lon="6.9679">
        <ele>2968</ele>
        <time>2021-10-16T13:28:38Z</time>
      </trkpt>
      <trkpt lat="45.49779" lon="6.96786">
        <ele>2968</ele>
        <time>2021-10-16T13:28:44Z</time>
      </trkpt>
      <trkpt lat="45.49773" lon="6.96783">
        <ele>2968</ele>
        <time>2021-10-16T13:28:50Z</time>
      </trkpt>
      <trkpt lat="45.49769" lon="6.96773">
        <ele>2967</ele>
        <time>2021-10-16T13:28:59Z</time>
      </trkpt>
      <trkpt lat="45.49762" lon="6.96768">
        <ele>2966</ele>
        <time>2021-10-16T13:29:06Z</time>
      </trkpt>
      <trkpt lat="45.49757" lon="6.96764">
        <ele>2966</ele>
        <time>2021-10-16T13:29:11Z</time>
      </trkpt>
      <trkpt lat="45.49752" lon="6.96751">
        <ele>2964</ele>
        <time>2021-10-16T13:29:22Z</time>
      </trkpt>
      <trkpt lat="45.49744" lon="6.96743">
        <ele>2962</ele>
        <time>2021-10-16T13:29:34Z</time>
      </trkpt>
      <trkpt lat="45.49741" lon="6.96735">
        <ele>2960</ele>
        <time>2021-10-16T13:29:41Z</time>
      </trkpt>
      <trkpt lat="45.49737" lon="6.96729">
        <ele>2959</ele>
        <time>2021-10-16T13:29:46Z</time>
      </trkpt>
      <trkpt lat="45.49734" lon="6.96721">
        <ele>2957</ele>
        <time>2021-10-16T13:29:54Z</time>
      </trkpt>
      <trkpt lat="45.49727" lon="6.96708">
        <ele>2955</ele>
        <time>2021-10-16T13:30:04Z</time>
      </trkpt>
      <trkpt lat="45.49721" lon="6.96702">
        <ele>2955</ele>
        <time>2021-10-16T13:30:10Z</time>
      </trkpt>
      <trkpt lat="45.49716" lon="6.96698">
        <ele>2954</ele>
        <time>2021-10-16T13:30:14Z</time>
      </trkpt>
      <trkpt lat="45.49709" lon="6.96688">
        <ele>2953</ele>
        <time>2021-10-16T13:30:24Z</time>
      </trkpt>
      <trkpt lat="45.497" lon="6.96679">
        <ele>2951</ele>
        <time>2021-10-16T13:30:35Z</time>
      </trkpt>
      <trkpt lat="45.49689" lon="6.96663">
        <ele>2948</ele>
        <time>2021-10-16T13:30:51Z</time>
      </trkpt>
      <trkpt lat="45.49684" lon="6.96656">
        <ele>2944</ele>
        <time>2021-10-16T13:31:05Z</time>
      </trkpt>
      <trkpt lat="45.49679" lon="6.96645">
        <ele>2940</ele>
        <time>2021-10-16T13:31:25Z</time>
      </trkpt>
      <trkpt lat="45.49679" lon="6.96637">
        <ele>2937</ele>
        <time>2021-10-16T13:31:38Z</time>
      </trkpt>
      <trkpt lat="45.49673" lon="6.96631">
        <ele>2933</ele>
        <time>2021-10-16T13:31:50Z</time>
      </trkpt>
      <trkpt lat="45.49674" lon="6.96595">
        <ele>2925</ele>
        <time>2021-10-16T13:32:27Z</time>
      </trkpt>
      <trkpt lat="45.49676" lon="6.96586">
        <ele>2923</ele>
        <time>2021-10-16T13:32:36Z</time>
      </trkpt>
      <trkpt lat="45.49676" lon="6.96573">
        <ele>2920</ele>
        <time>2021-10-16T13:32:49Z</time>
      </trkpt>
      <trkpt lat="45.4967" lon="6.96575">
        <ele>2917</ele>
        <time>2021-10-16T13:33:00Z</time>
      </trkpt>
      <trkpt lat="45.49658" lon="6.9658">
        <ele>2914</ele>
        <time>2021-10-16T13:33:15Z</time>
      </trkpt>
      <trkpt lat="45.49654" lon="6.96574">
        <ele>2910</ele>
        <time>2021-10-16T13:33:33Z</time>
      </trkpt>
      <trkpt lat="45.4965" lon="6.96564">
        <ele>2905</ele>
        <time>2021-10-16T13:33:51Z</time>
      </trkpt>
      <trkpt lat="45.49645" lon="6.96563">
        <ele>2903</ele>
        <time>2021-10-16T13:34:03Z</time>
      </trkpt>
      <trkpt lat="45.49642" lon="6.96555">
        <ele>2900</ele>
        <time>2021-10-16T13:34:15Z</time>
      </trkpt>
      <trkpt lat="45.4964" lon="6.96541">
        <ele>2896</ele>
        <time>2021-10-16T13:34:28Z</time>
      </trkpt>
      <trkpt lat="45.4964" lon="6.96537">
        <ele>2894</ele>
        <time>2021-10-16T13:34:36Z</time>
      </trkpt>
      <trkpt lat="45.49636" lon="6.96543">
        <ele>2892</ele>
        <time>2021-10-16T13:34:41Z</time>
      </trkpt>
      <trkpt lat="45.49634" lon="6.96547">
        <ele>2892</ele>
        <time>2021-10-16T13:34:44Z</time>
      </trkpt>
      <trkpt lat="45.49628" lon="6.96536">
        <ele>2888</ele>
        <time>2021-10-16T13:34:57Z</time>
      </trkpt>
      <trkpt lat="45.49622" lon="6.96537">
        <ele>2886</ele>
        <time>2021-10-16T13:35:09Z</time>
      </trkpt>
      <trkpt lat="45.4962" lon="6.96541">
        <ele>2885</ele>
        <time>2021-10-16T13:35:11Z</time>
      </trkpt>
      <trkpt lat="45.49612" lon="6.96545">
        <ele>2883</ele>
        <time>2021-10-16T13:35:24Z</time>
      </trkpt>
      <trkpt lat="45.49607" lon="6.96542">
        <ele>2880</ele>
        <time>2021-10-16T13:35:37Z</time>
      </trkpt>
      <trkpt lat="45.496" lon="6.96547">
        <ele>2877</ele>
        <time>2021-10-16T13:35:48Z</time>
      </trkpt>
      <trkpt lat="45.49594" lon="6.96535">
        <ele>2873</ele>
        <time>2021-10-16T13:36:05Z</time>
      </trkpt>
      <trkpt lat="45.49593" lon="6.96519">
        <ele>2869</ele>
        <time>2021-10-16T13:36:19Z</time>
      </trkpt>
      <trkpt lat="45.49594" lon="6.96511">
        <ele>2868</ele>
        <time>2021-10-16T13:36:24Z</time>
      </trkpt>
      <trkpt lat="45.49593" lon="6.965">
        <ele>2867</ele>
        <time>2021-10-16T13:36:34Z</time>
      </trkpt>
      <trkpt lat="45.49593" lon="6.96488">
        <ele>2864</ele>
        <time>2021-10-16T13:36:46Z</time>
      </trkpt>
      <trkpt lat="45.4959" lon="6.96481">
        <ele>2862</ele>
        <time>2021-10-16T13:36:52Z</time>
      </trkpt>
      <trkpt lat="45.4959" lon="6.96473">
        <ele>2860</ele>
        <time>2021-10-16T13:36:58Z</time>
      </trkpt>
      <trkpt lat="45.49592" lon="6.96454">
        <ele>2857</ele>
        <time>2021-10-16T13:37:12Z</time>
      </trkpt>
      <trkpt lat="45.49594" lon="6.96445">
        <ele>2855</ele>
        <time>2021-10-16T13:37:18Z</time>
      </trkpt>
      <trkpt lat="45.49602" lon="6.96429">
        <ele>2854</ele>
        <time>2021-10-16T13:37:31Z</time>
      </trkpt>
      <trkpt lat="45.49604" lon="6.96405">
        <ele>2851</ele>
        <time>2021-10-16T13:37:47Z</time>
      </trkpt>
      <trkpt lat="45.49601" lon="6.96398">
        <ele>2850</ele>
        <time>2021-10-16T13:37:55Z</time>
      </trkpt>
      <trkpt lat="45.49601" lon="6.96392">
        <ele>2848</ele>
        <time>2021-10-16T13:38:00Z</time>
      </trkpt>
      <trkpt lat="45.49606" lon="6.96385">
        <ele>2846</ele>
        <time>2021-10-16T13:38:10Z</time>
      </trkpt>
      <trkpt lat="45.49611" lon="6.96376">
        <ele>2843</ele>
        <time>2021-10-16T13:38:21Z</time>
      </trkpt>
      <trkpt lat="45.49615" lon="6.96365">
        <ele>2839</ele>
        <time>2021-10-16T13:38:35Z</time>
      </trkpt>
      <trkpt lat="45.49615" lon="6.96351">
        <ele>2837</ele>
        <time>2021-10-16T13:38:46Z</time>
      </trkpt>
      <trkpt lat="45.49621" lon="6.96333">
        <ele>2832</ele>
        <time>2021-10-16T13:39:06Z</time>
      </trkpt>
      <trkpt lat="45.49629" lon="6.96323">
        <ele>2829</ele>
        <time>2021-10-16T13:39:20Z</time>
      </trkpt>
      <trkpt lat="45.49632" lon="6.96318">
        <ele>2827</ele>
        <time>2021-10-16T13:39:26Z</time>
      </trkpt>
      <trkpt lat="45.49641" lon="6.96304">
        <ele>2823</ele>
        <time>2021-10-16T13:39:46Z</time>
      </trkpt>
      <trkpt lat="45.49642" lon="6.96298">
        <ele>2821</ele>
        <time>2021-10-16T13:39:52Z</time>
      </trkpt>
      <trkpt lat="45.49646" lon="6.96296">
        <ele>2820</ele>
        <time>2021-10-16T13:39:57Z</time>
      </trkpt>
      <trkpt lat="45.49643" lon="6.96278">
        <ele>2815</ele>
        <time>2021-10-16T13:40:18Z</time>
      </trkpt>
      <trkpt lat="45.49648" lon="6.96262">
        <ele>2811</ele>
        <time>2021-10-16T13:40:36Z</time>
      </trkpt>
      <trkpt lat="45.49643" lon="6.96255">
        <ele>2808</ele>
        <time>2021-10-16T13:40:48Z</time>
      </trkpt>
      <trkpt lat="45.49646" lon="6.96245">
        <ele>2804</ele>
        <time>2021-10-16T13:41:03Z</time>
      </trkpt>
      <trkpt lat="45.49644" lon="6.96237">
        <ele>2801</ele>
        <time>2021-10-16T13:41:15Z</time>
      </trkpt>
      <trkpt lat="45.49639" lon="6.96236">
        <ele>2799</ele>
        <time>2021-10-16T13:41:21Z</time>
      </trkpt>
      <trkpt lat="45.49638" lon="6.96229">
        <ele>2796</ele>
        <time>2021-10-16T13:41:33Z</time>
      </trkpt>
      <trkpt lat="45.49638" lon="6.96221">
        <ele>2792</ele>
        <time>2021-10-16T13:41:51Z</time>
      </trkpt>
      <trkpt lat="45.49639" lon="6.96216">
        <ele>2791</ele>
        <time>2021-10-16T13:41:55Z</time>
      </trkpt>
      <trkpt lat="45.49634" lon="6.96209">
        <ele>2789</ele>
        <time>2021-10-16T13:42:06Z</time>
      </trkpt>
      <trkpt lat="45.49631" lon="6.96204">
        <ele>2784</ele>
        <time>2021-10-16T13:42:22Z</time>
      </trkpt>
      <trkpt lat="45.49633" lon="6.96194">
        <ele>2782</ele>
        <time>2021-10-16T13:42:34Z</time>
      </trkpt>
      <trkpt lat="45.49633" lon="6.96187">
        <ele>2779</ele>
        <time>2021-10-16T13:42:45Z</time>
      </trkpt>
      <trkpt lat="45.49623" lon="6.96185">
        <ele>2773</ele>
        <time>2021-10-16T13:43:09Z</time>
      </trkpt>
      <trkpt lat="45.49619" lon="6.96186">
        <ele>2772</ele>
        <time>2021-10-16T13:43:13Z</time>
      </trkpt>
      <trkpt lat="45.49612" lon="6.96183">
        <ele>2769</ele>
        <time>2021-10-16T13:43:27Z</time>
      </trkpt>
      <trkpt lat="45.49609" lon="6.96177">
        <ele>2767</ele>
        <time>2021-10-16T13:43:34Z</time>
      </trkpt>
      <trkpt lat="45.49611" lon="6.96172">
        <ele>2765</ele>
        <time>2021-10-16T13:43:40Z</time>
      </trkpt>
      <trkpt lat="45.49612" lon="6.96167">
        <ele>2764</ele>
        <time>2021-10-16T13:43:44Z</time>
      </trkpt>
      <trkpt lat="45.49612" lon="6.96156">
        <ele>2761</ele>
        <time>2021-10-16T13:43:58Z</time>
      </trkpt>
      <trkpt lat="45.49603" lon="6.96142">
        <ele>2754</ele>
        <time>2021-10-16T13:44:22Z</time>
      </trkpt>
      <trkpt lat="45.49606" lon="6.96138">
        <ele>2751</ele>
        <time>2021-10-16T13:44:34Z</time>
      </trkpt>
      <trkpt lat="45.49605" lon="6.96126">
        <ele>2748</ele>
        <time>2021-10-16T13:44:46Z</time>
      </trkpt>
      <trkpt lat="45.49608" lon="6.96121">
        <ele>2746</ele>
        <time>2021-10-16T13:44:52Z</time>
      </trkpt>
      <trkpt lat="45.4961" lon="6.96109">
        <ele>2742</ele>
        <time>2021-10-16T13:45:06Z</time>
      </trkpt>
      <trkpt lat="45.4961" lon="6.96099">
        <ele>2739</ele>
        <time>2021-10-16T13:45:18Z</time>
      </trkpt>
      <trkpt lat="45.49614" lon="6.96069">
        <ele>2729</ele>
        <time>2021-10-16T13:45:51Z</time>
      </trkpt>
      <trkpt lat="45.49615" lon="6.96056">
        <ele>2727</ele>
        <time>2021-10-16T13:46:02Z</time>
      </trkpt>
      <trkpt lat="45.49618" lon="6.96049">
        <ele>2724</ele>
        <time>2021-10-16T13:46:10Z</time>
      </trkpt>
      <trkpt lat="45.49621" lon="6.96018">
        <ele>2718</ele>
        <time>2021-10-16T13:46:34Z</time>
      </trkpt>
      <trkpt lat="45.49624" lon="6.96011">
        <ele>2717</ele>
        <time>2021-10-16T13:46:40Z</time>
      </trkpt>
      <trkpt lat="45.49626" lon="6.96004">
        <ele>2714</ele>
        <time>2021-10-16T13:46:48Z</time>
      </trkpt>
      <trkpt lat="45.49636" lon="6.95983">
        <ele>2707</ele>
        <time>2021-10-16T13:47:16Z</time>
      </trkpt>
      <trkpt lat="45.49631" lon="6.95983">
        <ele>2705</ele>
        <time>2021-10-16T13:47:29Z</time>
      </trkpt>
      <trkpt lat="45.49628" lon="6.9598">
        <ele>2701</ele>
        <time>2021-10-16T13:47:47Z</time>
      </trkpt>
      <trkpt lat="45.49628" lon="6.95974">
        <ele>2696</ele>
        <time>2021-10-16T13:48:23Z</time>
      </trkpt>
      <trkpt lat="45.49629" lon="6.95963">
        <ele>2691</ele>
        <time>2021-10-16T13:48:53Z</time>
      </trkpt>
      <trkpt lat="45.49622" lon="6.95962">
        <ele>2688</ele>
        <time>2021-10-16T13:49:05Z</time>
      </trkpt>
      <trkpt lat="45.49617" lon="6.95959">
        <ele>2681</ele>
        <time>2021-10-16T13:49:41Z</time>
      </trkpt>
      <trkpt lat="45.4961" lon="6.95956">
        <ele>2677</ele>
        <time>2021-10-16T13:49:59Z</time>
      </trkpt>
      <trkpt lat="45.496" lon="6.95954">
        <ele>2672</ele>
        <time>2021-10-16T13:50:17Z</time>
      </trkpt>
      <trkpt lat="45.49599" lon="6.95943">
        <ele>2668</ele>
        <time>2021-10-16T13:50:41Z</time>
      </trkpt>
      <trkpt lat="45.49596" lon="6.95938">
        <ele>2664</ele>
        <time>2021-10-16T13:50:53Z</time>
      </trkpt>
      <trkpt lat="45.4959" lon="6.95943">
        <ele>2661</ele>
        <time>2021-10-16T13:51:05Z</time>
      </trkpt>
      <trkpt lat="45.49584" lon="6.95938">
        <ele>2660</ele>
        <time>2021-10-16T13:51:16Z</time>
      </trkpt>
      <trkpt lat="45.49578" lon="6.95935">
        <ele>2655</ele>
        <time>2021-10-16T13:51:34Z</time>
      </trkpt>
      <trkpt lat="45.49574" lon="6.95926">
        <ele>2651</ele>
        <time>2021-10-16T13:51:52Z</time>
      </trkpt>
      <trkpt lat="45.49568" lon="6.95921">
        <ele>2646</ele>
        <time>2021-10-16T13:52:10Z</time>
      </trkpt>
      <trkpt lat="45.49564" lon="6.95921">
        <ele>2645</ele>
        <time>2021-10-16T13:52:15Z</time>
      </trkpt>
      <trkpt lat="45.4956" lon="6.95916">
        <ele>2641</ele>
        <time>2021-10-16T13:52:27Z</time>
      </trkpt>
      <trkpt lat="45.49549" lon="6.95912">
        <ele>2638</ele>
        <time>2021-10-16T13:52:41Z</time>
      </trkpt>
      <trkpt lat="45.49544" lon="6.95912">
        <ele>2637</ele>
        <time>2021-10-16T13:52:45Z</time>
      </trkpt>
      <trkpt lat="45.49541" lon="6.9591">
        <ele>2636</ele>
        <time>2021-10-16T13:52:48Z</time>
      </trkpt>
      <trkpt lat="45.49536" lon="6.95912">
        <ele>2635</ele>
        <time>2021-10-16T13:52:52Z</time>
      </trkpt>
      <trkpt lat="45.49531" lon="6.95906">
        <ele>2634</ele>
        <time>2021-10-16T13:52:59Z</time>
      </trkpt>
      <trkpt lat="45.49527" lon="6.95903">
        <ele>2633</ele>
        <time>2021-10-16T13:53:02Z</time>
      </trkpt>
      <trkpt lat="45.49523" lon="6.95897">
        <ele>2632</ele>
        <time>2021-10-16T13:53:06Z</time>
      </trkpt>
      <trkpt lat="45.49518" lon="6.95896">
        <ele>2632</ele>
        <time>2021-10-16T13:53:12Z</time>
      </trkpt>
      <trkpt lat="45.49513" lon="6.95897">
        <ele>2633</ele>
        <time>2021-10-16T13:53:16Z</time>
      </trkpt>
      <trkpt lat="45.49506" lon="6.95901">
        <ele>2633</ele>
        <time>2021-10-16T13:53:25Z</time>
      </trkpt>
      <trkpt lat="45.49502" lon="6.95907">
        <ele>2634</ele>
        <time>2021-10-16T13:53:43Z</time>
      </trkpt>
      <trkpt lat="45.49498" lon="6.95906">
        <ele>2631</ele>
        <time>2021-10-16T13:54:55Z</time>
      </trkpt>
      <trkpt lat="45.49487" lon="6.95908">
        <ele>2628</ele>
        <time>2021-10-16T13:56:19Z</time>
      </trkpt>
      <trkpt lat="45.49463" lon="6.95929">
        <ele>2622</ele>
        <time>2021-10-16T13:56:50Z</time>
      </trkpt>
      <trkpt lat="45.49454" lon="6.9594">
        <ele>2620</ele>
        <time>2021-10-16T13:57:00Z</time>
      </trkpt>
      <trkpt lat="45.49448" lon="6.9595">
        <ele>2619</ele>
        <time>2021-10-16T13:57:07Z</time>
      </trkpt>
      <trkpt lat="45.49446" lon="6.95953">
        <ele>2619</ele>
        <time>2021-10-16T13:57:11Z</time>
      </trkpt>
      <trkpt lat="45.49442" lon="6.95956">
        <ele>2619</ele>
        <time>2021-10-16T13:57:14Z</time>
      </trkpt>
      <trkpt lat="45.49438" lon="6.9596">
        <ele>2618</ele>
        <time>2021-10-16T13:57:21Z</time>
      </trkpt>
      <trkpt lat="45.49425" lon="6.95969">
        <ele>2615</ele>
        <time>2021-10-16T13:57:35Z</time>
      </trkpt>
      <trkpt lat="45.4942" lon="6.95971">
        <ele>2614</ele>
        <time>2021-10-16T13:57:42Z</time>
      </trkpt>
      <trkpt lat="45.49415" lon="6.95974">
        <ele>2613</ele>
        <time>2021-10-16T13:57:48Z</time>
      </trkpt>
      <trkpt lat="45.49411" lon="6.95979">
        <ele>2612</ele>
        <time>2021-10-16T13:57:53Z</time>
      </trkpt>
      <trkpt lat="45.49409" lon="6.95984">
        <ele>2612</ele>
        <time>2021-10-16T13:57:57Z</time>
      </trkpt>
      <trkpt lat="45.49404" lon="6.95988">
        <ele>2611</ele>
        <time>2021-10-16T13:58:04Z</time>
      </trkpt>
      <trkpt lat="45.49401" lon="6.95991">
        <ele>2611</ele>
        <time>2021-10-16T13:58:07Z</time>
      </trkpt>
      <trkpt lat="45.49397" lon="6.95991">
        <ele>2610</ele>
        <time>2021-10-16T13:58:11Z</time>
      </trkpt>
      <trkpt lat="45.49389" lon="6.95992">
        <ele>2609</ele>
        <time>2021-10-16T13:58:19Z</time>
      </trkpt>
      <trkpt lat="45.49381" lon="6.95994">
        <ele>2608</ele>
        <time>2021-10-16T13:58:25Z</time>
      </trkpt>
      <trkpt lat="45.49374" lon="6.96001">
        <ele>2607</ele>
        <time>2021-10-16T13:58:33Z</time>
      </trkpt>
      <trkpt lat="45.49371" lon="6.96006">
        <ele>2607</ele>
        <time>2021-10-16T13:58:36Z</time>
      </trkpt>
      <trkpt lat="45.49364" lon="6.96014">
        <ele>2606</ele>
        <time>2021-10-16T13:58:44Z</time>
      </trkpt>
      <trkpt lat="45.49359" lon="6.96017">
        <ele>2605</ele>
        <time>2021-10-16T13:58:52Z</time>
      </trkpt>
      <trkpt lat="45.49354" lon="6.96025">
        <ele>2604</ele>
        <time>2021-10-16T13:58:59Z</time>
      </trkpt>
      <trkpt lat="45.49351" lon="6.96028">
        <ele>2603</ele>
        <time>2021-10-16T13:59:03Z</time>
      </trkpt>
      <trkpt lat="45.49347" lon="6.9603">
        <ele>2603</ele>
        <time>2021-10-16T13:59:06Z</time>
      </trkpt>
      <trkpt lat="45.49343" lon="6.96033">
        <ele>2602</ele>
        <time>2021-10-16T13:59:12Z</time>
      </trkpt>
      <trkpt lat="45.49328" lon="6.96053">
        <ele>2598</ele>
        <time>2021-10-16T13:59:32Z</time>
      </trkpt>
      <trkpt lat="45.49327" lon="6.96058">
        <ele>2598</ele>
        <time>2021-10-16T13:59:34Z</time>
      </trkpt>
      <trkpt lat="45.49317" lon="6.9607">
        <ele>2596</ele>
        <time>2021-10-16T13:59:45Z</time>
      </trkpt>
      <trkpt lat="45.49311" lon="6.96079">
        <ele>2595</ele>
        <time>2021-10-16T13:59:52Z</time>
      </trkpt>
      <trkpt lat="45.49308" lon="6.96082">
        <ele>2595</ele>
        <time>2021-10-16T13:59:56Z</time>
      </trkpt>
      <trkpt lat="45.49296" lon="6.96084">
        <ele>2592</ele>
        <time>2021-10-16T14:00:08Z</time>
      </trkpt>
      <trkpt lat="45.49289" lon="6.96088">
        <ele>2591</ele>
        <time>2021-10-16T14:00:15Z</time>
      </trkpt>
      <trkpt lat="45.49285" lon="6.96089">
        <ele>2590</ele>
        <time>2021-10-16T14:00:19Z</time>
      </trkpt>
      <trkpt lat="45.49282" lon="6.96094">
        <ele>2589</ele>
        <time>2021-10-16T14:00:22Z</time>
      </trkpt>
      <trkpt lat="45.49277" lon="6.96096">
        <ele>2588</ele>
        <time>2021-10-16T14:00:28Z</time>
      </trkpt>
      <trkpt lat="45.49273" lon="6.96094">
        <ele>2587</ele>
        <time>2021-10-16T14:00:32Z</time>
      </trkpt>
      <trkpt lat="45.49268" lon="6.96094">
        <ele>2587</ele>
        <time>2021-10-16T14:00:36Z</time>
      </trkpt>
      <trkpt lat="45.49262" lon="6.96097">
        <ele>2586</ele>
        <time>2021-10-16T14:00:42Z</time>
      </trkpt>
      <trkpt lat="45.49259" lon="6.96099">
        <ele>2583</ele>
        <time>2021-10-16T14:00:51Z</time>
      </trkpt>
      <trkpt lat="45.49257" lon="6.96104">
        <ele>2582</ele>
        <time>2021-10-16T14:00:55Z</time>
      </trkpt>
      <trkpt lat="45.49249" lon="6.96104">
        <ele>2578</ele>
        <time>2021-10-16T14:01:06Z</time>
      </trkpt>
      <trkpt lat="45.49245" lon="6.96106">
        <ele>2577</ele>
        <time>2021-10-16T14:01:11Z</time>
      </trkpt>
      <trkpt lat="45.49238" lon="6.96114">
        <ele>2575</ele>
        <time>2021-10-16T14:01:20Z</time>
      </trkpt>
      <trkpt lat="45.49235" lon="6.96119">
        <ele>2572</ele>
        <time>2021-10-16T14:01:28Z</time>
      </trkpt>
      <trkpt lat="45.49228" lon="6.96124">
        <ele>2571</ele>
        <time>2021-10-16T14:01:35Z</time>
      </trkpt>
      <trkpt lat="45.49218" lon="6.96122">
        <ele>2569</ele>
        <time>2021-10-16T14:01:43Z</time>
      </trkpt>
      <trkpt lat="45.49215" lon="6.96123">
        <ele>2568</ele>
        <time>2021-10-16T14:01:46Z</time>
      </trkpt>
      <trkpt lat="45.49211" lon="6.96124">
        <ele>2568</ele>
        <time>2021-10-16T14:01:49Z</time>
      </trkpt>
      <trkpt lat="45.49205" lon="6.96134">
        <ele>2565</ele>
        <time>2021-10-16T14:02:00Z</time>
      </trkpt>
      <trkpt lat="45.49205" lon="6.96142">
        <ele>2563</ele>
        <time>2021-10-16T14:02:06Z</time>
      </trkpt>
      <trkpt lat="45.49201" lon="6.96152">
        <ele>2561</ele>
        <time>2021-10-16T14:02:13Z</time>
      </trkpt>
      <trkpt lat="45.49197" lon="6.96154">
        <ele>2560</ele>
        <time>2021-10-16T14:02:17Z</time>
      </trkpt>
      <trkpt lat="45.49194" lon="6.9616">
        <ele>2558</ele>
        <time>2021-10-16T14:02:24Z</time>
      </trkpt>
      <trkpt lat="45.49191" lon="6.96162">
        <ele>2557</ele>
        <time>2021-10-16T14:02:29Z</time>
      </trkpt>
      <trkpt lat="45.49187" lon="6.96174">
        <ele>2554</ele>
        <time>2021-10-16T14:02:41Z</time>
      </trkpt>
      <trkpt lat="45.49183" lon="6.96179">
        <ele>2550</ele>
        <time>2021-10-16T14:02:53Z</time>
      </trkpt>
      <trkpt lat="45.49174" lon="6.9617">
        <ele>2545</ele>
        <time>2021-10-16T14:03:11Z</time>
      </trkpt>
      <trkpt lat="45.49173" lon="6.96165">
        <ele>2544</ele>
        <time>2021-10-16T14:03:14Z</time>
      </trkpt>
      <trkpt lat="45.4916" lon="6.96163">
        <ele>2539</ele>
        <time>2021-10-16T14:03:30Z</time>
      </trkpt>
      <trkpt lat="45.4915" lon="6.96146">
        <ele>2534</ele>
        <time>2021-10-16T14:03:49Z</time>
      </trkpt>
      <trkpt lat="45.4915" lon="6.9614">
        <ele>2533</ele>
        <time>2021-10-16T14:03:53Z</time>
      </trkpt>
      <trkpt lat="45.49145" lon="6.96136">
        <ele>2530</ele>
        <time>2021-10-16T14:04:01Z</time>
      </trkpt>
      <trkpt lat="45.49141" lon="6.96132">
        <ele>2530</ele>
        <time>2021-10-16T14:04:04Z</time>
      </trkpt>
      <trkpt lat="45.49134" lon="6.96128">
        <ele>2529</ele>
        <time>2021-10-16T14:04:10Z</time>
      </trkpt>
      <trkpt lat="45.49122" lon="6.96117">
        <ele>2527</ele>
        <time>2021-10-16T14:04:20Z</time>
      </trkpt>
      <trkpt lat="45.49117" lon="6.96112">
        <ele>2526</ele>
        <time>2021-10-16T14:04:27Z</time>
      </trkpt>
      <trkpt lat="45.49094" lon="6.96115">
        <ele>2520</ele>
        <time>2021-10-16T14:04:49Z</time>
      </trkpt>
      <trkpt lat="45.4909" lon="6.96114">
        <ele>2520</ele>
        <time>2021-10-16T14:04:52Z</time>
      </trkpt>
      <trkpt lat="45.4908" lon="6.96124">
        <ele>2517</ele>
        <time>2021-10-16T14:05:04Z</time>
      </trkpt>
      <trkpt lat="45.49067" lon="6.96128">
        <ele>2513</ele>
        <time>2021-10-16T14:05:18Z</time>
      </trkpt>
      <trkpt lat="45.49062" lon="6.96133">
        <ele>2511</ele>
        <time>2021-10-16T14:05:25Z</time>
      </trkpt>
      <trkpt lat="45.49057" lon="6.96136">
        <ele>2510</ele>
        <time>2021-10-16T14:05:29Z</time>
      </trkpt>
      <trkpt lat="45.4905" lon="6.96139">
        <ele>2509</ele>
        <time>2021-10-16T14:05:35Z</time>
      </trkpt>
      <trkpt lat="45.49031" lon="6.96153">
        <ele>2505</ele>
        <time>2021-10-16T14:05:55Z</time>
      </trkpt>
      <trkpt lat="45.49025" lon="6.9617">
        <ele>2503</ele>
        <time>2021-10-16T14:06:06Z</time>
      </trkpt>
      <trkpt lat="45.49025" lon="6.96175">
        <ele>2503</ele>
        <time>2021-10-16T14:06:09Z</time>
      </trkpt>
      <trkpt lat="45.49022" lon="6.96181">
        <ele>2502</ele>
        <time>2021-10-16T14:06:13Z</time>
      </trkpt>
      <trkpt lat="45.49018" lon="6.96187">
        <ele>2499</ele>
        <time>2021-10-16T14:06:21Z</time>
      </trkpt>
      <trkpt lat="45.49016" lon="6.96193">
        <ele>2498</ele>
        <time>2021-10-16T14:06:25Z</time>
      </trkpt>
      <trkpt lat="45.49014" lon="6.96214">
        <ele>2495</ele>
        <time>2021-10-16T14:06:41Z</time>
      </trkpt>
      <trkpt lat="45.49017" lon="6.96234">
        <ele>2492</ele>
        <time>2021-10-16T14:06:54Z</time>
      </trkpt>
      <trkpt lat="45.49011" lon="6.96255">
        <ele>2489</ele>
        <time>2021-10-16T14:07:09Z</time>
      </trkpt>
      <trkpt lat="45.49011" lon="6.96279">
        <ele>2485</ele>
        <time>2021-10-16T14:07:27Z</time>
      </trkpt>
      <trkpt lat="45.4901" lon="6.96293">
        <ele>2482</ele>
        <time>2021-10-16T14:07:40Z</time>
      </trkpt>
      <trkpt lat="45.49012" lon="6.96298">
        <ele>2481</ele>
        <time>2021-10-16T14:07:45Z</time>
      </trkpt>
      <trkpt lat="45.49012" lon="6.96305">
        <ele>2480</ele>
        <time>2021-10-16T14:07:48Z</time>
      </trkpt>
      <trkpt lat="45.49015" lon="6.96309">
        <ele>2479</ele>
        <time>2021-10-16T14:07:51Z</time>
      </trkpt>
      <trkpt lat="45.4901" lon="6.96325">
        <ele>2477</ele>
        <time>2021-10-16T14:08:01Z</time>
      </trkpt>
      <trkpt lat="45.49008" lon="6.9633">
        <ele>2477</ele>
        <time>2021-10-16T14:08:05Z</time>
      </trkpt>
      <trkpt lat="45.49003" lon="6.96333">
        <ele>2476</ele>
        <time>2021-10-16T14:08:08Z</time>
      </trkpt>
      <trkpt lat="45.49" lon="6.9634">
        <ele>2475</ele>
        <time>2021-10-16T14:08:14Z</time>
      </trkpt>
      <trkpt lat="45.49" lon="6.96352">
        <ele>2473</ele>
        <time>2021-10-16T14:08:22Z</time>
      </trkpt>
      <trkpt lat="45.48997" lon="6.96368">
        <ele>2471</ele>
        <time>2021-10-16T14:08:33Z</time>
      </trkpt>
      <trkpt lat="45.48996" lon="6.9638">
        <ele>2468</ele>
        <time>2021-10-16T14:08:44Z</time>
      </trkpt>
      <trkpt lat="45.48998" lon="6.96389">
        <ele>2467</ele>
        <time>2021-10-16T14:08:50Z</time>
      </trkpt>
      <trkpt lat="45.49001" lon="6.96405">
        <ele>2464</ele>
        <time>2021-10-16T14:09:03Z</time>
      </trkpt>
      <trkpt lat="45.49005" lon="6.96411">
        <ele>2462</ele>
        <time>2021-10-16T14:09:10Z</time>
      </trkpt>
      <trkpt lat="45.49007" lon="6.96418">
        <ele>2460</ele>
        <time>2021-10-16T14:09:18Z</time>
      </trkpt>
      <trkpt lat="45.49007" lon="6.96425">
        <ele>2459</ele>
        <time>2021-10-16T14:09:22Z</time>
      </trkpt>
      <trkpt lat="45.49005" lon="6.96429">
        <ele>2458</ele>
        <time>2021-10-16T14:09:26Z</time>
      </trkpt>
      <trkpt lat="45.49001" lon="6.96449">
        <ele>2454</ele>
        <time>2021-10-16T14:09:42Z</time>
      </trkpt>
      <trkpt lat="45.49" lon="6.96454">
        <ele>2453</ele>
        <time>2021-10-16T14:09:45Z</time>
      </trkpt>
      <trkpt lat="45.49001" lon="6.9647">
        <ele>2450</ele>
        <time>2021-10-16T14:09:56Z</time>
      </trkpt>
      <trkpt lat="45.48991" lon="6.96495">
        <ele>2444</ele>
        <time>2021-10-16T14:10:21Z</time>
      </trkpt>
      <trkpt lat="45.48994" lon="6.96531">
        <ele>2435</ele>
        <time>2021-10-16T14:10:51Z</time>
      </trkpt>
      <trkpt lat="45.48993" lon="6.96544">
        <ele>2433</ele>
        <time>2021-10-16T14:11:01Z</time>
      </trkpt>
      <trkpt lat="45.4899" lon="6.96554">
        <ele>2431</ele>
        <time>2021-10-16T14:11:09Z</time>
      </trkpt>
      <trkpt lat="45.48983" lon="6.96547">
        <ele>2429</ele>
        <time>2021-10-16T14:11:19Z</time>
      </trkpt>
      <trkpt lat="45.4898" lon="6.96543">
        <ele>2426</ele>
        <time>2021-10-16T14:11:27Z</time>
      </trkpt>
      <trkpt lat="45.48976" lon="6.96544">
        <ele>2425</ele>
        <time>2021-10-16T14:11:31Z</time>
      </trkpt>
      <trkpt lat="45.48967" lon="6.96557">
        <ele>2419</ele>
        <time>2021-10-16T14:11:49Z</time>
      </trkpt>
      <trkpt lat="45.48964" lon="6.96559">
        <ele>2417</ele>
        <time>2021-10-16T14:11:55Z</time>
      </trkpt>
      <trkpt lat="45.48961" lon="6.96555">
        <ele>2415</ele>
        <time>2021-10-16T14:12:04Z</time>
      </trkpt>
      <trkpt lat="45.48957" lon="6.96554">
        <ele>2412</ele>
        <time>2021-10-16T14:12:10Z</time>
      </trkpt>
      <trkpt lat="45.4895" lon="6.96544">
        <ele>2408</ele>
        <time>2021-10-16T14:12:22Z</time>
      </trkpt>
      <trkpt lat="45.48947" lon="6.96541">
        <ele>2406</ele>
        <time>2021-10-16T14:12:26Z</time>
      </trkpt>
      <trkpt lat="45.48931" lon="6.96545">
        <ele>2399</ele>
        <time>2021-10-16T14:12:51Z</time>
      </trkpt>
      <trkpt lat="45.48928" lon="6.96548">
        <ele>2398</ele>
        <time>2021-10-16T14:12:57Z</time>
      </trkpt>
      <trkpt lat="45.48923" lon="6.96547">
        <ele>2396</ele>
        <time>2021-10-16T14:13:02Z</time>
      </trkpt>
      <trkpt lat="45.48919" lon="6.96549">
        <ele>2395</ele>
        <time>2021-10-16T14:13:06Z</time>
      </trkpt>
      <trkpt lat="45.48914" lon="6.96547">
        <ele>2391</ele>
        <time>2021-10-16T14:13:14Z</time>
      </trkpt>
      <trkpt lat="45.48903" lon="6.96546">
        <ele>2384</ele>
        <time>2021-10-16T14:13:37Z</time>
      </trkpt>
      <trkpt lat="45.48899" lon="6.96547">
        <ele>2383</ele>
        <time>2021-10-16T14:13:41Z</time>
      </trkpt>
      <trkpt lat="45.48896" lon="6.96551">
        <ele>2382</ele>
        <time>2021-10-16T14:13:44Z</time>
      </trkpt>
      <trkpt lat="45.48892" lon="6.96559">
        <ele>2380</ele>
        <time>2021-10-16T14:13:51Z</time>
      </trkpt>
      <trkpt lat="45.48891" lon="6.96569">
        <ele>2377</ele>
        <time>2021-10-16T14:14:01Z</time>
      </trkpt>
      <trkpt lat="45.48887" lon="6.96573">
        <ele>2376</ele>
        <time>2021-10-16T14:14:06Z</time>
      </trkpt>
      <trkpt lat="45.48883" lon="6.96576">
        <ele>2374</ele>
        <time>2021-10-16T14:14:14Z</time>
      </trkpt>
      <trkpt lat="45.4888" lon="6.9658">
        <ele>2372</ele>
        <time>2021-10-16T14:14:20Z</time>
      </trkpt>
      <trkpt lat="45.48871" lon="6.96585">
        <ele>2368</ele>
        <time>2021-10-16T14:14:34Z</time>
      </trkpt>
      <trkpt lat="45.48861" lon="6.96582">
        <ele>2363</ele>
        <time>2021-10-16T14:14:51Z</time>
      </trkpt>
      <trkpt lat="45.48851" lon="6.96586">
        <ele>2360</ele>
        <time>2021-10-16T14:15:04Z</time>
      </trkpt>
      <trkpt lat="45.48842" lon="6.96594">
        <ele>2355</ele>
        <time>2021-10-16T14:15:19Z</time>
      </trkpt>
      <trkpt lat="45.48841" lon="6.966">
        <ele>2353</ele>
        <time>2021-10-16T14:15:28Z</time>
      </trkpt>
      <trkpt lat="45.48826" lon="6.96615">
        <ele>2345</ele>
        <time>2021-10-16T14:15:56Z</time>
      </trkpt>
      <trkpt lat="45.4882" lon="6.96619">
        <ele>2342</ele>
        <time>2021-10-16T14:16:07Z</time>
      </trkpt>
      <trkpt lat="45.48816" lon="6.96626">
        <ele>2338</ele>
        <time>2021-10-16T14:16:20Z</time>
      </trkpt>
      <trkpt lat="45.48815" lon="6.96632">
        <ele>2336</ele>
        <time>2021-10-16T14:16:24Z</time>
      </trkpt>
      <trkpt lat="45.48812" lon="6.96637">
        <ele>2334</ele>
        <time>2021-10-16T14:16:31Z</time>
      </trkpt>
      <trkpt lat="45.48804" lon="6.96648">
        <ele>2330</ele>
        <time>2021-10-16T14:16:47Z</time>
      </trkpt>
      <trkpt lat="45.48789" lon="6.96662">
        <ele>2323</ele>
        <time>2021-10-16T14:17:10Z</time>
      </trkpt>
      <trkpt lat="45.48785" lon="6.96663">
        <ele>2322</ele>
        <time>2021-10-16T14:17:16Z</time>
      </trkpt>
      <trkpt lat="45.48781" lon="6.96665">
        <ele>2320</ele>
        <time>2021-10-16T14:17:21Z</time>
      </trkpt>
      <trkpt lat="45.48779" lon="6.96669">
        <ele>2319</ele>
        <time>2021-10-16T14:17:24Z</time>
      </trkpt>
      <trkpt lat="45.48754" lon="6.96688">
        <ele>2310</ele>
        <time>2021-10-16T14:17:56Z</time>
      </trkpt>
      <trkpt lat="45.48744" lon="6.96694">
        <ele>2307</ele>
        <time>2021-10-16T14:18:08Z</time>
      </trkpt>
      <trkpt lat="45.48726" lon="6.96709">
        <ele>2302</ele>
        <time>2021-10-16T14:18:28Z</time>
      </trkpt>
      <trkpt lat="45.48701" lon="6.96744">
        <ele>2293</ele>
        <time>2021-10-16T14:19:02Z</time>
      </trkpt>
      <trkpt lat="45.48698" lon="6.96747">
        <ele>2292</ele>
        <time>2021-10-16T14:19:05Z</time>
      </trkpt>
      <trkpt lat="45.48693" lon="6.96754">
        <ele>2291</ele>
        <time>2021-10-16T14:19:12Z</time>
      </trkpt>
      <trkpt lat="45.4869" lon="6.96757">
        <ele>2290</ele>
        <time>2021-10-16T14:19:15Z</time>
      </trkpt>
      <trkpt lat="45.48685" lon="6.96765">
        <ele>2289</ele>
        <time>2021-10-16T14:19:22Z</time>
      </trkpt>
      <trkpt lat="45.48674" lon="6.96776">
        <ele>2287</ele>
        <time>2021-10-16T14:19:32Z</time>
      </trkpt>
      <trkpt lat="45.48669" lon="6.96787">
        <ele>2285</ele>
        <time>2021-10-16T14:19:42Z</time>
      </trkpt>
      <trkpt lat="45.48666" lon="6.9679">
        <ele>2285</ele>
        <time>2021-10-16T14:19:45Z</time>
      </trkpt>
      <trkpt lat="45.48662" lon="6.96792">
        <ele>2285</ele>
        <time>2021-10-16T14:19:50Z</time>
      </trkpt>
      <trkpt lat="45.48657" lon="6.96796">
        <ele>2283</ele>
        <time>2021-10-16T14:22:07Z</time>
      </trkpt>
      <trkpt lat="45.4866" lon="6.968">
        <ele>2281</ele>
        <time>2021-10-16T14:29:30Z</time>
      </trkpt>
      <trkpt lat="45.48661" lon="6.96789">
        <ele>2281</ele>
        <time>2021-10-16T14:29:46Z</time>
      </trkpt>
      <trkpt lat="45.48657" lon="6.96783">
        <ele>2281</ele>
        <time>2021-10-16T14:29:48Z</time>
      </trkpt>
      <trkpt lat="45.48651" lon="6.96777">
        <ele>2281</ele>
        <time>2021-10-16T14:29:50Z</time>
      </trkpt>
      <trkpt lat="45.48609" lon="6.9673">
        <ele>2277</ele>
        <time>2021-10-16T14:30:05Z</time>
      </trkpt>
      <trkpt lat="45.48602" lon="6.96725">
        <ele>2276</ele>
        <time>2021-10-16T14:30:07Z</time>
      </trkpt>
      <trkpt lat="45.48584" lon="6.96727">
        <ele>2274</ele>
        <time>2021-10-16T14:30:11Z</time>
      </trkpt>
      <trkpt lat="45.48575" lon="6.96727">
        <ele>2274</ele>
        <time>2021-10-16T14:30:13Z</time>
      </trkpt>
      <trkpt lat="45.48567" lon="6.9672">
        <ele>2274</ele>
        <time>2021-10-16T14:30:15Z</time>
      </trkpt>
      <trkpt lat="45.48551" lon="6.96678">
        <ele>2273</ele>
        <time>2021-10-16T14:30:20Z</time>
      </trkpt>
      <trkpt lat="45.48547" lon="6.9667">
        <ele>2273</ele>
        <time>2021-10-16T14:30:21Z</time>
      </trkpt>
      <trkpt lat="45.48539" lon="6.96657">
        <ele>2272</ele>
        <time>2021-10-16T14:30:23Z</time>
      </trkpt>
      <trkpt lat="45.48529" lon="6.9665">
        <ele>2270</ele>
        <time>2021-10-16T14:30:25Z</time>
      </trkpt>
      <trkpt lat="45.48527" lon="6.96645">
        <ele>2267</ele>
        <time>2021-10-16T14:31:17Z</time>
      </trkpt>
      <trkpt lat="45.48533" lon="6.96642">
        <ele>2267</ele>
        <time>2021-10-16T14:31:22Z</time>
      </trkpt>
      <trkpt lat="45.48539" lon="6.96639">
        <ele>2266</ele>
        <time>2021-10-16T14:31:27Z</time>
      </trkpt>
      <trkpt lat="45.48541" lon="6.96649">
        <ele>2268</ele>
        <time>2021-10-16T14:31:56Z</time>
      </trkpt>
      <trkpt lat="45.48523" lon="6.96647">
        <ele>2266</ele>
        <time>2021-10-16T14:32:14Z</time>
      </trkpt>
      <trkpt lat="45.48497" lon="6.96657">
        <ele>2266</ele>
        <time>2021-10-16T14:32:19Z</time>
      </trkpt>
      <trkpt lat="45.48487" lon="6.96661">
        <ele>2265</ele>
        <time>2021-10-16T14:32:21Z</time>
      </trkpt>
      <trkpt lat="45.48481" lon="6.96659">
        <ele>2264</ele>
        <time>2021-10-16T14:32:22Z</time>
      </trkpt>
      <trkpt lat="45.48475" lon="6.96657">
        <ele>2264</ele>
        <time>2021-10-16T14:32:23Z</time>
      </trkpt>
      <trkpt lat="45.48468" lon="6.96656">
        <ele>2263</ele>
        <time>2021-10-16T14:32:24Z</time>
      </trkpt>
    </trkseg>
  </trk>
  <trk>
    <name><![CDATA[9 oct. 2021 à 14:20:18]]></name>
    <cmt><![CDATA[9 oct. 2021 à 14:20:18]]></cmt>
    <trkseg>
      <trkpt lat="45.63939" lon="6.20385">
        <ele>858</ele>
        <time>2021-10-09T12:20:47Z</time>
      </trkpt>
      <trkpt lat="45.63931" lon="6.20379">
        <ele>863</ele>
        <time>2021-10-09T12:20:58Z</time>
      </trkpt>
      <trkpt lat="45.63917" lon="6.2036">
        <ele>864</ele>
        <time>2021-10-09T12:21:08Z</time>
      </trkpt>
      <trkpt lat="45.63908" lon="6.20344">
        <ele>868</ele>
        <time>2021-10-09T12:21:14Z</time>
      </trkpt>
      <trkpt lat="45.63879" lon="6.20335">
        <ele>866</ele>
        <time>2021-10-09T12:21:31Z</time>
      </trkpt>
      <trkpt lat="45.63844" lon="6.20321">
        <ele>868</ele>
        <time>2021-10-09T12:21:38Z</time>
      </trkpt>
      <trkpt lat="45.6382" lon="6.20307">
        <ele>873</ele>
        <time>2021-10-09T12:21:53Z</time>
      </trkpt>
      <trkpt lat="45.63807" lon="6.20296">
        <ele>872</ele>
        <time>2021-10-09T12:22:03Z</time>
      </trkpt>
      <trkpt lat="45.63798" lon="6.2028">
        <ele>874</ele>
        <time>2021-10-09T12:22:19Z</time>
      </trkpt>
      <trkpt lat="45.63788" lon="6.20263">
        <ele>875</ele>
        <time>2021-10-09T12:22:28Z</time>
      </trkpt>
      <trkpt lat="45.63776" lon="6.20249">
        <ele>876</ele>
        <time>2021-10-09T12:22:38Z</time>
      </trkpt>
      <trkpt lat="45.63735" lon="6.2022">
        <ele>885</ele>
        <time>2021-10-09T12:23:14Z</time>
      </trkpt>
      <trkpt lat="45.63728" lon="6.202">
        <ele>884</ele>
        <time>2021-10-09T12:23:25Z</time>
      </trkpt>
      <trkpt lat="45.6372" lon="6.20182">
        <ele>889</ele>
        <time>2021-10-09T12:23:38Z</time>
      </trkpt>
      <trkpt lat="45.63714" lon="6.2016">
        <ele>891</ele>
        <time>2021-10-09T12:23:52Z</time>
      </trkpt>
      <trkpt lat="45.63708" lon="6.20142">
        <ele>891</ele>
        <time>2021-10-09T12:24:04Z</time>
      </trkpt>
      <trkpt lat="45.63697" lon="6.20128">
        <ele>895</ele>
        <time>2021-10-09T12:24:17Z</time>
      </trkpt>
      <trkpt lat="45.63683" lon="6.2012">
        <ele>895</ele>
        <time>2021-10-09T12:24:27Z</time>
      </trkpt>
      <trkpt lat="45.6367" lon="6.20107">
        <ele>898</ele>
        <time>2021-10-09T12:24:40Z</time>
      </trkpt>
      <trkpt lat="45.63659" lon="6.20091">
        <ele>898</ele>
        <time>2021-10-09T12:24:55Z</time>
      </trkpt>
      <trkpt lat="45.63647" lon="6.20079">
        <ele>903</ele>
        <time>2021-10-09T12:25:06Z</time>
      </trkpt>
      <trkpt lat="45.63641" lon="6.20058">
        <ele>904</ele>
        <time>2021-10-09T12:25:16Z</time>
      </trkpt>
      <trkpt lat="45.63637" lon="6.20038">
        <ele>902</ele>
        <time>2021-10-09T12:25:28Z</time>
      </trkpt>
      <trkpt lat="45.63635" lon="6.2005">
        <ele>911</ele>
        <time>2021-10-09T12:26:31Z</time>
      </trkpt>
      <trkpt lat="45.63629" lon="6.20075">
        <ele>916</ele>
        <time>2021-10-09T12:26:57Z</time>
      </trkpt>
      <trkpt lat="45.63624" lon="6.20108">
        <ele>922</ele>
        <time>2021-10-09T12:27:24Z</time>
      </trkpt>
      <trkpt lat="45.63639" lon="6.20149">
        <ele>925</ele>
        <time>2021-10-09T12:27:52Z</time>
      </trkpt>
      <trkpt lat="45.6366" lon="6.20179">
        <ele>925</ele>
        <time>2021-10-09T12:28:20Z</time>
      </trkpt>
      <trkpt lat="45.63677" lon="6.20252">
        <ele>938</ele>
        <time>2021-10-09T12:29:23Z</time>
      </trkpt>
      <trkpt lat="45.63691" lon="6.2033">
        <ele>951</ele>
        <time>2021-10-09T12:30:32Z</time>
      </trkpt>
      <trkpt lat="45.63692" lon="6.20394">
        <ele>959</ele>
        <time>2021-10-09T12:31:27Z</time>
      </trkpt>
      <trkpt lat="45.63671" lon="6.20378">
        <ele>978</ele>
        <time>2021-10-09T12:33:15Z</time>
      </trkpt>
      <trkpt lat="45.63662" lon="6.2036">
        <ele>980</ele>
        <time>2021-10-09T12:33:28Z</time>
      </trkpt>
      <trkpt lat="45.63638" lon="6.2033">
        <ele>983</ele>
        <time>2021-10-09T12:33:53Z</time>
      </trkpt>
      <trkpt lat="45.63635" lon="6.20323">
        <ele>985</ele>
        <time>2021-10-09T12:33:58Z</time>
      </trkpt>
      <trkpt lat="45.63632" lon="6.20316">
        <ele>985</ele>
        <time>2021-10-09T12:34:02Z</time>
      </trkpt>
      <trkpt lat="45.6362" lon="6.20304">
        <ele>987</ele>
        <time>2021-10-09T12:34:15Z</time>
      </trkpt>
      <trkpt lat="45.63616" lon="6.20294">
        <ele>988</ele>
        <time>2021-10-09T12:34:22Z</time>
      </trkpt>
      <trkpt lat="45.63593" lon="6.2026">
        <ele>993</ele>
        <time>2021-10-09T12:34:57Z</time>
      </trkpt>
      <trkpt lat="45.63586" lon="6.20255">
        <ele>995</ele>
        <time>2021-10-09T12:35:05Z</time>
      </trkpt>
      <trkpt lat="45.63556" lon="6.20204">
        <ele>1001</ele>
        <time>2021-10-09T12:35:39Z</time>
      </trkpt>
      <trkpt lat="45.63546" lon="6.20191">
        <ele>1002</ele>
        <time>2021-10-09T12:35:49Z</time>
      </trkpt>
      <trkpt lat="45.63533" lon="6.20179">
        <ele>1004</ele>
        <time>2021-10-09T12:36:00Z</time>
      </trkpt>
      <trkpt lat="45.63528" lon="6.20173">
        <ele>1005</ele>
        <time>2021-10-09T12:36:05Z</time>
      </trkpt>
      <trkpt lat="45.63493" lon="6.20159">
        <ele>1011</ele>
        <time>2021-10-09T12:36:37Z</time>
      </trkpt>
      <trkpt lat="45.63484" lon="6.2016">
        <ele>1013</ele>
        <time>2021-10-09T12:36:46Z</time>
      </trkpt>
      <trkpt lat="45.63487" lon="6.20166">
        <ele>1014</ele>
        <time>2021-10-09T12:36:56Z</time>
      </trkpt>
      <trkpt lat="45.63493" lon="6.20173">
        <ele>1015</ele>
        <time>2021-10-09T12:37:03Z</time>
      </trkpt>
      <trkpt lat="45.63507" lon="6.20182">
        <ele>1017</ele>
        <time>2021-10-09T12:37:20Z</time>
      </trkpt>
      <trkpt lat="45.63514" lon="6.2019">
        <ele>1019</ele>
        <time>2021-10-09T12:37:27Z</time>
      </trkpt>
      <trkpt lat="45.63521" lon="6.20197">
        <ele>1020</ele>
        <time>2021-10-09T12:37:32Z</time>
      </trkpt>
      <trkpt lat="45.63528" lon="6.20205">
        <ele>1021</ele>
        <time>2021-10-09T12:37:40Z</time>
      </trkpt>
      <trkpt lat="45.63534" lon="6.20213">
        <ele>1022</ele>
        <time>2021-10-09T12:37:47Z</time>
      </trkpt>
      <trkpt lat="45.63538" lon="6.20222">
        <ele>1023</ele>
        <time>2021-10-09T12:37:55Z</time>
      </trkpt>
      <trkpt lat="45.6354" lon="6.20233">
        <ele>1025</ele>
        <time>2021-10-09T12:38:01Z</time>
      </trkpt>
      <trkpt lat="45.63544" lon="6.20242">
        <ele>1025</ele>
        <time>2021-10-09T12:38:06Z</time>
      </trkpt>
      <trkpt lat="45.63538" lon="6.20299">
        <ele>1030</ele>
        <time>2021-10-09T12:38:36Z</time>
      </trkpt>
      <trkpt lat="45.6354" lon="6.2032">
        <ele>1032</ele>
        <time>2021-10-09T12:38:47Z</time>
      </trkpt>
      <trkpt lat="45.63546" lon="6.20338">
        <ele>1034</ele>
        <time>2021-10-09T12:39:00Z</time>
      </trkpt>
      <trkpt lat="45.63542" lon="6.20332">
        <ele>1042</ele>
        <time>2021-10-09T12:39:45Z</time>
      </trkpt>
      <trkpt lat="45.63533" lon="6.20315">
        <ele>1042</ele>
        <time>2021-10-09T12:39:58Z</time>
      </trkpt>
      <trkpt lat="45.6353" lon="6.20309">
        <ele>1045</ele>
        <time>2021-10-09T12:40:02Z</time>
      </trkpt>
      <trkpt lat="45.63526" lon="6.203">
        <ele>1045</ele>
        <time>2021-10-09T12:40:08Z</time>
      </trkpt>
      <trkpt lat="45.63523" lon="6.20293">
        <ele>1047</ele>
        <time>2021-10-09T12:40:13Z</time>
      </trkpt>
      <trkpt lat="45.6352" lon="6.20284">
        <ele>1047</ele>
        <time>2021-10-09T12:40:19Z</time>
      </trkpt>
      <trkpt lat="45.63514" lon="6.20276">
        <ele>1047</ele>
        <time>2021-10-09T12:40:26Z</time>
      </trkpt>
      <trkpt lat="45.6351" lon="6.20267">
        <ele>1048</ele>
        <time>2021-10-09T12:40:34Z</time>
      </trkpt>
      <trkpt lat="45.63494" lon="6.20248">
        <ele>1052</ele>
        <time>2021-10-09T12:40:54Z</time>
      </trkpt>
      <trkpt lat="45.63487" lon="6.20245">
        <ele>1053</ele>
        <time>2021-10-09T12:41:01Z</time>
      </trkpt>
      <trkpt lat="45.6348" lon="6.20245">
        <ele>1052</ele>
        <time>2021-10-09T12:41:05Z</time>
      </trkpt>
      <trkpt lat="45.63475" lon="6.20248">
        <ele>1054</ele>
        <time>2021-10-09T12:41:09Z</time>
      </trkpt>
      <trkpt lat="45.63469" lon="6.20247">
        <ele>1052</ele>
        <time>2021-10-09T12:41:13Z</time>
      </trkpt>
      <trkpt lat="45.63462" lon="6.20247">
        <ele>1053</ele>
        <time>2021-10-09T12:41:18Z</time>
      </trkpt>
      <trkpt lat="45.63456" lon="6.20249">
        <ele>1055</ele>
        <time>2021-10-09T12:41:23Z</time>
      </trkpt>
      <trkpt lat="45.63458" lon="6.20257">
        <ele>1056</ele>
        <time>2021-10-09T12:41:34Z</time>
      </trkpt>
      <trkpt lat="45.63492" lon="6.20295">
        <ele>1067</ele>
        <time>2021-10-09T12:42:30Z</time>
      </trkpt>
      <trkpt lat="45.63476" lon="6.20297">
        <ele>1071</ele>
        <time>2021-10-09T12:43:06Z</time>
      </trkpt>
      <trkpt lat="45.63466" lon="6.20313">
        <ele>1082</ele>
        <time>2021-10-09T12:43:55Z</time>
      </trkpt>
      <trkpt lat="45.63457" lon="6.20317">
        <ele>1086</ele>
        <time>2021-10-09T12:44:13Z</time>
      </trkpt>
      <trkpt lat="45.63476" lon="6.20338">
        <ele>1091</ele>
        <time>2021-10-09T12:44:44Z</time>
      </trkpt>
      <trkpt lat="45.6347" lon="6.20349">
        <ele>1098</ele>
        <time>2021-10-09T12:45:10Z</time>
      </trkpt>
      <trkpt lat="45.63465" lon="6.20359">
        <ele>1100</ele>
        <time>2021-10-09T12:45:22Z</time>
      </trkpt>
      <trkpt lat="45.63458" lon="6.20363">
        <ele>1101</ele>
        <time>2021-10-09T12:45:30Z</time>
      </trkpt>
      <trkpt lat="45.63449" lon="6.20363">
        <ele>1104</ele>
        <time>2021-10-09T12:45:44Z</time>
      </trkpt>
      <trkpt lat="45.63438" lon="6.20367">
        <ele>1107</ele>
        <time>2021-10-09T12:45:57Z</time>
      </trkpt>
      <trkpt lat="45.6343" lon="6.20373">
        <ele>1108</ele>
        <time>2021-10-09T12:46:10Z</time>
      </trkpt>
      <trkpt lat="45.63424" lon="6.20395">
        <ele>1111</ele>
        <time>2021-10-09T12:46:29Z</time>
      </trkpt>
      <trkpt lat="45.63442" lon="6.20399">
        <ele>1116</ele>
        <time>2021-10-09T12:46:48Z</time>
      </trkpt>
      <trkpt lat="45.63457" lon="6.2041">
        <ele>1121</ele>
        <time>2021-10-09T12:47:14Z</time>
      </trkpt>
      <trkpt lat="45.63452" lon="6.20422">
        <ele>1136</ele>
        <time>2021-10-09T12:48:28Z</time>
      </trkpt>
      <trkpt lat="45.63444" lon="6.20448">
        <ele>1145</ele>
        <time>2021-10-09T12:49:13Z</time>
      </trkpt>
      <trkpt lat="45.63433" lon="6.20467">
        <ele>1149</ele>
        <time>2021-10-09T12:49:38Z</time>
      </trkpt>
      <trkpt lat="45.63417" lon="6.20491">
        <ele>1153</ele>
        <time>2021-10-09T12:50:08Z</time>
      </trkpt>
      <trkpt lat="45.63432" lon="6.20494">
        <ele>1157</ele>
        <time>2021-10-09T12:50:25Z</time>
      </trkpt>
      <trkpt lat="45.63448" lon="6.20496">
        <ele>1165</ele>
        <time>2021-10-09T12:50:56Z</time>
      </trkpt>
      <trkpt lat="45.63465" lon="6.20507">
        <ele>1170</ele>
        <time>2021-10-09T12:51:29Z</time>
      </trkpt>
      <trkpt lat="45.6345" lon="6.20522">
        <ele>1179</ele>
        <time>2021-10-09T12:52:22Z</time>
      </trkpt>
      <trkpt lat="45.63451" lon="6.20539">
        <ele>1186</ele>
        <time>2021-10-09T12:53:14Z</time>
      </trkpt>
      <trkpt lat="45.63462" lon="6.20555">
        <ele>1189</ele>
        <time>2021-10-09T12:53:26Z</time>
      </trkpt>
      <trkpt lat="45.6347" lon="6.20573">
        <ele>1193</ele>
        <time>2021-10-09T12:53:48Z</time>
      </trkpt>
      <trkpt lat="45.6348" lon="6.20589">
        <ele>1195</ele>
        <time>2021-10-09T12:54:03Z</time>
      </trkpt>
      <trkpt lat="45.63487" lon="6.2063">
        <ele>1201</ele>
        <time>2021-10-09T12:54:38Z</time>
      </trkpt>
      <trkpt lat="45.63492" lon="6.20693">
        <ele>1207</ele>
        <time>2021-10-09T12:55:16Z</time>
      </trkpt>
      <trkpt lat="45.63482" lon="6.20693">
        <ele>1217</ele>
        <time>2021-10-09T12:56:13Z</time>
      </trkpt>
      <trkpt lat="45.63474" lon="6.20699">
        <ele>1227</ele>
        <time>2021-10-09T12:57:04Z</time>
      </trkpt>
      <trkpt lat="45.63464" lon="6.20698">
        <ele>1231</ele>
        <time>2021-10-09T12:57:18Z</time>
      </trkpt>
      <trkpt lat="45.63456" lon="6.20698">
        <ele>1232</ele>
        <time>2021-10-09T12:57:27Z</time>
      </trkpt>
      <trkpt lat="45.6345" lon="6.20701">
        <ele>1233</ele>
        <time>2021-10-09T12:57:33Z</time>
      </trkpt>
      <trkpt lat="45.63442" lon="6.20703">
        <ele>1235</ele>
        <time>2021-10-09T12:57:40Z</time>
      </trkpt>
      <trkpt lat="45.63446" lon="6.20713">
        <ele>1236</ele>
        <time>2021-10-09T12:57:55Z</time>
      </trkpt>
      <trkpt lat="45.63455" lon="6.20739">
        <ele>1242</ele>
        <time>2021-10-09T12:58:19Z</time>
      </trkpt>
      <trkpt lat="45.63444" lon="6.20743">
        <ele>1250</ele>
        <time>2021-10-09T12:59:06Z</time>
      </trkpt>
      <trkpt lat="45.63436" lon="6.20756">
        <ele>1256</ele>
        <time>2021-10-09T12:59:36Z</time>
      </trkpt>
      <trkpt lat="45.63434" lon="6.20767">
        <ele>1261</ele>
        <time>2021-10-09T12:59:54Z</time>
      </trkpt>
      <trkpt lat="45.63428" lon="6.20774">
        <ele>1264</ele>
        <time>2021-10-09T13:00:12Z</time>
      </trkpt>
      <trkpt lat="45.6342" lon="6.20807">
        <ele>1271</ele>
        <time>2021-10-09T13:00:43Z</time>
      </trkpt>
      <trkpt lat="45.63418" lon="6.20814">
        <ele>1270</ele>
        <time>2021-10-09T13:00:48Z</time>
      </trkpt>
      <trkpt lat="45.63417" lon="6.20827">
        <ele>1273</ele>
        <time>2021-10-09T13:00:57Z</time>
      </trkpt>
      <trkpt lat="45.63416" lon="6.20838">
        <ele>1273</ele>
        <time>2021-10-09T13:01:05Z</time>
      </trkpt>
      <trkpt lat="45.63414" lon="6.20848">
        <ele>1275</ele>
        <time>2021-10-09T13:01:14Z</time>
      </trkpt>
      <trkpt lat="45.63413" lon="6.20857">
        <ele>1275</ele>
        <time>2021-10-09T13:01:19Z</time>
      </trkpt>
      <trkpt lat="45.6341" lon="6.20863">
        <ele>1277</ele>
        <time>2021-10-09T13:01:24Z</time>
      </trkpt>
      <trkpt lat="45.63407" lon="6.20871">
        <ele>1277</ele>
        <time>2021-10-09T13:01:28Z</time>
      </trkpt>
      <trkpt lat="45.63403" lon="6.20876">
        <ele>1278</ele>
        <time>2021-10-09T13:01:33Z</time>
      </trkpt>
      <trkpt lat="45.634" lon="6.20884">
        <ele>1280</ele>
        <time>2021-10-09T13:01:41Z</time>
      </trkpt>
      <trkpt lat="45.63406" lon="6.20885">
        <ele>1281</ele>
        <time>2021-10-09T13:01:48Z</time>
      </trkpt>
      <trkpt lat="45.63414" lon="6.20891">
        <ele>1282</ele>
        <time>2021-10-09T13:01:57Z</time>
      </trkpt>
      <trkpt lat="45.63422" lon="6.20894">
        <ele>1286</ele>
        <time>2021-10-09T13:02:07Z</time>
      </trkpt>
      <trkpt lat="45.63429" lon="6.20891">
        <ele>1286</ele>
        <time>2021-10-09T13:02:16Z</time>
      </trkpt>
      <trkpt lat="45.63435" lon="6.20889">
        <ele>1289</ele>
        <time>2021-10-09T13:02:22Z</time>
      </trkpt>
      <trkpt lat="45.63438" lon="6.20893">
        <ele>1293</ele>
        <time>2021-10-09T13:02:40Z</time>
      </trkpt>
      <trkpt lat="45.63434" lon="6.20904">
        <ele>1295</ele>
        <time>2021-10-09T13:02:52Z</time>
      </trkpt>
      <trkpt lat="45.63428" lon="6.2091">
        <ele>1298</ele>
        <time>2021-10-09T13:03:04Z</time>
      </trkpt>
      <trkpt lat="45.63425" lon="6.2092">
        <ele>1301</ele>
        <time>2021-10-09T13:03:17Z</time>
      </trkpt>
      <trkpt lat="45.63424" lon="6.2093">
        <ele>1304</ele>
        <time>2021-10-09T13:03:33Z</time>
      </trkpt>
      <trkpt lat="45.63433" lon="6.20937">
        <ele>1307</ele>
        <time>2021-10-09T13:03:47Z</time>
      </trkpt>
      <trkpt lat="45.63434" lon="6.20959">
        <ele>1317</ele>
        <time>2021-10-09T13:04:36Z</time>
      </trkpt>
      <trkpt lat="45.63433" lon="6.20973">
        <ele>1323</ele>
        <time>2021-10-09T13:05:06Z</time>
      </trkpt>
      <trkpt lat="45.63411" lon="6.20993">
        <ele>1328</ele>
        <time>2021-10-09T13:05:38Z</time>
      </trkpt>
      <trkpt lat="45.63414" lon="6.21002">
        <ele>1331</ele>
        <time>2021-10-09T13:05:47Z</time>
      </trkpt>
      <trkpt lat="45.63421" lon="6.21009">
        <ele>1334</ele>
        <time>2021-10-09T13:05:54Z</time>
      </trkpt>
      <trkpt lat="45.63428" lon="6.21009">
        <ele>1333</ele>
        <time>2021-10-09T13:06:01Z</time>
      </trkpt>
      <trkpt lat="45.63447" lon="6.21014">
        <ele>1338</ele>
        <time>2021-10-09T13:06:23Z</time>
      </trkpt>
      <trkpt lat="45.63455" lon="6.2103">
        <ele>1343</ele>
        <time>2021-10-09T13:06:55Z</time>
      </trkpt>
      <trkpt lat="45.63426" lon="6.21052">
        <ele>1354</ele>
        <time>2021-10-09T13:07:43Z</time>
      </trkpt>
      <trkpt lat="45.6342" lon="6.21072">
        <ele>1359</ele>
        <time>2021-10-09T13:08:02Z</time>
      </trkpt>
      <trkpt lat="45.63406" lon="6.21081">
        <ele>1363</ele>
        <time>2021-10-09T13:08:27Z</time>
      </trkpt>
      <trkpt lat="45.6343" lon="6.21107">
        <ele>1377</ele>
        <time>2021-10-09T13:09:45Z</time>
      </trkpt>
      <trkpt lat="45.63406" lon="6.21135">
        <ele>1390</ele>
        <time>2021-10-09T13:10:46Z</time>
      </trkpt>
      <trkpt lat="45.63444" lon="6.21153">
        <ele>1399</ele>
        <time>2021-10-09T13:11:38Z</time>
      </trkpt>
      <trkpt lat="45.63421" lon="6.21186">
        <ele>1412</ele>
        <time>2021-10-09T13:12:45Z</time>
      </trkpt>
      <trkpt lat="45.63444" lon="6.21211">
        <ele>1421</ele>
        <time>2021-10-09T13:13:34Z</time>
      </trkpt>
      <trkpt lat="45.63427" lon="6.21227">
        <ele>1428</ele>
        <time>2021-10-09T13:14:08Z</time>
      </trkpt>
      <trkpt lat="45.63413" lon="6.21236">
        <ele>1432</ele>
        <time>2021-10-09T13:14:33Z</time>
      </trkpt>
      <trkpt lat="45.63398" lon="6.21287">
        <ele>1439</ele>
        <time>2021-10-09T13:15:16Z</time>
      </trkpt>
      <trkpt lat="45.63389" lon="6.21324">
        <ele>1447</ele>
        <time>2021-10-09T13:15:48Z</time>
      </trkpt>
      <trkpt lat="45.63409" lon="6.21335">
        <ele>1453</ele>
        <time>2021-10-09T13:16:22Z</time>
      </trkpt>
      <trkpt lat="45.63423" lon="6.21331">
        <ele>1457</ele>
        <time>2021-10-09T13:16:37Z</time>
      </trkpt>
      <trkpt lat="45.6342" lon="6.21355">
        <ele>1471</ele>
        <time>2021-10-09T13:17:53Z</time>
      </trkpt>
      <trkpt lat="45.63412" lon="6.21373">
        <ele>1473</ele>
        <time>2021-10-09T13:18:15Z</time>
      </trkpt>
      <trkpt lat="45.63399" lon="6.21419">
        <ele>1483</ele>
        <time>2021-10-09T13:18:59Z</time>
      </trkpt>
      <trkpt lat="45.63392" lon="6.21441">
        <ele>1488</ele>
        <time>2021-10-09T13:19:30Z</time>
      </trkpt>
      <trkpt lat="45.63384" lon="6.2146">
        <ele>1493</ele>
        <time>2021-10-09T13:19:54Z</time>
      </trkpt>
      <trkpt lat="45.63395" lon="6.21471">
        <ele>1503</ele>
        <time>2021-10-09T13:20:46Z</time>
      </trkpt>
      <trkpt lat="45.63408" lon="6.21471">
        <ele>1506</ele>
        <time>2021-10-09T13:21:05Z</time>
      </trkpt>
      <trkpt lat="45.63424" lon="6.21487">
        <ele>1512</ele>
        <time>2021-10-09T13:21:40Z</time>
      </trkpt>
      <trkpt lat="45.6342" lon="6.21511">
        <ele>1517</ele>
        <time>2021-10-09T13:22:04Z</time>
      </trkpt>
      <trkpt lat="45.634" lon="6.21511">
        <ele>1523</ele>
        <time>2021-10-09T13:22:42Z</time>
      </trkpt>
      <trkpt lat="45.63381" lon="6.21543">
        <ele>1529</ele>
        <time>2021-10-09T13:23:23Z</time>
      </trkpt>
      <trkpt lat="45.63369" lon="6.21553">
        <ele>1532</ele>
        <time>2021-10-09T13:23:38Z</time>
      </trkpt>
      <trkpt lat="45.63383" lon="6.21567">
        <ele>1539</ele>
        <time>2021-10-09T13:24:15Z</time>
      </trkpt>
      <trkpt lat="45.63386" lon="6.21585">
        <ele>1547</ele>
        <time>2021-10-09T13:24:54Z</time>
      </trkpt>
      <trkpt lat="45.63367" lon="6.21586">
        <ele>1551</ele>
        <time>2021-10-09T13:25:21Z</time>
      </trkpt>
      <trkpt lat="45.6335" lon="6.21604">
        <ele>1558</ele>
        <time>2021-10-09T13:25:53Z</time>
      </trkpt>
      <trkpt lat="45.63335" lon="6.21613">
        <ele>1558</ele>
        <time>2021-10-09T13:26:08Z</time>
      </trkpt>
      <trkpt lat="45.63306" lon="6.21623">
        <ele>1566</ele>
        <time>2021-10-09T13:26:43Z</time>
      </trkpt>
      <trkpt lat="45.63296" lon="6.21639">
        <ele>1570</ele>
        <time>2021-10-09T13:27:06Z</time>
      </trkpt>
      <trkpt lat="45.63284" lon="6.21679">
        <ele>1578</ele>
        <time>2021-10-09T13:27:51Z</time>
      </trkpt>
      <trkpt lat="45.63284" lon="6.21707">
        <ele>1585</ele>
        <time>2021-10-09T13:28:22Z</time>
      </trkpt>
      <trkpt lat="45.63302" lon="6.21697">
        <ele>1594</ele>
        <time>2021-10-09T13:29:09Z</time>
      </trkpt>
      <trkpt lat="45.63316" lon="6.217">
        <ele>1601</ele>
        <time>2021-10-09T13:29:41Z</time>
      </trkpt>
      <trkpt lat="45.63328" lon="6.21712">
        <ele>1610</ele>
        <time>2021-10-09T13:30:26Z</time>
      </trkpt>
      <trkpt lat="45.63337" lon="6.21726">
        <ele>1618</ele>
        <time>2021-10-09T13:30:57Z</time>
      </trkpt>
      <trkpt lat="45.63342" lon="6.21731">
        <ele>1619</ele>
        <time>2021-10-09T13:31:15Z</time>
      </trkpt>
      <trkpt lat="45.63349" lon="6.21737">
        <ele>1624</ele>
        <time>2021-10-09T13:31:33Z</time>
      </trkpt>
      <trkpt lat="45.63354" lon="6.21736">
        <ele>1629</ele>
        <time>2021-10-09T13:31:50Z</time>
      </trkpt>
      <trkpt lat="45.63354" lon="6.21743">
        <ele>1629</ele>
        <time>2021-10-09T13:32:00Z</time>
      </trkpt>
      <trkpt lat="45.63352" lon="6.21748">
        <ele>1630</ele>
        <time>2021-10-09T13:32:06Z</time>
      </trkpt>
      <trkpt lat="45.63346" lon="6.21751">
        <ele>1631</ele>
        <time>2021-10-09T13:32:13Z</time>
      </trkpt>
      <trkpt lat="45.63343" lon="6.21759">
        <ele>1633</ele>
        <time>2021-10-09T13:32:22Z</time>
      </trkpt>
      <trkpt lat="45.63342" lon="6.21767">
        <ele>1634</ele>
        <time>2021-10-09T13:32:31Z</time>
      </trkpt>
      <trkpt lat="45.6334" lon="6.21776">
        <ele>1635</ele>
        <time>2021-10-09T13:32:43Z</time>
      </trkpt>
      <trkpt lat="45.63338" lon="6.21782">
        <ele>1637</ele>
        <time>2021-10-09T13:32:49Z</time>
      </trkpt>
      <trkpt lat="45.63339" lon="6.2179">
        <ele>1638</ele>
        <time>2021-10-09T13:32:56Z</time>
      </trkpt>
      <trkpt lat="45.63338" lon="6.21796">
        <ele>1638</ele>
        <time>2021-10-09T13:33:02Z</time>
      </trkpt>
      <trkpt lat="45.63338" lon="6.21802">
        <ele>1640</ele>
        <time>2021-10-09T13:33:06Z</time>
      </trkpt>
      <trkpt lat="45.63334" lon="6.21815">
        <ele>1643</ele>
        <time>2021-10-09T13:33:20Z</time>
      </trkpt>
      <trkpt lat="45.63336" lon="6.21823">
        <ele>1643</ele>
        <time>2021-10-09T13:33:28Z</time>
      </trkpt>
      <trkpt lat="45.63333" lon="6.21832">
        <ele>1645</ele>
        <time>2021-10-09T13:33:38Z</time>
      </trkpt>
      <trkpt lat="45.63334" lon="6.21842">
        <ele>1649</ele>
        <time>2021-10-09T13:33:52Z</time>
      </trkpt>
      <trkpt lat="45.63335" lon="6.21855">
        <ele>1653</ele>
        <time>2021-10-09T13:34:09Z</time>
      </trkpt>
      <trkpt lat="45.63336" lon="6.21865">
        <ele>1660</ele>
        <time>2021-10-09T13:34:35Z</time>
      </trkpt>
      <trkpt lat="45.63338" lon="6.21876">
        <ele>1659</ele>
        <time>2021-10-09T13:34:48Z</time>
      </trkpt>
      <trkpt lat="45.6334" lon="6.21884">
        <ele>1666</ele>
        <time>2021-10-09T13:35:12Z</time>
      </trkpt>
      <trkpt lat="45.63345" lon="6.21894">
        <ele>1672</ele>
        <time>2021-10-09T13:35:43Z</time>
      </trkpt>
      <trkpt lat="45.63345" lon="6.21905">
        <ele>1676</ele>
        <time>2021-10-09T13:36:07Z</time>
      </trkpt>
      <trkpt lat="45.63346" lon="6.21913">
        <ele>1682</ele>
        <time>2021-10-09T13:36:37Z</time>
      </trkpt>
      <trkpt lat="45.63349" lon="6.21923">
        <ele>1683</ele>
        <time>2021-10-09T13:36:49Z</time>
      </trkpt>
      <trkpt lat="45.63357" lon="6.21924">
        <ele>1687</ele>
        <time>2021-10-09T13:37:07Z</time>
      </trkpt>
      <trkpt lat="45.6336" lon="6.2193">
        <ele>1697</ele>
        <time>2021-10-09T13:37:49Z</time>
      </trkpt>
      <trkpt lat="45.63358" lon="6.2194">
        <ele>1701</ele>
        <time>2021-10-09T13:38:07Z</time>
      </trkpt>
      <trkpt lat="45.63361" lon="6.21943">
        <ele>1703</ele>
        <time>2021-10-09T13:38:31Z</time>
      </trkpt>
      <trkpt lat="45.63358" lon="6.21947">
        <ele>1705</ele>
        <time>2021-10-09T13:38:38Z</time>
      </trkpt>
      <trkpt lat="45.63356" lon="6.21953">
        <ele>1706</ele>
        <time>2021-10-09T13:38:45Z</time>
      </trkpt>
      <trkpt lat="45.63354" lon="6.21962">
        <ele>1705</ele>
        <time>2021-10-09T13:38:56Z</time>
      </trkpt>
      <trkpt lat="45.63354" lon="6.21968">
        <ele>1712</ele>
        <time>2021-10-09T13:39:06Z</time>
      </trkpt>
      <trkpt lat="45.63353" lon="6.21974">
        <ele>1710</ele>
        <time>2021-10-09T13:39:17Z</time>
      </trkpt>
      <trkpt lat="45.63349" lon="6.21987">
        <ele>1714</ele>
        <time>2021-10-09T13:39:32Z</time>
      </trkpt>
      <trkpt lat="45.6335" lon="6.21996">
        <ele>1715</ele>
        <time>2021-10-09T13:39:43Z</time>
      </trkpt>
      <trkpt lat="45.6335" lon="6.22002">
        <ele>1719</ele>
        <time>2021-10-09T13:40:01Z</time>
      </trkpt>
      <trkpt lat="45.63349" lon="6.22013">
        <ele>1723</ele>
        <time>2021-10-09T13:40:19Z</time>
      </trkpt>
      <trkpt lat="45.63353" lon="6.22021">
        <ele>1725</ele>
        <time>2021-10-09T13:40:36Z</time>
      </trkpt>
      <trkpt lat="45.63349" lon="6.22028">
        <ele>1732</ele>
        <time>2021-10-09T13:41:00Z</time>
      </trkpt>
      <trkpt lat="45.63348" lon="6.22036">
        <ele>1733</ele>
        <time>2021-10-09T13:41:12Z</time>
      </trkpt>
      <trkpt lat="45.63343" lon="6.22052">
        <ele>1737</ele>
        <time>2021-10-09T13:41:36Z</time>
      </trkpt>
      <trkpt lat="45.63341" lon="6.22057">
        <ele>1737</ele>
        <time>2021-10-09T13:41:44Z</time>
      </trkpt>
      <trkpt lat="45.6333" lon="6.22081">
        <ele>1743</ele>
        <time>2021-10-09T13:42:14Z</time>
      </trkpt>
      <trkpt lat="45.63328" lon="6.22086">
        <ele>1744</ele>
        <time>2021-10-09T13:42:27Z</time>
      </trkpt>
      <trkpt lat="45.63324" lon="6.22096">
        <ele>1750</ele>
        <time>2021-10-09T13:42:51Z</time>
      </trkpt>
      <trkpt lat="45.63326" lon="6.22103">
        <ele>1754</ele>
        <time>2021-10-09T13:43:09Z</time>
      </trkpt>
      <trkpt lat="45.63324" lon="6.2211">
        <ele>1758</ele>
        <time>2021-10-09T13:43:27Z</time>
      </trkpt>
      <trkpt lat="45.63319" lon="6.22114">
        <ele>1764</ele>
        <time>2021-10-09T13:43:56Z</time>
      </trkpt>
      <trkpt lat="45.6332" lon="6.22122">
        <ele>1765</ele>
        <time>2021-10-09T13:44:08Z</time>
      </trkpt>
      <trkpt lat="45.63316" lon="6.22124">
        <ele>1767</ele>
        <time>2021-10-09T13:44:20Z</time>
      </trkpt>
      <trkpt lat="45.63314" lon="6.2213">
        <ele>1774</ele>
        <time>2021-10-09T13:44:44Z</time>
      </trkpt>
      <trkpt lat="45.63311" lon="6.22137">
        <ele>1775</ele>
        <time>2021-10-09T13:45:08Z</time>
      </trkpt>
      <trkpt lat="45.63307" lon="6.22147">
        <ele>1780</ele>
        <time>2021-10-09T13:45:37Z</time>
      </trkpt>
      <trkpt lat="45.63307" lon="6.22153">
        <ele>1782</ele>
        <time>2021-10-09T13:45:55Z</time>
      </trkpt>
      <trkpt lat="45.63307" lon="6.2216">
        <ele>1785</ele>
        <time>2021-10-09T13:46:11Z</time>
      </trkpt>
      <trkpt lat="45.63303" lon="6.22167">
        <ele>1789</ele>
        <time>2021-10-09T13:46:37Z</time>
      </trkpt>
      <trkpt lat="45.63293" lon="6.22171">
        <ele>1791</ele>
        <time>2021-10-09T13:46:55Z</time>
      </trkpt>
      <trkpt lat="45.63289" lon="6.22173">
        <ele>1795</ele>
        <time>2021-10-09T13:47:06Z</time>
      </trkpt>
      <trkpt lat="45.63284" lon="6.22183">
        <ele>1797</ele>
        <time>2021-10-09T13:47:24Z</time>
      </trkpt>
      <trkpt lat="45.63287" lon="6.22192">
        <ele>1802</ele>
        <time>2021-10-09T13:48:00Z</time>
      </trkpt>
      <trkpt lat="45.6328" lon="6.222">
        <ele>1807</ele>
        <time>2021-10-09T13:48:12Z</time>
      </trkpt>
      <trkpt lat="45.63283" lon="6.22208">
        <ele>1812</ele>
        <time>2021-10-09T13:48:36Z</time>
      </trkpt>
      <trkpt lat="45.63282" lon="6.22214">
        <ele>1823</ele>
        <time>2021-10-09T13:49:42Z</time>
      </trkpt>
      <trkpt lat="45.63278" lon="6.22224">
        <ele>1826</ele>
        <time>2021-10-09T13:50:01Z</time>
      </trkpt>
      <trkpt lat="45.63271" lon="6.22226">
        <ele>1829</ele>
        <time>2021-10-09T13:50:14Z</time>
      </trkpt>
      <trkpt lat="45.63268" lon="6.22231">
        <ele>1831</ele>
        <time>2021-10-09T13:50:26Z</time>
      </trkpt>
      <trkpt lat="45.63263" lon="6.22234">
        <ele>1835</ele>
        <time>2021-10-09T13:50:50Z</time>
      </trkpt>
      <trkpt lat="45.63259" lon="6.2224">
        <ele>1836</ele>
        <time>2021-10-09T13:51:14Z</time>
      </trkpt>
      <trkpt lat="45.63259" lon="6.22246">
        <ele>1841</ele>
        <time>2021-10-09T13:51:26Z</time>
      </trkpt>
      <trkpt lat="45.63256" lon="6.22252">
        <ele>1845</ele>
        <time>2021-10-09T13:51:44Z</time>
      </trkpt>
      <trkpt lat="45.63254" lon="6.22262">
        <ele>1848</ele>
        <time>2021-10-09T13:52:08Z</time>
      </trkpt>
      <trkpt lat="45.63249" lon="6.22269">
        <ele>1850</ele>
        <time>2021-10-09T13:52:26Z</time>
      </trkpt>
      <trkpt lat="45.63239" lon="6.22266">
        <ele>1854</ele>
        <time>2021-10-09T13:52:44Z</time>
      </trkpt>
      <trkpt lat="45.63236" lon="6.22266">
        <ele>1857</ele>
        <time>2021-10-09T13:52:56Z</time>
      </trkpt>
      <trkpt lat="45.63231" lon="6.22269">
        <ele>1858</ele>
        <time>2021-10-09T13:53:07Z</time>
      </trkpt>
      <trkpt lat="45.63231" lon="6.22277">
        <ele>1864</ele>
        <time>2021-10-09T13:53:37Z</time>
      </trkpt>
      <trkpt lat="45.63235" lon="6.22283">
        <ele>1868</ele>
        <time>2021-10-09T13:53:59Z</time>
      </trkpt>
      <trkpt lat="45.6323" lon="6.22285">
        <ele>1869</ele>
        <time>2021-10-09T13:54:17Z</time>
      </trkpt>
      <trkpt lat="45.6323" lon="6.22292">
        <ele>1879</ele>
        <time>2021-10-09T13:54:53Z</time>
      </trkpt>
      <trkpt lat="45.63225" lon="6.22297">
        <ele>1883</ele>
        <time>2021-10-09T13:55:17Z</time>
      </trkpt>
      <trkpt lat="45.63224" lon="6.22303">
        <ele>1885</ele>
        <time>2021-10-09T13:55:35Z</time>
      </trkpt>
      <trkpt lat="45.63223" lon="6.22309">
        <ele>1886</ele>
        <time>2021-10-09T13:55:41Z</time>
      </trkpt>
      <trkpt lat="45.63219" lon="6.22309">
        <ele>1889</ele>
        <time>2021-10-09T13:55:52Z</time>
      </trkpt>
      <trkpt lat="45.63214" lon="6.22312">
        <ele>1892</ele>
        <time>2021-10-09T13:56:10Z</time>
      </trkpt>
      <trkpt lat="45.63211" lon="6.22316">
        <ele>1892</ele>
        <time>2021-10-09T13:56:22Z</time>
      </trkpt>
      <trkpt lat="45.63209" lon="6.22322">
        <ele>1897</ele>
        <time>2021-10-09T13:56:40Z</time>
      </trkpt>
      <trkpt lat="45.63204" lon="6.22322">
        <ele>1897</ele>
        <time>2021-10-09T13:56:52Z</time>
      </trkpt>
      <trkpt lat="45.63204" lon="6.22328">
        <ele>1900</ele>
        <time>2021-10-09T13:57:16Z</time>
      </trkpt>
      <trkpt lat="45.632" lon="6.22336">
        <ele>1907</ele>
        <time>2021-10-09T13:57:34Z</time>
      </trkpt>
      <trkpt lat="45.63205" lon="6.22338">
        <ele>1907</ele>
        <time>2021-10-09T13:58:16Z</time>
      </trkpt>
      <trkpt lat="45.63209" lon="6.22344">
        <ele>1918</ele>
        <time>2021-10-09T13:59:04Z</time>
      </trkpt>
      <trkpt lat="45.63209" lon="6.22354">
        <ele>1920</ele>
        <time>2021-10-09T13:59:22Z</time>
      </trkpt>
      <trkpt lat="45.63214" lon="6.22362">
        <ele>1928</ele>
        <time>2021-10-09T13:59:46Z</time>
      </trkpt>
      <trkpt lat="45.63218" lon="6.22361">
        <ele>1927</ele>
        <time>2021-10-09T13:59:52Z</time>
      </trkpt>
      <trkpt lat="45.63225" lon="6.22359">
        <ele>1933</ele>
        <time>2021-10-09T14:00:16Z</time>
      </trkpt>
      <trkpt lat="45.6323" lon="6.22362">
        <ele>1939</ele>
        <time>2021-10-09T14:00:41Z</time>
      </trkpt>
      <trkpt lat="45.63231" lon="6.22367">
        <ele>1940</ele>
        <time>2021-10-09T14:00:58Z</time>
      </trkpt>
      <trkpt lat="45.63225" lon="6.22371">
        <ele>1942</ele>
        <time>2021-10-09T14:01:10Z</time>
      </trkpt>
      <trkpt lat="45.63222" lon="6.2238">
        <ele>1946</ele>
        <time>2021-10-09T14:01:34Z</time>
      </trkpt>
      <trkpt lat="45.63221" lon="6.22389">
        <ele>1948</ele>
        <time>2021-10-09T14:01:46Z</time>
      </trkpt>
      <trkpt lat="45.63224" lon="6.22396">
        <ele>1951</ele>
        <time>2021-10-09T14:02:00Z</time>
      </trkpt>
      <trkpt lat="45.63224" lon="6.22405">
        <ele>1951</ele>
        <time>2021-10-09T14:02:12Z</time>
      </trkpt>
      <trkpt lat="45.63221" lon="6.22409">
        <ele>1956</ele>
        <time>2021-10-09T14:02:29Z</time>
      </trkpt>
      <trkpt lat="45.63217" lon="6.22412">
        <ele>1960</ele>
        <time>2021-10-09T14:02:47Z</time>
      </trkpt>
      <trkpt lat="45.63212" lon="6.22415">
        <ele>1964</ele>
        <time>2021-10-09T14:02:59Z</time>
      </trkpt>
      <trkpt lat="45.63209" lon="6.22417">
        <ele>1963</ele>
        <time>2021-10-09T14:03:04Z</time>
      </trkpt>
      <trkpt lat="45.63206" lon="6.22421">
        <ele>1966</ele>
        <time>2021-10-09T14:03:18Z</time>
      </trkpt>
      <trkpt lat="45.63209" lon="6.22429">
        <ele>1970</ele>
        <time>2021-10-09T14:03:30Z</time>
      </trkpt>
      <trkpt lat="45.63208" lon="6.22436">
        <ele>1974</ele>
        <time>2021-10-09T14:03:54Z</time>
      </trkpt>
      <trkpt lat="45.63204" lon="6.22437">
        <ele>1975</ele>
        <time>2021-10-09T14:04:06Z</time>
      </trkpt>
      <trkpt lat="45.63202" lon="6.22442">
        <ele>1978</ele>
        <time>2021-10-09T14:04:18Z</time>
      </trkpt>
      <trkpt lat="45.63198" lon="6.22446">
        <ele>1978</ele>
        <time>2021-10-09T14:04:30Z</time>
      </trkpt>
      <trkpt lat="45.63199" lon="6.22452">
        <ele>1981</ele>
        <time>2021-10-09T14:04:33Z</time>
      </trkpt>
      <trkpt lat="45.6319" lon="6.22452">
        <ele>1985</ele>
        <time>2021-10-09T14:04:53Z</time>
      </trkpt>
      <trkpt lat="45.63182" lon="6.22456">
        <ele>1985</ele>
        <time>2021-10-09T14:05:03Z</time>
      </trkpt>
      <trkpt lat="45.63179" lon="6.22459">
        <ele>1990</ele>
        <time>2021-10-09T14:05:12Z</time>
      </trkpt>
      <trkpt lat="45.63175" lon="6.22462">
        <ele>1989</ele>
        <time>2021-10-09T14:05:24Z</time>
      </trkpt>
      <trkpt lat="45.63171" lon="6.22463">
        <ele>1989</ele>
        <time>2021-10-09T14:05:36Z</time>
      </trkpt>
      <trkpt lat="45.63168" lon="6.22466">
        <ele>1994</ele>
        <time>2021-10-09T14:05:48Z</time>
      </trkpt>
      <trkpt lat="45.6316" lon="6.22477">
        <ele>1999</ele>
        <time>2021-10-09T14:06:12Z</time>
      </trkpt>
      <trkpt lat="45.63154" lon="6.22478">
        <ele>2000</ele>
        <time>2021-10-09T14:06:24Z</time>
      </trkpt>
      <trkpt lat="45.6315" lon="6.22481">
        <ele>2000</ele>
        <time>2021-10-09T14:06:36Z</time>
      </trkpt>
      <trkpt lat="45.63147" lon="6.22483">
        <ele>2001</ele>
        <time>2021-10-09T14:06:42Z</time>
      </trkpt>
      <trkpt lat="45.63143" lon="6.22485">
        <ele>2003</ele>
        <time>2021-10-09T14:06:46Z</time>
      </trkpt>
      <trkpt lat="45.63142" lon="6.2249">
        <ele>2006</ele>
        <time>2021-10-09T14:06:57Z</time>
      </trkpt>
      <trkpt lat="45.63136" lon="6.22491">
        <ele>2006</ele>
        <time>2021-10-09T14:07:09Z</time>
      </trkpt>
      <trkpt lat="45.63138" lon="6.22499">
        <ele>2011</ele>
        <time>2021-10-09T14:07:30Z</time>
      </trkpt>
      <trkpt lat="45.63136" lon="6.22503">
        <ele>2013</ele>
        <time>2021-10-09T14:07:46Z</time>
      </trkpt>
      <trkpt lat="45.63139" lon="6.22511">
        <ele>2017</ele>
        <time>2021-10-09T14:08:03Z</time>
      </trkpt>
      <trkpt lat="45.63135" lon="6.22514">
        <ele>2020</ele>
        <time>2021-10-09T14:08:24Z</time>
      </trkpt>
      <trkpt lat="45.63129" lon="6.22514">
        <ele>2023</ele>
        <time>2021-10-09T14:08:41Z</time>
      </trkpt>
      <trkpt lat="45.63126" lon="6.22519">
        <ele>2027</ele>
        <time>2021-10-09T14:09:05Z</time>
      </trkpt>
      <trkpt lat="45.63123" lon="6.22518">
        <ele>2029</ele>
        <time>2021-10-09T14:09:22Z</time>
      </trkpt>
      <trkpt lat="45.63119" lon="6.22525">
        <ele>2034</ele>
        <time>2021-10-09T14:10:28Z</time>
      </trkpt>
      <trkpt lat="45.63114" lon="6.22533">
        <ele>2042</ele>
        <time>2021-10-09T14:11:10Z</time>
      </trkpt>
      <trkpt lat="45.63108" lon="6.22536">
        <ele>2044</ele>
        <time>2021-10-09T14:11:22Z</time>
      </trkpt>
      <trkpt lat="45.63102" lon="6.22538">
        <ele>2047</ele>
        <time>2021-10-09T14:11:34Z</time>
      </trkpt>
      <trkpt lat="45.63097" lon="6.22539">
        <ele>2052</ele>
        <time>2021-10-09T14:12:52Z</time>
      </trkpt>
      <trkpt lat="45.63093" lon="6.22539">
        <ele>2059</ele>
        <time>2021-10-09T14:13:34Z</time>
      </trkpt>
      <trkpt lat="45.63098" lon="6.22544">
        <ele>2058</ele>
        <time>2021-10-09T14:13:58Z</time>
      </trkpt>
      <trkpt lat="45.63095" lon="6.22552">
        <ele>2064</ele>
        <time>2021-10-09T14:14:32Z</time>
      </trkpt>
      <trkpt lat="45.6309" lon="6.22557">
        <ele>2067</ele>
        <time>2021-10-09T14:14:48Z</time>
      </trkpt>
      <trkpt lat="45.63089" lon="6.22567">
        <ele>2071</ele>
        <time>2021-10-09T14:15:09Z</time>
      </trkpt>
      <trkpt lat="45.63086" lon="6.22573">
        <ele>2078</ele>
        <time>2021-10-09T14:15:44Z</time>
      </trkpt>
      <trkpt lat="45.63082" lon="6.22581">
        <ele>2082</ele>
        <time>2021-10-09T14:16:14Z</time>
      </trkpt>
      <trkpt lat="45.63084" lon="6.2259">
        <ele>2090</ele>
        <time>2021-10-09T14:17:14Z</time>
      </trkpt>
      <trkpt lat="45.63079" lon="6.22592">
        <ele>2091</ele>
        <time>2021-10-09T14:17:44Z</time>
      </trkpt>
      <trkpt lat="45.63083" lon="6.226">
        <ele>2096</ele>
        <time>2021-10-09T14:18:07Z</time>
      </trkpt>
      <trkpt lat="45.63083" lon="6.22607">
        <ele>2095</ele>
        <time>2021-10-09T14:18:18Z</time>
      </trkpt>
      <trkpt lat="45.63083" lon="6.22617">
        <ele>2099</ele>
        <time>2021-10-09T14:18:42Z</time>
      </trkpt>
      <trkpt lat="45.63084" lon="6.22624">
        <ele>2105</ele>
        <time>2021-10-09T14:19:00Z</time>
      </trkpt>
      <trkpt lat="45.63079" lon="6.22631">
        <ele>2110</ele>
        <time>2021-10-09T14:19:33Z</time>
      </trkpt>
      <trkpt lat="45.63074" lon="6.22635">
        <ele>2112</ele>
        <time>2021-10-09T14:19:45Z</time>
      </trkpt>
      <trkpt lat="45.63068" lon="6.22636">
        <ele>2116</ele>
        <time>2021-10-09T14:20:03Z</time>
      </trkpt>
      <trkpt lat="45.63059" lon="6.22636">
        <ele>2122</ele>
        <time>2021-10-09T14:20:39Z</time>
      </trkpt>
      <trkpt lat="45.63056" lon="6.22638">
        <ele>2124</ele>
        <time>2021-10-09T14:20:51Z</time>
      </trkpt>
      <trkpt lat="45.63055" lon="6.22645">
        <ele>2128</ele>
        <time>2021-10-09T14:21:15Z</time>
      </trkpt>
      <trkpt lat="45.63057" lon="6.22653">
        <ele>2130</ele>
        <time>2021-10-09T14:21:31Z</time>
      </trkpt>
      <trkpt lat="45.63058" lon="6.22662">
        <ele>2130</ele>
        <time>2021-10-09T14:21:38Z</time>
      </trkpt>
      <trkpt lat="45.6306" lon="6.22668">
        <ele>2131</ele>
        <time>2021-10-09T14:21:45Z</time>
      </trkpt>
      <trkpt lat="45.63059" lon="6.22674">
        <ele>2135</ele>
        <time>2021-10-09T14:21:55Z</time>
      </trkpt>
      <trkpt lat="45.63061" lon="6.2268">
        <ele>2137</ele>
        <time>2021-10-09T14:22:06Z</time>
      </trkpt>
      <trkpt lat="45.63061" lon="6.22686">
        <ele>2136</ele>
        <time>2021-10-09T14:22:16Z</time>
      </trkpt>
      <trkpt lat="45.63067" lon="6.22693">
        <ele>2139</ele>
        <time>2021-10-09T14:22:26Z</time>
      </trkpt>
      <trkpt lat="45.63069" lon="6.22698">
        <ele>2138</ele>
        <time>2021-10-09T14:22:32Z</time>
      </trkpt>
      <trkpt lat="45.6307" lon="6.22705">
        <ele>2141</ele>
        <time>2021-10-09T14:22:40Z</time>
      </trkpt>
      <trkpt lat="45.63073" lon="6.2271">
        <ele>2141</ele>
        <time>2021-10-09T14:22:46Z</time>
      </trkpt>
      <trkpt lat="45.63074" lon="6.22719">
        <ele>2140</ele>
        <time>2021-10-09T14:22:54Z</time>
      </trkpt>
      <trkpt lat="45.63075" lon="6.22726">
        <ele>2140</ele>
        <time>2021-10-09T14:23:01Z</time>
      </trkpt>
      <trkpt lat="45.63077" lon="6.2273">
        <ele>2143</ele>
        <time>2021-10-09T14:23:07Z</time>
      </trkpt>
      <trkpt lat="45.6308" lon="6.22735">
        <ele>2143</ele>
        <time>2021-10-09T14:23:19Z</time>
      </trkpt>
      <trkpt lat="45.63083" lon="6.22744">
        <ele>2145</ele>
        <time>2021-10-09T14:23:27Z</time>
      </trkpt>
      <trkpt lat="45.63082" lon="6.22757">
        <ele>2146</ele>
        <time>2021-10-09T14:23:41Z</time>
      </trkpt>
      <trkpt lat="45.63082" lon="6.22763">
        <ele>2151</ele>
        <time>2021-10-09T14:23:47Z</time>
      </trkpt>
      <trkpt lat="45.63082" lon="6.22773">
        <ele>2153</ele>
        <time>2021-10-09T14:24:05Z</time>
      </trkpt>
      <trkpt lat="45.63082" lon="6.22784">
        <ele>2155</ele>
        <time>2021-10-09T14:24:15Z</time>
      </trkpt>
      <trkpt lat="45.63082" lon="6.22789">
        <ele>2156</ele>
        <time>2021-10-09T14:24:23Z</time>
      </trkpt>
      <trkpt lat="45.63086" lon="6.22795">
        <ele>2157</ele>
        <time>2021-10-09T14:24:33Z</time>
      </trkpt>
      <trkpt lat="45.63089" lon="6.22804">
        <ele>2157</ele>
        <time>2021-10-09T14:24:41Z</time>
      </trkpt>
      <trkpt lat="45.63092" lon="6.22816">
        <ele>2159</ele>
        <time>2021-10-09T14:24:54Z</time>
      </trkpt>
      <trkpt lat="45.63093" lon="6.22827">
        <ele>2161</ele>
        <time>2021-10-09T14:25:06Z</time>
      </trkpt>
      <trkpt lat="45.63096" lon="6.22831">
        <ele>2159</ele>
        <time>2021-10-09T14:25:11Z</time>
      </trkpt>
      <trkpt lat="45.631" lon="6.22838">
        <ele>2164</ele>
        <time>2021-10-09T14:25:25Z</time>
      </trkpt>
      <trkpt lat="45.63104" lon="6.22845">
        <ele>2165</ele>
        <time>2021-10-09T14:25:37Z</time>
      </trkpt>
      <trkpt lat="45.63103" lon="6.22851">
        <ele>2168</ele>
        <time>2021-10-09T14:25:49Z</time>
      </trkpt>
      <trkpt lat="45.63117" lon="6.2287">
        <ele>2172</ele>
        <time>2021-10-09T14:26:31Z</time>
      </trkpt>
      <trkpt lat="45.63123" lon="6.22892">
        <ele>2175</ele>
        <time>2021-10-09T14:26:55Z</time>
      </trkpt>
      <trkpt lat="45.6312" lon="6.22899">
        <ele>2176</ele>
        <time>2021-10-09T14:27:06Z</time>
      </trkpt>
      <trkpt lat="45.63117" lon="6.22902">
        <ele>2179</ele>
        <time>2021-10-09T14:27:11Z</time>
      </trkpt>
      <trkpt lat="45.63121" lon="6.2291">
        <ele>2182</ele>
        <time>2021-10-09T14:27:35Z</time>
      </trkpt>
      <trkpt lat="45.63123" lon="6.22915">
        <ele>2187</ele>
        <time>2021-10-09T14:27:53Z</time>
      </trkpt>
      <trkpt lat="45.63125" lon="6.22919">
        <ele>2187</ele>
        <time>2021-10-09T14:28:05Z</time>
      </trkpt>
      <trkpt lat="45.6313" lon="6.22922">
        <ele>2188</ele>
        <time>2021-10-09T14:28:23Z</time>
      </trkpt>
      <trkpt lat="45.63137" lon="6.22931">
        <ele>2188</ele>
        <time>2021-10-09T14:28:40Z</time>
      </trkpt>
      <trkpt lat="45.63145" lon="6.22934">
        <ele>2187</ele>
        <time>2021-10-09T14:29:02Z</time>
      </trkpt>
      <trkpt lat="45.6315" lon="6.22939">
        <ele>2187</ele>
        <time>2021-10-09T14:29:31Z</time>
      </trkpt>
      <trkpt lat="45.6316" lon="6.22944">
        <ele>2187</ele>
        <time>2021-10-09T14:29:49Z</time>
      </trkpt>
      <trkpt lat="45.63165" lon="6.22945">
        <ele>2185</ele>
        <time>2021-10-09T14:29:55Z</time>
      </trkpt>
      <trkpt lat="45.6317" lon="6.22952">
        <ele>2184</ele>
        <time>2021-10-09T14:30:15Z</time>
      </trkpt>
      <trkpt lat="45.63176" lon="6.22963">
        <ele>2185</ele>
        <time>2021-10-09T14:30:27Z</time>
      </trkpt>
      <trkpt lat="45.63176" lon="6.2297">
        <ele>2190</ele>
        <time>2021-10-09T14:30:45Z</time>
      </trkpt>
      <trkpt lat="45.63177" lon="6.22972">
        <ele>2188</ele>
        <time>2021-10-09T14:34:15Z</time>
      </trkpt>
      <trkpt lat="45.63185" lon="6.22981">
        <ele>2187</ele>
        <time>2021-10-09T14:35:03Z</time>
      </trkpt>
      <trkpt lat="45.6319" lon="6.22986">
        <ele>2187</ele>
        <time>2021-10-09T14:35:13Z</time>
      </trkpt>
      <trkpt lat="45.632" lon="6.22999">
        <ele>2188</ele>
        <time>2021-10-09T14:35:33Z</time>
      </trkpt>
      <trkpt lat="45.63199" lon="6.23006">
        <ele>2185</ele>
        <time>2021-10-09T14:36:00Z</time>
      </trkpt>
      <trkpt lat="45.63201" lon="6.23011">
        <ele>2184</ele>
        <time>2021-10-09T14:36:04Z</time>
      </trkpt>
      <trkpt lat="45.63195" lon="6.23015">
        <ele>2178</ele>
        <time>2021-10-09T14:36:37Z</time>
      </trkpt>
      <trkpt lat="45.63193" lon="6.23023">
        <ele>2176</ele>
        <time>2021-10-09T14:37:13Z</time>
      </trkpt>
      <trkpt lat="45.6319" lon="6.2304">
        <ele>2167</ele>
        <time>2021-10-09T14:38:00Z</time>
      </trkpt>
      <trkpt lat="45.63189" lon="6.23046">
        <ele>2162</ele>
        <time>2021-10-09T14:38:18Z</time>
      </trkpt>
      <trkpt lat="45.63182" lon="6.23046">
        <ele>2158</ele>
        <time>2021-10-09T14:38:42Z</time>
      </trkpt>
      <trkpt lat="45.63169" lon="6.23053">
        <ele>2149</ele>
        <time>2021-10-09T14:39:24Z</time>
      </trkpt>
      <trkpt lat="45.63166" lon="6.23055">
        <ele>2145</ele>
        <time>2021-10-09T14:39:48Z</time>
      </trkpt>
      <trkpt lat="45.6316" lon="6.23056">
        <ele>2140</ele>
        <time>2021-10-09T14:40:12Z</time>
      </trkpt>
      <trkpt lat="45.63154" lon="6.23058">
        <ele>2136</ele>
        <time>2021-10-09T14:40:36Z</time>
      </trkpt>
      <trkpt lat="45.63148" lon="6.23064">
        <ele>2131</ele>
        <time>2021-10-09T14:41:00Z</time>
      </trkpt>
      <trkpt lat="45.63144" lon="6.23073">
        <ele>2125</ele>
        <time>2021-10-09T14:41:30Z</time>
      </trkpt>
      <trkpt lat="45.63139" lon="6.23077">
        <ele>2121</ele>
        <time>2021-10-09T14:41:48Z</time>
      </trkpt>
      <trkpt lat="45.63134" lon="6.23087">
        <ele>2116</ele>
        <time>2021-10-09T14:42:12Z</time>
      </trkpt>
      <trkpt lat="45.63127" lon="6.2309">
        <ele>2113</ele>
        <time>2021-10-09T14:42:30Z</time>
      </trkpt>
      <trkpt lat="45.63124" lon="6.23098">
        <ele>2110</ele>
        <time>2021-10-09T14:42:42Z</time>
      </trkpt>
      <trkpt lat="45.63118" lon="6.23095">
        <ele>2106</ele>
        <time>2021-10-09T14:42:58Z</time>
      </trkpt>
      <trkpt lat="45.63111" lon="6.23093">
        <ele>2103</ele>
        <time>2021-10-09T14:43:08Z</time>
      </trkpt>
      <trkpt lat="45.63106" lon="6.23089">
        <ele>2098</ele>
        <time>2021-10-09T14:43:30Z</time>
      </trkpt>
      <trkpt lat="45.63103" lon="6.23082">
        <ele>2095</ele>
        <time>2021-10-09T14:43:42Z</time>
      </trkpt>
      <trkpt lat="45.63097" lon="6.23083">
        <ele>2089</ele>
        <time>2021-10-09T14:44:06Z</time>
      </trkpt>
      <trkpt lat="45.63092" lon="6.23082">
        <ele>2085</ele>
        <time>2021-10-09T14:44:30Z</time>
      </trkpt>
      <trkpt lat="45.63087" lon="6.23075">
        <ele>2080</ele>
        <time>2021-10-09T14:44:47Z</time>
      </trkpt>
      <trkpt lat="45.6308" lon="6.23075">
        <ele>2077</ele>
        <time>2021-10-09T14:44:59Z</time>
      </trkpt>
      <trkpt lat="45.63058" lon="6.23091">
        <ele>2069</ele>
        <time>2021-10-09T14:45:31Z</time>
      </trkpt>
      <trkpt lat="45.63055" lon="6.23099">
        <ele>2065</ele>
        <time>2021-10-09T14:45:43Z</time>
      </trkpt>
      <trkpt lat="45.63055" lon="6.23106">
        <ele>2059</ele>
        <time>2021-10-09T14:46:13Z</time>
      </trkpt>
      <trkpt lat="45.63053" lon="6.23115">
        <ele>2058</ele>
        <time>2021-10-09T14:46:31Z</time>
      </trkpt>
      <trkpt lat="45.63049" lon="6.23125">
        <ele>2056</ele>
        <time>2021-10-09T14:46:43Z</time>
      </trkpt>
      <trkpt lat="45.63051" lon="6.23137">
        <ele>2053</ele>
        <time>2021-10-09T14:46:55Z</time>
      </trkpt>
      <trkpt lat="45.63048" lon="6.23145">
        <ele>2048</ele>
        <time>2021-10-09T14:47:49Z</time>
      </trkpt>
      <trkpt lat="45.63052" lon="6.23152">
        <ele>2049</ele>
        <time>2021-10-09T14:47:56Z</time>
      </trkpt>
      <trkpt lat="45.63054" lon="6.23146">
        <ele>2048</ele>
        <time>2021-10-09T14:48:39Z</time>
      </trkpt>
      <trkpt lat="45.63057" lon="6.23137">
        <ele>2047</ele>
        <time>2021-10-09T14:49:05Z</time>
      </trkpt>
      <trkpt lat="45.63054" lon="6.2313">
        <ele>2046</ele>
        <time>2021-10-09T14:49:29Z</time>
      </trkpt>
      <trkpt lat="45.63049" lon="6.23133">
        <ele>2041</ele>
        <time>2021-10-09T14:50:08Z</time>
      </trkpt>
      <trkpt lat="45.63029" lon="6.23133">
        <ele>2031</ele>
        <time>2021-10-09T14:50:53Z</time>
      </trkpt>
      <trkpt lat="45.63022" lon="6.23133">
        <ele>2027</ele>
        <time>2021-10-09T14:51:05Z</time>
      </trkpt>
      <trkpt lat="45.63017" lon="6.23143">
        <ele>2022</ele>
        <time>2021-10-09T14:51:28Z</time>
      </trkpt>
      <trkpt lat="45.63014" lon="6.23165">
        <ele>2015</ele>
        <time>2021-10-09T14:52:11Z</time>
      </trkpt>
      <trkpt lat="45.63" lon="6.23205">
        <ele>2005</ele>
        <time>2021-10-09T14:52:51Z</time>
      </trkpt>
      <trkpt lat="45.62999" lon="6.23211">
        <ele>2003</ele>
        <time>2021-10-09T14:52:58Z</time>
      </trkpt>
      <trkpt lat="45.62996" lon="6.23215">
        <ele>2001</ele>
        <time>2021-10-09T14:53:03Z</time>
      </trkpt>
      <trkpt lat="45.62995" lon="6.2322">
        <ele>1999</ele>
        <time>2021-10-09T14:53:09Z</time>
      </trkpt>
      <trkpt lat="45.62991" lon="6.23226">
        <ele>1997</ele>
        <time>2021-10-09T14:53:25Z</time>
      </trkpt>
      <trkpt lat="45.62987" lon="6.23235">
        <ele>1993</ele>
        <time>2021-10-09T14:54:04Z</time>
      </trkpt>
      <trkpt lat="45.62982" lon="6.23236">
        <ele>1992</ele>
        <time>2021-10-09T14:54:08Z</time>
      </trkpt>
      <trkpt lat="45.62975" lon="6.23242">
        <ele>1989</ele>
        <time>2021-10-09T14:54:15Z</time>
      </trkpt>
      <trkpt lat="45.62956" lon="6.23251">
        <ele>1981</ele>
        <time>2021-10-09T14:54:32Z</time>
      </trkpt>
      <trkpt lat="45.62952" lon="6.23254">
        <ele>1980</ele>
        <time>2021-10-09T14:54:36Z</time>
      </trkpt>
      <trkpt lat="45.62948" lon="6.23256">
        <ele>1978</ele>
        <time>2021-10-09T14:54:40Z</time>
      </trkpt>
      <trkpt lat="45.62939" lon="6.23256">
        <ele>1975</ele>
        <time>2021-10-09T14:54:48Z</time>
      </trkpt>
      <trkpt lat="45.62937" lon="6.23261">
        <ele>1973</ele>
        <time>2021-10-09T14:54:52Z</time>
      </trkpt>
      <trkpt lat="45.62931" lon="6.23263">
        <ele>1971</ele>
        <time>2021-10-09T14:54:59Z</time>
      </trkpt>
      <trkpt lat="45.62924" lon="6.23267">
        <ele>1967</ele>
        <time>2021-10-09T14:55:07Z</time>
      </trkpt>
      <trkpt lat="45.62919" lon="6.23269">
        <ele>1966</ele>
        <time>2021-10-09T14:55:15Z</time>
      </trkpt>
      <trkpt lat="45.62911" lon="6.23272">
        <ele>1963</ele>
        <time>2021-10-09T14:55:23Z</time>
      </trkpt>
      <trkpt lat="45.62903" lon="6.23273">
        <ele>1960</ele>
        <time>2021-10-09T14:55:33Z</time>
      </trkpt>
      <trkpt lat="45.62897" lon="6.23275">
        <ele>1958</ele>
        <time>2021-10-09T14:55:39Z</time>
      </trkpt>
      <trkpt lat="45.62892" lon="6.23276">
        <ele>1955</ele>
        <time>2021-10-09T14:55:49Z</time>
      </trkpt>
      <trkpt lat="45.62887" lon="6.23279">
        <ele>1952</ele>
        <time>2021-10-09T14:55:57Z</time>
      </trkpt>
      <trkpt lat="45.62879" lon="6.23263">
        <ele>1942</ele>
        <time>2021-10-09T14:56:25Z</time>
      </trkpt>
      <trkpt lat="45.62879" lon="6.23256">
        <ele>1941</ele>
        <time>2021-10-09T14:56:31Z</time>
      </trkpt>
      <trkpt lat="45.62881" lon="6.2325">
        <ele>1939</ele>
        <time>2021-10-09T14:56:35Z</time>
      </trkpt>
      <trkpt lat="45.62883" lon="6.23244">
        <ele>1937</ele>
        <time>2021-10-09T14:56:44Z</time>
      </trkpt>
      <trkpt lat="45.62881" lon="6.23239">
        <ele>1934</ele>
        <time>2021-10-09T14:56:50Z</time>
      </trkpt>
      <trkpt lat="45.6288" lon="6.23221">
        <ele>1929</ele>
        <time>2021-10-09T14:57:06Z</time>
      </trkpt>
      <trkpt lat="45.62881" lon="6.23215">
        <ele>1927</ele>
        <time>2021-10-09T14:57:13Z</time>
      </trkpt>
      <trkpt lat="45.62879" lon="6.2321">
        <ele>1926</ele>
        <time>2021-10-09T14:57:18Z</time>
      </trkpt>
      <trkpt lat="45.62872" lon="6.23214">
        <ele>1924</ele>
        <time>2021-10-09T14:57:27Z</time>
      </trkpt>
      <trkpt lat="45.62869" lon="6.23217">
        <ele>1923</ele>
        <time>2021-10-09T14:57:31Z</time>
      </trkpt>
      <trkpt lat="45.62862" lon="6.23219">
        <ele>1920</ele>
        <time>2021-10-09T14:57:40Z</time>
      </trkpt>
      <trkpt lat="45.62863" lon="6.23208">
        <ele>1916</ele>
        <time>2021-10-09T14:57:53Z</time>
      </trkpt>
      <trkpt lat="45.62862" lon="6.23202">
        <ele>1915</ele>
        <time>2021-10-09T14:57:58Z</time>
      </trkpt>
      <trkpt lat="45.62861" lon="6.23193">
        <ele>1911</ele>
        <time>2021-10-09T14:58:11Z</time>
      </trkpt>
      <trkpt lat="45.62854" lon="6.23185">
        <ele>1907</ele>
        <time>2021-10-09T14:58:24Z</time>
      </trkpt>
      <trkpt lat="45.62847" lon="6.23186">
        <ele>1904</ele>
        <time>2021-10-09T14:58:36Z</time>
      </trkpt>
      <trkpt lat="45.62841" lon="6.23182">
        <ele>1902</ele>
        <time>2021-10-09T14:58:43Z</time>
      </trkpt>
      <trkpt lat="45.62844" lon="6.23178">
        <ele>1900</ele>
        <time>2021-10-09T14:58:50Z</time>
      </trkpt>
      <trkpt lat="45.62842" lon="6.23173">
        <ele>1898</ele>
        <time>2021-10-09T14:58:54Z</time>
      </trkpt>
      <trkpt lat="45.62837" lon="6.23173">
        <ele>1897</ele>
        <time>2021-10-09T14:59:03Z</time>
      </trkpt>
      <trkpt lat="45.62831" lon="6.23172">
        <ele>1892</ele>
        <time>2021-10-09T14:59:13Z</time>
      </trkpt>
      <trkpt lat="45.62827" lon="6.23175">
        <ele>1892</ele>
        <time>2021-10-09T14:59:17Z</time>
      </trkpt>
      <trkpt lat="45.6282" lon="6.23179">
        <ele>1890</ele>
        <time>2021-10-09T14:59:24Z</time>
      </trkpt>
      <trkpt lat="45.62818" lon="6.23184">
        <ele>1889</ele>
        <time>2021-10-09T14:59:28Z</time>
      </trkpt>
      <trkpt lat="45.62815" lon="6.23178">
        <ele>1887</ele>
        <time>2021-10-09T14:59:36Z</time>
      </trkpt>
      <trkpt lat="45.62817" lon="6.23153">
        <ele>1879</ele>
        <time>2021-10-09T14:59:56Z</time>
      </trkpt>
      <trkpt lat="45.62812" lon="6.23156">
        <ele>1879</ele>
        <time>2021-10-09T15:00:00Z</time>
      </trkpt>
      <trkpt lat="45.62806" lon="6.23155">
        <ele>1875</ele>
        <time>2021-10-09T15:00:13Z</time>
      </trkpt>
      <trkpt lat="45.62802" lon="6.2315">
        <ele>1873</ele>
        <time>2021-10-09T15:00:18Z</time>
      </trkpt>
      <trkpt lat="45.62791" lon="6.23147">
        <ele>1869</ele>
        <time>2021-10-09T15:00:29Z</time>
      </trkpt>
      <trkpt lat="45.62788" lon="6.23148">
        <ele>1868</ele>
        <time>2021-10-09T15:00:32Z</time>
      </trkpt>
      <trkpt lat="45.62785" lon="6.23141">
        <ele>1865</ele>
        <time>2021-10-09T15:00:38Z</time>
      </trkpt>
      <trkpt lat="45.62781" lon="6.23136">
        <ele>1864</ele>
        <time>2021-10-09T15:00:41Z</time>
      </trkpt>
      <trkpt lat="45.62779" lon="6.2313">
        <ele>1861</ele>
        <time>2021-10-09T15:00:45Z</time>
      </trkpt>
      <trkpt lat="45.62775" lon="6.23124">
        <ele>1858</ele>
        <time>2021-10-09T15:00:50Z</time>
      </trkpt>
      <trkpt lat="45.6277" lon="6.23116">
        <ele>1853</ele>
        <time>2021-10-09T15:01:01Z</time>
      </trkpt>
      <trkpt lat="45.62768" lon="6.23112">
        <ele>1852</ele>
        <time>2021-10-09T15:01:04Z</time>
      </trkpt>
      <trkpt lat="45.62767" lon="6.23105">
        <ele>1849</ele>
        <time>2021-10-09T15:01:10Z</time>
      </trkpt>
      <trkpt lat="45.62764" lon="6.23102">
        <ele>1849</ele>
        <time>2021-10-09T15:01:14Z</time>
      </trkpt>
      <trkpt lat="45.62763" lon="6.23093">
        <ele>1845</ele>
        <time>2021-10-09T15:01:22Z</time>
      </trkpt>
      <trkpt lat="45.62758" lon="6.23082">
        <ele>1842</ele>
        <time>2021-10-09T15:01:30Z</time>
      </trkpt>
      <trkpt lat="45.62754" lon="6.23082">
        <ele>1840</ele>
        <time>2021-10-09T15:01:33Z</time>
      </trkpt>
      <trkpt lat="45.62752" lon="6.23077">
        <ele>1840</ele>
        <time>2021-10-09T15:01:37Z</time>
      </trkpt>
      <trkpt lat="45.62749" lon="6.23069">
        <ele>1837</ele>
        <time>2021-10-09T15:01:43Z</time>
      </trkpt>
      <trkpt lat="45.62744" lon="6.23065">
        <ele>1834</ele>
        <time>2021-10-09T15:01:51Z</time>
      </trkpt>
      <trkpt lat="45.62741" lon="6.23061">
        <ele>1832</ele>
        <time>2021-10-09T15:01:56Z</time>
      </trkpt>
      <trkpt lat="45.6274" lon="6.23056">
        <ele>1829</ele>
        <time>2021-10-09T15:02:02Z</time>
      </trkpt>
      <trkpt lat="45.62736" lon="6.2305">
        <ele>1827</ele>
        <time>2021-10-09T15:02:08Z</time>
      </trkpt>
      <trkpt lat="45.6273" lon="6.23046">
        <ele>1825</ele>
        <time>2021-10-09T15:02:13Z</time>
      </trkpt>
      <trkpt lat="45.62729" lon="6.2304">
        <ele>1821</ele>
        <time>2021-10-09T15:02:25Z</time>
      </trkpt>
      <trkpt lat="45.62725" lon="6.23039">
        <ele>1819</ele>
        <time>2021-10-09T15:02:29Z</time>
      </trkpt>
      <trkpt lat="45.62721" lon="6.23034">
        <ele>1815</ele>
        <time>2021-10-09T15:02:43Z</time>
      </trkpt>
      <trkpt lat="45.62719" lon="6.23029">
        <ele>1814</ele>
        <time>2021-10-09T15:02:47Z</time>
      </trkpt>
      <trkpt lat="45.62717" lon="6.23022">
        <ele>1811</ele>
        <time>2021-10-09T15:02:54Z</time>
      </trkpt>
      <trkpt lat="45.62715" lon="6.23017">
        <ele>1810</ele>
        <time>2021-10-09T15:02:57Z</time>
      </trkpt>
      <trkpt lat="45.6271" lon="6.23011">
        <ele>1808</ele>
        <time>2021-10-09T15:03:04Z</time>
      </trkpt>
      <trkpt lat="45.62708" lon="6.23002">
        <ele>1806</ele>
        <time>2021-10-09T15:03:11Z</time>
      </trkpt>
      <trkpt lat="45.62705" lon="6.22996">
        <ele>1803</ele>
        <time>2021-10-09T15:03:17Z</time>
      </trkpt>
      <trkpt lat="45.62705" lon="6.22988">
        <ele>1801</ele>
        <time>2021-10-09T15:03:21Z</time>
      </trkpt>
      <trkpt lat="45.62705" lon="6.22979">
        <ele>1801</ele>
        <time>2021-10-09T15:03:26Z</time>
      </trkpt>
      <trkpt lat="45.62697" lon="6.22973">
        <ele>1797</ele>
        <time>2021-10-09T15:03:35Z</time>
      </trkpt>
      <trkpt lat="45.62695" lon="6.22969">
        <ele>1796</ele>
        <time>2021-10-09T15:03:39Z</time>
      </trkpt>
      <trkpt lat="45.62694" lon="6.22952">
        <ele>1790</ele>
        <time>2021-10-09T15:03:54Z</time>
      </trkpt>
      <trkpt lat="45.62691" lon="6.22944">
        <ele>1788</ele>
        <time>2021-10-09T15:04:01Z</time>
      </trkpt>
      <trkpt lat="45.6269" lon="6.22932">
        <ele>1786</ele>
        <time>2021-10-09T15:04:07Z</time>
      </trkpt>
      <trkpt lat="45.62688" lon="6.22927">
        <ele>1785</ele>
        <time>2021-10-09T15:04:09Z</time>
      </trkpt>
      <trkpt lat="45.62678" lon="6.22906">
        <ele>1781</ele>
        <time>2021-10-09T15:04:20Z</time>
      </trkpt>
      <trkpt lat="45.62675" lon="6.22903">
        <ele>1779</ele>
        <time>2021-10-09T15:04:24Z</time>
      </trkpt>
      <trkpt lat="45.62666" lon="6.22898">
        <ele>1774</ele>
        <time>2021-10-09T15:04:37Z</time>
      </trkpt>
      <trkpt lat="45.62663" lon="6.22894">
        <ele>1773</ele>
        <time>2021-10-09T15:04:42Z</time>
      </trkpt>
      <trkpt lat="45.6266" lon="6.22893">
        <ele>1771</ele>
        <time>2021-10-09T15:04:46Z</time>
      </trkpt>
      <trkpt lat="45.62655" lon="6.2289">
        <ele>1769</ele>
        <time>2021-10-09T15:04:53Z</time>
      </trkpt>
      <trkpt lat="45.62652" lon="6.22886">
        <ele>1766</ele>
        <time>2021-10-09T15:04:59Z</time>
      </trkpt>
      <trkpt lat="45.62648" lon="6.22884">
        <ele>1764</ele>
        <time>2021-10-09T15:05:05Z</time>
      </trkpt>
      <trkpt lat="45.62646" lon="6.2288">
        <ele>1763</ele>
        <time>2021-10-09T15:05:11Z</time>
      </trkpt>
      <trkpt lat="45.62643" lon="6.22875">
        <ele>1761</ele>
        <time>2021-10-09T15:05:15Z</time>
      </trkpt>
      <trkpt lat="45.62639" lon="6.22874">
        <ele>1759</ele>
        <time>2021-10-09T15:05:18Z</time>
      </trkpt>
      <trkpt lat="45.62636" lon="6.2287">
        <ele>1759</ele>
        <time>2021-10-09T15:05:22Z</time>
      </trkpt>
      <trkpt lat="45.62634" lon="6.22866">
        <ele>1758</ele>
        <time>2021-10-09T15:05:25Z</time>
      </trkpt>
      <trkpt lat="45.62634" lon="6.2286">
        <ele>1756</ele>
        <time>2021-10-09T15:05:29Z</time>
      </trkpt>
      <trkpt lat="45.62633" lon="6.22855">
        <ele>1755</ele>
        <time>2021-10-09T15:05:33Z</time>
      </trkpt>
      <trkpt lat="45.62629" lon="6.22855">
        <ele>1753</ele>
        <time>2021-10-09T15:05:40Z</time>
      </trkpt>
      <trkpt lat="45.62625" lon="6.22859">
        <ele>1751</ele>
        <time>2021-10-09T15:05:43Z</time>
      </trkpt>
      <trkpt lat="45.62619" lon="6.22861">
        <ele>1749</ele>
        <time>2021-10-09T15:05:48Z</time>
      </trkpt>
      <trkpt lat="45.62616" lon="6.22866">
        <ele>1748</ele>
        <time>2021-10-09T15:05:51Z</time>
      </trkpt>
      <trkpt lat="45.62612" lon="6.22861">
        <ele>1745</ele>
        <time>2021-10-09T15:05:58Z</time>
      </trkpt>
      <trkpt lat="45.62607" lon="6.22863">
        <ele>1742</ele>
        <time>2021-10-09T15:06:09Z</time>
      </trkpt>
      <trkpt lat="45.62604" lon="6.22868">
        <ele>1739</ele>
        <time>2021-10-09T15:06:17Z</time>
      </trkpt>
      <trkpt lat="45.62604" lon="6.22874">
        <ele>1737</ele>
        <time>2021-10-09T15:06:20Z</time>
      </trkpt>
      <trkpt lat="45.626" lon="6.2287">
        <ele>1734</ele>
        <time>2021-10-09T15:06:30Z</time>
      </trkpt>
      <trkpt lat="45.62598" lon="6.22864">
        <ele>1733</ele>
        <time>2021-10-09T15:06:33Z</time>
      </trkpt>
      <trkpt lat="45.62595" lon="6.22859">
        <ele>1731</ele>
        <time>2021-10-09T15:06:37Z</time>
      </trkpt>
      <trkpt lat="45.62591" lon="6.22864">
        <ele>1729</ele>
        <time>2021-10-09T15:06:42Z</time>
      </trkpt>
      <trkpt lat="45.62583" lon="6.22856">
        <ele>1726</ele>
        <time>2021-10-09T15:06:52Z</time>
      </trkpt>
      <trkpt lat="45.62579" lon="6.22859">
        <ele>1725</ele>
        <time>2021-10-09T15:06:55Z</time>
      </trkpt>
      <trkpt lat="45.62578" lon="6.22871">
        <ele>1723</ele>
        <time>2021-10-09T15:07:01Z</time>
      </trkpt>
      <trkpt lat="45.62574" lon="6.22877">
        <ele>1720</ele>
        <time>2021-10-09T15:07:08Z</time>
      </trkpt>
      <trkpt lat="45.62571" lon="6.22874">
        <ele>1719</ele>
        <time>2021-10-09T15:07:13Z</time>
      </trkpt>
      <trkpt lat="45.62567" lon="6.22871">
        <ele>1720</ele>
        <time>2021-10-09T15:07:16Z</time>
      </trkpt>
      <trkpt lat="45.62563" lon="6.22868">
        <ele>1719</ele>
        <time>2021-10-09T15:07:20Z</time>
      </trkpt>
      <trkpt lat="45.6256" lon="6.22866">
        <ele>1717</ele>
        <time>2021-10-09T15:07:24Z</time>
      </trkpt>
      <trkpt lat="45.62556" lon="6.22867">
        <ele>1716</ele>
        <time>2021-10-09T15:07:27Z</time>
      </trkpt>
      <trkpt lat="45.62538" lon="6.2286">
        <ele>1710</ele>
        <time>2021-10-09T15:07:44Z</time>
      </trkpt>
      <trkpt lat="45.62529" lon="6.22845">
        <ele>1704</ele>
        <time>2021-10-09T15:08:00Z</time>
      </trkpt>
      <trkpt lat="45.62519" lon="6.22833">
        <ele>1699</ele>
        <time>2021-10-09T15:08:10Z</time>
      </trkpt>
      <trkpt lat="45.62516" lon="6.22829">
        <ele>1698</ele>
        <time>2021-10-09T15:08:13Z</time>
      </trkpt>
      <trkpt lat="45.62514" lon="6.2282">
        <ele>1696</ele>
        <time>2021-10-09T15:08:18Z</time>
      </trkpt>
      <trkpt lat="45.6251" lon="6.22815">
        <ele>1694</ele>
        <time>2021-10-09T15:08:22Z</time>
      </trkpt>
      <trkpt lat="45.62506" lon="6.22802">
        <ele>1690</ele>
        <time>2021-10-09T15:08:29Z</time>
      </trkpt>
      <trkpt lat="45.62503" lon="6.22797">
        <ele>1689</ele>
        <time>2021-10-09T15:08:32Z</time>
      </trkpt>
      <trkpt lat="45.625" lon="6.22794">
        <ele>1687</ele>
        <time>2021-10-09T15:08:35Z</time>
      </trkpt>
      <trkpt lat="45.62496" lon="6.22792">
        <ele>1686</ele>
        <time>2021-10-09T15:08:38Z</time>
      </trkpt>
      <trkpt lat="45.62489" lon="6.22792">
        <ele>1684</ele>
        <time>2021-10-09T15:08:43Z</time>
      </trkpt>
      <trkpt lat="45.62485" lon="6.22789">
        <ele>1682</ele>
        <time>2021-10-09T15:08:46Z</time>
      </trkpt>
      <trkpt lat="45.62481" lon="6.22788">
        <ele>1681</ele>
        <time>2021-10-09T15:08:49Z</time>
      </trkpt>
      <trkpt lat="45.62477" lon="6.22785">
        <ele>1680</ele>
        <time>2021-10-09T15:08:52Z</time>
      </trkpt>
      <trkpt lat="45.62447" lon="6.22781">
        <ele>1669</ele>
        <time>2021-10-09T15:09:16Z</time>
      </trkpt>
      <trkpt lat="45.62443" lon="6.22782">
        <ele>1668</ele>
        <time>2021-10-09T15:09:19Z</time>
      </trkpt>
      <trkpt lat="45.62425" lon="6.22794">
        <ele>1663</ele>
        <time>2021-10-09T15:09:32Z</time>
      </trkpt>
      <trkpt lat="45.62415" lon="6.22784">
        <ele>1659</ele>
        <time>2021-10-09T15:09:48Z</time>
      </trkpt>
      <trkpt lat="45.62415" lon="6.22774">
        <ele>1657</ele>
        <time>2021-10-09T15:09:55Z</time>
      </trkpt>
      <trkpt lat="45.62413" lon="6.22766">
        <ele>1657</ele>
        <time>2021-10-09T15:10:00Z</time>
      </trkpt>
      <trkpt lat="45.62412" lon="6.22756">
        <ele>1660</ele>
        <time>2021-10-09T15:10:07Z</time>
      </trkpt>
      <trkpt lat="45.62408" lon="6.2275">
        <ele>1660</ele>
        <time>2021-10-09T15:10:11Z</time>
      </trkpt>
      <trkpt lat="45.62399" lon="6.2274">
        <ele>1661</ele>
        <time>2021-10-09T15:10:20Z</time>
      </trkpt>
      <trkpt lat="45.62397" lon="6.22733">
        <ele>1662</ele>
        <time>2021-10-09T15:10:25Z</time>
      </trkpt>
      <trkpt lat="45.62396" lon="6.22727">
        <ele>1661</ele>
        <time>2021-10-09T15:10:29Z</time>
      </trkpt>
      <trkpt lat="45.62396" lon="6.22719">
        <ele>1660</ele>
        <time>2021-10-09T15:10:34Z</time>
      </trkpt>
      <trkpt lat="45.62394" lon="6.22706">
        <ele>1661</ele>
        <time>2021-10-09T15:10:37Z</time>
      </trkpt>
      <trkpt lat="45.62397" lon="6.22699">
        <ele>1662</ele>
        <time>2021-10-09T15:10:39Z</time>
      </trkpt>
      <trkpt lat="45.62396" lon="6.22693">
        <ele>1662</ele>
        <time>2021-10-09T15:10:41Z</time>
      </trkpt>
      <trkpt lat="45.62394" lon="6.2268">
        <ele>1662</ele>
        <time>2021-10-09T15:10:45Z</time>
      </trkpt>
      <trkpt lat="45.62391" lon="6.22664">
        <ele>1660</ele>
        <time>2021-10-09T15:10:51Z</time>
      </trkpt>
      <trkpt lat="45.62388" lon="6.22658">
        <ele>1662</ele>
        <time>2021-10-09T15:10:56Z</time>
      </trkpt>
      <trkpt lat="45.62386" lon="6.22651">
        <ele>1660</ele>
        <time>2021-10-09T15:10:59Z</time>
      </trkpt>
      <trkpt lat="45.62385" lon="6.22646">
        <ele>1660</ele>
        <time>2021-10-09T15:11:02Z</time>
      </trkpt>
      <trkpt lat="45.62381" lon="6.22639">
        <ele>1660</ele>
        <time>2021-10-09T15:11:08Z</time>
      </trkpt>
      <trkpt lat="45.62378" lon="6.22631">
        <ele>1663</ele>
        <time>2021-10-09T15:11:13Z</time>
      </trkpt>
      <trkpt lat="45.62376" lon="6.22626">
        <ele>1661</ele>
        <time>2021-10-09T15:11:16Z</time>
      </trkpt>
      <trkpt lat="45.62373" lon="6.22619">
        <ele>1661</ele>
        <time>2021-10-09T15:11:20Z</time>
      </trkpt>
      <trkpt lat="45.62373" lon="6.22613">
        <ele>1660</ele>
        <time>2021-10-09T15:11:23Z</time>
      </trkpt>
      <trkpt lat="45.62372" lon="6.22608">
        <ele>1660</ele>
        <time>2021-10-09T15:11:27Z</time>
      </trkpt>
      <trkpt lat="45.62372" lon="6.22602">
        <ele>1660</ele>
        <time>2021-10-09T15:11:30Z</time>
      </trkpt>
      <trkpt lat="45.62371" lon="6.22594">
        <ele>1658</ele>
        <time>2021-10-09T15:11:35Z</time>
      </trkpt>
      <trkpt lat="45.62372" lon="6.22587">
        <ele>1658</ele>
        <time>2021-10-09T15:11:38Z</time>
      </trkpt>
      <trkpt lat="45.62372" lon="6.22581">
        <ele>1658</ele>
        <time>2021-10-09T15:11:42Z</time>
      </trkpt>
      <trkpt lat="45.62376" lon="6.22561">
        <ele>1655</ele>
        <time>2021-10-09T15:11:51Z</time>
      </trkpt>
      <trkpt lat="45.62374" lon="6.22554">
        <ele>1654</ele>
        <time>2021-10-09T15:11:55Z</time>
      </trkpt>
      <trkpt lat="45.62373" lon="6.22543">
        <ele>1652</ele>
        <time>2021-10-09T15:11:59Z</time>
      </trkpt>
      <trkpt lat="45.62376" lon="6.2253">
        <ele>1650</ele>
        <time>2021-10-09T15:12:05Z</time>
      </trkpt>
      <trkpt lat="45.62375" lon="6.22522">
        <ele>1648</ele>
        <time>2021-10-09T15:12:09Z</time>
      </trkpt>
      <trkpt lat="45.6237" lon="6.22455">
        <ele>1641</ele>
        <time>2021-10-09T15:12:37Z</time>
      </trkpt>
      <trkpt lat="45.62366" lon="6.22445">
        <ele>1640</ele>
        <time>2021-10-09T15:12:41Z</time>
      </trkpt>
      <trkpt lat="45.62363" lon="6.22441">
        <ele>1639</ele>
        <time>2021-10-09T15:12:44Z</time>
      </trkpt>
      <trkpt lat="45.62362" lon="6.22435">
        <ele>1639</ele>
        <time>2021-10-09T15:12:47Z</time>
      </trkpt>
      <trkpt lat="45.62357" lon="6.22432">
        <ele>1638</ele>
        <time>2021-10-09T15:12:50Z</time>
      </trkpt>
      <trkpt lat="45.62354" lon="6.22418">
        <ele>1635</ele>
        <time>2021-10-09T15:12:58Z</time>
      </trkpt>
      <trkpt lat="45.62356" lon="6.22373">
        <ele>1628</ele>
        <time>2021-10-09T15:13:13Z</time>
      </trkpt>
      <trkpt lat="45.62349" lon="6.22335">
        <ele>1619</ele>
        <time>2021-10-09T15:13:33Z</time>
      </trkpt>
      <trkpt lat="45.62345" lon="6.22329">
        <ele>1618</ele>
        <time>2021-10-09T15:13:36Z</time>
      </trkpt>
      <trkpt lat="45.6234" lon="6.22324">
        <ele>1618</ele>
        <time>2021-10-09T15:13:39Z</time>
      </trkpt>
      <trkpt lat="45.62332" lon="6.22319">
        <ele>1615</ele>
        <time>2021-10-09T15:13:44Z</time>
      </trkpt>
      <trkpt lat="45.62328" lon="6.22314">
        <ele>1615</ele>
        <time>2021-10-09T15:13:47Z</time>
      </trkpt>
      <trkpt lat="45.62324" lon="6.22313">
        <ele>1614</ele>
        <time>2021-10-09T15:13:50Z</time>
      </trkpt>
      <trkpt lat="45.62321" lon="6.22309">
        <ele>1613</ele>
        <time>2021-10-09T15:13:52Z</time>
      </trkpt>
      <trkpt lat="45.62305" lon="6.22295">
        <ele>1607</ele>
        <time>2021-10-09T15:14:06Z</time>
      </trkpt>
      <trkpt lat="45.62289" lon="6.22265">
        <ele>1600</ele>
        <time>2021-10-09T15:14:26Z</time>
      </trkpt>
      <trkpt lat="45.62305" lon="6.22272">
        <ele>1594</ele>
        <time>2021-10-09T15:14:43Z</time>
      </trkpt>
      <trkpt lat="45.62312" lon="6.22275">
        <ele>1593</ele>
        <time>2021-10-09T15:14:47Z</time>
      </trkpt>
      <trkpt lat="45.62319" lon="6.22274">
        <ele>1591</ele>
        <time>2021-10-09T15:14:53Z</time>
      </trkpt>
      <trkpt lat="45.62324" lon="6.22272">
        <ele>1591</ele>
        <time>2021-10-09T15:14:56Z</time>
      </trkpt>
      <trkpt lat="45.6234" lon="6.22262">
        <ele>1586</ele>
        <time>2021-10-09T15:15:09Z</time>
      </trkpt>
      <trkpt lat="45.62352" lon="6.2226">
        <ele>1583</ele>
        <time>2021-10-09T15:15:18Z</time>
      </trkpt>
      <trkpt lat="45.62378" lon="6.22229">
        <ele>1570</ele>
        <time>2021-10-09T15:15:56Z</time>
      </trkpt>
      <trkpt lat="45.62389" lon="6.22225">
        <ele>1568</ele>
        <time>2021-10-09T15:16:03Z</time>
      </trkpt>
      <trkpt lat="45.62392" lon="6.22218">
        <ele>1566</ele>
        <time>2021-10-09T15:16:08Z</time>
      </trkpt>
      <trkpt lat="45.62393" lon="6.2221">
        <ele>1565</ele>
        <time>2021-10-09T15:16:12Z</time>
      </trkpt>
      <trkpt lat="45.62403" lon="6.2219">
        <ele>1560</ele>
        <time>2021-10-09T15:16:31Z</time>
      </trkpt>
      <trkpt lat="45.62416" lon="6.22182">
        <ele>1557</ele>
        <time>2021-10-09T15:16:44Z</time>
      </trkpt>
      <trkpt lat="45.62423" lon="6.22182">
        <ele>1554</ele>
        <time>2021-10-09T15:16:50Z</time>
      </trkpt>
      <trkpt lat="45.62428" lon="6.22183">
        <ele>1555</ele>
        <time>2021-10-09T15:16:54Z</time>
      </trkpt>
      <trkpt lat="45.6243" lon="6.22173">
        <ele>1553</ele>
        <time>2021-10-09T15:16:59Z</time>
      </trkpt>
      <trkpt lat="45.62429" lon="6.22167">
        <ele>1551</ele>
        <time>2021-10-09T15:17:02Z</time>
      </trkpt>
      <trkpt lat="45.62427" lon="6.22163">
        <ele>1551</ele>
        <time>2021-10-09T15:17:04Z</time>
      </trkpt>
      <trkpt lat="45.62421" lon="6.22155">
        <ele>1549</ele>
        <time>2021-10-09T15:17:09Z</time>
      </trkpt>
      <trkpt lat="45.62416" lon="6.22154">
        <ele>1548</ele>
        <time>2021-10-09T15:17:12Z</time>
      </trkpt>
      <trkpt lat="45.62413" lon="6.2215">
        <ele>1548</ele>
        <time>2021-10-09T15:17:14Z</time>
      </trkpt>
      <trkpt lat="45.62404" lon="6.22148">
        <ele>1546</ele>
        <time>2021-10-09T15:17:22Z</time>
      </trkpt>
      <trkpt lat="45.62397" lon="6.2215">
        <ele>1545</ele>
        <time>2021-10-09T15:17:26Z</time>
      </trkpt>
      <trkpt lat="45.62392" lon="6.22154">
        <ele>1544</ele>
        <time>2021-10-09T15:17:30Z</time>
      </trkpt>
      <trkpt lat="45.6239" lon="6.22162">
        <ele>1543</ele>
        <time>2021-10-09T15:17:35Z</time>
      </trkpt>
      <trkpt lat="45.62385" lon="6.22168">
        <ele>1542</ele>
        <time>2021-10-09T15:17:40Z</time>
      </trkpt>
      <trkpt lat="45.6238" lon="6.22171">
        <ele>1541</ele>
        <time>2021-10-09T15:17:44Z</time>
      </trkpt>
      <trkpt lat="45.62367" lon="6.22171">
        <ele>1538</ele>
        <time>2021-10-09T15:17:56Z</time>
      </trkpt>
      <trkpt lat="45.62361" lon="6.22171">
        <ele>1537</ele>
        <time>2021-10-09T15:18:01Z</time>
      </trkpt>
      <trkpt lat="45.62356" lon="6.22168">
        <ele>1536</ele>
        <time>2021-10-09T15:18:06Z</time>
      </trkpt>
      <trkpt lat="45.6235" lon="6.22162">
        <ele>1533</ele>
        <time>2021-10-09T15:18:15Z</time>
      </trkpt>
      <trkpt lat="45.62343" lon="6.22154">
        <ele>1530</ele>
        <time>2021-10-09T15:18:26Z</time>
      </trkpt>
      <trkpt lat="45.62336" lon="6.22148">
        <ele>1528</ele>
        <time>2021-10-09T15:18:34Z</time>
      </trkpt>
      <trkpt lat="45.62332" lon="6.22143">
        <ele>1526</ele>
        <time>2021-10-09T15:18:41Z</time>
      </trkpt>
      <trkpt lat="45.62326" lon="6.22129">
        <ele>1524</ele>
        <time>2021-10-09T15:18:47Z</time>
      </trkpt>
      <trkpt lat="45.62311" lon="6.22112">
        <ele>1519</ele>
        <time>2021-10-09T15:19:00Z</time>
      </trkpt>
      <trkpt lat="45.62307" lon="6.2211">
        <ele>1518</ele>
        <time>2021-10-09T15:19:03Z</time>
      </trkpt>
      <trkpt lat="45.62304" lon="6.22106">
        <ele>1517</ele>
        <time>2021-10-09T15:19:06Z</time>
      </trkpt>
      <trkpt lat="45.62303" lon="6.22097">
        <ele>1514</ele>
        <time>2021-10-09T15:19:11Z</time>
      </trkpt>
      <trkpt lat="45.623" lon="6.22092">
        <ele>1513</ele>
        <time>2021-10-09T15:19:15Z</time>
      </trkpt>
      <trkpt lat="45.62295" lon="6.22089">
        <ele>1511</ele>
        <time>2021-10-09T15:19:19Z</time>
      </trkpt>
      <trkpt lat="45.62293" lon="6.22085">
        <ele>1510</ele>
        <time>2021-10-09T15:19:22Z</time>
      </trkpt>
      <trkpt lat="45.62287" lon="6.2208">
        <ele>1509</ele>
        <time>2021-10-09T15:19:27Z</time>
      </trkpt>
      <trkpt lat="45.62286" lon="6.22075">
        <ele>1508</ele>
        <time>2021-10-09T15:19:29Z</time>
      </trkpt>
      <trkpt lat="45.62296" lon="6.22081">
        <ele>1503</ele>
        <time>2021-10-09T15:19:43Z</time>
      </trkpt>
      <trkpt lat="45.62302" lon="6.2208">
        <ele>1502</ele>
        <time>2021-10-09T15:19:48Z</time>
      </trkpt>
      <trkpt lat="45.6231" lon="6.22081">
        <ele>1500</ele>
        <time>2021-10-09T15:19:52Z</time>
      </trkpt>
      <trkpt lat="45.62333" lon="6.22075">
        <ele>1496</ele>
        <time>2021-10-09T15:20:09Z</time>
      </trkpt>
      <trkpt lat="45.62339" lon="6.22073">
        <ele>1496</ele>
        <time>2021-10-09T15:20:12Z</time>
      </trkpt>
      <trkpt lat="45.62344" lon="6.22073">
        <ele>1495</ele>
        <time>2021-10-09T15:20:16Z</time>
      </trkpt>
      <trkpt lat="45.62351" lon="6.22072">
        <ele>1493</ele>
        <time>2021-10-09T15:20:23Z</time>
      </trkpt>
      <trkpt lat="45.62365" lon="6.22063">
        <ele>1486</ele>
        <time>2021-10-09T15:20:41Z</time>
      </trkpt>
      <trkpt lat="45.62372" lon="6.22062">
        <ele>1485</ele>
        <time>2021-10-09T15:20:46Z</time>
      </trkpt>
      <trkpt lat="45.62377" lon="6.22058">
        <ele>1483</ele>
        <time>2021-10-09T15:20:51Z</time>
      </trkpt>
      <trkpt lat="45.62375" lon="6.22049">
        <ele>1481</ele>
        <time>2021-10-09T15:20:57Z</time>
      </trkpt>
      <trkpt lat="45.62357" lon="6.22039">
        <ele>1478</ele>
        <time>2021-10-09T15:21:09Z</time>
      </trkpt>
      <trkpt lat="45.62353" lon="6.22034">
        <ele>1477</ele>
        <time>2021-10-09T15:21:13Z</time>
      </trkpt>
      <trkpt lat="45.62347" lon="6.2203">
        <ele>1475</ele>
        <time>2021-10-09T15:21:18Z</time>
      </trkpt>
      <trkpt lat="45.62336" lon="6.22028">
        <ele>1474</ele>
        <time>2021-10-09T15:21:25Z</time>
      </trkpt>
      <trkpt lat="45.62318" lon="6.22004">
        <ele>1468</ele>
        <time>2021-10-09T15:21:46Z</time>
      </trkpt>
      <trkpt lat="45.62311" lon="6.21999">
        <ele>1466</ele>
        <time>2021-10-09T15:21:54Z</time>
      </trkpt>
      <trkpt lat="45.62305" lon="6.21985">
        <ele>1463</ele>
        <time>2021-10-09T15:22:06Z</time>
      </trkpt>
      <trkpt lat="45.62294" lon="6.21973">
        <ele>1459</ele>
        <time>2021-10-09T15:22:20Z</time>
      </trkpt>
      <trkpt lat="45.62286" lon="6.2196">
        <ele>1456</ele>
        <time>2021-10-09T15:22:30Z</time>
      </trkpt>
      <trkpt lat="45.62315" lon="6.21963">
        <ele>1449</ele>
        <time>2021-10-09T15:22:57Z</time>
      </trkpt>
      <trkpt lat="45.62322" lon="6.2196">
        <ele>1448</ele>
        <time>2021-10-09T15:23:01Z</time>
      </trkpt>
      <trkpt lat="45.62351" lon="6.21957">
        <ele>1443</ele>
        <time>2021-10-09T15:23:22Z</time>
      </trkpt>
      <trkpt lat="45.62359" lon="6.21953">
        <ele>1440</ele>
        <time>2021-10-09T15:23:31Z</time>
      </trkpt>
      <trkpt lat="45.62364" lon="6.21942">
        <ele>1438</ele>
        <time>2021-10-09T15:23:40Z</time>
      </trkpt>
      <trkpt lat="45.62381" lon="6.21921">
        <ele>1429</ele>
        <time>2021-10-09T15:24:06Z</time>
      </trkpt>
      <trkpt lat="45.62345" lon="6.21902">
        <ele>1421</ele>
        <time>2021-10-09T15:24:42Z</time>
      </trkpt>
      <trkpt lat="45.62339" lon="6.21898">
        <ele>1420</ele>
        <time>2021-10-09T15:24:45Z</time>
      </trkpt>
      <trkpt lat="45.62332" lon="6.21892">
        <ele>1419</ele>
        <time>2021-10-09T15:24:49Z</time>
      </trkpt>
      <trkpt lat="45.62318" lon="6.21879">
        <ele>1416</ele>
        <time>2021-10-09T15:24:58Z</time>
      </trkpt>
      <trkpt lat="45.62305" lon="6.21864">
        <ele>1412</ele>
        <time>2021-10-09T15:25:08Z</time>
      </trkpt>
      <trkpt lat="45.62295" lon="6.21858">
        <ele>1409</ele>
        <time>2021-10-09T15:25:17Z</time>
      </trkpt>
      <trkpt lat="45.62293" lon="6.2185">
        <ele>1406</ele>
        <time>2021-10-09T15:25:24Z</time>
      </trkpt>
      <trkpt lat="45.62293" lon="6.21841">
        <ele>1405</ele>
        <time>2021-10-09T15:25:30Z</time>
      </trkpt>
      <trkpt lat="45.62288" lon="6.21834">
        <ele>1402</ele>
        <time>2021-10-09T15:25:36Z</time>
      </trkpt>
      <trkpt lat="45.62282" lon="6.21834">
        <ele>1398</ele>
        <time>2021-10-09T15:25:50Z</time>
      </trkpt>
      <trkpt lat="45.62262" lon="6.21815">
        <ele>1390</ele>
        <time>2021-10-09T15:26:22Z</time>
      </trkpt>
      <trkpt lat="45.62258" lon="6.21806">
        <ele>1388</ele>
        <time>2021-10-09T15:26:32Z</time>
      </trkpt>
      <trkpt lat="45.62252" lon="6.21801">
        <ele>1386</ele>
        <time>2021-10-09T15:26:39Z</time>
      </trkpt>
      <trkpt lat="45.62247" lon="6.21795">
        <ele>1384</ele>
        <time>2021-10-09T15:26:44Z</time>
      </trkpt>
      <trkpt lat="45.62239" lon="6.21781">
        <ele>1384</ele>
        <time>2021-10-09T15:26:54Z</time>
      </trkpt>
      <trkpt lat="45.62235" lon="6.21776">
        <ele>1384</ele>
        <time>2021-10-09T15:26:58Z</time>
      </trkpt>
      <trkpt lat="45.62229" lon="6.21771">
        <ele>1384</ele>
        <time>2021-10-09T15:27:04Z</time>
      </trkpt>
      <trkpt lat="45.62222" lon="6.21764">
        <ele>1384</ele>
        <time>2021-10-09T15:27:08Z</time>
      </trkpt>
      <trkpt lat="45.62217" lon="6.21761">
        <ele>1384</ele>
        <time>2021-10-09T15:27:12Z</time>
      </trkpt>
      <trkpt lat="45.62203" lon="6.21739">
        <ele>1379</ele>
        <time>2021-10-09T15:27:31Z</time>
      </trkpt>
      <trkpt lat="45.62182" lon="6.21728">
        <ele>1375</ele>
        <time>2021-10-09T15:27:50Z</time>
      </trkpt>
      <trkpt lat="45.62176" lon="6.21722">
        <ele>1374</ele>
        <time>2021-10-09T15:27:55Z</time>
      </trkpt>
      <trkpt lat="45.6217" lon="6.21712">
        <ele>1373</ele>
        <time>2021-10-09T15:28:05Z</time>
      </trkpt>
      <trkpt lat="45.62166" lon="6.21705">
        <ele>1374</ele>
        <time>2021-10-09T15:28:09Z</time>
      </trkpt>
      <trkpt lat="45.62158" lon="6.217">
        <ele>1374</ele>
        <time>2021-10-09T15:28:14Z</time>
      </trkpt>
      <trkpt lat="45.62151" lon="6.21694">
        <ele>1374</ele>
        <time>2021-10-09T15:28:18Z</time>
      </trkpt>
      <trkpt lat="45.62144" lon="6.21687">
        <ele>1372</ele>
        <time>2021-10-09T15:28:24Z</time>
      </trkpt>
      <trkpt lat="45.62124" lon="6.21656">
        <ele>1368</ele>
        <time>2021-10-09T15:28:42Z</time>
      </trkpt>
      <trkpt lat="45.62116" lon="6.21649">
        <ele>1366</ele>
        <time>2021-10-09T15:28:46Z</time>
      </trkpt>
      <trkpt lat="45.6209" lon="6.21607">
        <ele>1363</ele>
        <time>2021-10-09T15:29:08Z</time>
      </trkpt>
      <trkpt lat="45.62065" lon="6.21574">
        <ele>1353</ele>
        <time>2021-10-09T15:29:41Z</time>
      </trkpt>
      <trkpt lat="45.62052" lon="6.21567">
        <ele>1348</ele>
        <time>2021-10-09T15:29:57Z</time>
      </trkpt>
      <trkpt lat="45.62028" lon="6.2156">
        <ele>1343</ele>
        <time>2021-10-09T15:30:10Z</time>
      </trkpt>
      <trkpt lat="45.62044" lon="6.21545">
        <ele>1334</ele>
        <time>2021-10-09T15:30:40Z</time>
      </trkpt>
      <trkpt lat="45.62062" lon="6.21532">
        <ele>1327</ele>
        <time>2021-10-09T15:31:03Z</time>
      </trkpt>
      <trkpt lat="45.62088" lon="6.21533">
        <ele>1318</ele>
        <time>2021-10-09T15:31:31Z</time>
      </trkpt>
      <trkpt lat="45.62101" lon="6.21543">
        <ele>1313</ele>
        <time>2021-10-09T15:31:46Z</time>
      </trkpt>
      <trkpt lat="45.62132" lon="6.21554">
        <ele>1299</ele>
        <time>2021-10-09T15:32:29Z</time>
      </trkpt>
      <trkpt lat="45.62178" lon="6.21548">
        <ele>1281</ele>
        <time>2021-10-09T15:33:26Z</time>
      </trkpt>
      <trkpt lat="45.622" lon="6.21554">
        <ele>1271</ele>
        <time>2021-10-09T15:33:58Z</time>
      </trkpt>
      <trkpt lat="45.62237" lon="6.21548">
        <ele>1261</ele>
        <time>2021-10-09T15:34:37Z</time>
      </trkpt>
      <trkpt lat="45.62246" lon="6.21544">
        <ele>1257</ele>
        <time>2021-10-09T15:34:50Z</time>
      </trkpt>
      <trkpt lat="45.62255" lon="6.21542">
        <ele>1254</ele>
        <time>2021-10-09T15:34:59Z</time>
      </trkpt>
      <trkpt lat="45.6226" lon="6.21544">
        <ele>1250</ele>
        <time>2021-10-09T15:35:14Z</time>
      </trkpt>
      <trkpt lat="45.6227" lon="6.2154">
        <ele>1246</ele>
        <time>2021-10-09T15:35:28Z</time>
      </trkpt>
      <trkpt lat="45.62275" lon="6.21538">
        <ele>1245</ele>
        <time>2021-10-09T15:35:34Z</time>
      </trkpt>
      <trkpt lat="45.62301" lon="6.2153">
        <ele>1236</ele>
        <time>2021-10-09T15:36:04Z</time>
      </trkpt>
      <trkpt lat="45.62307" lon="6.21522">
        <ele>1234</ele>
        <time>2021-10-09T15:36:11Z</time>
      </trkpt>
      <trkpt lat="45.62315" lon="6.21524">
        <ele>1230</ele>
        <time>2021-10-09T15:36:24Z</time>
      </trkpt>
      <trkpt lat="45.6232" lon="6.21519">
        <ele>1230</ele>
        <time>2021-10-09T15:36:30Z</time>
      </trkpt>
      <trkpt lat="45.62326" lon="6.21516">
        <ele>1228</ele>
        <time>2021-10-09T15:36:43Z</time>
      </trkpt>
      <trkpt lat="45.6233" lon="6.21508">
        <ele>1226</ele>
        <time>2021-10-09T15:36:48Z</time>
      </trkpt>
      <trkpt lat="45.62333" lon="6.21499">
        <ele>1224</ele>
        <time>2021-10-09T15:36:58Z</time>
      </trkpt>
      <trkpt lat="45.62348" lon="6.21487">
        <ele>1218</ele>
        <time>2021-10-09T15:37:17Z</time>
      </trkpt>
      <trkpt lat="45.62352" lon="6.21477">
        <ele>1214</ele>
        <time>2021-10-09T15:37:35Z</time>
      </trkpt>
      <trkpt lat="45.62357" lon="6.21473">
        <ele>1212</ele>
        <time>2021-10-09T15:37:41Z</time>
      </trkpt>
      <trkpt lat="45.62362" lon="6.21466">
        <ele>1210</ele>
        <time>2021-10-09T15:37:49Z</time>
      </trkpt>
      <trkpt lat="45.62369" lon="6.2146">
        <ele>1207</ele>
        <time>2021-10-09T15:38:00Z</time>
      </trkpt>
      <trkpt lat="45.62376" lon="6.21458">
        <ele>1205</ele>
        <time>2021-10-09T15:38:07Z</time>
      </trkpt>
      <trkpt lat="45.62392" lon="6.21443">
        <ele>1198</ele>
        <time>2021-10-09T15:38:29Z</time>
      </trkpt>
      <trkpt lat="45.624" lon="6.21441">
        <ele>1194</ele>
        <time>2021-10-09T15:38:42Z</time>
      </trkpt>
      <trkpt lat="45.6241" lon="6.2144">
        <ele>1191</ele>
        <time>2021-10-09T15:38:53Z</time>
      </trkpt>
      <trkpt lat="45.62416" lon="6.21442">
        <ele>1190</ele>
        <time>2021-10-09T15:38:57Z</time>
      </trkpt>
      <trkpt lat="45.62422" lon="6.2144">
        <ele>1189</ele>
        <time>2021-10-09T15:39:02Z</time>
      </trkpt>
      <trkpt lat="45.62429" lon="6.21436">
        <ele>1186</ele>
        <time>2021-10-09T15:39:12Z</time>
      </trkpt>
      <trkpt lat="45.62458" lon="6.21424">
        <ele>1178</ele>
        <time>2021-10-09T15:39:48Z</time>
      </trkpt>
      <trkpt lat="45.62482" lon="6.21396">
        <ele>1170</ele>
        <time>2021-10-09T15:40:23Z</time>
      </trkpt>
      <trkpt lat="45.62496" lon="6.21383">
        <ele>1167</ele>
        <time>2021-10-09T15:40:38Z</time>
      </trkpt>
      <trkpt lat="45.62501" lon="6.21373">
        <ele>1165</ele>
        <time>2021-10-09T15:40:44Z</time>
      </trkpt>
      <trkpt lat="45.62504" lon="6.21362">
        <ele>1163</ele>
        <time>2021-10-09T15:40:49Z</time>
      </trkpt>
      <trkpt lat="45.62518" lon="6.21335">
        <ele>1158</ele>
        <time>2021-10-09T15:41:05Z</time>
      </trkpt>
      <trkpt lat="45.62519" lon="6.21324">
        <ele>1156</ele>
        <time>2021-10-09T15:41:09Z</time>
      </trkpt>
      <trkpt lat="45.62525" lon="6.21317">
        <ele>1155</ele>
        <time>2021-10-09T15:41:13Z</time>
      </trkpt>
      <trkpt lat="45.62531" lon="6.21312">
        <ele>1154</ele>
        <time>2021-10-09T15:41:16Z</time>
      </trkpt>
      <trkpt lat="45.62537" lon="6.21314">
        <ele>1153</ele>
        <time>2021-10-09T15:41:18Z</time>
      </trkpt>
      <trkpt lat="45.62543" lon="6.2131">
        <ele>1153</ele>
        <time>2021-10-09T15:41:22Z</time>
      </trkpt>
      <trkpt lat="45.62562" lon="6.21286">
        <ele>1146</ele>
        <time>2021-10-09T15:41:38Z</time>
      </trkpt>
      <trkpt lat="45.62566" lon="6.21277">
        <ele>1144</ele>
        <time>2021-10-09T15:41:42Z</time>
      </trkpt>
      <trkpt lat="45.62568" lon="6.21269">
        <ele>1144</ele>
        <time>2021-10-09T15:41:45Z</time>
      </trkpt>
      <trkpt lat="45.62592" lon="6.21216">
        <ele>1131</ele>
        <time>2021-10-09T15:42:17Z</time>
      </trkpt>
      <trkpt lat="45.62592" lon="6.21208">
        <ele>1130</ele>
        <time>2021-10-09T15:42:21Z</time>
      </trkpt>
      <trkpt lat="45.62596" lon="6.212">
        <ele>1128</ele>
        <time>2021-10-09T15:42:26Z</time>
      </trkpt>
      <trkpt lat="45.62602" lon="6.21174">
        <ele>1124</ele>
        <time>2021-10-09T15:42:38Z</time>
      </trkpt>
      <trkpt lat="45.62606" lon="6.21169">
        <ele>1121</ele>
        <time>2021-10-09T15:42:43Z</time>
      </trkpt>
      <trkpt lat="45.62608" lon="6.21161">
        <ele>1119</ele>
        <time>2021-10-09T15:42:47Z</time>
      </trkpt>
      <trkpt lat="45.62614" lon="6.21153">
        <ele>1117</ele>
        <time>2021-10-09T15:43:08Z</time>
      </trkpt>
      <trkpt lat="45.62629" lon="6.21119">
        <ele>1111</ele>
        <time>2021-10-09T15:43:24Z</time>
      </trkpt>
      <trkpt lat="45.62634" lon="6.21115">
        <ele>1109</ele>
        <time>2021-10-09T15:43:28Z</time>
      </trkpt>
      <trkpt lat="45.6264" lon="6.21102">
        <ele>1106</ele>
        <time>2021-10-09T15:43:35Z</time>
      </trkpt>
      <trkpt lat="45.62656" lon="6.21089">
        <ele>1103</ele>
        <time>2021-10-09T15:43:42Z</time>
      </trkpt>
      <trkpt lat="45.62661" lon="6.21084">
        <ele>1103</ele>
        <time>2021-10-09T15:43:45Z</time>
      </trkpt>
      <trkpt lat="45.62687" lon="6.21057">
        <ele>1099</ele>
        <time>2021-10-09T15:44:00Z</time>
      </trkpt>
      <trkpt lat="45.62746" lon="6.20989">
        <ele>1091</ele>
        <time>2021-10-09T15:44:31Z</time>
      </trkpt>
      <trkpt lat="45.62781" lon="6.20943">
        <ele>1087</ele>
        <time>2021-10-09T15:44:52Z</time>
      </trkpt>
      <trkpt lat="45.62786" lon="6.20936">
        <ele>1088</ele>
        <time>2021-10-09T15:44:55Z</time>
      </trkpt>
      <trkpt lat="45.62789" lon="6.20929">
        <ele>1087</ele>
        <time>2021-10-09T15:44:58Z</time>
      </trkpt>
      <trkpt lat="45.62799" lon="6.20914">
        <ele>1086</ele>
        <time>2021-10-09T15:45:04Z</time>
      </trkpt>
      <trkpt lat="45.62824" lon="6.20891">
        <ele>1082</ele>
        <time>2021-10-09T15:45:17Z</time>
      </trkpt>
      <trkpt lat="45.62829" lon="6.20886">
        <ele>1081</ele>
        <time>2021-10-09T15:45:20Z</time>
      </trkpt>
      <trkpt lat="45.62833" lon="6.20885">
        <ele>1080</ele>
        <time>2021-10-09T15:45:22Z</time>
      </trkpt>
      <trkpt lat="45.62843" lon="6.20879">
        <ele>1079</ele>
        <time>2021-10-09T15:45:28Z</time>
      </trkpt>
      <trkpt lat="45.62863" lon="6.20863">
        <ele>1077</ele>
        <time>2021-10-09T15:45:38Z</time>
      </trkpt>
      <trkpt lat="45.62868" lon="6.20859">
        <ele>1076</ele>
        <time>2021-10-09T15:45:41Z</time>
      </trkpt>
      <trkpt lat="45.62873" lon="6.20852">
        <ele>1075</ele>
        <time>2021-10-09T15:45:44Z</time>
      </trkpt>
      <trkpt lat="45.62886" lon="6.2081">
        <ele>1072</ele>
        <time>2021-10-09T15:45:58Z</time>
      </trkpt>
      <trkpt lat="45.62924" lon="6.20761">
        <ele>1064</ele>
        <time>2021-10-09T15:46:24Z</time>
      </trkpt>
      <trkpt lat="45.62929" lon="6.20757">
        <ele>1064</ele>
        <time>2021-10-09T15:46:27Z</time>
      </trkpt>
      <trkpt lat="45.62934" lon="6.20752">
        <ele>1063</ele>
        <time>2021-10-09T15:46:30Z</time>
      </trkpt>
      <trkpt lat="45.62939" lon="6.20748">
        <ele>1062</ele>
        <time>2021-10-09T15:46:33Z</time>
      </trkpt>
      <trkpt lat="45.62965" lon="6.20717">
        <ele>1059</ele>
        <time>2021-10-09T15:46:48Z</time>
      </trkpt>
      <trkpt lat="45.6297" lon="6.20711">
        <ele>1059</ele>
        <time>2021-10-09T15:46:51Z</time>
      </trkpt>
      <trkpt lat="45.62977" lon="6.20688">
        <ele>1056</ele>
        <time>2021-10-09T15:47:02Z</time>
      </trkpt>
      <trkpt lat="45.62999" lon="6.20677">
        <ele>1052</ele>
        <time>2021-10-09T15:47:16Z</time>
      </trkpt>
      <trkpt lat="45.63008" lon="6.20674">
        <ele>1052</ele>
        <time>2021-10-09T15:47:21Z</time>
      </trkpt>
      <trkpt lat="45.63014" lon="6.20674">
        <ele>1052</ele>
        <time>2021-10-09T15:47:25Z</time>
      </trkpt>
      <trkpt lat="45.6302" lon="6.20674">
        <ele>1052</ele>
        <time>2021-10-09T15:47:28Z</time>
      </trkpt>
      <trkpt lat="45.63026" lon="6.20671">
        <ele>1052</ele>
        <time>2021-10-09T15:47:30Z</time>
      </trkpt>
      <trkpt lat="45.63034" lon="6.20661">
        <ele>1051</ele>
        <time>2021-10-09T15:47:35Z</time>
      </trkpt>
      <trkpt lat="45.63039" lon="6.20654">
        <ele>1050</ele>
        <time>2021-10-09T15:47:38Z</time>
      </trkpt>
      <trkpt lat="45.63044" lon="6.20648">
        <ele>1050</ele>
        <time>2021-10-09T15:47:40Z</time>
      </trkpt>
      <trkpt lat="45.63048" lon="6.20642">
        <ele>1049</ele>
        <time>2021-10-09T15:47:42Z</time>
      </trkpt>
      <trkpt lat="45.63052" lon="6.20636">
        <ele>1048</ele>
        <time>2021-10-09T15:47:45Z</time>
      </trkpt>
      <trkpt lat="45.63057" lon="6.20634">
        <ele>1047</ele>
        <time>2021-10-09T15:47:49Z</time>
      </trkpt>
      <trkpt lat="45.63061" lon="6.20624">
        <ele>1047</ele>
        <time>2021-10-09T15:47:55Z</time>
      </trkpt>
      <trkpt lat="45.63068" lon="6.20609">
        <ele>1046</ele>
        <time>2021-10-09T15:48:01Z</time>
      </trkpt>
      <trkpt lat="45.63083" lon="6.20585">
        <ele>1042</ele>
        <time>2021-10-09T15:48:11Z</time>
      </trkpt>
      <trkpt lat="45.63084" lon="6.20574">
        <ele>1040</ele>
        <time>2021-10-09T15:48:14Z</time>
      </trkpt>
      <trkpt lat="45.63075" lon="6.20575">
        <ele>1039</ele>
        <time>2021-10-09T15:48:18Z</time>
      </trkpt>
      <trkpt lat="45.63069" lon="6.20579">
        <ele>1039</ele>
        <time>2021-10-09T15:48:21Z</time>
      </trkpt>
      <trkpt lat="45.6306" lon="6.20587">
        <ele>1039</ele>
        <time>2021-10-09T15:48:26Z</time>
      </trkpt>
      <trkpt lat="45.63054" lon="6.20589">
        <ele>1040</ele>
        <time>2021-10-09T15:48:29Z</time>
      </trkpt>
      <trkpt lat="45.63048" lon="6.2059">
        <ele>1038</ele>
        <time>2021-10-09T15:48:34Z</time>
      </trkpt>
      <trkpt lat="45.63031" lon="6.20597">
        <ele>1035</ele>
        <time>2021-10-09T15:48:47Z</time>
      </trkpt>
      <trkpt lat="45.63017" lon="6.20595">
        <ele>1034</ele>
        <time>2021-10-09T15:48:53Z</time>
      </trkpt>
      <trkpt lat="45.6301" lon="6.20596">
        <ele>1033</ele>
        <time>2021-10-09T15:48:57Z</time>
      </trkpt>
      <trkpt lat="45.63003" lon="6.20593">
        <ele>1032</ele>
        <time>2021-10-09T15:49:00Z</time>
      </trkpt>
      <trkpt lat="45.62958" lon="6.20587">
        <ele>1025</ele>
        <time>2021-10-09T15:49:23Z</time>
      </trkpt>
      <trkpt lat="45.62949" lon="6.20584">
        <ele>1023</ele>
        <time>2021-10-09T15:49:29Z</time>
      </trkpt>
      <trkpt lat="45.62941" lon="6.20569">
        <ele>1022</ele>
        <time>2021-10-09T15:49:39Z</time>
      </trkpt>
      <trkpt lat="45.62939" lon="6.2056">
        <ele>1021</ele>
        <time>2021-10-09T15:49:42Z</time>
      </trkpt>
      <trkpt lat="45.62947" lon="6.20552">
        <ele>1018</ele>
        <time>2021-10-09T15:49:51Z</time>
      </trkpt>
      <trkpt lat="45.62952" lon="6.20555">
        <ele>1017</ele>
        <time>2021-10-09T15:49:54Z</time>
      </trkpt>
      <trkpt lat="45.62956" lon="6.20561">
        <ele>1015</ele>
        <time>2021-10-09T15:49:57Z</time>
      </trkpt>
      <trkpt lat="45.62963" lon="6.20562">
        <ele>1014</ele>
        <time>2021-10-09T15:50:01Z</time>
      </trkpt>
      <trkpt lat="45.62968" lon="6.20558">
        <ele>1013</ele>
        <time>2021-10-09T15:50:04Z</time>
      </trkpt>
      <trkpt lat="45.62991" lon="6.20527">
        <ele>1007</ele>
        <time>2021-10-09T15:50:21Z</time>
      </trkpt>
      <trkpt lat="45.63005" lon="6.20497">
        <ele>1002</ele>
        <time>2021-10-09T15:50:35Z</time>
      </trkpt>
      <trkpt lat="45.6301" lon="6.20495">
        <ele>1002</ele>
        <time>2021-10-09T15:50:38Z</time>
      </trkpt>
      <trkpt lat="45.63026" lon="6.20482">
        <ele>999</ele>
        <time>2021-10-09T15:50:47Z</time>
      </trkpt>
      <trkpt lat="45.63052" lon="6.20461">
        <ele>997</ele>
        <time>2021-10-09T15:51:01Z</time>
      </trkpt>
      <trkpt lat="45.63058" lon="6.20455">
        <ele>995</ele>
        <time>2021-10-09T15:51:05Z</time>
      </trkpt>
      <trkpt lat="45.6308" lon="6.20405">
        <ele>991</ele>
        <time>2021-10-09T15:51:26Z</time>
      </trkpt>
      <trkpt lat="45.63086" lon="6.20382">
        <ele>990</ele>
        <time>2021-10-09T15:51:34Z</time>
      </trkpt>
      <trkpt lat="45.63115" lon="6.20332">
        <ele>984</ele>
        <time>2021-10-09T15:51:56Z</time>
      </trkpt>
      <trkpt lat="45.6312" lon="6.20329">
        <ele>984</ele>
        <time>2021-10-09T15:51:58Z</time>
      </trkpt>
      <trkpt lat="45.63149" lon="6.2031">
        <ele>980</ele>
        <time>2021-10-09T15:52:15Z</time>
      </trkpt>
      <trkpt lat="45.63153" lon="6.20304">
        <ele>979</ele>
        <time>2021-10-09T15:52:19Z</time>
      </trkpt>
      <trkpt lat="45.63158" lon="6.203">
        <ele>978</ele>
        <time>2021-10-09T15:52:23Z</time>
      </trkpt>
      <trkpt lat="45.63171" lon="6.20283">
        <ele>975</ele>
        <time>2021-10-09T15:52:34Z</time>
      </trkpt>
      <trkpt lat="45.6318" lon="6.20265">
        <ele>972</ele>
        <time>2021-10-09T15:52:43Z</time>
      </trkpt>
      <trkpt lat="45.63185" lon="6.20256">
        <ele>970</ele>
        <time>2021-10-09T15:52:48Z</time>
      </trkpt>
      <trkpt lat="45.63188" lon="6.20247">
        <ele>967</ele>
        <time>2021-10-09T15:52:55Z</time>
      </trkpt>
      <trkpt lat="45.63189" lon="6.20235">
        <ele>964</ele>
        <time>2021-10-09T15:53:02Z</time>
      </trkpt>
      <trkpt lat="45.63194" lon="6.2021">
        <ele>957</ele>
        <time>2021-10-09T15:53:19Z</time>
      </trkpt>
      <trkpt lat="45.63222" lon="6.20187">
        <ele>948</ele>
        <time>2021-10-09T15:53:47Z</time>
      </trkpt>
      <trkpt lat="45.63229" lon="6.20166">
        <ele>942</ele>
        <time>2021-10-09T15:54:09Z</time>
      </trkpt>
      <trkpt lat="45.6323" lon="6.20118">
        <ele>936</ele>
        <time>2021-10-09T15:54:30Z</time>
      </trkpt>
      <trkpt lat="45.63237" lon="6.20097">
        <ele>934</ele>
        <time>2021-10-09T15:54:38Z</time>
      </trkpt>
      <trkpt lat="45.63255" lon="6.20063">
        <ele>931</ele>
        <time>2021-10-09T15:54:56Z</time>
      </trkpt>
      <trkpt lat="45.63263" lon="6.20045">
        <ele>926</ele>
        <time>2021-10-09T15:55:07Z</time>
      </trkpt>
      <trkpt lat="45.63273" lon="6.20027">
        <ele>926</ele>
        <time>2021-10-09T15:55:16Z</time>
      </trkpt>
      <trkpt lat="45.6328" lon="6.20007">
        <ele>922</ele>
        <time>2021-10-09T15:55:25Z</time>
      </trkpt>
      <trkpt lat="45.63289" lon="6.19988">
        <ele>920</ele>
        <time>2021-10-09T15:55:31Z</time>
      </trkpt>
      <trkpt lat="45.63295" lon="6.19961">
        <ele>917</ele>
        <time>2021-10-09T15:55:39Z</time>
      </trkpt>
      <trkpt lat="45.63318" lon="6.19935">
        <ele>913</ele>
        <time>2021-10-09T15:55:55Z</time>
      </trkpt>
      <trkpt lat="45.63385" lon="6.19893">
        <ele>905</ele>
        <time>2021-10-09T15:56:26Z</time>
      </trkpt>
      <trkpt lat="45.63415" lon="6.19874">
        <ele>901</ele>
        <time>2021-10-09T15:56:43Z</time>
      </trkpt>
      <trkpt lat="45.63428" lon="6.1986">
        <ele>900</ele>
        <time>2021-10-09T15:56:50Z</time>
      </trkpt>
      <trkpt lat="45.63443" lon="6.19868">
        <ele>901</ele>
        <time>2021-10-09T15:56:58Z</time>
      </trkpt>
      <trkpt lat="45.63452" lon="6.19887">
        <ele>900</ele>
        <time>2021-10-09T15:57:06Z</time>
      </trkpt>
      <trkpt lat="45.63484" lon="6.19926">
        <ele>901</ele>
        <time>2021-10-09T15:57:26Z</time>
      </trkpt>
      <trkpt lat="45.63498" lon="6.19935">
        <ele>900</ele>
        <time>2021-10-09T15:57:32Z</time>
      </trkpt>
      <trkpt lat="45.63506" lon="6.1994">
        <ele>900</ele>
        <time>2021-10-09T15:57:36Z</time>
      </trkpt>
      <trkpt lat="45.63513" lon="6.19946">
        <ele>900</ele>
        <time>2021-10-09T15:57:40Z</time>
      </trkpt>
      <trkpt lat="45.63527" lon="6.19955">
        <ele>900</ele>
        <time>2021-10-09T15:57:47Z</time>
      </trkpt>
      <trkpt lat="45.6354" lon="6.19968">
        <ele>900</ele>
        <time>2021-10-09T15:57:54Z</time>
      </trkpt>
      <trkpt lat="45.63562" lon="6.19992">
        <ele>900</ele>
        <time>2021-10-09T15:58:07Z</time>
      </trkpt>
      <trkpt lat="45.63592" lon="6.20013">
        <ele>901</ele>
        <time>2021-10-09T15:58:25Z</time>
      </trkpt>
      <trkpt lat="45.63648" lon="6.20041">
        <ele>903</ele>
        <time>2021-10-09T15:58:59Z</time>
      </trkpt>
      <trkpt lat="45.63666" lon="6.20075">
        <ele>902</ele>
        <time>2021-10-09T15:59:19Z</time>
      </trkpt>
      <trkpt lat="45.63682" lon="6.20094">
        <ele>900</ele>
        <time>2021-10-09T15:59:29Z</time>
      </trkpt>
      <trkpt lat="45.6373" lon="6.20163">
        <ele>890</ele>
        <time>2021-10-09T16:00:03Z</time>
      </trkpt>
      <trkpt lat="45.63739" lon="6.20179">
        <ele>888</ele>
        <time>2021-10-09T16:00:11Z</time>
      </trkpt>
      <trkpt lat="45.63769" lon="6.2024">
        <ele>882</ele>
        <time>2021-10-09T16:00:36Z</time>
      </trkpt>
      <trkpt lat="45.63787" lon="6.20274">
        <ele>878</ele>
        <time>2021-10-09T16:00:51Z</time>
      </trkpt>
      <trkpt lat="45.63829" lon="6.20339">
        <ele>870</ele>
        <time>2021-10-09T16:01:20Z</time>
      </trkpt>
      <trkpt lat="45.63851" lon="6.20371">
        <ele>867</ele>
        <time>2021-10-09T16:01:32Z</time>
      </trkpt>
      <trkpt lat="45.63838" lon="6.20353">
        <ele>862</ele>
        <time>2021-10-09T16:03:15Z</time>
      </trkpt>
      <trkpt lat="45.63774" lon="6.20137">
        <ele>848</ele>
        <time>2021-10-09T16:03:36Z</time>
      </trkpt>
      <trkpt lat="45.63645" lon="6.19814">
        <ele>840</ele>
        <time>2021-10-09T16:04:04Z</time>
      </trkpt>
      <trkpt lat="45.63635" lon="6.19773">
        <ele>836</ele>
        <time>2021-10-09T16:04:08Z</time>
      </trkpt>
      <trkpt lat="45.63653" lon="6.19731">
        <ele>833</ele>
        <time>2021-10-09T16:04:12Z</time>
      </trkpt>
      <trkpt lat="45.63669" lon="6.1969">
        <ele>829</ele>
        <time>2021-10-09T16:04:16Z</time>
      </trkpt>
      <trkpt lat="45.63657" lon="6.19551">
        <ele>822</ele>
        <time>2021-10-09T16:04:26Z</time>
      </trkpt>
      <trkpt lat="45.63657" lon="6.19509">
        <ele>821</ele>
        <time>2021-10-09T16:04:29Z</time>
      </trkpt>
      <trkpt lat="45.63676" lon="6.19423">
        <ele>818</ele>
        <time>2021-10-09T16:04:36Z</time>
      </trkpt>
      <trkpt lat="45.63692" lon="6.19378">
        <ele>815</ele>
        <time>2021-10-09T16:04:40Z</time>
      </trkpt>
      <trkpt lat="45.63707" lon="6.19342">
        <ele>814</ele>
        <time>2021-10-09T16:04:43Z</time>
      </trkpt>
      <trkpt lat="45.63782" lon="6.19252">
        <ele>811</ele>
        <time>2021-10-09T16:04:52Z</time>
      </trkpt>
    </trkseg>
  </trk>
  <trk>
    <name><![CDATA[2 oct. 2021 à 10:01:51]]></name>
    <cmt><![CDATA[2 oct. 2021 à 10:01:51]]></cmt>
    <trkseg>
      <trkpt lat="45.38189" lon="6.73615">
        <ele>1657</ele>
        <time>2021-10-02T08:01:51Z</time>
      </trkpt>
      <trkpt lat="45.3821" lon="6.73604">
        <ele>1657</ele>
        <time>2021-10-02T08:01:59Z</time>
      </trkpt>
      <trkpt lat="45.38231" lon="6.73636">
        <ele>1668</ele>
        <time>2021-10-02T08:05:40Z</time>
      </trkpt>
      <trkpt lat="45.38256" lon="6.73677">
        <ele>1676</ele>
        <time>2021-10-02T08:06:28Z</time>
      </trkpt>
      <trkpt lat="45.38278" lon="6.7371">
        <ele>1684</ele>
        <time>2021-10-02T08:07:10Z</time>
      </trkpt>
      <trkpt lat="45.38296" lon="6.73745">
        <ele>1689</ele>
        <time>2021-10-02T08:07:51Z</time>
      </trkpt>
      <trkpt lat="45.38337" lon="6.73794">
        <ele>1699</ele>
        <time>2021-10-02T08:08:53Z</time>
      </trkpt>
      <trkpt lat="45.38352" lon="6.73838">
        <ele>1707</ele>
        <time>2021-10-02T08:09:40Z</time>
      </trkpt>
      <trkpt lat="45.38368" lon="6.73875">
        <ele>1715</ele>
        <time>2021-10-02T08:10:25Z</time>
      </trkpt>
      <trkpt lat="45.38381" lon="6.73916">
        <ele>1721</ele>
        <time>2021-10-02T08:11:04Z</time>
      </trkpt>
      <trkpt lat="45.38388" lon="6.73958">
        <ele>1728</ele>
        <time>2021-10-02T08:11:52Z</time>
      </trkpt>
      <trkpt lat="45.38411" lon="6.73988">
        <ele>1734</ele>
        <time>2021-10-02T08:12:28Z</time>
      </trkpt>
      <trkpt lat="45.38433" lon="6.74023">
        <ele>1740</ele>
        <time>2021-10-02T08:13:16Z</time>
      </trkpt>
      <trkpt lat="45.38445" lon="6.74039">
        <ele>1743</ele>
        <time>2021-10-02T08:13:37Z</time>
      </trkpt>
      <trkpt lat="45.38467" lon="6.74044">
        <ele>1749</ele>
        <time>2021-10-02T08:14:15Z</time>
      </trkpt>
      <trkpt lat="45.38492" lon="6.74077">
        <ele>1760</ele>
        <time>2021-10-02T08:15:24Z</time>
      </trkpt>
      <trkpt lat="45.38515" lon="6.74108">
        <ele>1769</ele>
        <time>2021-10-02T08:16:34Z</time>
      </trkpt>
      <trkpt lat="45.38538" lon="6.7414">
        <ele>1775</ele>
        <time>2021-10-02T08:17:20Z</time>
      </trkpt>
      <trkpt lat="45.38557" lon="6.74174">
        <ele>1778</ele>
        <time>2021-10-02T08:18:03Z</time>
      </trkpt>
      <trkpt lat="45.38549" lon="6.7419">
        <ele>1779</ele>
        <time>2021-10-02T08:20:28Z</time>
      </trkpt>
      <trkpt lat="45.3856" lon="6.7421">
        <ele>1782</ele>
        <time>2021-10-02T08:21:14Z</time>
      </trkpt>
      <trkpt lat="45.38592" lon="6.74269">
        <ele>1792</ele>
        <time>2021-10-02T08:22:30Z</time>
      </trkpt>
      <trkpt lat="45.3861" lon="6.74274">
        <ele>1798</ele>
        <time>2021-10-02T08:23:00Z</time>
      </trkpt>
      <trkpt lat="45.38614" lon="6.74256">
        <ele>1799</ele>
        <time>2021-10-02T08:23:15Z</time>
      </trkpt>
      <trkpt lat="45.38642" lon="6.74271">
        <ele>1810</ele>
        <time>2021-10-02T08:24:30Z</time>
      </trkpt>
      <trkpt lat="45.38656" lon="6.74314">
        <ele>1819</ele>
        <time>2021-10-02T08:25:35Z</time>
      </trkpt>
      <trkpt lat="45.38674" lon="6.74352">
        <ele>1831</ele>
        <time>2021-10-02T08:26:45Z</time>
      </trkpt>
      <trkpt lat="45.38691" lon="6.74385">
        <ele>1841</ele>
        <time>2021-10-02T08:27:51Z</time>
      </trkpt>
      <trkpt lat="45.38708" lon="6.74427">
        <ele>1856</ele>
        <time>2021-10-02T08:29:27Z</time>
      </trkpt>
      <trkpt lat="45.38717" lon="6.74467">
        <ele>1865</ele>
        <time>2021-10-02T08:30:39Z</time>
      </trkpt>
      <trkpt lat="45.38733" lon="6.74508">
        <ele>1874</ele>
        <time>2021-10-02T08:31:55Z</time>
      </trkpt>
      <trkpt lat="45.38736" lon="6.74557">
        <ele>1882</ele>
        <time>2021-10-02T08:32:52Z</time>
      </trkpt>
      <trkpt lat="45.38755" lon="6.74593">
        <ele>1895</ele>
        <time>2021-10-02T08:34:34Z</time>
      </trkpt>
      <trkpt lat="45.3876" lon="6.74632">
        <ele>1901</ele>
        <time>2021-10-02T08:35:18Z</time>
      </trkpt>
      <trkpt lat="45.38757" lon="6.74676">
        <ele>1908</ele>
        <time>2021-10-02T08:36:07Z</time>
      </trkpt>
      <trkpt lat="45.38772" lon="6.74711">
        <ele>1918</ele>
        <time>2021-10-02T08:37:26Z</time>
      </trkpt>
      <trkpt lat="45.38788" lon="6.7475">
        <ele>1925</ele>
        <time>2021-10-02T08:38:18Z</time>
      </trkpt>
      <trkpt lat="45.38791" lon="6.74795">
        <ele>1933</ele>
        <time>2021-10-02T08:39:09Z</time>
      </trkpt>
      <trkpt lat="45.38816" lon="6.74825">
        <ele>1946</ele>
        <time>2021-10-02T08:40:30Z</time>
      </trkpt>
      <trkpt lat="45.38833" lon="6.74856">
        <ele>1951</ele>
        <time>2021-10-02T08:41:13Z</time>
      </trkpt>
      <trkpt lat="45.38853" lon="6.74887">
        <ele>1961</ele>
        <time>2021-10-02T08:42:21Z</time>
      </trkpt>
      <trkpt lat="45.38857" lon="6.74957">
        <ele>1967</ele>
        <time>2021-10-02T08:43:20Z</time>
      </trkpt>
      <trkpt lat="45.38865" lon="6.75004">
        <ele>1973</ele>
        <time>2021-10-02T08:44:00Z</time>
      </trkpt>
      <trkpt lat="45.38875" lon="6.75023">
        <ele>1975</ele>
        <time>2021-10-02T08:44:23Z</time>
      </trkpt>
      <trkpt lat="45.38886" lon="6.75042">
        <ele>1980</ele>
        <time>2021-10-02T08:44:54Z</time>
      </trkpt>
      <trkpt lat="45.38894" lon="6.75061">
        <ele>1985</ele>
        <time>2021-10-02T08:45:22Z</time>
      </trkpt>
      <trkpt lat="45.38893" lon="6.7509">
        <ele>1989</ele>
        <time>2021-10-02T08:45:50Z</time>
      </trkpt>
      <trkpt lat="45.38902" lon="6.75115">
        <ele>1993</ele>
        <time>2021-10-02T08:46:20Z</time>
      </trkpt>
      <trkpt lat="45.38915" lon="6.75158">
        <ele>1997</ele>
        <time>2021-10-02T08:47:00Z</time>
      </trkpt>
      <trkpt lat="45.38934" lon="6.75211">
        <ele>2004</ele>
        <time>2021-10-02T08:48:01Z</time>
      </trkpt>
      <trkpt lat="45.38966" lon="6.75264">
        <ele>2010</ele>
        <time>2021-10-02T08:49:02Z</time>
      </trkpt>
      <trkpt lat="45.38974" lon="6.75286">
        <ele>2013</ele>
        <time>2021-10-02T08:49:23Z</time>
      </trkpt>
      <trkpt lat="45.38989" lon="6.75343">
        <ele>2013</ele>
        <time>2021-10-02T08:50:04Z</time>
      </trkpt>
      <trkpt lat="45.38986" lon="6.75365">
        <ele>2012</ele>
        <time>2021-10-02T08:50:16Z</time>
      </trkpt>
      <trkpt lat="45.38971" lon="6.75368">
        <ele>2014</ele>
        <time>2021-10-02T08:50:37Z</time>
      </trkpt>
      <trkpt lat="45.38956" lon="6.75377">
        <ele>2015</ele>
        <time>2021-10-02T08:50:51Z</time>
      </trkpt>
      <trkpt lat="45.38963" lon="6.75406">
        <ele>2017</ele>
        <time>2021-10-02T08:51:20Z</time>
      </trkpt>
      <trkpt lat="45.3898" lon="6.75427">
        <ele>2021</ele>
        <time>2021-10-02T08:51:47Z</time>
      </trkpt>
      <trkpt lat="45.38993" lon="6.75461">
        <ele>2025</ele>
        <time>2021-10-02T08:52:20Z</time>
      </trkpt>
      <trkpt lat="45.39017" lon="6.7552">
        <ele>2026</ele>
        <time>2021-10-02T08:53:07Z</time>
      </trkpt>
      <trkpt lat="45.39037" lon="6.75555">
        <ele>2029</ele>
        <time>2021-10-02T08:53:39Z</time>
      </trkpt>
      <trkpt lat="45.39053" lon="6.75592">
        <ele>2032</ele>
        <time>2021-10-02T08:54:10Z</time>
      </trkpt>
      <trkpt lat="45.3907" lon="6.75616">
        <ele>2033</ele>
        <time>2021-10-02T08:54:33Z</time>
      </trkpt>
      <trkpt lat="45.3908" lon="6.7563">
        <ele>2032</ele>
        <time>2021-10-02T08:54:46Z</time>
      </trkpt>
      <trkpt lat="45.3909" lon="6.75645">
        <ele>2033</ele>
        <time>2021-10-02T08:54:59Z</time>
      </trkpt>
      <trkpt lat="45.39101" lon="6.7566">
        <ele>2036</ele>
        <time>2021-10-02T08:55:18Z</time>
      </trkpt>
      <trkpt lat="45.39109" lon="6.75681">
        <ele>2038</ele>
        <time>2021-10-02T08:55:34Z</time>
      </trkpt>
      <trkpt lat="45.39126" lon="6.75708">
        <ele>2041</ele>
        <time>2021-10-02T08:56:05Z</time>
      </trkpt>
      <trkpt lat="45.39146" lon="6.75743">
        <ele>2044</ele>
        <time>2021-10-02T08:56:40Z</time>
      </trkpt>
      <trkpt lat="45.39155" lon="6.75761">
        <ele>2046</ele>
        <time>2021-10-02T08:56:55Z</time>
      </trkpt>
      <trkpt lat="45.39161" lon="6.75787">
        <ele>2050</ele>
        <time>2021-10-02T08:57:27Z</time>
      </trkpt>
      <trkpt lat="45.39164" lon="6.7581">
        <ele>2052</ele>
        <time>2021-10-02T08:57:43Z</time>
      </trkpt>
      <trkpt lat="45.39189" lon="6.7587">
        <ele>2052</ele>
        <time>2021-10-02T08:58:25Z</time>
      </trkpt>
      <trkpt lat="45.39198" lon="6.75886">
        <ele>2053</ele>
        <time>2021-10-02T08:58:39Z</time>
      </trkpt>
      <trkpt lat="45.39206" lon="6.75907">
        <ele>2053</ele>
        <time>2021-10-02T08:58:57Z</time>
      </trkpt>
      <trkpt lat="45.39209" lon="6.7593">
        <ele>2055</ele>
        <time>2021-10-02T08:59:15Z</time>
      </trkpt>
      <trkpt lat="45.39224" lon="6.75967">
        <ele>2056</ele>
        <time>2021-10-02T08:59:44Z</time>
      </trkpt>
      <trkpt lat="45.39231" lon="6.76008">
        <ele>2058</ele>
        <time>2021-10-02T09:00:17Z</time>
      </trkpt>
      <trkpt lat="45.39246" lon="6.76043">
        <ele>2062</ele>
        <time>2021-10-02T09:00:45Z</time>
      </trkpt>
      <trkpt lat="45.3927" lon="6.76076">
        <ele>2067</ele>
        <time>2021-10-02T09:01:32Z</time>
      </trkpt>
      <trkpt lat="45.39289" lon="6.7611">
        <ele>2071</ele>
        <time>2021-10-02T09:02:08Z</time>
      </trkpt>
      <trkpt lat="45.39317" lon="6.76147">
        <ele>2076</ele>
        <time>2021-10-02T09:02:58Z</time>
      </trkpt>
      <trkpt lat="45.3934" lon="6.76177">
        <ele>2083</ele>
        <time>2021-10-02T09:03:47Z</time>
      </trkpt>
      <trkpt lat="45.3936" lon="6.7621">
        <ele>2090</ele>
        <time>2021-10-02T09:04:35Z</time>
      </trkpt>
      <trkpt lat="45.39385" lon="6.76235">
        <ele>2096</ele>
        <time>2021-10-02T09:05:24Z</time>
      </trkpt>
      <trkpt lat="45.39412" lon="6.76257">
        <ele>2104</ele>
        <time>2021-10-02T09:06:26Z</time>
      </trkpt>
      <trkpt lat="45.39428" lon="6.763">
        <ele>2111</ele>
        <time>2021-10-02T09:07:26Z</time>
      </trkpt>
      <trkpt lat="45.39416" lon="6.76341">
        <ele>2126</ele>
        <time>2021-10-02T09:09:35Z</time>
      </trkpt>
      <trkpt lat="45.39417" lon="6.76388">
        <ele>2134</ele>
        <time>2021-10-02T09:10:56Z</time>
      </trkpt>
      <trkpt lat="45.3943" lon="6.7643">
        <ele>2142</ele>
        <time>2021-10-02T09:12:07Z</time>
      </trkpt>
      <trkpt lat="45.39449" lon="6.76464">
        <ele>2148</ele>
        <time>2021-10-02T09:12:56Z</time>
      </trkpt>
      <trkpt lat="45.3946" lon="6.76507">
        <ele>2154</ele>
        <time>2021-10-02T09:13:55Z</time>
      </trkpt>
      <trkpt lat="45.39431" lon="6.76524">
        <ele>2165</ele>
        <time>2021-10-02T09:15:21Z</time>
      </trkpt>
      <trkpt lat="45.39451" lon="6.76556">
        <ele>2172</ele>
        <time>2021-10-02T09:16:15Z</time>
      </trkpt>
      <trkpt lat="45.39457" lon="6.7659">
        <ele>2182</ele>
        <time>2021-10-02T09:18:41Z</time>
      </trkpt>
      <trkpt lat="45.39472" lon="6.76616">
        <ele>2185</ele>
        <time>2021-10-02T09:20:26Z</time>
      </trkpt>
      <trkpt lat="45.39474" lon="6.76638">
        <ele>2191</ele>
        <time>2021-10-02T09:20:59Z</time>
      </trkpt>
      <trkpt lat="45.39478" lon="6.76659">
        <ele>2197</ele>
        <time>2021-10-02T09:21:37Z</time>
      </trkpt>
      <trkpt lat="45.39491" lon="6.76674">
        <ele>2201</ele>
        <time>2021-10-02T09:22:14Z</time>
      </trkpt>
      <trkpt lat="45.39512" lon="6.76706">
        <ele>2203</ele>
        <time>2021-10-02T09:22:39Z</time>
      </trkpt>
      <trkpt lat="45.39524" lon="6.7674">
        <ele>2207</ele>
        <time>2021-10-02T09:23:10Z</time>
      </trkpt>
      <trkpt lat="45.39555" lon="6.76734">
        <ele>2217</ele>
        <time>2021-10-02T09:24:30Z</time>
      </trkpt>
      <trkpt lat="45.39585" lon="6.76741">
        <ele>2222</ele>
        <time>2021-10-02T09:25:22Z</time>
      </trkpt>
      <trkpt lat="45.39593" lon="6.76759">
        <ele>2227</ele>
        <time>2021-10-02T09:25:59Z</time>
      </trkpt>
      <trkpt lat="45.39596" lon="6.76791">
        <ele>2235</ele>
        <time>2021-10-02T09:26:47Z</time>
      </trkpt>
      <trkpt lat="45.39601" lon="6.76813">
        <ele>2235</ele>
        <time>2021-10-02T09:27:09Z</time>
      </trkpt>
      <trkpt lat="45.3961" lon="6.7683">
        <ele>2239</ele>
        <time>2021-10-02T09:27:40Z</time>
      </trkpt>
      <trkpt lat="45.39619" lon="6.76851">
        <ele>2243</ele>
        <time>2021-10-02T09:28:09Z</time>
      </trkpt>
      <trkpt lat="45.39622" lon="6.7687">
        <ele>2247</ele>
        <time>2021-10-02T09:28:34Z</time>
      </trkpt>
      <trkpt lat="45.39634" lon="6.76888">
        <ele>2249</ele>
        <time>2021-10-02T09:28:59Z</time>
      </trkpt>
      <trkpt lat="45.39636" lon="6.76914">
        <ele>2253</ele>
        <time>2021-10-02T09:29:28Z</time>
      </trkpt>
      <trkpt lat="45.3965" lon="6.76931">
        <ele>2258</ele>
        <time>2021-10-02T09:30:07Z</time>
      </trkpt>
      <trkpt lat="45.39642" lon="6.76963">
        <ele>2262</ele>
        <time>2021-10-02T09:30:42Z</time>
      </trkpt>
      <trkpt lat="45.39654" lon="6.7698">
        <ele>2265</ele>
        <time>2021-10-02T09:31:20Z</time>
      </trkpt>
      <trkpt lat="45.39659" lon="6.77001">
        <ele>2271</ele>
        <time>2021-10-02T09:32:02Z</time>
      </trkpt>
      <trkpt lat="45.39655" lon="6.77023">
        <ele>2275</ele>
        <time>2021-10-02T09:32:44Z</time>
      </trkpt>
      <trkpt lat="45.39667" lon="6.77039">
        <ele>2280</ele>
        <time>2021-10-02T09:33:20Z</time>
      </trkpt>
      <trkpt lat="45.39678" lon="6.77058">
        <ele>2283</ele>
        <time>2021-10-02T09:33:53Z</time>
      </trkpt>
      <trkpt lat="45.39682" lon="6.77078">
        <ele>2287</ele>
        <time>2021-10-02T09:34:23Z</time>
      </trkpt>
      <trkpt lat="45.39707" lon="6.7711">
        <ele>2291</ele>
        <time>2021-10-02T09:35:19Z</time>
      </trkpt>
      <trkpt lat="45.39706" lon="6.77132">
        <ele>2294</ele>
        <time>2021-10-02T09:35:43Z</time>
      </trkpt>
      <trkpt lat="45.39712" lon="6.77182">
        <ele>2301</ele>
        <time>2021-10-02T09:36:36Z</time>
      </trkpt>
      <trkpt lat="45.39704" lon="6.77241">
        <ele>2306</ele>
        <time>2021-10-02T09:37:26Z</time>
      </trkpt>
      <trkpt lat="45.39701" lon="6.77251">
        <ele>2306</ele>
        <time>2021-10-02T09:37:38Z</time>
      </trkpt>
      <trkpt lat="45.39699" lon="6.77264">
        <ele>2307</ele>
        <time>2021-10-02T09:37:51Z</time>
      </trkpt>
      <trkpt lat="45.39692" lon="6.77279">
        <ele>2308</ele>
        <time>2021-10-02T09:38:04Z</time>
      </trkpt>
      <trkpt lat="45.39695" lon="6.77288">
        <ele>2307</ele>
        <time>2021-10-02T09:38:12Z</time>
      </trkpt>
      <trkpt lat="45.39697" lon="6.77298">
        <ele>2307</ele>
        <time>2021-10-02T09:38:18Z</time>
      </trkpt>
      <trkpt lat="45.39698" lon="6.77309">
        <ele>2308</ele>
        <time>2021-10-02T09:38:24Z</time>
      </trkpt>
      <trkpt lat="45.39704" lon="6.77317">
        <ele>2308</ele>
        <time>2021-10-02T09:38:32Z</time>
      </trkpt>
      <trkpt lat="45.39707" lon="6.77327">
        <ele>2309</ele>
        <time>2021-10-02T09:38:38Z</time>
      </trkpt>
      <trkpt lat="45.39709" lon="6.7734">
        <ele>2309</ele>
        <time>2021-10-02T09:38:49Z</time>
      </trkpt>
      <trkpt lat="45.39711" lon="6.77362">
        <ele>2309</ele>
        <time>2021-10-02T09:39:02Z</time>
      </trkpt>
      <trkpt lat="45.39716" lon="6.77373">
        <ele>2310</ele>
        <time>2021-10-02T09:39:12Z</time>
      </trkpt>
      <trkpt lat="45.39717" lon="6.77383">
        <ele>2311</ele>
        <time>2021-10-02T09:39:22Z</time>
      </trkpt>
      <trkpt lat="45.39721" lon="6.77393">
        <ele>2313</ele>
        <time>2021-10-02T09:39:30Z</time>
      </trkpt>
      <trkpt lat="45.3972" lon="6.77405">
        <ele>2314</ele>
        <time>2021-10-02T09:39:44Z</time>
      </trkpt>
      <trkpt lat="45.39723" lon="6.77426">
        <ele>2315</ele>
        <time>2021-10-02T09:39:59Z</time>
      </trkpt>
      <trkpt lat="45.3972" lon="6.77436">
        <ele>2315</ele>
        <time>2021-10-02T09:40:06Z</time>
      </trkpt>
      <trkpt lat="45.39725" lon="6.7745">
        <ele>2316</ele>
        <time>2021-10-02T09:40:22Z</time>
      </trkpt>
      <trkpt lat="45.39726" lon="6.77462">
        <ele>2317</ele>
        <time>2021-10-02T09:40:30Z</time>
      </trkpt>
      <trkpt lat="45.39736" lon="6.7748">
        <ele>2318</ele>
        <time>2021-10-02T09:40:48Z</time>
      </trkpt>
      <trkpt lat="45.39751" lon="6.77494">
        <ele>2318</ele>
        <time>2021-10-02T09:41:12Z</time>
      </trkpt>
      <trkpt lat="45.39762" lon="6.77536">
        <ele>2318</ele>
        <time>2021-10-02T09:42:34Z</time>
      </trkpt>
      <trkpt lat="45.3978" lon="6.7757">
        <ele>2318</ele>
        <time>2021-10-02T09:43:05Z</time>
      </trkpt>
      <trkpt lat="45.39806" lon="6.77653">
        <ele>2317</ele>
        <time>2021-10-02T09:43:56Z</time>
      </trkpt>
      <trkpt lat="45.39832" lon="6.77729">
        <ele>2316</ele>
        <time>2021-10-02T09:44:54Z</time>
      </trkpt>
      <trkpt lat="45.39851" lon="6.7776">
        <ele>2317</ele>
        <time>2021-10-02T09:45:26Z</time>
      </trkpt>
      <trkpt lat="45.3988" lon="6.77787">
        <ele>2321</ele>
        <time>2021-10-02T09:46:14Z</time>
      </trkpt>
      <trkpt lat="45.39908" lon="6.77772">
        <ele>2327</ele>
        <time>2021-10-02T09:47:12Z</time>
      </trkpt>
      <trkpt lat="45.39936" lon="6.77773">
        <ele>2340</ele>
        <time>2021-10-02T09:48:59Z</time>
      </trkpt>
      <trkpt lat="45.39924" lon="6.77796">
        <ele>2342</ele>
        <time>2021-10-02T09:49:26Z</time>
      </trkpt>
      <trkpt lat="45.39919" lon="6.77808">
        <ele>2343</ele>
        <time>2021-10-02T09:49:38Z</time>
      </trkpt>
      <trkpt lat="45.39918" lon="6.77819">
        <ele>2344</ele>
        <time>2021-10-02T09:49:44Z</time>
      </trkpt>
      <trkpt lat="45.3992" lon="6.77841">
        <ele>2347</ele>
        <time>2021-10-02T09:50:06Z</time>
      </trkpt>
      <trkpt lat="45.39935" lon="6.77849">
        <ele>2350</ele>
        <time>2021-10-02T09:50:33Z</time>
      </trkpt>
      <trkpt lat="45.39952" lon="6.77861">
        <ele>2352</ele>
        <time>2021-10-02T09:50:52Z</time>
      </trkpt>
      <trkpt lat="45.39965" lon="6.77874">
        <ele>2355</ele>
        <time>2021-10-02T09:51:26Z</time>
      </trkpt>
      <trkpt lat="45.39961" lon="6.77938">
        <ele>2359</ele>
        <time>2021-10-02T09:52:12Z</time>
      </trkpt>
      <trkpt lat="45.39963" lon="6.77961">
        <ele>2361</ele>
        <time>2021-10-02T09:52:34Z</time>
      </trkpt>
      <trkpt lat="45.39953" lon="6.77994">
        <ele>2362</ele>
        <time>2021-10-02T09:53:05Z</time>
      </trkpt>
      <trkpt lat="45.39937" lon="6.78049">
        <ele>2365</ele>
        <time>2021-10-02T09:53:45Z</time>
      </trkpt>
      <trkpt lat="45.39932" lon="6.78071">
        <ele>2368</ele>
        <time>2021-10-02T09:54:18Z</time>
      </trkpt>
      <trkpt lat="45.39926" lon="6.78092">
        <ele>2370</ele>
        <time>2021-10-02T09:55:04Z</time>
      </trkpt>
      <trkpt lat="45.39923" lon="6.78138">
        <ele>2378</ele>
        <time>2021-10-02T09:56:03Z</time>
      </trkpt>
      <trkpt lat="45.39917" lon="6.78184">
        <ele>2385</ele>
        <time>2021-10-02T09:57:00Z</time>
      </trkpt>
      <trkpt lat="45.3992" lon="6.78227">
        <ele>2393</ele>
        <time>2021-10-02T09:58:06Z</time>
      </trkpt>
      <trkpt lat="45.39912" lon="6.78269">
        <ele>2399</ele>
        <time>2021-10-02T09:59:06Z</time>
      </trkpt>
      <trkpt lat="45.39908" lon="6.78317">
        <ele>2406</ele>
        <time>2021-10-02T10:00:13Z</time>
      </trkpt>
      <trkpt lat="45.3991" lon="6.78364">
        <ele>2415</ele>
        <time>2021-10-02T10:01:11Z</time>
      </trkpt>
      <trkpt lat="45.39906" lon="6.78405">
        <ele>2422</ele>
        <time>2021-10-02T10:02:00Z</time>
      </trkpt>
      <trkpt lat="45.39926" lon="6.78416">
        <ele>2433</ele>
        <time>2021-10-02T10:04:11Z</time>
      </trkpt>
      <trkpt lat="45.39951" lon="6.78413">
        <ele>2442</ele>
        <time>2021-10-02T10:05:39Z</time>
      </trkpt>
      <trkpt lat="45.3995" lon="6.78435">
        <ele>2446</ele>
        <time>2021-10-02T10:06:00Z</time>
      </trkpt>
      <trkpt lat="45.39944" lon="6.78456">
        <ele>2449</ele>
        <time>2021-10-02T10:06:22Z</time>
      </trkpt>
      <trkpt lat="45.39936" lon="6.78503">
        <ele>2456</ele>
        <time>2021-10-02T10:07:22Z</time>
      </trkpt>
      <trkpt lat="45.39932" lon="6.78525">
        <ele>2457</ele>
        <time>2021-10-02T10:07:52Z</time>
      </trkpt>
      <trkpt lat="45.39926" lon="6.78553">
        <ele>2460</ele>
        <time>2021-10-02T10:08:26Z</time>
      </trkpt>
      <trkpt lat="45.39922" lon="6.78586">
        <ele>2467</ele>
        <time>2021-10-02T10:09:03Z</time>
      </trkpt>
      <trkpt lat="45.3992" lon="6.78602">
        <ele>2468</ele>
        <time>2021-10-02T10:09:17Z</time>
      </trkpt>
      <trkpt lat="45.39921" lon="6.78614">
        <ele>2470</ele>
        <time>2021-10-02T10:09:31Z</time>
      </trkpt>
      <trkpt lat="45.39919" lon="6.78625">
        <ele>2471</ele>
        <time>2021-10-02T10:09:42Z</time>
      </trkpt>
      <trkpt lat="45.39912" lon="6.78633">
        <ele>2471</ele>
        <time>2021-10-02T10:09:53Z</time>
      </trkpt>
      <trkpt lat="45.39909" lon="6.7864">
        <ele>2471</ele>
        <time>2021-10-02T10:09:58Z</time>
      </trkpt>
      <trkpt lat="45.39907" lon="6.78653">
        <ele>2473</ele>
        <time>2021-10-02T10:10:11Z</time>
      </trkpt>
      <trkpt lat="45.39902" lon="6.78662">
        <ele>2474</ele>
        <time>2021-10-02T10:10:19Z</time>
      </trkpt>
      <trkpt lat="45.399" lon="6.78669">
        <ele>2475</ele>
        <time>2021-10-02T10:10:23Z</time>
      </trkpt>
      <trkpt lat="45.39894" lon="6.78677">
        <ele>2474</ele>
        <time>2021-10-02T10:10:34Z</time>
      </trkpt>
      <trkpt lat="45.39891" lon="6.78684">
        <ele>2474</ele>
        <time>2021-10-02T10:10:41Z</time>
      </trkpt>
      <trkpt lat="45.39887" lon="6.7869">
        <ele>2475</ele>
        <time>2021-10-02T10:10:46Z</time>
      </trkpt>
      <trkpt lat="45.39882" lon="6.78704">
        <ele>2475</ele>
        <time>2021-10-02T10:10:57Z</time>
      </trkpt>
      <trkpt lat="45.39885" lon="6.78716">
        <ele>2475</ele>
        <time>2021-10-02T10:11:04Z</time>
      </trkpt>
      <trkpt lat="45.39878" lon="6.78724">
        <ele>2475</ele>
        <time>2021-10-02T10:11:09Z</time>
      </trkpt>
      <trkpt lat="45.39872" lon="6.78732">
        <ele>2476</ele>
        <time>2021-10-02T10:11:20Z</time>
      </trkpt>
      <trkpt lat="45.39856" lon="6.78752">
        <ele>2476</ele>
        <time>2021-10-02T10:11:40Z</time>
      </trkpt>
      <trkpt lat="45.39852" lon="6.78768">
        <ele>2477</ele>
        <time>2021-10-02T10:11:53Z</time>
      </trkpt>
      <trkpt lat="45.39848" lon="6.78774">
        <ele>2477</ele>
        <time>2021-10-02T10:11:58Z</time>
      </trkpt>
      <trkpt lat="45.39843" lon="6.78783">
        <ele>2476</ele>
        <time>2021-10-02T10:12:06Z</time>
      </trkpt>
      <trkpt lat="45.3984" lon="6.7879">
        <ele>2478</ele>
        <time>2021-10-02T10:12:11Z</time>
      </trkpt>
      <trkpt lat="45.39823" lon="6.78796">
        <ele>2478</ele>
        <time>2021-10-02T10:12:33Z</time>
      </trkpt>
      <trkpt lat="45.39796" lon="6.78792">
        <ele>2479</ele>
        <time>2021-10-02T10:13:15Z</time>
      </trkpt>
      <trkpt lat="45.39775" lon="6.7882">
        <ele>2475</ele>
        <time>2021-10-02T10:13:39Z</time>
      </trkpt>
      <trkpt lat="45.3976" lon="6.7883">
        <ele>2477</ele>
        <time>2021-10-02T10:14:00Z</time>
      </trkpt>
      <trkpt lat="45.39754" lon="6.7885">
        <ele>2480</ele>
        <time>2021-10-02T10:14:24Z</time>
      </trkpt>
      <trkpt lat="45.39738" lon="6.78856">
        <ele>2483</ele>
        <time>2021-10-02T10:14:49Z</time>
      </trkpt>
      <trkpt lat="45.39718" lon="6.78859">
        <ele>2486</ele>
        <time>2021-10-02T10:15:12Z</time>
      </trkpt>
      <trkpt lat="45.39709" lon="6.78878">
        <ele>2488</ele>
        <time>2021-10-02T10:15:30Z</time>
      </trkpt>
      <trkpt lat="45.39702" lon="6.78881">
        <ele>2487</ele>
        <time>2021-10-02T10:15:37Z</time>
      </trkpt>
      <trkpt lat="45.39696" lon="6.78886">
        <ele>2486</ele>
        <time>2021-10-02T10:15:45Z</time>
      </trkpt>
      <trkpt lat="45.39688" lon="6.78886">
        <ele>2486</ele>
        <time>2021-10-02T10:15:54Z</time>
      </trkpt>
      <trkpt lat="45.39683" lon="6.7889">
        <ele>2484</ele>
        <time>2021-10-02T10:15:58Z</time>
      </trkpt>
      <trkpt lat="45.39677" lon="6.78889">
        <ele>2485</ele>
        <time>2021-10-02T10:16:07Z</time>
      </trkpt>
      <trkpt lat="45.39672" lon="6.78887">
        <ele>2485</ele>
        <time>2021-10-02T10:16:13Z</time>
      </trkpt>
      <trkpt lat="45.39665" lon="6.78885">
        <ele>2486</ele>
        <time>2021-10-02T10:16:20Z</time>
      </trkpt>
      <trkpt lat="45.39659" lon="6.78887">
        <ele>2486</ele>
        <time>2021-10-02T10:16:26Z</time>
      </trkpt>
      <trkpt lat="45.39646" lon="6.78886">
        <ele>2485</ele>
        <time>2021-10-02T10:16:36Z</time>
      </trkpt>
      <trkpt lat="45.39639" lon="6.78892">
        <ele>2486</ele>
        <time>2021-10-02T10:16:44Z</time>
      </trkpt>
      <trkpt lat="45.39635" lon="6.78897">
        <ele>2486</ele>
        <time>2021-10-02T10:16:50Z</time>
      </trkpt>
      <trkpt lat="45.39627" lon="6.78895">
        <ele>2489</ele>
        <time>2021-10-02T10:17:02Z</time>
      </trkpt>
      <trkpt lat="45.39621" lon="6.78896">
        <ele>2487</ele>
        <time>2021-10-02T10:17:08Z</time>
      </trkpt>
      <trkpt lat="45.39613" lon="6.78894">
        <ele>2487</ele>
        <time>2021-10-02T10:17:16Z</time>
      </trkpt>
      <trkpt lat="45.39608" lon="6.78893">
        <ele>2488</ele>
        <time>2021-10-02T10:17:21Z</time>
      </trkpt>
      <trkpt lat="45.39602" lon="6.78892">
        <ele>2487</ele>
        <time>2021-10-02T10:17:28Z</time>
      </trkpt>
      <trkpt lat="45.39589" lon="6.78896">
        <ele>2490</ele>
        <time>2021-10-02T10:17:42Z</time>
      </trkpt>
      <trkpt lat="45.3957" lon="6.78906">
        <ele>2493</ele>
        <time>2021-10-02T10:18:10Z</time>
      </trkpt>
      <trkpt lat="45.39563" lon="6.78915">
        <ele>2494</ele>
        <time>2021-10-02T10:18:23Z</time>
      </trkpt>
      <trkpt lat="45.39557" lon="6.78917">
        <ele>2495</ele>
        <time>2021-10-02T10:18:29Z</time>
      </trkpt>
      <trkpt lat="45.39551" lon="6.78919">
        <ele>2495</ele>
        <time>2021-10-02T10:18:37Z</time>
      </trkpt>
      <trkpt lat="45.39548" lon="6.78926">
        <ele>2496</ele>
        <time>2021-10-02T10:18:42Z</time>
      </trkpt>
      <trkpt lat="45.39536" lon="6.78941">
        <ele>2497</ele>
        <time>2021-10-02T10:18:59Z</time>
      </trkpt>
      <trkpt lat="45.39528" lon="6.78945">
        <ele>2497</ele>
        <time>2021-10-02T10:19:11Z</time>
      </trkpt>
      <trkpt lat="45.39523" lon="6.7895">
        <ele>2498</ele>
        <time>2021-10-02T10:19:17Z</time>
      </trkpt>
      <trkpt lat="45.39518" lon="6.78953">
        <ele>2500</ele>
        <time>2021-10-02T10:19:27Z</time>
      </trkpt>
      <trkpt lat="45.39507" lon="6.78951">
        <ele>2500</ele>
        <time>2021-10-02T10:19:39Z</time>
      </trkpt>
      <trkpt lat="45.39501" lon="6.78946">
        <ele>2500</ele>
        <time>2021-10-02T10:19:47Z</time>
      </trkpt>
      <trkpt lat="45.3949" lon="6.7894">
        <ele>2500</ele>
        <time>2021-10-02T10:20:01Z</time>
      </trkpt>
      <trkpt lat="45.39478" lon="6.7894">
        <ele>2500</ele>
        <time>2021-10-02T10:20:11Z</time>
      </trkpt>
      <trkpt lat="45.39472" lon="6.78938">
        <ele>2500</ele>
        <time>2021-10-02T10:20:15Z</time>
      </trkpt>
      <trkpt lat="45.39467" lon="6.78936">
        <ele>2500</ele>
        <time>2021-10-02T10:20:20Z</time>
      </trkpt>
      <trkpt lat="45.39454" lon="6.78933">
        <ele>2500</ele>
        <time>2021-10-02T10:20:30Z</time>
      </trkpt>
      <trkpt lat="45.39448" lon="6.78931">
        <ele>2501</ele>
        <time>2021-10-02T10:20:35Z</time>
      </trkpt>
      <trkpt lat="45.39442" lon="6.78933">
        <ele>2501</ele>
        <time>2021-10-02T10:20:41Z</time>
      </trkpt>
      <trkpt lat="45.39437" lon="6.78935">
        <ele>2500</ele>
        <time>2021-10-02T10:20:46Z</time>
      </trkpt>
      <trkpt lat="45.39431" lon="6.78934">
        <ele>2500</ele>
        <time>2021-10-02T10:20:51Z</time>
      </trkpt>
      <trkpt lat="45.39425" lon="6.78936">
        <ele>2500</ele>
        <time>2021-10-02T10:20:56Z</time>
      </trkpt>
      <trkpt lat="45.39417" lon="6.7894">
        <ele>2500</ele>
        <time>2021-10-02T10:21:04Z</time>
      </trkpt>
      <trkpt lat="45.39404" lon="6.7894">
        <ele>2501</ele>
        <time>2021-10-02T10:21:18Z</time>
      </trkpt>
      <trkpt lat="45.39399" lon="6.78941">
        <ele>2501</ele>
        <time>2021-10-02T10:21:23Z</time>
      </trkpt>
      <trkpt lat="45.39392" lon="6.78944">
        <ele>2501</ele>
        <time>2021-10-02T10:21:29Z</time>
      </trkpt>
      <trkpt lat="45.39388" lon="6.78949">
        <ele>2501</ele>
        <time>2021-10-02T10:21:35Z</time>
      </trkpt>
      <trkpt lat="45.39382" lon="6.78952">
        <ele>2502</ele>
        <time>2021-10-02T10:21:40Z</time>
      </trkpt>
      <trkpt lat="45.39378" lon="6.78958">
        <ele>2504</ele>
        <time>2021-10-02T10:21:48Z</time>
      </trkpt>
      <trkpt lat="45.39374" lon="6.78971">
        <ele>2504</ele>
        <time>2021-10-02T10:22:02Z</time>
      </trkpt>
      <trkpt lat="45.39373" lon="6.78981">
        <ele>2506</ele>
        <time>2021-10-02T10:22:16Z</time>
      </trkpt>
      <trkpt lat="45.39368" lon="6.78986">
        <ele>2507</ele>
        <time>2021-10-02T10:22:22Z</time>
      </trkpt>
      <trkpt lat="45.39366" lon="6.78994">
        <ele>2507</ele>
        <time>2021-10-02T10:22:30Z</time>
      </trkpt>
      <trkpt lat="45.39364" lon="6.79001">
        <ele>2510</ele>
        <time>2021-10-02T10:22:42Z</time>
      </trkpt>
      <trkpt lat="45.39357" lon="6.79007">
        <ele>2511</ele>
        <time>2021-10-02T10:22:56Z</time>
      </trkpt>
      <trkpt lat="45.39352" lon="6.79013">
        <ele>2512</ele>
        <time>2021-10-02T10:23:08Z</time>
      </trkpt>
      <trkpt lat="45.39347" lon="6.79024">
        <ele>2513</ele>
        <time>2021-10-02T10:23:21Z</time>
      </trkpt>
      <trkpt lat="45.39343" lon="6.79029">
        <ele>2514</ele>
        <time>2021-10-02T10:23:26Z</time>
      </trkpt>
      <trkpt lat="45.39339" lon="6.79037">
        <ele>2514</ele>
        <time>2021-10-02T10:23:44Z</time>
      </trkpt>
      <trkpt lat="45.39323" lon="6.79052">
        <ele>2515</ele>
        <time>2021-10-02T10:24:03Z</time>
      </trkpt>
      <trkpt lat="45.39317" lon="6.79057">
        <ele>2516</ele>
        <time>2021-10-02T10:24:13Z</time>
      </trkpt>
      <trkpt lat="45.3931" lon="6.79058">
        <ele>2515</ele>
        <time>2021-10-02T10:24:19Z</time>
      </trkpt>
      <trkpt lat="45.39303" lon="6.79059">
        <ele>2517</ele>
        <time>2021-10-02T10:24:27Z</time>
      </trkpt>
      <trkpt lat="45.39298" lon="6.7906">
        <ele>2516</ele>
        <time>2021-10-02T10:24:33Z</time>
      </trkpt>
      <trkpt lat="45.39292" lon="6.79065">
        <ele>2517</ele>
        <time>2021-10-02T10:24:40Z</time>
      </trkpt>
      <trkpt lat="45.39288" lon="6.79071">
        <ele>2517</ele>
        <time>2021-10-02T10:24:46Z</time>
      </trkpt>
      <trkpt lat="45.39282" lon="6.79073">
        <ele>2518</ele>
        <time>2021-10-02T10:24:51Z</time>
      </trkpt>
      <trkpt lat="45.39274" lon="6.79076">
        <ele>2518</ele>
        <time>2021-10-02T10:24:59Z</time>
      </trkpt>
      <trkpt lat="45.39267" lon="6.7908">
        <ele>2518</ele>
        <time>2021-10-02T10:25:08Z</time>
      </trkpt>
      <trkpt lat="45.39262" lon="6.79081">
        <ele>2518</ele>
        <time>2021-10-02T10:25:14Z</time>
      </trkpt>
      <trkpt lat="45.39251" lon="6.79086">
        <ele>2518</ele>
        <time>2021-10-02T10:25:24Z</time>
      </trkpt>
      <trkpt lat="45.39245" lon="6.79087">
        <ele>2518</ele>
        <time>2021-10-02T10:25:28Z</time>
      </trkpt>
      <trkpt lat="45.3924" lon="6.79092">
        <ele>2518</ele>
        <time>2021-10-02T10:25:32Z</time>
      </trkpt>
      <trkpt lat="45.39236" lon="6.79097">
        <ele>2518</ele>
        <time>2021-10-02T10:25:37Z</time>
      </trkpt>
      <trkpt lat="45.39232" lon="6.79102">
        <ele>2518</ele>
        <time>2021-10-02T10:25:42Z</time>
      </trkpt>
      <trkpt lat="45.39227" lon="6.79107">
        <ele>2518</ele>
        <time>2021-10-02T10:25:50Z</time>
      </trkpt>
      <trkpt lat="45.39221" lon="6.7911">
        <ele>2519</ele>
        <time>2021-10-02T10:25:56Z</time>
      </trkpt>
      <trkpt lat="45.39211" lon="6.79109">
        <ele>2520</ele>
        <time>2021-10-02T10:26:07Z</time>
      </trkpt>
      <trkpt lat="45.39202" lon="6.79107">
        <ele>2521</ele>
        <time>2021-10-02T10:26:19Z</time>
      </trkpt>
      <trkpt lat="45.39196" lon="6.79107">
        <ele>2520</ele>
        <time>2021-10-02T10:26:26Z</time>
      </trkpt>
      <trkpt lat="45.3919" lon="6.79096">
        <ele>2519</ele>
        <time>2021-10-02T10:26:42Z</time>
      </trkpt>
      <trkpt lat="45.39191" lon="6.79081">
        <ele>2517</ele>
        <time>2021-10-02T10:26:55Z</time>
      </trkpt>
      <trkpt lat="45.39191" lon="6.79081">
        <ele>2518</ele>
        <time>2021-10-02T10:30:47Z</time>
      </trkpt>
      <trkpt lat="45.39175" lon="6.79068">
        <ele>2519</ele>
        <time>2021-10-02T10:31:20Z</time>
      </trkpt>
      <trkpt lat="45.39169" lon="6.79071">
        <ele>2518</ele>
        <time>2021-10-02T10:31:25Z</time>
      </trkpt>
      <trkpt lat="45.39164" lon="6.79067">
        <ele>2517</ele>
        <time>2021-10-02T10:31:47Z</time>
      </trkpt>
      <trkpt lat="45.39165" lon="6.7907">
        <ele>2512</ele>
        <time>2021-10-02T10:48:33Z</time>
      </trkpt>
      <trkpt lat="45.39166" lon="6.79075">
        <ele>2512</ele>
        <time>2021-10-02T10:50:27Z</time>
      </trkpt>
      <trkpt lat="45.3917" lon="6.79068">
        <ele>2512</ele>
        <time>2021-10-02T11:05:27Z</time>
      </trkpt>
      <trkpt lat="45.39173" lon="6.79061">
        <ele>2512</ele>
        <time>2021-10-02T11:05:57Z</time>
      </trkpt>
      <trkpt lat="45.3917" lon="6.7905">
        <ele>2511</ele>
        <time>2021-10-02T11:06:06Z</time>
      </trkpt>
      <trkpt lat="45.39173" lon="6.79042">
        <ele>2510</ele>
        <time>2021-10-02T11:06:10Z</time>
      </trkpt>
      <trkpt lat="45.39173" lon="6.79033">
        <ele>2510</ele>
        <time>2021-10-02T11:06:15Z</time>
      </trkpt>
      <trkpt lat="45.39171" lon="6.79026">
        <ele>2509</ele>
        <time>2021-10-02T11:06:19Z</time>
      </trkpt>
      <trkpt lat="45.39165" lon="6.79011">
        <ele>2509</ele>
        <time>2021-10-02T11:06:27Z</time>
      </trkpt>
      <trkpt lat="45.3916" lon="6.79006">
        <ele>2509</ele>
        <time>2021-10-02T11:06:32Z</time>
      </trkpt>
      <trkpt lat="45.39155" lon="6.79002">
        <ele>2509</ele>
        <time>2021-10-02T11:06:36Z</time>
      </trkpt>
      <trkpt lat="45.39145" lon="6.78993">
        <ele>2508</ele>
        <time>2021-10-02T11:06:46Z</time>
      </trkpt>
      <trkpt lat="45.3914" lon="6.78989">
        <ele>2509</ele>
        <time>2021-10-02T11:06:51Z</time>
      </trkpt>
      <trkpt lat="45.3913" lon="6.7898">
        <ele>2508</ele>
        <time>2021-10-02T11:07:01Z</time>
      </trkpt>
      <trkpt lat="45.39125" lon="6.78975">
        <ele>2507</ele>
        <time>2021-10-02T11:07:05Z</time>
      </trkpt>
      <trkpt lat="45.39115" lon="6.78966">
        <ele>2508</ele>
        <time>2021-10-02T11:07:15Z</time>
      </trkpt>
      <trkpt lat="45.39112" lon="6.78959">
        <ele>2508</ele>
        <time>2021-10-02T11:07:20Z</time>
      </trkpt>
      <trkpt lat="45.39103" lon="6.78955">
        <ele>2508</ele>
        <time>2021-10-02T11:07:28Z</time>
      </trkpt>
      <trkpt lat="45.39091" lon="6.78943">
        <ele>2509</ele>
        <time>2021-10-02T11:07:43Z</time>
      </trkpt>
      <trkpt lat="45.39086" lon="6.7894">
        <ele>2510</ele>
        <time>2021-10-02T11:07:49Z</time>
      </trkpt>
      <trkpt lat="45.39083" lon="6.78932">
        <ele>2509</ele>
        <time>2021-10-02T11:07:54Z</time>
      </trkpt>
      <trkpt lat="45.39079" lon="6.78925">
        <ele>2510</ele>
        <time>2021-10-02T11:07:59Z</time>
      </trkpt>
      <trkpt lat="45.39074" lon="6.78921">
        <ele>2510</ele>
        <time>2021-10-02T11:08:04Z</time>
      </trkpt>
      <trkpt lat="45.39068" lon="6.78913">
        <ele>2510</ele>
        <time>2021-10-02T11:08:14Z</time>
      </trkpt>
      <trkpt lat="45.39065" lon="6.78907">
        <ele>2512</ele>
        <time>2021-10-02T11:08:21Z</time>
      </trkpt>
      <trkpt lat="45.39058" lon="6.78884">
        <ele>2511</ele>
        <time>2021-10-02T11:08:39Z</time>
      </trkpt>
      <trkpt lat="45.39055" lon="6.78866">
        <ele>2511</ele>
        <time>2021-10-02T11:08:50Z</time>
      </trkpt>
      <trkpt lat="45.39052" lon="6.78857">
        <ele>2511</ele>
        <time>2021-10-02T11:08:54Z</time>
      </trkpt>
      <trkpt lat="45.39048" lon="6.78842">
        <ele>2512</ele>
        <time>2021-10-02T11:09:04Z</time>
      </trkpt>
      <trkpt lat="45.39038" lon="6.78843">
        <ele>2513</ele>
        <time>2021-10-02T11:09:13Z</time>
      </trkpt>
      <trkpt lat="45.3903" lon="6.78839">
        <ele>2513</ele>
        <time>2021-10-02T11:09:22Z</time>
      </trkpt>
      <trkpt lat="45.39023" lon="6.78836">
        <ele>2513</ele>
        <time>2021-10-02T11:09:32Z</time>
      </trkpt>
      <trkpt lat="45.39016" lon="6.78841">
        <ele>2516</ele>
        <time>2021-10-02T11:09:44Z</time>
      </trkpt>
      <trkpt lat="45.39012" lon="6.78846">
        <ele>2518</ele>
        <time>2021-10-02T11:09:56Z</time>
      </trkpt>
      <trkpt lat="45.39006" lon="6.78843">
        <ele>2518</ele>
        <time>2021-10-02T11:10:03Z</time>
      </trkpt>
      <trkpt lat="45.38997" lon="6.78843">
        <ele>2520</ele>
        <time>2021-10-02T11:10:14Z</time>
      </trkpt>
      <trkpt lat="45.3899" lon="6.78845">
        <ele>2520</ele>
        <time>2021-10-02T11:10:23Z</time>
      </trkpt>
      <trkpt lat="45.38981" lon="6.78842">
        <ele>2520</ele>
        <time>2021-10-02T11:10:35Z</time>
      </trkpt>
      <trkpt lat="45.38979" lon="6.78852">
        <ele>2521</ele>
        <time>2021-10-02T11:10:51Z</time>
      </trkpt>
      <trkpt lat="45.38975" lon="6.78871">
        <ele>2523</ele>
        <time>2021-10-02T11:11:12Z</time>
      </trkpt>
      <trkpt lat="45.38957" lon="6.7888">
        <ele>2517</ele>
        <time>2021-10-02T11:11:34Z</time>
      </trkpt>
      <trkpt lat="45.38951" lon="6.78876">
        <ele>2518</ele>
        <time>2021-10-02T11:11:39Z</time>
      </trkpt>
      <trkpt lat="45.38946" lon="6.78874">
        <ele>2518</ele>
        <time>2021-10-02T11:11:45Z</time>
      </trkpt>
      <trkpt lat="45.38938" lon="6.78866">
        <ele>2516</ele>
        <time>2021-10-02T11:11:58Z</time>
      </trkpt>
      <trkpt lat="45.38932" lon="6.78864">
        <ele>2516</ele>
        <time>2021-10-02T11:12:03Z</time>
      </trkpt>
      <trkpt lat="45.38927" lon="6.78859">
        <ele>2515</ele>
        <time>2021-10-02T11:12:08Z</time>
      </trkpt>
      <trkpt lat="45.38918" lon="6.78855">
        <ele>2514</ele>
        <time>2021-10-02T11:12:19Z</time>
      </trkpt>
      <trkpt lat="45.38912" lon="6.78866">
        <ele>2513</ele>
        <time>2021-10-02T11:12:30Z</time>
      </trkpt>
      <trkpt lat="45.38907" lon="6.7887">
        <ele>2513</ele>
        <time>2021-10-02T11:12:39Z</time>
      </trkpt>
      <trkpt lat="45.38904" lon="6.78863">
        <ele>2512</ele>
        <time>2021-10-02T11:12:45Z</time>
      </trkpt>
      <trkpt lat="45.38898" lon="6.78859">
        <ele>2511</ele>
        <time>2021-10-02T11:12:50Z</time>
      </trkpt>
      <trkpt lat="45.38894" lon="6.78862">
        <ele>2510</ele>
        <time>2021-10-02T11:12:58Z</time>
      </trkpt>
      <trkpt lat="45.38886" lon="6.78865">
        <ele>2509</ele>
        <time>2021-10-02T11:13:08Z</time>
      </trkpt>
      <trkpt lat="45.3888" lon="6.7887">
        <ele>2510</ele>
        <time>2021-10-02T11:13:16Z</time>
      </trkpt>
      <trkpt lat="45.38876" lon="6.78876">
        <ele>2511</ele>
        <time>2021-10-02T11:13:22Z</time>
      </trkpt>
      <trkpt lat="45.38872" lon="6.78882">
        <ele>2510</ele>
        <time>2021-10-02T11:13:27Z</time>
      </trkpt>
      <trkpt lat="45.38867" lon="6.78891">
        <ele>2511</ele>
        <time>2021-10-02T11:13:38Z</time>
      </trkpt>
      <trkpt lat="45.38862" lon="6.78897">
        <ele>2513</ele>
        <time>2021-10-02T11:13:43Z</time>
      </trkpt>
      <trkpt lat="45.38857" lon="6.78898">
        <ele>2512</ele>
        <time>2021-10-02T11:13:50Z</time>
      </trkpt>
      <trkpt lat="45.38848" lon="6.78904">
        <ele>2514</ele>
        <time>2021-10-02T11:14:03Z</time>
      </trkpt>
      <trkpt lat="45.38843" lon="6.7891">
        <ele>2513</ele>
        <time>2021-10-02T11:14:08Z</time>
      </trkpt>
      <trkpt lat="45.38838" lon="6.78914">
        <ele>2514</ele>
        <time>2021-10-02T11:14:14Z</time>
      </trkpt>
      <trkpt lat="45.38834" lon="6.78921">
        <ele>2514</ele>
        <time>2021-10-02T11:14:19Z</time>
      </trkpt>
      <trkpt lat="45.38822" lon="6.78925">
        <ele>2515</ele>
        <time>2021-10-02T11:14:33Z</time>
      </trkpt>
      <trkpt lat="45.38815" lon="6.7893">
        <ele>2516</ele>
        <time>2021-10-02T11:14:41Z</time>
      </trkpt>
      <trkpt lat="45.38809" lon="6.7893">
        <ele>2515</ele>
        <time>2021-10-02T11:14:49Z</time>
      </trkpt>
      <trkpt lat="45.38796" lon="6.78935">
        <ele>2519</ele>
        <time>2021-10-02T11:15:05Z</time>
      </trkpt>
      <trkpt lat="45.38787" lon="6.78942">
        <ele>2519</ele>
        <time>2021-10-02T11:15:17Z</time>
      </trkpt>
      <trkpt lat="45.38781" lon="6.7895">
        <ele>2522</ele>
        <time>2021-10-02T11:15:28Z</time>
      </trkpt>
      <trkpt lat="45.38776" lon="6.78954">
        <ele>2523</ele>
        <time>2021-10-02T11:15:46Z</time>
      </trkpt>
      <trkpt lat="45.38773" lon="6.78962">
        <ele>2525</ele>
        <time>2021-10-02T11:15:57Z</time>
      </trkpt>
      <trkpt lat="45.38768" lon="6.78957">
        <ele>2527</ele>
        <time>2021-10-02T11:16:21Z</time>
      </trkpt>
      <trkpt lat="45.3876" lon="6.78943">
        <ele>2528</ele>
        <time>2021-10-02T11:16:45Z</time>
      </trkpt>
      <trkpt lat="45.38757" lon="6.78933">
        <ele>2528</ele>
        <time>2021-10-02T11:16:54Z</time>
      </trkpt>
      <trkpt lat="45.38758" lon="6.78925">
        <ele>2529</ele>
        <time>2021-10-02T11:17:00Z</time>
      </trkpt>
      <trkpt lat="45.3875" lon="6.78929">
        <ele>2531</ele>
        <time>2021-10-02T11:17:15Z</time>
      </trkpt>
      <trkpt lat="45.38742" lon="6.7893">
        <ele>2534</ele>
        <time>2021-10-02T11:17:27Z</time>
      </trkpt>
      <trkpt lat="45.3874" lon="6.78918">
        <ele>2534</ele>
        <time>2021-10-02T11:17:38Z</time>
      </trkpt>
      <trkpt lat="45.3874" lon="6.78907">
        <ele>2534</ele>
        <time>2021-10-02T11:17:49Z</time>
      </trkpt>
      <trkpt lat="45.3874" lon="6.78896">
        <ele>2536</ele>
        <time>2021-10-02T11:18:01Z</time>
      </trkpt>
      <trkpt lat="45.3874" lon="6.78886">
        <ele>2535</ele>
        <time>2021-10-02T11:18:13Z</time>
      </trkpt>
      <trkpt lat="45.38734" lon="6.78887">
        <ele>2538</ele>
        <time>2021-10-02T11:18:26Z</time>
      </trkpt>
      <trkpt lat="45.38728" lon="6.78886">
        <ele>2541</ele>
        <time>2021-10-02T11:18:50Z</time>
      </trkpt>
      <trkpt lat="45.38722" lon="6.78891">
        <ele>2543</ele>
        <time>2021-10-02T11:19:02Z</time>
      </trkpt>
      <trkpt lat="45.38716" lon="6.78899">
        <ele>2544</ele>
        <time>2021-10-02T11:19:20Z</time>
      </trkpt>
      <trkpt lat="45.38715" lon="6.78906">
        <ele>2545</ele>
        <time>2021-10-02T11:19:26Z</time>
      </trkpt>
      <trkpt lat="45.38703" lon="6.78933">
        <ele>2549</ele>
        <time>2021-10-02T11:19:59Z</time>
      </trkpt>
      <trkpt lat="45.38691" lon="6.78945">
        <ele>2555</ele>
        <time>2021-10-02T11:20:40Z</time>
      </trkpt>
      <trkpt lat="45.38677" lon="6.7896">
        <ele>2563</ele>
        <time>2021-10-02T11:21:26Z</time>
      </trkpt>
      <trkpt lat="45.3867" lon="6.78977">
        <ele>2565</ele>
        <time>2021-10-02T11:21:56Z</time>
      </trkpt>
      <trkpt lat="45.38659" lon="6.78974">
        <ele>2570</ele>
        <time>2021-10-02T11:22:31Z</time>
      </trkpt>
      <trkpt lat="45.38653" lon="6.78969">
        <ele>2572</ele>
        <time>2021-10-02T11:22:55Z</time>
      </trkpt>
      <trkpt lat="45.38647" lon="6.78962">
        <ele>2570</ele>
        <time>2021-10-02T11:23:07Z</time>
      </trkpt>
      <trkpt lat="45.38641" lon="6.78964">
        <ele>2574</ele>
        <time>2021-10-02T11:23:19Z</time>
      </trkpt>
      <trkpt lat="45.38634" lon="6.78964">
        <ele>2576</ele>
        <time>2021-10-02T11:24:21Z</time>
      </trkpt>
      <trkpt lat="45.38632" lon="6.78952">
        <ele>2578</ele>
        <time>2021-10-02T11:24:39Z</time>
      </trkpt>
      <trkpt lat="45.38625" lon="6.78958">
        <ele>2580</ele>
        <time>2021-10-02T11:24:51Z</time>
      </trkpt>
      <trkpt lat="45.38614" lon="6.78988">
        <ele>2584</ele>
        <time>2021-10-02T11:25:28Z</time>
      </trkpt>
      <trkpt lat="45.38606" lon="6.79005">
        <ele>2585</ele>
        <time>2021-10-02T11:25:52Z</time>
      </trkpt>
      <trkpt lat="45.38592" lon="6.79">
        <ele>2593</ele>
        <time>2021-10-02T11:26:40Z</time>
      </trkpt>
      <trkpt lat="45.38584" lon="6.79001">
        <ele>2595</ele>
        <time>2021-10-02T11:26:53Z</time>
      </trkpt>
      <trkpt lat="45.38579" lon="6.79001">
        <ele>2595</ele>
        <time>2021-10-02T11:27:05Z</time>
      </trkpt>
      <trkpt lat="45.38576" lon="6.7901">
        <ele>2598</ele>
        <time>2021-10-02T11:27:29Z</time>
      </trkpt>
      <trkpt lat="45.38573" lon="6.79016">
        <ele>2600</ele>
        <time>2021-10-02T11:27:41Z</time>
      </trkpt>
      <trkpt lat="45.38568" lon="6.79023">
        <ele>2601</ele>
        <time>2021-10-02T11:27:56Z</time>
      </trkpt>
      <trkpt lat="45.38567" lon="6.79031">
        <ele>2601</ele>
        <time>2021-10-02T11:28:07Z</time>
      </trkpt>
      <trkpt lat="45.38567" lon="6.79038">
        <ele>2602</ele>
        <time>2021-10-02T11:28:22Z</time>
      </trkpt>
      <trkpt lat="45.38564" lon="6.79044">
        <ele>2606</ele>
        <time>2021-10-02T11:28:44Z</time>
      </trkpt>
      <trkpt lat="45.38557" lon="6.79037">
        <ele>2611</ele>
        <time>2021-10-02T11:29:04Z</time>
      </trkpt>
      <trkpt lat="45.38552" lon="6.79046">
        <ele>2611</ele>
        <time>2021-10-02T11:29:27Z</time>
      </trkpt>
      <trkpt lat="45.38553" lon="6.79057">
        <ele>2615</ele>
        <time>2021-10-02T11:29:45Z</time>
      </trkpt>
      <trkpt lat="45.38546" lon="6.7906">
        <ele>2618</ele>
        <time>2021-10-02T11:30:16Z</time>
      </trkpt>
      <trkpt lat="45.3854" lon="6.79064">
        <ele>2619</ele>
        <time>2021-10-02T11:30:41Z</time>
      </trkpt>
      <trkpt lat="45.38538" lon="6.79074">
        <ele>2621</ele>
        <time>2021-10-02T11:30:59Z</time>
      </trkpt>
      <trkpt lat="45.38532" lon="6.79094">
        <ele>2628</ele>
        <time>2021-10-02T11:31:41Z</time>
      </trkpt>
      <trkpt lat="45.38525" lon="6.79095">
        <ele>2631</ele>
        <time>2021-10-02T11:32:05Z</time>
      </trkpt>
      <trkpt lat="45.38519" lon="6.79093">
        <ele>2631</ele>
        <time>2021-10-02T11:32:17Z</time>
      </trkpt>
      <trkpt lat="45.38514" lon="6.79089">
        <ele>2634</ele>
        <time>2021-10-02T11:32:41Z</time>
      </trkpt>
      <trkpt lat="45.38508" lon="6.7909">
        <ele>2639</ele>
        <time>2021-10-02T11:33:05Z</time>
      </trkpt>
      <trkpt lat="45.38504" lon="6.79096">
        <ele>2637</ele>
        <time>2021-10-02T11:33:17Z</time>
      </trkpt>
      <trkpt lat="45.38502" lon="6.79107">
        <ele>2639</ele>
        <time>2021-10-02T11:33:35Z</time>
      </trkpt>
      <trkpt lat="45.38496" lon="6.79108">
        <ele>2640</ele>
        <time>2021-10-02T11:33:47Z</time>
      </trkpt>
      <trkpt lat="45.38489" lon="6.7911">
        <ele>2640</ele>
        <time>2021-10-02T11:33:59Z</time>
      </trkpt>
      <trkpt lat="45.38483" lon="6.79115">
        <ele>2644</ele>
        <time>2021-10-02T11:34:17Z</time>
      </trkpt>
      <trkpt lat="45.38478" lon="6.79123">
        <ele>2644</ele>
        <time>2021-10-02T11:34:29Z</time>
      </trkpt>
      <trkpt lat="45.38471" lon="6.79124">
        <ele>2645</ele>
        <time>2021-10-02T11:34:41Z</time>
      </trkpt>
      <trkpt lat="45.38466" lon="6.79119">
        <ele>2647</ele>
        <time>2021-10-02T11:34:52Z</time>
      </trkpt>
      <trkpt lat="45.3846" lon="6.7912">
        <ele>2651</ele>
        <time>2021-10-02T11:35:07Z</time>
      </trkpt>
      <trkpt lat="45.38454" lon="6.79123">
        <ele>2652</ele>
        <time>2021-10-02T11:35:44Z</time>
      </trkpt>
      <trkpt lat="45.38451" lon="6.79117">
        <ele>2654</ele>
        <time>2021-10-02T11:35:50Z</time>
      </trkpt>
      <trkpt lat="45.38443" lon="6.79107">
        <ele>2654</ele>
        <time>2021-10-02T11:36:04Z</time>
      </trkpt>
      <trkpt lat="45.38441" lon="6.79099">
        <ele>2655</ele>
        <time>2021-10-02T11:36:16Z</time>
      </trkpt>
      <trkpt lat="45.38439" lon="6.79088">
        <ele>2656</ele>
        <time>2021-10-02T11:36:28Z</time>
      </trkpt>
      <trkpt lat="45.38433" lon="6.79088">
        <ele>2661</ele>
        <time>2021-10-02T11:36:40Z</time>
      </trkpt>
      <trkpt lat="45.38427" lon="6.79086">
        <ele>2661</ele>
        <time>2021-10-02T11:37:04Z</time>
      </trkpt>
      <trkpt lat="45.38429" lon="6.79094">
        <ele>2662</ele>
        <time>2021-10-02T11:37:28Z</time>
      </trkpt>
      <trkpt lat="45.38422" lon="6.79089">
        <ele>2666</ele>
        <time>2021-10-02T11:37:46Z</time>
      </trkpt>
      <trkpt lat="45.38415" lon="6.79087">
        <ele>2667</ele>
        <time>2021-10-02T11:38:04Z</time>
      </trkpt>
      <trkpt lat="45.3841" lon="6.79091">
        <ele>2670</ele>
        <time>2021-10-02T11:38:34Z</time>
      </trkpt>
      <trkpt lat="45.38403" lon="6.79092">
        <ele>2670</ele>
        <time>2021-10-02T11:38:46Z</time>
      </trkpt>
      <trkpt lat="45.384" lon="6.791">
        <ele>2675</ele>
        <time>2021-10-02T11:39:22Z</time>
      </trkpt>
      <trkpt lat="45.38393" lon="6.79099">
        <ele>2677</ele>
        <time>2021-10-02T11:39:40Z</time>
      </trkpt>
      <trkpt lat="45.38389" lon="6.79094">
        <ele>2679</ele>
        <time>2021-10-02T11:39:58Z</time>
      </trkpt>
      <trkpt lat="45.38387" lon="6.79085">
        <ele>2682</ele>
        <time>2021-10-02T11:40:16Z</time>
      </trkpt>
      <trkpt lat="45.38379" lon="6.79083">
        <ele>2684</ele>
        <time>2021-10-02T11:40:40Z</time>
      </trkpt>
      <trkpt lat="45.38372" lon="6.79083">
        <ele>2684</ele>
        <time>2021-10-02T11:40:53Z</time>
      </trkpt>
      <trkpt lat="45.38365" lon="6.7908">
        <ele>2688</ele>
        <time>2021-10-02T11:41:11Z</time>
      </trkpt>
      <trkpt lat="45.38358" lon="6.79087">
        <ele>2691</ele>
        <time>2021-10-02T11:41:23Z</time>
      </trkpt>
      <trkpt lat="45.38352" lon="6.79091">
        <ele>2690</ele>
        <time>2021-10-02T11:41:31Z</time>
      </trkpt>
      <trkpt lat="45.38344" lon="6.79089">
        <ele>2691</ele>
        <time>2021-10-02T11:41:43Z</time>
      </trkpt>
      <trkpt lat="45.38341" lon="6.79079">
        <ele>2691</ele>
        <time>2021-10-02T11:41:55Z</time>
      </trkpt>
      <trkpt lat="45.38324" lon="6.7908">
        <ele>2695</ele>
        <time>2021-10-02T11:42:20Z</time>
      </trkpt>
      <trkpt lat="45.38319" lon="6.79076">
        <ele>2697</ele>
        <time>2021-10-02T11:42:35Z</time>
      </trkpt>
      <trkpt lat="45.38313" lon="6.79082">
        <ele>2701</ele>
        <time>2021-10-02T11:42:53Z</time>
      </trkpt>
      <trkpt lat="45.38307" lon="6.79082">
        <ele>2700</ele>
        <time>2021-10-02T11:43:05Z</time>
      </trkpt>
      <trkpt lat="45.38303" lon="6.79077">
        <ele>2702</ele>
        <time>2021-10-02T11:43:23Z</time>
      </trkpt>
      <trkpt lat="45.38296" lon="6.79077">
        <ele>2706</ele>
        <time>2021-10-02T11:43:47Z</time>
      </trkpt>
      <trkpt lat="45.38292" lon="6.79085">
        <ele>2707</ele>
        <time>2021-10-02T11:44:00Z</time>
      </trkpt>
      <trkpt lat="45.38286" lon="6.79086">
        <ele>2711</ele>
        <time>2021-10-02T11:44:42Z</time>
      </trkpt>
      <trkpt lat="45.38282" lon="6.79094">
        <ele>2713</ele>
        <time>2021-10-02T11:44:59Z</time>
      </trkpt>
      <trkpt lat="45.38275" lon="6.79091">
        <ele>2714</ele>
        <time>2021-10-02T11:45:17Z</time>
      </trkpt>
      <trkpt lat="45.38269" lon="6.79083">
        <ele>2717</ele>
        <time>2021-10-02T11:45:41Z</time>
      </trkpt>
      <trkpt lat="45.38266" lon="6.79075">
        <ele>2716</ele>
        <time>2021-10-02T11:45:59Z</time>
      </trkpt>
      <trkpt lat="45.38264" lon="6.79061">
        <ele>2720</ele>
        <time>2021-10-02T11:46:17Z</time>
      </trkpt>
      <trkpt lat="45.38263" lon="6.79053">
        <ele>2722</ele>
        <time>2021-10-02T11:46:35Z</time>
      </trkpt>
      <trkpt lat="45.38261" lon="6.7904">
        <ele>2726</ele>
        <time>2021-10-02T11:47:19Z</time>
      </trkpt>
      <trkpt lat="45.38257" lon="6.79035">
        <ele>2730</ele>
        <time>2021-10-02T11:47:31Z</time>
      </trkpt>
      <trkpt lat="45.38251" lon="6.79044">
        <ele>2730</ele>
        <time>2021-10-02T11:47:49Z</time>
      </trkpt>
      <trkpt lat="45.38248" lon="6.79052">
        <ele>2730</ele>
        <time>2021-10-02T11:47:56Z</time>
      </trkpt>
      <trkpt lat="45.38248" lon="6.7906">
        <ele>2733</ele>
        <time>2021-10-02T11:48:26Z</time>
      </trkpt>
      <trkpt lat="45.38241" lon="6.79058">
        <ele>2736</ele>
        <time>2021-10-02T11:48:56Z</time>
      </trkpt>
      <trkpt lat="45.38241" lon="6.79046">
        <ele>2736</ele>
        <time>2021-10-02T11:49:13Z</time>
      </trkpt>
      <trkpt lat="45.38241" lon="6.79038">
        <ele>2738</ele>
        <time>2021-10-02T11:49:23Z</time>
      </trkpt>
      <trkpt lat="45.38236" lon="6.79027">
        <ele>2738</ele>
        <time>2021-10-02T11:49:35Z</time>
      </trkpt>
      <trkpt lat="45.38228" lon="6.7903">
        <ele>2741</ele>
        <time>2021-10-02T11:50:10Z</time>
      </trkpt>
      <trkpt lat="45.38223" lon="6.79041">
        <ele>2745</ele>
        <time>2021-10-02T11:50:34Z</time>
      </trkpt>
      <trkpt lat="45.38215" lon="6.79037">
        <ele>2748</ele>
        <time>2021-10-02T11:51:18Z</time>
      </trkpt>
      <trkpt lat="45.3821" lon="6.79045">
        <ele>2750</ele>
        <time>2021-10-02T11:51:35Z</time>
      </trkpt>
      <trkpt lat="45.38207" lon="6.79054">
        <ele>2750</ele>
        <time>2021-10-02T11:51:47Z</time>
      </trkpt>
      <trkpt lat="45.38205" lon="6.79062">
        <ele>2754</ele>
        <time>2021-10-02T11:52:17Z</time>
      </trkpt>
      <trkpt lat="45.38199" lon="6.79061">
        <ele>2757</ele>
        <time>2021-10-02T11:52:41Z</time>
      </trkpt>
      <trkpt lat="45.38192" lon="6.79061">
        <ele>2761</ele>
        <time>2021-10-02T11:53:05Z</time>
      </trkpt>
      <trkpt lat="45.38188" lon="6.79069">
        <ele>2762</ele>
        <time>2021-10-02T11:53:17Z</time>
      </trkpt>
      <trkpt lat="45.38183" lon="6.79069">
        <ele>2763</ele>
        <time>2021-10-02T11:53:53Z</time>
      </trkpt>
      <trkpt lat="45.38177" lon="6.79064">
        <ele>2767</ele>
        <time>2021-10-02T11:54:17Z</time>
      </trkpt>
      <trkpt lat="45.38173" lon="6.79058">
        <ele>2768</ele>
        <time>2021-10-02T11:54:35Z</time>
      </trkpt>
      <trkpt lat="45.38168" lon="6.79058">
        <ele>2768</ele>
        <time>2021-10-02T11:54:47Z</time>
      </trkpt>
      <trkpt lat="45.38163" lon="6.79056">
        <ele>2769</ele>
        <time>2021-10-02T11:54:59Z</time>
      </trkpt>
      <trkpt lat="45.38151" lon="6.79059">
        <ele>2768</ele>
        <time>2021-10-02T11:55:23Z</time>
      </trkpt>
      <trkpt lat="45.3814" lon="6.79071">
        <ele>2771</ele>
        <time>2021-10-02T11:55:43Z</time>
      </trkpt>
      <trkpt lat="45.38134" lon="6.79073">
        <ele>2772</ele>
        <time>2021-10-02T11:55:55Z</time>
      </trkpt>
      <trkpt lat="45.38126" lon="6.79074">
        <ele>2773</ele>
        <time>2021-10-02T11:56:07Z</time>
      </trkpt>
      <trkpt lat="45.3812" lon="6.79079">
        <ele>2775</ele>
        <time>2021-10-02T11:56:17Z</time>
      </trkpt>
      <trkpt lat="45.38111" lon="6.79084">
        <ele>2775</ele>
        <time>2021-10-02T11:56:29Z</time>
      </trkpt>
      <trkpt lat="45.38105" lon="6.79084">
        <ele>2776</ele>
        <time>2021-10-02T11:56:34Z</time>
      </trkpt>
      <trkpt lat="45.38096" lon="6.79082">
        <ele>2777</ele>
        <time>2021-10-02T11:56:44Z</time>
      </trkpt>
      <trkpt lat="45.3809" lon="6.79079">
        <ele>2776</ele>
        <time>2021-10-02T11:56:58Z</time>
      </trkpt>
      <trkpt lat="45.38081" lon="6.79075">
        <ele>2780</ele>
        <time>2021-10-02T11:57:28Z</time>
      </trkpt>
      <trkpt lat="45.38072" lon="6.79081">
        <ele>2781</ele>
        <time>2021-10-02T11:57:40Z</time>
      </trkpt>
      <trkpt lat="45.38068" lon="6.79074">
        <ele>2783</ele>
        <time>2021-10-02T11:57:58Z</time>
      </trkpt>
      <trkpt lat="45.38063" lon="6.79069">
        <ele>2783</ele>
        <time>2021-10-02T11:58:10Z</time>
      </trkpt>
      <trkpt lat="45.3806" lon="6.79061">
        <ele>2786</ele>
        <time>2021-10-02T11:58:23Z</time>
      </trkpt>
      <trkpt lat="45.38055" lon="6.79056">
        <ele>2788</ele>
        <time>2021-10-02T11:58:47Z</time>
      </trkpt>
      <trkpt lat="45.3805" lon="6.79049">
        <ele>2788</ele>
        <time>2021-10-02T11:58:59Z</time>
      </trkpt>
      <trkpt lat="45.38044" lon="6.79042">
        <ele>2792</ele>
        <time>2021-10-02T11:59:18Z</time>
      </trkpt>
      <trkpt lat="45.38041" lon="6.79034">
        <ele>2792</ele>
        <time>2021-10-02T11:59:30Z</time>
      </trkpt>
      <trkpt lat="45.38034" lon="6.79031">
        <ele>2794</ele>
        <time>2021-10-02T11:59:54Z</time>
      </trkpt>
      <trkpt lat="45.38029" lon="6.79022">
        <ele>2796</ele>
        <time>2021-10-02T12:00:18Z</time>
      </trkpt>
      <trkpt lat="45.38025" lon="6.79014">
        <ele>2801</ele>
        <time>2021-10-02T12:00:42Z</time>
      </trkpt>
      <trkpt lat="45.38021" lon="6.79008">
        <ele>2802</ele>
        <time>2021-10-02T12:01:06Z</time>
      </trkpt>
      <trkpt lat="45.38017" lon="6.79002">
        <ele>2801</ele>
        <time>2021-10-02T12:01:18Z</time>
      </trkpt>
      <trkpt lat="45.38015" lon="6.78993">
        <ele>2804</ele>
        <time>2021-10-02T12:01:32Z</time>
      </trkpt>
      <trkpt lat="45.38013" lon="6.78983">
        <ele>2807</ele>
        <time>2021-10-02T12:01:44Z</time>
      </trkpt>
      <trkpt lat="45.38007" lon="6.78974">
        <ele>2807</ele>
        <time>2021-10-02T12:02:08Z</time>
      </trkpt>
      <trkpt lat="45.38011" lon="6.78965">
        <ele>2807</ele>
        <time>2021-10-02T12:02:21Z</time>
      </trkpt>
      <trkpt lat="45.3801" lon="6.78954">
        <ele>2810</ele>
        <time>2021-10-02T12:02:45Z</time>
      </trkpt>
      <trkpt lat="45.38004" lon="6.78951">
        <ele>2813</ele>
        <time>2021-10-02T12:03:15Z</time>
      </trkpt>
      <trkpt lat="45.37999" lon="6.78951">
        <ele>2815</ele>
        <time>2021-10-02T12:03:35Z</time>
      </trkpt>
      <trkpt lat="45.37998" lon="6.7895">
        <ele>2819</ele>
        <time>2021-10-02T12:04:28Z</time>
      </trkpt>
      <trkpt lat="45.37997" lon="6.78937">
        <ele>2820</ele>
        <time>2021-10-02T12:04:42Z</time>
      </trkpt>
      <trkpt lat="45.37997" lon="6.78927">
        <ele>2824</ele>
        <time>2021-10-02T12:05:17Z</time>
      </trkpt>
      <trkpt lat="45.37995" lon="6.78919">
        <ele>2827</ele>
        <time>2021-10-02T12:05:53Z</time>
      </trkpt>
      <trkpt lat="45.37993" lon="6.78911">
        <ele>2828</ele>
        <time>2021-10-02T12:06:11Z</time>
      </trkpt>
      <trkpt lat="45.37989" lon="6.78918">
        <ele>2832</ele>
        <time>2021-10-02T12:07:00Z</time>
      </trkpt>
      <trkpt lat="45.37977" lon="6.78934">
        <ele>2836</ele>
        <time>2021-10-02T12:07:25Z</time>
      </trkpt>
      <trkpt lat="45.37975" lon="6.78942">
        <ele>2837</ele>
        <time>2021-10-02T12:07:49Z</time>
      </trkpt>
      <trkpt lat="45.37969" lon="6.78945">
        <ele>2838</ele>
        <time>2021-10-02T12:08:07Z</time>
      </trkpt>
      <trkpt lat="45.37964" lon="6.78951">
        <ele>2841</ele>
        <time>2021-10-02T12:08:37Z</time>
      </trkpt>
      <trkpt lat="45.37962" lon="6.7896">
        <ele>2844</ele>
        <time>2021-10-02T12:09:07Z</time>
      </trkpt>
      <trkpt lat="45.37959" lon="6.78966">
        <ele>2849</ele>
        <time>2021-10-02T12:09:37Z</time>
      </trkpt>
      <trkpt lat="45.37954" lon="6.78971">
        <ele>2851</ele>
        <time>2021-10-02T12:10:01Z</time>
      </trkpt>
      <trkpt lat="45.37946" lon="6.78969">
        <ele>2853</ele>
        <time>2021-10-02T12:10:24Z</time>
      </trkpt>
      <trkpt lat="45.37944" lon="6.7898">
        <ele>2856</ele>
        <time>2021-10-02T12:10:50Z</time>
      </trkpt>
      <trkpt lat="45.3794" lon="6.78987">
        <ele>2858</ele>
        <time>2021-10-02T12:11:15Z</time>
      </trkpt>
      <trkpt lat="45.37933" lon="6.78993">
        <ele>2863</ele>
        <time>2021-10-02T12:12:56Z</time>
      </trkpt>
      <trkpt lat="45.37931" lon="6.79001">
        <ele>2865</ele>
        <time>2021-10-02T12:13:08Z</time>
      </trkpt>
      <trkpt lat="45.3793" lon="6.79009">
        <ele>2863</ele>
        <time>2021-10-02T12:13:20Z</time>
      </trkpt>
      <trkpt lat="45.37924" lon="6.79017">
        <ele>2865</ele>
        <time>2021-10-02T12:13:32Z</time>
      </trkpt>
      <trkpt lat="45.3791" lon="6.79035">
        <ele>2869</ele>
        <time>2021-10-02T12:14:20Z</time>
      </trkpt>
      <trkpt lat="45.37909" lon="6.79045">
        <ele>2873</ele>
        <time>2021-10-02T12:14:56Z</time>
      </trkpt>
      <trkpt lat="45.37906" lon="6.79053">
        <ele>2873</ele>
        <time>2021-10-02T12:15:08Z</time>
      </trkpt>
      <trkpt lat="45.37905" lon="6.79042">
        <ele>2875</ele>
        <time>2021-10-02T12:16:08Z</time>
      </trkpt>
      <trkpt lat="45.37912" lon="6.7904">
        <ele>2877</ele>
        <time>2021-10-02T12:16:50Z</time>
      </trkpt>
      <trkpt lat="45.37899" lon="6.79028">
        <ele>2880</ele>
        <time>2021-10-02T12:18:06Z</time>
      </trkpt>
      <trkpt lat="45.37899" lon="6.79016">
        <ele>2882</ele>
        <time>2021-10-02T12:18:36Z</time>
      </trkpt>
      <trkpt lat="45.37897" lon="6.79007">
        <ele>2886</ele>
        <time>2021-10-02T12:19:12Z</time>
      </trkpt>
      <trkpt lat="45.37892" lon="6.79003">
        <ele>2887</ele>
        <time>2021-10-02T12:19:42Z</time>
      </trkpt>
      <trkpt lat="45.37892" lon="6.78991">
        <ele>2891</ele>
        <time>2021-10-02T12:20:11Z</time>
      </trkpt>
      <trkpt lat="45.37893" lon="6.78984">
        <ele>2891</ele>
        <time>2021-10-02T12:20:23Z</time>
      </trkpt>
      <trkpt lat="45.3789" lon="6.78971">
        <ele>2893</ele>
        <time>2021-10-02T12:20:35Z</time>
      </trkpt>
      <trkpt lat="45.37884" lon="6.78963">
        <ele>2894</ele>
        <time>2021-10-02T12:20:47Z</time>
      </trkpt>
      <trkpt lat="45.37877" lon="6.78959">
        <ele>2894</ele>
        <time>2021-10-02T12:20:59Z</time>
      </trkpt>
      <trkpt lat="45.37878" lon="6.78952">
        <ele>2894</ele>
        <time>2021-10-02T12:21:17Z</time>
      </trkpt>
      <trkpt lat="45.37869" lon="6.78959">
        <ele>2894</ele>
        <time>2021-10-02T12:25:32Z</time>
      </trkpt>
      <trkpt lat="45.37865" lon="6.78963">
        <ele>2893</ele>
        <time>2021-10-02T12:25:38Z</time>
      </trkpt>
      <trkpt lat="45.37864" lon="6.78972">
        <ele>2895</ele>
        <time>2021-10-02T12:25:47Z</time>
      </trkpt>
      <trkpt lat="45.37858" lon="6.78974">
        <ele>2895</ele>
        <time>2021-10-02T12:25:59Z</time>
      </trkpt>
      <trkpt lat="45.37852" lon="6.78972">
        <ele>2897</ele>
        <time>2021-10-02T12:26:12Z</time>
      </trkpt>
      <trkpt lat="45.37845" lon="6.78961">
        <ele>2895</ele>
        <time>2021-10-02T12:26:24Z</time>
      </trkpt>
      <trkpt lat="45.37842" lon="6.78954">
        <ele>2895</ele>
        <time>2021-10-02T12:26:29Z</time>
      </trkpt>
      <trkpt lat="45.37839" lon="6.78948">
        <ele>2895</ele>
        <time>2021-10-02T12:26:35Z</time>
      </trkpt>
      <trkpt lat="45.37829" lon="6.78939">
        <ele>2896</ele>
        <time>2021-10-02T12:26:49Z</time>
      </trkpt>
      <trkpt lat="45.37825" lon="6.78929">
        <ele>2896</ele>
        <time>2021-10-02T12:26:57Z</time>
      </trkpt>
      <trkpt lat="45.37815" lon="6.78917">
        <ele>2899</ele>
        <time>2021-10-02T12:27:17Z</time>
      </trkpt>
      <trkpt lat="45.37808" lon="6.78905">
        <ele>2899</ele>
        <time>2021-10-02T12:27:30Z</time>
      </trkpt>
      <trkpt lat="45.37807" lon="6.78897">
        <ele>2900</ele>
        <time>2021-10-02T12:27:36Z</time>
      </trkpt>
      <trkpt lat="45.37802" lon="6.78891">
        <ele>2900</ele>
        <time>2021-10-02T12:27:42Z</time>
      </trkpt>
      <trkpt lat="45.37797" lon="6.78886">
        <ele>2901</ele>
        <time>2021-10-02T12:27:51Z</time>
      </trkpt>
      <trkpt lat="45.37788" lon="6.78882">
        <ele>2903</ele>
        <time>2021-10-02T12:28:04Z</time>
      </trkpt>
      <trkpt lat="45.37781" lon="6.78875">
        <ele>2904</ele>
        <time>2021-10-02T12:28:17Z</time>
      </trkpt>
      <trkpt lat="45.37776" lon="6.7887">
        <ele>2905</ele>
        <time>2021-10-02T12:28:29Z</time>
      </trkpt>
      <trkpt lat="45.3777" lon="6.7887">
        <ele>2906</ele>
        <time>2021-10-02T12:28:36Z</time>
      </trkpt>
      <trkpt lat="45.37763" lon="6.78859">
        <ele>2907</ele>
        <time>2021-10-02T12:28:50Z</time>
      </trkpt>
      <trkpt lat="45.37757" lon="6.78849">
        <ele>2907</ele>
        <time>2021-10-02T12:29:02Z</time>
      </trkpt>
      <trkpt lat="45.37752" lon="6.78843">
        <ele>2909</ele>
        <time>2021-10-02T12:29:14Z</time>
      </trkpt>
      <trkpt lat="45.37745" lon="6.78833">
        <ele>2909</ele>
        <time>2021-10-02T12:29:26Z</time>
      </trkpt>
      <trkpt lat="45.37738" lon="6.78827">
        <ele>2911</ele>
        <time>2021-10-02T12:29:39Z</time>
      </trkpt>
      <trkpt lat="45.37733" lon="6.7882">
        <ele>2910</ele>
        <time>2021-10-02T12:29:51Z</time>
      </trkpt>
      <trkpt lat="45.37724" lon="6.78816">
        <ele>2909</ele>
        <time>2021-10-02T12:30:04Z</time>
      </trkpt>
      <trkpt lat="45.37717" lon="6.78812">
        <ele>2912</ele>
        <time>2021-10-02T12:30:22Z</time>
      </trkpt>
      <trkpt lat="45.37713" lon="6.78807">
        <ele>2913</ele>
        <time>2021-10-02T12:30:34Z</time>
      </trkpt>
      <trkpt lat="45.37706" lon="6.78803">
        <ele>2914</ele>
        <time>2021-10-02T12:30:46Z</time>
      </trkpt>
      <trkpt lat="45.37702" lon="6.78798">
        <ele>2916</ele>
        <time>2021-10-02T12:30:58Z</time>
      </trkpt>
      <trkpt lat="45.37696" lon="6.78797">
        <ele>2917</ele>
        <time>2021-10-02T12:31:16Z</time>
      </trkpt>
      <trkpt lat="45.37692" lon="6.78793">
        <ele>2920</ele>
        <time>2021-10-02T12:31:34Z</time>
      </trkpt>
      <trkpt lat="45.37687" lon="6.78788">
        <ele>2921</ele>
        <time>2021-10-02T12:31:46Z</time>
      </trkpt>
      <trkpt lat="45.37682" lon="6.78783">
        <ele>2921</ele>
        <time>2021-10-02T12:32:08Z</time>
      </trkpt>
      <trkpt lat="45.37675" lon="6.78776">
        <ele>2926</ele>
        <time>2021-10-02T12:32:31Z</time>
      </trkpt>
      <trkpt lat="45.3767" lon="6.78773">
        <ele>2927</ele>
        <time>2021-10-02T12:32:49Z</time>
      </trkpt>
      <trkpt lat="45.37666" lon="6.78767">
        <ele>2929</ele>
        <time>2021-10-02T12:33:07Z</time>
      </trkpt>
      <trkpt lat="45.37661" lon="6.78763">
        <ele>2931</ele>
        <time>2021-10-02T12:33:18Z</time>
      </trkpt>
      <trkpt lat="45.37657" lon="6.78757">
        <ele>2932</ele>
        <time>2021-10-02T12:33:25Z</time>
      </trkpt>
      <trkpt lat="45.37651" lon="6.78766">
        <ele>2935</ele>
        <time>2021-10-02T12:34:36Z</time>
      </trkpt>
      <trkpt lat="45.37643" lon="6.78772">
        <ele>2936</ele>
        <time>2021-10-02T12:34:49Z</time>
      </trkpt>
      <trkpt lat="45.37637" lon="6.78774">
        <ele>2939</ele>
        <time>2021-10-02T12:35:07Z</time>
      </trkpt>
      <trkpt lat="45.37633" lon="6.78783">
        <ele>2940</ele>
        <time>2021-10-02T12:35:25Z</time>
      </trkpt>
      <trkpt lat="45.37629" lon="6.78789">
        <ele>2942</ele>
        <time>2021-10-02T12:35:37Z</time>
      </trkpt>
      <trkpt lat="45.3762" lon="6.78803">
        <ele>2947</ele>
        <time>2021-10-02T12:36:13Z</time>
      </trkpt>
      <trkpt lat="45.37617" lon="6.78812">
        <ele>2949</ele>
        <time>2021-10-02T12:36:31Z</time>
      </trkpt>
      <trkpt lat="45.37611" lon="6.78819">
        <ele>2953</ele>
        <time>2021-10-02T12:36:55Z</time>
      </trkpt>
      <trkpt lat="45.37609" lon="6.78826">
        <ele>2955</ele>
        <time>2021-10-02T12:37:13Z</time>
      </trkpt>
      <trkpt lat="45.37604" lon="6.78836">
        <ele>2958</ele>
        <time>2021-10-02T12:37:37Z</time>
      </trkpt>
      <trkpt lat="45.37599" lon="6.78841">
        <ele>2959</ele>
        <time>2021-10-02T12:37:55Z</time>
      </trkpt>
      <trkpt lat="45.37588" lon="6.78853">
        <ele>2965</ele>
        <time>2021-10-02T12:38:31Z</time>
      </trkpt>
      <trkpt lat="45.37582" lon="6.78852">
        <ele>2965</ele>
        <time>2021-10-02T12:38:43Z</time>
      </trkpt>
      <trkpt lat="45.37577" lon="6.78869">
        <ele>2970</ele>
        <time>2021-10-02T12:39:25Z</time>
      </trkpt>
      <trkpt lat="45.37573" lon="6.78874">
        <ele>2971</ele>
        <time>2021-10-02T12:39:42Z</time>
      </trkpt>
      <trkpt lat="45.3757" lon="6.78895">
        <ele>2974</ele>
        <time>2021-10-02T12:40:05Z</time>
      </trkpt>
      <trkpt lat="45.37565" lon="6.78898">
        <ele>2977</ele>
        <time>2021-10-02T12:40:17Z</time>
      </trkpt>
      <trkpt lat="45.37559" lon="6.78904">
        <ele>2977</ele>
        <time>2021-10-02T12:40:29Z</time>
      </trkpt>
      <trkpt lat="45.37554" lon="6.7891">
        <ele>2978</ele>
        <time>2021-10-02T12:40:41Z</time>
      </trkpt>
      <trkpt lat="45.37549" lon="6.78915">
        <ele>2980</ele>
        <time>2021-10-02T12:40:53Z</time>
      </trkpt>
      <trkpt lat="45.3754" lon="6.78929">
        <ele>2982</ele>
        <time>2021-10-02T12:41:17Z</time>
      </trkpt>
      <trkpt lat="45.37538" lon="6.78939">
        <ele>2984</ele>
        <time>2021-10-02T12:41:35Z</time>
      </trkpt>
      <trkpt lat="45.37531" lon="6.78948">
        <ele>2986</ele>
        <time>2021-10-02T12:42:29Z</time>
      </trkpt>
      <trkpt lat="45.37531" lon="6.78947">
        <ele>2988</ele>
        <time>2021-10-02T12:44:41Z</time>
      </trkpt>
      <trkpt lat="45.37537" lon="6.78938">
        <ele>2987</ele>
        <time>2021-10-02T12:46:09Z</time>
      </trkpt>
      <trkpt lat="45.37547" lon="6.7893">
        <ele>2985</ele>
        <time>2021-10-02T12:46:19Z</time>
      </trkpt>
      <trkpt lat="45.37562" lon="6.78903">
        <ele>2981</ele>
        <time>2021-10-02T12:46:46Z</time>
      </trkpt>
      <trkpt lat="45.37568" lon="6.789">
        <ele>2979</ele>
        <time>2021-10-02T12:46:54Z</time>
      </trkpt>
      <trkpt lat="45.37571" lon="6.78887">
        <ele>2977</ele>
        <time>2021-10-02T12:47:06Z</time>
      </trkpt>
      <trkpt lat="45.37588" lon="6.78857">
        <ele>2971</ele>
        <time>2021-10-02T12:47:48Z</time>
      </trkpt>
      <trkpt lat="45.37602" lon="6.78853">
        <ele>2968</ele>
        <time>2021-10-02T12:48:06Z</time>
      </trkpt>
      <trkpt lat="45.37609" lon="6.78844">
        <ele>2964</ele>
        <time>2021-10-02T12:48:20Z</time>
      </trkpt>
      <trkpt lat="45.37617" lon="6.78839">
        <ele>2961</ele>
        <time>2021-10-02T12:48:32Z</time>
      </trkpt>
      <trkpt lat="45.37623" lon="6.78838">
        <ele>2960</ele>
        <time>2021-10-02T12:48:37Z</time>
      </trkpt>
      <trkpt lat="45.37629" lon="6.78833">
        <ele>2957</ele>
        <time>2021-10-02T12:48:46Z</time>
      </trkpt>
      <trkpt lat="45.37634" lon="6.78825">
        <ele>2954</ele>
        <time>2021-10-02T12:48:58Z</time>
      </trkpt>
      <trkpt lat="45.37644" lon="6.7881">
        <ele>2949</ele>
        <time>2021-10-02T12:49:20Z</time>
      </trkpt>
      <trkpt lat="45.37652" lon="6.78817">
        <ele>2946</ele>
        <time>2021-10-02T12:49:32Z</time>
      </trkpt>
      <trkpt lat="45.37661" lon="6.7882">
        <ele>2943</ele>
        <time>2021-10-02T12:49:46Z</time>
      </trkpt>
      <trkpt lat="45.37667" lon="6.78818">
        <ele>2941</ele>
        <time>2021-10-02T12:49:58Z</time>
      </trkpt>
      <trkpt lat="45.37674" lon="6.78811">
        <ele>2937</ele>
        <time>2021-10-02T12:50:10Z</time>
      </trkpt>
      <trkpt lat="45.37681" lon="6.7881">
        <ele>2936</ele>
        <time>2021-10-02T12:50:22Z</time>
      </trkpt>
      <trkpt lat="45.37688" lon="6.78815">
        <ele>2933</ele>
        <time>2021-10-02T12:50:40Z</time>
      </trkpt>
      <trkpt lat="45.37709" lon="6.78821">
        <ele>2928</ele>
        <time>2021-10-02T12:51:11Z</time>
      </trkpt>
      <trkpt lat="45.37715" lon="6.78822">
        <ele>2926</ele>
        <time>2021-10-02T12:51:18Z</time>
      </trkpt>
      <trkpt lat="45.3772" lon="6.78818">
        <ele>2924</ele>
        <time>2021-10-02T12:51:24Z</time>
      </trkpt>
      <trkpt lat="45.37726" lon="6.78815">
        <ele>2921</ele>
        <time>2021-10-02T12:51:38Z</time>
      </trkpt>
      <trkpt lat="45.37732" lon="6.78822">
        <ele>2920</ele>
        <time>2021-10-02T12:51:51Z</time>
      </trkpt>
      <trkpt lat="45.37743" lon="6.78831">
        <ele>2920</ele>
        <time>2021-10-02T12:52:15Z</time>
      </trkpt>
      <trkpt lat="45.3775" lon="6.7884">
        <ele>2919</ele>
        <time>2021-10-02T12:52:29Z</time>
      </trkpt>
      <trkpt lat="45.37752" lon="6.78847">
        <ele>2920</ele>
        <time>2021-10-02T12:52:35Z</time>
      </trkpt>
      <trkpt lat="45.37761" lon="6.78865">
        <ele>2917</ele>
        <time>2021-10-02T12:52:54Z</time>
      </trkpt>
      <trkpt lat="45.37762" lon="6.78871">
        <ele>2918</ele>
        <time>2021-10-02T12:52:59Z</time>
      </trkpt>
      <trkpt lat="45.37765" lon="6.78876">
        <ele>2917</ele>
        <time>2021-10-02T12:53:03Z</time>
      </trkpt>
      <trkpt lat="45.37767" lon="6.78884">
        <ele>2917</ele>
        <time>2021-10-02T12:53:11Z</time>
      </trkpt>
      <trkpt lat="45.37772" lon="6.78887">
        <ele>2916</ele>
        <time>2021-10-02T12:53:18Z</time>
      </trkpt>
      <trkpt lat="45.37778" lon="6.78889">
        <ele>2915</ele>
        <time>2021-10-02T12:53:23Z</time>
      </trkpt>
      <trkpt lat="45.37787" lon="6.78894">
        <ele>2914</ele>
        <time>2021-10-02T12:53:30Z</time>
      </trkpt>
      <trkpt lat="45.37789" lon="6.78899">
        <ele>2915</ele>
        <time>2021-10-02T12:53:33Z</time>
      </trkpt>
      <trkpt lat="45.37802" lon="6.78904">
        <ele>2912</ele>
        <time>2021-10-02T12:53:51Z</time>
      </trkpt>
      <trkpt lat="45.37806" lon="6.78898">
        <ele>2911</ele>
        <time>2021-10-02T12:53:56Z</time>
      </trkpt>
      <trkpt lat="45.3781" lon="6.78908">
        <ele>2910</ele>
        <time>2021-10-02T12:54:11Z</time>
      </trkpt>
      <trkpt lat="45.37811" lon="6.78912">
        <ele>2910</ele>
        <time>2021-10-02T12:54:14Z</time>
      </trkpt>
      <trkpt lat="45.37816" lon="6.78918">
        <ele>2910</ele>
        <time>2021-10-02T12:54:22Z</time>
      </trkpt>
      <trkpt lat="45.37828" lon="6.78934">
        <ele>2907</ele>
        <time>2021-10-02T12:54:39Z</time>
      </trkpt>
      <trkpt lat="45.37831" lon="6.78941">
        <ele>2907</ele>
        <time>2021-10-02T12:54:46Z</time>
      </trkpt>
      <trkpt lat="45.37836" lon="6.78948">
        <ele>2906</ele>
        <time>2021-10-02T12:54:54Z</time>
      </trkpt>
      <trkpt lat="45.37838" lon="6.78952">
        <ele>2906</ele>
        <time>2021-10-02T12:54:58Z</time>
      </trkpt>
      <trkpt lat="45.37844" lon="6.78958">
        <ele>2906</ele>
        <time>2021-10-02T12:55:05Z</time>
      </trkpt>
      <trkpt lat="45.37847" lon="6.78961">
        <ele>2906</ele>
        <time>2021-10-02T12:55:09Z</time>
      </trkpt>
      <trkpt lat="45.37852" lon="6.78966">
        <ele>2906</ele>
        <time>2021-10-02T12:55:19Z</time>
      </trkpt>
      <trkpt lat="45.37856" lon="6.78968">
        <ele>2906</ele>
        <time>2021-10-02T12:55:23Z</time>
      </trkpt>
      <trkpt lat="45.37859" lon="6.78973">
        <ele>2906</ele>
        <time>2021-10-02T12:55:31Z</time>
      </trkpt>
      <trkpt lat="45.37867" lon="6.78965">
        <ele>2905</ele>
        <time>2021-10-02T12:55:44Z</time>
      </trkpt>
      <trkpt lat="45.37873" lon="6.78959">
        <ele>2906</ele>
        <time>2021-10-02T12:55:54Z</time>
      </trkpt>
      <trkpt lat="45.37879" lon="6.78953">
        <ele>2904</ele>
        <time>2021-10-02T12:56:06Z</time>
      </trkpt>
      <trkpt lat="45.37883" lon="6.78962">
        <ele>2903</ele>
        <time>2021-10-02T12:56:36Z</time>
      </trkpt>
      <trkpt lat="45.37889" lon="6.78978">
        <ele>2902</ele>
        <time>2021-10-02T12:57:01Z</time>
      </trkpt>
      <trkpt lat="45.37892" lon="6.78995">
        <ele>2899</ele>
        <time>2021-10-02T12:57:12Z</time>
      </trkpt>
      <trkpt lat="45.37891" lon="6.79005">
        <ele>2897</ele>
        <time>2021-10-02T12:57:22Z</time>
      </trkpt>
      <trkpt lat="45.37899" lon="6.79017">
        <ele>2891</ele>
        <time>2021-10-02T12:57:52Z</time>
      </trkpt>
      <trkpt lat="45.379" lon="6.7903">
        <ele>2890</ele>
        <time>2021-10-02T12:58:04Z</time>
      </trkpt>
      <trkpt lat="45.37902" lon="6.79038">
        <ele>2886</ele>
        <time>2021-10-02T12:58:40Z</time>
      </trkpt>
      <trkpt lat="45.37908" lon="6.79038">
        <ele>2880</ele>
        <time>2021-10-02T12:59:34Z</time>
      </trkpt>
      <trkpt lat="45.37912" lon="6.7903">
        <ele>2878</ele>
        <time>2021-10-02T12:59:40Z</time>
      </trkpt>
      <trkpt lat="45.37916" lon="6.79025">
        <ele>2877</ele>
        <time>2021-10-02T12:59:52Z</time>
      </trkpt>
      <trkpt lat="45.3792" lon="6.79012">
        <ele>2873</ele>
        <time>2021-10-02T13:00:15Z</time>
      </trkpt>
      <trkpt lat="45.37922" lon="6.79005">
        <ele>2873</ele>
        <time>2021-10-02T13:00:21Z</time>
      </trkpt>
      <trkpt lat="45.37931" lon="6.78989">
        <ele>2869</ele>
        <time>2021-10-02T13:00:41Z</time>
      </trkpt>
      <trkpt lat="45.37941" lon="6.78976">
        <ele>2863</ele>
        <time>2021-10-02T13:01:16Z</time>
      </trkpt>
      <trkpt lat="45.37945" lon="6.78968">
        <ele>2862</ele>
        <time>2021-10-02T13:01:23Z</time>
      </trkpt>
      <trkpt lat="45.37952" lon="6.78969">
        <ele>2856</ele>
        <time>2021-10-02T13:01:55Z</time>
      </trkpt>
      <trkpt lat="45.37957" lon="6.78965">
        <ele>2854</ele>
        <time>2021-10-02T13:02:06Z</time>
      </trkpt>
      <trkpt lat="45.37962" lon="6.78956">
        <ele>2851</ele>
        <time>2021-10-02T13:02:18Z</time>
      </trkpt>
      <trkpt lat="45.37964" lon="6.78948">
        <ele>2851</ele>
        <time>2021-10-02T13:02:24Z</time>
      </trkpt>
      <trkpt lat="45.37967" lon="6.78942">
        <ele>2848</ele>
        <time>2021-10-02T13:02:37Z</time>
      </trkpt>
      <trkpt lat="45.37973" lon="6.7893">
        <ele>2844</ele>
        <time>2021-10-02T13:03:01Z</time>
      </trkpt>
      <trkpt lat="45.37977" lon="6.78922">
        <ele>2844</ele>
        <time>2021-10-02T13:03:15Z</time>
      </trkpt>
      <trkpt lat="45.37981" lon="6.78915">
        <ele>2843</ele>
        <time>2021-10-02T13:03:20Z</time>
      </trkpt>
      <trkpt lat="45.37982" lon="6.78908">
        <ele>2840</ele>
        <time>2021-10-02T13:03:40Z</time>
      </trkpt>
      <trkpt lat="45.37992" lon="6.78941">
        <ele>2829</ele>
        <time>2021-10-02T13:04:28Z</time>
      </trkpt>
      <trkpt lat="45.3799" lon="6.78948">
        <ele>2825</ele>
        <time>2021-10-02T13:04:35Z</time>
      </trkpt>
      <trkpt lat="45.37988" lon="6.78955">
        <ele>2826</ele>
        <time>2021-10-02T13:04:47Z</time>
      </trkpt>
      <trkpt lat="45.37997" lon="6.78953">
        <ele>2822</ele>
        <time>2021-10-02T13:05:18Z</time>
      </trkpt>
      <trkpt lat="45.38001" lon="6.78968">
        <ele>2816</ele>
        <time>2021-10-02T13:05:44Z</time>
      </trkpt>
      <trkpt lat="45.38" lon="6.78973">
        <ele>2815</ele>
        <time>2021-10-02T13:05:52Z</time>
      </trkpt>
      <trkpt lat="45.38" lon="6.78979">
        <ele>2815</ele>
        <time>2021-10-02T13:05:58Z</time>
      </trkpt>
      <trkpt lat="45.38016" lon="6.79017">
        <ele>2810</ele>
        <time>2021-10-02T13:06:37Z</time>
      </trkpt>
      <trkpt lat="45.3802" lon="6.79025">
        <ele>2808</ele>
        <time>2021-10-02T13:06:45Z</time>
      </trkpt>
      <trkpt lat="45.38034" lon="6.79044">
        <ele>2801</ele>
        <time>2021-10-02T13:07:15Z</time>
      </trkpt>
      <trkpt lat="45.38041" lon="6.79052">
        <ele>2798</ele>
        <time>2021-10-02T13:07:26Z</time>
      </trkpt>
      <trkpt lat="45.38044" lon="6.79057">
        <ele>2797</ele>
        <time>2021-10-02T13:07:40Z</time>
      </trkpt>
      <trkpt lat="45.38047" lon="6.79064">
        <ele>2795</ele>
        <time>2021-10-02T13:07:45Z</time>
      </trkpt>
      <trkpt lat="45.3805" lon="6.79069">
        <ele>2796</ele>
        <time>2021-10-02T13:07:52Z</time>
      </trkpt>
      <trkpt lat="45.38055" lon="6.79073">
        <ele>2794</ele>
        <time>2021-10-02T13:08:04Z</time>
      </trkpt>
      <trkpt lat="45.38061" lon="6.79079">
        <ele>2793</ele>
        <time>2021-10-02T13:08:09Z</time>
      </trkpt>
      <trkpt lat="45.3807" lon="6.79086">
        <ele>2790</ele>
        <time>2021-10-02T13:08:24Z</time>
      </trkpt>
      <trkpt lat="45.38078" lon="6.79082">
        <ele>2789</ele>
        <time>2021-10-02T13:08:36Z</time>
      </trkpt>
      <trkpt lat="45.38085" lon="6.79086">
        <ele>2789</ele>
        <time>2021-10-02T13:08:45Z</time>
      </trkpt>
      <trkpt lat="45.3809" lon="6.79088">
        <ele>2785</ele>
        <time>2021-10-02T13:08:57Z</time>
      </trkpt>
      <trkpt lat="45.38093" lon="6.79091">
        <ele>2785</ele>
        <time>2021-10-02T13:09:03Z</time>
      </trkpt>
      <trkpt lat="45.38102" lon="6.79096">
        <ele>2785</ele>
        <time>2021-10-02T13:09:15Z</time>
      </trkpt>
      <trkpt lat="45.38107" lon="6.79094">
        <ele>2785</ele>
        <time>2021-10-02T13:09:21Z</time>
      </trkpt>
      <trkpt lat="45.38113" lon="6.7909">
        <ele>2784</ele>
        <time>2021-10-02T13:09:27Z</time>
      </trkpt>
      <trkpt lat="45.38122" lon="6.7908">
        <ele>2783</ele>
        <time>2021-10-02T13:09:39Z</time>
      </trkpt>
      <trkpt lat="45.38132" lon="6.79076">
        <ele>2781</ele>
        <time>2021-10-02T13:09:50Z</time>
      </trkpt>
      <trkpt lat="45.38139" lon="6.79071">
        <ele>2780</ele>
        <time>2021-10-02T13:09:58Z</time>
      </trkpt>
      <trkpt lat="45.38143" lon="6.79064">
        <ele>2779</ele>
        <time>2021-10-02T13:10:02Z</time>
      </trkpt>
      <trkpt lat="45.38146" lon="6.79052">
        <ele>2777</ele>
        <time>2021-10-02T13:10:11Z</time>
      </trkpt>
      <trkpt lat="45.38149" lon="6.79045">
        <ele>2777</ele>
        <time>2021-10-02T13:10:17Z</time>
      </trkpt>
      <trkpt lat="45.38153" lon="6.79037">
        <ele>2777</ele>
        <time>2021-10-02T13:10:23Z</time>
      </trkpt>
      <trkpt lat="45.38157" lon="6.79034">
        <ele>2777</ele>
        <time>2021-10-02T13:10:32Z</time>
      </trkpt>
      <trkpt lat="45.38161" lon="6.79028">
        <ele>2774</ele>
        <time>2021-10-02T13:10:38Z</time>
      </trkpt>
      <trkpt lat="45.38166" lon="6.7903">
        <ele>2772</ele>
        <time>2021-10-02T13:10:47Z</time>
      </trkpt>
      <trkpt lat="45.38174" lon="6.79032">
        <ele>2771</ele>
        <time>2021-10-02T13:10:59Z</time>
      </trkpt>
      <trkpt lat="45.38178" lon="6.79026">
        <ele>2769</ele>
        <time>2021-10-02T13:11:05Z</time>
      </trkpt>
      <trkpt lat="45.38186" lon="6.79022">
        <ele>2766</ele>
        <time>2021-10-02T13:11:19Z</time>
      </trkpt>
      <trkpt lat="45.38187" lon="6.79016">
        <ele>2765</ele>
        <time>2021-10-02T13:11:22Z</time>
      </trkpt>
      <trkpt lat="45.38198" lon="6.79026">
        <ele>2762</ele>
        <time>2021-10-02T13:11:37Z</time>
      </trkpt>
      <trkpt lat="45.38202" lon="6.79024">
        <ele>2761</ele>
        <time>2021-10-02T13:11:42Z</time>
      </trkpt>
      <trkpt lat="45.38209" lon="6.79016">
        <ele>2757</ele>
        <time>2021-10-02T13:11:56Z</time>
      </trkpt>
      <trkpt lat="45.38212" lon="6.79024">
        <ele>2754</ele>
        <time>2021-10-02T13:12:09Z</time>
      </trkpt>
      <trkpt lat="45.38213" lon="6.79033">
        <ele>2753</ele>
        <time>2021-10-02T13:12:17Z</time>
      </trkpt>
      <trkpt lat="45.38215" lon="6.79043">
        <ele>2754</ele>
        <time>2021-10-02T13:12:35Z</time>
      </trkpt>
      <trkpt lat="45.38221" lon="6.79043">
        <ele>2752</ele>
        <time>2021-10-02T13:12:47Z</time>
      </trkpt>
      <trkpt lat="45.38223" lon="6.79035">
        <ele>2751</ele>
        <time>2021-10-02T13:12:52Z</time>
      </trkpt>
      <trkpt lat="45.38231" lon="6.7904">
        <ele>2748</ele>
        <time>2021-10-02T13:13:12Z</time>
      </trkpt>
      <trkpt lat="45.38237" lon="6.79034">
        <ele>2745</ele>
        <time>2021-10-02T13:13:30Z</time>
      </trkpt>
      <trkpt lat="45.38238" lon="6.79045">
        <ele>2744</ele>
        <time>2021-10-02T13:13:41Z</time>
      </trkpt>
      <trkpt lat="45.38239" lon="6.79054">
        <ele>2743</ele>
        <time>2021-10-02T13:13:46Z</time>
      </trkpt>
      <trkpt lat="45.38246" lon="6.79055">
        <ele>2738</ele>
        <time>2021-10-02T13:14:32Z</time>
      </trkpt>
      <trkpt lat="45.38249" lon="6.7905">
        <ele>2735</ele>
        <time>2021-10-02T13:14:42Z</time>
      </trkpt>
      <trkpt lat="45.38252" lon="6.79042">
        <ele>2733</ele>
        <time>2021-10-02T13:14:48Z</time>
      </trkpt>
      <trkpt lat="45.38257" lon="6.7905">
        <ele>2730</ele>
        <time>2021-10-02T13:15:13Z</time>
      </trkpt>
      <trkpt lat="45.38264" lon="6.79054">
        <ele>2726</ele>
        <time>2021-10-02T13:15:48Z</time>
      </trkpt>
      <trkpt lat="45.38267" lon="6.79058">
        <ele>2724</ele>
        <time>2021-10-02T13:15:52Z</time>
      </trkpt>
      <trkpt lat="45.38271" lon="6.79066">
        <ele>2724</ele>
        <time>2021-10-02T13:15:57Z</time>
      </trkpt>
      <trkpt lat="45.38274" lon="6.79074">
        <ele>2722</ele>
        <time>2021-10-02T13:16:07Z</time>
      </trkpt>
      <trkpt lat="45.38276" lon="6.79082">
        <ele>2720</ele>
        <time>2021-10-02T13:16:14Z</time>
      </trkpt>
      <trkpt lat="45.38277" lon="6.79092">
        <ele>2720</ele>
        <time>2021-10-02T13:16:22Z</time>
      </trkpt>
      <trkpt lat="45.38281" lon="6.79092">
        <ele>2717</ele>
        <time>2021-10-02T13:16:36Z</time>
      </trkpt>
      <trkpt lat="45.38287" lon="6.79078">
        <ele>2714</ele>
        <time>2021-10-02T13:16:52Z</time>
      </trkpt>
      <trkpt lat="45.38293" lon="6.79073">
        <ele>2710</ele>
        <time>2021-10-02T13:17:06Z</time>
      </trkpt>
      <trkpt lat="45.38299" lon="6.79068">
        <ele>2708</ele>
        <time>2021-10-02T13:17:18Z</time>
      </trkpt>
      <trkpt lat="45.38306" lon="6.79067">
        <ele>2705</ele>
        <time>2021-10-02T13:17:30Z</time>
      </trkpt>
      <trkpt lat="45.38312" lon="6.79071">
        <ele>2702</ele>
        <time>2021-10-02T13:17:42Z</time>
      </trkpt>
      <trkpt lat="45.38318" lon="6.79074">
        <ele>2701</ele>
        <time>2021-10-02T13:17:48Z</time>
      </trkpt>
      <trkpt lat="45.38324" lon="6.79073">
        <ele>2700</ele>
        <time>2021-10-02T13:17:54Z</time>
      </trkpt>
      <trkpt lat="45.38329" lon="6.79076">
        <ele>2699</ele>
        <time>2021-10-02T13:18:00Z</time>
      </trkpt>
      <trkpt lat="45.38334" lon="6.79084">
        <ele>2698</ele>
        <time>2021-10-02T13:18:10Z</time>
      </trkpt>
      <trkpt lat="45.38338" lon="6.79095">
        <ele>2695</ele>
        <time>2021-10-02T13:18:22Z</time>
      </trkpt>
      <trkpt lat="45.38345" lon="6.79095">
        <ele>2695</ele>
        <time>2021-10-02T13:18:28Z</time>
      </trkpt>
      <trkpt lat="45.38351" lon="6.79096">
        <ele>2695</ele>
        <time>2021-10-02T13:18:33Z</time>
      </trkpt>
      <trkpt lat="45.38357" lon="6.79092">
        <ele>2694</ele>
        <time>2021-10-02T13:18:38Z</time>
      </trkpt>
      <trkpt lat="45.38362" lon="6.79087">
        <ele>2693</ele>
        <time>2021-10-02T13:18:46Z</time>
      </trkpt>
      <trkpt lat="45.38368" lon="6.79087">
        <ele>2692</ele>
        <time>2021-10-02T13:18:53Z</time>
      </trkpt>
      <trkpt lat="45.38373" lon="6.7909">
        <ele>2691</ele>
        <time>2021-10-02T13:19:03Z</time>
      </trkpt>
      <trkpt lat="45.38379" lon="6.79091">
        <ele>2688</ele>
        <time>2021-10-02T13:19:15Z</time>
      </trkpt>
      <trkpt lat="45.38384" lon="6.79094">
        <ele>2686</ele>
        <time>2021-10-02T13:19:28Z</time>
      </trkpt>
      <trkpt lat="45.38387" lon="6.79098">
        <ele>2685</ele>
        <time>2021-10-02T13:19:32Z</time>
      </trkpt>
      <trkpt lat="45.38394" lon="6.79101">
        <ele>2681</ele>
        <time>2021-10-02T13:19:52Z</time>
      </trkpt>
      <trkpt lat="45.38398" lon="6.79092">
        <ele>2678</ele>
        <time>2021-10-02T13:20:03Z</time>
      </trkpt>
      <trkpt lat="45.38404" lon="6.79093">
        <ele>2675</ele>
        <time>2021-10-02T13:20:15Z</time>
      </trkpt>
      <trkpt lat="45.38412" lon="6.79094">
        <ele>2673</ele>
        <time>2021-10-02T13:20:34Z</time>
      </trkpt>
      <trkpt lat="45.38419" lon="6.79092">
        <ele>2669</ele>
        <time>2021-10-02T13:20:52Z</time>
      </trkpt>
      <trkpt lat="45.38425" lon="6.79091">
        <ele>2666</ele>
        <time>2021-10-02T13:21:10Z</time>
      </trkpt>
      <trkpt lat="45.38437" lon="6.79096">
        <ele>2659</ele>
        <time>2021-10-02T13:21:51Z</time>
      </trkpt>
      <trkpt lat="45.38442" lon="6.79108">
        <ele>2657</ele>
        <time>2021-10-02T13:22:01Z</time>
      </trkpt>
      <trkpt lat="45.38446" lon="6.79117">
        <ele>2657</ele>
        <time>2021-10-02T13:22:08Z</time>
      </trkpt>
      <trkpt lat="45.38454" lon="6.79124">
        <ele>2655</ele>
        <time>2021-10-02T13:22:23Z</time>
      </trkpt>
      <trkpt lat="45.3846" lon="6.79124">
        <ele>2653</ele>
        <time>2021-10-02T13:22:30Z</time>
      </trkpt>
      <trkpt lat="45.38467" lon="6.79127">
        <ele>2652</ele>
        <time>2021-10-02T13:22:42Z</time>
      </trkpt>
      <trkpt lat="45.38473" lon="6.79126">
        <ele>2650</ele>
        <time>2021-10-02T13:22:54Z</time>
      </trkpt>
      <trkpt lat="45.38487" lon="6.79107">
        <ele>2645</ele>
        <time>2021-10-02T13:23:18Z</time>
      </trkpt>
      <trkpt lat="45.38493" lon="6.79106">
        <ele>2644</ele>
        <time>2021-10-02T13:23:25Z</time>
      </trkpt>
      <trkpt lat="45.38497" lon="6.79097">
        <ele>2642</ele>
        <time>2021-10-02T13:23:37Z</time>
      </trkpt>
      <trkpt lat="45.38503" lon="6.79092">
        <ele>2639</ele>
        <time>2021-10-02T13:23:49Z</time>
      </trkpt>
      <trkpt lat="45.38518" lon="6.7909">
        <ele>2635</ele>
        <time>2021-10-02T13:24:13Z</time>
      </trkpt>
      <trkpt lat="45.38531" lon="6.79099">
        <ele>2629</ele>
        <time>2021-10-02T13:24:37Z</time>
      </trkpt>
      <trkpt lat="45.38533" lon="6.79092">
        <ele>2628</ele>
        <time>2021-10-02T13:24:42Z</time>
      </trkpt>
      <trkpt lat="45.38534" lon="6.79083">
        <ele>2627</ele>
        <time>2021-10-02T13:24:47Z</time>
      </trkpt>
      <trkpt lat="45.38538" lon="6.79074">
        <ele>2626</ele>
        <time>2021-10-02T13:24:56Z</time>
      </trkpt>
      <trkpt lat="45.38537" lon="6.79064">
        <ele>2623</ele>
        <time>2021-10-02T13:25:10Z</time>
      </trkpt>
      <trkpt lat="45.38544" lon="6.79062">
        <ele>2619</ele>
        <time>2021-10-02T13:25:33Z</time>
      </trkpt>
      <trkpt lat="45.38551" lon="6.79054">
        <ele>2617</ele>
        <time>2021-10-02T13:25:45Z</time>
      </trkpt>
      <trkpt lat="45.38555" lon="6.79046">
        <ele>2616</ele>
        <time>2021-10-02T13:25:53Z</time>
      </trkpt>
      <trkpt lat="45.38557" lon="6.79038">
        <ele>2614</ele>
        <time>2021-10-02T13:26:02Z</time>
      </trkpt>
      <trkpt lat="45.38565" lon="6.79043">
        <ele>2611</ele>
        <time>2021-10-02T13:26:19Z</time>
      </trkpt>
      <trkpt lat="45.38571" lon="6.79037">
        <ele>2608</ele>
        <time>2021-10-02T13:26:34Z</time>
      </trkpt>
      <trkpt lat="45.38571" lon="6.79023">
        <ele>2606</ele>
        <time>2021-10-02T13:26:46Z</time>
      </trkpt>
      <trkpt lat="45.38575" lon="6.79018">
        <ele>2603</ele>
        <time>2021-10-02T13:26:59Z</time>
      </trkpt>
      <trkpt lat="45.38577" lon="6.79005">
        <ele>2600</ele>
        <time>2021-10-02T13:27:11Z</time>
      </trkpt>
      <trkpt lat="45.38582" lon="6.78999">
        <ele>2598</ele>
        <time>2021-10-02T13:27:25Z</time>
      </trkpt>
      <trkpt lat="45.38591" lon="6.79005">
        <ele>2596</ele>
        <time>2021-10-02T13:27:38Z</time>
      </trkpt>
      <trkpt lat="45.38598" lon="6.79003">
        <ele>2593</ele>
        <time>2021-10-02T13:27:49Z</time>
      </trkpt>
      <trkpt lat="45.38605" lon="6.78998">
        <ele>2591</ele>
        <time>2021-10-02T13:28:01Z</time>
      </trkpt>
      <trkpt lat="45.38612" lon="6.79001">
        <ele>2588</ele>
        <time>2021-10-02T13:28:13Z</time>
      </trkpt>
      <trkpt lat="45.38617" lon="6.78994">
        <ele>2588</ele>
        <time>2021-10-02T13:28:19Z</time>
      </trkpt>
      <trkpt lat="45.38625" lon="6.78982">
        <ele>2585</ele>
        <time>2021-10-02T13:28:34Z</time>
      </trkpt>
      <trkpt lat="45.38631" lon="6.78978">
        <ele>2583</ele>
        <time>2021-10-02T13:28:55Z</time>
      </trkpt>
      <trkpt lat="45.38636" lon="6.78973">
        <ele>2579</ele>
        <time>2021-10-02T13:29:10Z</time>
      </trkpt>
      <trkpt lat="45.38645" lon="6.78971">
        <ele>2576</ele>
        <time>2021-10-02T13:29:21Z</time>
      </trkpt>
      <trkpt lat="45.3865" lon="6.78971">
        <ele>2576</ele>
        <time>2021-10-02T13:29:33Z</time>
      </trkpt>
      <trkpt lat="45.38657" lon="6.78978">
        <ele>2572</ele>
        <time>2021-10-02T13:29:45Z</time>
      </trkpt>
      <trkpt lat="45.38662" lon="6.7898">
        <ele>2572</ele>
        <time>2021-10-02T13:29:51Z</time>
      </trkpt>
      <trkpt lat="45.38668" lon="6.78982">
        <ele>2570</ele>
        <time>2021-10-02T13:30:05Z</time>
      </trkpt>
      <trkpt lat="45.38674" lon="6.78976">
        <ele>2566</ele>
        <time>2021-10-02T13:30:22Z</time>
      </trkpt>
      <trkpt lat="45.38682" lon="6.78959">
        <ele>2563</ele>
        <time>2021-10-02T13:30:38Z</time>
      </trkpt>
      <trkpt lat="45.38689" lon="6.78954">
        <ele>2560</ele>
        <time>2021-10-02T13:30:52Z</time>
      </trkpt>
      <trkpt lat="45.38703" lon="6.78936">
        <ele>2553</ele>
        <time>2021-10-02T13:31:26Z</time>
      </trkpt>
      <trkpt lat="45.38709" lon="6.78922">
        <ele>2550</ele>
        <time>2021-10-02T13:31:38Z</time>
      </trkpt>
      <trkpt lat="45.38715" lon="6.78917">
        <ele>2549</ele>
        <time>2021-10-02T13:31:46Z</time>
      </trkpt>
      <trkpt lat="45.38718" lon="6.78909">
        <ele>2549</ele>
        <time>2021-10-02T13:31:50Z</time>
      </trkpt>
      <trkpt lat="45.38722" lon="6.78903">
        <ele>2549</ele>
        <time>2021-10-02T13:31:55Z</time>
      </trkpt>
      <trkpt lat="45.3872" lon="6.78897">
        <ele>2548</ele>
        <time>2021-10-02T13:31:59Z</time>
      </trkpt>
      <trkpt lat="45.3872" lon="6.78888">
        <ele>2546</ele>
        <time>2021-10-02T13:32:07Z</time>
      </trkpt>
      <trkpt lat="45.38727" lon="6.78889">
        <ele>2543</ele>
        <time>2021-10-02T13:32:19Z</time>
      </trkpt>
      <trkpt lat="45.38733" lon="6.78892">
        <ele>2542</ele>
        <time>2021-10-02T13:32:31Z</time>
      </trkpt>
      <trkpt lat="45.38737" lon="6.78894">
        <ele>2537</ele>
        <time>2021-10-02T13:33:01Z</time>
      </trkpt>
      <trkpt lat="45.3874" lon="6.78904">
        <ele>2536</ele>
        <time>2021-10-02T13:33:13Z</time>
      </trkpt>
      <trkpt lat="45.38742" lon="6.78911">
        <ele>2534</ele>
        <time>2021-10-02T13:33:19Z</time>
      </trkpt>
      <trkpt lat="45.38748" lon="6.78918">
        <ele>2533</ele>
        <time>2021-10-02T13:33:29Z</time>
      </trkpt>
      <trkpt lat="45.38754" lon="6.7892">
        <ele>2529</ele>
        <time>2021-10-02T13:33:41Z</time>
      </trkpt>
      <trkpt lat="45.38759" lon="6.78924">
        <ele>2530</ele>
        <time>2021-10-02T13:33:49Z</time>
      </trkpt>
      <trkpt lat="45.38762" lon="6.78928">
        <ele>2529</ele>
        <time>2021-10-02T13:33:55Z</time>
      </trkpt>
      <trkpt lat="45.3876" lon="6.78942">
        <ele>2529</ele>
        <time>2021-10-02T13:34:14Z</time>
      </trkpt>
      <trkpt lat="45.3876" lon="6.7895">
        <ele>2528</ele>
        <time>2021-10-02T13:34:20Z</time>
      </trkpt>
      <trkpt lat="45.38764" lon="6.78961">
        <ele>2529</ele>
        <time>2021-10-02T13:34:28Z</time>
      </trkpt>
      <trkpt lat="45.3877" lon="6.78965">
        <ele>2528</ele>
        <time>2021-10-02T13:34:42Z</time>
      </trkpt>
      <trkpt lat="45.38777" lon="6.78959">
        <ele>2525</ele>
        <time>2021-10-02T13:35:01Z</time>
      </trkpt>
      <trkpt lat="45.38787" lon="6.78951">
        <ele>2524</ele>
        <time>2021-10-02T13:35:14Z</time>
      </trkpt>
      <trkpt lat="45.38793" lon="6.78946">
        <ele>2522</ele>
        <time>2021-10-02T13:35:22Z</time>
      </trkpt>
      <trkpt lat="45.388" lon="6.78945">
        <ele>2521</ele>
        <time>2021-10-02T13:35:28Z</time>
      </trkpt>
      <trkpt lat="45.38804" lon="6.78939">
        <ele>2520</ele>
        <time>2021-10-02T13:35:33Z</time>
      </trkpt>
      <trkpt lat="45.3881" lon="6.78936">
        <ele>2519</ele>
        <time>2021-10-02T13:35:39Z</time>
      </trkpt>
      <trkpt lat="45.38816" lon="6.78937">
        <ele>2518</ele>
        <time>2021-10-02T13:35:45Z</time>
      </trkpt>
      <trkpt lat="45.38823" lon="6.78932">
        <ele>2518</ele>
        <time>2021-10-02T13:35:55Z</time>
      </trkpt>
      <trkpt lat="45.38829" lon="6.78931">
        <ele>2518</ele>
        <time>2021-10-02T13:36:01Z</time>
      </trkpt>
      <trkpt lat="45.38835" lon="6.78931">
        <ele>2517</ele>
        <time>2021-10-02T13:36:06Z</time>
      </trkpt>
      <trkpt lat="45.38841" lon="6.78924">
        <ele>2516</ele>
        <time>2021-10-02T13:36:13Z</time>
      </trkpt>
      <trkpt lat="45.38845" lon="6.78919">
        <ele>2517</ele>
        <time>2021-10-02T13:36:17Z</time>
      </trkpt>
      <trkpt lat="45.38854" lon="6.78911">
        <ele>2518</ele>
        <time>2021-10-02T13:36:30Z</time>
      </trkpt>
      <trkpt lat="45.38862" lon="6.78906">
        <ele>2516</ele>
        <time>2021-10-02T13:36:39Z</time>
      </trkpt>
      <trkpt lat="45.38867" lon="6.78902">
        <ele>2517</ele>
        <time>2021-10-02T13:36:44Z</time>
      </trkpt>
      <trkpt lat="45.38872" lon="6.78896">
        <ele>2516</ele>
        <time>2021-10-02T13:36:48Z</time>
      </trkpt>
      <trkpt lat="45.38875" lon="6.7889">
        <ele>2516</ele>
        <time>2021-10-02T13:36:53Z</time>
      </trkpt>
      <trkpt lat="45.38879" lon="6.78884">
        <ele>2515</ele>
        <time>2021-10-02T13:36:59Z</time>
      </trkpt>
      <trkpt lat="45.38881" lon="6.78877">
        <ele>2515</ele>
        <time>2021-10-02T13:37:05Z</time>
      </trkpt>
      <trkpt lat="45.38887" lon="6.7887">
        <ele>2516</ele>
        <time>2021-10-02T13:37:18Z</time>
      </trkpt>
      <trkpt lat="45.38893" lon="6.78864">
        <ele>2516</ele>
        <time>2021-10-02T13:37:32Z</time>
      </trkpt>
      <trkpt lat="45.389" lon="6.78863">
        <ele>2517</ele>
        <time>2021-10-02T13:37:39Z</time>
      </trkpt>
      <trkpt lat="45.38905" lon="6.78858">
        <ele>2516</ele>
        <time>2021-10-02T13:37:44Z</time>
      </trkpt>
      <trkpt lat="45.3891" lon="6.78856">
        <ele>2514</ele>
        <time>2021-10-02T13:37:49Z</time>
      </trkpt>
      <trkpt lat="45.38915" lon="6.7885">
        <ele>2514</ele>
        <time>2021-10-02T13:37:53Z</time>
      </trkpt>
      <trkpt lat="45.38918" lon="6.7884">
        <ele>2514</ele>
        <time>2021-10-02T13:38:05Z</time>
      </trkpt>
      <trkpt lat="45.38926" lon="6.78834">
        <ele>2513</ele>
        <time>2021-10-02T13:38:18Z</time>
      </trkpt>
      <trkpt lat="45.38934" lon="6.78813">
        <ele>2510</ele>
        <time>2021-10-02T13:38:36Z</time>
      </trkpt>
      <trkpt lat="45.3893" lon="6.78802">
        <ele>2508</ele>
        <time>2021-10-02T13:38:45Z</time>
      </trkpt>
      <trkpt lat="45.38929" lon="6.78781">
        <ele>2504</ele>
        <time>2021-10-02T13:39:06Z</time>
      </trkpt>
      <trkpt lat="45.38927" lon="6.78774">
        <ele>2503</ele>
        <time>2021-10-02T13:39:11Z</time>
      </trkpt>
      <trkpt lat="45.3893" lon="6.78736">
        <ele>2497</ele>
        <time>2021-10-02T13:39:48Z</time>
      </trkpt>
      <trkpt lat="45.38933" lon="6.78725">
        <ele>2494</ele>
        <time>2021-10-02T13:40:00Z</time>
      </trkpt>
      <trkpt lat="45.38937" lon="6.78714">
        <ele>2492</ele>
        <time>2021-10-02T13:40:11Z</time>
      </trkpt>
      <trkpt lat="45.38938" lon="6.78704">
        <ele>2492</ele>
        <time>2021-10-02T13:40:18Z</time>
      </trkpt>
      <trkpt lat="45.38942" lon="6.78691">
        <ele>2489</ele>
        <time>2021-10-02T13:40:31Z</time>
      </trkpt>
      <trkpt lat="45.38944" lon="6.78682">
        <ele>2487</ele>
        <time>2021-10-02T13:40:38Z</time>
      </trkpt>
      <trkpt lat="45.38952" lon="6.78668">
        <ele>2486</ele>
        <time>2021-10-02T13:40:47Z</time>
      </trkpt>
      <trkpt lat="45.38955" lon="6.7866">
        <ele>2486</ele>
        <time>2021-10-02T13:40:51Z</time>
      </trkpt>
      <trkpt lat="45.38957" lon="6.78652">
        <ele>2486</ele>
        <time>2021-10-02T13:40:59Z</time>
      </trkpt>
      <trkpt lat="45.38957" lon="6.78643">
        <ele>2485</ele>
        <time>2021-10-02T13:41:04Z</time>
      </trkpt>
      <trkpt lat="45.38959" lon="6.78636">
        <ele>2485</ele>
        <time>2021-10-02T13:41:09Z</time>
      </trkpt>
      <trkpt lat="45.38958" lon="6.78626">
        <ele>2485</ele>
        <time>2021-10-02T13:41:17Z</time>
      </trkpt>
      <trkpt lat="45.38961" lon="6.78615">
        <ele>2484</ele>
        <time>2021-10-02T13:41:25Z</time>
      </trkpt>
      <trkpt lat="45.38962" lon="6.78607">
        <ele>2485</ele>
        <time>2021-10-02T13:41:31Z</time>
      </trkpt>
      <trkpt lat="45.38959" lon="6.78597">
        <ele>2485</ele>
        <time>2021-10-02T13:41:39Z</time>
      </trkpt>
      <trkpt lat="45.38962" lon="6.78587">
        <ele>2483</ele>
        <time>2021-10-02T13:41:54Z</time>
      </trkpt>
      <trkpt lat="45.38967" lon="6.78581">
        <ele>2482</ele>
        <time>2021-10-02T13:41:59Z</time>
      </trkpt>
      <trkpt lat="45.38971" lon="6.78576">
        <ele>2483</ele>
        <time>2021-10-02T13:42:05Z</time>
      </trkpt>
      <trkpt lat="45.38982" lon="6.78563">
        <ele>2481</ele>
        <time>2021-10-02T13:42:20Z</time>
      </trkpt>
      <trkpt lat="45.38985" lon="6.78557">
        <ele>2481</ele>
        <time>2021-10-02T13:42:25Z</time>
      </trkpt>
      <trkpt lat="45.3899" lon="6.78552">
        <ele>2480</ele>
        <time>2021-10-02T13:42:30Z</time>
      </trkpt>
      <trkpt lat="45.38994" lon="6.78543">
        <ele>2480</ele>
        <time>2021-10-02T13:42:37Z</time>
      </trkpt>
      <trkpt lat="45.38998" lon="6.78538">
        <ele>2480</ele>
        <time>2021-10-02T13:42:42Z</time>
      </trkpt>
      <trkpt lat="45.39" lon="6.7853">
        <ele>2479</ele>
        <time>2021-10-02T13:42:48Z</time>
      </trkpt>
      <trkpt lat="45.39004" lon="6.78522">
        <ele>2479</ele>
        <time>2021-10-02T13:42:53Z</time>
      </trkpt>
      <trkpt lat="45.39003" lon="6.78514">
        <ele>2478</ele>
        <time>2021-10-02T13:42:59Z</time>
      </trkpt>
      <trkpt lat="45.39001" lon="6.78506">
        <ele>2478</ele>
        <time>2021-10-02T13:43:05Z</time>
      </trkpt>
      <trkpt lat="45.38998" lon="6.78487">
        <ele>2478</ele>
        <time>2021-10-02T13:43:47Z</time>
      </trkpt>
      <trkpt lat="45.38999" lon="6.78471">
        <ele>2475</ele>
        <time>2021-10-02T13:45:08Z</time>
      </trkpt>
      <trkpt lat="45.38999" lon="6.78464">
        <ele>2475</ele>
        <time>2021-10-02T13:45:12Z</time>
      </trkpt>
      <trkpt lat="45.39" lon="6.78456">
        <ele>2475</ele>
        <time>2021-10-02T13:45:20Z</time>
      </trkpt>
      <trkpt lat="45.39" lon="6.78446">
        <ele>2476</ele>
        <time>2021-10-02T13:45:26Z</time>
      </trkpt>
      <trkpt lat="45.38998" lon="6.78431">
        <ele>2475</ele>
        <time>2021-10-02T13:45:34Z</time>
      </trkpt>
      <trkpt lat="45.38996" lon="6.78421">
        <ele>2475</ele>
        <time>2021-10-02T13:45:40Z</time>
      </trkpt>
      <trkpt lat="45.38996" lon="6.78414">
        <ele>2475</ele>
        <time>2021-10-02T13:45:45Z</time>
      </trkpt>
      <trkpt lat="45.38996" lon="6.78404">
        <ele>2473</ele>
        <time>2021-10-02T13:45:59Z</time>
      </trkpt>
      <trkpt lat="45.38994" lon="6.78395">
        <ele>2473</ele>
        <time>2021-10-02T13:46:05Z</time>
      </trkpt>
      <trkpt lat="45.38993" lon="6.78387">
        <ele>2474</ele>
        <time>2021-10-02T13:46:10Z</time>
      </trkpt>
      <trkpt lat="45.38992" lon="6.78378">
        <ele>2473</ele>
        <time>2021-10-02T13:46:16Z</time>
      </trkpt>
      <trkpt lat="45.38991" lon="6.78369">
        <ele>2474</ele>
        <time>2021-10-02T13:46:21Z</time>
      </trkpt>
      <trkpt lat="45.38989" lon="6.7836">
        <ele>2473</ele>
        <time>2021-10-02T13:46:26Z</time>
      </trkpt>
      <trkpt lat="45.38982" lon="6.78349">
        <ele>2474</ele>
        <time>2021-10-02T13:46:39Z</time>
      </trkpt>
      <trkpt lat="45.38978" lon="6.7834">
        <ele>2475</ele>
        <time>2021-10-02T13:47:00Z</time>
      </trkpt>
      <trkpt lat="45.38974" lon="6.78334">
        <ele>2480</ele>
        <time>2021-10-02T13:47:24Z</time>
      </trkpt>
      <trkpt lat="45.38974" lon="6.7832">
        <ele>2482</ele>
        <time>2021-10-02T13:47:45Z</time>
      </trkpt>
      <trkpt lat="45.38977" lon="6.78308">
        <ele>2482</ele>
        <time>2021-10-02T13:47:57Z</time>
      </trkpt>
      <trkpt lat="45.38976" lon="6.78299">
        <ele>2483</ele>
        <time>2021-10-02T13:48:03Z</time>
      </trkpt>
      <trkpt lat="45.38972" lon="6.78294">
        <ele>2483</ele>
        <time>2021-10-02T13:48:11Z</time>
      </trkpt>
      <trkpt lat="45.38968" lon="6.78286">
        <ele>2482</ele>
        <time>2021-10-02T13:48:16Z</time>
      </trkpt>
      <trkpt lat="45.38964" lon="6.78273">
        <ele>2481</ele>
        <time>2021-10-02T13:48:30Z</time>
      </trkpt>
      <trkpt lat="45.38962" lon="6.78259">
        <ele>2482</ele>
        <time>2021-10-02T13:48:43Z</time>
      </trkpt>
      <trkpt lat="45.38956" lon="6.78235">
        <ele>2478</ele>
        <time>2021-10-02T13:49:08Z</time>
      </trkpt>
      <trkpt lat="45.38954" lon="6.78228">
        <ele>2476</ele>
        <time>2021-10-02T13:49:16Z</time>
      </trkpt>
      <trkpt lat="45.3896" lon="6.78217">
        <ele>2474</ele>
        <time>2021-10-02T13:49:28Z</time>
      </trkpt>
      <trkpt lat="45.38957" lon="6.78206">
        <ele>2472</ele>
        <time>2021-10-02T13:49:41Z</time>
      </trkpt>
      <trkpt lat="45.38949" lon="6.78188">
        <ele>2470</ele>
        <time>2021-10-02T13:49:59Z</time>
      </trkpt>
      <trkpt lat="45.38948" lon="6.78179">
        <ele>2467</ele>
        <time>2021-10-02T13:50:16Z</time>
      </trkpt>
      <trkpt lat="45.38941" lon="6.7817">
        <ele>2465</ele>
        <time>2021-10-02T13:50:27Z</time>
      </trkpt>
      <trkpt lat="45.38938" lon="6.78158">
        <ele>2464</ele>
        <time>2021-10-02T13:50:35Z</time>
      </trkpt>
      <trkpt lat="45.38935" lon="6.7815">
        <ele>2463</ele>
        <time>2021-10-02T13:50:40Z</time>
      </trkpt>
      <trkpt lat="45.38934" lon="6.78142">
        <ele>2463</ele>
        <time>2021-10-02T13:50:46Z</time>
      </trkpt>
      <trkpt lat="45.38934" lon="6.78123">
        <ele>2462</ele>
        <time>2021-10-02T13:50:58Z</time>
      </trkpt>
      <trkpt lat="45.38926" lon="6.78097">
        <ele>2462</ele>
        <time>2021-10-02T13:51:15Z</time>
      </trkpt>
      <trkpt lat="45.38922" lon="6.78082">
        <ele>2460</ele>
        <time>2021-10-02T13:51:24Z</time>
      </trkpt>
      <trkpt lat="45.38921" lon="6.78074">
        <ele>2459</ele>
        <time>2021-10-02T13:51:29Z</time>
      </trkpt>
      <trkpt lat="45.38923" lon="6.78062">
        <ele>2459</ele>
        <time>2021-10-02T13:51:39Z</time>
      </trkpt>
      <trkpt lat="45.3892" lon="6.78047">
        <ele>2458</ele>
        <time>2021-10-02T13:51:49Z</time>
      </trkpt>
      <trkpt lat="45.38927" lon="6.78034">
        <ele>2457</ele>
        <time>2021-10-02T13:51:59Z</time>
      </trkpt>
      <trkpt lat="45.38931" lon="6.7801">
        <ele>2455</ele>
        <time>2021-10-02T13:52:15Z</time>
      </trkpt>
      <trkpt lat="45.38927" lon="6.77994">
        <ele>2451</ele>
        <time>2021-10-02T13:52:29Z</time>
      </trkpt>
      <trkpt lat="45.38924" lon="6.77987">
        <ele>2451</ele>
        <time>2021-10-02T13:52:35Z</time>
      </trkpt>
      <trkpt lat="45.38925" lon="6.77975">
        <ele>2450</ele>
        <time>2021-10-02T13:52:43Z</time>
      </trkpt>
      <trkpt lat="45.38925" lon="6.77966">
        <ele>2450</ele>
        <time>2021-10-02T13:52:49Z</time>
      </trkpt>
      <trkpt lat="45.38927" lon="6.77958">
        <ele>2450</ele>
        <time>2021-10-02T13:52:55Z</time>
      </trkpt>
      <trkpt lat="45.38927" lon="6.77948">
        <ele>2449</ele>
        <time>2021-10-02T13:53:01Z</time>
      </trkpt>
      <trkpt lat="45.38927" lon="6.77939">
        <ele>2450</ele>
        <time>2021-10-02T13:53:06Z</time>
      </trkpt>
      <trkpt lat="45.38919" lon="6.77917">
        <ele>2449</ele>
        <time>2021-10-02T13:53:22Z</time>
      </trkpt>
      <trkpt lat="45.38919" lon="6.77898">
        <ele>2447</ele>
        <time>2021-10-02T13:53:36Z</time>
      </trkpt>
      <trkpt lat="45.38918" lon="6.77888">
        <ele>2448</ele>
        <time>2021-10-02T13:53:44Z</time>
      </trkpt>
      <trkpt lat="45.38922" lon="6.77871">
        <ele>2446</ele>
        <time>2021-10-02T13:53:59Z</time>
      </trkpt>
      <trkpt lat="45.38922" lon="6.77856">
        <ele>2449</ele>
        <time>2021-10-02T13:54:11Z</time>
      </trkpt>
      <trkpt lat="45.38919" lon="6.77836">
        <ele>2445</ele>
        <time>2021-10-02T13:54:25Z</time>
      </trkpt>
      <trkpt lat="45.38921" lon="6.77828">
        <ele>2444</ele>
        <time>2021-10-02T13:54:31Z</time>
      </trkpt>
      <trkpt lat="45.38921" lon="6.7782">
        <ele>2444</ele>
        <time>2021-10-02T13:54:36Z</time>
      </trkpt>
      <trkpt lat="45.38922" lon="6.77809">
        <ele>2444</ele>
        <time>2021-10-02T13:54:45Z</time>
      </trkpt>
      <trkpt lat="45.38924" lon="6.77802">
        <ele>2445</ele>
        <time>2021-10-02T13:54:50Z</time>
      </trkpt>
      <trkpt lat="45.38926" lon="6.77794">
        <ele>2444</ele>
        <time>2021-10-02T13:54:55Z</time>
      </trkpt>
      <trkpt lat="45.38922" lon="6.77782">
        <ele>2442</ele>
        <time>2021-10-02T13:55:06Z</time>
      </trkpt>
      <trkpt lat="45.38919" lon="6.77776">
        <ele>2439</ele>
        <time>2021-10-02T13:55:24Z</time>
      </trkpt>
      <trkpt lat="45.38923" lon="6.77767">
        <ele>2437</ele>
        <time>2021-10-02T13:56:06Z</time>
      </trkpt>
      <trkpt lat="45.38918" lon="6.77759">
        <ele>2435</ele>
        <time>2021-10-02T13:56:19Z</time>
      </trkpt>
      <trkpt lat="45.38916" lon="6.77751">
        <ele>2433</ele>
        <time>2021-10-02T13:56:31Z</time>
      </trkpt>
      <trkpt lat="45.38922" lon="6.77732">
        <ele>2429</ele>
        <time>2021-10-02T13:56:50Z</time>
      </trkpt>
      <trkpt lat="45.38928" lon="6.7773">
        <ele>2428</ele>
        <time>2021-10-02T13:56:58Z</time>
      </trkpt>
      <trkpt lat="45.38932" lon="6.77724">
        <ele>2426</ele>
        <time>2021-10-02T13:57:04Z</time>
      </trkpt>
      <trkpt lat="45.38928" lon="6.77716">
        <ele>2425</ele>
        <time>2021-10-02T13:57:13Z</time>
      </trkpt>
      <trkpt lat="45.38933" lon="6.77707">
        <ele>2423</ele>
        <time>2021-10-02T13:57:28Z</time>
      </trkpt>
      <trkpt lat="45.38936" lon="6.777">
        <ele>2419</ele>
        <time>2021-10-02T13:57:51Z</time>
      </trkpt>
      <trkpt lat="45.38945" lon="6.77697">
        <ele>2412</ele>
        <time>2021-10-02T13:58:35Z</time>
      </trkpt>
      <trkpt lat="45.38959" lon="6.77682">
        <ele>2407</ele>
        <time>2021-10-02T13:58:54Z</time>
      </trkpt>
      <trkpt lat="45.38961" lon="6.77674">
        <ele>2407</ele>
        <time>2021-10-02T13:59:00Z</time>
      </trkpt>
      <trkpt lat="45.38962" lon="6.77664">
        <ele>2405</ele>
        <time>2021-10-02T13:59:09Z</time>
      </trkpt>
      <trkpt lat="45.38964" lon="6.77655">
        <ele>2403</ele>
        <time>2021-10-02T13:59:16Z</time>
      </trkpt>
      <trkpt lat="45.38966" lon="6.77646">
        <ele>2401</ele>
        <time>2021-10-02T13:59:27Z</time>
      </trkpt>
      <trkpt lat="45.38963" lon="6.77637">
        <ele>2401</ele>
        <time>2021-10-02T13:59:32Z</time>
      </trkpt>
      <trkpt lat="45.38963" lon="6.77628">
        <ele>2399</ele>
        <time>2021-10-02T13:59:42Z</time>
      </trkpt>
      <trkpt lat="45.38963" lon="6.77618">
        <ele>2398</ele>
        <time>2021-10-02T13:59:47Z</time>
      </trkpt>
      <trkpt lat="45.38966" lon="6.77612">
        <ele>2399</ele>
        <time>2021-10-02T13:59:54Z</time>
      </trkpt>
      <trkpt lat="45.38963" lon="6.77589">
        <ele>2396</ele>
        <time>2021-10-02T14:00:11Z</time>
      </trkpt>
      <trkpt lat="45.38958" lon="6.77583">
        <ele>2395</ele>
        <time>2021-10-02T14:00:17Z</time>
      </trkpt>
      <trkpt lat="45.38952" lon="6.77579">
        <ele>2396</ele>
        <time>2021-10-02T14:00:24Z</time>
      </trkpt>
      <trkpt lat="45.38957" lon="6.77572">
        <ele>2391</ele>
        <time>2021-10-02T14:00:50Z</time>
      </trkpt>
      <trkpt lat="45.38961" lon="6.77565">
        <ele>2391</ele>
        <time>2021-10-02T14:00:58Z</time>
      </trkpt>
      <trkpt lat="45.38962" lon="6.77556">
        <ele>2390</ele>
        <time>2021-10-02T14:01:03Z</time>
      </trkpt>
      <trkpt lat="45.38955" lon="6.7755">
        <ele>2389</ele>
        <time>2021-10-02T14:01:11Z</time>
      </trkpt>
      <trkpt lat="45.38954" lon="6.77543">
        <ele>2387</ele>
        <time>2021-10-02T14:01:19Z</time>
      </trkpt>
      <trkpt lat="45.38951" lon="6.77532">
        <ele>2386</ele>
        <time>2021-10-02T14:01:31Z</time>
      </trkpt>
      <trkpt lat="45.38952" lon="6.77524">
        <ele>2384</ele>
        <time>2021-10-02T14:01:38Z</time>
      </trkpt>
      <trkpt lat="45.38958" lon="6.77516">
        <ele>2383</ele>
        <time>2021-10-02T14:01:50Z</time>
      </trkpt>
      <trkpt lat="45.38968" lon="6.77508">
        <ele>2380</ele>
        <time>2021-10-02T14:02:02Z</time>
      </trkpt>
      <trkpt lat="45.38977" lon="6.77492">
        <ele>2377</ele>
        <time>2021-10-02T14:02:19Z</time>
      </trkpt>
      <trkpt lat="45.38981" lon="6.77481">
        <ele>2374</ele>
        <time>2021-10-02T14:02:39Z</time>
      </trkpt>
      <trkpt lat="45.38982" lon="6.7747">
        <ele>2371</ele>
        <time>2021-10-02T14:02:51Z</time>
      </trkpt>
      <trkpt lat="45.38979" lon="6.77463">
        <ele>2368</ele>
        <time>2021-10-02T14:04:24Z</time>
      </trkpt>
      <trkpt lat="45.38974" lon="6.77436">
        <ele>2360</ele>
        <time>2021-10-02T14:09:46Z</time>
      </trkpt>
      <trkpt lat="45.38991" lon="6.77425">
        <ele>2351</ele>
        <time>2021-10-02T14:10:32Z</time>
      </trkpt>
      <trkpt lat="45.38994" lon="6.77404">
        <ele>2346</ele>
        <time>2021-10-02T14:11:05Z</time>
      </trkpt>
      <trkpt lat="45.38987" lon="6.77383">
        <ele>2340</ele>
        <time>2021-10-02T14:11:36Z</time>
      </trkpt>
      <trkpt lat="45.38981" lon="6.77351">
        <ele>2332</ele>
        <time>2021-10-02T14:12:19Z</time>
      </trkpt>
      <trkpt lat="45.38968" lon="6.77327">
        <ele>2325</ele>
        <time>2021-10-02T14:12:50Z</time>
      </trkpt>
      <trkpt lat="45.38961" lon="6.77308">
        <ele>2318</ele>
        <time>2021-10-02T14:13:27Z</time>
      </trkpt>
      <trkpt lat="45.38957" lon="6.77288">
        <ele>2313</ele>
        <time>2021-10-02T14:13:54Z</time>
      </trkpt>
      <trkpt lat="45.38944" lon="6.77268">
        <ele>2309</ele>
        <time>2021-10-02T14:14:21Z</time>
      </trkpt>
      <trkpt lat="45.38985" lon="6.77274">
        <ele>2296</ele>
        <time>2021-10-02T14:15:35Z</time>
      </trkpt>
      <trkpt lat="45.39015" lon="6.77272">
        <ele>2292</ele>
        <time>2021-10-02T14:16:18Z</time>
      </trkpt>
      <trkpt lat="45.39034" lon="6.77236">
        <ele>2291</ele>
        <time>2021-10-02T14:17:20Z</time>
      </trkpt>
      <trkpt lat="45.39017" lon="6.7721">
        <ele>2285</ele>
        <time>2021-10-02T14:18:06Z</time>
      </trkpt>
      <trkpt lat="45.39009" lon="6.77176">
        <ele>2277</ele>
        <time>2021-10-02T14:18:56Z</time>
      </trkpt>
      <trkpt lat="45.38993" lon="6.77168">
        <ele>2273</ele>
        <time>2021-10-02T14:19:24Z</time>
      </trkpt>
      <trkpt lat="45.39" lon="6.77144">
        <ele>2266</ele>
        <time>2021-10-02T14:20:10Z</time>
      </trkpt>
      <trkpt lat="45.38993" lon="6.77126">
        <ele>2262</ele>
        <time>2021-10-02T14:20:53Z</time>
      </trkpt>
      <trkpt lat="45.38983" lon="6.77109">
        <ele>2257</ele>
        <time>2021-10-02T14:21:24Z</time>
      </trkpt>
      <trkpt lat="45.38973" lon="6.7709">
        <ele>2251</ele>
        <time>2021-10-02T14:22:14Z</time>
      </trkpt>
      <trkpt lat="45.38973" lon="6.77069">
        <ele>2249</ele>
        <time>2021-10-02T14:22:26Z</time>
      </trkpt>
      <trkpt lat="45.38973" lon="6.77042">
        <ele>2243</ele>
        <time>2021-10-02T14:22:55Z</time>
      </trkpt>
      <trkpt lat="45.38965" lon="6.77018">
        <ele>2239</ele>
        <time>2021-10-02T14:23:15Z</time>
      </trkpt>
      <trkpt lat="45.3895" lon="6.76979">
        <ele>2230</ele>
        <time>2021-10-02T14:24:00Z</time>
      </trkpt>
      <trkpt lat="45.38926" lon="6.76933">
        <ele>2224</ele>
        <time>2021-10-02T14:24:42Z</time>
      </trkpt>
      <trkpt lat="45.38907" lon="6.76901">
        <ele>2222</ele>
        <time>2021-10-02T14:25:11Z</time>
      </trkpt>
      <trkpt lat="45.38874" lon="6.76867">
        <ele>2216</ele>
        <time>2021-10-02T14:26:01Z</time>
      </trkpt>
      <trkpt lat="45.38856" lon="6.76843">
        <ele>2206</ele>
        <time>2021-10-02T14:26:58Z</time>
      </trkpt>
      <trkpt lat="45.3884" lon="6.76848">
        <ele>2203</ele>
        <time>2021-10-02T14:27:20Z</time>
      </trkpt>
      <trkpt lat="45.38817" lon="6.76834">
        <ele>2197</ele>
        <time>2021-10-02T14:27:58Z</time>
      </trkpt>
      <trkpt lat="45.38826" lon="6.76793">
        <ele>2189</ele>
        <time>2021-10-02T14:28:39Z</time>
      </trkpt>
      <trkpt lat="45.38845" lon="6.76722">
        <ele>2177</ele>
        <time>2021-10-02T14:29:40Z</time>
      </trkpt>
      <trkpt lat="45.38851" lon="6.7666">
        <ele>2170</ele>
        <time>2021-10-02T14:30:26Z</time>
      </trkpt>
      <trkpt lat="45.38854" lon="6.76613">
        <ele>2164</ele>
        <time>2021-10-02T14:31:07Z</time>
      </trkpt>
      <trkpt lat="45.38843" lon="6.7657">
        <ele>2158</ele>
        <time>2021-10-02T14:31:42Z</time>
      </trkpt>
      <trkpt lat="45.38842" lon="6.76529">
        <ele>2157</ele>
        <time>2021-10-02T14:32:07Z</time>
      </trkpt>
      <trkpt lat="45.38823" lon="6.76495">
        <ele>2153</ele>
        <time>2021-10-02T14:32:36Z</time>
      </trkpt>
      <trkpt lat="45.38798" lon="6.76469">
        <ele>2152</ele>
        <time>2021-10-02T14:33:06Z</time>
      </trkpt>
      <trkpt lat="45.3877" lon="6.76453">
        <ele>2148</ele>
        <time>2021-10-02T14:33:48Z</time>
      </trkpt>
      <trkpt lat="45.3874" lon="6.76449">
        <ele>2147</ele>
        <time>2021-10-02T14:34:18Z</time>
      </trkpt>
      <trkpt lat="45.38713" lon="6.76446">
        <ele>2139</ele>
        <time>2021-10-02T14:35:18Z</time>
      </trkpt>
      <trkpt lat="45.38695" lon="6.76409">
        <ele>2128</ele>
        <time>2021-10-02T14:36:10Z</time>
      </trkpt>
      <trkpt lat="45.38679" lon="6.76373">
        <ele>2118</ele>
        <time>2021-10-02T14:37:13Z</time>
      </trkpt>
      <trkpt lat="45.3866" lon="6.76334">
        <ele>2110</ele>
        <time>2021-10-02T14:38:05Z</time>
      </trkpt>
      <trkpt lat="45.38636" lon="6.76305">
        <ele>2103</ele>
        <time>2021-10-02T14:38:41Z</time>
      </trkpt>
      <trkpt lat="45.38619" lon="6.76263">
        <ele>2094</ele>
        <time>2021-10-02T14:39:30Z</time>
      </trkpt>
      <trkpt lat="45.38588" lon="6.76251">
        <ele>2088</ele>
        <time>2021-10-02T14:40:31Z</time>
      </trkpt>
      <trkpt lat="45.38567" lon="6.76212">
        <ele>2081</ele>
        <time>2021-10-02T14:41:31Z</time>
      </trkpt>
      <trkpt lat="45.38544" lon="6.76175">
        <ele>2076</ele>
        <time>2021-10-02T14:42:11Z</time>
      </trkpt>
      <trkpt lat="45.38524" lon="6.76143">
        <ele>2068</ele>
        <time>2021-10-02T14:43:12Z</time>
      </trkpt>
      <trkpt lat="45.38515" lon="6.76101">
        <ele>2060</ele>
        <time>2021-10-02T14:45:00Z</time>
      </trkpt>
      <trkpt lat="45.38488" lon="6.7608">
        <ele>2053</ele>
        <time>2021-10-02T14:46:08Z</time>
      </trkpt>
      <trkpt lat="45.38466" lon="6.76035">
        <ele>2048</ele>
        <time>2021-10-02T14:47:10Z</time>
      </trkpt>
      <trkpt lat="45.38446" lon="6.75996">
        <ele>2047</ele>
        <time>2021-10-02T14:47:55Z</time>
      </trkpt>
      <trkpt lat="45.3843" lon="6.75961">
        <ele>2046</ele>
        <time>2021-10-02T14:48:23Z</time>
      </trkpt>
      <trkpt lat="45.38403" lon="6.75912">
        <ele>2038</ele>
        <time>2021-10-02T14:49:22Z</time>
      </trkpt>
      <trkpt lat="45.38387" lon="6.75873">
        <ele>2032</ele>
        <time>2021-10-02T14:50:13Z</time>
      </trkpt>
      <trkpt lat="45.3838" lon="6.7583">
        <ele>2021</ele>
        <time>2021-10-02T14:51:07Z</time>
      </trkpt>
      <trkpt lat="45.38348" lon="6.75797">
        <ele>2014</ele>
        <time>2021-10-02T14:51:57Z</time>
      </trkpt>
      <trkpt lat="45.3832" lon="6.75799">
        <ele>2000</ele>
        <time>2021-10-02T14:53:14Z</time>
      </trkpt>
      <trkpt lat="45.38286" lon="6.75842">
        <ele>1997</ele>
        <time>2021-10-02T14:54:09Z</time>
      </trkpt>
      <trkpt lat="45.3826" lon="6.75855">
        <ele>1995</ele>
        <time>2021-10-02T14:54:50Z</time>
      </trkpt>
      <trkpt lat="45.38242" lon="6.75833">
        <ele>1994</ele>
        <time>2021-10-02T14:55:18Z</time>
      </trkpt>
      <trkpt lat="45.38222" lon="6.75804">
        <ele>1987</ele>
        <time>2021-10-02T14:57:25Z</time>
      </trkpt>
      <trkpt lat="45.38197" lon="6.75774">
        <ele>1988</ele>
        <time>2021-10-02T14:59:15Z</time>
      </trkpt>
      <trkpt lat="45.38178" lon="6.75731">
        <ele>1980</ele>
        <time>2021-10-02T15:00:03Z</time>
      </trkpt>
      <trkpt lat="45.38174" lon="6.75681">
        <ele>1974</ele>
        <time>2021-10-02T15:00:45Z</time>
      </trkpt>
      <trkpt lat="45.38162" lon="6.75639">
        <ele>1963</ele>
        <time>2021-10-02T15:01:44Z</time>
      </trkpt>
      <trkpt lat="45.38145" lon="6.75604">
        <ele>1957</ele>
        <time>2021-10-02T15:02:26Z</time>
      </trkpt>
      <trkpt lat="45.38127" lon="6.75568">
        <ele>1949</ele>
        <time>2021-10-02T15:03:30Z</time>
      </trkpt>
      <trkpt lat="45.38118" lon="6.75547">
        <ele>1943</ele>
        <time>2021-10-02T15:04:12Z</time>
      </trkpt>
      <trkpt lat="45.38123" lon="6.75526">
        <ele>1936</ele>
        <time>2021-10-02T15:04:48Z</time>
      </trkpt>
      <trkpt lat="45.38126" lon="6.75516">
        <ele>1931</ele>
        <time>2021-10-02T15:05:13Z</time>
      </trkpt>
      <trkpt lat="45.38124" lon="6.75508">
        <ele>1928</ele>
        <time>2021-10-02T15:05:31Z</time>
      </trkpt>
      <trkpt lat="45.38125" lon="6.755">
        <ele>1923</ele>
        <time>2021-10-02T15:05:55Z</time>
      </trkpt>
      <trkpt lat="45.3812" lon="6.75488">
        <ele>1921</ele>
        <time>2021-10-02T15:06:13Z</time>
      </trkpt>
      <trkpt lat="45.38115" lon="6.75484">
        <ele>1917</ele>
        <time>2021-10-02T15:06:31Z</time>
      </trkpt>
      <trkpt lat="45.38105" lon="6.75429">
        <ele>1906</ele>
        <time>2021-10-02T15:07:29Z</time>
      </trkpt>
      <trkpt lat="45.38102" lon="6.75411">
        <ele>1904</ele>
        <time>2021-10-02T15:07:50Z</time>
      </trkpt>
      <trkpt lat="45.38091" lon="6.75394">
        <ele>1900</ele>
        <time>2021-10-02T15:08:20Z</time>
      </trkpt>
      <trkpt lat="45.38075" lon="6.75384">
        <ele>1893</ele>
        <time>2021-10-02T15:08:51Z</time>
      </trkpt>
      <trkpt lat="45.38051" lon="6.75351">
        <ele>1886</ele>
        <time>2021-10-02T15:09:35Z</time>
      </trkpt>
      <trkpt lat="45.38035" lon="6.75361">
        <ele>1883</ele>
        <time>2021-10-02T15:10:27Z</time>
      </trkpt>
      <trkpt lat="45.38034" lon="6.7536">
        <ele>1875</ele>
        <time>2021-10-02T15:11:50Z</time>
      </trkpt>
      <trkpt lat="45.38033" lon="6.75336">
        <ele>1868</ele>
        <time>2021-10-02T15:12:28Z</time>
      </trkpt>
      <trkpt lat="45.38026" lon="6.75318">
        <ele>1857</ele>
        <time>2021-10-02T15:13:26Z</time>
      </trkpt>
      <trkpt lat="45.38023" lon="6.75294">
        <ele>1848</ele>
        <time>2021-10-02T15:14:20Z</time>
      </trkpt>
      <trkpt lat="45.38006" lon="6.75258">
        <ele>1837</ele>
        <time>2021-10-02T15:15:38Z</time>
      </trkpt>
      <trkpt lat="45.38005" lon="6.75203">
        <ele>1830</ele>
        <time>2021-10-02T15:16:20Z</time>
      </trkpt>
      <trkpt lat="45.38004" lon="6.75182">
        <ele>1829</ele>
        <time>2021-10-02T15:16:33Z</time>
      </trkpt>
      <trkpt lat="45.38011" lon="6.75161">
        <ele>1826</ele>
        <time>2021-10-02T15:17:13Z</time>
      </trkpt>
      <trkpt lat="45.38019" lon="6.75098">
        <ele>1819</ele>
        <time>2021-10-02T15:17:56Z</time>
      </trkpt>
      <trkpt lat="45.38024" lon="6.75077">
        <ele>1816</ele>
        <time>2021-10-02T15:18:12Z</time>
      </trkpt>
      <trkpt lat="45.38028" lon="6.75057">
        <ele>1811</ele>
        <time>2021-10-02T15:18:32Z</time>
      </trkpt>
      <trkpt lat="45.38037" lon="6.75038">
        <ele>1805</ele>
        <time>2021-10-02T15:19:00Z</time>
      </trkpt>
      <trkpt lat="45.38044" lon="6.75021">
        <ele>1799</ele>
        <time>2021-10-02T15:19:28Z</time>
      </trkpt>
      <trkpt lat="45.38067" lon="6.74999">
        <ele>1792</ele>
        <time>2021-10-02T15:20:03Z</time>
      </trkpt>
      <trkpt lat="45.38066" lon="6.74979">
        <ele>1786</ele>
        <time>2021-10-02T15:20:33Z</time>
      </trkpt>
      <trkpt lat="45.38068" lon="6.74957">
        <ele>1782</ele>
        <time>2021-10-02T15:21:52Z</time>
      </trkpt>
      <trkpt lat="45.38063" lon="6.74925">
        <ele>1779</ele>
        <time>2021-10-02T15:22:34Z</time>
      </trkpt>
      <trkpt lat="45.38081" lon="6.74898">
        <ele>1774</ele>
        <time>2021-10-02T15:23:02Z</time>
      </trkpt>
      <trkpt lat="45.38083" lon="6.74876">
        <ele>1771</ele>
        <time>2021-10-02T15:23:19Z</time>
      </trkpt>
      <trkpt lat="45.38104" lon="6.74836">
        <ele>1765</ele>
        <time>2021-10-02T15:23:55Z</time>
      </trkpt>
      <trkpt lat="45.38117" lon="6.74803">
        <ele>1760</ele>
        <time>2021-10-02T15:24:24Z</time>
      </trkpt>
      <trkpt lat="45.38132" lon="6.74779">
        <ele>1755</ele>
        <time>2021-10-02T15:24:52Z</time>
      </trkpt>
      <trkpt lat="45.38138" lon="6.74734">
        <ele>1749</ele>
        <time>2021-10-02T15:25:24Z</time>
      </trkpt>
      <trkpt lat="45.38139" lon="6.74683">
        <ele>1745</ele>
        <time>2021-10-02T15:25:59Z</time>
      </trkpt>
      <trkpt lat="45.38134" lon="6.74643">
        <ele>1742</ele>
        <time>2021-10-02T15:26:24Z</time>
      </trkpt>
      <trkpt lat="45.38127" lon="6.74625">
        <ele>1739</ele>
        <time>2021-10-02T15:26:35Z</time>
      </trkpt>
      <trkpt lat="45.38109" lon="6.74592">
        <ele>1736</ele>
        <time>2021-10-02T15:26:58Z</time>
      </trkpt>
      <trkpt lat="45.38097" lon="6.74578">
        <ele>1734</ele>
        <time>2021-10-02T15:27:11Z</time>
      </trkpt>
      <trkpt lat="45.38087" lon="6.74557">
        <ele>1733</ele>
        <time>2021-10-02T15:27:36Z</time>
      </trkpt>
      <trkpt lat="45.38078" lon="6.74492">
        <ele>1728</ele>
        <time>2021-10-02T15:28:17Z</time>
      </trkpt>
      <trkpt lat="45.38077" lon="6.74468">
        <ele>1727</ele>
        <time>2021-10-02T15:28:32Z</time>
      </trkpt>
      <trkpt lat="45.38093" lon="6.74404">
        <ele>1719</ele>
        <time>2021-10-02T15:29:18Z</time>
      </trkpt>
      <trkpt lat="45.38095" lon="6.74382">
        <ele>1716</ele>
        <time>2021-10-02T15:29:30Z</time>
      </trkpt>
      <trkpt lat="45.38091" lon="6.74362">
        <ele>1714</ele>
        <time>2021-10-02T15:29:42Z</time>
      </trkpt>
      <trkpt lat="45.38084" lon="6.74345">
        <ele>1711</ele>
        <time>2021-10-02T15:29:54Z</time>
      </trkpt>
      <trkpt lat="45.38075" lon="6.7428">
        <ele>1705</ele>
        <time>2021-10-02T15:30:32Z</time>
      </trkpt>
      <trkpt lat="45.38063" lon="6.74217">
        <ele>1698</ele>
        <time>2021-10-02T15:31:13Z</time>
      </trkpt>
      <trkpt lat="45.38058" lon="6.74197">
        <ele>1695</ele>
        <time>2021-10-02T15:31:26Z</time>
      </trkpt>
      <trkpt lat="45.38054" lon="6.74134">
        <ele>1689</ele>
        <time>2021-10-02T15:32:06Z</time>
      </trkpt>
      <trkpt lat="45.38053" lon="6.74092">
        <ele>1683</ele>
        <time>2021-10-02T15:32:33Z</time>
      </trkpt>
      <trkpt lat="45.38061" lon="6.74073">
        <ele>1681</ele>
        <time>2021-10-02T15:32:48Z</time>
      </trkpt>
      <trkpt lat="45.38071" lon="6.74058">
        <ele>1679</ele>
        <time>2021-10-02T15:33:00Z</time>
      </trkpt>
      <trkpt lat="45.38072" lon="6.74015">
        <ele>1676</ele>
        <time>2021-10-02T15:33:27Z</time>
      </trkpt>
      <trkpt lat="45.3806" lon="6.73978">
        <ele>1676</ele>
        <time>2021-10-02T15:33:52Z</time>
      </trkpt>
      <trkpt lat="45.38063" lon="6.73944">
        <ele>1672</ele>
        <time>2021-10-02T15:34:47Z</time>
      </trkpt>
      <trkpt lat="45.38074" lon="6.73908">
        <ele>1670</ele>
        <time>2021-10-02T15:35:09Z</time>
      </trkpt>
      <trkpt lat="45.38076" lon="6.73875">
        <ele>1669</ele>
        <time>2021-10-02T15:35:29Z</time>
      </trkpt>
      <trkpt lat="45.38077" lon="6.73858">
        <ele>1667</ele>
        <time>2021-10-02T15:35:41Z</time>
      </trkpt>
      <trkpt lat="45.38075" lon="6.73814">
        <ele>1665</ele>
        <time>2021-10-02T15:36:09Z</time>
      </trkpt>
      <trkpt lat="45.38077" lon="6.73803">
        <ele>1664</ele>
        <time>2021-10-02T15:36:18Z</time>
      </trkpt>
      <trkpt lat="45.38085" lon="6.73777">
        <ele>1663</ele>
        <time>2021-10-02T15:36:38Z</time>
      </trkpt>
      <trkpt lat="45.38085" lon="6.73765">
        <ele>1663</ele>
        <time>2021-10-02T15:36:43Z</time>
      </trkpt>
      <trkpt lat="45.38076" lon="6.73717">
        <ele>1660</ele>
        <time>2021-10-02T15:37:17Z</time>
      </trkpt>
      <trkpt lat="45.38065" lon="6.73683">
        <ele>1659</ele>
        <time>2021-10-02T15:37:37Z</time>
      </trkpt>
      <trkpt lat="45.3806" lon="6.73675">
        <ele>1659</ele>
        <time>2021-10-02T15:37:45Z</time>
      </trkpt>
      <trkpt lat="45.3806" lon="6.73668">
        <ele>1659</ele>
        <time>2021-10-02T15:37:50Z</time>
      </trkpt>
      <trkpt lat="45.38062" lon="6.7366">
        <ele>1658</ele>
        <time>2021-10-02T15:37:56Z</time>
      </trkpt>
      <trkpt lat="45.38065" lon="6.73652">
        <ele>1658</ele>
        <time>2021-10-02T15:38:01Z</time>
      </trkpt>
      <trkpt lat="45.38073" lon="6.73639">
        <ele>1658</ele>
        <time>2021-10-02T15:38:13Z</time>
      </trkpt>
      <trkpt lat="45.38077" lon="6.73633">
        <ele>1657</ele>
        <time>2021-10-02T15:38:18Z</time>
      </trkpt>
      <trkpt lat="45.38085" lon="6.73626">
        <ele>1656</ele>
        <time>2021-10-02T15:38:28Z</time>
      </trkpt>
      <trkpt lat="45.38091" lon="6.73618">
        <ele>1657</ele>
        <time>2021-10-02T15:38:35Z</time>
      </trkpt>
    </trkseg>
  </trk>
  <trk>
    <name><![CDATA[18 sept. 2021 à 14:01:03]]></name>
    <cmt><![CDATA[18 sept. 2021 à 14:01:03]]></cmt>
    <trkseg>
      <trkpt lat="45.46246" lon="5.8417">
        <ele>1464</ele>
        <time>2021-09-18T12:01:07Z</time>
      </trkpt>
      <trkpt lat="45.46244" lon="5.84178">
        <ele>1465</ele>
        <time>2021-09-18T12:02:08Z</time>
      </trkpt>
      <trkpt lat="45.4626" lon="5.84176">
        <ele>1465</ele>
        <time>2021-09-18T12:02:25Z</time>
      </trkpt>
      <trkpt lat="45.46274" lon="5.84186">
        <ele>1467</ele>
        <time>2021-09-18T12:02:39Z</time>
      </trkpt>
      <trkpt lat="45.46279" lon="5.84191">
        <ele>1467</ele>
        <time>2021-09-18T12:02:45Z</time>
      </trkpt>
      <trkpt lat="45.46284" lon="5.84196">
        <ele>1468</ele>
        <time>2021-09-18T12:02:53Z</time>
      </trkpt>
      <trkpt lat="45.46292" lon="5.84198">
        <ele>1470</ele>
        <time>2021-09-18T12:03:05Z</time>
      </trkpt>
      <trkpt lat="45.46304" lon="5.84205">
        <ele>1471</ele>
        <time>2021-09-18T12:03:19Z</time>
      </trkpt>
      <trkpt lat="45.46309" lon="5.842">
        <ele>1472</ele>
        <time>2021-09-18T12:03:30Z</time>
      </trkpt>
      <trkpt lat="45.46318" lon="5.84212">
        <ele>1474</ele>
        <time>2021-09-18T12:03:50Z</time>
      </trkpt>
      <trkpt lat="45.46329" lon="5.84217">
        <ele>1477</ele>
        <time>2021-09-18T12:04:07Z</time>
      </trkpt>
      <trkpt lat="45.46333" lon="5.84223">
        <ele>1479</ele>
        <time>2021-09-18T12:04:19Z</time>
      </trkpt>
      <trkpt lat="45.46338" lon="5.84227">
        <ele>1479</ele>
        <time>2021-09-18T12:04:25Z</time>
      </trkpt>
      <trkpt lat="45.46361" lon="5.84239">
        <ele>1484</ele>
        <time>2021-09-18T12:04:59Z</time>
      </trkpt>
      <trkpt lat="45.46367" lon="5.84241">
        <ele>1484</ele>
        <time>2021-09-18T12:05:07Z</time>
      </trkpt>
      <trkpt lat="45.46377" lon="5.8425">
        <ele>1485</ele>
        <time>2021-09-18T12:05:17Z</time>
      </trkpt>
      <trkpt lat="45.46383" lon="5.84253">
        <ele>1484</ele>
        <time>2021-09-18T12:05:23Z</time>
      </trkpt>
      <trkpt lat="45.46387" lon="5.84259">
        <ele>1484</ele>
        <time>2021-09-18T12:05:29Z</time>
      </trkpt>
      <trkpt lat="45.46393" lon="5.84268">
        <ele>1485</ele>
        <time>2021-09-18T12:05:40Z</time>
      </trkpt>
      <trkpt lat="45.46404" lon="5.843">
        <ele>1489</ele>
        <time>2021-09-18T12:06:16Z</time>
      </trkpt>
      <trkpt lat="45.46409" lon="5.84309">
        <ele>1490</ele>
        <time>2021-09-18T12:06:28Z</time>
      </trkpt>
      <trkpt lat="45.46418" lon="5.84335">
        <ele>1497</ele>
        <time>2021-09-18T12:07:08Z</time>
      </trkpt>
      <trkpt lat="45.46428" lon="5.84341">
        <ele>1499</ele>
        <time>2021-09-18T12:07:22Z</time>
      </trkpt>
      <trkpt lat="45.46431" lon="5.84349">
        <ele>1502</ele>
        <time>2021-09-18T12:07:34Z</time>
      </trkpt>
      <trkpt lat="45.46433" lon="5.84358">
        <ele>1501</ele>
        <time>2021-09-18T12:07:46Z</time>
      </trkpt>
      <trkpt lat="45.46436" lon="5.84368">
        <ele>1507</ele>
        <time>2021-09-18T12:08:04Z</time>
      </trkpt>
      <trkpt lat="45.46443" lon="5.84374">
        <ele>1511</ele>
        <time>2021-09-18T12:08:30Z</time>
      </trkpt>
      <trkpt lat="45.46449" lon="5.84378">
        <ele>1513</ele>
        <time>2021-09-18T12:08:50Z</time>
      </trkpt>
      <trkpt lat="45.46453" lon="5.84386">
        <ele>1517</ele>
        <time>2021-09-18T12:09:18Z</time>
      </trkpt>
      <trkpt lat="45.46461" lon="5.8439">
        <ele>1520</ele>
        <time>2021-09-18T12:09:48Z</time>
      </trkpt>
      <trkpt lat="45.46466" lon="5.84395">
        <ele>1527</ele>
        <time>2021-09-18T12:10:12Z</time>
      </trkpt>
      <trkpt lat="45.46472" lon="5.84414">
        <ele>1533</ele>
        <time>2021-09-18T12:10:42Z</time>
      </trkpt>
      <trkpt lat="45.4648" lon="5.84413">
        <ele>1534</ele>
        <time>2021-09-18T12:10:56Z</time>
      </trkpt>
      <trkpt lat="45.46487" lon="5.84411">
        <ele>1540</ele>
        <time>2021-09-18T12:11:32Z</time>
      </trkpt>
      <trkpt lat="45.46491" lon="5.84417">
        <ele>1544</ele>
        <time>2021-09-18T12:11:56Z</time>
      </trkpt>
      <trkpt lat="45.46494" lon="5.84427">
        <ele>1547</ele>
        <time>2021-09-18T12:12:10Z</time>
      </trkpt>
      <trkpt lat="45.46499" lon="5.84419">
        <ele>1551</ele>
        <time>2021-09-18T12:12:34Z</time>
      </trkpt>
      <trkpt lat="45.46506" lon="5.84418">
        <ele>1553</ele>
        <time>2021-09-18T12:12:53Z</time>
      </trkpt>
      <trkpt lat="45.46508" lon="5.84423">
        <ele>1555</ele>
        <time>2021-09-18T12:13:05Z</time>
      </trkpt>
      <trkpt lat="45.46514" lon="5.84423">
        <ele>1558</ele>
        <time>2021-09-18T12:13:35Z</time>
      </trkpt>
      <trkpt lat="45.4652" lon="5.84429">
        <ele>1565</ele>
        <time>2021-09-18T12:14:23Z</time>
      </trkpt>
      <trkpt lat="45.46515" lon="5.84436">
        <ele>1568</ele>
        <time>2021-09-18T12:14:47Z</time>
      </trkpt>
      <trkpt lat="45.46512" lon="5.84444">
        <ele>1571</ele>
        <time>2021-09-18T12:16:39Z</time>
      </trkpt>
      <trkpt lat="45.46511" lon="5.84452">
        <ele>1572</ele>
        <time>2021-09-18T12:16:47Z</time>
      </trkpt>
      <trkpt lat="45.4651" lon="5.8446">
        <ele>1571</ele>
        <time>2021-09-18T12:16:59Z</time>
      </trkpt>
      <trkpt lat="45.46514" lon="5.84467">
        <ele>1571</ele>
        <time>2021-09-18T12:17:11Z</time>
      </trkpt>
      <trkpt lat="45.46514" lon="5.84475">
        <ele>1571</ele>
        <time>2021-09-18T12:17:22Z</time>
      </trkpt>
      <trkpt lat="45.46515" lon="5.84486">
        <ele>1569</ele>
        <time>2021-09-18T12:17:40Z</time>
      </trkpt>
      <trkpt lat="45.46516" lon="5.84496">
        <ele>1568</ele>
        <time>2021-09-18T12:17:57Z</time>
      </trkpt>
      <trkpt lat="45.46519" lon="5.84505">
        <ele>1570</ele>
        <time>2021-09-18T12:18:09Z</time>
      </trkpt>
      <trkpt lat="45.46521" lon="5.84513">
        <ele>1568</ele>
        <time>2021-09-18T12:18:27Z</time>
      </trkpt>
      <trkpt lat="45.46521" lon="5.84522">
        <ele>1569</ele>
        <time>2021-09-18T12:18:45Z</time>
      </trkpt>
      <trkpt lat="45.46525" lon="5.84528">
        <ele>1569</ele>
        <time>2021-09-18T12:18:57Z</time>
      </trkpt>
      <trkpt lat="45.46529" lon="5.84539">
        <ele>1570</ele>
        <time>2021-09-18T12:19:09Z</time>
      </trkpt>
      <trkpt lat="45.46534" lon="5.84543">
        <ele>1571</ele>
        <time>2021-09-18T12:19:21Z</time>
      </trkpt>
      <trkpt lat="45.46539" lon="5.84539">
        <ele>1582</ele>
        <time>2021-09-18T12:21:03Z</time>
      </trkpt>
      <trkpt lat="45.46545" lon="5.84544">
        <ele>1587</ele>
        <time>2021-09-18T12:22:25Z</time>
      </trkpt>
      <trkpt lat="45.46545" lon="5.84543">
        <ele>1599</ele>
        <time>2021-09-18T12:26:54Z</time>
      </trkpt>
      <trkpt lat="45.4655" lon="5.84551">
        <ele>1600</ele>
        <time>2021-09-18T12:27:13Z</time>
      </trkpt>
      <trkpt lat="45.46556" lon="5.84547">
        <ele>1602</ele>
        <time>2021-09-18T12:27:31Z</time>
      </trkpt>
      <trkpt lat="45.46558" lon="5.84538">
        <ele>1604</ele>
        <time>2021-09-18T12:28:07Z</time>
      </trkpt>
      <trkpt lat="45.46564" lon="5.84532">
        <ele>1611</ele>
        <time>2021-09-18T12:29:14Z</time>
      </trkpt>
      <trkpt lat="45.46561" lon="5.84522">
        <ele>1615</ele>
        <time>2021-09-18T12:29:57Z</time>
      </trkpt>
      <trkpt lat="45.46557" lon="5.84524">
        <ele>1616</ele>
        <time>2021-09-18T12:31:06Z</time>
      </trkpt>
      <trkpt lat="45.46552" lon="5.84516">
        <ele>1622</ele>
        <time>2021-09-18T12:32:12Z</time>
      </trkpt>
      <trkpt lat="45.46552" lon="5.84513">
        <ele>1626</ele>
        <time>2021-09-18T12:33:12Z</time>
      </trkpt>
      <trkpt lat="45.46546" lon="5.84494">
        <ele>1635</ele>
        <time>2021-09-18T12:34:57Z</time>
      </trkpt>
      <trkpt lat="45.46553" lon="5.84498">
        <ele>1639</ele>
        <time>2021-09-18T12:36:10Z</time>
      </trkpt>
      <trkpt lat="45.46557" lon="5.84488">
        <ele>1647</ele>
        <time>2021-09-18T12:37:55Z</time>
      </trkpt>
      <trkpt lat="45.46562" lon="5.84484">
        <ele>1652</ele>
        <time>2021-09-18T12:38:31Z</time>
      </trkpt>
      <trkpt lat="45.46564" lon="5.8448">
        <ele>1650</ele>
        <time>2021-09-18T12:38:43Z</time>
      </trkpt>
      <trkpt lat="45.46569" lon="5.84483">
        <ele>1652</ele>
        <time>2021-09-18T12:39:02Z</time>
      </trkpt>
      <trkpt lat="45.46568" lon="5.84489">
        <ele>1646</ele>
        <time>2021-09-18T12:39:20Z</time>
      </trkpt>
      <trkpt lat="45.46574" lon="5.84488">
        <ele>1653</ele>
        <time>2021-09-18T12:40:21Z</time>
      </trkpt>
      <trkpt lat="45.46574" lon="5.84479">
        <ele>1653</ele>
        <time>2021-09-18T12:41:17Z</time>
      </trkpt>
      <trkpt lat="45.46569" lon="5.84474">
        <ele>1653</ele>
        <time>2021-09-18T12:41:24Z</time>
      </trkpt>
      <trkpt lat="45.46656" lon="5.84716">
        <ele>1665</ele>
        <time>2021-09-18T13:45:09Z</time>
      </trkpt>
      <trkpt lat="45.46652" lon="5.84719">
        <ele>1696</ele>
        <time>2021-09-18T13:55:18Z</time>
      </trkpt>
      <trkpt lat="45.46653" lon="5.84717">
        <ele>1693</ele>
        <time>2021-09-18T14:01:34Z</time>
      </trkpt>
      <trkpt lat="45.46651" lon="5.84708">
        <ele>1693</ele>
        <time>2021-09-18T14:02:25Z</time>
      </trkpt>
      <trkpt lat="45.46664" lon="5.84691">
        <ele>1687</ele>
        <time>2021-09-18T14:02:57Z</time>
      </trkpt>
      <trkpt lat="45.46669" lon="5.84685">
        <ele>1686</ele>
        <time>2021-09-18T14:03:02Z</time>
      </trkpt>
      <trkpt lat="45.46671" lon="5.84699">
        <ele>1683</ele>
        <time>2021-09-18T14:03:56Z</time>
      </trkpt>
      <trkpt lat="45.46673" lon="5.84706">
        <ele>1683</ele>
        <time>2021-09-18T14:04:00Z</time>
      </trkpt>
      <trkpt lat="45.46679" lon="5.8472">
        <ele>1683</ele>
        <time>2021-09-18T14:04:10Z</time>
      </trkpt>
      <trkpt lat="45.46683" lon="5.84728">
        <ele>1681</ele>
        <time>2021-09-18T14:04:18Z</time>
      </trkpt>
      <trkpt lat="45.46691" lon="5.84736">
        <ele>1680</ele>
        <time>2021-09-18T14:04:33Z</time>
      </trkpt>
      <trkpt lat="45.467" lon="5.84745">
        <ele>1676</ele>
        <time>2021-09-18T14:04:45Z</time>
      </trkpt>
      <trkpt lat="45.46701" lon="5.84755">
        <ele>1677</ele>
        <time>2021-09-18T14:04:48Z</time>
      </trkpt>
      <trkpt lat="45.467" lon="5.84763">
        <ele>1677</ele>
        <time>2021-09-18T14:04:50Z</time>
      </trkpt>
      <trkpt lat="45.46702" lon="5.84778">
        <ele>1677</ele>
        <time>2021-09-18T14:04:57Z</time>
      </trkpt>
      <trkpt lat="45.46705" lon="5.84785">
        <ele>1678</ele>
        <time>2021-09-18T14:05:02Z</time>
      </trkpt>
      <trkpt lat="45.46706" lon="5.84793">
        <ele>1678</ele>
        <time>2021-09-18T14:05:06Z</time>
      </trkpt>
      <trkpt lat="45.4671" lon="5.84799">
        <ele>1679</ele>
        <time>2021-09-18T14:05:10Z</time>
      </trkpt>
      <trkpt lat="45.46717" lon="5.8481">
        <ele>1677</ele>
        <time>2021-09-18T14:05:19Z</time>
      </trkpt>
      <trkpt lat="45.46723" lon="5.84813">
        <ele>1675</ele>
        <time>2021-09-18T14:05:28Z</time>
      </trkpt>
      <trkpt lat="45.46728" lon="5.84819">
        <ele>1674</ele>
        <time>2021-09-18T14:05:33Z</time>
      </trkpt>
      <trkpt lat="45.46733" lon="5.84823">
        <ele>1673</ele>
        <time>2021-09-18T14:05:36Z</time>
      </trkpt>
      <trkpt lat="45.46746" lon="5.84835">
        <ele>1673</ele>
        <time>2021-09-18T14:05:47Z</time>
      </trkpt>
      <trkpt lat="45.46756" lon="5.8484">
        <ele>1674</ele>
        <time>2021-09-18T14:05:58Z</time>
      </trkpt>
      <trkpt lat="45.4676" lon="5.84845">
        <ele>1675</ele>
        <time>2021-09-18T14:06:02Z</time>
      </trkpt>
      <trkpt lat="45.46767" lon="5.84849">
        <ele>1675</ele>
        <time>2021-09-18T14:06:07Z</time>
      </trkpt>
      <trkpt lat="45.46772" lon="5.84856">
        <ele>1675</ele>
        <time>2021-09-18T14:06:14Z</time>
      </trkpt>
      <trkpt lat="45.46773" lon="5.84873">
        <ele>1675</ele>
        <time>2021-09-18T14:06:24Z</time>
      </trkpt>
      <trkpt lat="45.46774" lon="5.84879">
        <ele>1675</ele>
        <time>2021-09-18T14:06:27Z</time>
      </trkpt>
      <trkpt lat="45.46776" lon="5.84887">
        <ele>1674</ele>
        <time>2021-09-18T14:06:32Z</time>
      </trkpt>
      <trkpt lat="45.4678" lon="5.84893">
        <ele>1672</ele>
        <time>2021-09-18T14:06:37Z</time>
      </trkpt>
      <trkpt lat="45.46785" lon="5.84899">
        <ele>1671</ele>
        <time>2021-09-18T14:06:41Z</time>
      </trkpt>
      <trkpt lat="45.46791" lon="5.84906">
        <ele>1670</ele>
        <time>2021-09-18T14:06:51Z</time>
      </trkpt>
      <trkpt lat="45.46803" lon="5.84907">
        <ele>1668</ele>
        <time>2021-09-18T14:07:01Z</time>
      </trkpt>
      <trkpt lat="45.4681" lon="5.84915">
        <ele>1666</ele>
        <time>2021-09-18T14:07:08Z</time>
      </trkpt>
      <trkpt lat="45.46815" lon="5.84917">
        <ele>1665</ele>
        <time>2021-09-18T14:07:13Z</time>
      </trkpt>
      <trkpt lat="45.46826" lon="5.84918">
        <ele>1667</ele>
        <time>2021-09-18T14:07:28Z</time>
      </trkpt>
      <trkpt lat="45.46832" lon="5.84923">
        <ele>1666</ele>
        <time>2021-09-18T14:07:33Z</time>
      </trkpt>
      <trkpt lat="45.46835" lon="5.8493">
        <ele>1665</ele>
        <time>2021-09-18T14:07:39Z</time>
      </trkpt>
      <trkpt lat="45.4684" lon="5.84934">
        <ele>1664</ele>
        <time>2021-09-18T14:07:44Z</time>
      </trkpt>
      <trkpt lat="45.46843" lon="5.84942">
        <ele>1664</ele>
        <time>2021-09-18T14:07:49Z</time>
      </trkpt>
      <trkpt lat="45.46849" lon="5.84951">
        <ele>1664</ele>
        <time>2021-09-18T14:07:58Z</time>
      </trkpt>
      <trkpt lat="45.4686" lon="5.84964">
        <ele>1660</ele>
        <time>2021-09-18T14:08:18Z</time>
      </trkpt>
      <trkpt lat="45.46866" lon="5.84967">
        <ele>1659</ele>
        <time>2021-09-18T14:08:24Z</time>
      </trkpt>
      <trkpt lat="45.46873" lon="5.84968">
        <ele>1659</ele>
        <time>2021-09-18T14:08:31Z</time>
      </trkpt>
      <trkpt lat="45.46879" lon="5.84973">
        <ele>1658</ele>
        <time>2021-09-18T14:08:39Z</time>
      </trkpt>
      <trkpt lat="45.46888" lon="5.84975">
        <ele>1657</ele>
        <time>2021-09-18T14:08:53Z</time>
      </trkpt>
      <trkpt lat="45.46899" lon="5.84982">
        <ele>1654</ele>
        <time>2021-09-18T14:09:06Z</time>
      </trkpt>
      <trkpt lat="45.46902" lon="5.84992">
        <ele>1656</ele>
        <time>2021-09-18T14:09:19Z</time>
      </trkpt>
      <trkpt lat="45.46903" lon="5.85001">
        <ele>1657</ele>
        <time>2021-09-18T14:09:29Z</time>
      </trkpt>
      <trkpt lat="45.4691" lon="5.8501">
        <ele>1658</ele>
        <time>2021-09-18T14:09:41Z</time>
      </trkpt>
      <trkpt lat="45.46918" lon="5.85014">
        <ele>1660</ele>
        <time>2021-09-18T14:09:54Z</time>
      </trkpt>
      <trkpt lat="45.46924" lon="5.85013">
        <ele>1660</ele>
        <time>2021-09-18T14:10:00Z</time>
      </trkpt>
      <trkpt lat="45.46929" lon="5.85016">
        <ele>1659</ele>
        <time>2021-09-18T14:10:05Z</time>
      </trkpt>
      <trkpt lat="45.46934" lon="5.85025">
        <ele>1662</ele>
        <time>2021-09-18T14:10:19Z</time>
      </trkpt>
      <trkpt lat="45.46937" lon="5.85031">
        <ele>1663</ele>
        <time>2021-09-18T14:10:24Z</time>
      </trkpt>
      <trkpt lat="45.46938" lon="5.85041">
        <ele>1662</ele>
        <time>2021-09-18T14:10:57Z</time>
      </trkpt>
      <trkpt lat="45.46943" lon="5.85047">
        <ele>1663</ele>
        <time>2021-09-18T14:11:03Z</time>
      </trkpt>
      <trkpt lat="45.46958" lon="5.85058">
        <ele>1661</ele>
        <time>2021-09-18T14:11:27Z</time>
      </trkpt>
      <trkpt lat="45.46967" lon="5.85063">
        <ele>1661</ele>
        <time>2021-09-18T14:11:35Z</time>
      </trkpt>
      <trkpt lat="45.46973" lon="5.85063">
        <ele>1663</ele>
        <time>2021-09-18T14:11:40Z</time>
      </trkpt>
      <trkpt lat="45.46977" lon="5.85068">
        <ele>1661</ele>
        <time>2021-09-18T14:11:45Z</time>
      </trkpt>
      <trkpt lat="45.46982" lon="5.85076">
        <ele>1663</ele>
        <time>2021-09-18T14:11:59Z</time>
      </trkpt>
      <trkpt lat="45.46991" lon="5.85079">
        <ele>1663</ele>
        <time>2021-09-18T14:12:13Z</time>
      </trkpt>
      <trkpt lat="45.46998" lon="5.85076">
        <ele>1661</ele>
        <time>2021-09-18T14:12:25Z</time>
      </trkpt>
      <trkpt lat="45.47004" lon="5.85079">
        <ele>1661</ele>
        <time>2021-09-18T14:12:31Z</time>
      </trkpt>
      <trkpt lat="45.47007" lon="5.85089">
        <ele>1661</ele>
        <time>2021-09-18T14:12:44Z</time>
      </trkpt>
      <trkpt lat="45.47012" lon="5.85092">
        <ele>1663</ele>
        <time>2021-09-18T14:12:50Z</time>
      </trkpt>
      <trkpt lat="45.4702" lon="5.85096">
        <ele>1662</ele>
        <time>2021-09-18T14:12:58Z</time>
      </trkpt>
      <trkpt lat="45.47026" lon="5.85095">
        <ele>1663</ele>
        <time>2021-09-18T14:13:07Z</time>
      </trkpt>
      <trkpt lat="45.47034" lon="5.85095">
        <ele>1663</ele>
        <time>2021-09-18T14:13:27Z</time>
      </trkpt>
      <trkpt lat="45.47039" lon="5.8509">
        <ele>1663</ele>
        <time>2021-09-18T14:13:32Z</time>
      </trkpt>
      <trkpt lat="45.47045" lon="5.85095">
        <ele>1663</ele>
        <time>2021-09-18T14:13:41Z</time>
      </trkpt>
      <trkpt lat="45.47051" lon="5.851">
        <ele>1662</ele>
        <time>2021-09-18T14:13:53Z</time>
      </trkpt>
      <trkpt lat="45.47057" lon="5.85103">
        <ele>1661</ele>
        <time>2021-09-18T14:14:11Z</time>
      </trkpt>
      <trkpt lat="45.47063" lon="5.85108">
        <ele>1660</ele>
        <time>2021-09-18T14:14:23Z</time>
      </trkpt>
      <trkpt lat="45.47068" lon="5.85115">
        <ele>1659</ele>
        <time>2021-09-18T14:14:29Z</time>
      </trkpt>
      <trkpt lat="45.47072" lon="5.85122">
        <ele>1659</ele>
        <time>2021-09-18T14:14:39Z</time>
      </trkpt>
      <trkpt lat="45.47076" lon="5.85127">
        <ele>1658</ele>
        <time>2021-09-18T14:14:46Z</time>
      </trkpt>
      <trkpt lat="45.47085" lon="5.85141">
        <ele>1653</ele>
        <time>2021-09-18T14:15:19Z</time>
      </trkpt>
      <trkpt lat="45.4709" lon="5.85151">
        <ele>1653</ele>
        <time>2021-09-18T14:15:30Z</time>
      </trkpt>
      <trkpt lat="45.47096" lon="5.85157">
        <ele>1652</ele>
        <time>2021-09-18T14:15:48Z</time>
      </trkpt>
      <trkpt lat="45.47103" lon="5.85166">
        <ele>1651</ele>
        <time>2021-09-18T14:15:59Z</time>
      </trkpt>
      <trkpt lat="45.47108" lon="5.85171">
        <ele>1651</ele>
        <time>2021-09-18T14:16:04Z</time>
      </trkpt>
      <trkpt lat="45.47114" lon="5.85172">
        <ele>1649</ele>
        <time>2021-09-18T14:16:11Z</time>
      </trkpt>
      <trkpt lat="45.47123" lon="5.85172">
        <ele>1651</ele>
        <time>2021-09-18T14:16:22Z</time>
      </trkpt>
      <trkpt lat="45.47134" lon="5.85185">
        <ele>1651</ele>
        <time>2021-09-18T14:16:43Z</time>
      </trkpt>
      <trkpt lat="45.47138" lon="5.8519">
        <ele>1651</ele>
        <time>2021-09-18T14:16:48Z</time>
      </trkpt>
      <trkpt lat="45.47145" lon="5.85195">
        <ele>1652</ele>
        <time>2021-09-18T14:16:54Z</time>
      </trkpt>
      <trkpt lat="45.47149" lon="5.85201">
        <ele>1651</ele>
        <time>2021-09-18T14:16:59Z</time>
      </trkpt>
      <trkpt lat="45.47156" lon="5.85208">
        <ele>1650</ele>
        <time>2021-09-18T14:17:10Z</time>
      </trkpt>
      <trkpt lat="45.47157" lon="5.85228">
        <ele>1652</ele>
        <time>2021-09-18T14:17:28Z</time>
      </trkpt>
      <trkpt lat="45.4716" lon="5.85236">
        <ele>1652</ele>
        <time>2021-09-18T14:17:37Z</time>
      </trkpt>
      <trkpt lat="45.47173" lon="5.85253">
        <ele>1652</ele>
        <time>2021-09-18T14:17:58Z</time>
      </trkpt>
      <trkpt lat="45.47176" lon="5.8526">
        <ele>1652</ele>
        <time>2021-09-18T14:18:04Z</time>
      </trkpt>
      <trkpt lat="45.47181" lon="5.85264">
        <ele>1653</ele>
        <time>2021-09-18T14:18:10Z</time>
      </trkpt>
      <trkpt lat="45.47189" lon="5.8527">
        <ele>1653</ele>
        <time>2021-09-18T14:18:21Z</time>
      </trkpt>
      <trkpt lat="45.47199" lon="5.85278">
        <ele>1650</ele>
        <time>2021-09-18T14:18:35Z</time>
      </trkpt>
      <trkpt lat="45.47201" lon="5.85285">
        <ele>1650</ele>
        <time>2021-09-18T14:18:42Z</time>
      </trkpt>
      <trkpt lat="45.47199" lon="5.85296">
        <ele>1649</ele>
        <time>2021-09-18T14:18:48Z</time>
      </trkpt>
      <trkpt lat="45.472" lon="5.85305">
        <ele>1649</ele>
        <time>2021-09-18T14:18:56Z</time>
      </trkpt>
      <trkpt lat="45.47203" lon="5.85311">
        <ele>1649</ele>
        <time>2021-09-18T14:19:02Z</time>
      </trkpt>
      <trkpt lat="45.47214" lon="5.85324">
        <ele>1647</ele>
        <time>2021-09-18T14:19:28Z</time>
      </trkpt>
      <trkpt lat="45.47221" lon="5.85318">
        <ele>1648</ele>
        <time>2021-09-18T14:19:36Z</time>
      </trkpt>
      <trkpt lat="45.47227" lon="5.85317">
        <ele>1649</ele>
        <time>2021-09-18T14:19:44Z</time>
      </trkpt>
      <trkpt lat="45.47233" lon="5.85311">
        <ele>1648</ele>
        <time>2021-09-18T14:19:52Z</time>
      </trkpt>
      <trkpt lat="45.47237" lon="5.853">
        <ele>1647</ele>
        <time>2021-09-18T14:20:02Z</time>
      </trkpt>
      <trkpt lat="45.4724" lon="5.85293">
        <ele>1646</ele>
        <time>2021-09-18T14:20:07Z</time>
      </trkpt>
      <trkpt lat="45.47246" lon="5.85283">
        <ele>1646</ele>
        <time>2021-09-18T14:20:18Z</time>
      </trkpt>
      <trkpt lat="45.47254" lon="5.85286">
        <ele>1645</ele>
        <time>2021-09-18T14:20:30Z</time>
      </trkpt>
      <trkpt lat="45.47269" lon="5.85303">
        <ele>1645</ele>
        <time>2021-09-18T14:20:51Z</time>
      </trkpt>
      <trkpt lat="45.47266" lon="5.85315">
        <ele>1647</ele>
        <time>2021-09-18T14:21:05Z</time>
      </trkpt>
      <trkpt lat="45.47272" lon="5.85324">
        <ele>1647</ele>
        <time>2021-09-18T14:21:17Z</time>
      </trkpt>
      <trkpt lat="45.47278" lon="5.85323">
        <ele>1646</ele>
        <time>2021-09-18T14:21:24Z</time>
      </trkpt>
      <trkpt lat="45.47288" lon="5.85308">
        <ele>1644</ele>
        <time>2021-09-18T14:21:54Z</time>
      </trkpt>
      <trkpt lat="45.47293" lon="5.85302">
        <ele>1644</ele>
        <time>2021-09-18T14:21:59Z</time>
      </trkpt>
      <trkpt lat="45.47299" lon="5.85307">
        <ele>1643</ele>
        <time>2021-09-18T14:22:03Z</time>
      </trkpt>
      <trkpt lat="45.47305" lon="5.85306">
        <ele>1642</ele>
        <time>2021-09-18T14:22:07Z</time>
      </trkpt>
      <trkpt lat="45.47311" lon="5.85305">
        <ele>1642</ele>
        <time>2021-09-18T14:22:13Z</time>
      </trkpt>
      <trkpt lat="45.47317" lon="5.853">
        <ele>1641</ele>
        <time>2021-09-18T14:22:20Z</time>
      </trkpt>
      <trkpt lat="45.47319" lon="5.85294">
        <ele>1640</ele>
        <time>2021-09-18T14:22:26Z</time>
      </trkpt>
      <trkpt lat="45.47324" lon="5.85289">
        <ele>1639</ele>
        <time>2021-09-18T14:22:39Z</time>
      </trkpt>
      <trkpt lat="45.4733" lon="5.85287">
        <ele>1636</ele>
        <time>2021-09-18T14:22:45Z</time>
      </trkpt>
      <trkpt lat="45.47341" lon="5.85283">
        <ele>1637</ele>
        <time>2021-09-18T14:22:56Z</time>
      </trkpt>
      <trkpt lat="45.47354" lon="5.8528">
        <ele>1635</ele>
        <time>2021-09-18T14:23:16Z</time>
      </trkpt>
      <trkpt lat="45.47362" lon="5.8529">
        <ele>1636</ele>
        <time>2021-09-18T14:23:26Z</time>
      </trkpt>
      <trkpt lat="45.47368" lon="5.85289">
        <ele>1638</ele>
        <time>2021-09-18T14:23:40Z</time>
      </trkpt>
      <trkpt lat="45.47376" lon="5.85285">
        <ele>1638</ele>
        <time>2021-09-18T14:23:57Z</time>
      </trkpt>
      <trkpt lat="45.47384" lon="5.85283">
        <ele>1640</ele>
        <time>2021-09-18T14:24:09Z</time>
      </trkpt>
      <trkpt lat="45.47388" lon="5.85277">
        <ele>1639</ele>
        <time>2021-09-18T14:24:14Z</time>
      </trkpt>
      <trkpt lat="45.47392" lon="5.85268">
        <ele>1639</ele>
        <time>2021-09-18T14:24:22Z</time>
      </trkpt>
      <trkpt lat="45.474" lon="5.85262">
        <ele>1638</ele>
        <time>2021-09-18T14:24:34Z</time>
      </trkpt>
      <trkpt lat="45.47405" lon="5.85259">
        <ele>1638</ele>
        <time>2021-09-18T14:24:41Z</time>
      </trkpt>
      <trkpt lat="45.47415" lon="5.85265">
        <ele>1637</ele>
        <time>2021-09-18T14:24:59Z</time>
      </trkpt>
      <trkpt lat="45.47425" lon="5.85266">
        <ele>1638</ele>
        <time>2021-09-18T14:25:12Z</time>
      </trkpt>
      <trkpt lat="45.47431" lon="5.85272">
        <ele>1637</ele>
        <time>2021-09-18T14:25:26Z</time>
      </trkpt>
      <trkpt lat="45.4744" lon="5.85278">
        <ele>1637</ele>
        <time>2021-09-18T14:25:44Z</time>
      </trkpt>
      <trkpt lat="45.47443" lon="5.85285">
        <ele>1639</ele>
        <time>2021-09-18T14:25:50Z</time>
      </trkpt>
      <trkpt lat="45.47448" lon="5.85291">
        <ele>1638</ele>
        <time>2021-09-18T14:25:58Z</time>
      </trkpt>
      <trkpt lat="45.47462" lon="5.853">
        <ele>1636</ele>
        <time>2021-09-18T14:26:22Z</time>
      </trkpt>
      <trkpt lat="45.47457" lon="5.85313">
        <ele>1635</ele>
        <time>2021-09-18T14:26:34Z</time>
      </trkpt>
      <trkpt lat="45.47453" lon="5.85317">
        <ele>1635</ele>
        <time>2021-09-18T14:26:38Z</time>
      </trkpt>
      <trkpt lat="45.47451" lon="5.85326">
        <ele>1634</ele>
        <time>2021-09-18T14:26:47Z</time>
      </trkpt>
      <trkpt lat="45.47467" lon="5.85354">
        <ele>1630</ele>
        <time>2021-09-18T14:27:24Z</time>
      </trkpt>
      <trkpt lat="45.47473" lon="5.85358">
        <ele>1629</ele>
        <time>2021-09-18T14:27:36Z</time>
      </trkpt>
      <trkpt lat="45.47486" lon="5.85363">
        <ele>1626</ele>
        <time>2021-09-18T14:28:02Z</time>
      </trkpt>
      <trkpt lat="45.47493" lon="5.85362">
        <ele>1626</ele>
        <time>2021-09-18T14:28:09Z</time>
      </trkpt>
      <trkpt lat="45.47509" lon="5.85346">
        <ele>1625</ele>
        <time>2021-09-18T14:28:32Z</time>
      </trkpt>
      <trkpt lat="45.47524" lon="5.85359">
        <ele>1623</ele>
        <time>2021-09-18T14:28:54Z</time>
      </trkpt>
      <trkpt lat="45.47543" lon="5.85385">
        <ele>1625</ele>
        <time>2021-09-18T14:29:30Z</time>
      </trkpt>
      <trkpt lat="45.47553" lon="5.85401">
        <ele>1628</ele>
        <time>2021-09-18T14:30:06Z</time>
      </trkpt>
      <trkpt lat="45.4756" lon="5.85425">
        <ele>1625</ele>
        <time>2021-09-18T14:30:28Z</time>
      </trkpt>
      <trkpt lat="45.47576" lon="5.85436">
        <ele>1623</ele>
        <time>2021-09-18T14:31:00Z</time>
      </trkpt>
      <trkpt lat="45.47592" lon="5.85433">
        <ele>1623</ele>
        <time>2021-09-18T14:31:23Z</time>
      </trkpt>
      <trkpt lat="45.47608" lon="5.85428">
        <ele>1621</ele>
        <time>2021-09-18T14:31:53Z</time>
      </trkpt>
      <trkpt lat="45.47627" lon="5.85431">
        <ele>1623</ele>
        <time>2021-09-18T14:32:20Z</time>
      </trkpt>
      <trkpt lat="45.47651" lon="5.85428">
        <ele>1623</ele>
        <time>2021-09-18T14:32:47Z</time>
      </trkpt>
      <trkpt lat="45.47677" lon="5.85442">
        <ele>1622</ele>
        <time>2021-09-18T14:33:14Z</time>
      </trkpt>
      <trkpt lat="45.47692" lon="5.85451">
        <ele>1618</ele>
        <time>2021-09-18T14:33:43Z</time>
      </trkpt>
      <trkpt lat="45.47703" lon="5.85437">
        <ele>1617</ele>
        <time>2021-09-18T14:34:14Z</time>
      </trkpt>
      <trkpt lat="45.47722" lon="5.85439">
        <ele>1617</ele>
        <time>2021-09-18T14:34:26Z</time>
      </trkpt>
      <trkpt lat="45.47781" lon="5.85446">
        <ele>1623</ele>
        <time>2021-09-18T14:35:38Z</time>
      </trkpt>
      <trkpt lat="45.47806" lon="5.8546">
        <ele>1621</ele>
        <time>2021-09-18T14:36:11Z</time>
      </trkpt>
      <trkpt lat="45.4784" lon="5.85462">
        <ele>1618</ele>
        <time>2021-09-18T14:36:51Z</time>
      </trkpt>
      <trkpt lat="45.47824" lon="5.85461">
        <ele>1621</ele>
        <time>2021-09-18T14:37:54Z</time>
      </trkpt>
      <trkpt lat="45.47825" lon="5.85461">
        <ele>1620</ele>
        <time>2021-09-18T14:39:24Z</time>
      </trkpt>
      <trkpt lat="45.47832" lon="5.85456">
        <ele>1619</ele>
        <time>2021-09-18T14:39:39Z</time>
      </trkpt>
      <trkpt lat="45.47843" lon="5.85459">
        <ele>1618</ele>
        <time>2021-09-18T14:39:52Z</time>
      </trkpt>
      <trkpt lat="45.47851" lon="5.85455">
        <ele>1618</ele>
        <time>2021-09-18T14:39:57Z</time>
      </trkpt>
      <trkpt lat="45.47861" lon="5.85456">
        <ele>1617</ele>
        <time>2021-09-18T14:40:07Z</time>
      </trkpt>
      <trkpt lat="45.47866" lon="5.85461">
        <ele>1617</ele>
        <time>2021-09-18T14:40:13Z</time>
      </trkpt>
      <trkpt lat="45.47875" lon="5.85462">
        <ele>1616</ele>
        <time>2021-09-18T14:40:29Z</time>
      </trkpt>
      <trkpt lat="45.4788" lon="5.85471">
        <ele>1616</ele>
        <time>2021-09-18T14:40:38Z</time>
      </trkpt>
      <trkpt lat="45.47887" lon="5.85479">
        <ele>1614</ele>
        <time>2021-09-18T14:40:46Z</time>
      </trkpt>
      <trkpt lat="45.47895" lon="5.85481">
        <ele>1615</ele>
        <time>2021-09-18T14:40:52Z</time>
      </trkpt>
      <trkpt lat="45.47906" lon="5.85485">
        <ele>1614</ele>
        <time>2021-09-18T14:41:09Z</time>
      </trkpt>
      <trkpt lat="45.4793" lon="5.85493">
        <ele>1611</ele>
        <time>2021-09-18T14:41:44Z</time>
      </trkpt>
      <trkpt lat="45.47956" lon="5.85507">
        <ele>1613</ele>
        <time>2021-09-18T14:42:19Z</time>
      </trkpt>
      <trkpt lat="45.47971" lon="5.85504">
        <ele>1612</ele>
        <time>2021-09-18T14:42:36Z</time>
      </trkpt>
      <trkpt lat="45.47985" lon="5.85514">
        <ele>1612</ele>
        <time>2021-09-18T14:42:58Z</time>
      </trkpt>
      <trkpt lat="45.47999" lon="5.85524">
        <ele>1608</ele>
        <time>2021-09-18T14:43:24Z</time>
      </trkpt>
      <trkpt lat="45.48013" lon="5.85506">
        <ele>1607</ele>
        <time>2021-09-18T14:43:52Z</time>
      </trkpt>
      <trkpt lat="45.48024" lon="5.85521">
        <ele>1607</ele>
        <time>2021-09-18T14:44:07Z</time>
      </trkpt>
      <trkpt lat="45.48026" lon="5.85542">
        <ele>1606</ele>
        <time>2021-09-18T14:44:26Z</time>
      </trkpt>
      <trkpt lat="45.48037" lon="5.85562">
        <ele>1601</ele>
        <time>2021-09-18T14:45:06Z</time>
      </trkpt>
      <trkpt lat="45.48065" lon="5.85573">
        <ele>1604</ele>
        <time>2021-09-18T14:45:38Z</time>
      </trkpt>
      <trkpt lat="45.48076" lon="5.85586">
        <ele>1605</ele>
        <time>2021-09-18T14:45:51Z</time>
      </trkpt>
      <trkpt lat="45.4809" lon="5.85594">
        <ele>1603</ele>
        <time>2021-09-18T14:46:30Z</time>
      </trkpt>
      <trkpt lat="45.48103" lon="5.85586">
        <ele>1604</ele>
        <time>2021-09-18T14:46:50Z</time>
      </trkpt>
      <trkpt lat="45.48121" lon="5.85592">
        <ele>1601</ele>
        <time>2021-09-18T14:47:15Z</time>
      </trkpt>
      <trkpt lat="45.48142" lon="5.85585">
        <ele>1601</ele>
        <time>2021-09-18T14:47:45Z</time>
      </trkpt>
      <trkpt lat="45.48156" lon="5.85593">
        <ele>1601</ele>
        <time>2021-09-18T14:48:16Z</time>
      </trkpt>
      <trkpt lat="45.48155" lon="5.85616">
        <ele>1603</ele>
        <time>2021-09-18T14:49:16Z</time>
      </trkpt>
      <trkpt lat="45.48163" lon="5.85633">
        <ele>1604</ele>
        <time>2021-09-18T14:49:29Z</time>
      </trkpt>
      <trkpt lat="45.48179" lon="5.85642">
        <ele>1604</ele>
        <time>2021-09-18T14:49:41Z</time>
      </trkpt>
      <trkpt lat="45.48192" lon="5.85649">
        <ele>1601</ele>
        <time>2021-09-18T14:49:57Z</time>
      </trkpt>
      <trkpt lat="45.48221" lon="5.85642">
        <ele>1600</ele>
        <time>2021-09-18T14:50:28Z</time>
      </trkpt>
      <trkpt lat="45.48235" lon="5.85646">
        <ele>1601</ele>
        <time>2021-09-18T14:50:46Z</time>
      </trkpt>
      <trkpt lat="45.48251" lon="5.85648">
        <ele>1600</ele>
        <time>2021-09-18T14:51:02Z</time>
      </trkpt>
      <trkpt lat="45.48281" lon="5.85645">
        <ele>1591</ele>
        <time>2021-09-18T14:51:54Z</time>
      </trkpt>
      <trkpt lat="45.48277" lon="5.85668">
        <ele>1592</ele>
        <time>2021-09-18T14:52:15Z</time>
      </trkpt>
      <trkpt lat="45.48305" lon="5.85687">
        <ele>1590</ele>
        <time>2021-09-18T14:53:27Z</time>
      </trkpt>
      <trkpt lat="45.48305" lon="5.85712">
        <ele>1592</ele>
        <time>2021-09-18T14:54:42Z</time>
      </trkpt>
      <trkpt lat="45.48306" lon="5.85733">
        <ele>1594</ele>
        <time>2021-09-18T14:55:24Z</time>
      </trkpt>
      <trkpt lat="45.48306" lon="5.85741">
        <ele>1593</ele>
        <time>2021-09-18T14:58:29Z</time>
      </trkpt>
      <trkpt lat="45.48297" lon="5.85744">
        <ele>1592</ele>
        <time>2021-09-18T14:59:20Z</time>
      </trkpt>
      <trkpt lat="45.48294" lon="5.85759">
        <ele>1591</ele>
        <time>2021-09-18T14:59:33Z</time>
      </trkpt>
      <trkpt lat="45.48299" lon="5.85773">
        <ele>1591</ele>
        <time>2021-09-18T14:59:43Z</time>
      </trkpt>
      <trkpt lat="45.48305" lon="5.85781">
        <ele>1591</ele>
        <time>2021-09-18T14:59:50Z</time>
      </trkpt>
      <trkpt lat="45.48316" lon="5.85793">
        <ele>1590</ele>
        <time>2021-09-18T15:00:06Z</time>
      </trkpt>
      <trkpt lat="45.48323" lon="5.85799">
        <ele>1589</ele>
        <time>2021-09-18T15:00:13Z</time>
      </trkpt>
      <trkpt lat="45.4833" lon="5.85804">
        <ele>1587</ele>
        <time>2021-09-18T15:00:27Z</time>
      </trkpt>
      <trkpt lat="45.48331" lon="5.85819">
        <ele>1583</ele>
        <time>2021-09-18T15:00:41Z</time>
      </trkpt>
      <trkpt lat="45.48336" lon="5.85826">
        <ele>1581</ele>
        <time>2021-09-18T15:00:54Z</time>
      </trkpt>
      <trkpt lat="45.48331" lon="5.85832">
        <ele>1580</ele>
        <time>2021-09-18T15:00:59Z</time>
      </trkpt>
      <trkpt lat="45.48332" lon="5.85842">
        <ele>1577</ele>
        <time>2021-09-18T15:01:12Z</time>
      </trkpt>
      <trkpt lat="45.48337" lon="5.85853">
        <ele>1574</ele>
        <time>2021-09-18T15:01:36Z</time>
      </trkpt>
      <trkpt lat="45.48339" lon="5.85856">
        <ele>1569</ele>
        <time>2021-09-18T15:02:18Z</time>
      </trkpt>
      <trkpt lat="45.48336" lon="5.85868">
        <ele>1568</ele>
        <time>2021-09-18T15:02:32Z</time>
      </trkpt>
      <trkpt lat="45.48337" lon="5.85875">
        <ele>1565</ele>
        <time>2021-09-18T15:02:49Z</time>
      </trkpt>
      <trkpt lat="45.48345" lon="5.8588">
        <ele>1562</ele>
        <time>2021-09-18T15:03:07Z</time>
      </trkpt>
      <trkpt lat="45.48343" lon="5.85888">
        <ele>1559</ele>
        <time>2021-09-18T15:03:25Z</time>
      </trkpt>
      <trkpt lat="45.48341" lon="5.85896">
        <ele>1558</ele>
        <time>2021-09-18T15:03:31Z</time>
      </trkpt>
      <trkpt lat="45.48342" lon="5.85904">
        <ele>1557</ele>
        <time>2021-09-18T15:03:45Z</time>
      </trkpt>
      <trkpt lat="45.48339" lon="5.8591">
        <ele>1556</ele>
        <time>2021-09-18T15:03:57Z</time>
      </trkpt>
      <trkpt lat="45.48344" lon="5.85915">
        <ele>1554</ele>
        <time>2021-09-18T15:04:08Z</time>
      </trkpt>
      <trkpt lat="45.4834" lon="5.85922">
        <ele>1551</ele>
        <time>2021-09-18T15:04:23Z</time>
      </trkpt>
      <trkpt lat="45.48342" lon="5.85929">
        <ele>1553</ele>
        <time>2021-09-18T15:04:27Z</time>
      </trkpt>
      <trkpt lat="45.4835" lon="5.85937">
        <ele>1553</ele>
        <time>2021-09-18T15:04:38Z</time>
      </trkpt>
      <trkpt lat="45.48355" lon="5.85938">
        <ele>1552</ele>
        <time>2021-09-18T15:04:44Z</time>
      </trkpt>
      <trkpt lat="45.4836" lon="5.85941">
        <ele>1550</ele>
        <time>2021-09-18T15:04:53Z</time>
      </trkpt>
      <trkpt lat="45.48368" lon="5.85948">
        <ele>1547</ele>
        <time>2021-09-18T15:05:11Z</time>
      </trkpt>
      <trkpt lat="45.48376" lon="5.85951">
        <ele>1546</ele>
        <time>2021-09-18T15:05:23Z</time>
      </trkpt>
      <trkpt lat="45.48394" lon="5.85959">
        <ele>1543</ele>
        <time>2021-09-18T15:05:59Z</time>
      </trkpt>
      <trkpt lat="45.48404" lon="5.8596">
        <ele>1539</ele>
        <time>2021-09-18T15:06:29Z</time>
      </trkpt>
      <trkpt lat="45.48409" lon="5.85961">
        <ele>1540</ele>
        <time>2021-09-18T15:06:40Z</time>
      </trkpt>
      <trkpt lat="45.48415" lon="5.85966">
        <ele>1540</ele>
        <time>2021-09-18T15:06:45Z</time>
      </trkpt>
      <trkpt lat="45.48414" lon="5.85978">
        <ele>1538</ele>
        <time>2021-09-18T15:06:59Z</time>
      </trkpt>
      <trkpt lat="45.48414" lon="5.85987">
        <ele>1537</ele>
        <time>2021-09-18T15:07:11Z</time>
      </trkpt>
      <trkpt lat="45.48415" lon="5.85995">
        <ele>1536</ele>
        <time>2021-09-18T15:07:23Z</time>
      </trkpt>
      <trkpt lat="45.48408" lon="5.86013">
        <ele>1534</ele>
        <time>2021-09-18T15:07:37Z</time>
      </trkpt>
      <trkpt lat="45.48408" lon="5.86022">
        <ele>1533</ele>
        <time>2021-09-18T15:07:45Z</time>
      </trkpt>
      <trkpt lat="45.48403" lon="5.86029">
        <ele>1531</ele>
        <time>2021-09-18T15:07:54Z</time>
      </trkpt>
      <trkpt lat="45.48396" lon="5.86036">
        <ele>1530</ele>
        <time>2021-09-18T15:08:06Z</time>
      </trkpt>
      <trkpt lat="45.48397" lon="5.8605">
        <ele>1529</ele>
        <time>2021-09-18T15:08:16Z</time>
      </trkpt>
      <trkpt lat="45.48403" lon="5.86064">
        <ele>1528</ele>
        <time>2021-09-18T15:08:23Z</time>
      </trkpt>
      <trkpt lat="45.48407" lon="5.86069">
        <ele>1530</ele>
        <time>2021-09-18T15:08:29Z</time>
      </trkpt>
      <trkpt lat="45.48411" lon="5.86079">
        <ele>1526</ele>
        <time>2021-09-18T15:08:43Z</time>
      </trkpt>
      <trkpt lat="45.48423" lon="5.8609">
        <ele>1524</ele>
        <time>2021-09-18T15:09:00Z</time>
      </trkpt>
      <trkpt lat="45.48418" lon="5.86119">
        <ele>1520</ele>
        <time>2021-09-18T15:09:34Z</time>
      </trkpt>
      <trkpt lat="45.48419" lon="5.8613">
        <ele>1518</ele>
        <time>2021-09-18T15:09:41Z</time>
      </trkpt>
      <trkpt lat="45.48411" lon="5.86137">
        <ele>1516</ele>
        <time>2021-09-18T15:09:51Z</time>
      </trkpt>
      <trkpt lat="45.48411" lon="5.86147">
        <ele>1516</ele>
        <time>2021-09-18T15:10:00Z</time>
      </trkpt>
      <trkpt lat="45.48414" lon="5.86157">
        <ele>1513</ele>
        <time>2021-09-18T15:10:12Z</time>
      </trkpt>
      <trkpt lat="45.48416" lon="5.86167">
        <ele>1511</ele>
        <time>2021-09-18T15:10:21Z</time>
      </trkpt>
      <trkpt lat="45.48419" lon="5.86175">
        <ele>1510</ele>
        <time>2021-09-18T15:10:25Z</time>
      </trkpt>
      <trkpt lat="45.48424" lon="5.8618">
        <ele>1510</ele>
        <time>2021-09-18T15:10:29Z</time>
      </trkpt>
      <trkpt lat="45.4843" lon="5.862">
        <ele>1508</ele>
        <time>2021-09-18T15:10:48Z</time>
      </trkpt>
      <trkpt lat="45.48431" lon="5.86211">
        <ele>1502</ele>
        <time>2021-09-18T15:11:08Z</time>
      </trkpt>
      <trkpt lat="45.48426" lon="5.86228">
        <ele>1501</ele>
        <time>2021-09-18T15:11:27Z</time>
      </trkpt>
      <trkpt lat="45.48431" lon="5.86238">
        <ele>1499</ele>
        <time>2021-09-18T15:11:46Z</time>
      </trkpt>
      <trkpt lat="45.48427" lon="5.86246">
        <ele>1496</ele>
        <time>2021-09-18T15:11:58Z</time>
      </trkpt>
      <trkpt lat="45.48434" lon="5.86253">
        <ele>1494</ele>
        <time>2021-09-18T15:12:06Z</time>
      </trkpt>
      <trkpt lat="45.48428" lon="5.86272">
        <ele>1491</ele>
        <time>2021-09-18T15:12:22Z</time>
      </trkpt>
      <trkpt lat="45.48422" lon="5.86281">
        <ele>1491</ele>
        <time>2021-09-18T15:12:29Z</time>
      </trkpt>
      <trkpt lat="45.48418" lon="5.86287">
        <ele>1489</ele>
        <time>2021-09-18T15:12:35Z</time>
      </trkpt>
      <trkpt lat="45.48411" lon="5.86307">
        <ele>1485</ele>
        <time>2021-09-18T15:13:21Z</time>
      </trkpt>
      <trkpt lat="45.48417" lon="5.86314">
        <ele>1486</ele>
        <time>2021-09-18T15:16:02Z</time>
      </trkpt>
      <trkpt lat="45.48418" lon="5.86311">
        <ele>1484</ele>
        <time>2021-09-18T15:18:14Z</time>
      </trkpt>
      <trkpt lat="45.48418" lon="5.86311">
        <ele>1484</ele>
        <time>2021-09-18T15:18:22Z</time>
      </trkpt>
      <trkpt lat="45.48418" lon="5.86309">
        <ele>1484</ele>
        <time>2021-09-18T15:19:36Z</time>
      </trkpt>
      <trkpt lat="45.48411" lon="5.86313">
        <ele>1482</ele>
        <time>2021-09-18T15:20:57Z</time>
      </trkpt>
      <trkpt lat="45.48339" lon="5.86375">
        <ele>1458</ele>
        <time>2021-09-18T15:27:36Z</time>
      </trkpt>
      <trkpt lat="45.48337" lon="5.86367">
        <ele>1458</ele>
        <time>2021-09-18T15:28:01Z</time>
      </trkpt>
      <trkpt lat="45.4833" lon="5.86365">
        <ele>1456</ele>
        <time>2021-09-18T15:28:25Z</time>
      </trkpt>
      <trkpt lat="45.4833" lon="5.86365">
        <ele>1456</ele>
        <time>2021-09-18T15:28:26Z</time>
      </trkpt>
      <trkpt lat="45.4828" lon="5.86285">
        <ele>1406</ele>
        <time>2021-09-18T15:35:18Z</time>
      </trkpt>
      <trkpt lat="45.48205" lon="5.8631">
        <ele>1405</ele>
        <time>2021-09-18T15:36:56Z</time>
      </trkpt>
      <trkpt lat="45.48249" lon="5.86306">
        <ele>1403</ele>
        <time>2021-09-18T15:37:28Z</time>
      </trkpt>
      <trkpt lat="45.55228" lon="5.93781">
        <ele>370</ele>
        <time>2021-09-21T18:30:36Z</time>
      </trkpt>
      <trkpt lat="45.55228" lon="5.93778">
        <ele>370</ele>
        <time>2021-09-21T18:30:42Z</time>
      </trkpt>
    </trkseg>
  </trk>
  <trk>
    <name><![CDATA[29 août 2021 à 10:52:06]]></name>
    <cmt><![CDATA[29 août 2021 à 10:52:06]]></cmt>
    <trkseg>
      <trkpt lat="45.4405" lon="5.90756">
        <ele>1119</ele>
        <time>2021-08-29T08:52:07Z</time>
      </trkpt>
      <trkpt lat="45.44064" lon="5.90765">
        <ele>1119</ele>
        <time>2021-08-29T08:52:35Z</time>
      </trkpt>
      <trkpt lat="45.44076" lon="5.90784">
        <ele>1122</ele>
        <time>2021-08-29T08:52:45Z</time>
      </trkpt>
      <trkpt lat="45.44086" lon="5.90801">
        <ele>1123</ele>
        <time>2021-08-29T08:52:57Z</time>
      </trkpt>
      <trkpt lat="45.44096" lon="5.90815">
        <ele>1126</ele>
        <time>2021-08-29T08:53:09Z</time>
      </trkpt>
      <trkpt lat="45.44085" lon="5.90842">
        <ele>1129</ele>
        <time>2021-08-29T08:53:29Z</time>
      </trkpt>
      <trkpt lat="45.44075" lon="5.9085">
        <ele>1131</ele>
        <time>2021-08-29T08:53:39Z</time>
      </trkpt>
      <trkpt lat="45.44061" lon="5.90869">
        <ele>1134</ele>
        <time>2021-08-29T08:53:58Z</time>
      </trkpt>
      <trkpt lat="45.44055" lon="5.9089">
        <ele>1135</ele>
        <time>2021-08-29T08:54:07Z</time>
      </trkpt>
      <trkpt lat="45.44053" lon="5.90911">
        <ele>1135</ele>
        <time>2021-08-29T08:54:16Z</time>
      </trkpt>
      <trkpt lat="45.44048" lon="5.90929">
        <ele>1137</ele>
        <time>2021-08-29T08:54:30Z</time>
      </trkpt>
      <trkpt lat="45.44029" lon="5.90972">
        <ele>1146</ele>
        <time>2021-08-29T08:55:30Z</time>
      </trkpt>
      <trkpt lat="45.44017" lon="5.90993">
        <ele>1147</ele>
        <time>2021-08-29T08:55:49Z</time>
      </trkpt>
      <trkpt lat="45.44019" lon="5.91015">
        <ele>1147</ele>
        <time>2021-08-29T08:55:59Z</time>
      </trkpt>
      <trkpt lat="45.44035" lon="5.91064">
        <ele>1150</ele>
        <time>2021-08-29T08:56:45Z</time>
      </trkpt>
      <trkpt lat="45.44013" lon="5.91122">
        <ele>1146</ele>
        <time>2021-08-29T08:57:18Z</time>
      </trkpt>
      <trkpt lat="45.43994" lon="5.91172">
        <ele>1148</ele>
        <time>2021-08-29T08:57:45Z</time>
      </trkpt>
      <trkpt lat="45.43999" lon="5.91239">
        <ele>1159</ele>
        <time>2021-08-29T08:58:57Z</time>
      </trkpt>
      <trkpt lat="45.44021" lon="5.91269">
        <ele>1168</ele>
        <time>2021-08-29T08:59:45Z</time>
      </trkpt>
      <trkpt lat="45.44052" lon="5.91271">
        <ele>1168</ele>
        <time>2021-08-29T09:00:04Z</time>
      </trkpt>
      <trkpt lat="45.44069" lon="5.91309">
        <ele>1180</ele>
        <time>2021-08-29T09:00:56Z</time>
      </trkpt>
      <trkpt lat="45.441" lon="5.91334">
        <ele>1186</ele>
        <time>2021-08-29T09:01:40Z</time>
      </trkpt>
      <trkpt lat="45.44141" lon="5.91343">
        <ele>1193</ele>
        <time>2021-08-29T09:02:29Z</time>
      </trkpt>
      <trkpt lat="45.44182" lon="5.91312">
        <ele>1201</ele>
        <time>2021-08-29T09:03:21Z</time>
      </trkpt>
      <trkpt lat="45.44212" lon="5.91284">
        <ele>1203</ele>
        <time>2021-08-29T09:03:56Z</time>
      </trkpt>
      <trkpt lat="45.44262" lon="5.91284">
        <ele>1209</ele>
        <time>2021-08-29T09:04:51Z</time>
      </trkpt>
      <trkpt lat="45.44308" lon="5.91283">
        <ele>1213</ele>
        <time>2021-08-29T09:05:30Z</time>
      </trkpt>
      <trkpt lat="45.44359" lon="5.9132">
        <ele>1219</ele>
        <time>2021-08-29T09:06:31Z</time>
      </trkpt>
      <trkpt lat="45.44387" lon="5.9132">
        <ele>1223</ele>
        <time>2021-08-29T09:06:53Z</time>
      </trkpt>
      <trkpt lat="45.44365" lon="5.9137">
        <ele>1240</ele>
        <time>2021-08-29T09:08:33Z</time>
      </trkpt>
      <trkpt lat="45.44357" lon="5.91413">
        <ele>1251</ele>
        <time>2021-08-29T09:09:35Z</time>
      </trkpt>
      <trkpt lat="45.44363" lon="5.91454">
        <ele>1263</ele>
        <time>2021-08-29T09:10:41Z</time>
      </trkpt>
      <trkpt lat="45.44356" lon="5.91502">
        <ele>1271</ele>
        <time>2021-08-29T09:11:24Z</time>
      </trkpt>
      <trkpt lat="45.44336" lon="5.91533">
        <ele>1281</ele>
        <time>2021-08-29T09:12:20Z</time>
      </trkpt>
      <trkpt lat="45.44301" lon="5.91552">
        <ele>1289</ele>
        <time>2021-08-29T09:13:09Z</time>
      </trkpt>
      <trkpt lat="45.44291" lon="5.9159">
        <ele>1301</ele>
        <time>2021-08-29T09:14:21Z</time>
      </trkpt>
      <trkpt lat="45.44268" lon="5.91619">
        <ele>1311</ele>
        <time>2021-08-29T09:15:16Z</time>
      </trkpt>
      <trkpt lat="45.44267" lon="5.91669">
        <ele>1320</ele>
        <time>2021-08-29T09:16:15Z</time>
      </trkpt>
      <trkpt lat="45.44285" lon="5.91654">
        <ele>1333</ele>
        <time>2021-08-29T09:17:54Z</time>
      </trkpt>
      <trkpt lat="45.44314" lon="5.91658">
        <ele>1369</ele>
        <time>2021-08-29T09:21:30Z</time>
      </trkpt>
      <trkpt lat="45.44311" lon="5.91705">
        <ele>1383</ele>
        <time>2021-08-29T09:22:53Z</time>
      </trkpt>
      <trkpt lat="45.44303" lon="5.91741">
        <ele>1392</ele>
        <time>2021-08-29T09:23:54Z</time>
      </trkpt>
      <trkpt lat="45.44343" lon="5.91767">
        <ele>1406</ele>
        <time>2021-08-29T09:25:08Z</time>
      </trkpt>
      <trkpt lat="45.44363" lon="5.91796">
        <ele>1418</ele>
        <time>2021-08-29T09:26:25Z</time>
      </trkpt>
      <trkpt lat="45.44353" lon="5.91837">
        <ele>1426</ele>
        <time>2021-08-29T09:27:10Z</time>
      </trkpt>
      <trkpt lat="45.44329" lon="5.91864">
        <ele>1433</ele>
        <time>2021-08-29T09:28:28Z</time>
      </trkpt>
      <trkpt lat="45.44312" lon="5.91914">
        <ele>1448</ele>
        <time>2021-08-29T09:29:41Z</time>
      </trkpt>
      <trkpt lat="45.44282" lon="5.91947">
        <ele>1452</ele>
        <time>2021-08-29T09:30:10Z</time>
      </trkpt>
      <trkpt lat="45.4426" lon="5.91977">
        <ele>1456</ele>
        <time>2021-08-29T09:30:25Z</time>
      </trkpt>
      <trkpt lat="45.44251" lon="5.92016">
        <ele>1458</ele>
        <time>2021-08-29T09:30:38Z</time>
      </trkpt>
      <trkpt lat="45.44267" lon="5.9203">
        <ele>1467</ele>
        <time>2021-08-29T09:31:38Z</time>
      </trkpt>
      <trkpt lat="45.44311" lon="5.91941">
        <ele>1478</ele>
        <time>2021-08-29T09:33:01Z</time>
      </trkpt>
      <trkpt lat="45.44331" lon="5.91907">
        <ele>1484</ele>
        <time>2021-08-29T09:33:04Z</time>
      </trkpt>
      <trkpt lat="45.44355" lon="5.91871">
        <ele>1481</ele>
        <time>2021-08-29T09:33:07Z</time>
      </trkpt>
      <trkpt lat="45.44361" lon="5.91834">
        <ele>1482</ele>
        <time>2021-08-29T09:33:11Z</time>
      </trkpt>
      <trkpt lat="45.44305" lon="5.91862">
        <ele>1486</ele>
        <time>2021-08-29T09:33:42Z</time>
      </trkpt>
      <trkpt lat="45.44265" lon="5.91849">
        <ele>1495</ele>
        <time>2021-08-29T09:34:36Z</time>
      </trkpt>
      <trkpt lat="45.44243" lon="5.91866">
        <ele>1511</ele>
        <time>2021-08-29T09:36:06Z</time>
      </trkpt>
      <trkpt lat="45.44198" lon="5.91864">
        <ele>1517</ele>
        <time>2021-08-29T09:37:12Z</time>
      </trkpt>
      <trkpt lat="45.44184" lon="5.91873">
        <ele>1522</ele>
        <time>2021-08-29T09:37:38Z</time>
      </trkpt>
      <trkpt lat="45.44176" lon="5.91892">
        <ele>1523</ele>
        <time>2021-08-29T09:37:56Z</time>
      </trkpt>
      <trkpt lat="45.44176" lon="5.91902">
        <ele>1524</ele>
        <time>2021-08-29T09:38:02Z</time>
      </trkpt>
      <trkpt lat="45.44175" lon="5.91918">
        <ele>1524</ele>
        <time>2021-08-29T09:38:11Z</time>
      </trkpt>
      <trkpt lat="45.44177" lon="5.91927">
        <ele>1524</ele>
        <time>2021-08-29T09:38:16Z</time>
      </trkpt>
      <trkpt lat="45.44178" lon="5.91935">
        <ele>1523</ele>
        <time>2021-08-29T09:38:20Z</time>
      </trkpt>
      <trkpt lat="45.4418" lon="5.91943">
        <ele>1524</ele>
        <time>2021-08-29T09:38:27Z</time>
      </trkpt>
      <trkpt lat="45.44181" lon="5.91951">
        <ele>1524</ele>
        <time>2021-08-29T09:38:32Z</time>
      </trkpt>
      <trkpt lat="45.4418" lon="5.91961">
        <ele>1525</ele>
        <time>2021-08-29T09:38:37Z</time>
      </trkpt>
      <trkpt lat="45.44179" lon="5.91968">
        <ele>1526</ele>
        <time>2021-08-29T09:38:41Z</time>
      </trkpt>
      <trkpt lat="45.44178" lon="5.91976">
        <ele>1526</ele>
        <time>2021-08-29T09:38:46Z</time>
      </trkpt>
      <trkpt lat="45.44178" lon="5.91984">
        <ele>1526</ele>
        <time>2021-08-29T09:38:51Z</time>
      </trkpt>
      <trkpt lat="45.44177" lon="5.91993">
        <ele>1525</ele>
        <time>2021-08-29T09:38:56Z</time>
      </trkpt>
      <trkpt lat="45.44176" lon="5.92001">
        <ele>1527</ele>
        <time>2021-08-29T09:39:00Z</time>
      </trkpt>
      <trkpt lat="45.44172" lon="5.92017">
        <ele>1527</ele>
        <time>2021-08-29T09:39:10Z</time>
      </trkpt>
      <trkpt lat="45.44171" lon="5.92042">
        <ele>1530</ele>
        <time>2021-08-29T09:39:26Z</time>
      </trkpt>
      <trkpt lat="45.44171" lon="5.92052">
        <ele>1530</ele>
        <time>2021-08-29T09:39:35Z</time>
      </trkpt>
      <trkpt lat="45.4417" lon="5.9206">
        <ele>1532</ele>
        <time>2021-08-29T09:39:41Z</time>
      </trkpt>
      <trkpt lat="45.4417" lon="5.92069">
        <ele>1533</ele>
        <time>2021-08-29T09:39:47Z</time>
      </trkpt>
      <trkpt lat="45.4417" lon="5.92078">
        <ele>1533</ele>
        <time>2021-08-29T09:39:52Z</time>
      </trkpt>
      <trkpt lat="45.44173" lon="5.92094">
        <ele>1534</ele>
        <time>2021-08-29T09:40:06Z</time>
      </trkpt>
      <trkpt lat="45.44182" lon="5.92135">
        <ele>1533</ele>
        <time>2021-08-29T09:40:33Z</time>
      </trkpt>
      <trkpt lat="45.44182" lon="5.92144">
        <ele>1533</ele>
        <time>2021-08-29T09:40:38Z</time>
      </trkpt>
      <trkpt lat="45.44184" lon="5.92152">
        <ele>1533</ele>
        <time>2021-08-29T09:40:43Z</time>
      </trkpt>
      <trkpt lat="45.44189" lon="5.92158">
        <ele>1534</ele>
        <time>2021-08-29T09:40:49Z</time>
      </trkpt>
      <trkpt lat="45.44192" lon="5.92166">
        <ele>1535</ele>
        <time>2021-08-29T09:40:55Z</time>
      </trkpt>
      <trkpt lat="45.44195" lon="5.92171">
        <ele>1535</ele>
        <time>2021-08-29T09:41:00Z</time>
      </trkpt>
      <trkpt lat="45.442" lon="5.9218">
        <ele>1535</ele>
        <time>2021-08-29T09:41:07Z</time>
      </trkpt>
      <trkpt lat="45.44203" lon="5.9219">
        <ele>1535</ele>
        <time>2021-08-29T09:41:15Z</time>
      </trkpt>
      <trkpt lat="45.44203" lon="5.92199">
        <ele>1535</ele>
        <time>2021-08-29T09:41:20Z</time>
      </trkpt>
      <trkpt lat="45.44204" lon="5.92206">
        <ele>1535</ele>
        <time>2021-08-29T09:41:25Z</time>
      </trkpt>
      <trkpt lat="45.44203" lon="5.92215">
        <ele>1535</ele>
        <time>2021-08-29T09:41:31Z</time>
      </trkpt>
      <trkpt lat="45.442" lon="5.92221">
        <ele>1535</ele>
        <time>2021-08-29T09:41:39Z</time>
      </trkpt>
      <trkpt lat="45.44198" lon="5.9223">
        <ele>1535</ele>
        <time>2021-08-29T09:41:50Z</time>
      </trkpt>
      <trkpt lat="45.44196" lon="5.92238">
        <ele>1535</ele>
        <time>2021-08-29T09:41:56Z</time>
      </trkpt>
      <trkpt lat="45.44195" lon="5.92247">
        <ele>1534</ele>
        <time>2021-08-29T09:42:03Z</time>
      </trkpt>
      <trkpt lat="45.44193" lon="5.92255">
        <ele>1534</ele>
        <time>2021-08-29T09:42:11Z</time>
      </trkpt>
      <trkpt lat="45.44189" lon="5.92261">
        <ele>1534</ele>
        <time>2021-08-29T09:42:16Z</time>
      </trkpt>
      <trkpt lat="45.44186" lon="5.92269">
        <ele>1535</ele>
        <time>2021-08-29T09:42:22Z</time>
      </trkpt>
      <trkpt lat="45.44185" lon="5.92276">
        <ele>1535</ele>
        <time>2021-08-29T09:42:28Z</time>
      </trkpt>
      <trkpt lat="45.4418" lon="5.92281">
        <ele>1534</ele>
        <time>2021-08-29T09:42:33Z</time>
      </trkpt>
      <trkpt lat="45.44177" lon="5.92288">
        <ele>1535</ele>
        <time>2021-08-29T09:42:39Z</time>
      </trkpt>
      <trkpt lat="45.44173" lon="5.92299">
        <ele>1535</ele>
        <time>2021-08-29T09:42:46Z</time>
      </trkpt>
      <trkpt lat="45.44172" lon="5.92309">
        <ele>1534</ele>
        <time>2021-08-29T09:42:52Z</time>
      </trkpt>
      <trkpt lat="45.44172" lon="5.92317">
        <ele>1533</ele>
        <time>2021-08-29T09:42:58Z</time>
      </trkpt>
      <trkpt lat="45.44168" lon="5.92324">
        <ele>1533</ele>
        <time>2021-08-29T09:43:02Z</time>
      </trkpt>
      <trkpt lat="45.44166" lon="5.92331">
        <ele>1533</ele>
        <time>2021-08-29T09:43:06Z</time>
      </trkpt>
      <trkpt lat="45.44166" lon="5.92339">
        <ele>1532</ele>
        <time>2021-08-29T09:43:10Z</time>
      </trkpt>
      <trkpt lat="45.44169" lon="5.92347">
        <ele>1532</ele>
        <time>2021-08-29T09:43:15Z</time>
      </trkpt>
      <trkpt lat="45.4417" lon="5.92358">
        <ele>1531</ele>
        <time>2021-08-29T09:43:22Z</time>
      </trkpt>
      <trkpt lat="45.44171" lon="5.92375">
        <ele>1530</ele>
        <time>2021-08-29T09:43:30Z</time>
      </trkpt>
      <trkpt lat="45.44171" lon="5.92383">
        <ele>1530</ele>
        <time>2021-08-29T09:43:34Z</time>
      </trkpt>
      <trkpt lat="45.44172" lon="5.92391">
        <ele>1529</ele>
        <time>2021-08-29T09:43:38Z</time>
      </trkpt>
      <trkpt lat="45.44175" lon="5.92398">
        <ele>1529</ele>
        <time>2021-08-29T09:43:42Z</time>
      </trkpt>
      <trkpt lat="45.44178" lon="5.92405">
        <ele>1529</ele>
        <time>2021-08-29T09:43:46Z</time>
      </trkpt>
      <trkpt lat="45.44183" lon="5.92408">
        <ele>1529</ele>
        <time>2021-08-29T09:43:51Z</time>
      </trkpt>
      <trkpt lat="45.44191" lon="5.92417">
        <ele>1531</ele>
        <time>2021-08-29T09:44:03Z</time>
      </trkpt>
      <trkpt lat="45.44193" lon="5.92426">
        <ele>1533</ele>
        <time>2021-08-29T09:44:15Z</time>
      </trkpt>
      <trkpt lat="45.44199" lon="5.92432">
        <ele>1536</ele>
        <time>2021-08-29T09:44:27Z</time>
      </trkpt>
      <trkpt lat="45.44202" lon="5.92443">
        <ele>1537</ele>
        <time>2021-08-29T09:44:39Z</time>
      </trkpt>
      <trkpt lat="45.44209" lon="5.9243">
        <ele>1535</ele>
        <time>2021-08-29T09:44:57Z</time>
      </trkpt>
      <trkpt lat="45.44214" lon="5.92424">
        <ele>1535</ele>
        <time>2021-08-29T09:45:06Z</time>
      </trkpt>
      <trkpt lat="45.4422" lon="5.9242">
        <ele>1535</ele>
        <time>2021-08-29T09:45:13Z</time>
      </trkpt>
      <trkpt lat="45.44225" lon="5.92415">
        <ele>1534</ele>
        <time>2021-08-29T09:45:17Z</time>
      </trkpt>
      <trkpt lat="45.44229" lon="5.9241">
        <ele>1535</ele>
        <time>2021-08-29T09:45:23Z</time>
      </trkpt>
      <trkpt lat="45.44238" lon="5.92398">
        <ele>1534</ele>
        <time>2021-08-29T09:45:32Z</time>
      </trkpt>
      <trkpt lat="45.44251" lon="5.92386">
        <ele>1533</ele>
        <time>2021-08-29T09:45:45Z</time>
      </trkpt>
      <trkpt lat="45.44256" lon="5.92386">
        <ele>1534</ele>
        <time>2021-08-29T09:45:50Z</time>
      </trkpt>
      <trkpt lat="45.44262" lon="5.92388">
        <ele>1535</ele>
        <time>2021-08-29T09:46:02Z</time>
      </trkpt>
      <trkpt lat="45.44268" lon="5.92367">
        <ele>1540</ele>
        <time>2021-08-29T09:46:34Z</time>
      </trkpt>
      <trkpt lat="45.44275" lon="5.92368">
        <ele>1543</ele>
        <time>2021-08-29T09:46:52Z</time>
      </trkpt>
      <trkpt lat="45.44283" lon="5.92376">
        <ele>1545</ele>
        <time>2021-08-29T09:47:05Z</time>
      </trkpt>
      <trkpt lat="45.4429" lon="5.92381">
        <ele>1547</ele>
        <time>2021-08-29T09:47:17Z</time>
      </trkpt>
      <trkpt lat="45.44297" lon="5.92384">
        <ele>1549</ele>
        <time>2021-08-29T09:47:35Z</time>
      </trkpt>
      <trkpt lat="45.44294" lon="5.92359">
        <ele>1553</ele>
        <time>2021-08-29T09:47:55Z</time>
      </trkpt>
      <trkpt lat="45.44287" lon="5.9237">
        <ele>1556</ele>
        <time>2021-08-29T09:48:37Z</time>
      </trkpt>
      <trkpt lat="45.44289" lon="5.92362">
        <ele>1555</ele>
        <time>2021-08-29T09:49:33Z</time>
      </trkpt>
      <trkpt lat="45.44297" lon="5.92356">
        <ele>1556</ele>
        <time>2021-08-29T09:58:03Z</time>
      </trkpt>
      <trkpt lat="45.44291" lon="5.92353">
        <ele>1558</ele>
        <time>2021-08-29T09:58:10Z</time>
      </trkpt>
      <trkpt lat="45.44283" lon="5.92346">
        <ele>1556</ele>
        <time>2021-08-29T09:58:25Z</time>
      </trkpt>
      <trkpt lat="45.44262" lon="5.92331">
        <ele>1549</ele>
        <time>2021-08-29T09:58:53Z</time>
      </trkpt>
      <trkpt lat="45.44253" lon="5.92319">
        <ele>1546</ele>
        <time>2021-08-29T09:59:03Z</time>
      </trkpt>
      <trkpt lat="45.4425" lon="5.92312">
        <ele>1546</ele>
        <time>2021-08-29T09:59:09Z</time>
      </trkpt>
      <trkpt lat="45.44245" lon="5.92307">
        <ele>1544</ele>
        <time>2021-08-29T09:59:18Z</time>
      </trkpt>
      <trkpt lat="45.44241" lon="5.92301">
        <ele>1543</ele>
        <time>2021-08-29T09:59:24Z</time>
      </trkpt>
      <trkpt lat="45.44237" lon="5.92291">
        <ele>1541</ele>
        <time>2021-08-29T09:59:33Z</time>
      </trkpt>
      <trkpt lat="45.44235" lon="5.92269">
        <ele>1539</ele>
        <time>2021-08-29T09:59:48Z</time>
      </trkpt>
      <trkpt lat="45.44232" lon="5.92235">
        <ele>1539</ele>
        <time>2021-08-29T10:00:18Z</time>
      </trkpt>
      <trkpt lat="45.44231" lon="5.92213">
        <ele>1540</ele>
        <time>2021-08-29T10:00:31Z</time>
      </trkpt>
      <trkpt lat="45.44225" lon="5.92193">
        <ele>1539</ele>
        <time>2021-08-29T10:00:44Z</time>
      </trkpt>
      <trkpt lat="45.44212" lon="5.92185">
        <ele>1542</ele>
        <time>2021-08-29T10:01:04Z</time>
      </trkpt>
      <trkpt lat="45.44205" lon="5.92166">
        <ele>1541</ele>
        <time>2021-08-29T10:01:20Z</time>
      </trkpt>
      <trkpt lat="45.4419" lon="5.92155">
        <ele>1542</ele>
        <time>2021-08-29T10:01:37Z</time>
      </trkpt>
      <trkpt lat="45.44183" lon="5.92137">
        <ele>1540</ele>
        <time>2021-08-29T10:01:50Z</time>
      </trkpt>
      <trkpt lat="45.44178" lon="5.92124">
        <ele>1539</ele>
        <time>2021-08-29T10:03:04Z</time>
      </trkpt>
      <trkpt lat="45.44178" lon="5.92118">
        <ele>1539</ele>
        <time>2021-08-29T10:05:55Z</time>
      </trkpt>
      <trkpt lat="45.44177" lon="5.92111">
        <ele>1542</ele>
        <time>2021-08-29T10:05:58Z</time>
      </trkpt>
      <trkpt lat="45.44176" lon="5.92104">
        <ele>1542</ele>
        <time>2021-08-29T10:06:03Z</time>
      </trkpt>
      <trkpt lat="45.44176" lon="5.92095">
        <ele>1543</ele>
        <time>2021-08-29T10:06:07Z</time>
      </trkpt>
      <trkpt lat="45.44174" lon="5.92087">
        <ele>1540</ele>
        <time>2021-08-29T10:06:11Z</time>
      </trkpt>
      <trkpt lat="45.44173" lon="5.9208">
        <ele>1541</ele>
        <time>2021-08-29T10:06:17Z</time>
      </trkpt>
      <trkpt lat="45.44173" lon="5.92069">
        <ele>1543</ele>
        <time>2021-08-29T10:06:23Z</time>
      </trkpt>
      <trkpt lat="45.44174" lon="5.92061">
        <ele>1540</ele>
        <time>2021-08-29T10:06:28Z</time>
      </trkpt>
      <trkpt lat="45.44176" lon="5.92054">
        <ele>1540</ele>
        <time>2021-08-29T10:06:31Z</time>
      </trkpt>
      <trkpt lat="45.44179" lon="5.92042">
        <ele>1540</ele>
        <time>2021-08-29T10:06:38Z</time>
      </trkpt>
      <trkpt lat="45.44178" lon="5.92033">
        <ele>1540</ele>
        <time>2021-08-29T10:06:43Z</time>
      </trkpt>
      <trkpt lat="45.44178" lon="5.92026">
        <ele>1538</ele>
        <time>2021-08-29T10:06:57Z</time>
      </trkpt>
      <trkpt lat="45.44174" lon="5.92016">
        <ele>1538</ele>
        <time>2021-08-29T10:07:09Z</time>
      </trkpt>
      <trkpt lat="45.44174" lon="5.92008">
        <ele>1537</ele>
        <time>2021-08-29T10:07:11Z</time>
      </trkpt>
      <trkpt lat="45.44175" lon="5.91999">
        <ele>1536</ele>
        <time>2021-08-29T10:07:13Z</time>
      </trkpt>
      <trkpt lat="45.44175" lon="5.91982">
        <ele>1538</ele>
        <time>2021-08-29T10:07:19Z</time>
      </trkpt>
      <trkpt lat="45.44177" lon="5.91973">
        <ele>1538</ele>
        <time>2021-08-29T10:07:23Z</time>
      </trkpt>
      <trkpt lat="45.44178" lon="5.91968">
        <ele>1535</ele>
        <time>2021-08-29T10:07:26Z</time>
      </trkpt>
      <trkpt lat="45.44177" lon="5.91962">
        <ele>1535</ele>
        <time>2021-08-29T10:07:30Z</time>
      </trkpt>
      <trkpt lat="45.44178" lon="5.91956">
        <ele>1535</ele>
        <time>2021-08-29T10:07:33Z</time>
      </trkpt>
      <trkpt lat="45.44178" lon="5.91937">
        <ele>1535</ele>
        <time>2021-08-29T10:07:42Z</time>
      </trkpt>
      <trkpt lat="45.44177" lon="5.91932">
        <ele>1534</ele>
        <time>2021-08-29T10:07:45Z</time>
      </trkpt>
      <trkpt lat="45.44177" lon="5.91926">
        <ele>1534</ele>
        <time>2021-08-29T10:07:47Z</time>
      </trkpt>
      <trkpt lat="45.44176" lon="5.9192">
        <ele>1535</ele>
        <time>2021-08-29T10:07:50Z</time>
      </trkpt>
      <trkpt lat="45.44179" lon="5.91894">
        <ele>1535</ele>
        <time>2021-08-29T10:08:02Z</time>
      </trkpt>
      <trkpt lat="45.4418" lon="5.91883">
        <ele>1535</ele>
        <time>2021-08-29T10:08:12Z</time>
      </trkpt>
      <trkpt lat="45.4418" lon="5.91875">
        <ele>1535</ele>
        <time>2021-08-29T10:08:20Z</time>
      </trkpt>
      <trkpt lat="45.44186" lon="5.91869">
        <ele>1534</ele>
        <time>2021-08-29T10:08:32Z</time>
      </trkpt>
      <trkpt lat="45.44194" lon="5.91865">
        <ele>1532</ele>
        <time>2021-08-29T10:08:44Z</time>
      </trkpt>
      <trkpt lat="45.442" lon="5.91857">
        <ele>1528</ele>
        <time>2021-08-29T10:09:02Z</time>
      </trkpt>
      <trkpt lat="45.44202" lon="5.91848">
        <ele>1526</ele>
        <time>2021-08-29T10:09:14Z</time>
      </trkpt>
      <trkpt lat="45.44207" lon="5.91841">
        <ele>1523</ele>
        <time>2021-08-29T10:09:26Z</time>
      </trkpt>
      <trkpt lat="45.44228" lon="5.91838">
        <ele>1516</ele>
        <time>2021-08-29T10:09:52Z</time>
      </trkpt>
      <trkpt lat="45.44233" lon="5.91841">
        <ele>1514</ele>
        <time>2021-08-29T10:09:57Z</time>
      </trkpt>
      <trkpt lat="45.44236" lon="5.91834">
        <ele>1511</ele>
        <time>2021-08-29T10:10:17Z</time>
      </trkpt>
      <trkpt lat="45.44236" lon="5.91834">
        <ele>1511</ele>
        <time>2021-08-29T10:10:18Z</time>
      </trkpt>
      <trkpt lat="45.44236" lon="5.91832">
        <ele>1508</ele>
        <time>2021-08-29T10:10:31Z</time>
      </trkpt>
      <trkpt lat="45.44236" lon="5.91832">
        <ele>1508</ele>
        <time>2021-08-29T10:10:32Z</time>
      </trkpt>
      <trkpt lat="45.44226" lon="5.91813">
        <ele>1507</ele>
        <time>2021-08-29T10:11:41Z</time>
      </trkpt>
      <trkpt lat="45.44224" lon="5.91806">
        <ele>1505</ele>
        <time>2021-08-29T10:11:50Z</time>
      </trkpt>
      <trkpt lat="45.44232" lon="5.91801">
        <ele>1497</ele>
        <time>2021-08-29T10:12:22Z</time>
      </trkpt>
      <trkpt lat="45.44238" lon="5.91801">
        <ele>1479</ele>
        <time>2021-08-29T10:13:10Z</time>
      </trkpt>
      <trkpt lat="45.44289" lon="5.91819">
        <ele>1452</ele>
        <time>2021-08-29T10:14:24Z</time>
      </trkpt>
      <trkpt lat="45.44322" lon="5.91779">
        <ele>1435</ele>
        <time>2021-08-29T10:15:12Z</time>
      </trkpt>
      <trkpt lat="45.4432" lon="5.91419">
        <ele>1271</ele>
        <time>2021-08-29T10:24:34Z</time>
      </trkpt>
      <trkpt lat="45.44336" lon="5.91423">
        <ele>1268</ele>
        <time>2021-08-29T10:25:12Z</time>
      </trkpt>
      <trkpt lat="45.44328" lon="5.91409">
        <ele>1264</ele>
        <time>2021-08-29T10:25:30Z</time>
      </trkpt>
      <trkpt lat="45.44329" lon="5.91417">
        <ele>1260</ele>
        <time>2021-08-29T10:25:51Z</time>
      </trkpt>
      <trkpt lat="45.44329" lon="5.91418">
        <ele>1260</ele>
        <time>2021-08-29T10:25:52Z</time>
      </trkpt>
      <trkpt lat="45.4434" lon="5.91382">
        <ele>1243</ele>
        <time>2021-08-29T10:26:49Z</time>
      </trkpt>
      <trkpt lat="45.44352" lon="5.91363">
        <ele>1240</ele>
        <time>2021-08-29T10:27:01Z</time>
      </trkpt>
      <trkpt lat="45.44372" lon="5.91331">
        <ele>1232</ele>
        <time>2021-08-29T10:27:17Z</time>
      </trkpt>
      <trkpt lat="45.4438" lon="5.91313">
        <ele>1231</ele>
        <time>2021-08-29T10:27:24Z</time>
      </trkpt>
      <trkpt lat="45.44387" lon="5.91296">
        <ele>1226</ele>
        <time>2021-08-29T10:27:35Z</time>
      </trkpt>
      <trkpt lat="45.44381" lon="5.91275">
        <ele>1222</ele>
        <time>2021-08-29T10:28:07Z</time>
      </trkpt>
      <trkpt lat="45.4438" lon="5.91274">
        <ele>1222</ele>
        <time>2021-08-29T10:28:08Z</time>
      </trkpt>
      <trkpt lat="45.44349" lon="5.91262">
        <ele>1215</ele>
        <time>2021-08-29T10:28:38Z</time>
      </trkpt>
      <trkpt lat="45.44319" lon="5.91274">
        <ele>1214</ele>
        <time>2021-08-29T10:29:07Z</time>
      </trkpt>
      <trkpt lat="45.44291" lon="5.91261">
        <ele>1213</ele>
        <time>2021-08-29T10:29:29Z</time>
      </trkpt>
      <trkpt lat="45.44277" lon="5.91268">
        <ele>1214</ele>
        <time>2021-08-29T10:29:39Z</time>
      </trkpt>
      <trkpt lat="45.4425" lon="5.91273">
        <ele>1210</ele>
        <time>2021-08-29T10:30:00Z</time>
      </trkpt>
      <trkpt lat="45.44233" lon="5.91271">
        <ele>1206</ele>
        <time>2021-08-29T10:30:11Z</time>
      </trkpt>
      <trkpt lat="45.4422" lon="5.9128">
        <ele>1207</ele>
        <time>2021-08-29T10:30:20Z</time>
      </trkpt>
      <trkpt lat="45.44195" lon="5.91308">
        <ele>1202</ele>
        <time>2021-08-29T10:30:44Z</time>
      </trkpt>
      <trkpt lat="45.4417" lon="5.91327">
        <ele>1201</ele>
        <time>2021-08-29T10:31:06Z</time>
      </trkpt>
      <trkpt lat="45.44157" lon="5.91336">
        <ele>1197</ele>
        <time>2021-08-29T10:31:17Z</time>
      </trkpt>
      <trkpt lat="45.44142" lon="5.91338">
        <ele>1194</ele>
        <time>2021-08-29T10:31:30Z</time>
      </trkpt>
      <trkpt lat="45.44113" lon="5.91326">
        <ele>1189</ele>
        <time>2021-08-29T10:31:48Z</time>
      </trkpt>
      <trkpt lat="45.44101" lon="5.91335">
        <ele>1188</ele>
        <time>2021-08-29T10:31:59Z</time>
      </trkpt>
      <trkpt lat="45.44087" lon="5.9133">
        <ele>1188</ele>
        <time>2021-08-29T10:32:10Z</time>
      </trkpt>
      <trkpt lat="45.44082" lon="5.91301">
        <ele>1180</ele>
        <time>2021-08-29T10:32:39Z</time>
      </trkpt>
      <trkpt lat="45.44075" lon="5.91281">
        <ele>1177</ele>
        <time>2021-08-29T10:32:49Z</time>
      </trkpt>
      <trkpt lat="45.44064" lon="5.9127">
        <ele>1174</ele>
        <time>2021-08-29T10:32:58Z</time>
      </trkpt>
      <trkpt lat="45.44033" lon="5.91267">
        <ele>1170</ele>
        <time>2021-08-29T10:33:18Z</time>
      </trkpt>
      <trkpt lat="45.44028" lon="5.91267">
        <ele>1170</ele>
        <time>2021-08-29T10:33:23Z</time>
      </trkpt>
      <trkpt lat="45.44024" lon="5.91261">
        <ele>1169</ele>
        <time>2021-08-29T10:33:29Z</time>
      </trkpt>
      <trkpt lat="45.44019" lon="5.91257">
        <ele>1169</ele>
        <time>2021-08-29T10:33:32Z</time>
      </trkpt>
      <trkpt lat="45.44016" lon="5.9125">
        <ele>1167</ele>
        <time>2021-08-29T10:33:37Z</time>
      </trkpt>
      <trkpt lat="45.44013" lon="5.91242">
        <ele>1166</ele>
        <time>2021-08-29T10:33:41Z</time>
      </trkpt>
      <trkpt lat="45.44009" lon="5.91238">
        <ele>1165</ele>
        <time>2021-08-29T10:33:46Z</time>
      </trkpt>
      <trkpt lat="45.43998" lon="5.91228">
        <ele>1162</ele>
        <time>2021-08-29T10:33:54Z</time>
      </trkpt>
      <trkpt lat="45.43992" lon="5.9122">
        <ele>1160</ele>
        <time>2021-08-29T10:34:01Z</time>
      </trkpt>
      <trkpt lat="45.43988" lon="5.91211">
        <ele>1159</ele>
        <time>2021-08-29T10:34:06Z</time>
      </trkpt>
      <trkpt lat="45.43987" lon="5.91203">
        <ele>1159</ele>
        <time>2021-08-29T10:34:10Z</time>
      </trkpt>
      <trkpt lat="45.43987" lon="5.91195">
        <ele>1158</ele>
        <time>2021-08-29T10:34:14Z</time>
      </trkpt>
      <trkpt lat="45.4399" lon="5.91186">
        <ele>1158</ele>
        <time>2021-08-29T10:34:18Z</time>
      </trkpt>
      <trkpt lat="45.43985" lon="5.91168">
        <ele>1155</ele>
        <time>2021-08-29T10:34:30Z</time>
      </trkpt>
      <trkpt lat="45.43981" lon="5.91161">
        <ele>1154</ele>
        <time>2021-08-29T10:34:37Z</time>
      </trkpt>
      <trkpt lat="45.43991" lon="5.91151">
        <ele>1152</ele>
        <time>2021-08-29T10:34:49Z</time>
      </trkpt>
      <trkpt lat="45.43998" lon="5.91151">
        <ele>1153</ele>
        <time>2021-08-29T10:34:55Z</time>
      </trkpt>
      <trkpt lat="45.44007" lon="5.91156">
        <ele>1153</ele>
        <time>2021-08-29T10:35:02Z</time>
      </trkpt>
      <trkpt lat="45.44014" lon="5.91154">
        <ele>1154</ele>
        <time>2021-08-29T10:35:07Z</time>
      </trkpt>
      <trkpt lat="45.44022" lon="5.91154">
        <ele>1149</ele>
        <time>2021-08-29T10:35:12Z</time>
      </trkpt>
      <trkpt lat="45.4403" lon="5.91161">
        <ele>1152</ele>
        <time>2021-08-29T10:35:17Z</time>
      </trkpt>
      <trkpt lat="45.44039" lon="5.91138">
        <ele>1149</ele>
        <time>2021-08-29T10:35:48Z</time>
      </trkpt>
      <trkpt lat="45.44039" lon="5.91118">
        <ele>1150</ele>
        <time>2021-08-29T10:36:01Z</time>
      </trkpt>
      <trkpt lat="45.44042" lon="5.91097">
        <ele>1152</ele>
        <time>2021-08-29T10:36:12Z</time>
      </trkpt>
      <trkpt lat="45.44045" lon="5.91088">
        <ele>1153</ele>
        <time>2021-08-29T10:36:18Z</time>
      </trkpt>
      <trkpt lat="45.44048" lon="5.91082">
        <ele>1152</ele>
        <time>2021-08-29T10:36:24Z</time>
      </trkpt>
      <trkpt lat="45.44046" lon="5.91073">
        <ele>1151</ele>
        <time>2021-08-29T10:36:28Z</time>
      </trkpt>
      <trkpt lat="45.44041" lon="5.91066">
        <ele>1150</ele>
        <time>2021-08-29T10:36:37Z</time>
      </trkpt>
      <trkpt lat="45.44026" lon="5.91036">
        <ele>1150</ele>
        <time>2021-08-29T10:36:57Z</time>
      </trkpt>
      <trkpt lat="45.44026" lon="5.91002">
        <ele>1150</ele>
        <time>2021-08-29T10:37:13Z</time>
      </trkpt>
      <trkpt lat="45.44027" lon="5.90994">
        <ele>1150</ele>
        <time>2021-08-29T10:37:18Z</time>
      </trkpt>
      <trkpt lat="45.44026" lon="5.90959">
        <ele>1147</ele>
        <time>2021-08-29T10:37:41Z</time>
      </trkpt>
      <trkpt lat="45.44023" lon="5.9095">
        <ele>1146</ele>
        <time>2021-08-29T10:37:44Z</time>
      </trkpt>
      <trkpt lat="45.44022" lon="5.90941">
        <ele>1146</ele>
        <time>2021-08-29T10:37:48Z</time>
      </trkpt>
      <trkpt lat="45.44031" lon="5.9094">
        <ele>1144</ele>
        <time>2021-08-29T10:37:57Z</time>
      </trkpt>
      <trkpt lat="45.44045" lon="5.90942">
        <ele>1143</ele>
        <time>2021-08-29T10:38:06Z</time>
      </trkpt>
      <trkpt lat="45.44058" lon="5.90941">
        <ele>1142</ele>
        <time>2021-08-29T10:38:15Z</time>
      </trkpt>
      <trkpt lat="45.44062" lon="5.90936">
        <ele>1141</ele>
        <time>2021-08-29T10:38:19Z</time>
      </trkpt>
      <trkpt lat="45.4407" lon="5.90919">
        <ele>1140</ele>
        <time>2021-08-29T10:38:32Z</time>
      </trkpt>
      <trkpt lat="45.44075" lon="5.90894">
        <ele>1137</ele>
        <time>2021-08-29T10:38:43Z</time>
      </trkpt>
      <trkpt lat="45.44078" lon="5.90888">
        <ele>1137</ele>
        <time>2021-08-29T10:38:48Z</time>
      </trkpt>
      <trkpt lat="45.44083" lon="5.90878">
        <ele>1136</ele>
        <time>2021-08-29T10:38:56Z</time>
      </trkpt>
      <trkpt lat="45.44096" lon="5.90863">
        <ele>1133</ele>
        <time>2021-08-29T10:39:15Z</time>
      </trkpt>
      <trkpt lat="45.44093" lon="5.90845">
        <ele>1132</ele>
        <time>2021-08-29T10:39:26Z</time>
      </trkpt>
      <trkpt lat="45.4407" lon="5.9081">
        <ele>1129</ele>
        <time>2021-08-29T10:39:49Z</time>
      </trkpt>
      <trkpt lat="45.44056" lon="5.90797">
        <ele>1128</ele>
        <time>2021-08-29T10:40:00Z</time>
      </trkpt>
      <trkpt lat="45.44052" lon="5.90789">
        <ele>1127</ele>
        <time>2021-08-29T10:40:04Z</time>
      </trkpt>
      <trkpt lat="45.44048" lon="5.90766">
        <ele>1126</ele>
        <time>2021-08-29T10:40:15Z</time>
      </trkpt>
      <trkpt lat="45.44052" lon="5.90739">
        <ele>1124</ele>
        <time>2021-08-29T10:40:24Z</time>
      </trkpt>
      <trkpt lat="45.44059" lon="5.90737">
        <ele>1123</ele>
        <time>2021-08-29T10:40:28Z</time>
      </trkpt>
      <trkpt lat="45.44069" lon="5.90722">
        <ele>1121</ele>
        <time>2021-08-29T10:40:39Z</time>
      </trkpt>
      <trkpt lat="45.44084" lon="5.90684">
        <ele>1118</ele>
        <time>2021-08-29T10:40:59Z</time>
      </trkpt>
      <trkpt lat="45.44087" lon="5.90674">
        <ele>1118</ele>
        <time>2021-08-29T10:41:03Z</time>
      </trkpt>
      <trkpt lat="45.44089" lon="5.90654">
        <ele>1116</ele>
        <time>2021-08-29T10:41:16Z</time>
      </trkpt>
      <trkpt lat="45.44091" lon="5.90643">
        <ele>1116</ele>
        <time>2021-08-29T10:41:23Z</time>
      </trkpt>
      <trkpt lat="45.44098" lon="5.9063">
        <ele>1114</ele>
        <time>2021-08-29T10:41:38Z</time>
      </trkpt>
      <trkpt lat="45.44103" lon="5.9062">
        <ele>1113</ele>
        <time>2021-08-29T10:41:43Z</time>
      </trkpt>
      <trkpt lat="45.44106" lon="5.9061">
        <ele>1112</ele>
        <time>2021-08-29T10:41:48Z</time>
      </trkpt>
      <trkpt lat="45.44112" lon="5.90601">
        <ele>1111</ele>
        <time>2021-08-29T10:41:56Z</time>
      </trkpt>
      <trkpt lat="45.44118" lon="5.90598">
        <ele>1110</ele>
        <time>2021-08-29T10:42:04Z</time>
      </trkpt>
    </trkseg>
  </trk>
  <trk>
    <name><![CDATA[2 août 2021 à 19:19:07]]></name>
    <cmt><![CDATA[2 août 2021 à 19:19:07]]></cmt>
    <trkseg>
      <trkpt lat="45.67837" lon="6.31342">
        <ele>972</ele>
        <time>2021-08-02T17:19:08Z</time>
      </trkpt>
      <trkpt lat="45.67823" lon="6.31361">
        <ele>961</ele>
        <time>2021-08-02T17:19:25Z</time>
      </trkpt>
      <trkpt lat="45.67815" lon="6.3138">
        <ele>963</ele>
        <time>2021-08-02T17:19:40Z</time>
      </trkpt>
      <trkpt lat="45.67814" lon="6.31397">
        <ele>968</ele>
        <time>2021-08-02T17:19:47Z</time>
      </trkpt>
      <trkpt lat="45.67819" lon="6.31428">
        <ele>969</ele>
        <time>2021-08-02T17:20:08Z</time>
      </trkpt>
      <trkpt lat="45.67819" lon="6.31447">
        <ele>976</ele>
        <time>2021-08-02T17:20:31Z</time>
      </trkpt>
      <trkpt lat="45.67802" lon="6.31465">
        <ele>983</ele>
        <time>2021-08-02T17:21:09Z</time>
      </trkpt>
      <trkpt lat="45.67782" lon="6.31469">
        <ele>987</ele>
        <time>2021-08-02T17:21:30Z</time>
      </trkpt>
      <trkpt lat="45.67766" lon="6.31489">
        <ele>992</ele>
        <time>2021-08-02T17:21:57Z</time>
      </trkpt>
      <trkpt lat="45.67753" lon="6.31497">
        <ele>997</ele>
        <time>2021-08-02T17:22:17Z</time>
      </trkpt>
      <trkpt lat="45.67745" lon="6.31499">
        <ele>998</ele>
        <time>2021-08-02T17:22:24Z</time>
      </trkpt>
      <trkpt lat="45.6773" lon="6.31507">
        <ele>1000</ele>
        <time>2021-08-02T17:22:39Z</time>
      </trkpt>
      <trkpt lat="45.67727" lon="6.31515">
        <ele>1001</ele>
        <time>2021-08-02T17:22:45Z</time>
      </trkpt>
      <trkpt lat="45.67728" lon="6.31525">
        <ele>1005</ele>
        <time>2021-08-02T17:22:59Z</time>
      </trkpt>
      <trkpt lat="45.6773" lon="6.31542">
        <ele>1008</ele>
        <time>2021-08-02T17:23:13Z</time>
      </trkpt>
      <trkpt lat="45.67739" lon="6.31559">
        <ele>1010</ele>
        <time>2021-08-02T17:23:26Z</time>
      </trkpt>
      <trkpt lat="45.67742" lon="6.31568">
        <ele>1010</ele>
        <time>2021-08-02T17:23:31Z</time>
      </trkpt>
      <trkpt lat="45.67754" lon="6.31607">
        <ele>1017</ele>
        <time>2021-08-02T17:24:05Z</time>
      </trkpt>
      <trkpt lat="45.67757" lon="6.31637">
        <ele>1023</ele>
        <time>2021-08-02T17:24:33Z</time>
      </trkpt>
      <trkpt lat="45.67758" lon="6.31647">
        <ele>1024</ele>
        <time>2021-08-02T17:24:38Z</time>
      </trkpt>
      <trkpt lat="45.67759" lon="6.31669">
        <ele>1026</ele>
        <time>2021-08-02T17:24:52Z</time>
      </trkpt>
      <trkpt lat="45.67754" lon="6.31691">
        <ele>1028</ele>
        <time>2021-08-02T17:25:04Z</time>
      </trkpt>
      <trkpt lat="45.67754" lon="6.31702">
        <ele>1029</ele>
        <time>2021-08-02T17:25:10Z</time>
      </trkpt>
      <trkpt lat="45.67753" lon="6.31713">
        <ele>1031</ele>
        <time>2021-08-02T17:25:17Z</time>
      </trkpt>
      <trkpt lat="45.67753" lon="6.31722">
        <ele>1031</ele>
        <time>2021-08-02T17:25:21Z</time>
      </trkpt>
      <trkpt lat="45.67753" lon="6.31729">
        <ele>1032</ele>
        <time>2021-08-02T17:25:26Z</time>
      </trkpt>
      <trkpt lat="45.67751" lon="6.31738">
        <ele>1034</ele>
        <time>2021-08-02T17:25:34Z</time>
      </trkpt>
      <trkpt lat="45.67753" lon="6.31748">
        <ele>1034</ele>
        <time>2021-08-02T17:25:39Z</time>
      </trkpt>
      <trkpt lat="45.67756" lon="6.31755">
        <ele>1035</ele>
        <time>2021-08-02T17:25:44Z</time>
      </trkpt>
      <trkpt lat="45.67758" lon="6.31762">
        <ele>1035</ele>
        <time>2021-08-02T17:25:48Z</time>
      </trkpt>
      <trkpt lat="45.67761" lon="6.3177">
        <ele>1035</ele>
        <time>2021-08-02T17:25:53Z</time>
      </trkpt>
      <trkpt lat="45.67762" lon="6.31783">
        <ele>1036</ele>
        <time>2021-08-02T17:26:00Z</time>
      </trkpt>
      <trkpt lat="45.67765" lon="6.31791">
        <ele>1036</ele>
        <time>2021-08-02T17:26:04Z</time>
      </trkpt>
      <trkpt lat="45.67773" lon="6.31804">
        <ele>1039</ele>
        <time>2021-08-02T17:26:15Z</time>
      </trkpt>
      <trkpt lat="45.67776" lon="6.31812">
        <ele>1040</ele>
        <time>2021-08-02T17:26:22Z</time>
      </trkpt>
      <trkpt lat="45.67781" lon="6.31825">
        <ele>1043</ele>
        <time>2021-08-02T17:26:35Z</time>
      </trkpt>
      <trkpt lat="45.67799" lon="6.31847">
        <ele>1045</ele>
        <time>2021-08-02T17:26:54Z</time>
      </trkpt>
      <trkpt lat="45.67802" lon="6.31857">
        <ele>1046</ele>
        <time>2021-08-02T17:27:01Z</time>
      </trkpt>
      <trkpt lat="45.67807" lon="6.31865">
        <ele>1048</ele>
        <time>2021-08-02T17:27:08Z</time>
      </trkpt>
      <trkpt lat="45.67829" lon="6.31893">
        <ele>1052</ele>
        <time>2021-08-02T17:27:35Z</time>
      </trkpt>
      <trkpt lat="45.67836" lon="6.319">
        <ele>1052</ele>
        <time>2021-08-02T17:27:41Z</time>
      </trkpt>
      <trkpt lat="45.67844" lon="6.31905">
        <ele>1052</ele>
        <time>2021-08-02T17:27:47Z</time>
      </trkpt>
      <trkpt lat="45.67858" lon="6.3191">
        <ele>1052</ele>
        <time>2021-08-02T17:27:57Z</time>
      </trkpt>
      <trkpt lat="45.67873" lon="6.31918">
        <ele>1051</ele>
        <time>2021-08-02T17:28:08Z</time>
      </trkpt>
      <trkpt lat="45.67881" lon="6.31923">
        <ele>1051</ele>
        <time>2021-08-02T17:28:13Z</time>
      </trkpt>
      <trkpt lat="45.67887" lon="6.31928">
        <ele>1050</ele>
        <time>2021-08-02T17:28:17Z</time>
      </trkpt>
      <trkpt lat="45.67892" lon="6.31933">
        <ele>1050</ele>
        <time>2021-08-02T17:28:21Z</time>
      </trkpt>
      <trkpt lat="45.67897" lon="6.31938">
        <ele>1049</ele>
        <time>2021-08-02T17:28:26Z</time>
      </trkpt>
      <trkpt lat="45.67903" lon="6.31941">
        <ele>1048</ele>
        <time>2021-08-02T17:28:31Z</time>
      </trkpt>
      <trkpt lat="45.6791" lon="6.31946">
        <ele>1048</ele>
        <time>2021-08-02T17:28:35Z</time>
      </trkpt>
      <trkpt lat="45.67915" lon="6.31951">
        <ele>1047</ele>
        <time>2021-08-02T17:28:39Z</time>
      </trkpt>
      <trkpt lat="45.67921" lon="6.31951">
        <ele>1048</ele>
        <time>2021-08-02T17:28:43Z</time>
      </trkpt>
      <trkpt lat="45.67926" lon="6.31952">
        <ele>1048</ele>
        <time>2021-08-02T17:28:49Z</time>
      </trkpt>
      <trkpt lat="45.67932" lon="6.31951">
        <ele>1049</ele>
        <time>2021-08-02T17:28:54Z</time>
      </trkpt>
      <trkpt lat="45.6794" lon="6.31936">
        <ele>1050</ele>
        <time>2021-08-02T17:29:04Z</time>
      </trkpt>
      <trkpt lat="45.67945" lon="6.31936">
        <ele>1052</ele>
        <time>2021-08-02T17:29:10Z</time>
      </trkpt>
      <trkpt lat="45.67958" lon="6.3194">
        <ele>1054</ele>
        <time>2021-08-02T17:29:22Z</time>
      </trkpt>
      <trkpt lat="45.67966" lon="6.31941">
        <ele>1055</ele>
        <time>2021-08-02T17:29:31Z</time>
      </trkpt>
      <trkpt lat="45.67972" lon="6.31944">
        <ele>1055</ele>
        <time>2021-08-02T17:29:37Z</time>
      </trkpt>
      <trkpt lat="45.67983" lon="6.3195">
        <ele>1057</ele>
        <time>2021-08-02T17:29:48Z</time>
      </trkpt>
      <trkpt lat="45.67989" lon="6.31951">
        <ele>1058</ele>
        <time>2021-08-02T17:29:53Z</time>
      </trkpt>
      <trkpt lat="45.67993" lon="6.31947">
        <ele>1058</ele>
        <time>2021-08-02T17:29:56Z</time>
      </trkpt>
      <trkpt lat="45.67997" lon="6.31943">
        <ele>1059</ele>
        <time>2021-08-02T17:29:59Z</time>
      </trkpt>
      <trkpt lat="45.68" lon="6.31935">
        <ele>1059</ele>
        <time>2021-08-02T17:30:04Z</time>
      </trkpt>
      <trkpt lat="45.68004" lon="6.3193">
        <ele>1060</ele>
        <time>2021-08-02T17:30:09Z</time>
      </trkpt>
      <trkpt lat="45.68018" lon="6.31923">
        <ele>1063</ele>
        <time>2021-08-02T17:30:23Z</time>
      </trkpt>
      <trkpt lat="45.6803" lon="6.31922">
        <ele>1065</ele>
        <time>2021-08-02T17:30:34Z</time>
      </trkpt>
      <trkpt lat="45.6804" lon="6.31916">
        <ele>1068</ele>
        <time>2021-08-02T17:30:46Z</time>
      </trkpt>
      <trkpt lat="45.68075" lon="6.31913">
        <ele>1073</ele>
        <time>2021-08-02T17:31:22Z</time>
      </trkpt>
      <trkpt lat="45.68081" lon="6.31912">
        <ele>1074</ele>
        <time>2021-08-02T17:31:27Z</time>
      </trkpt>
      <trkpt lat="45.68086" lon="6.31907">
        <ele>1074</ele>
        <time>2021-08-02T17:31:32Z</time>
      </trkpt>
      <trkpt lat="45.68094" lon="6.31905">
        <ele>1075</ele>
        <time>2021-08-02T17:31:40Z</time>
      </trkpt>
      <trkpt lat="45.68099" lon="6.31906">
        <ele>1076</ele>
        <time>2021-08-02T17:31:48Z</time>
      </trkpt>
      <trkpt lat="45.68105" lon="6.31906">
        <ele>1077</ele>
        <time>2021-08-02T17:31:54Z</time>
      </trkpt>
      <trkpt lat="45.68118" lon="6.3191">
        <ele>1079</ele>
        <time>2021-08-02T17:32:07Z</time>
      </trkpt>
      <trkpt lat="45.68137" lon="6.31921">
        <ele>1082</ele>
        <time>2021-08-02T17:32:29Z</time>
      </trkpt>
      <trkpt lat="45.68148" lon="6.31923">
        <ele>1084</ele>
        <time>2021-08-02T17:32:40Z</time>
      </trkpt>
      <trkpt lat="45.68166" lon="6.31914">
        <ele>1085</ele>
        <time>2021-08-02T17:32:55Z</time>
      </trkpt>
      <trkpt lat="45.68173" lon="6.31913">
        <ele>1085</ele>
        <time>2021-08-02T17:33:00Z</time>
      </trkpt>
      <trkpt lat="45.68182" lon="6.31909">
        <ele>1084</ele>
        <time>2021-08-02T17:33:09Z</time>
      </trkpt>
      <trkpt lat="45.6819" lon="6.31907">
        <ele>1085</ele>
        <time>2021-08-02T17:33:21Z</time>
      </trkpt>
      <trkpt lat="45.68189" lon="6.31904">
        <ele>1085</ele>
        <time>2021-08-02T17:35:19Z</time>
      </trkpt>
      <trkpt lat="45.68183" lon="6.31909">
        <ele>1084</ele>
        <time>2021-08-02T17:37:26Z</time>
      </trkpt>
      <trkpt lat="45.68211" lon="6.31922">
        <ele>1090</ele>
        <time>2021-08-02T17:38:21Z</time>
      </trkpt>
      <trkpt lat="45.6825" lon="6.3191">
        <ele>1100</ele>
        <time>2021-08-02T17:40:02Z</time>
      </trkpt>
      <trkpt lat="45.68265" lon="6.31911">
        <ele>1112</ele>
        <time>2021-08-02T17:41:33Z</time>
      </trkpt>
      <trkpt lat="45.68258" lon="6.3191">
        <ele>1113</ele>
        <time>2021-08-02T17:41:40Z</time>
      </trkpt>
      <trkpt lat="45.68258" lon="6.31924">
        <ele>1115</ele>
        <time>2021-08-02T17:41:52Z</time>
      </trkpt>
      <trkpt lat="45.68281" lon="6.31956">
        <ele>1119</ele>
        <time>2021-08-02T17:42:23Z</time>
      </trkpt>
      <trkpt lat="45.68314" lon="6.31968">
        <ele>1132</ele>
        <time>2021-08-02T17:43:17Z</time>
      </trkpt>
      <trkpt lat="45.68329" lon="6.31949">
        <ele>1137</ele>
        <time>2021-08-02T17:43:33Z</time>
      </trkpt>
      <trkpt lat="45.68345" lon="6.31953">
        <ele>1141</ele>
        <time>2021-08-02T17:43:47Z</time>
      </trkpt>
      <trkpt lat="45.68367" lon="6.3194">
        <ele>1147</ele>
        <time>2021-08-02T17:44:14Z</time>
      </trkpt>
      <trkpt lat="45.68383" lon="6.31939">
        <ele>1151</ele>
        <time>2021-08-02T17:44:35Z</time>
      </trkpt>
      <trkpt lat="45.68399" lon="6.31952">
        <ele>1156</ele>
        <time>2021-08-02T17:44:56Z</time>
      </trkpt>
      <trkpt lat="45.68415" lon="6.31951">
        <ele>1158</ele>
        <time>2021-08-02T17:45:09Z</time>
      </trkpt>
      <trkpt lat="45.68453" lon="6.31936">
        <ele>1167</ele>
        <time>2021-08-02T17:45:54Z</time>
      </trkpt>
      <trkpt lat="45.68469" lon="6.31934">
        <ele>1172</ele>
        <time>2021-08-02T17:46:20Z</time>
      </trkpt>
      <trkpt lat="45.68491" lon="6.31931">
        <ele>1185</ele>
        <time>2021-08-02T17:48:08Z</time>
      </trkpt>
      <trkpt lat="45.68506" lon="6.31936">
        <ele>1192</ele>
        <time>2021-08-02T17:48:35Z</time>
      </trkpt>
      <trkpt lat="45.68537" lon="6.31963">
        <ele>1201</ele>
        <time>2021-08-02T17:49:22Z</time>
      </trkpt>
      <trkpt lat="45.68555" lon="6.31962">
        <ele>1208</ele>
        <time>2021-08-02T17:49:54Z</time>
      </trkpt>
      <trkpt lat="45.6857" lon="6.31957">
        <ele>1210</ele>
        <time>2021-08-02T17:50:07Z</time>
      </trkpt>
      <trkpt lat="45.68583" lon="6.31964">
        <ele>1215</ele>
        <time>2021-08-02T17:50:44Z</time>
      </trkpt>
      <trkpt lat="45.68599" lon="6.31981">
        <ele>1225</ele>
        <time>2021-08-02T17:51:24Z</time>
      </trkpt>
      <trkpt lat="45.68643" lon="6.31979">
        <ele>1236</ele>
        <time>2021-08-02T17:52:15Z</time>
      </trkpt>
      <trkpt lat="45.68627" lon="6.31967">
        <ele>1248</ele>
        <time>2021-08-02T17:53:14Z</time>
      </trkpt>
      <trkpt lat="45.68606" lon="6.31981">
        <ele>1253</ele>
        <time>2021-08-02T17:53:39Z</time>
      </trkpt>
      <trkpt lat="45.68611" lon="6.32003">
        <ele>1258</ele>
        <time>2021-08-02T17:54:25Z</time>
      </trkpt>
      <trkpt lat="45.68637" lon="6.32027">
        <ele>1267</ele>
        <time>2021-08-02T17:55:09Z</time>
      </trkpt>
      <trkpt lat="45.68673" lon="6.32065">
        <ele>1281</ele>
        <time>2021-08-02T17:56:13Z</time>
      </trkpt>
      <trkpt lat="45.68707" lon="6.32031">
        <ele>1284</ele>
        <time>2021-08-02T17:57:13Z</time>
      </trkpt>
      <trkpt lat="45.68715" lon="6.32051">
        <ele>1296</ele>
        <time>2021-08-02T17:58:08Z</time>
      </trkpt>
      <trkpt lat="45.68724" lon="6.32066">
        <ele>1300</ele>
        <time>2021-08-02T17:58:30Z</time>
      </trkpt>
      <trkpt lat="45.68753" lon="6.32082">
        <ele>1312</ele>
        <time>2021-08-02T17:59:29Z</time>
      </trkpt>
      <trkpt lat="45.68746" lon="6.32112">
        <ele>1335</ele>
        <time>2021-08-02T18:01:30Z</time>
      </trkpt>
      <trkpt lat="45.68738" lon="6.32125">
        <ele>1337</ele>
        <time>2021-08-02T18:01:46Z</time>
      </trkpt>
      <trkpt lat="45.68715" lon="6.32139">
        <ele>1342</ele>
        <time>2021-08-02T18:02:15Z</time>
      </trkpt>
      <trkpt lat="45.68701" lon="6.32133">
        <ele>1341</ele>
        <time>2021-08-02T18:02:26Z</time>
      </trkpt>
      <trkpt lat="45.68688" lon="6.32127">
        <ele>1344</ele>
        <time>2021-08-02T18:02:47Z</time>
      </trkpt>
      <trkpt lat="45.68673" lon="6.32139">
        <ele>1350</ele>
        <time>2021-08-02T18:03:15Z</time>
      </trkpt>
      <trkpt lat="45.68684" lon="6.32156">
        <ele>1354</ele>
        <time>2021-08-02T18:03:39Z</time>
      </trkpt>
      <trkpt lat="45.68696" lon="6.32165">
        <ele>1357</ele>
        <time>2021-08-02T18:03:55Z</time>
      </trkpt>
      <trkpt lat="45.68711" lon="6.32162">
        <ele>1359</ele>
        <time>2021-08-02T18:04:17Z</time>
      </trkpt>
      <trkpt lat="45.68736" lon="6.32165">
        <ele>1366</ele>
        <time>2021-08-02T18:04:52Z</time>
      </trkpt>
      <trkpt lat="45.68746" lon="6.32179">
        <ele>1370</ele>
        <time>2021-08-02T18:05:14Z</time>
      </trkpt>
      <trkpt lat="45.68785" lon="6.32192">
        <ele>1385</ele>
        <time>2021-08-02T18:06:27Z</time>
      </trkpt>
      <trkpt lat="45.68823" lon="6.32227">
        <ele>1395</ele>
        <time>2021-08-02T18:07:21Z</time>
      </trkpt>
      <trkpt lat="45.68806" lon="6.32237">
        <ele>1411</ele>
        <time>2021-08-02T18:08:41Z</time>
      </trkpt>
      <trkpt lat="45.68792" lon="6.3225">
        <ele>1416</ele>
        <time>2021-08-02T18:09:06Z</time>
      </trkpt>
      <trkpt lat="45.68765" lon="6.32258">
        <ele>1423</ele>
        <time>2021-08-02T18:09:43Z</time>
      </trkpt>
      <trkpt lat="45.68754" lon="6.32256">
        <ele>1423</ele>
        <time>2021-08-02T18:09:55Z</time>
      </trkpt>
      <trkpt lat="45.68742" lon="6.32259">
        <ele>1423</ele>
        <time>2021-08-02T18:10:04Z</time>
      </trkpt>
      <trkpt lat="45.68731" lon="6.32262">
        <ele>1427</ele>
        <time>2021-08-02T18:10:19Z</time>
      </trkpt>
      <trkpt lat="45.68724" lon="6.32268">
        <ele>1429</ele>
        <time>2021-08-02T18:10:33Z</time>
      </trkpt>
      <trkpt lat="45.68715" lon="6.32274">
        <ele>1432</ele>
        <time>2021-08-02T18:10:46Z</time>
      </trkpt>
      <trkpt lat="45.68704" lon="6.32287">
        <ele>1435</ele>
        <time>2021-08-02T18:11:02Z</time>
      </trkpt>
      <trkpt lat="45.68705" lon="6.32301">
        <ele>1438</ele>
        <time>2021-08-02T18:11:24Z</time>
      </trkpt>
      <trkpt lat="45.68709" lon="6.32312">
        <ele>1441</ele>
        <time>2021-08-02T18:11:35Z</time>
      </trkpt>
      <trkpt lat="45.68717" lon="6.32317">
        <ele>1443</ele>
        <time>2021-08-02T18:11:50Z</time>
      </trkpt>
      <trkpt lat="45.68726" lon="6.32311">
        <ele>1445</ele>
        <time>2021-08-02T18:12:03Z</time>
      </trkpt>
      <trkpt lat="45.68746" lon="6.32313">
        <ele>1450</ele>
        <time>2021-08-02T18:12:32Z</time>
      </trkpt>
      <trkpt lat="45.68758" lon="6.3232">
        <ele>1454</ele>
        <time>2021-08-02T18:12:52Z</time>
      </trkpt>
      <trkpt lat="45.68781" lon="6.32323">
        <ele>1458</ele>
        <time>2021-08-02T18:13:21Z</time>
      </trkpt>
      <trkpt lat="45.68796" lon="6.32336">
        <ele>1464</ele>
        <time>2021-08-02T18:13:53Z</time>
      </trkpt>
      <trkpt lat="45.68813" lon="6.3234">
        <ele>1468</ele>
        <time>2021-08-02T18:14:21Z</time>
      </trkpt>
      <trkpt lat="45.68828" lon="6.32357">
        <ele>1471</ele>
        <time>2021-08-02T18:14:40Z</time>
      </trkpt>
      <trkpt lat="45.68835" lon="6.32375">
        <ele>1475</ele>
        <time>2021-08-02T18:15:06Z</time>
      </trkpt>
      <trkpt lat="45.68845" lon="6.32393">
        <ele>1483</ele>
        <time>2021-08-02T18:15:52Z</time>
      </trkpt>
      <trkpt lat="45.68855" lon="6.3241">
        <ele>1488</ele>
        <time>2021-08-02T18:16:23Z</time>
      </trkpt>
      <trkpt lat="45.68865" lon="6.32424">
        <ele>1496</ele>
        <time>2021-08-02T18:17:05Z</time>
      </trkpt>
      <trkpt lat="45.68872" lon="6.32432">
        <ele>1499</ele>
        <time>2021-08-02T18:17:23Z</time>
      </trkpt>
      <trkpt lat="45.6888" lon="6.32437">
        <ele>1501</ele>
        <time>2021-08-02T18:17:33Z</time>
      </trkpt>
      <trkpt lat="45.68887" lon="6.32445">
        <ele>1503</ele>
        <time>2021-08-02T18:17:45Z</time>
      </trkpt>
      <trkpt lat="45.68894" lon="6.32453">
        <ele>1505</ele>
        <time>2021-08-02T18:17:58Z</time>
      </trkpt>
      <trkpt lat="45.68905" lon="6.3247">
        <ele>1506</ele>
        <time>2021-08-02T18:18:11Z</time>
      </trkpt>
      <trkpt lat="45.68913" lon="6.32473">
        <ele>1506</ele>
        <time>2021-08-02T18:18:17Z</time>
      </trkpt>
      <trkpt lat="45.68917" lon="6.32481">
        <ele>1508</ele>
        <time>2021-08-02T18:18:25Z</time>
      </trkpt>
      <trkpt lat="45.68922" lon="6.32497">
        <ele>1510</ele>
        <time>2021-08-02T18:18:43Z</time>
      </trkpt>
      <trkpt lat="45.68927" lon="6.32508">
        <ele>1514</ele>
        <time>2021-08-02T18:19:02Z</time>
      </trkpt>
      <trkpt lat="45.68933" lon="6.32529">
        <ele>1515</ele>
        <time>2021-08-02T18:19:16Z</time>
      </trkpt>
      <trkpt lat="45.68939" lon="6.32542">
        <ele>1519</ele>
        <time>2021-08-02T18:19:33Z</time>
      </trkpt>
      <trkpt lat="45.68947" lon="6.32551">
        <ele>1521</ele>
        <time>2021-08-02T18:19:46Z</time>
      </trkpt>
      <trkpt lat="45.68954" lon="6.32552">
        <ele>1521</ele>
        <time>2021-08-02T18:19:52Z</time>
      </trkpt>
      <trkpt lat="45.68964" lon="6.3256">
        <ele>1525</ele>
        <time>2021-08-02T18:20:15Z</time>
      </trkpt>
      <trkpt lat="45.6897" lon="6.32585">
        <ele>1532</ele>
        <time>2021-08-02T18:20:45Z</time>
      </trkpt>
      <trkpt lat="45.68978" lon="6.3259">
        <ele>1535</ele>
        <time>2021-08-02T18:21:01Z</time>
      </trkpt>
      <trkpt lat="45.68983" lon="6.32604">
        <ele>1538</ele>
        <time>2021-08-02T18:21:19Z</time>
      </trkpt>
      <trkpt lat="45.68968" lon="6.32601">
        <ele>1545</ele>
        <time>2021-08-02T18:22:02Z</time>
      </trkpt>
      <trkpt lat="45.68971" lon="6.32617">
        <ele>1548</ele>
        <time>2021-08-02T18:22:21Z</time>
      </trkpt>
      <trkpt lat="45.68978" lon="6.32622">
        <ele>1550</ele>
        <time>2021-08-02T18:22:36Z</time>
      </trkpt>
      <trkpt lat="45.68984" lon="6.32637">
        <ele>1554</ele>
        <time>2021-08-02T18:22:57Z</time>
      </trkpt>
      <trkpt lat="45.68983" lon="6.32631">
        <ele>1562</ele>
        <time>2021-08-02T18:23:46Z</time>
      </trkpt>
      <trkpt lat="45.68974" lon="6.32631">
        <ele>1565</ele>
        <time>2021-08-02T18:24:04Z</time>
      </trkpt>
      <trkpt lat="45.68966" lon="6.32641">
        <ele>1567</ele>
        <time>2021-08-02T18:24:17Z</time>
      </trkpt>
      <trkpt lat="45.68966" lon="6.32653">
        <ele>1570</ele>
        <time>2021-08-02T18:24:33Z</time>
      </trkpt>
      <trkpt lat="45.68978" lon="6.32659">
        <ele>1574</ele>
        <time>2021-08-02T18:24:59Z</time>
      </trkpt>
      <trkpt lat="45.6899" lon="6.3267">
        <ele>1575</ele>
        <time>2021-08-02T18:25:14Z</time>
      </trkpt>
      <trkpt lat="45.68999" lon="6.3268">
        <ele>1579</ele>
        <time>2021-08-02T18:25:30Z</time>
      </trkpt>
      <trkpt lat="45.69009" lon="6.32682">
        <ele>1581</ele>
        <time>2021-08-02T18:25:43Z</time>
      </trkpt>
      <trkpt lat="45.69007" lon="6.3269">
        <ele>1589</ele>
        <time>2021-08-02T18:26:31Z</time>
      </trkpt>
      <trkpt lat="45.69" lon="6.32689">
        <ele>1590</ele>
        <time>2021-08-02T18:26:39Z</time>
      </trkpt>
      <trkpt lat="45.68994" lon="6.32692">
        <ele>1592</ele>
        <time>2021-08-02T18:26:46Z</time>
      </trkpt>
      <trkpt lat="45.68997" lon="6.32699">
        <ele>1596</ele>
        <time>2021-08-02T18:27:13Z</time>
      </trkpt>
      <trkpt lat="45.69002" lon="6.32709">
        <ele>1597</ele>
        <time>2021-08-02T18:27:37Z</time>
      </trkpt>
      <trkpt lat="45.69009" lon="6.32718">
        <ele>1599</ele>
        <time>2021-08-02T18:28:08Z</time>
      </trkpt>
      <trkpt lat="45.69007" lon="6.3272">
        <ele>1606</ele>
        <time>2021-08-02T18:28:50Z</time>
      </trkpt>
      <trkpt lat="45.69005" lon="6.32728">
        <ele>1607</ele>
        <time>2021-08-02T18:29:32Z</time>
      </trkpt>
      <trkpt lat="45.69018" lon="6.32744">
        <ele>1612</ele>
        <time>2021-08-02T18:30:04Z</time>
      </trkpt>
      <trkpt lat="45.69024" lon="6.32749">
        <ele>1612</ele>
        <time>2021-08-02T18:30:10Z</time>
      </trkpt>
      <trkpt lat="45.69019" lon="6.32759">
        <ele>1620</ele>
        <time>2021-08-02T18:31:00Z</time>
      </trkpt>
      <trkpt lat="45.6902" lon="6.32769">
        <ele>1623</ele>
        <time>2021-08-02T18:31:12Z</time>
      </trkpt>
      <trkpt lat="45.69029" lon="6.32785">
        <ele>1629</ele>
        <time>2021-08-02T18:31:51Z</time>
      </trkpt>
      <trkpt lat="45.69034" lon="6.32795">
        <ele>1631</ele>
        <time>2021-08-02T18:32:05Z</time>
      </trkpt>
      <trkpt lat="45.69042" lon="6.32796">
        <ele>1632</ele>
        <time>2021-08-02T18:32:18Z</time>
      </trkpt>
      <trkpt lat="45.69047" lon="6.32798">
        <ele>1636</ele>
        <time>2021-08-02T18:32:42Z</time>
      </trkpt>
      <trkpt lat="45.69053" lon="6.32801">
        <ele>1637</ele>
        <time>2021-08-02T18:32:54Z</time>
      </trkpt>
      <trkpt lat="45.69053" lon="6.32811">
        <ele>1644</ele>
        <time>2021-08-02T18:33:18Z</time>
      </trkpt>
      <trkpt lat="45.69065" lon="6.32824">
        <ele>1650</ele>
        <time>2021-08-02T18:33:54Z</time>
      </trkpt>
      <trkpt lat="45.69068" lon="6.3283">
        <ele>1652</ele>
        <time>2021-08-02T18:34:06Z</time>
      </trkpt>
      <trkpt lat="45.69073" lon="6.32835">
        <ele>1656</ele>
        <time>2021-08-02T18:34:24Z</time>
      </trkpt>
      <trkpt lat="45.69078" lon="6.32839">
        <ele>1660</ele>
        <time>2021-08-02T18:34:42Z</time>
      </trkpt>
      <trkpt lat="45.69084" lon="6.32846">
        <ele>1662</ele>
        <time>2021-08-02T18:35:00Z</time>
      </trkpt>
      <trkpt lat="45.6909" lon="6.3285">
        <ele>1663</ele>
        <time>2021-08-02T18:35:06Z</time>
      </trkpt>
      <trkpt lat="45.69097" lon="6.32852">
        <ele>1664</ele>
        <time>2021-08-02T18:35:21Z</time>
      </trkpt>
      <trkpt lat="45.69101" lon="6.32864">
        <ele>1669</ele>
        <time>2021-08-02T18:35:46Z</time>
      </trkpt>
      <trkpt lat="45.69111" lon="6.32866">
        <ele>1672</ele>
        <time>2021-08-02T18:36:10Z</time>
      </trkpt>
      <trkpt lat="45.69129" lon="6.32866">
        <ele>1677</ele>
        <time>2021-08-02T18:36:47Z</time>
      </trkpt>
      <trkpt lat="45.69125" lon="6.32873">
        <ele>1684</ele>
        <time>2021-08-02T18:37:22Z</time>
      </trkpt>
      <trkpt lat="45.69121" lon="6.3288">
        <ele>1687</ele>
        <time>2021-08-02T18:37:43Z</time>
      </trkpt>
      <trkpt lat="45.69128" lon="6.32883">
        <ele>1689</ele>
        <time>2021-08-02T18:37:53Z</time>
      </trkpt>
      <trkpt lat="45.69128" lon="6.32888">
        <ele>1697</ele>
        <time>2021-08-02T18:38:40Z</time>
      </trkpt>
      <trkpt lat="45.69123" lon="6.32895">
        <ele>1699</ele>
        <time>2021-08-02T18:38:51Z</time>
      </trkpt>
      <trkpt lat="45.69123" lon="6.32904">
        <ele>1701</ele>
        <time>2021-08-02T18:39:03Z</time>
      </trkpt>
      <trkpt lat="45.69119" lon="6.32908">
        <ele>1701</ele>
        <time>2021-08-02T18:39:39Z</time>
      </trkpt>
      <trkpt lat="45.69129" lon="6.32909">
        <ele>1704</ele>
        <time>2021-08-02T18:40:08Z</time>
      </trkpt>
      <trkpt lat="45.69136" lon="6.32905">
        <ele>1705</ele>
        <time>2021-08-02T18:40:14Z</time>
      </trkpt>
      <trkpt lat="45.6914" lon="6.32901">
        <ele>1705</ele>
        <time>2021-08-02T18:40:17Z</time>
      </trkpt>
      <trkpt lat="45.69152" lon="6.32898">
        <ele>1706</ele>
        <time>2021-08-02T18:40:29Z</time>
      </trkpt>
      <trkpt lat="45.69156" lon="6.32896">
        <ele>1706</ele>
        <time>2021-08-02T18:40:32Z</time>
      </trkpt>
      <trkpt lat="45.69161" lon="6.32891">
        <ele>1707</ele>
        <time>2021-08-02T18:40:40Z</time>
      </trkpt>
      <trkpt lat="45.69176" lon="6.32893">
        <ele>1715</ele>
        <time>2021-08-02T18:41:17Z</time>
      </trkpt>
      <trkpt lat="45.69189" lon="6.32899">
        <ele>1719</ele>
        <time>2021-08-02T18:41:40Z</time>
      </trkpt>
      <trkpt lat="45.69195" lon="6.32894">
        <ele>1721</ele>
        <time>2021-08-02T18:42:03Z</time>
      </trkpt>
      <trkpt lat="45.69203" lon="6.32892">
        <ele>1726</ele>
        <time>2021-08-02T18:42:33Z</time>
      </trkpt>
      <trkpt lat="45.69211" lon="6.32884">
        <ele>1726</ele>
        <time>2021-08-02T18:42:45Z</time>
      </trkpt>
      <trkpt lat="45.6922" lon="6.32885">
        <ele>1728</ele>
        <time>2021-08-02T18:42:57Z</time>
      </trkpt>
      <trkpt lat="45.69226" lon="6.32882">
        <ele>1729</ele>
        <time>2021-08-02T18:43:09Z</time>
      </trkpt>
      <trkpt lat="45.69236" lon="6.32884">
        <ele>1732</ele>
        <time>2021-08-02T18:43:27Z</time>
      </trkpt>
      <trkpt lat="45.69241" lon="6.32874">
        <ele>1736</ele>
        <time>2021-08-02T18:43:47Z</time>
      </trkpt>
      <trkpt lat="45.69248" lon="6.32874">
        <ele>1735</ele>
        <time>2021-08-02T18:43:59Z</time>
      </trkpt>
      <trkpt lat="45.69255" lon="6.32875">
        <ele>1735</ele>
        <time>2021-08-02T18:44:08Z</time>
      </trkpt>
      <trkpt lat="45.69262" lon="6.32876">
        <ele>1737</ele>
        <time>2021-08-02T18:44:20Z</time>
      </trkpt>
      <trkpt lat="45.69271" lon="6.32874">
        <ele>1739</ele>
        <time>2021-08-02T18:44:31Z</time>
      </trkpt>
      <trkpt lat="45.69277" lon="6.3288">
        <ele>1744</ele>
        <time>2021-08-02T18:45:05Z</time>
      </trkpt>
      <trkpt lat="45.6928" lon="6.3287">
        <ele>1746</ele>
        <time>2021-08-02T18:45:40Z</time>
      </trkpt>
      <trkpt lat="45.69285" lon="6.32866">
        <ele>1747</ele>
        <time>2021-08-02T18:46:04Z</time>
      </trkpt>
      <trkpt lat="45.69291" lon="6.32873">
        <ele>1750</ele>
        <time>2021-08-02T18:46:15Z</time>
      </trkpt>
      <trkpt lat="45.69297" lon="6.32878">
        <ele>1749</ele>
        <time>2021-08-02T18:46:27Z</time>
      </trkpt>
      <trkpt lat="45.69306" lon="6.32881">
        <ele>1750</ele>
        <time>2021-08-02T18:46:40Z</time>
      </trkpt>
      <trkpt lat="45.69318" lon="6.3288">
        <ele>1752</ele>
        <time>2021-08-02T18:47:00Z</time>
      </trkpt>
      <trkpt lat="45.69325" lon="6.32884">
        <ele>1757</ele>
        <time>2021-08-02T18:47:30Z</time>
      </trkpt>
      <trkpt lat="45.69333" lon="6.3289">
        <ele>1757</ele>
        <time>2021-08-02T18:47:44Z</time>
      </trkpt>
      <trkpt lat="45.69346" lon="6.32899">
        <ele>1761</ele>
        <time>2021-08-02T18:48:10Z</time>
      </trkpt>
      <trkpt lat="45.69353" lon="6.32898">
        <ele>1762</ele>
        <time>2021-08-02T18:48:16Z</time>
      </trkpt>
      <trkpt lat="45.69371" lon="6.32896">
        <ele>1760</ele>
        <time>2021-08-02T18:48:33Z</time>
      </trkpt>
      <trkpt lat="45.69376" lon="6.32902">
        <ele>1757</ele>
        <time>2021-08-02T18:48:47Z</time>
      </trkpt>
      <trkpt lat="45.69385" lon="6.32907">
        <ele>1755</ele>
        <time>2021-08-02T18:48:59Z</time>
      </trkpt>
      <trkpt lat="45.69391" lon="6.32905">
        <ele>1755</ele>
        <time>2021-08-02T18:49:04Z</time>
      </trkpt>
      <trkpt lat="45.69395" lon="6.3291">
        <ele>1755</ele>
        <time>2021-08-02T18:49:10Z</time>
      </trkpt>
      <trkpt lat="45.69402" lon="6.32909">
        <ele>1756</ele>
        <time>2021-08-02T18:49:17Z</time>
      </trkpt>
      <trkpt lat="45.69412" lon="6.32921">
        <ele>1760</ele>
        <time>2021-08-02T18:49:38Z</time>
      </trkpt>
      <trkpt lat="45.69417" lon="6.32927">
        <ele>1764</ele>
        <time>2021-08-02T18:49:53Z</time>
      </trkpt>
      <trkpt lat="45.69423" lon="6.32931">
        <ele>1766</ele>
        <time>2021-08-02T18:50:08Z</time>
      </trkpt>
      <trkpt lat="45.69428" lon="6.32937">
        <ele>1768</ele>
        <time>2021-08-02T18:50:24Z</time>
      </trkpt>
      <trkpt lat="45.69429" lon="6.32945">
        <ele>1772</ele>
        <time>2021-08-02T18:50:40Z</time>
      </trkpt>
      <trkpt lat="45.69443" lon="6.32951">
        <ele>1778</ele>
        <time>2021-08-02T18:51:22Z</time>
      </trkpt>
      <trkpt lat="45.69458" lon="6.32967">
        <ele>1787</ele>
        <time>2021-08-02T18:52:09Z</time>
      </trkpt>
      <trkpt lat="45.69472" lon="6.3298">
        <ele>1793</ele>
        <time>2021-08-02T18:52:44Z</time>
      </trkpt>
      <trkpt lat="45.69479" lon="6.32982">
        <ele>1795</ele>
        <time>2021-08-02T18:53:02Z</time>
      </trkpt>
      <trkpt lat="45.69492" lon="6.32993">
        <ele>1802</ele>
        <time>2021-08-02T18:53:38Z</time>
      </trkpt>
      <trkpt lat="45.69502" lon="6.33011">
        <ele>1808</ele>
        <time>2021-08-02T18:54:14Z</time>
      </trkpt>
      <trkpt lat="45.69506" lon="6.3302">
        <ele>1810</ele>
        <time>2021-08-02T18:54:26Z</time>
      </trkpt>
      <trkpt lat="45.69519" lon="6.33034">
        <ele>1813</ele>
        <time>2021-08-02T18:54:54Z</time>
      </trkpt>
      <trkpt lat="45.69522" lon="6.3304">
        <ele>1813</ele>
        <time>2021-08-02T18:54:59Z</time>
      </trkpt>
      <trkpt lat="45.69529" lon="6.3305">
        <ele>1816</ele>
        <time>2021-08-02T18:55:19Z</time>
      </trkpt>
      <trkpt lat="45.69541" lon="6.33056">
        <ele>1816</ele>
        <time>2021-08-02T18:55:36Z</time>
      </trkpt>
      <trkpt lat="45.69546" lon="6.33061">
        <ele>1816</ele>
        <time>2021-08-02T18:55:41Z</time>
      </trkpt>
      <trkpt lat="45.69547" lon="6.33066">
        <ele>1818</ele>
        <time>2021-08-02T18:56:03Z</time>
      </trkpt>
      <trkpt lat="45.69542" lon="6.33068">
        <ele>1821</ele>
        <time>2021-08-02T18:56:21Z</time>
      </trkpt>
      <trkpt lat="45.69532" lon="6.33066">
        <ele>1825</ele>
        <time>2021-08-02T18:56:39Z</time>
      </trkpt>
      <trkpt lat="45.69527" lon="6.33069">
        <ele>1828</ele>
        <time>2021-08-02T18:57:03Z</time>
      </trkpt>
      <trkpt lat="45.69521" lon="6.33068">
        <ele>1826</ele>
        <time>2021-08-02T18:59:21Z</time>
      </trkpt>
      <trkpt lat="45.69521" lon="6.33068">
        <ele>1825</ele>
        <time>2021-08-02T19:01:47Z</time>
      </trkpt>
      <trkpt lat="45.69521" lon="6.33067">
        <ele>1822</ele>
        <time>2021-08-02T19:05:51Z</time>
      </trkpt>
      <trkpt lat="45.69517" lon="6.33068">
        <ele>1820</ele>
        <time>2021-08-02T19:07:27Z</time>
      </trkpt>
      <trkpt lat="45.6952" lon="6.33067">
        <ele>1818</ele>
        <time>2021-08-02T19:10:02Z</time>
      </trkpt>
      <trkpt lat="45.6952" lon="6.3307">
        <ele>1813</ele>
        <time>2021-08-02T19:22:38Z</time>
      </trkpt>
      <trkpt lat="45.69529" lon="6.33075">
        <ele>1814</ele>
        <time>2021-08-02T19:24:49Z</time>
      </trkpt>
      <trkpt lat="45.69525" lon="6.33067">
        <ele>1814</ele>
        <time>2021-08-02T19:25:07Z</time>
      </trkpt>
      <trkpt lat="45.69523" lon="6.33072">
        <ele>1815</ele>
        <time>2021-08-02T19:26:08Z</time>
      </trkpt>
      <trkpt lat="45.69519" lon="6.33071">
        <ele>1814</ele>
        <time>2021-08-02T19:27:32Z</time>
      </trkpt>
      <trkpt lat="45.69522" lon="6.33071">
        <ele>1814</ele>
        <time>2021-08-02T19:28:50Z</time>
      </trkpt>
      <trkpt lat="45.69528" lon="6.33069">
        <ele>1813</ele>
        <time>2021-08-02T19:30:24Z</time>
      </trkpt>
      <trkpt lat="45.69531" lon="6.33071">
        <ele>1812</ele>
        <time>2021-08-02T19:30:27Z</time>
      </trkpt>
      <trkpt lat="45.69538" lon="6.33064">
        <ele>1806</ele>
        <time>2021-08-02T19:30:48Z</time>
      </trkpt>
      <trkpt lat="45.69537" lon="6.33063">
        <ele>1803</ele>
        <time>2021-08-02T19:31:03Z</time>
      </trkpt>
      <trkpt lat="45.69532" lon="6.33056">
        <ele>1804</ele>
        <time>2021-08-02T19:31:10Z</time>
      </trkpt>
      <trkpt lat="45.69528" lon="6.33051">
        <ele>1803</ele>
        <time>2021-08-02T19:31:16Z</time>
      </trkpt>
      <trkpt lat="45.6952" lon="6.33033">
        <ele>1801</ele>
        <time>2021-08-02T19:31:26Z</time>
      </trkpt>
      <trkpt lat="45.69516" lon="6.33027">
        <ele>1801</ele>
        <time>2021-08-02T19:31:30Z</time>
      </trkpt>
      <trkpt lat="45.69511" lon="6.33023">
        <ele>1799</ele>
        <time>2021-08-02T19:31:36Z</time>
      </trkpt>
      <trkpt lat="45.69502" lon="6.33001">
        <ele>1794</ele>
        <time>2021-08-02T19:31:53Z</time>
      </trkpt>
      <trkpt lat="45.69497" lon="6.32996">
        <ele>1792</ele>
        <time>2021-08-02T19:31:58Z</time>
      </trkpt>
      <trkpt lat="45.69493" lon="6.3299">
        <ele>1790</ele>
        <time>2021-08-02T19:32:02Z</time>
      </trkpt>
      <trkpt lat="45.69487" lon="6.32987">
        <ele>1788</ele>
        <time>2021-08-02T19:32:08Z</time>
      </trkpt>
      <trkpt lat="45.69478" lon="6.32982">
        <ele>1783</ele>
        <time>2021-08-02T19:32:25Z</time>
      </trkpt>
      <trkpt lat="45.69472" lon="6.32979">
        <ele>1780</ele>
        <time>2021-08-02T19:32:37Z</time>
      </trkpt>
      <trkpt lat="45.69467" lon="6.32973">
        <ele>1778</ele>
        <time>2021-08-02T19:32:44Z</time>
      </trkpt>
      <trkpt lat="45.6945" lon="6.32962">
        <ele>1772</ele>
        <time>2021-08-02T19:33:06Z</time>
      </trkpt>
      <trkpt lat="45.69444" lon="6.32961">
        <ele>1770</ele>
        <time>2021-08-02T19:33:13Z</time>
      </trkpt>
      <trkpt lat="45.69438" lon="6.32954">
        <ele>1768</ele>
        <time>2021-08-02T19:33:21Z</time>
      </trkpt>
      <trkpt lat="45.69431" lon="6.32947">
        <ele>1762</ele>
        <time>2021-08-02T19:33:41Z</time>
      </trkpt>
      <trkpt lat="45.69424" lon="6.32931">
        <ele>1757</ele>
        <time>2021-08-02T19:34:00Z</time>
      </trkpt>
      <trkpt lat="45.69416" lon="6.32922">
        <ele>1753</ele>
        <time>2021-08-02T19:34:13Z</time>
      </trkpt>
      <trkpt lat="45.69401" lon="6.32911">
        <ele>1748</ele>
        <time>2021-08-02T19:34:29Z</time>
      </trkpt>
      <trkpt lat="45.69389" lon="6.32911">
        <ele>1748</ele>
        <time>2021-08-02T19:34:38Z</time>
      </trkpt>
      <trkpt lat="45.69382" lon="6.32913">
        <ele>1750</ele>
        <time>2021-08-02T19:34:43Z</time>
      </trkpt>
      <trkpt lat="45.69376" lon="6.32906">
        <ele>1751</ele>
        <time>2021-08-02T19:34:49Z</time>
      </trkpt>
      <trkpt lat="45.69362" lon="6.329">
        <ele>1755</ele>
        <time>2021-08-02T19:35:07Z</time>
      </trkpt>
      <trkpt lat="45.69357" lon="6.32898">
        <ele>1754</ele>
        <time>2021-08-02T19:35:12Z</time>
      </trkpt>
      <trkpt lat="45.6935" lon="6.32899">
        <ele>1754</ele>
        <time>2021-08-02T19:35:20Z</time>
      </trkpt>
      <trkpt lat="45.69339" lon="6.32889">
        <ele>1750</ele>
        <time>2021-08-02T19:35:32Z</time>
      </trkpt>
      <trkpt lat="45.69333" lon="6.32884">
        <ele>1750</ele>
        <time>2021-08-02T19:35:38Z</time>
      </trkpt>
      <trkpt lat="45.69325" lon="6.3288">
        <ele>1750</ele>
        <time>2021-08-02T19:35:49Z</time>
      </trkpt>
      <trkpt lat="45.69317" lon="6.32883">
        <ele>1747</ele>
        <time>2021-08-02T19:36:13Z</time>
      </trkpt>
      <trkpt lat="45.69306" lon="6.32877">
        <ele>1743</ele>
        <time>2021-08-02T19:36:26Z</time>
      </trkpt>
      <trkpt lat="45.69299" lon="6.32873">
        <ele>1742</ele>
        <time>2021-08-02T19:36:29Z</time>
      </trkpt>
      <trkpt lat="45.69291" lon="6.32871">
        <ele>1742</ele>
        <time>2021-08-02T19:36:33Z</time>
      </trkpt>
      <trkpt lat="45.69286" lon="6.32869">
        <ele>1742</ele>
        <time>2021-08-02T19:36:37Z</time>
      </trkpt>
      <trkpt lat="45.69276" lon="6.32866">
        <ele>1737</ele>
        <time>2021-08-02T19:37:02Z</time>
      </trkpt>
      <trkpt lat="45.69271" lon="6.32875">
        <ele>1731</ele>
        <time>2021-08-02T19:37:40Z</time>
      </trkpt>
      <trkpt lat="45.69266" lon="6.32869">
        <ele>1729</ele>
        <time>2021-08-02T19:37:47Z</time>
      </trkpt>
      <trkpt lat="45.69255" lon="6.32869">
        <ele>1727</ele>
        <time>2021-08-02T19:37:53Z</time>
      </trkpt>
      <trkpt lat="45.69246" lon="6.32869">
        <ele>1726</ele>
        <time>2021-08-02T19:37:57Z</time>
      </trkpt>
      <trkpt lat="45.6924" lon="6.32868">
        <ele>1727</ele>
        <time>2021-08-02T19:38:01Z</time>
      </trkpt>
      <trkpt lat="45.69233" lon="6.32873">
        <ele>1725</ele>
        <time>2021-08-02T19:38:11Z</time>
      </trkpt>
      <trkpt lat="45.69224" lon="6.32879">
        <ele>1723</ele>
        <time>2021-08-02T19:38:23Z</time>
      </trkpt>
      <trkpt lat="45.69203" lon="6.32885">
        <ele>1717</ele>
        <time>2021-08-02T19:38:51Z</time>
      </trkpt>
      <trkpt lat="45.69198" lon="6.32892">
        <ele>1716</ele>
        <time>2021-08-02T19:38:59Z</time>
      </trkpt>
      <trkpt lat="45.69193" lon="6.32891">
        <ele>1714</ele>
        <time>2021-08-02T19:39:16Z</time>
      </trkpt>
      <trkpt lat="45.69186" lon="6.32895">
        <ele>1711</ele>
        <time>2021-08-02T19:39:29Z</time>
      </trkpt>
      <trkpt lat="45.6917" lon="6.32894">
        <ele>1705</ele>
        <time>2021-08-02T19:39:50Z</time>
      </trkpt>
      <trkpt lat="45.69164" lon="6.32891">
        <ele>1703</ele>
        <time>2021-08-02T19:39:59Z</time>
      </trkpt>
      <trkpt lat="45.69154" lon="6.32888">
        <ele>1698</ele>
        <time>2021-08-02T19:40:17Z</time>
      </trkpt>
      <trkpt lat="45.69125" lon="6.32899">
        <ele>1690</ele>
        <time>2021-08-02T19:40:55Z</time>
      </trkpt>
      <trkpt lat="45.69132" lon="6.32886">
        <ele>1686</ele>
        <time>2021-08-02T19:41:13Z</time>
      </trkpt>
      <trkpt lat="45.69136" lon="6.32877">
        <ele>1683</ele>
        <time>2021-08-02T19:41:20Z</time>
      </trkpt>
      <trkpt lat="45.69126" lon="6.32877">
        <ele>1678</ele>
        <time>2021-08-02T19:41:43Z</time>
      </trkpt>
      <trkpt lat="45.69132" lon="6.3287">
        <ele>1671</ele>
        <time>2021-08-02T19:42:06Z</time>
      </trkpt>
      <trkpt lat="45.69132" lon="6.32858">
        <ele>1667</ele>
        <time>2021-08-02T19:42:19Z</time>
      </trkpt>
      <trkpt lat="45.69124" lon="6.32855">
        <ele>1665</ele>
        <time>2021-08-02T19:42:24Z</time>
      </trkpt>
      <trkpt lat="45.69109" lon="6.32851">
        <ele>1662</ele>
        <time>2021-08-02T19:42:33Z</time>
      </trkpt>
      <trkpt lat="45.69097" lon="6.32847">
        <ele>1658</ele>
        <time>2021-08-02T19:42:49Z</time>
      </trkpt>
      <trkpt lat="45.69086" lon="6.32848">
        <ele>1654</ele>
        <time>2021-08-02T19:43:03Z</time>
      </trkpt>
      <trkpt lat="45.69092" lon="6.32841">
        <ele>1650</ele>
        <time>2021-08-02T19:43:21Z</time>
      </trkpt>
      <trkpt lat="45.69087" lon="6.32825">
        <ele>1641</ele>
        <time>2021-08-02T19:43:52Z</time>
      </trkpt>
      <trkpt lat="45.69075" lon="6.32818">
        <ele>1637</ele>
        <time>2021-08-02T19:44:06Z</time>
      </trkpt>
      <trkpt lat="45.69069" lon="6.32818">
        <ele>1637</ele>
        <time>2021-08-02T19:44:09Z</time>
      </trkpt>
      <trkpt lat="45.69064" lon="6.32807">
        <ele>1631</ele>
        <time>2021-08-02T19:44:32Z</time>
      </trkpt>
      <trkpt lat="45.69059" lon="6.32799">
        <ele>1628</ele>
        <time>2021-08-02T19:44:44Z</time>
      </trkpt>
      <trkpt lat="45.69049" lon="6.328">
        <ele>1623</ele>
        <time>2021-08-02T19:45:09Z</time>
      </trkpt>
      <trkpt lat="45.69036" lon="6.32786">
        <ele>1619</ele>
        <time>2021-08-02T19:45:22Z</time>
      </trkpt>
      <trkpt lat="45.6902" lon="6.32766">
        <ele>1611</ele>
        <time>2021-08-02T19:45:44Z</time>
      </trkpt>
      <trkpt lat="45.69024" lon="6.32755">
        <ele>1607</ele>
        <time>2021-08-02T19:45:58Z</time>
      </trkpt>
      <trkpt lat="45.69032" lon="6.32752">
        <ele>1604</ele>
        <time>2021-08-02T19:46:06Z</time>
      </trkpt>
      <trkpt lat="45.69036" lon="6.32741">
        <ele>1602</ele>
        <time>2021-08-02T19:46:14Z</time>
      </trkpt>
      <trkpt lat="45.69023" lon="6.32725">
        <ele>1598</ele>
        <time>2021-08-02T19:46:28Z</time>
      </trkpt>
      <trkpt lat="45.69019" lon="6.32704">
        <ele>1588</ele>
        <time>2021-08-02T19:47:06Z</time>
      </trkpt>
      <trkpt lat="45.69004" lon="6.32695">
        <ele>1584</ele>
        <time>2021-08-02T19:47:22Z</time>
      </trkpt>
      <trkpt lat="45.69004" lon="6.3267">
        <ele>1571</ele>
        <time>2021-08-02T19:48:07Z</time>
      </trkpt>
      <trkpt lat="45.68977" lon="6.32647">
        <ele>1560</ele>
        <time>2021-08-02T19:48:54Z</time>
      </trkpt>
      <trkpt lat="45.68995" lon="6.32628">
        <ele>1549</ele>
        <time>2021-08-02T19:49:36Z</time>
      </trkpt>
      <trkpt lat="45.6898" lon="6.32556">
        <ele>1515</ele>
        <time>2021-08-02T19:51:41Z</time>
      </trkpt>
      <trkpt lat="45.68962" lon="6.32533">
        <ele>1507</ele>
        <time>2021-08-02T19:52:08Z</time>
      </trkpt>
      <trkpt lat="45.6896" lon="6.32513">
        <ele>1505</ele>
        <time>2021-08-02T19:52:18Z</time>
      </trkpt>
      <trkpt lat="45.68937" lon="6.32455">
        <ele>1496</ele>
        <time>2021-08-02T19:53:13Z</time>
      </trkpt>
      <trkpt lat="45.68923" lon="6.32439">
        <ele>1491</ele>
        <time>2021-08-02T19:53:29Z</time>
      </trkpt>
      <trkpt lat="45.68886" lon="6.32421">
        <ele>1480</ele>
        <time>2021-08-02T19:54:02Z</time>
      </trkpt>
      <trkpt lat="45.68875" lon="6.32407">
        <ele>1476</ele>
        <time>2021-08-02T19:54:14Z</time>
      </trkpt>
      <trkpt lat="45.68851" lon="6.32345">
        <ele>1459</ele>
        <time>2021-08-02T19:55:08Z</time>
      </trkpt>
      <trkpt lat="45.6884" lon="6.32324">
        <ele>1454</ele>
        <time>2021-08-02T19:55:27Z</time>
      </trkpt>
      <trkpt lat="45.68812" lon="6.32305">
        <ele>1449</ele>
        <time>2021-08-02T19:55:50Z</time>
      </trkpt>
      <trkpt lat="45.68797" lon="6.32308">
        <ele>1444</ele>
        <time>2021-08-02T19:56:10Z</time>
      </trkpt>
      <trkpt lat="45.68779" lon="6.323">
        <ele>1436</ele>
        <time>2021-08-02T19:56:39Z</time>
      </trkpt>
      <trkpt lat="45.68748" lon="6.32302">
        <ele>1429</ele>
        <time>2021-08-02T19:57:03Z</time>
      </trkpt>
      <trkpt lat="45.68738" lon="6.32286">
        <ele>1425</ele>
        <time>2021-08-02T19:57:17Z</time>
      </trkpt>
      <trkpt lat="45.68732" lon="6.32265">
        <ele>1419</ele>
        <time>2021-08-02T19:57:39Z</time>
      </trkpt>
      <trkpt lat="45.68745" lon="6.32252">
        <ele>1414</ele>
        <time>2021-08-02T19:58:18Z</time>
      </trkpt>
      <trkpt lat="45.68766" lon="6.32268">
        <ele>1413</ele>
        <time>2021-08-02T20:00:06Z</time>
      </trkpt>
      <trkpt lat="45.68807" lon="6.32255">
        <ele>1399</ele>
        <time>2021-08-02T20:00:51Z</time>
      </trkpt>
      <trkpt lat="45.68827" lon="6.32251">
        <ele>1393</ele>
        <time>2021-08-02T20:01:15Z</time>
      </trkpt>
      <trkpt lat="45.68828" lon="6.32225">
        <ele>1388</ele>
        <time>2021-08-02T20:01:39Z</time>
      </trkpt>
      <trkpt lat="45.68799" lon="6.32192">
        <ele>1374</ele>
        <time>2021-08-02T20:02:30Z</time>
      </trkpt>
      <trkpt lat="45.68768" lon="6.32175">
        <ele>1360</ele>
        <time>2021-08-02T20:03:18Z</time>
      </trkpt>
      <trkpt lat="45.68743" lon="6.32157">
        <ele>1356</ele>
        <time>2021-08-02T20:03:35Z</time>
      </trkpt>
      <trkpt lat="45.68758" lon="6.3212">
        <ele>1328</ele>
        <time>2021-08-02T20:05:34Z</time>
      </trkpt>
      <trkpt lat="45.68784" lon="6.32101">
        <ele>1320</ele>
        <time>2021-08-02T20:06:04Z</time>
      </trkpt>
      <trkpt lat="45.68778" lon="6.32061">
        <ele>1304</ele>
        <time>2021-08-02T20:06:45Z</time>
      </trkpt>
      <trkpt lat="45.68746" lon="6.3205">
        <ele>1293</ele>
        <time>2021-08-02T20:07:19Z</time>
      </trkpt>
      <trkpt lat="45.687" lon="6.32041">
        <ele>1283</ele>
        <time>2021-08-02T20:08:29Z</time>
      </trkpt>
      <trkpt lat="45.6867" lon="6.32033">
        <ele>1267</ele>
        <time>2021-08-02T20:09:15Z</time>
      </trkpt>
      <trkpt lat="45.68636" lon="6.32014">
        <ele>1253</ele>
        <time>2021-08-02T20:10:04Z</time>
      </trkpt>
      <trkpt lat="45.68663" lon="6.31976">
        <ele>1236</ele>
        <time>2021-08-02T20:10:58Z</time>
      </trkpt>
      <trkpt lat="45.68632" lon="6.31974">
        <ele>1222</ele>
        <time>2021-08-02T20:11:39Z</time>
      </trkpt>
      <trkpt lat="45.68586" lon="6.31955">
        <ele>1206</ele>
        <time>2021-08-02T20:12:33Z</time>
      </trkpt>
      <trkpt lat="45.68558" lon="6.31945">
        <ele>1200</ele>
        <time>2021-08-02T20:12:55Z</time>
      </trkpt>
      <trkpt lat="45.6853" lon="6.31929">
        <ele>1192</ele>
        <time>2021-08-02T20:13:32Z</time>
      </trkpt>
      <trkpt lat="45.68498" lon="6.3192">
        <ele>1178</ele>
        <time>2021-08-02T20:14:18Z</time>
      </trkpt>
      <trkpt lat="45.68464" lon="6.3191">
        <ele>1166</ele>
        <time>2021-08-02T20:15:01Z</time>
      </trkpt>
      <trkpt lat="45.68433" lon="6.31924">
        <ele>1159</ele>
        <time>2021-08-02T20:15:27Z</time>
      </trkpt>
      <trkpt lat="45.68375" lon="6.31904">
        <ele>1147</ele>
        <time>2021-08-02T20:16:09Z</time>
      </trkpt>
      <trkpt lat="45.68347" lon="6.31914">
        <ele>1140</ele>
        <time>2021-08-02T20:16:31Z</time>
      </trkpt>
      <trkpt lat="45.68319" lon="6.31909">
        <ele>1131</ele>
        <time>2021-08-02T20:16:58Z</time>
      </trkpt>
      <trkpt lat="45.68289" lon="6.31919">
        <ele>1122</ele>
        <time>2021-08-02T20:17:42Z</time>
      </trkpt>
      <trkpt lat="45.68254" lon="6.31913">
        <ele>1105</ele>
        <time>2021-08-02T20:19:20Z</time>
      </trkpt>
      <trkpt lat="45.68222" lon="6.31908">
        <ele>1095</ele>
        <time>2021-08-02T20:20:15Z</time>
      </trkpt>
      <trkpt lat="45.68192" lon="6.31937">
        <ele>1095</ele>
        <time>2021-08-02T20:21:31Z</time>
      </trkpt>
      <trkpt lat="45.68162" lon="6.31929">
        <ele>1093</ele>
        <time>2021-08-02T20:21:46Z</time>
      </trkpt>
      <trkpt lat="45.68129" lon="6.3191">
        <ele>1090</ele>
        <time>2021-08-02T20:22:03Z</time>
      </trkpt>
      <trkpt lat="45.68067" lon="6.31908">
        <ele>1082</ele>
        <time>2021-08-02T20:22:46Z</time>
      </trkpt>
      <trkpt lat="45.68027" lon="6.31921">
        <ele>1075</ele>
        <time>2021-08-02T20:23:17Z</time>
      </trkpt>
      <trkpt lat="45.68008" lon="6.31928">
        <ele>1071</ele>
        <time>2021-08-02T20:23:32Z</time>
      </trkpt>
      <trkpt lat="45.67997" lon="6.31943">
        <ele>1069</ele>
        <time>2021-08-02T20:23:43Z</time>
      </trkpt>
      <trkpt lat="45.6799" lon="6.31945">
        <ele>1068</ele>
        <time>2021-08-02T20:23:49Z</time>
      </trkpt>
      <trkpt lat="45.67976" lon="6.31938">
        <ele>1066</ele>
        <time>2021-08-02T20:24:00Z</time>
      </trkpt>
      <trkpt lat="45.67967" lon="6.31937">
        <ele>1065</ele>
        <time>2021-08-02T20:24:08Z</time>
      </trkpt>
      <trkpt lat="45.67959" lon="6.31937">
        <ele>1064</ele>
        <time>2021-08-02T20:24:12Z</time>
      </trkpt>
      <trkpt lat="45.67943" lon="6.3193">
        <ele>1063</ele>
        <time>2021-08-02T20:24:21Z</time>
      </trkpt>
      <trkpt lat="45.67922" lon="6.31931">
        <ele>1057</ele>
        <time>2021-08-02T20:24:42Z</time>
      </trkpt>
      <trkpt lat="45.67899" lon="6.31927">
        <ele>1059</ele>
        <time>2021-08-02T20:25:03Z</time>
      </trkpt>
      <trkpt lat="45.67874" lon="6.31901">
        <ele>1061</ele>
        <time>2021-08-02T20:25:27Z</time>
      </trkpt>
      <trkpt lat="45.67842" lon="6.31887">
        <ele>1060</ele>
        <time>2021-08-02T20:26:01Z</time>
      </trkpt>
      <trkpt lat="45.67827" lon="6.3188">
        <ele>1059</ele>
        <time>2021-08-02T20:26:11Z</time>
      </trkpt>
      <trkpt lat="45.67815" lon="6.31867">
        <ele>1056</ele>
        <time>2021-08-02T20:26:22Z</time>
      </trkpt>
      <trkpt lat="45.67803" lon="6.31856">
        <ele>1055</ele>
        <time>2021-08-02T20:26:33Z</time>
      </trkpt>
      <trkpt lat="45.67788" lon="6.31846">
        <ele>1052</ele>
        <time>2021-08-02T20:26:44Z</time>
      </trkpt>
      <trkpt lat="45.6778" lon="6.31803">
        <ele>1047</ele>
        <time>2021-08-02T20:27:03Z</time>
      </trkpt>
      <trkpt lat="45.67758" lon="6.31767">
        <ele>1044</ele>
        <time>2021-08-02T20:27:29Z</time>
      </trkpt>
      <trkpt lat="45.67755" lon="6.31692">
        <ele>1036</ele>
        <time>2021-08-02T20:28:03Z</time>
      </trkpt>
      <trkpt lat="45.67753" lon="6.3165">
        <ele>1031</ele>
        <time>2021-08-02T20:28:26Z</time>
      </trkpt>
      <trkpt lat="45.67735" lon="6.31569">
        <ele>1018</ele>
        <time>2021-08-02T20:29:11Z</time>
      </trkpt>
      <trkpt lat="45.67762" lon="6.31508">
        <ele>999</ele>
        <time>2021-08-02T20:30:06Z</time>
      </trkpt>
      <trkpt lat="45.67792" lon="6.31499">
        <ele>991</ele>
        <time>2021-08-02T20:30:33Z</time>
      </trkpt>
      <trkpt lat="45.67825" lon="6.31477">
        <ele>983</ele>
        <time>2021-08-02T20:31:02Z</time>
      </trkpt>
      <trkpt lat="45.67831" lon="6.31443">
        <ele>978</ele>
        <time>2021-08-02T20:31:23Z</time>
      </trkpt>
      <trkpt lat="45.67826" lon="6.31395">
        <ele>976</ele>
        <time>2021-08-02T20:31:38Z</time>
      </trkpt>
    </trkseg>
  </trk>
  <trk>
    <name><![CDATA[31 juil. 2021 à 09:20:43]]></name>
    <cmt><![CDATA[31 juil. 2021 à 09:20:43]]></cmt>
    <trkseg>
      <trkpt lat="45.46181" lon="5.90555">
        <ele>1121</ele>
        <time>2021-07-31T07:20:43Z</time>
      </trkpt>
      <trkpt lat="45.4618" lon="5.90556">
        <ele>1122</ele>
        <time>2021-07-31T07:20:44Z</time>
      </trkpt>
      <trkpt lat="45.46174" lon="5.90522">
        <ele>1121</ele>
        <time>2021-07-31T07:20:51Z</time>
      </trkpt>
      <trkpt lat="45.46166" lon="5.90529">
        <ele>1128</ele>
        <time>2021-07-31T07:21:23Z</time>
      </trkpt>
      <trkpt lat="45.46153" lon="5.90526">
        <ele>1132</ele>
        <time>2021-07-31T07:21:39Z</time>
      </trkpt>
      <trkpt lat="45.46148" lon="5.90529">
        <ele>1132</ele>
        <time>2021-07-31T07:21:43Z</time>
      </trkpt>
      <trkpt lat="45.46139" lon="5.90529">
        <ele>1135</ele>
        <time>2021-07-31T07:21:57Z</time>
      </trkpt>
      <trkpt lat="45.46122" lon="5.90522">
        <ele>1138</ele>
        <time>2021-07-31T07:22:13Z</time>
      </trkpt>
      <trkpt lat="45.46105" lon="5.90508">
        <ele>1140</ele>
        <time>2021-07-31T07:22:29Z</time>
      </trkpt>
      <trkpt lat="45.46091" lon="5.90505">
        <ele>1140</ele>
        <time>2021-07-31T07:22:40Z</time>
      </trkpt>
      <trkpt lat="45.46079" lon="5.905">
        <ele>1141</ele>
        <time>2021-07-31T07:22:49Z</time>
      </trkpt>
      <trkpt lat="45.46073" lon="5.90494">
        <ele>1142</ele>
        <time>2021-07-31T07:22:53Z</time>
      </trkpt>
      <trkpt lat="45.46072" lon="5.9049">
        <ele>1142</ele>
        <time>2021-07-31T07:22:56Z</time>
      </trkpt>
      <trkpt lat="45.4607" lon="5.90484">
        <ele>1143</ele>
        <time>2021-07-31T07:23:00Z</time>
      </trkpt>
      <trkpt lat="45.46064" lon="5.90473">
        <ele>1143</ele>
        <time>2021-07-31T07:23:06Z</time>
      </trkpt>
      <trkpt lat="45.4606" lon="5.90465">
        <ele>1143</ele>
        <time>2021-07-31T07:23:09Z</time>
      </trkpt>
      <trkpt lat="45.46055" lon="5.90461">
        <ele>1143</ele>
        <time>2021-07-31T07:23:15Z</time>
      </trkpt>
      <trkpt lat="45.46044" lon="5.90469">
        <ele>1145</ele>
        <time>2021-07-31T07:23:23Z</time>
      </trkpt>
      <trkpt lat="45.46037" lon="5.90476">
        <ele>1145</ele>
        <time>2021-07-31T07:23:26Z</time>
      </trkpt>
      <trkpt lat="45.46018" lon="5.90504">
        <ele>1149</ele>
        <time>2021-07-31T07:23:51Z</time>
      </trkpt>
      <trkpt lat="45.46015" lon="5.90507">
        <ele>1150</ele>
        <time>2021-07-31T07:23:55Z</time>
      </trkpt>
      <trkpt lat="45.46012" lon="5.90521">
        <ele>1152</ele>
        <time>2021-07-31T07:24:04Z</time>
      </trkpt>
      <trkpt lat="45.46007" lon="5.9053">
        <ele>1154</ele>
        <time>2021-07-31T07:24:12Z</time>
      </trkpt>
      <trkpt lat="45.46001" lon="5.90541">
        <ele>1157</ele>
        <time>2021-07-31T07:24:26Z</time>
      </trkpt>
      <trkpt lat="45.46001" lon="5.90549">
        <ele>1158</ele>
        <time>2021-07-31T07:24:33Z</time>
      </trkpt>
      <trkpt lat="45.45999" lon="5.90558">
        <ele>1161</ele>
        <time>2021-07-31T07:24:43Z</time>
      </trkpt>
      <trkpt lat="45.45996" lon="5.90565">
        <ele>1163</ele>
        <time>2021-07-31T07:24:51Z</time>
      </trkpt>
      <trkpt lat="45.45981" lon="5.90582">
        <ele>1168</ele>
        <time>2021-07-31T07:25:14Z</time>
      </trkpt>
      <trkpt lat="45.45976" lon="5.90577">
        <ele>1169</ele>
        <time>2021-07-31T07:25:19Z</time>
      </trkpt>
      <trkpt lat="45.4597" lon="5.9058">
        <ele>1169</ele>
        <time>2021-07-31T07:25:23Z</time>
      </trkpt>
      <trkpt lat="45.45967" lon="5.90584">
        <ele>1169</ele>
        <time>2021-07-31T07:25:26Z</time>
      </trkpt>
      <trkpt lat="45.45964" lon="5.90588">
        <ele>1170</ele>
        <time>2021-07-31T07:25:30Z</time>
      </trkpt>
      <trkpt lat="45.45952" lon="5.90609">
        <ele>1174</ele>
        <time>2021-07-31T07:25:54Z</time>
      </trkpt>
      <trkpt lat="45.45943" lon="5.90621">
        <ele>1175</ele>
        <time>2021-07-31T07:26:03Z</time>
      </trkpt>
      <trkpt lat="45.45938" lon="5.90625">
        <ele>1176</ele>
        <time>2021-07-31T07:26:08Z</time>
      </trkpt>
      <trkpt lat="45.4593" lon="5.90636">
        <ele>1179</ele>
        <time>2021-07-31T07:26:19Z</time>
      </trkpt>
      <trkpt lat="45.4593" lon="5.9065">
        <ele>1182</ele>
        <time>2021-07-31T07:26:34Z</time>
      </trkpt>
      <trkpt lat="45.45937" lon="5.90665">
        <ele>1187</ele>
        <time>2021-07-31T07:26:53Z</time>
      </trkpt>
      <trkpt lat="45.45936" lon="5.90689">
        <ele>1191</ele>
        <time>2021-07-31T07:27:10Z</time>
      </trkpt>
      <trkpt lat="45.45933" lon="5.90699">
        <ele>1193</ele>
        <time>2021-07-31T07:27:21Z</time>
      </trkpt>
      <trkpt lat="45.45933" lon="5.90705">
        <ele>1194</ele>
        <time>2021-07-31T07:27:25Z</time>
      </trkpt>
      <trkpt lat="45.45936" lon="5.90711">
        <ele>1195</ele>
        <time>2021-07-31T07:27:33Z</time>
      </trkpt>
      <trkpt lat="45.45936" lon="5.90717">
        <ele>1196</ele>
        <time>2021-07-31T07:27:37Z</time>
      </trkpt>
      <trkpt lat="45.45935" lon="5.90728">
        <ele>1198</ele>
        <time>2021-07-31T07:27:47Z</time>
      </trkpt>
      <trkpt lat="45.45937" lon="5.90735">
        <ele>1199</ele>
        <time>2021-07-31T07:27:52Z</time>
      </trkpt>
      <trkpt lat="45.45938" lon="5.90742">
        <ele>1200</ele>
        <time>2021-07-31T07:27:57Z</time>
      </trkpt>
      <trkpt lat="45.45935" lon="5.90753">
        <ele>1202</ele>
        <time>2021-07-31T07:28:09Z</time>
      </trkpt>
      <trkpt lat="45.45937" lon="5.90761">
        <ele>1204</ele>
        <time>2021-07-31T07:28:19Z</time>
      </trkpt>
      <trkpt lat="45.45937" lon="5.90767">
        <ele>1205</ele>
        <time>2021-07-31T07:28:24Z</time>
      </trkpt>
      <trkpt lat="45.45936" lon="5.90772">
        <ele>1207</ele>
        <time>2021-07-31T07:28:34Z</time>
      </trkpt>
      <trkpt lat="45.45937" lon="5.90778">
        <ele>1208</ele>
        <time>2021-07-31T07:28:39Z</time>
      </trkpt>
      <trkpt lat="45.45941" lon="5.90781">
        <ele>1209</ele>
        <time>2021-07-31T07:28:46Z</time>
      </trkpt>
      <trkpt lat="45.45942" lon="5.90791">
        <ele>1212</ele>
        <time>2021-07-31T07:28:57Z</time>
      </trkpt>
      <trkpt lat="45.45941" lon="5.90809">
        <ele>1218</ele>
        <time>2021-07-31T07:29:27Z</time>
      </trkpt>
      <trkpt lat="45.4594" lon="5.90821">
        <ele>1222</ele>
        <time>2021-07-31T07:29:42Z</time>
      </trkpt>
      <trkpt lat="45.45947" lon="5.90838">
        <ele>1226</ele>
        <time>2021-07-31T07:30:01Z</time>
      </trkpt>
      <trkpt lat="45.4595" lon="5.90851">
        <ele>1228</ele>
        <time>2021-07-31T07:30:14Z</time>
      </trkpt>
      <trkpt lat="45.45953" lon="5.90857">
        <ele>1229</ele>
        <time>2021-07-31T07:30:19Z</time>
      </trkpt>
      <trkpt lat="45.45963" lon="5.90891">
        <ele>1233</ele>
        <time>2021-07-31T07:30:44Z</time>
      </trkpt>
      <trkpt lat="45.45962" lon="5.90902">
        <ele>1235</ele>
        <time>2021-07-31T07:30:55Z</time>
      </trkpt>
      <trkpt lat="45.45967" lon="5.90931">
        <ele>1242</ele>
        <time>2021-07-31T07:31:32Z</time>
      </trkpt>
      <trkpt lat="45.45968" lon="5.90958">
        <ele>1247</ele>
        <time>2021-07-31T07:31:56Z</time>
      </trkpt>
      <trkpt lat="45.45967" lon="5.90998">
        <ele>1256</ele>
        <time>2021-07-31T07:32:37Z</time>
      </trkpt>
      <trkpt lat="45.45966" lon="5.91007">
        <ele>1259</ele>
        <time>2021-07-31T07:32:55Z</time>
      </trkpt>
      <trkpt lat="45.45966" lon="5.9103">
        <ele>1263</ele>
        <time>2021-07-31T07:33:16Z</time>
      </trkpt>
      <trkpt lat="45.45966" lon="5.9104">
        <ele>1267</ele>
        <time>2021-07-31T07:33:31Z</time>
      </trkpt>
      <trkpt lat="45.45967" lon="5.91049">
        <ele>1270</ele>
        <time>2021-07-31T07:33:46Z</time>
      </trkpt>
      <trkpt lat="45.45965" lon="5.91057">
        <ele>1272</ele>
        <time>2021-07-31T07:33:56Z</time>
      </trkpt>
      <trkpt lat="45.45969" lon="5.91068">
        <ele>1274</ele>
        <time>2021-07-31T07:34:11Z</time>
      </trkpt>
      <trkpt lat="45.45966" lon="5.91085">
        <ele>1279</ele>
        <time>2021-07-31T07:34:36Z</time>
      </trkpt>
      <trkpt lat="45.45966" lon="5.91095">
        <ele>1282</ele>
        <time>2021-07-31T07:34:47Z</time>
      </trkpt>
      <trkpt lat="45.45965" lon="5.91104">
        <ele>1283</ele>
        <time>2021-07-31T07:34:57Z</time>
      </trkpt>
      <trkpt lat="45.45967" lon="5.91118">
        <ele>1287</ele>
        <time>2021-07-31T07:35:13Z</time>
      </trkpt>
      <trkpt lat="45.45964" lon="5.91144">
        <ele>1293</ele>
        <time>2021-07-31T07:35:49Z</time>
      </trkpt>
      <trkpt lat="45.45964" lon="5.91156">
        <ele>1297</ele>
        <time>2021-07-31T07:36:04Z</time>
      </trkpt>
      <trkpt lat="45.45966" lon="5.91164">
        <ele>1299</ele>
        <time>2021-07-31T07:36:15Z</time>
      </trkpt>
      <trkpt lat="45.45967" lon="5.91172">
        <ele>1302</ele>
        <time>2021-07-31T07:36:30Z</time>
      </trkpt>
      <trkpt lat="45.4596" lon="5.91187">
        <ele>1308</ele>
        <time>2021-07-31T07:37:00Z</time>
      </trkpt>
      <trkpt lat="45.45956" lon="5.91208">
        <ele>1314</ele>
        <time>2021-07-31T07:37:35Z</time>
      </trkpt>
      <trkpt lat="45.45957" lon="5.91219">
        <ele>1318</ele>
        <time>2021-07-31T07:37:50Z</time>
      </trkpt>
      <trkpt lat="45.45954" lon="5.91226">
        <ele>1320</ele>
        <time>2021-07-31T07:38:05Z</time>
      </trkpt>
      <trkpt lat="45.45951" lon="5.91234">
        <ele>1322</ele>
        <time>2021-07-31T07:38:15Z</time>
      </trkpt>
      <trkpt lat="45.45953" lon="5.91241">
        <ele>1325</ele>
        <time>2021-07-31T07:38:30Z</time>
      </trkpt>
      <trkpt lat="45.4595" lon="5.91261">
        <ele>1332</ele>
        <time>2021-07-31T07:39:05Z</time>
      </trkpt>
      <trkpt lat="45.45948" lon="5.91271">
        <ele>1335</ele>
        <time>2021-07-31T07:39:20Z</time>
      </trkpt>
      <trkpt lat="45.45945" lon="5.91278">
        <ele>1337</ele>
        <time>2021-07-31T07:39:35Z</time>
      </trkpt>
      <trkpt lat="45.45945" lon="5.91288">
        <ele>1339</ele>
        <time>2021-07-31T07:39:45Z</time>
      </trkpt>
      <trkpt lat="45.45947" lon="5.91299">
        <ele>1343</ele>
        <time>2021-07-31T07:40:05Z</time>
      </trkpt>
      <trkpt lat="45.45945" lon="5.91306">
        <ele>1346</ele>
        <time>2021-07-31T07:40:20Z</time>
      </trkpt>
      <trkpt lat="45.45946" lon="5.91315">
        <ele>1350</ele>
        <time>2021-07-31T07:40:40Z</time>
      </trkpt>
      <trkpt lat="45.45943" lon="5.91322">
        <ele>1353</ele>
        <time>2021-07-31T07:40:55Z</time>
      </trkpt>
      <trkpt lat="45.45943" lon="5.91334">
        <ele>1355</ele>
        <time>2021-07-31T07:41:07Z</time>
      </trkpt>
      <trkpt lat="45.45941" lon="5.91341">
        <ele>1359</ele>
        <time>2021-07-31T07:41:27Z</time>
      </trkpt>
      <trkpt lat="45.45934" lon="5.91359">
        <ele>1366</ele>
        <time>2021-07-31T07:41:59Z</time>
      </trkpt>
      <trkpt lat="45.45936" lon="5.91367">
        <ele>1368</ele>
        <time>2021-07-31T07:42:11Z</time>
      </trkpt>
      <trkpt lat="45.45936" lon="5.91377">
        <ele>1372</ele>
        <time>2021-07-31T07:42:29Z</time>
      </trkpt>
      <trkpt lat="45.45927" lon="5.91408">
        <ele>1381</ele>
        <time>2021-07-31T07:43:19Z</time>
      </trkpt>
      <trkpt lat="45.45929" lon="5.91416">
        <ele>1384</ele>
        <time>2021-07-31T07:43:34Z</time>
      </trkpt>
      <trkpt lat="45.45927" lon="5.91426">
        <ele>1388</ele>
        <time>2021-07-31T07:43:59Z</time>
      </trkpt>
      <trkpt lat="45.45927" lon="5.91437">
        <ele>1390</ele>
        <time>2021-07-31T07:44:09Z</time>
      </trkpt>
      <trkpt lat="45.45934" lon="5.91457">
        <ele>1396</ele>
        <time>2021-07-31T07:44:36Z</time>
      </trkpt>
      <trkpt lat="45.45936" lon="5.91465">
        <ele>1398</ele>
        <time>2021-07-31T07:44:49Z</time>
      </trkpt>
      <trkpt lat="45.45938" lon="5.91472">
        <ele>1401</ele>
        <time>2021-07-31T07:45:04Z</time>
      </trkpt>
      <trkpt lat="45.45951" lon="5.91484">
        <ele>1405</ele>
        <time>2021-07-31T07:45:34Z</time>
      </trkpt>
      <trkpt lat="45.45955" lon="5.91491">
        <ele>1406</ele>
        <time>2021-07-31T07:45:44Z</time>
      </trkpt>
      <trkpt lat="45.45961" lon="5.91502">
        <ele>1407</ele>
        <time>2021-07-31T07:45:56Z</time>
      </trkpt>
      <trkpt lat="45.4597" lon="5.9151">
        <ele>1410</ele>
        <time>2021-07-31T07:46:08Z</time>
      </trkpt>
      <trkpt lat="45.45975" lon="5.91513">
        <ele>1410</ele>
        <time>2021-07-31T07:46:14Z</time>
      </trkpt>
      <trkpt lat="45.45979" lon="5.91519">
        <ele>1411</ele>
        <time>2021-07-31T07:46:20Z</time>
      </trkpt>
      <trkpt lat="45.45981" lon="5.91526">
        <ele>1414</ele>
        <time>2021-07-31T07:46:37Z</time>
      </trkpt>
      <trkpt lat="45.45982" lon="5.91535">
        <ele>1418</ele>
        <time>2021-07-31T07:47:07Z</time>
      </trkpt>
      <trkpt lat="45.45989" lon="5.9153">
        <ele>1419</ele>
        <time>2021-07-31T07:47:23Z</time>
      </trkpt>
      <trkpt lat="45.45994" lon="5.91547">
        <ele>1425</ele>
        <time>2021-07-31T07:47:56Z</time>
      </trkpt>
      <trkpt lat="45.45999" lon="5.91555">
        <ele>1427</ele>
        <time>2021-07-31T07:48:08Z</time>
      </trkpt>
      <trkpt lat="45.46014" lon="5.91568">
        <ele>1434</ele>
        <time>2021-07-31T07:48:46Z</time>
      </trkpt>
      <trkpt lat="45.4602" lon="5.91577">
        <ele>1437</ele>
        <time>2021-07-31T07:49:01Z</time>
      </trkpt>
      <trkpt lat="45.46027" lon="5.91582">
        <ele>1440</ele>
        <time>2021-07-31T07:49:19Z</time>
      </trkpt>
      <trkpt lat="45.46047" lon="5.91605">
        <ele>1447</ele>
        <time>2021-07-31T07:49:58Z</time>
      </trkpt>
      <trkpt lat="45.4606" lon="5.91626">
        <ele>1452</ele>
        <time>2021-07-31T07:50:25Z</time>
      </trkpt>
      <trkpt lat="45.46066" lon="5.91634">
        <ele>1455</ele>
        <time>2021-07-31T07:50:40Z</time>
      </trkpt>
      <trkpt lat="45.46069" lon="5.91644">
        <ele>1460</ele>
        <time>2021-07-31T07:51:06Z</time>
      </trkpt>
      <trkpt lat="45.46071" lon="5.91653">
        <ele>1464</ele>
        <time>2021-07-31T07:51:26Z</time>
      </trkpt>
      <trkpt lat="45.46075" lon="5.91664">
        <ele>1468</ele>
        <time>2021-07-31T07:51:51Z</time>
      </trkpt>
      <trkpt lat="45.46079" lon="5.91679">
        <ele>1470</ele>
        <time>2021-07-31T07:52:04Z</time>
      </trkpt>
      <trkpt lat="45.46077" lon="5.91689">
        <ele>1476</ele>
        <time>2021-07-31T07:52:31Z</time>
      </trkpt>
      <trkpt lat="45.46082" lon="5.91703">
        <ele>1482</ele>
        <time>2021-07-31T07:53:04Z</time>
      </trkpt>
      <trkpt lat="45.46081" lon="5.91715">
        <ele>1487</ele>
        <time>2021-07-31T07:53:34Z</time>
      </trkpt>
      <trkpt lat="45.4608" lon="5.91739">
        <ele>1496</ele>
        <time>2021-07-31T07:54:19Z</time>
      </trkpt>
      <trkpt lat="45.46085" lon="5.91747">
        <ele>1497</ele>
        <time>2021-07-31T07:54:30Z</time>
      </trkpt>
      <trkpt lat="45.46087" lon="5.91762">
        <ele>1504</ele>
        <time>2021-07-31T07:55:11Z</time>
      </trkpt>
      <trkpt lat="45.46093" lon="5.91772">
        <ele>1510</ele>
        <time>2021-07-31T07:55:42Z</time>
      </trkpt>
      <trkpt lat="45.46102" lon="5.91795">
        <ele>1517</ele>
        <time>2021-07-31T07:56:19Z</time>
      </trkpt>
      <trkpt lat="45.46108" lon="5.91805">
        <ele>1523</ele>
        <time>2021-07-31T07:56:49Z</time>
      </trkpt>
      <trkpt lat="45.46107" lon="5.91814">
        <ele>1527</ele>
        <time>2021-07-31T07:57:07Z</time>
      </trkpt>
      <trkpt lat="45.46113" lon="5.91828">
        <ele>1532</ele>
        <time>2021-07-31T07:57:30Z</time>
      </trkpt>
      <trkpt lat="45.46115" lon="5.91841">
        <ele>1538</ele>
        <time>2021-07-31T07:58:06Z</time>
      </trkpt>
      <trkpt lat="45.46113" lon="5.91848">
        <ele>1541</ele>
        <time>2021-07-31T07:58:21Z</time>
      </trkpt>
      <trkpt lat="45.46117" lon="5.91857">
        <ele>1544</ele>
        <time>2021-07-31T07:58:41Z</time>
      </trkpt>
      <trkpt lat="45.46118" lon="5.91867">
        <ele>1549</ele>
        <time>2021-07-31T07:59:02Z</time>
      </trkpt>
      <trkpt lat="45.46122" lon="5.91872">
        <ele>1551</ele>
        <time>2021-07-31T07:59:14Z</time>
      </trkpt>
      <trkpt lat="45.46126" lon="5.91882">
        <ele>1554</ele>
        <time>2021-07-31T07:59:31Z</time>
      </trkpt>
      <trkpt lat="45.4613" lon="5.91889">
        <ele>1557</ele>
        <time>2021-07-31T07:59:46Z</time>
      </trkpt>
      <trkpt lat="45.46133" lon="5.91897">
        <ele>1563</ele>
        <time>2021-07-31T08:00:21Z</time>
      </trkpt>
      <trkpt lat="45.46138" lon="5.91913">
        <ele>1568</ele>
        <time>2021-07-31T08:00:48Z</time>
      </trkpt>
      <trkpt lat="45.46131" lon="5.91923">
        <ele>1574</ele>
        <time>2021-07-31T08:01:18Z</time>
      </trkpt>
      <trkpt lat="45.46127" lon="5.91934">
        <ele>1579</ele>
        <time>2021-07-31T08:01:43Z</time>
      </trkpt>
      <trkpt lat="45.46113" lon="5.91949">
        <ele>1585</ele>
        <time>2021-07-31T08:02:21Z</time>
      </trkpt>
      <trkpt lat="45.46102" lon="5.91959">
        <ele>1589</ele>
        <time>2021-07-31T08:02:41Z</time>
      </trkpt>
      <trkpt lat="45.46091" lon="5.91973">
        <ele>1595</ele>
        <time>2021-07-31T08:03:12Z</time>
      </trkpt>
      <trkpt lat="45.46088" lon="5.9198">
        <ele>1598</ele>
        <time>2021-07-31T08:03:29Z</time>
      </trkpt>
      <trkpt lat="45.4608" lon="5.91983">
        <ele>1599</ele>
        <time>2021-07-31T08:03:42Z</time>
      </trkpt>
      <trkpt lat="45.46075" lon="5.91987">
        <ele>1602</ele>
        <time>2021-07-31T08:03:56Z</time>
      </trkpt>
      <trkpt lat="45.46072" lon="5.91997">
        <ele>1608</ele>
        <time>2021-07-31T08:04:22Z</time>
      </trkpt>
      <trkpt lat="45.4607" lon="5.92004">
        <ele>1609</ele>
        <time>2021-07-31T08:04:28Z</time>
      </trkpt>
      <trkpt lat="45.46074" lon="5.92014">
        <ele>1613</ele>
        <time>2021-07-31T08:04:48Z</time>
      </trkpt>
      <trkpt lat="45.4607" lon="5.92022">
        <ele>1617</ele>
        <time>2021-07-31T08:05:13Z</time>
      </trkpt>
      <trkpt lat="45.46071" lon="5.92029">
        <ele>1621</ele>
        <time>2021-07-31T08:05:33Z</time>
      </trkpt>
      <trkpt lat="45.46074" lon="5.92038">
        <ele>1624</ele>
        <time>2021-07-31T08:05:48Z</time>
      </trkpt>
      <trkpt lat="45.46069" lon="5.92047">
        <ele>1629</ele>
        <time>2021-07-31T08:06:18Z</time>
      </trkpt>
      <trkpt lat="45.46069" lon="5.92057">
        <ele>1633</ele>
        <time>2021-07-31T08:06:38Z</time>
      </trkpt>
      <trkpt lat="45.46074" lon="5.92063">
        <ele>1636</ele>
        <time>2021-07-31T08:06:53Z</time>
      </trkpt>
      <trkpt lat="45.46077" lon="5.9207">
        <ele>1638</ele>
        <time>2021-07-31T08:07:03Z</time>
      </trkpt>
      <trkpt lat="45.46074" lon="5.92077">
        <ele>1642</ele>
        <time>2021-07-31T08:07:23Z</time>
      </trkpt>
      <trkpt lat="45.46072" lon="5.92086">
        <ele>1646</ele>
        <time>2021-07-31T08:08:03Z</time>
      </trkpt>
      <trkpt lat="45.46068" lon="5.92094">
        <ele>1652</ele>
        <time>2021-07-31T08:08:45Z</time>
      </trkpt>
      <trkpt lat="45.46072" lon="5.92101">
        <ele>1655</ele>
        <time>2021-07-31T08:08:58Z</time>
      </trkpt>
      <trkpt lat="45.46075" lon="5.92108">
        <ele>1657</ele>
        <time>2021-07-31T08:09:10Z</time>
      </trkpt>
      <trkpt lat="45.46077" lon="5.92117">
        <ele>1662</ele>
        <time>2021-07-31T08:09:32Z</time>
      </trkpt>
      <trkpt lat="45.46076" lon="5.92124">
        <ele>1665</ele>
        <time>2021-07-31T08:09:47Z</time>
      </trkpt>
      <trkpt lat="45.46071" lon="5.92128">
        <ele>1669</ele>
        <time>2021-07-31T08:10:12Z</time>
      </trkpt>
      <trkpt lat="45.46073" lon="5.92136">
        <ele>1673</ele>
        <time>2021-07-31T08:10:33Z</time>
      </trkpt>
      <trkpt lat="45.46079" lon="5.92144">
        <ele>1675</ele>
        <time>2021-07-31T08:10:43Z</time>
      </trkpt>
      <trkpt lat="45.46081" lon="5.92151">
        <ele>1681</ele>
        <time>2021-07-31T08:11:13Z</time>
      </trkpt>
      <trkpt lat="45.46085" lon="5.92159">
        <ele>1684</ele>
        <time>2021-07-31T08:11:28Z</time>
      </trkpt>
      <trkpt lat="45.46083" lon="5.92171">
        <ele>1689</ele>
        <time>2021-07-31T08:11:53Z</time>
      </trkpt>
      <trkpt lat="45.46083" lon="5.92181">
        <ele>1695</ele>
        <time>2021-07-31T08:12:23Z</time>
      </trkpt>
      <trkpt lat="45.46084" lon="5.9219">
        <ele>1700</ele>
        <time>2021-07-31T08:12:53Z</time>
      </trkpt>
      <trkpt lat="45.46085" lon="5.92201">
        <ele>1705</ele>
        <time>2021-07-31T08:13:14Z</time>
      </trkpt>
      <trkpt lat="45.4609" lon="5.92207">
        <ele>1710</ele>
        <time>2021-07-31T08:13:39Z</time>
      </trkpt>
      <trkpt lat="45.46093" lon="5.92215">
        <ele>1716</ele>
        <time>2021-07-31T08:14:14Z</time>
      </trkpt>
      <trkpt lat="45.46093" lon="5.92224">
        <ele>1720</ele>
        <time>2021-07-31T08:14:35Z</time>
      </trkpt>
      <trkpt lat="45.46094" lon="5.92232">
        <ele>1724</ele>
        <time>2021-07-31T08:14:57Z</time>
      </trkpt>
      <trkpt lat="45.46093" lon="5.92241">
        <ele>1730</ele>
        <time>2021-07-31T08:15:27Z</time>
      </trkpt>
      <trkpt lat="45.46096" lon="5.92249">
        <ele>1737</ele>
        <time>2021-07-31T08:16:13Z</time>
      </trkpt>
      <trkpt lat="45.46103" lon="5.92257">
        <ele>1743</ele>
        <time>2021-07-31T08:16:48Z</time>
      </trkpt>
      <trkpt lat="45.46112" lon="5.92261">
        <ele>1745</ele>
        <time>2021-07-31T08:17:03Z</time>
      </trkpt>
      <trkpt lat="45.46112" lon="5.9227">
        <ele>1752</ele>
        <time>2021-07-31T08:17:46Z</time>
      </trkpt>
      <trkpt lat="45.46107" lon="5.92275">
        <ele>1754</ele>
        <time>2021-07-31T08:17:58Z</time>
      </trkpt>
      <trkpt lat="45.46112" lon="5.92279">
        <ele>1758</ele>
        <time>2021-07-31T08:18:22Z</time>
      </trkpt>
      <trkpt lat="45.46107" lon="5.92288">
        <ele>1762</ele>
        <time>2021-07-31T08:18:43Z</time>
      </trkpt>
      <trkpt lat="45.46098" lon="5.92293">
        <ele>1768</ele>
        <time>2021-07-31T08:19:13Z</time>
      </trkpt>
      <trkpt lat="45.46102" lon="5.92303">
        <ele>1774</ele>
        <time>2021-07-31T08:19:49Z</time>
      </trkpt>
      <trkpt lat="45.46104" lon="5.92314">
        <ele>1777</ele>
        <time>2021-07-31T08:20:06Z</time>
      </trkpt>
      <trkpt lat="45.46099" lon="5.92317">
        <ele>1779</ele>
        <time>2021-07-31T08:20:24Z</time>
      </trkpt>
      <trkpt lat="45.46105" lon="5.92326">
        <ele>1786</ele>
        <time>2021-07-31T08:21:01Z</time>
      </trkpt>
      <trkpt lat="45.46102" lon="5.92336">
        <ele>1788</ele>
        <time>2021-07-31T08:21:16Z</time>
      </trkpt>
      <trkpt lat="45.46102" lon="5.92348">
        <ele>1791</ele>
        <time>2021-07-31T08:21:42Z</time>
      </trkpt>
      <trkpt lat="45.46095" lon="5.92339">
        <ele>1798</ele>
        <time>2021-07-31T08:22:28Z</time>
      </trkpt>
      <trkpt lat="45.46088" lon="5.92338">
        <ele>1799</ele>
        <time>2021-07-31T08:22:39Z</time>
      </trkpt>
      <trkpt lat="45.46071" lon="5.92331">
        <ele>1802</ele>
        <time>2021-07-31T08:23:00Z</time>
      </trkpt>
      <trkpt lat="45.46065" lon="5.92332">
        <ele>1802</ele>
        <time>2021-07-31T08:23:04Z</time>
      </trkpt>
      <trkpt lat="45.46059" lon="5.92335">
        <ele>1803</ele>
        <time>2021-07-31T08:23:09Z</time>
      </trkpt>
      <trkpt lat="45.46054" lon="5.92333">
        <ele>1802</ele>
        <time>2021-07-31T08:23:15Z</time>
      </trkpt>
      <trkpt lat="45.46046" lon="5.92331">
        <ele>1801</ele>
        <time>2021-07-31T08:23:22Z</time>
      </trkpt>
      <trkpt lat="45.46038" lon="5.92331">
        <ele>1801</ele>
        <time>2021-07-31T08:23:28Z</time>
      </trkpt>
      <trkpt lat="45.46031" lon="5.9233">
        <ele>1802</ele>
        <time>2021-07-31T08:23:35Z</time>
      </trkpt>
      <trkpt lat="45.46022" lon="5.92321">
        <ele>1802</ele>
        <time>2021-07-31T08:23:49Z</time>
      </trkpt>
      <trkpt lat="45.46013" lon="5.92323">
        <ele>1802</ele>
        <time>2021-07-31T08:23:56Z</time>
      </trkpt>
      <trkpt lat="45.46003" lon="5.92329">
        <ele>1801</ele>
        <time>2021-07-31T08:24:06Z</time>
      </trkpt>
      <trkpt lat="45.45997" lon="5.92333">
        <ele>1802</ele>
        <time>2021-07-31T08:24:12Z</time>
      </trkpt>
      <trkpt lat="45.45992" lon="5.9234">
        <ele>1805</ele>
        <time>2021-07-31T08:24:29Z</time>
      </trkpt>
      <trkpt lat="45.45985" lon="5.92344">
        <ele>1809</ele>
        <time>2021-07-31T08:24:46Z</time>
      </trkpt>
      <trkpt lat="45.45979" lon="5.92342">
        <ele>1812</ele>
        <time>2021-07-31T08:25:04Z</time>
      </trkpt>
      <trkpt lat="45.45972" lon="5.92342">
        <ele>1815</ele>
        <time>2021-07-31T08:25:26Z</time>
      </trkpt>
      <trkpt lat="45.4597" lon="5.9235">
        <ele>1818</ele>
        <time>2021-07-31T08:25:41Z</time>
      </trkpt>
      <trkpt lat="45.45969" lon="5.92358">
        <ele>1821</ele>
        <time>2021-07-31T08:25:56Z</time>
      </trkpt>
      <trkpt lat="45.45966" lon="5.92366">
        <ele>1823</ele>
        <time>2021-07-31T08:26:07Z</time>
      </trkpt>
      <trkpt lat="45.45949" lon="5.92357">
        <ele>1827</ele>
        <time>2021-07-31T08:26:30Z</time>
      </trkpt>
      <trkpt lat="45.45926" lon="5.9236">
        <ele>1828</ele>
        <time>2021-07-31T08:26:50Z</time>
      </trkpt>
      <trkpt lat="45.4592" lon="5.92361">
        <ele>1830</ele>
        <time>2021-07-31T08:26:59Z</time>
      </trkpt>
      <trkpt lat="45.45916" lon="5.9237">
        <ele>1835</ele>
        <time>2021-07-31T08:27:19Z</time>
      </trkpt>
      <trkpt lat="45.45919" lon="5.92376">
        <ele>1838</ele>
        <time>2021-07-31T08:27:34Z</time>
      </trkpt>
      <trkpt lat="45.45909" lon="5.92385">
        <ele>1846</ele>
        <time>2021-07-31T08:28:24Z</time>
      </trkpt>
      <trkpt lat="45.45901" lon="5.92385">
        <ele>1850</ele>
        <time>2021-07-31T08:28:49Z</time>
      </trkpt>
      <trkpt lat="45.45897" lon="5.92391">
        <ele>1855</ele>
        <time>2021-07-31T08:29:44Z</time>
      </trkpt>
      <trkpt lat="45.45892" lon="5.92391">
        <ele>1858</ele>
        <time>2021-07-31T08:29:59Z</time>
      </trkpt>
      <trkpt lat="45.45886" lon="5.92394">
        <ele>1863</ele>
        <time>2021-07-31T08:30:29Z</time>
      </trkpt>
      <trkpt lat="45.459" lon="5.92402">
        <ele>1870</ele>
        <time>2021-07-31T08:31:35Z</time>
      </trkpt>
      <trkpt lat="45.45918" lon="5.92407">
        <ele>1869</ele>
        <time>2021-07-31T08:32:22Z</time>
      </trkpt>
      <trkpt lat="45.45926" lon="5.92428">
        <ele>1870</ele>
        <time>2021-07-31T08:32:50Z</time>
      </trkpt>
      <trkpt lat="45.45938" lon="5.92429">
        <ele>1876</ele>
        <time>2021-07-31T08:33:28Z</time>
      </trkpt>
      <trkpt lat="45.45944" lon="5.9243">
        <ele>1877</ele>
        <time>2021-07-31T08:33:34Z</time>
      </trkpt>
      <trkpt lat="45.45954" lon="5.92429">
        <ele>1878</ele>
        <time>2021-07-31T08:33:53Z</time>
      </trkpt>
      <trkpt lat="45.45958" lon="5.92433">
        <ele>1878</ele>
        <time>2021-07-31T08:33:59Z</time>
      </trkpt>
      <trkpt lat="45.45965" lon="5.92437">
        <ele>1878</ele>
        <time>2021-07-31T08:34:08Z</time>
      </trkpt>
      <trkpt lat="45.45975" lon="5.92443">
        <ele>1879</ele>
        <time>2021-07-31T08:34:21Z</time>
      </trkpt>
      <trkpt lat="45.45981" lon="5.92445">
        <ele>1879</ele>
        <time>2021-07-31T08:34:27Z</time>
      </trkpt>
      <trkpt lat="45.45994" lon="5.9244">
        <ele>1879</ele>
        <time>2021-07-31T08:34:40Z</time>
      </trkpt>
      <trkpt lat="45.45997" lon="5.92437">
        <ele>1879</ele>
        <time>2021-07-31T08:34:44Z</time>
      </trkpt>
      <trkpt lat="45.46004" lon="5.92429">
        <ele>1880</ele>
        <time>2021-07-31T08:34:53Z</time>
      </trkpt>
      <trkpt lat="45.46009" lon="5.92432">
        <ele>1891</ele>
        <time>2021-07-31T08:35:52Z</time>
      </trkpt>
      <trkpt lat="45.46005" lon="5.92439">
        <ele>1891</ele>
        <time>2021-07-31T08:35:58Z</time>
      </trkpt>
      <trkpt lat="45.46005" lon="5.92451">
        <ele>1894</ele>
        <time>2021-07-31T08:36:13Z</time>
      </trkpt>
      <trkpt lat="45.46008" lon="5.92454">
        <ele>1895</ele>
        <time>2021-07-31T08:36:16Z</time>
      </trkpt>
      <trkpt lat="45.46011" lon="5.92452">
        <ele>1894</ele>
        <time>2021-07-31T08:36:27Z</time>
      </trkpt>
      <trkpt lat="45.46017" lon="5.9245">
        <ele>1895</ele>
        <time>2021-07-31T08:37:15Z</time>
      </trkpt>
      <trkpt lat="45.46022" lon="5.92443">
        <ele>1897</ele>
        <time>2021-07-31T08:37:22Z</time>
      </trkpt>
      <trkpt lat="45.46032" lon="5.92438">
        <ele>1898</ele>
        <time>2021-07-31T08:37:33Z</time>
      </trkpt>
      <trkpt lat="45.46044" lon="5.92435">
        <ele>1898</ele>
        <time>2021-07-31T08:37:43Z</time>
      </trkpt>
      <trkpt lat="45.46049" lon="5.92435">
        <ele>1899</ele>
        <time>2021-07-31T08:37:48Z</time>
      </trkpt>
      <trkpt lat="45.46059" lon="5.92435">
        <ele>1899</ele>
        <time>2021-07-31T08:38:04Z</time>
      </trkpt>
      <trkpt lat="45.46068" lon="5.92437">
        <ele>1896</ele>
        <time>2021-07-31T08:38:20Z</time>
      </trkpt>
      <trkpt lat="45.46074" lon="5.9244">
        <ele>1896</ele>
        <time>2021-07-31T08:38:26Z</time>
      </trkpt>
      <trkpt lat="45.46079" lon="5.92436">
        <ele>1896</ele>
        <time>2021-07-31T08:38:31Z</time>
      </trkpt>
      <trkpt lat="45.46089" lon="5.92442">
        <ele>1896</ele>
        <time>2021-07-31T08:38:49Z</time>
      </trkpt>
      <trkpt lat="45.46096" lon="5.92444">
        <ele>1894</ele>
        <time>2021-07-31T08:38:53Z</time>
      </trkpt>
      <trkpt lat="45.46118" lon="5.92456">
        <ele>1892</ele>
        <time>2021-07-31T08:39:09Z</time>
      </trkpt>
      <trkpt lat="45.46163" lon="5.92475">
        <ele>1895</ele>
        <time>2021-07-31T08:39:32Z</time>
      </trkpt>
      <trkpt lat="45.46168" lon="5.92478">
        <ele>1894</ele>
        <time>2021-07-31T08:39:36Z</time>
      </trkpt>
      <trkpt lat="45.46174" lon="5.92476">
        <ele>1894</ele>
        <time>2021-07-31T08:39:41Z</time>
      </trkpt>
      <trkpt lat="45.46178" lon="5.92475">
        <ele>1894</ele>
        <time>2021-07-31T08:39:44Z</time>
      </trkpt>
      <trkpt lat="45.4621" lon="5.92485">
        <ele>1891</ele>
        <time>2021-07-31T08:40:03Z</time>
      </trkpt>
      <trkpt lat="45.46214" lon="5.92485">
        <ele>1891</ele>
        <time>2021-07-31T08:40:05Z</time>
      </trkpt>
      <trkpt lat="45.4622" lon="5.92484">
        <ele>1891</ele>
        <time>2021-07-31T08:40:08Z</time>
      </trkpt>
      <trkpt lat="45.46235" lon="5.92487">
        <ele>1890</ele>
        <time>2021-07-31T08:40:16Z</time>
      </trkpt>
      <trkpt lat="45.4624" lon="5.92487">
        <ele>1890</ele>
        <time>2021-07-31T08:40:18Z</time>
      </trkpt>
      <trkpt lat="45.46245" lon="5.92487">
        <ele>1890</ele>
        <time>2021-07-31T08:40:20Z</time>
      </trkpt>
      <trkpt lat="45.46254" lon="5.92491">
        <ele>1890</ele>
        <time>2021-07-31T08:40:24Z</time>
      </trkpt>
      <trkpt lat="45.46302" lon="5.92519">
        <ele>1892</ele>
        <time>2021-07-31T08:40:48Z</time>
      </trkpt>
      <trkpt lat="45.46308" lon="5.9252">
        <ele>1893</ele>
        <time>2021-07-31T08:40:51Z</time>
      </trkpt>
      <trkpt lat="45.46328" lon="5.92528">
        <ele>1894</ele>
        <time>2021-07-31T08:41:01Z</time>
      </trkpt>
      <trkpt lat="45.46337" lon="5.92529">
        <ele>1895</ele>
        <time>2021-07-31T08:41:10Z</time>
      </trkpt>
      <trkpt lat="45.46341" lon="5.92534">
        <ele>1895</ele>
        <time>2021-07-31T08:41:13Z</time>
      </trkpt>
      <trkpt lat="45.46348" lon="5.92545">
        <ele>1897</ele>
        <time>2021-07-31T08:41:19Z</time>
      </trkpt>
      <trkpt lat="45.46354" lon="5.92549">
        <ele>1898</ele>
        <time>2021-07-31T08:41:24Z</time>
      </trkpt>
      <trkpt lat="45.46357" lon="5.92557">
        <ele>1898</ele>
        <time>2021-07-31T08:41:29Z</time>
      </trkpt>
      <trkpt lat="45.46359" lon="5.92564">
        <ele>1898</ele>
        <time>2021-07-31T08:41:33Z</time>
      </trkpt>
      <trkpt lat="45.46375" lon="5.92576">
        <ele>1901</ele>
        <time>2021-07-31T08:41:48Z</time>
      </trkpt>
      <trkpt lat="45.46384" lon="5.92581">
        <ele>1903</ele>
        <time>2021-07-31T08:42:01Z</time>
      </trkpt>
      <trkpt lat="45.46388" lon="5.92581">
        <ele>1904</ele>
        <time>2021-07-31T08:42:04Z</time>
      </trkpt>
      <trkpt lat="45.46392" lon="5.92585">
        <ele>1905</ele>
        <time>2021-07-31T08:42:11Z</time>
      </trkpt>
      <trkpt lat="45.46409" lon="5.92595">
        <ele>1908</ele>
        <time>2021-07-31T08:42:30Z</time>
      </trkpt>
      <trkpt lat="45.46422" lon="5.92594">
        <ele>1908</ele>
        <time>2021-07-31T08:42:41Z</time>
      </trkpt>
      <trkpt lat="45.46426" lon="5.92597">
        <ele>1908</ele>
        <time>2021-07-31T08:42:45Z</time>
      </trkpt>
      <trkpt lat="45.46432" lon="5.92598">
        <ele>1908</ele>
        <time>2021-07-31T08:42:51Z</time>
      </trkpt>
      <trkpt lat="45.46436" lon="5.92598">
        <ele>1907</ele>
        <time>2021-07-31T08:42:54Z</time>
      </trkpt>
      <trkpt lat="45.4644" lon="5.92599">
        <ele>1907</ele>
        <time>2021-07-31T08:42:58Z</time>
      </trkpt>
      <trkpt lat="45.46446" lon="5.926">
        <ele>1908</ele>
        <time>2021-07-31T08:43:05Z</time>
      </trkpt>
      <trkpt lat="45.4645" lon="5.92601">
        <ele>1908</ele>
        <time>2021-07-31T08:43:08Z</time>
      </trkpt>
      <trkpt lat="45.46454" lon="5.926">
        <ele>1908</ele>
        <time>2021-07-31T08:43:12Z</time>
      </trkpt>
      <trkpt lat="45.46459" lon="5.92598">
        <ele>1909</ele>
        <time>2021-07-31T08:43:20Z</time>
      </trkpt>
      <trkpt lat="45.46464" lon="5.92601">
        <ele>1908</ele>
        <time>2021-07-31T08:43:23Z</time>
      </trkpt>
      <trkpt lat="45.46467" lon="5.92601">
        <ele>1908</ele>
        <time>2021-07-31T08:43:25Z</time>
      </trkpt>
      <trkpt lat="45.46472" lon="5.92599">
        <ele>1908</ele>
        <time>2021-07-31T08:43:28Z</time>
      </trkpt>
      <trkpt lat="45.46476" lon="5.92599">
        <ele>1908</ele>
        <time>2021-07-31T08:43:32Z</time>
      </trkpt>
      <trkpt lat="45.4648" lon="5.926">
        <ele>1908</ele>
        <time>2021-07-31T08:43:35Z</time>
      </trkpt>
      <trkpt lat="45.46484" lon="5.92603">
        <ele>1908</ele>
        <time>2021-07-31T08:43:38Z</time>
      </trkpt>
      <trkpt lat="45.46491" lon="5.92598">
        <ele>1909</ele>
        <time>2021-07-31T08:43:47Z</time>
      </trkpt>
      <trkpt lat="45.46499" lon="5.92598">
        <ele>1909</ele>
        <time>2021-07-31T08:43:55Z</time>
      </trkpt>
      <trkpt lat="45.46504" lon="5.92599">
        <ele>1909</ele>
        <time>2021-07-31T08:43:59Z</time>
      </trkpt>
      <trkpt lat="45.4652" lon="5.92602">
        <ele>1908</ele>
        <time>2021-07-31T08:44:12Z</time>
      </trkpt>
      <trkpt lat="45.46525" lon="5.926">
        <ele>1908</ele>
        <time>2021-07-31T08:44:20Z</time>
      </trkpt>
      <trkpt lat="45.46537" lon="5.92602">
        <ele>1908</ele>
        <time>2021-07-31T08:44:29Z</time>
      </trkpt>
      <trkpt lat="45.46546" lon="5.92598">
        <ele>1908</ele>
        <time>2021-07-31T08:44:37Z</time>
      </trkpt>
      <trkpt lat="45.46548" lon="5.92594">
        <ele>1908</ele>
        <time>2021-07-31T08:44:40Z</time>
      </trkpt>
      <trkpt lat="45.46556" lon="5.92589">
        <ele>1908</ele>
        <time>2021-07-31T08:44:47Z</time>
      </trkpt>
      <trkpt lat="45.46559" lon="5.92585">
        <ele>1909</ele>
        <time>2021-07-31T08:44:50Z</time>
      </trkpt>
      <trkpt lat="45.46563" lon="5.92583">
        <ele>1909</ele>
        <time>2021-07-31T08:44:54Z</time>
      </trkpt>
      <trkpt lat="45.46584" lon="5.9258">
        <ele>1911</ele>
        <time>2021-07-31T08:45:18Z</time>
      </trkpt>
      <trkpt lat="45.4659" lon="5.92576">
        <ele>1912</ele>
        <time>2021-07-31T08:45:25Z</time>
      </trkpt>
      <trkpt lat="45.46594" lon="5.92573">
        <ele>1912</ele>
        <time>2021-07-31T08:45:29Z</time>
      </trkpt>
      <trkpt lat="45.46598" lon="5.92572">
        <ele>1913</ele>
        <time>2021-07-31T08:45:33Z</time>
      </trkpt>
      <trkpt lat="45.46601" lon="5.92569">
        <ele>1913</ele>
        <time>2021-07-31T08:45:37Z</time>
      </trkpt>
      <trkpt lat="45.4661" lon="5.92565">
        <ele>1914</ele>
        <time>2021-07-31T08:45:43Z</time>
      </trkpt>
      <trkpt lat="45.46613" lon="5.92564">
        <ele>1914</ele>
        <time>2021-07-31T08:45:47Z</time>
      </trkpt>
      <trkpt lat="45.46617" lon="5.92561">
        <ele>1914</ele>
        <time>2021-07-31T08:45:51Z</time>
      </trkpt>
      <trkpt lat="45.46627" lon="5.92549">
        <ele>1912</ele>
        <time>2021-07-31T08:46:03Z</time>
      </trkpt>
      <trkpt lat="45.46628" lon="5.92544">
        <ele>1911</ele>
        <time>2021-07-31T08:46:07Z</time>
      </trkpt>
      <trkpt lat="45.46649" lon="5.92517">
        <ele>1903</ele>
        <time>2021-07-31T08:46:36Z</time>
      </trkpt>
      <trkpt lat="45.46661" lon="5.92511">
        <ele>1901</ele>
        <time>2021-07-31T08:46:53Z</time>
      </trkpt>
      <trkpt lat="45.46666" lon="5.92511">
        <ele>1901</ele>
        <time>2021-07-31T08:46:56Z</time>
      </trkpt>
      <trkpt lat="45.46669" lon="5.92508">
        <ele>1902</ele>
        <time>2021-07-31T08:46:59Z</time>
      </trkpt>
      <trkpt lat="45.46673" lon="5.92507">
        <ele>1902</ele>
        <time>2021-07-31T08:47:03Z</time>
      </trkpt>
      <trkpt lat="45.46677" lon="5.9251">
        <ele>1902</ele>
        <time>2021-07-31T08:47:07Z</time>
      </trkpt>
      <trkpt lat="45.46681" lon="5.92508">
        <ele>1902</ele>
        <time>2021-07-31T08:47:10Z</time>
      </trkpt>
      <trkpt lat="45.46684" lon="5.92506">
        <ele>1902</ele>
        <time>2021-07-31T08:47:13Z</time>
      </trkpt>
      <trkpt lat="45.46688" lon="5.92506">
        <ele>1902</ele>
        <time>2021-07-31T08:47:16Z</time>
      </trkpt>
      <trkpt lat="45.46697" lon="5.92502">
        <ele>1902</ele>
        <time>2021-07-31T08:47:23Z</time>
      </trkpt>
      <trkpt lat="45.467" lon="5.92501">
        <ele>1902</ele>
        <time>2021-07-31T08:47:27Z</time>
      </trkpt>
      <trkpt lat="45.46705" lon="5.92501">
        <ele>1903</ele>
        <time>2021-07-31T08:47:30Z</time>
      </trkpt>
      <trkpt lat="45.46713" lon="5.92496">
        <ele>1903</ele>
        <time>2021-07-31T08:47:37Z</time>
      </trkpt>
      <trkpt lat="45.4672" lon="5.9249">
        <ele>1902</ele>
        <time>2021-07-31T08:47:45Z</time>
      </trkpt>
      <trkpt lat="45.46729" lon="5.92488">
        <ele>1901</ele>
        <time>2021-07-31T08:47:53Z</time>
      </trkpt>
      <trkpt lat="45.46736" lon="5.92482">
        <ele>1901</ele>
        <time>2021-07-31T08:47:59Z</time>
      </trkpt>
      <trkpt lat="45.46738" lon="5.92477">
        <ele>1901</ele>
        <time>2021-07-31T08:51:53Z</time>
      </trkpt>
      <trkpt lat="45.46735" lon="5.92473">
        <ele>1898</ele>
        <time>2021-07-31T08:57:31Z</time>
      </trkpt>
      <trkpt lat="45.46726" lon="5.92478">
        <ele>1897</ele>
        <time>2021-07-31T08:57:42Z</time>
      </trkpt>
      <trkpt lat="45.46721" lon="5.92483">
        <ele>1898</ele>
        <time>2021-07-31T08:57:46Z</time>
      </trkpt>
      <trkpt lat="45.46705" lon="5.92494">
        <ele>1900</ele>
        <time>2021-07-31T08:58:00Z</time>
      </trkpt>
      <trkpt lat="45.467" lon="5.92499">
        <ele>1900</ele>
        <time>2021-07-31T08:58:05Z</time>
      </trkpt>
      <trkpt lat="45.46689" lon="5.925">
        <ele>1899</ele>
        <time>2021-07-31T08:58:14Z</time>
      </trkpt>
      <trkpt lat="45.46683" lon="5.92503">
        <ele>1900</ele>
        <time>2021-07-31T08:58:18Z</time>
      </trkpt>
      <trkpt lat="45.46677" lon="5.92504">
        <ele>1900</ele>
        <time>2021-07-31T08:58:24Z</time>
      </trkpt>
      <trkpt lat="45.46672" lon="5.92504">
        <ele>1900</ele>
        <time>2021-07-31T08:58:28Z</time>
      </trkpt>
      <trkpt lat="45.46665" lon="5.925">
        <ele>1900</ele>
        <time>2021-07-31T08:58:34Z</time>
      </trkpt>
      <trkpt lat="45.46656" lon="5.92504">
        <ele>1897</ele>
        <time>2021-07-31T08:58:41Z</time>
      </trkpt>
      <trkpt lat="45.46649" lon="5.92508">
        <ele>1901</ele>
        <time>2021-07-31T08:58:49Z</time>
      </trkpt>
      <trkpt lat="45.46645" lon="5.92512">
        <ele>1899</ele>
        <time>2021-07-31T08:58:54Z</time>
      </trkpt>
      <trkpt lat="45.4664" lon="5.92526">
        <ele>1907</ele>
        <time>2021-07-31T08:59:03Z</time>
      </trkpt>
      <trkpt lat="45.46636" lon="5.92531">
        <ele>1904</ele>
        <time>2021-07-31T08:59:08Z</time>
      </trkpt>
      <trkpt lat="45.46633" lon="5.92537">
        <ele>1904</ele>
        <time>2021-07-31T08:59:13Z</time>
      </trkpt>
      <trkpt lat="45.46627" lon="5.92543">
        <ele>1907</ele>
        <time>2021-07-31T08:59:24Z</time>
      </trkpt>
      <trkpt lat="45.46617" lon="5.92557">
        <ele>1910</ele>
        <time>2021-07-31T08:59:44Z</time>
      </trkpt>
      <trkpt lat="45.46608" lon="5.92566">
        <ele>1912</ele>
        <time>2021-07-31T08:59:56Z</time>
      </trkpt>
      <trkpt lat="45.46592" lon="5.9258">
        <ele>1912</ele>
        <time>2021-07-31T09:00:10Z</time>
      </trkpt>
      <trkpt lat="45.46584" lon="5.92585">
        <ele>1911</ele>
        <time>2021-07-31T09:00:14Z</time>
      </trkpt>
      <trkpt lat="45.46576" lon="5.92585">
        <ele>1910</ele>
        <time>2021-07-31T09:00:20Z</time>
      </trkpt>
      <trkpt lat="45.46571" lon="5.92582">
        <ele>1910</ele>
        <time>2021-07-31T09:00:25Z</time>
      </trkpt>
      <trkpt lat="45.46565" lon="5.92584">
        <ele>1910</ele>
        <time>2021-07-31T09:00:31Z</time>
      </trkpt>
      <trkpt lat="45.46562" lon="5.92582">
        <ele>1909</ele>
        <time>2021-07-31T09:00:35Z</time>
      </trkpt>
      <trkpt lat="45.46558" lon="5.92585">
        <ele>1909</ele>
        <time>2021-07-31T09:00:39Z</time>
      </trkpt>
      <trkpt lat="45.46552" lon="5.92587">
        <ele>1908</ele>
        <time>2021-07-31T09:00:42Z</time>
      </trkpt>
      <trkpt lat="45.46541" lon="5.92592">
        <ele>1909</ele>
        <time>2021-07-31T09:00:50Z</time>
      </trkpt>
      <trkpt lat="45.46537" lon="5.92594">
        <ele>1908</ele>
        <time>2021-07-31T09:00:53Z</time>
      </trkpt>
      <trkpt lat="45.46531" lon="5.92595">
        <ele>1908</ele>
        <time>2021-07-31T09:00:58Z</time>
      </trkpt>
      <trkpt lat="45.46517" lon="5.92597">
        <ele>1908</ele>
        <time>2021-07-31T09:01:08Z</time>
      </trkpt>
      <trkpt lat="45.46508" lon="5.92598">
        <ele>1908</ele>
        <time>2021-07-31T09:01:13Z</time>
      </trkpt>
      <trkpt lat="45.465" lon="5.92596">
        <ele>1909</ele>
        <time>2021-07-31T09:01:26Z</time>
      </trkpt>
      <trkpt lat="45.46495" lon="5.92594">
        <ele>1907</ele>
        <time>2021-07-31T09:01:32Z</time>
      </trkpt>
      <trkpt lat="45.46489" lon="5.92592">
        <ele>1908</ele>
        <time>2021-07-31T09:01:36Z</time>
      </trkpt>
      <trkpt lat="45.46481" lon="5.92592">
        <ele>1909</ele>
        <time>2021-07-31T09:01:43Z</time>
      </trkpt>
      <trkpt lat="45.46473" lon="5.92593">
        <ele>1909</ele>
        <time>2021-07-31T09:01:47Z</time>
      </trkpt>
      <trkpt lat="45.46467" lon="5.92593">
        <ele>1908</ele>
        <time>2021-07-31T09:01:51Z</time>
      </trkpt>
      <trkpt lat="45.46458" lon="5.92594">
        <ele>1911</ele>
        <time>2021-07-31T09:01:56Z</time>
      </trkpt>
      <trkpt lat="45.46452" lon="5.92595">
        <ele>1910</ele>
        <time>2021-07-31T09:02:02Z</time>
      </trkpt>
      <trkpt lat="45.46447" lon="5.926">
        <ele>1909</ele>
        <time>2021-07-31T09:02:08Z</time>
      </trkpt>
      <trkpt lat="45.46443" lon="5.92597">
        <ele>1907</ele>
        <time>2021-07-31T09:02:25Z</time>
      </trkpt>
      <trkpt lat="45.46436" lon="5.92595">
        <ele>1909</ele>
        <time>2021-07-31T09:02:30Z</time>
      </trkpt>
      <trkpt lat="45.46426" lon="5.92593">
        <ele>1909</ele>
        <time>2021-07-31T09:02:37Z</time>
      </trkpt>
      <trkpt lat="45.46421" lon="5.9259">
        <ele>1909</ele>
        <time>2021-07-31T09:02:42Z</time>
      </trkpt>
      <trkpt lat="45.46415" lon="5.92587">
        <ele>1909</ele>
        <time>2021-07-31T09:02:47Z</time>
      </trkpt>
      <trkpt lat="45.4641" lon="5.92587">
        <ele>1909</ele>
        <time>2021-07-31T09:02:52Z</time>
      </trkpt>
      <trkpt lat="45.46403" lon="5.92583">
        <ele>1909</ele>
        <time>2021-07-31T09:02:57Z</time>
      </trkpt>
      <trkpt lat="45.46397" lon="5.92579">
        <ele>1909</ele>
        <time>2021-07-31T09:03:02Z</time>
      </trkpt>
      <trkpt lat="45.4639" lon="5.92576">
        <ele>1908</ele>
        <time>2021-07-31T09:03:05Z</time>
      </trkpt>
      <trkpt lat="45.46379" lon="5.92573">
        <ele>1906</ele>
        <time>2021-07-31T09:03:10Z</time>
      </trkpt>
      <trkpt lat="45.46357" lon="5.92556">
        <ele>1900</ele>
        <time>2021-07-31T09:03:25Z</time>
      </trkpt>
      <trkpt lat="45.46353" lon="5.92549">
        <ele>1899</ele>
        <time>2021-07-31T09:03:28Z</time>
      </trkpt>
      <trkpt lat="45.46342" lon="5.92536">
        <ele>1898</ele>
        <time>2021-07-31T09:03:34Z</time>
      </trkpt>
      <trkpt lat="45.46338" lon="5.92529">
        <ele>1897</ele>
        <time>2021-07-31T09:03:37Z</time>
      </trkpt>
      <trkpt lat="45.46332" lon="5.92526">
        <ele>1896</ele>
        <time>2021-07-31T09:03:40Z</time>
      </trkpt>
      <trkpt lat="45.46324" lon="5.92523">
        <ele>1895</ele>
        <time>2021-07-31T09:03:44Z</time>
      </trkpt>
      <trkpt lat="45.46306" lon="5.92514">
        <ele>1894</ele>
        <time>2021-07-31T09:03:56Z</time>
      </trkpt>
      <trkpt lat="45.46294" lon="5.92514">
        <ele>1893</ele>
        <time>2021-07-31T09:04:03Z</time>
      </trkpt>
      <trkpt lat="45.46272" lon="5.92502">
        <ele>1892</ele>
        <time>2021-07-31T09:04:20Z</time>
      </trkpt>
      <trkpt lat="45.46266" lon="5.925">
        <ele>1892</ele>
        <time>2021-07-31T09:04:25Z</time>
      </trkpt>
      <trkpt lat="45.46247" lon="5.92485">
        <ele>1891</ele>
        <time>2021-07-31T09:04:38Z</time>
      </trkpt>
      <trkpt lat="45.46241" lon="5.92482">
        <ele>1891</ele>
        <time>2021-07-31T09:04:42Z</time>
      </trkpt>
      <trkpt lat="45.46234" lon="5.92481">
        <ele>1890</ele>
        <time>2021-07-31T09:04:45Z</time>
      </trkpt>
      <trkpt lat="45.46198" lon="5.92476">
        <ele>1892</ele>
        <time>2021-07-31T09:05:07Z</time>
      </trkpt>
      <trkpt lat="45.4618" lon="5.92471">
        <ele>1894</ele>
        <time>2021-07-31T09:05:23Z</time>
      </trkpt>
      <trkpt lat="45.46175" lon="5.92472">
        <ele>1895</ele>
        <time>2021-07-31T09:05:28Z</time>
      </trkpt>
      <trkpt lat="45.46169" lon="5.92474">
        <ele>1895</ele>
        <time>2021-07-31T09:05:33Z</time>
      </trkpt>
      <trkpt lat="45.46163" lon="5.92473">
        <ele>1895</ele>
        <time>2021-07-31T09:05:39Z</time>
      </trkpt>
      <trkpt lat="45.46157" lon="5.9247">
        <ele>1895</ele>
        <time>2021-07-31T09:05:43Z</time>
      </trkpt>
      <trkpt lat="45.4615" lon="5.92468">
        <ele>1895</ele>
        <time>2021-07-31T09:05:48Z</time>
      </trkpt>
      <trkpt lat="45.46128" lon="5.92457">
        <ele>1894</ele>
        <time>2021-07-31T09:06:04Z</time>
      </trkpt>
      <trkpt lat="45.46109" lon="5.92452">
        <ele>1893</ele>
        <time>2021-07-31T09:06:14Z</time>
      </trkpt>
      <trkpt lat="45.46089" lon="5.92442">
        <ele>1895</ele>
        <time>2021-07-31T09:06:31Z</time>
      </trkpt>
      <trkpt lat="45.46083" lon="5.92439">
        <ele>1896</ele>
        <time>2021-07-31T09:06:38Z</time>
      </trkpt>
      <trkpt lat="45.46077" lon="5.92436">
        <ele>1897</ele>
        <time>2021-07-31T09:06:46Z</time>
      </trkpt>
      <trkpt lat="45.46066" lon="5.92438">
        <ele>1896</ele>
        <time>2021-07-31T09:07:04Z</time>
      </trkpt>
      <trkpt lat="45.46059" lon="5.92435">
        <ele>1898</ele>
        <time>2021-07-31T09:07:13Z</time>
      </trkpt>
      <trkpt lat="45.46051" lon="5.92435">
        <ele>1898</ele>
        <time>2021-07-31T09:07:24Z</time>
      </trkpt>
      <trkpt lat="45.46044" lon="5.92434">
        <ele>1898</ele>
        <time>2021-07-31T09:07:29Z</time>
      </trkpt>
      <trkpt lat="45.46039" lon="5.92435">
        <ele>1897</ele>
        <time>2021-07-31T09:07:32Z</time>
      </trkpt>
      <trkpt lat="45.46033" lon="5.92439">
        <ele>1896</ele>
        <time>2021-07-31T09:07:35Z</time>
      </trkpt>
      <trkpt lat="45.46027" lon="5.92442">
        <ele>1896</ele>
        <time>2021-07-31T09:07:39Z</time>
      </trkpt>
      <trkpt lat="45.46022" lon="5.92445">
        <ele>1896</ele>
        <time>2021-07-31T09:07:44Z</time>
      </trkpt>
      <trkpt lat="45.46015" lon="5.92451">
        <ele>1894</ele>
        <time>2021-07-31T09:07:52Z</time>
      </trkpt>
      <trkpt lat="45.46013" lon="5.92445">
        <ele>1890</ele>
        <time>2021-07-31T09:08:17Z</time>
      </trkpt>
      <trkpt lat="45.46018" lon="5.92442">
        <ele>1889</ele>
        <time>2021-07-31T09:08:22Z</time>
      </trkpt>
      <trkpt lat="45.46017" lon="5.92431">
        <ele>1882</ele>
        <time>2021-07-31T09:08:39Z</time>
      </trkpt>
      <trkpt lat="45.4601" lon="5.92431">
        <ele>1879</ele>
        <time>2021-07-31T09:08:50Z</time>
      </trkpt>
      <trkpt lat="45.46004" lon="5.92435">
        <ele>1877</ele>
        <time>2021-07-31T09:08:58Z</time>
      </trkpt>
      <trkpt lat="45.45991" lon="5.92439">
        <ele>1877</ele>
        <time>2021-07-31T09:09:10Z</time>
      </trkpt>
      <trkpt lat="45.45985" lon="5.92441">
        <ele>1877</ele>
        <time>2021-07-31T09:09:21Z</time>
      </trkpt>
      <trkpt lat="45.45981" lon="5.92434">
        <ele>1877</ele>
        <time>2021-07-31T09:09:31Z</time>
      </trkpt>
      <trkpt lat="45.45971" lon="5.9243">
        <ele>1877</ele>
        <time>2021-07-31T09:09:37Z</time>
      </trkpt>
      <trkpt lat="45.4596" lon="5.92428">
        <ele>1877</ele>
        <time>2021-07-31T09:09:43Z</time>
      </trkpt>
      <trkpt lat="45.45947" lon="5.92428">
        <ele>1875</ele>
        <time>2021-07-31T09:09:52Z</time>
      </trkpt>
      <trkpt lat="45.45939" lon="5.92428">
        <ele>1870</ele>
        <time>2021-07-31T09:10:26Z</time>
      </trkpt>
      <trkpt lat="45.45933" lon="5.92428">
        <ele>1870</ele>
        <time>2021-07-31T09:10:41Z</time>
      </trkpt>
      <trkpt lat="45.45925" lon="5.92429">
        <ele>1870</ele>
        <time>2021-07-31T09:10:53Z</time>
      </trkpt>
      <trkpt lat="45.45915" lon="5.92423">
        <ele>1872</ele>
        <time>2021-07-31T09:11:06Z</time>
      </trkpt>
      <trkpt lat="45.45909" lon="5.92419">
        <ele>1871</ele>
        <time>2021-07-31T09:11:23Z</time>
      </trkpt>
      <trkpt lat="45.45907" lon="5.92408">
        <ele>1870</ele>
        <time>2021-07-31T09:11:42Z</time>
      </trkpt>
      <trkpt lat="45.4591" lon="5.92388">
        <ele>1854</ele>
        <time>2021-07-31T09:14:48Z</time>
      </trkpt>
      <trkpt lat="45.45918" lon="5.92389">
        <ele>1848</ele>
        <time>2021-07-31T09:15:59Z</time>
      </trkpt>
      <trkpt lat="45.45924" lon="5.92388">
        <ele>1842</ele>
        <time>2021-07-31T09:16:24Z</time>
      </trkpt>
      <trkpt lat="45.45929" lon="5.92384">
        <ele>1838</ele>
        <time>2021-07-31T09:16:44Z</time>
      </trkpt>
      <trkpt lat="45.45939" lon="5.92379">
        <ele>1835</ele>
        <time>2021-07-31T09:17:21Z</time>
      </trkpt>
      <trkpt lat="45.45946" lon="5.92371">
        <ele>1834</ele>
        <time>2021-07-31T09:17:43Z</time>
      </trkpt>
      <trkpt lat="45.4595" lon="5.92366">
        <ele>1834</ele>
        <time>2021-07-31T09:17:47Z</time>
      </trkpt>
      <trkpt lat="45.45963" lon="5.9237">
        <ele>1832</ele>
        <time>2021-07-31T09:17:58Z</time>
      </trkpt>
      <trkpt lat="45.4597" lon="5.9237">
        <ele>1831</ele>
        <time>2021-07-31T09:18:05Z</time>
      </trkpt>
      <trkpt lat="45.45976" lon="5.92372">
        <ele>1828</ele>
        <time>2021-07-31T09:18:18Z</time>
      </trkpt>
      <trkpt lat="45.45981" lon="5.92367">
        <ele>1825</ele>
        <time>2021-07-31T09:18:33Z</time>
      </trkpt>
      <trkpt lat="45.45993" lon="5.92368">
        <ele>1820</ele>
        <time>2021-07-31T09:18:58Z</time>
      </trkpt>
      <trkpt lat="45.46" lon="5.92362">
        <ele>1816</ele>
        <time>2021-07-31T09:19:14Z</time>
      </trkpt>
      <trkpt lat="45.46006" lon="5.9236">
        <ele>1813</ele>
        <time>2021-07-31T09:19:30Z</time>
      </trkpt>
      <trkpt lat="45.46015" lon="5.92348">
        <ele>1810</ele>
        <time>2021-07-31T09:19:41Z</time>
      </trkpt>
      <trkpt lat="45.46024" lon="5.92345">
        <ele>1811</ele>
        <time>2021-07-31T09:19:51Z</time>
      </trkpt>
      <trkpt lat="45.46031" lon="5.92347">
        <ele>1810</ele>
        <time>2021-07-31T09:20:01Z</time>
      </trkpt>
      <trkpt lat="45.46037" lon="5.92351">
        <ele>1811</ele>
        <time>2021-07-31T09:20:07Z</time>
      </trkpt>
      <trkpt lat="45.46042" lon="5.92353">
        <ele>1810</ele>
        <time>2021-07-31T09:20:12Z</time>
      </trkpt>
      <trkpt lat="45.46049" lon="5.9235">
        <ele>1810</ele>
        <time>2021-07-31T09:20:20Z</time>
      </trkpt>
      <trkpt lat="45.46061" lon="5.92346">
        <ele>1812</ele>
        <time>2021-07-31T09:20:33Z</time>
      </trkpt>
      <trkpt lat="45.46068" lon="5.92345">
        <ele>1812</ele>
        <time>2021-07-31T09:20:41Z</time>
      </trkpt>
      <trkpt lat="45.46073" lon="5.92344">
        <ele>1810</ele>
        <time>2021-07-31T09:20:58Z</time>
      </trkpt>
      <trkpt lat="45.46082" lon="5.92346">
        <ele>1812</ele>
        <time>2021-07-31T09:21:05Z</time>
      </trkpt>
      <trkpt lat="45.46087" lon="5.92344">
        <ele>1810</ele>
        <time>2021-07-31T09:21:10Z</time>
      </trkpt>
      <trkpt lat="45.46095" lon="5.9234">
        <ele>1809</ele>
        <time>2021-07-31T09:21:23Z</time>
      </trkpt>
      <trkpt lat="45.46101" lon="5.92347">
        <ele>1807</ele>
        <time>2021-07-31T09:21:31Z</time>
      </trkpt>
      <trkpt lat="45.46109" lon="5.92349">
        <ele>1807</ele>
        <time>2021-07-31T09:21:39Z</time>
      </trkpt>
      <trkpt lat="45.46114" lon="5.92306">
        <ele>1776</ele>
        <time>2021-07-31T09:24:18Z</time>
      </trkpt>
      <trkpt lat="45.46129" lon="5.92297">
        <ele>1770</ele>
        <time>2021-07-31T09:24:47Z</time>
      </trkpt>
      <trkpt lat="45.46126" lon="5.92288">
        <ele>1766</ele>
        <time>2021-07-31T09:25:02Z</time>
      </trkpt>
      <trkpt lat="45.46121" lon="5.92279">
        <ele>1763</ele>
        <time>2021-07-31T09:25:23Z</time>
      </trkpt>
      <trkpt lat="45.46118" lon="5.92275">
        <ele>1753</ele>
        <time>2021-07-31T09:26:43Z</time>
      </trkpt>
      <trkpt lat="45.46118" lon="5.92266">
        <ele>1749</ele>
        <time>2021-07-31T09:27:04Z</time>
      </trkpt>
      <trkpt lat="45.46111" lon="5.92265">
        <ele>1746</ele>
        <time>2021-07-31T09:27:19Z</time>
      </trkpt>
      <trkpt lat="45.46106" lon="5.92259">
        <ele>1743</ele>
        <time>2021-07-31T09:27:30Z</time>
      </trkpt>
      <trkpt lat="45.46105" lon="5.92254">
        <ele>1742</ele>
        <time>2021-07-31T09:27:40Z</time>
      </trkpt>
      <trkpt lat="45.46104" lon="5.92249">
        <ele>1740</ele>
        <time>2021-07-31T09:27:44Z</time>
      </trkpt>
      <trkpt lat="45.46101" lon="5.92231">
        <ele>1727</ele>
        <time>2021-07-31T09:28:28Z</time>
      </trkpt>
      <trkpt lat="45.46101" lon="5.92216">
        <ele>1726</ele>
        <time>2021-07-31T09:29:05Z</time>
      </trkpt>
      <trkpt lat="45.46099" lon="5.92196">
        <ele>1713</ele>
        <time>2021-07-31T09:29:21Z</time>
      </trkpt>
      <trkpt lat="45.461" lon="5.92188">
        <ele>1709</ele>
        <time>2021-07-31T09:29:36Z</time>
      </trkpt>
      <trkpt lat="45.46102" lon="5.92179">
        <ele>1705</ele>
        <time>2021-07-31T09:29:42Z</time>
      </trkpt>
      <trkpt lat="45.46087" lon="5.92142">
        <ele>1687</ele>
        <time>2021-07-31T09:30:08Z</time>
      </trkpt>
      <trkpt lat="45.46086" lon="5.92124">
        <ele>1684</ele>
        <time>2021-07-31T09:30:27Z</time>
      </trkpt>
      <trkpt lat="45.4609" lon="5.92113">
        <ele>1675</ele>
        <time>2021-07-31T09:30:34Z</time>
      </trkpt>
      <trkpt lat="45.46087" lon="5.92103">
        <ele>1670</ele>
        <time>2021-07-31T09:30:40Z</time>
      </trkpt>
      <trkpt lat="45.46086" lon="5.92083">
        <ele>1660</ele>
        <time>2021-07-31T09:30:59Z</time>
      </trkpt>
      <trkpt lat="45.4608" lon="5.92074">
        <ele>1652</ele>
        <time>2021-07-31T09:31:20Z</time>
      </trkpt>
      <trkpt lat="45.46077" lon="5.92062">
        <ele>1645</ele>
        <time>2021-07-31T09:31:35Z</time>
      </trkpt>
      <trkpt lat="45.4608" lon="5.92052">
        <ele>1639</ele>
        <time>2021-07-31T09:31:50Z</time>
      </trkpt>
      <trkpt lat="45.46079" lon="5.92041">
        <ele>1633</ele>
        <time>2021-07-31T09:32:10Z</time>
      </trkpt>
      <trkpt lat="45.46074" lon="5.92029">
        <ele>1629</ele>
        <time>2021-07-31T09:32:25Z</time>
      </trkpt>
      <trkpt lat="45.46077" lon="5.92018">
        <ele>1624</ele>
        <time>2021-07-31T09:32:50Z</time>
      </trkpt>
      <trkpt lat="45.46079" lon="5.92008">
        <ele>1619</ele>
        <time>2021-07-31T09:33:10Z</time>
      </trkpt>
      <trkpt lat="45.4608" lon="5.91998">
        <ele>1614</ele>
        <time>2021-07-31T09:33:30Z</time>
      </trkpt>
      <trkpt lat="45.46076" lon="5.91988">
        <ele>1610</ele>
        <time>2021-07-31T09:34:00Z</time>
      </trkpt>
      <trkpt lat="45.46083" lon="5.91984">
        <ele>1607</ele>
        <time>2021-07-31T09:34:36Z</time>
      </trkpt>
      <trkpt lat="45.4609" lon="5.91982">
        <ele>1605</ele>
        <time>2021-07-31T09:34:46Z</time>
      </trkpt>
      <trkpt lat="45.46094" lon="5.91977">
        <ele>1603</ele>
        <time>2021-07-31T09:34:56Z</time>
      </trkpt>
      <trkpt lat="45.46117" lon="5.91958">
        <ele>1590</ele>
        <time>2021-07-31T09:35:29Z</time>
      </trkpt>
      <trkpt lat="45.46136" lon="5.91938">
        <ele>1581</ele>
        <time>2021-07-31T09:35:50Z</time>
      </trkpt>
      <trkpt lat="45.46137" lon="5.91928">
        <ele>1576</ele>
        <time>2021-07-31T09:36:01Z</time>
      </trkpt>
      <trkpt lat="45.46138" lon="5.91914">
        <ele>1571</ele>
        <time>2021-07-31T09:36:12Z</time>
      </trkpt>
      <trkpt lat="45.46129" lon="5.919">
        <ele>1562</ele>
        <time>2021-07-31T09:36:29Z</time>
      </trkpt>
      <trkpt lat="45.46126" lon="5.91875">
        <ele>1553</ele>
        <time>2021-07-31T09:36:48Z</time>
      </trkpt>
      <trkpt lat="45.46123" lon="5.91865">
        <ele>1551</ele>
        <time>2021-07-31T09:36:53Z</time>
      </trkpt>
      <trkpt lat="45.46121" lon="5.91847">
        <ele>1545</ele>
        <time>2021-07-31T09:37:09Z</time>
      </trkpt>
      <trkpt lat="45.46117" lon="5.91835">
        <ele>1540</ele>
        <time>2021-07-31T09:37:20Z</time>
      </trkpt>
      <trkpt lat="45.46115" lon="5.91821">
        <ele>1531</ele>
        <time>2021-07-31T09:37:38Z</time>
      </trkpt>
      <trkpt lat="45.46112" lon="5.9181">
        <ele>1524</ele>
        <time>2021-07-31T09:37:58Z</time>
      </trkpt>
      <trkpt lat="45.46108" lon="5.91797">
        <ele>1521</ele>
        <time>2021-07-31T09:38:11Z</time>
      </trkpt>
      <trkpt lat="45.46103" lon="5.91781">
        <ele>1514</ele>
        <time>2021-07-31T09:38:33Z</time>
      </trkpt>
      <trkpt lat="45.461" lon="5.91771">
        <ele>1511</ele>
        <time>2021-07-31T09:38:40Z</time>
      </trkpt>
      <trkpt lat="45.46092" lon="5.9174">
        <ele>1499</ele>
        <time>2021-07-31T09:39:13Z</time>
      </trkpt>
      <trkpt lat="45.46084" lon="5.91705">
        <ele>1486</ele>
        <time>2021-07-31T09:39:49Z</time>
      </trkpt>
      <trkpt lat="45.4608" lon="5.91652">
        <ele>1470</ele>
        <time>2021-07-31T09:40:25Z</time>
      </trkpt>
      <trkpt lat="45.46072" lon="5.91623">
        <ele>1462</ele>
        <time>2021-07-31T09:40:47Z</time>
      </trkpt>
      <trkpt lat="45.4604" lon="5.91584">
        <ele>1447</ele>
        <time>2021-07-31T09:41:23Z</time>
      </trkpt>
      <trkpt lat="45.46017" lon="5.91559">
        <ele>1440</ele>
        <time>2021-07-31T09:41:39Z</time>
      </trkpt>
      <trkpt lat="45.46009" lon="5.91529">
        <ele>1430</ele>
        <time>2021-07-31T09:42:02Z</time>
      </trkpt>
      <trkpt lat="45.45996" lon="5.91516">
        <ele>1430</ele>
        <time>2021-07-31T09:42:15Z</time>
      </trkpt>
      <trkpt lat="45.45985" lon="5.91503">
        <ele>1425</ele>
        <time>2021-07-31T09:42:25Z</time>
      </trkpt>
      <trkpt lat="45.45995" lon="5.91492">
        <ele>1419</ele>
        <time>2021-07-31T09:43:45Z</time>
      </trkpt>
      <trkpt lat="45.46009" lon="5.91472">
        <ele>1414</ele>
        <time>2021-07-31T09:44:06Z</time>
      </trkpt>
      <trkpt lat="45.46024" lon="5.91468">
        <ele>1400</ele>
        <time>2021-07-31T09:44:48Z</time>
      </trkpt>
      <trkpt lat="45.46024" lon="5.91418">
        <ele>1385</ele>
        <time>2021-07-31T09:45:17Z</time>
      </trkpt>
      <trkpt lat="45.46028" lon="5.91377">
        <ele>1377</ele>
        <time>2021-07-31T09:45:39Z</time>
      </trkpt>
      <trkpt lat="45.46027" lon="5.91356">
        <ele>1372</ele>
        <time>2021-07-31T09:45:53Z</time>
      </trkpt>
      <trkpt lat="45.46029" lon="5.91335">
        <ele>1367</ele>
        <time>2021-07-31T09:46:05Z</time>
      </trkpt>
      <trkpt lat="45.46046" lon="5.91285">
        <ele>1349</ele>
        <time>2021-07-31T09:46:47Z</time>
      </trkpt>
      <trkpt lat="45.46046" lon="5.91263">
        <ele>1342</ele>
        <time>2021-07-31T09:47:01Z</time>
      </trkpt>
      <trkpt lat="45.46046" lon="5.91244">
        <ele>1333</ele>
        <time>2021-07-31T09:47:22Z</time>
      </trkpt>
      <trkpt lat="45.46048" lon="5.91204">
        <ele>1322</ele>
        <time>2021-07-31T09:47:51Z</time>
      </trkpt>
      <trkpt lat="45.46044" lon="5.91162">
        <ele>1313</ele>
        <time>2021-07-31T09:48:18Z</time>
      </trkpt>
      <trkpt lat="45.46042" lon="5.9114">
        <ele>1305</ele>
        <time>2021-07-31T09:48:50Z</time>
      </trkpt>
      <trkpt lat="45.46037" lon="5.91118">
        <ele>1300</ele>
        <time>2021-07-31T09:49:01Z</time>
      </trkpt>
      <trkpt lat="45.46032" lon="5.91059">
        <ele>1284</ele>
        <time>2021-07-31T09:50:19Z</time>
      </trkpt>
      <trkpt lat="45.46005" lon="5.91017">
        <ele>1276</ele>
        <time>2021-07-31T09:50:54Z</time>
      </trkpt>
      <trkpt lat="45.4599" lon="5.91006">
        <ele>1273</ele>
        <time>2021-07-31T09:51:04Z</time>
      </trkpt>
      <trkpt lat="45.45977" lon="5.90995">
        <ele>1273</ele>
        <time>2021-07-31T09:51:12Z</time>
      </trkpt>
      <trkpt lat="45.45966" lon="5.90982">
        <ele>1270</ele>
        <time>2021-07-31T09:51:23Z</time>
      </trkpt>
      <trkpt lat="45.45969" lon="5.90931">
        <ele>1260</ele>
        <time>2021-07-31T09:52:09Z</time>
      </trkpt>
      <trkpt lat="45.4597" lon="5.90889">
        <ele>1252</ele>
        <time>2021-07-31T09:52:42Z</time>
      </trkpt>
      <trkpt lat="45.45956" lon="5.90836">
        <ele>1243</ele>
        <time>2021-07-31T09:53:16Z</time>
      </trkpt>
      <trkpt lat="45.45942" lon="5.90756">
        <ele>1225</ele>
        <time>2021-07-31T09:54:06Z</time>
      </trkpt>
      <trkpt lat="45.45946" lon="5.90681">
        <ele>1208</ele>
        <time>2021-07-31T09:55:03Z</time>
      </trkpt>
      <trkpt lat="45.45942" lon="5.90625">
        <ele>1194</ele>
        <time>2021-07-31T09:55:50Z</time>
      </trkpt>
      <trkpt lat="45.45965" lon="5.90598">
        <ele>1189</ele>
        <time>2021-07-31T09:56:14Z</time>
      </trkpt>
      <trkpt lat="45.45973" lon="5.90579">
        <ele>1186</ele>
        <time>2021-07-31T09:56:24Z</time>
      </trkpt>
      <trkpt lat="45.45979" lon="5.90538">
        <ele>1178</ele>
        <time>2021-07-31T09:56:50Z</time>
      </trkpt>
      <trkpt lat="45.45979" lon="5.90518">
        <ele>1170</ele>
        <time>2021-07-31T09:57:03Z</time>
      </trkpt>
      <trkpt lat="45.46021" lon="5.90493">
        <ele>1163</ele>
        <time>2021-07-31T09:57:56Z</time>
      </trkpt>
      <trkpt lat="45.46034" lon="5.90483">
        <ele>1162</ele>
        <time>2021-07-31T09:58:08Z</time>
      </trkpt>
      <trkpt lat="45.46043" lon="5.90466">
        <ele>1159</ele>
        <time>2021-07-31T09:58:20Z</time>
      </trkpt>
      <trkpt lat="45.46057" lon="5.90464">
        <ele>1156</ele>
        <time>2021-07-31T09:58:35Z</time>
      </trkpt>
      <trkpt lat="45.46075" lon="5.90479">
        <ele>1153</ele>
        <time>2021-07-31T09:58:59Z</time>
      </trkpt>
      <trkpt lat="45.46099" lon="5.90503">
        <ele>1152</ele>
        <time>2021-07-31T09:59:26Z</time>
      </trkpt>
      <trkpt lat="45.4613" lon="5.9052">
        <ele>1146</ele>
        <time>2021-07-31T09:59:57Z</time>
      </trkpt>
      <trkpt lat="45.46185" lon="5.90528">
        <ele>1134</ele>
        <time>2021-07-31T10:00:38Z</time>
      </trkpt>
      <trkpt lat="45.4621" lon="5.90553">
        <ele>1126</ele>
        <time>2021-07-31T10:01:08Z</time>
      </trkpt>
      <trkpt lat="45.46267" lon="5.90581">
        <ele>1117</ele>
        <time>2021-07-31T10:01:49Z</time>
      </trkpt>
      <trkpt lat="45.46297" lon="5.90585">
        <ele>1110</ele>
        <time>2021-07-31T10:02:13Z</time>
      </trkpt>
      <trkpt lat="45.46326" lon="5.90605">
        <ele>1107</ele>
        <time>2021-07-31T10:02:37Z</time>
      </trkpt>
      <trkpt lat="45.46354" lon="5.90612">
        <ele>1107</ele>
        <time>2021-07-31T10:02:59Z</time>
      </trkpt>
      <trkpt lat="45.46384" lon="5.90603">
        <ele>1104</ele>
        <time>2021-07-31T10:03:22Z</time>
      </trkpt>
      <trkpt lat="45.4641" lon="5.90587">
        <ele>1102</ele>
        <time>2021-07-31T10:03:47Z</time>
      </trkpt>
      <trkpt lat="45.46413" lon="5.90541">
        <ele>1097</ele>
        <time>2021-07-31T10:06:46Z</time>
      </trkpt>
      <trkpt lat="45.46421" lon="5.90498">
        <ele>1096</ele>
        <time>2021-07-31T10:06:56Z</time>
      </trkpt>
      <trkpt lat="45.46427" lon="5.90457">
        <ele>1091</ele>
        <time>2021-07-31T10:07:04Z</time>
      </trkpt>
      <trkpt lat="45.46449" lon="5.90418">
        <ele>1087</ele>
        <time>2021-07-31T10:07:11Z</time>
      </trkpt>
      <trkpt lat="45.4647" lon="5.90381">
        <ele>1087</ele>
        <time>2021-07-31T10:07:16Z</time>
      </trkpt>
      <trkpt lat="45.46498" lon="5.90357">
        <ele>1086</ele>
        <time>2021-07-31T10:07:21Z</time>
      </trkpt>
      <trkpt lat="45.46629" lon="5.90268">
        <ele>1074</ele>
        <time>2021-07-31T10:07:36Z</time>
      </trkpt>
      <trkpt lat="45.46658" lon="5.90255">
        <ele>1071</ele>
        <time>2021-07-31T10:07:39Z</time>
      </trkpt>
      <trkpt lat="45.46686" lon="5.9025">
        <ele>1067</ele>
        <time>2021-07-31T10:07:42Z</time>
      </trkpt>
      <trkpt lat="45.46715" lon="5.90254">
        <ele>1067</ele>
        <time>2021-07-31T10:07:45Z</time>
      </trkpt>
      <trkpt lat="45.46819" lon="5.90295">
        <ele>1060</ele>
        <time>2021-07-31T10:07:55Z</time>
      </trkpt>
      <trkpt lat="45.46946" lon="5.90284">
        <ele>1054</ele>
        <time>2021-07-31T10:08:09Z</time>
      </trkpt>
      <trkpt lat="45.47008" lon="5.90293">
        <ele>1056</ele>
        <time>2021-07-31T10:08:18Z</time>
      </trkpt>
      <trkpt lat="45.50581" lon="5.92317">
        <ele>889</ele>
        <time>2021-07-31T10:15:45Z</time>
      </trkpt>
      <trkpt lat="45.50614" lon="5.9234">
        <ele>887</ele>
        <time>2021-07-31T10:15:47Z</time>
      </trkpt>
      <trkpt lat="45.50841" lon="5.92315">
        <ele>866</ele>
        <time>2021-07-31T10:16:15Z</time>
      </trkpt>
      <trkpt lat="45.50842" lon="5.92318">
        <ele>872</ele>
        <time>2021-07-31T10:16:16Z</time>
      </trkpt>
      <trkpt lat="45.5086" lon="5.92354">
        <ele>859</ele>
        <time>2021-07-31T10:16:19Z</time>
      </trkpt>
      <trkpt lat="45.50879" lon="5.92396">
        <ele>850</ele>
        <time>2021-07-31T10:16:22Z</time>
      </trkpt>
      <trkpt lat="45.50915" lon="5.9249">
        <ele>845</ele>
        <time>2021-07-31T10:16:28Z</time>
      </trkpt>
      <trkpt lat="45.50937" lon="5.92518">
        <ele>844</ele>
        <time>2021-07-31T10:16:31Z</time>
      </trkpt>
      <trkpt lat="45.51032" lon="5.9258">
        <ele>843</ele>
        <time>2021-07-31T10:16:40Z</time>
      </trkpt>
      <trkpt lat="45.51104" lon="5.9265">
        <ele>838</ele>
        <time>2021-07-31T10:16:49Z</time>
      </trkpt>
      <trkpt lat="45.51152" lon="5.92652">
        <ele>830</ele>
        <time>2021-07-31T10:16:57Z</time>
      </trkpt>
      <trkpt lat="45.51201" lon="5.92597">
        <ele>833</ele>
        <time>2021-07-31T10:17:01Z</time>
      </trkpt>
      <trkpt lat="45.5123" lon="5.92565">
        <ele>832</ele>
        <time>2021-07-31T10:17:06Z</time>
      </trkpt>
      <trkpt lat="45.51318" lon="5.92427">
        <ele>795</ele>
        <time>2021-07-31T10:17:54Z</time>
      </trkpt>
      <trkpt lat="45.51417" lon="5.92296">
        <ele>781</ele>
        <time>2021-07-31T10:18:12Z</time>
      </trkpt>
      <trkpt lat="45.53646" lon="5.92801">
        <ele>594.7</ele>
        <time>2021-07-31T10:25:00Z</time>
      </trkpt>
      <trkpt lat="45.53657" lon="5.92781">
        <ele>611</ele>
        <time>2021-07-31T10:25:01Z</time>
      </trkpt>
      <trkpt lat="45.53716" lon="5.92803">
        <ele>610</ele>
        <time>2021-07-31T10:25:07Z</time>
      </trkpt>
      <trkpt lat="45.53738" lon="5.92812">
        <ele>614</ele>
        <time>2021-07-31T10:25:09Z</time>
      </trkpt>
      <trkpt lat="45.5386" lon="5.92853">
        <ele>586</ele>
        <time>2021-07-31T10:25:20Z</time>
      </trkpt>
      <trkpt lat="45.53903" lon="5.92864">
        <ele>587</ele>
        <time>2021-07-31T10:25:23Z</time>
      </trkpt>
      <trkpt lat="45.54003" lon="5.92912">
        <ele>575</ele>
        <time>2021-07-31T10:25:33Z</time>
      </trkpt>
      <trkpt lat="45.54035" lon="5.92943">
        <ele>573</ele>
        <time>2021-07-31T10:25:37Z</time>
      </trkpt>
      <trkpt lat="45.54065" lon="5.92956">
        <ele>570</ele>
        <time>2021-07-31T10:25:40Z</time>
      </trkpt>
      <trkpt lat="45.54067" lon="5.93013">
        <ele>567</ele>
        <time>2021-07-31T10:25:43Z</time>
      </trkpt>
      <trkpt lat="45.54025" lon="5.93052">
        <ele>566</ele>
        <time>2021-07-31T10:25:51Z</time>
      </trkpt>
      <trkpt lat="45.53971" lon="5.93067">
        <ele>565</ele>
        <time>2021-07-31T10:25:55Z</time>
      </trkpt>
      <trkpt lat="45.53934" lon="5.93077">
        <ele>560</ele>
        <time>2021-07-31T10:25:57Z</time>
      </trkpt>
      <trkpt lat="45.53913" lon="5.93096">
        <ele>556</ele>
        <time>2021-07-31T10:25:59Z</time>
      </trkpt>
      <trkpt lat="45.55002" lon="5.93912">
        <ele>405</ele>
        <time>2021-07-31T10:29:12Z</time>
      </trkpt>
      <trkpt lat="45.55224" lon="5.93756">
        <ele>387</ele>
        <time>2021-07-31T10:30:10Z</time>
      </trkpt>
      <trkpt lat="45.55223" lon="5.93783">
        <ele>397</ele>
        <time>2021-07-31T10:30:14Z</time>
      </trkpt>
      <trkpt lat="45.55219" lon="5.93783">
        <ele>396</ele>
        <time>2021-07-31T10:31:44Z</time>
      </trkpt>
      <trkpt lat="45.55227" lon="5.93793">
        <ele>371</ele>
        <time>2021-08-01T18:53:08Z</time>
      </trkpt>
      <trkpt lat="45.55227" lon="5.93792">
        <ele>371</ele>
        <time>2021-08-01T18:53:12Z</time>
      </trkpt>
    </trkseg>
  </trk>
  <trk>
    <name><![CDATA[15 juil. 2021 à 08:05:16]]></name>
    <cmt><![CDATA[15 juil. 2021 à 08:05:16]]></cmt>
    <trkseg>
      <trkpt lat="45.12348" lon="6.59983">
        <ele>2502</ele>
        <time>2021-07-15T06:05:23Z</time>
      </trkpt>
      <trkpt lat="45.12346" lon="6.59989">
        <ele>2501</ele>
        <time>2021-07-15T06:05:32Z</time>
      </trkpt>
      <trkpt lat="45.12354" lon="6.59961">
        <ele>2501</ele>
        <time>2021-07-15T06:05:48Z</time>
      </trkpt>
      <trkpt lat="45.12338" lon="6.59894">
        <ele>2501</ele>
        <time>2021-07-15T06:06:26Z</time>
      </trkpt>
      <trkpt lat="45.12339" lon="6.59849">
        <ele>2501</ele>
        <time>2021-07-15T06:06:43Z</time>
      </trkpt>
      <trkpt lat="45.12376" lon="6.59749">
        <ele>2501</ele>
        <time>2021-07-15T06:07:13Z</time>
      </trkpt>
      <trkpt lat="45.12437" lon="6.59574">
        <ele>2501</ele>
        <time>2021-07-15T06:07:38Z</time>
      </trkpt>
      <trkpt lat="45.12439" lon="6.5952">
        <ele>2502</ele>
        <time>2021-07-15T06:07:45Z</time>
      </trkpt>
      <trkpt lat="45.12432" lon="6.59394">
        <ele>2501</ele>
        <time>2021-07-15T06:08:02Z</time>
      </trkpt>
      <trkpt lat="45.12453" lon="6.59263">
        <ele>2503</ele>
        <time>2021-07-15T06:08:26Z</time>
      </trkpt>
      <trkpt lat="45.12492" lon="6.59296">
        <ele>2503</ele>
        <time>2021-07-15T06:09:25Z</time>
      </trkpt>
      <trkpt lat="45.1251" lon="6.5933">
        <ele>2502</ele>
        <time>2021-07-15T06:09:31Z</time>
      </trkpt>
      <trkpt lat="45.12542" lon="6.59418">
        <ele>2503</ele>
        <time>2021-07-15T06:09:40Z</time>
      </trkpt>
      <trkpt lat="45.1254" lon="6.5947">
        <ele>2503</ele>
        <time>2021-07-15T06:09:47Z</time>
      </trkpt>
      <trkpt lat="45.12506" lon="6.59528">
        <ele>2506</ele>
        <time>2021-07-15T06:09:57Z</time>
      </trkpt>
      <trkpt lat="45.12499" lon="6.59594">
        <ele>2503</ele>
        <time>2021-07-15T06:10:00Z</time>
      </trkpt>
      <trkpt lat="45.12497" lon="6.59637">
        <ele>2502</ele>
        <time>2021-07-15T06:10:02Z</time>
      </trkpt>
      <trkpt lat="45.12486" lon="6.59668">
        <ele>2504</ele>
        <time>2021-07-15T06:10:05Z</time>
      </trkpt>
      <trkpt lat="45.12482" lon="6.59708">
        <ele>2505</ele>
        <time>2021-07-15T06:10:10Z</time>
      </trkpt>
      <trkpt lat="45.12432" lon="6.59795">
        <ele>2506</ele>
        <time>2021-07-15T06:10:22Z</time>
      </trkpt>
      <trkpt lat="45.12403" lon="6.59793">
        <ele>2508</ele>
        <time>2021-07-15T06:10:26Z</time>
      </trkpt>
      <trkpt lat="45.12354" lon="6.59797">
        <ele>2509</ele>
        <time>2021-07-15T06:10:34Z</time>
      </trkpt>
      <trkpt lat="45.12355" lon="6.5982">
        <ele>2512</ele>
        <time>2021-07-15T06:10:51Z</time>
      </trkpt>
      <trkpt lat="45.12379" lon="6.59802">
        <ele>2512</ele>
        <time>2021-07-15T06:13:45Z</time>
      </trkpt>
      <trkpt lat="45.12395" lon="6.59799">
        <ele>2511</ele>
        <time>2021-07-15T06:15:42Z</time>
      </trkpt>
      <trkpt lat="45.12406" lon="6.59798">
        <ele>2510</ele>
        <time>2021-07-15T06:17:47Z</time>
      </trkpt>
      <trkpt lat="45.12417" lon="6.59799">
        <ele>2509</ele>
        <time>2021-07-15T06:18:01Z</time>
      </trkpt>
      <trkpt lat="45.12424" lon="6.59803">
        <ele>2509</ele>
        <time>2021-07-15T06:18:56Z</time>
      </trkpt>
      <trkpt lat="45.12433" lon="6.59799">
        <ele>2509</ele>
        <time>2021-07-15T06:19:27Z</time>
      </trkpt>
      <trkpt lat="45.1244" lon="6.59799">
        <ele>2509</ele>
        <time>2021-07-15T06:19:51Z</time>
      </trkpt>
      <trkpt lat="45.12444" lon="6.59804">
        <ele>2509</ele>
        <time>2021-07-15T06:20:57Z</time>
      </trkpt>
      <trkpt lat="45.12443" lon="6.59805">
        <ele>2508</ele>
        <time>2021-07-15T06:23:56Z</time>
      </trkpt>
      <trkpt lat="45.12444" lon="6.59807">
        <ele>2508</ele>
        <time>2021-07-15T06:26:43Z</time>
      </trkpt>
      <trkpt lat="45.12437" lon="6.59808">
        <ele>2507</ele>
        <time>2021-07-15T06:29:18Z</time>
      </trkpt>
      <trkpt lat="45.12442" lon="6.59814">
        <ele>2508</ele>
        <time>2021-07-15T06:30:50Z</time>
      </trkpt>
      <trkpt lat="45.12441" lon="6.59828">
        <ele>2508</ele>
        <time>2021-07-15T06:31:43Z</time>
      </trkpt>
      <trkpt lat="45.12423" lon="6.59846">
        <ele>2510</ele>
        <time>2021-07-15T06:32:07Z</time>
      </trkpt>
      <trkpt lat="45.12415" lon="6.59849">
        <ele>2511</ele>
        <time>2021-07-15T06:32:13Z</time>
      </trkpt>
      <trkpt lat="45.12408" lon="6.59855">
        <ele>2512</ele>
        <time>2021-07-15T06:32:21Z</time>
      </trkpt>
      <trkpt lat="45.12392" lon="6.59861">
        <ele>2513</ele>
        <time>2021-07-15T06:32:35Z</time>
      </trkpt>
      <trkpt lat="45.12378" lon="6.59875">
        <ele>2515</ele>
        <time>2021-07-15T06:32:47Z</time>
      </trkpt>
      <trkpt lat="45.12364" lon="6.59882">
        <ele>2516</ele>
        <time>2021-07-15T06:32:58Z</time>
      </trkpt>
      <trkpt lat="45.12358" lon="6.59894">
        <ele>2516</ele>
        <time>2021-07-15T06:33:05Z</time>
      </trkpt>
      <trkpt lat="45.12352" lon="6.599">
        <ele>2516</ele>
        <time>2021-07-15T06:33:13Z</time>
      </trkpt>
      <trkpt lat="45.12346" lon="6.59896">
        <ele>2515</ele>
        <time>2021-07-15T06:33:21Z</time>
      </trkpt>
      <trkpt lat="45.12339" lon="6.59897">
        <ele>2514</ele>
        <time>2021-07-15T06:33:26Z</time>
      </trkpt>
      <trkpt lat="45.12332" lon="6.599">
        <ele>2511</ele>
        <time>2021-07-15T06:33:34Z</time>
      </trkpt>
      <trkpt lat="45.12327" lon="6.59901">
        <ele>2512</ele>
        <time>2021-07-15T06:33:40Z</time>
      </trkpt>
      <trkpt lat="45.1232" lon="6.5991">
        <ele>2509</ele>
        <time>2021-07-15T06:33:48Z</time>
      </trkpt>
      <trkpt lat="45.12318" lon="6.59918">
        <ele>2509</ele>
        <time>2021-07-15T06:33:52Z</time>
      </trkpt>
      <trkpt lat="45.12322" lon="6.59924">
        <ele>2508</ele>
        <time>2021-07-15T06:33:58Z</time>
      </trkpt>
      <trkpt lat="45.12329" lon="6.5996">
        <ele>2499</ele>
        <time>2021-07-15T06:34:27Z</time>
      </trkpt>
      <trkpt lat="45.1233" lon="6.59971">
        <ele>2500</ele>
        <time>2021-07-15T06:34:33Z</time>
      </trkpt>
      <trkpt lat="45.12331" lon="6.59982">
        <ele>2499</ele>
        <time>2021-07-15T06:34:40Z</time>
      </trkpt>
      <trkpt lat="45.12335" lon="6.59991">
        <ele>2497</ele>
        <time>2021-07-15T06:34:59Z</time>
      </trkpt>
      <trkpt lat="45.1234" lon="6.60001">
        <ele>2498</ele>
        <time>2021-07-15T06:35:45Z</time>
      </trkpt>
      <trkpt lat="45.1234" lon="6.60012">
        <ele>2496</ele>
        <time>2021-07-15T06:35:53Z</time>
      </trkpt>
      <trkpt lat="45.12345" lon="6.60034">
        <ele>2492</ele>
        <time>2021-07-15T06:36:05Z</time>
      </trkpt>
      <trkpt lat="45.12351" lon="6.60037">
        <ele>2486</ele>
        <time>2021-07-15T06:36:29Z</time>
      </trkpt>
      <trkpt lat="45.12342" lon="6.6005">
        <ele>2482</ele>
        <time>2021-07-15T06:36:46Z</time>
      </trkpt>
      <trkpt lat="45.12342" lon="6.6006">
        <ele>2478</ele>
        <time>2021-07-15T06:37:00Z</time>
      </trkpt>
      <trkpt lat="45.12331" lon="6.60071">
        <ele>2475</ele>
        <time>2021-07-15T06:37:12Z</time>
      </trkpt>
      <trkpt lat="45.12331" lon="6.60083">
        <ele>2474</ele>
        <time>2021-07-15T06:37:16Z</time>
      </trkpt>
      <trkpt lat="45.12333" lon="6.60092">
        <ele>2472</ele>
        <time>2021-07-15T06:37:21Z</time>
      </trkpt>
      <trkpt lat="45.12338" lon="6.60115">
        <ele>2468</ele>
        <time>2021-07-15T06:37:33Z</time>
      </trkpt>
      <trkpt lat="45.1234" lon="6.60124">
        <ele>2466</ele>
        <time>2021-07-15T06:37:37Z</time>
      </trkpt>
      <trkpt lat="45.1234" lon="6.60133">
        <ele>2465</ele>
        <time>2021-07-15T06:37:42Z</time>
      </trkpt>
      <trkpt lat="45.12345" lon="6.60149">
        <ele>2463</ele>
        <time>2021-07-15T06:37:52Z</time>
      </trkpt>
      <trkpt lat="45.12342" lon="6.60168">
        <ele>2467</ele>
        <time>2021-07-15T06:38:13Z</time>
      </trkpt>
      <trkpt lat="45.12343" lon="6.60177">
        <ele>2467</ele>
        <time>2021-07-15T06:38:17Z</time>
      </trkpt>
      <trkpt lat="45.12346" lon="6.60193">
        <ele>2469</ele>
        <time>2021-07-15T06:38:30Z</time>
      </trkpt>
      <trkpt lat="45.12344" lon="6.60201">
        <ele>2470</ele>
        <time>2021-07-15T06:38:36Z</time>
      </trkpt>
      <trkpt lat="45.12341" lon="6.60209">
        <ele>2471</ele>
        <time>2021-07-15T06:38:42Z</time>
      </trkpt>
      <trkpt lat="45.12341" lon="6.60217">
        <ele>2471</ele>
        <time>2021-07-15T06:38:47Z</time>
      </trkpt>
      <trkpt lat="45.12338" lon="6.60225">
        <ele>2472</ele>
        <time>2021-07-15T06:38:53Z</time>
      </trkpt>
      <trkpt lat="45.12338" lon="6.60234">
        <ele>2471</ele>
        <time>2021-07-15T06:38:58Z</time>
      </trkpt>
      <trkpt lat="45.12333" lon="6.60239">
        <ele>2470</ele>
        <time>2021-07-15T06:39:03Z</time>
      </trkpt>
      <trkpt lat="45.12331" lon="6.60248">
        <ele>2470</ele>
        <time>2021-07-15T06:39:07Z</time>
      </trkpt>
      <trkpt lat="45.1233" lon="6.60258">
        <ele>2470</ele>
        <time>2021-07-15T06:39:14Z</time>
      </trkpt>
      <trkpt lat="45.12327" lon="6.60265">
        <ele>2469</ele>
        <time>2021-07-15T06:39:19Z</time>
      </trkpt>
      <trkpt lat="45.1232" lon="6.60268">
        <ele>2468</ele>
        <time>2021-07-15T06:39:27Z</time>
      </trkpt>
      <trkpt lat="45.12309" lon="6.60272">
        <ele>2468</ele>
        <time>2021-07-15T06:39:41Z</time>
      </trkpt>
      <trkpt lat="45.12307" lon="6.60292">
        <ele>2466</ele>
        <time>2021-07-15T06:39:50Z</time>
      </trkpt>
      <trkpt lat="45.12303" lon="6.60308">
        <ele>2463</ele>
        <time>2021-07-15T06:40:02Z</time>
      </trkpt>
      <trkpt lat="45.12296" lon="6.60313">
        <ele>2460</ele>
        <time>2021-07-15T06:40:13Z</time>
      </trkpt>
      <trkpt lat="45.12277" lon="6.60316">
        <ele>2457</ele>
        <time>2021-07-15T06:40:25Z</time>
      </trkpt>
      <trkpt lat="45.12272" lon="6.60321">
        <ele>2456</ele>
        <time>2021-07-15T06:40:30Z</time>
      </trkpt>
      <trkpt lat="45.12272" lon="6.60329">
        <ele>2454</ele>
        <time>2021-07-15T06:40:34Z</time>
      </trkpt>
      <trkpt lat="45.12267" lon="6.60335">
        <ele>2454</ele>
        <time>2021-07-15T06:40:38Z</time>
      </trkpt>
      <trkpt lat="45.12265" lon="6.60341">
        <ele>2454</ele>
        <time>2021-07-15T06:40:49Z</time>
      </trkpt>
      <trkpt lat="45.12254" lon="6.60352">
        <ele>2451</ele>
        <time>2021-07-15T06:41:02Z</time>
      </trkpt>
      <trkpt lat="45.12253" lon="6.6036">
        <ele>2454</ele>
        <time>2021-07-15T06:41:08Z</time>
      </trkpt>
      <trkpt lat="45.12252" lon="6.60368">
        <ele>2452</ele>
        <time>2021-07-15T06:41:13Z</time>
      </trkpt>
      <trkpt lat="45.12242" lon="6.60386">
        <ele>2448</ele>
        <time>2021-07-15T06:41:32Z</time>
      </trkpt>
      <trkpt lat="45.12229" lon="6.60394">
        <ele>2446</ele>
        <time>2021-07-15T06:41:45Z</time>
      </trkpt>
      <trkpt lat="45.12225" lon="6.60399">
        <ele>2444</ele>
        <time>2021-07-15T06:41:51Z</time>
      </trkpt>
      <trkpt lat="45.12218" lon="6.60401">
        <ele>2444</ele>
        <time>2021-07-15T06:42:01Z</time>
      </trkpt>
      <trkpt lat="45.12214" lon="6.60407">
        <ele>2444</ele>
        <time>2021-07-15T06:42:07Z</time>
      </trkpt>
      <trkpt lat="45.12209" lon="6.60412">
        <ele>2442</ele>
        <time>2021-07-15T06:42:14Z</time>
      </trkpt>
      <trkpt lat="45.12205" lon="6.60419">
        <ele>2444</ele>
        <time>2021-07-15T06:42:19Z</time>
      </trkpt>
      <trkpt lat="45.12201" lon="6.60425">
        <ele>2443</ele>
        <time>2021-07-15T06:42:23Z</time>
      </trkpt>
      <trkpt lat="45.12197" lon="6.60431">
        <ele>2444</ele>
        <time>2021-07-15T06:42:27Z</time>
      </trkpt>
      <trkpt lat="45.1219" lon="6.60449">
        <ele>2441</ele>
        <time>2021-07-15T06:42:40Z</time>
      </trkpt>
      <trkpt lat="45.12185" lon="6.60455">
        <ele>2443</ele>
        <time>2021-07-15T06:42:44Z</time>
      </trkpt>
      <trkpt lat="45.12182" lon="6.60462">
        <ele>2441</ele>
        <time>2021-07-15T06:42:48Z</time>
      </trkpt>
      <trkpt lat="45.12181" lon="6.60469">
        <ele>2441</ele>
        <time>2021-07-15T06:42:53Z</time>
      </trkpt>
      <trkpt lat="45.12177" lon="6.60479">
        <ele>2440</ele>
        <time>2021-07-15T06:43:01Z</time>
      </trkpt>
      <trkpt lat="45.1217" lon="6.60486">
        <ele>2440</ele>
        <time>2021-07-15T06:43:08Z</time>
      </trkpt>
      <trkpt lat="45.12166" lon="6.60491">
        <ele>2441</ele>
        <time>2021-07-15T06:43:13Z</time>
      </trkpt>
      <trkpt lat="45.12163" lon="6.60501">
        <ele>2441</ele>
        <time>2021-07-15T06:43:20Z</time>
      </trkpt>
      <trkpt lat="45.1216" lon="6.60508">
        <ele>2441</ele>
        <time>2021-07-15T06:43:24Z</time>
      </trkpt>
      <trkpt lat="45.12153" lon="6.60522">
        <ele>2439</ele>
        <time>2021-07-15T06:43:33Z</time>
      </trkpt>
      <trkpt lat="45.12151" lon="6.60544">
        <ele>2437</ele>
        <time>2021-07-15T06:43:47Z</time>
      </trkpt>
      <trkpt lat="45.12149" lon="6.60561">
        <ele>2437</ele>
        <time>2021-07-15T06:43:56Z</time>
      </trkpt>
      <trkpt lat="45.12149" lon="6.60568">
        <ele>2438</ele>
        <time>2021-07-15T06:44:01Z</time>
      </trkpt>
      <trkpt lat="45.12151" lon="6.60576">
        <ele>2438</ele>
        <time>2021-07-15T06:44:06Z</time>
      </trkpt>
      <trkpt lat="45.12157" lon="6.60597">
        <ele>2442</ele>
        <time>2021-07-15T06:44:27Z</time>
      </trkpt>
      <trkpt lat="45.12159" lon="6.60606">
        <ele>2442</ele>
        <time>2021-07-15T06:44:31Z</time>
      </trkpt>
      <trkpt lat="45.12159" lon="6.60615">
        <ele>2442</ele>
        <time>2021-07-15T06:44:35Z</time>
      </trkpt>
      <trkpt lat="45.12162" lon="6.60622">
        <ele>2442</ele>
        <time>2021-07-15T06:44:40Z</time>
      </trkpt>
      <trkpt lat="45.1216" lon="6.60632">
        <ele>2442</ele>
        <time>2021-07-15T06:44:48Z</time>
      </trkpt>
      <trkpt lat="45.12158" lon="6.60639">
        <ele>2441</ele>
        <time>2021-07-15T06:44:52Z</time>
      </trkpt>
      <trkpt lat="45.12154" lon="6.60646">
        <ele>2441</ele>
        <time>2021-07-15T06:44:57Z</time>
      </trkpt>
      <trkpt lat="45.12146" lon="6.60655">
        <ele>2440</ele>
        <time>2021-07-15T06:45:06Z</time>
      </trkpt>
      <trkpt lat="45.12141" lon="6.60655">
        <ele>2439</ele>
        <time>2021-07-15T06:45:10Z</time>
      </trkpt>
      <trkpt lat="45.12135" lon="6.60656">
        <ele>2439</ele>
        <time>2021-07-15T06:45:14Z</time>
      </trkpt>
      <trkpt lat="45.12129" lon="6.60659">
        <ele>2438</ele>
        <time>2021-07-15T06:45:19Z</time>
      </trkpt>
      <trkpt lat="45.12122" lon="6.60662">
        <ele>2436</ele>
        <time>2021-07-15T06:45:24Z</time>
      </trkpt>
      <trkpt lat="45.12113" lon="6.60671">
        <ele>2436</ele>
        <time>2021-07-15T06:45:32Z</time>
      </trkpt>
      <trkpt lat="45.12106" lon="6.60673">
        <ele>2435</ele>
        <time>2021-07-15T06:45:39Z</time>
      </trkpt>
      <trkpt lat="45.12099" lon="6.60673">
        <ele>2437</ele>
        <time>2021-07-15T06:45:46Z</time>
      </trkpt>
      <trkpt lat="45.12092" lon="6.60673">
        <ele>2437</ele>
        <time>2021-07-15T06:45:51Z</time>
      </trkpt>
      <trkpt lat="45.12081" lon="6.60675">
        <ele>2436</ele>
        <time>2021-07-15T06:46:01Z</time>
      </trkpt>
      <trkpt lat="45.12075" lon="6.60675">
        <ele>2437</ele>
        <time>2021-07-15T06:46:07Z</time>
      </trkpt>
      <trkpt lat="45.12069" lon="6.60675">
        <ele>2437</ele>
        <time>2021-07-15T06:46:11Z</time>
      </trkpt>
      <trkpt lat="45.12064" lon="6.60673">
        <ele>2437</ele>
        <time>2021-07-15T06:46:14Z</time>
      </trkpt>
      <trkpt lat="45.12058" lon="6.60669">
        <ele>2436</ele>
        <time>2021-07-15T06:46:19Z</time>
      </trkpt>
      <trkpt lat="45.12046" lon="6.60666">
        <ele>2436</ele>
        <time>2021-07-15T06:46:27Z</time>
      </trkpt>
      <trkpt lat="45.12035" lon="6.60662">
        <ele>2437</ele>
        <time>2021-07-15T06:46:36Z</time>
      </trkpt>
      <trkpt lat="45.1203" lon="6.60659">
        <ele>2437</ele>
        <time>2021-07-15T06:46:41Z</time>
      </trkpt>
      <trkpt lat="45.12018" lon="6.6066">
        <ele>2438</ele>
        <time>2021-07-15T06:46:53Z</time>
      </trkpt>
      <trkpt lat="45.12013" lon="6.60658">
        <ele>2438</ele>
        <time>2021-07-15T06:46:57Z</time>
      </trkpt>
      <trkpt lat="45.12006" lon="6.60655">
        <ele>2438</ele>
        <time>2021-07-15T06:47:01Z</time>
      </trkpt>
      <trkpt lat="45.12" lon="6.60652">
        <ele>2438</ele>
        <time>2021-07-15T06:47:05Z</time>
      </trkpt>
      <trkpt lat="45.11995" lon="6.60652">
        <ele>2438</ele>
        <time>2021-07-15T06:47:10Z</time>
      </trkpt>
      <trkpt lat="45.11989" lon="6.60652">
        <ele>2438</ele>
        <time>2021-07-15T06:47:15Z</time>
      </trkpt>
      <trkpt lat="45.11979" lon="6.60646">
        <ele>2438</ele>
        <time>2021-07-15T06:47:27Z</time>
      </trkpt>
      <trkpt lat="45.11973" lon="6.60644">
        <ele>2437</ele>
        <time>2021-07-15T06:47:32Z</time>
      </trkpt>
      <trkpt lat="45.1196" lon="6.6064">
        <ele>2437</ele>
        <time>2021-07-15T06:47:42Z</time>
      </trkpt>
      <trkpt lat="45.11955" lon="6.60637">
        <ele>2437</ele>
        <time>2021-07-15T06:47:46Z</time>
      </trkpt>
      <trkpt lat="45.11949" lon="6.60637">
        <ele>2436</ele>
        <time>2021-07-15T06:47:51Z</time>
      </trkpt>
      <trkpt lat="45.11938" lon="6.60635">
        <ele>2437</ele>
        <time>2021-07-15T06:48:00Z</time>
      </trkpt>
      <trkpt lat="45.11931" lon="6.60634">
        <ele>2436</ele>
        <time>2021-07-15T06:48:04Z</time>
      </trkpt>
      <trkpt lat="45.11923" lon="6.60633">
        <ele>2436</ele>
        <time>2021-07-15T06:48:11Z</time>
      </trkpt>
      <trkpt lat="45.11912" lon="6.60631">
        <ele>2438</ele>
        <time>2021-07-15T06:48:21Z</time>
      </trkpt>
      <trkpt lat="45.11905" lon="6.60626">
        <ele>2439</ele>
        <time>2021-07-15T06:48:28Z</time>
      </trkpt>
      <trkpt lat="45.11894" lon="6.60617">
        <ele>2440</ele>
        <time>2021-07-15T06:48:40Z</time>
      </trkpt>
      <trkpt lat="45.11888" lon="6.60614">
        <ele>2440</ele>
        <time>2021-07-15T06:48:45Z</time>
      </trkpt>
      <trkpt lat="45.11871" lon="6.60609">
        <ele>2440</ele>
        <time>2021-07-15T06:49:00Z</time>
      </trkpt>
      <trkpt lat="45.11865" lon="6.60607">
        <ele>2439</ele>
        <time>2021-07-15T06:49:04Z</time>
      </trkpt>
      <trkpt lat="45.11848" lon="6.606">
        <ele>2439</ele>
        <time>2021-07-15T06:49:19Z</time>
      </trkpt>
      <trkpt lat="45.11842" lon="6.60597">
        <ele>2440</ele>
        <time>2021-07-15T06:49:23Z</time>
      </trkpt>
      <trkpt lat="45.11835" lon="6.60598">
        <ele>2440</ele>
        <time>2021-07-15T06:49:29Z</time>
      </trkpt>
      <trkpt lat="45.11829" lon="6.60596">
        <ele>2440</ele>
        <time>2021-07-15T06:49:35Z</time>
      </trkpt>
      <trkpt lat="45.11823" lon="6.60595">
        <ele>2441</ele>
        <time>2021-07-15T06:49:39Z</time>
      </trkpt>
      <trkpt lat="45.11817" lon="6.60594">
        <ele>2440</ele>
        <time>2021-07-15T06:49:43Z</time>
      </trkpt>
      <trkpt lat="45.11812" lon="6.60592">
        <ele>2440</ele>
        <time>2021-07-15T06:49:48Z</time>
      </trkpt>
      <trkpt lat="45.11806" lon="6.60593">
        <ele>2439</ele>
        <time>2021-07-15T06:49:53Z</time>
      </trkpt>
      <trkpt lat="45.118" lon="6.6059">
        <ele>2440</ele>
        <time>2021-07-15T06:49:58Z</time>
      </trkpt>
      <trkpt lat="45.11794" lon="6.60588">
        <ele>2438</ele>
        <time>2021-07-15T06:50:03Z</time>
      </trkpt>
      <trkpt lat="45.11783" lon="6.60583">
        <ele>2438</ele>
        <time>2021-07-15T06:50:12Z</time>
      </trkpt>
      <trkpt lat="45.11776" lon="6.6058">
        <ele>2438</ele>
        <time>2021-07-15T06:50:18Z</time>
      </trkpt>
      <trkpt lat="45.11771" lon="6.60577">
        <ele>2437</ele>
        <time>2021-07-15T06:50:22Z</time>
      </trkpt>
      <trkpt lat="45.11766" lon="6.60572">
        <ele>2437</ele>
        <time>2021-07-15T06:50:27Z</time>
      </trkpt>
      <trkpt lat="45.11758" lon="6.60571">
        <ele>2438</ele>
        <time>2021-07-15T06:50:34Z</time>
      </trkpt>
      <trkpt lat="45.1175" lon="6.60567">
        <ele>2437</ele>
        <time>2021-07-15T06:50:54Z</time>
      </trkpt>
      <trkpt lat="45.11743" lon="6.60564">
        <ele>2438</ele>
        <time>2021-07-15T06:51:05Z</time>
      </trkpt>
      <trkpt lat="45.11738" lon="6.60562">
        <ele>2437</ele>
        <time>2021-07-15T06:51:09Z</time>
      </trkpt>
      <trkpt lat="45.11729" lon="6.60558">
        <ele>2437</ele>
        <time>2021-07-15T06:51:19Z</time>
      </trkpt>
      <trkpt lat="45.11721" lon="6.60552">
        <ele>2438</ele>
        <time>2021-07-15T06:51:29Z</time>
      </trkpt>
      <trkpt lat="45.1171" lon="6.60541">
        <ele>2439</ele>
        <time>2021-07-15T06:51:40Z</time>
      </trkpt>
      <trkpt lat="45.11693" lon="6.60525">
        <ele>2439</ele>
        <time>2021-07-15T06:51:57Z</time>
      </trkpt>
      <trkpt lat="45.11689" lon="6.60517">
        <ele>2439</ele>
        <time>2021-07-15T06:52:01Z</time>
      </trkpt>
      <trkpt lat="45.11686" lon="6.60511">
        <ele>2439</ele>
        <time>2021-07-15T06:52:06Z</time>
      </trkpt>
      <trkpt lat="45.11682" lon="6.60505">
        <ele>2439</ele>
        <time>2021-07-15T06:52:11Z</time>
      </trkpt>
      <trkpt lat="45.11679" lon="6.60497">
        <ele>2438</ele>
        <time>2021-07-15T06:52:16Z</time>
      </trkpt>
      <trkpt lat="45.11678" lon="6.6049">
        <ele>2438</ele>
        <time>2021-07-15T06:52:20Z</time>
      </trkpt>
      <trkpt lat="45.11678" lon="6.60478">
        <ele>2436</ele>
        <time>2021-07-15T06:52:28Z</time>
      </trkpt>
      <trkpt lat="45.1168" lon="6.6047">
        <ele>2436</ele>
        <time>2021-07-15T06:52:34Z</time>
      </trkpt>
      <trkpt lat="45.1168" lon="6.60458">
        <ele>2435</ele>
        <time>2021-07-15T06:52:44Z</time>
      </trkpt>
      <trkpt lat="45.11679" lon="6.6045">
        <ele>2435</ele>
        <time>2021-07-15T06:52:49Z</time>
      </trkpt>
      <trkpt lat="45.11675" lon="6.60444">
        <ele>2434</ele>
        <time>2021-07-15T06:52:55Z</time>
      </trkpt>
      <trkpt lat="45.11669" lon="6.60416">
        <ele>2435</ele>
        <time>2021-07-15T06:53:11Z</time>
      </trkpt>
      <trkpt lat="45.11672" lon="6.60399">
        <ele>2435</ele>
        <time>2021-07-15T06:53:22Z</time>
      </trkpt>
      <trkpt lat="45.11674" lon="6.60391">
        <ele>2434</ele>
        <time>2021-07-15T06:53:26Z</time>
      </trkpt>
      <trkpt lat="45.11691" lon="6.6033">
        <ele>2434</ele>
        <time>2021-07-15T06:53:58Z</time>
      </trkpt>
      <trkpt lat="45.11693" lon="6.60312">
        <ele>2435</ele>
        <time>2021-07-15T06:54:13Z</time>
      </trkpt>
      <trkpt lat="45.11678" lon="6.60292">
        <ele>2434</ele>
        <time>2021-07-15T06:54:32Z</time>
      </trkpt>
      <trkpt lat="45.11674" lon="6.60273">
        <ele>2433</ele>
        <time>2021-07-15T06:54:41Z</time>
      </trkpt>
      <trkpt lat="45.11659" lon="6.60229">
        <ele>2432</ele>
        <time>2021-07-15T06:55:12Z</time>
      </trkpt>
      <trkpt lat="45.11654" lon="6.60209">
        <ele>2431</ele>
        <time>2021-07-15T06:55:26Z</time>
      </trkpt>
      <trkpt lat="45.11639" lon="6.60163">
        <ele>2437</ele>
        <time>2021-07-15T06:56:01Z</time>
      </trkpt>
      <trkpt lat="45.11633" lon="6.60146">
        <ele>2437</ele>
        <time>2021-07-15T06:56:14Z</time>
      </trkpt>
      <trkpt lat="45.11621" lon="6.60121">
        <ele>2442</ele>
        <time>2021-07-15T06:56:49Z</time>
      </trkpt>
      <trkpt lat="45.11612" lon="6.60081">
        <ele>2445</ele>
        <time>2021-07-15T06:57:13Z</time>
      </trkpt>
      <trkpt lat="45.11604" lon="6.60064">
        <ele>2449</ele>
        <time>2021-07-15T06:57:41Z</time>
      </trkpt>
      <trkpt lat="45.11601" lon="6.60053">
        <ele>2451</ele>
        <time>2021-07-15T06:57:51Z</time>
      </trkpt>
      <trkpt lat="45.11596" lon="6.60047">
        <ele>2450</ele>
        <time>2021-07-15T06:57:59Z</time>
      </trkpt>
      <trkpt lat="45.11589" lon="6.60029">
        <ele>2453</ele>
        <time>2021-07-15T06:58:12Z</time>
      </trkpt>
      <trkpt lat="45.11589" lon="6.60021">
        <ele>2453</ele>
        <time>2021-07-15T06:58:18Z</time>
      </trkpt>
      <trkpt lat="45.11586" lon="6.60006">
        <ele>2453</ele>
        <time>2021-07-15T06:58:30Z</time>
      </trkpt>
      <trkpt lat="45.11584" lon="6.59996">
        <ele>2454</ele>
        <time>2021-07-15T06:58:36Z</time>
      </trkpt>
      <trkpt lat="45.11582" lon="6.59985">
        <ele>2455</ele>
        <time>2021-07-15T06:58:44Z</time>
      </trkpt>
      <trkpt lat="45.11581" lon="6.59977">
        <ele>2454</ele>
        <time>2021-07-15T06:58:48Z</time>
      </trkpt>
      <trkpt lat="45.11577" lon="6.59968">
        <ele>2455</ele>
        <time>2021-07-15T06:58:57Z</time>
      </trkpt>
      <trkpt lat="45.11576" lon="6.59958">
        <ele>2455</ele>
        <time>2021-07-15T06:59:05Z</time>
      </trkpt>
      <trkpt lat="45.11561" lon="6.59927">
        <ele>2458</ele>
        <time>2021-07-15T06:59:34Z</time>
      </trkpt>
      <trkpt lat="45.11562" lon="6.5991">
        <ele>2460</ele>
        <time>2021-07-15T06:59:49Z</time>
      </trkpt>
      <trkpt lat="45.11558" lon="6.59894">
        <ele>2461</ele>
        <time>2021-07-15T06:59:59Z</time>
      </trkpt>
      <trkpt lat="45.11553" lon="6.5988">
        <ele>2463</ele>
        <time>2021-07-15T07:00:10Z</time>
      </trkpt>
      <trkpt lat="45.11549" lon="6.59871">
        <ele>2462</ele>
        <time>2021-07-15T07:00:16Z</time>
      </trkpt>
      <trkpt lat="45.11548" lon="6.59863">
        <ele>2462</ele>
        <time>2021-07-15T07:00:24Z</time>
      </trkpt>
      <trkpt lat="45.11549" lon="6.59854">
        <ele>2461</ele>
        <time>2021-07-15T07:00:30Z</time>
      </trkpt>
      <trkpt lat="45.11541" lon="6.59847">
        <ele>2463</ele>
        <time>2021-07-15T07:00:44Z</time>
      </trkpt>
      <trkpt lat="45.11538" lon="6.59834">
        <ele>2469</ele>
        <time>2021-07-15T07:01:08Z</time>
      </trkpt>
      <trkpt lat="45.11532" lon="6.59827">
        <ele>2472</ele>
        <time>2021-07-15T07:01:21Z</time>
      </trkpt>
      <trkpt lat="45.11524" lon="6.59827">
        <ele>2471</ele>
        <time>2021-07-15T07:01:32Z</time>
      </trkpt>
      <trkpt lat="45.11514" lon="6.59824">
        <ele>2472</ele>
        <time>2021-07-15T07:01:41Z</time>
      </trkpt>
      <trkpt lat="45.11509" lon="6.59821">
        <ele>2470</ele>
        <time>2021-07-15T07:01:46Z</time>
      </trkpt>
      <trkpt lat="45.11505" lon="6.59814">
        <ele>2471</ele>
        <time>2021-07-15T07:01:51Z</time>
      </trkpt>
      <trkpt lat="45.115" lon="6.5981">
        <ele>2472</ele>
        <time>2021-07-15T07:01:58Z</time>
      </trkpt>
      <trkpt lat="45.11496" lon="6.59804">
        <ele>2472</ele>
        <time>2021-07-15T07:02:03Z</time>
      </trkpt>
      <trkpt lat="45.1149" lon="6.59785">
        <ele>2473</ele>
        <time>2021-07-15T07:02:13Z</time>
      </trkpt>
      <trkpt lat="45.11485" lon="6.59779">
        <ele>2475</ele>
        <time>2021-07-15T07:02:19Z</time>
      </trkpt>
      <trkpt lat="45.11476" lon="6.59778">
        <ele>2476</ele>
        <time>2021-07-15T07:02:33Z</time>
      </trkpt>
      <trkpt lat="45.11468" lon="6.59776">
        <ele>2479</ele>
        <time>2021-07-15T07:02:51Z</time>
      </trkpt>
      <trkpt lat="45.1146" lon="6.59776">
        <ele>2480</ele>
        <time>2021-07-15T07:02:57Z</time>
      </trkpt>
      <trkpt lat="45.1146" lon="6.59774">
        <ele>2482</ele>
        <time>2021-07-15T07:04:12Z</time>
      </trkpt>
      <trkpt lat="45.11458" lon="6.59783">
        <ele>2480</ele>
        <time>2021-07-15T07:06:44Z</time>
      </trkpt>
      <trkpt lat="45.11452" lon="6.5978">
        <ele>2480</ele>
        <time>2021-07-15T07:07:20Z</time>
      </trkpt>
      <trkpt lat="45.11456" lon="6.59769">
        <ele>2481</ele>
        <time>2021-07-15T07:08:38Z</time>
      </trkpt>
      <trkpt lat="45.11445" lon="6.59752">
        <ele>2480</ele>
        <time>2021-07-15T07:10:03Z</time>
      </trkpt>
      <trkpt lat="45.11445" lon="6.59709">
        <ele>2480</ele>
        <time>2021-07-15T07:10:30Z</time>
      </trkpt>
      <trkpt lat="45.1144" lon="6.59669">
        <ele>2482</ele>
        <time>2021-07-15T07:10:49Z</time>
      </trkpt>
      <trkpt lat="45.11427" lon="6.59623">
        <ele>2481</ele>
        <time>2021-07-15T07:11:21Z</time>
      </trkpt>
      <trkpt lat="45.11427" lon="6.59593">
        <ele>2481</ele>
        <time>2021-07-15T07:11:43Z</time>
      </trkpt>
      <trkpt lat="45.11428" lon="6.59572">
        <ele>2480</ele>
        <time>2021-07-15T07:11:58Z</time>
      </trkpt>
      <trkpt lat="45.11433" lon="6.5955">
        <ele>2478</ele>
        <time>2021-07-15T07:12:10Z</time>
      </trkpt>
      <trkpt lat="45.11406" lon="6.59516">
        <ele>2481</ele>
        <time>2021-07-15T07:12:45Z</time>
      </trkpt>
      <trkpt lat="45.11397" lon="6.59499">
        <ele>2480</ele>
        <time>2021-07-15T07:13:00Z</time>
      </trkpt>
      <trkpt lat="45.11394" lon="6.59477">
        <ele>2481</ele>
        <time>2021-07-15T07:13:15Z</time>
      </trkpt>
      <trkpt lat="45.11392" lon="6.59456">
        <ele>2479</ele>
        <time>2021-07-15T07:13:30Z</time>
      </trkpt>
      <trkpt lat="45.11384" lon="6.59436">
        <ele>2480</ele>
        <time>2021-07-15T07:13:40Z</time>
      </trkpt>
      <trkpt lat="45.11374" lon="6.59421">
        <ele>2476</ele>
        <time>2021-07-15T07:13:52Z</time>
      </trkpt>
      <trkpt lat="45.11372" lon="6.59399">
        <ele>2474</ele>
        <time>2021-07-15T07:14:10Z</time>
      </trkpt>
      <trkpt lat="45.11335" lon="6.59361">
        <ele>2465</ele>
        <time>2021-07-15T07:14:52Z</time>
      </trkpt>
      <trkpt lat="45.11329" lon="6.59322">
        <ele>2470</ele>
        <time>2021-07-15T07:15:29Z</time>
      </trkpt>
      <trkpt lat="45.11315" lon="6.59315">
        <ele>2476</ele>
        <time>2021-07-15T07:16:08Z</time>
      </trkpt>
      <trkpt lat="45.11292" lon="6.59324">
        <ele>2479</ele>
        <time>2021-07-15T07:16:34Z</time>
      </trkpt>
      <trkpt lat="45.11282" lon="6.59309">
        <ele>2478</ele>
        <time>2021-07-15T07:16:49Z</time>
      </trkpt>
      <trkpt lat="45.1126" lon="6.5929">
        <ele>2475</ele>
        <time>2021-07-15T07:17:11Z</time>
      </trkpt>
      <trkpt lat="45.11249" lon="6.59264">
        <ele>2474</ele>
        <time>2021-07-15T07:17:32Z</time>
      </trkpt>
      <trkpt lat="45.11244" lon="6.59255">
        <ele>2475</ele>
        <time>2021-07-15T07:17:37Z</time>
      </trkpt>
      <trkpt lat="45.11237" lon="6.59248">
        <ele>2475</ele>
        <time>2021-07-15T07:17:43Z</time>
      </trkpt>
      <trkpt lat="45.11232" lon="6.5924">
        <ele>2476</ele>
        <time>2021-07-15T07:17:49Z</time>
      </trkpt>
      <trkpt lat="45.11226" lon="6.5923">
        <ele>2478</ele>
        <time>2021-07-15T07:18:04Z</time>
      </trkpt>
      <trkpt lat="45.11221" lon="6.59218">
        <ele>2477</ele>
        <time>2021-07-15T07:18:13Z</time>
      </trkpt>
      <trkpt lat="45.11216" lon="6.59195">
        <ele>2473</ele>
        <time>2021-07-15T07:18:28Z</time>
      </trkpt>
      <trkpt lat="45.1121" lon="6.59174">
        <ele>2472</ele>
        <time>2021-07-15T07:18:42Z</time>
      </trkpt>
      <trkpt lat="45.11198" lon="6.59145">
        <ele>2468</ele>
        <time>2021-07-15T07:19:07Z</time>
      </trkpt>
      <trkpt lat="45.11204" lon="6.59126">
        <ele>2466</ele>
        <time>2021-07-15T07:19:18Z</time>
      </trkpt>
      <trkpt lat="45.11201" lon="6.59103">
        <ele>2465</ele>
        <time>2021-07-15T07:19:30Z</time>
      </trkpt>
      <trkpt lat="45.11193" lon="6.59062">
        <ele>2460</ele>
        <time>2021-07-15T07:19:53Z</time>
      </trkpt>
      <trkpt lat="45.11191" lon="6.59041">
        <ele>2460</ele>
        <time>2021-07-15T07:20:08Z</time>
      </trkpt>
      <trkpt lat="45.11192" lon="6.5902">
        <ele>2459</ele>
        <time>2021-07-15T07:20:21Z</time>
      </trkpt>
      <trkpt lat="45.11188" lon="6.58993">
        <ele>2456</ele>
        <time>2021-07-15T07:20:44Z</time>
      </trkpt>
      <trkpt lat="45.11186" lon="6.58969">
        <ele>2456</ele>
        <time>2021-07-15T07:21:01Z</time>
      </trkpt>
      <trkpt lat="45.11174" lon="6.58953">
        <ele>2451</ele>
        <time>2021-07-15T07:21:21Z</time>
      </trkpt>
      <trkpt lat="45.11166" lon="6.58933">
        <ele>2450</ele>
        <time>2021-07-15T07:21:32Z</time>
      </trkpt>
      <trkpt lat="45.11165" lon="6.58911">
        <ele>2450</ele>
        <time>2021-07-15T07:21:43Z</time>
      </trkpt>
      <trkpt lat="45.1116" lon="6.58892">
        <ele>2451</ele>
        <time>2021-07-15T07:21:56Z</time>
      </trkpt>
      <trkpt lat="45.11158" lon="6.58887">
        <ele>2450</ele>
        <time>2021-07-15T07:22:00Z</time>
      </trkpt>
      <trkpt lat="45.11155" lon="6.58876">
        <ele>2450</ele>
        <time>2021-07-15T07:22:08Z</time>
      </trkpt>
      <trkpt lat="45.11149" lon="6.58869">
        <ele>2449</ele>
        <time>2021-07-15T07:22:17Z</time>
      </trkpt>
      <trkpt lat="45.11149" lon="6.58852">
        <ele>2448</ele>
        <time>2021-07-15T07:22:31Z</time>
      </trkpt>
      <trkpt lat="45.11145" lon="6.58843">
        <ele>2446</ele>
        <time>2021-07-15T07:22:37Z</time>
      </trkpt>
      <trkpt lat="45.11141" lon="6.58831">
        <ele>2446</ele>
        <time>2021-07-15T07:22:49Z</time>
      </trkpt>
      <trkpt lat="45.11138" lon="6.5882">
        <ele>2448</ele>
        <time>2021-07-15T07:22:58Z</time>
      </trkpt>
      <trkpt lat="45.11134" lon="6.58808">
        <ele>2448</ele>
        <time>2021-07-15T07:23:07Z</time>
      </trkpt>
      <trkpt lat="45.11132" lon="6.58786">
        <ele>2447</ele>
        <time>2021-07-15T07:23:21Z</time>
      </trkpt>
      <trkpt lat="45.11128" lon="6.58779">
        <ele>2445</ele>
        <time>2021-07-15T07:23:29Z</time>
      </trkpt>
      <trkpt lat="45.11119" lon="6.58782">
        <ele>2445</ele>
        <time>2021-07-15T07:23:38Z</time>
      </trkpt>
      <trkpt lat="45.11111" lon="6.5878">
        <ele>2445</ele>
        <time>2021-07-15T07:23:43Z</time>
      </trkpt>
      <trkpt lat="45.11101" lon="6.58782">
        <ele>2442</ele>
        <time>2021-07-15T07:23:57Z</time>
      </trkpt>
      <trkpt lat="45.11092" lon="6.58775">
        <ele>2440</ele>
        <time>2021-07-15T07:24:15Z</time>
      </trkpt>
      <trkpt lat="45.11084" lon="6.58779">
        <ele>2440</ele>
        <time>2021-07-15T07:24:23Z</time>
      </trkpt>
      <trkpt lat="45.11076" lon="6.58781">
        <ele>2439</ele>
        <time>2021-07-15T07:24:30Z</time>
      </trkpt>
      <trkpt lat="45.11061" lon="6.58785">
        <ele>2435</ele>
        <time>2021-07-15T07:24:50Z</time>
      </trkpt>
      <trkpt lat="45.11052" lon="6.58792">
        <ele>2431</ele>
        <time>2021-07-15T07:25:04Z</time>
      </trkpt>
      <trkpt lat="45.11049" lon="6.588">
        <ele>2431</ele>
        <time>2021-07-15T07:25:08Z</time>
      </trkpt>
      <trkpt lat="45.1104" lon="6.58814">
        <ele>2430</ele>
        <time>2021-07-15T07:25:19Z</time>
      </trkpt>
      <trkpt lat="45.11038" lon="6.58821">
        <ele>2430</ele>
        <time>2021-07-15T07:25:23Z</time>
      </trkpt>
      <trkpt lat="45.11034" lon="6.58828">
        <ele>2430</ele>
        <time>2021-07-15T07:25:28Z</time>
      </trkpt>
      <trkpt lat="45.11025" lon="6.58849">
        <ele>2433</ele>
        <time>2021-07-15T07:25:51Z</time>
      </trkpt>
      <trkpt lat="45.11018" lon="6.58852">
        <ele>2433</ele>
        <time>2021-07-15T07:25:58Z</time>
      </trkpt>
      <trkpt lat="45.11006" lon="6.58851">
        <ele>2434</ele>
        <time>2021-07-15T07:26:13Z</time>
      </trkpt>
      <trkpt lat="45.1099" lon="6.58838">
        <ele>2427</ele>
        <time>2021-07-15T07:26:39Z</time>
      </trkpt>
      <trkpt lat="45.10983" lon="6.58835">
        <ele>2426</ele>
        <time>2021-07-15T07:26:45Z</time>
      </trkpt>
      <trkpt lat="45.10976" lon="6.58835">
        <ele>2427</ele>
        <time>2021-07-15T07:26:51Z</time>
      </trkpt>
      <trkpt lat="45.10968" lon="6.58833">
        <ele>2427</ele>
        <time>2021-07-15T07:26:57Z</time>
      </trkpt>
      <trkpt lat="45.1097" lon="6.58819">
        <ele>2428</ele>
        <time>2021-07-15T07:27:08Z</time>
      </trkpt>
      <trkpt lat="45.10971" lon="6.58811">
        <ele>2428</ele>
        <time>2021-07-15T07:27:12Z</time>
      </trkpt>
      <trkpt lat="45.10972" lon="6.58803">
        <ele>2428</ele>
        <time>2021-07-15T07:27:16Z</time>
      </trkpt>
      <trkpt lat="45.10976" lon="6.58794">
        <ele>2428</ele>
        <time>2021-07-15T07:27:22Z</time>
      </trkpt>
      <trkpt lat="45.10973" lon="6.58783">
        <ele>2428</ele>
        <time>2021-07-15T07:27:29Z</time>
      </trkpt>
      <trkpt lat="45.1097" lon="6.58784">
        <ele>2428</ele>
        <time>2021-07-15T07:28:52Z</time>
      </trkpt>
      <trkpt lat="45.10961" lon="6.58787">
        <ele>2429</ele>
        <time>2021-07-15T07:29:58Z</time>
      </trkpt>
      <trkpt lat="45.10959" lon="6.58795">
        <ele>2428</ele>
        <time>2021-07-15T07:30:02Z</time>
      </trkpt>
      <trkpt lat="45.10935" lon="6.58836">
        <ele>2426</ele>
        <time>2021-07-15T07:30:32Z</time>
      </trkpt>
      <trkpt lat="45.10929" lon="6.58842">
        <ele>2427</ele>
        <time>2021-07-15T07:30:38Z</time>
      </trkpt>
      <trkpt lat="45.10925" lon="6.58847">
        <ele>2426</ele>
        <time>2021-07-15T07:30:43Z</time>
      </trkpt>
      <trkpt lat="45.10921" lon="6.58853">
        <ele>2426</ele>
        <time>2021-07-15T07:30:48Z</time>
      </trkpt>
      <trkpt lat="45.10919" lon="6.58875">
        <ele>2425</ele>
        <time>2021-07-15T07:31:04Z</time>
      </trkpt>
      <trkpt lat="45.10917" lon="6.5888">
        <ele>2425</ele>
        <time>2021-07-15T07:31:07Z</time>
      </trkpt>
      <trkpt lat="45.10913" lon="6.58888">
        <ele>2424</ele>
        <time>2021-07-15T07:31:12Z</time>
      </trkpt>
      <trkpt lat="45.10908" lon="6.58893">
        <ele>2425</ele>
        <time>2021-07-15T07:31:17Z</time>
      </trkpt>
      <trkpt lat="45.10903" lon="6.589">
        <ele>2426</ele>
        <time>2021-07-15T07:31:26Z</time>
      </trkpt>
      <trkpt lat="45.109" lon="6.58908">
        <ele>2426</ele>
        <time>2021-07-15T07:31:38Z</time>
      </trkpt>
      <trkpt lat="45.10899" lon="6.58919">
        <ele>2428</ele>
        <time>2021-07-15T07:31:50Z</time>
      </trkpt>
      <trkpt lat="45.10891" lon="6.58921">
        <ele>2426</ele>
        <time>2021-07-15T07:32:00Z</time>
      </trkpt>
      <trkpt lat="45.10883" lon="6.58927">
        <ele>2427</ele>
        <time>2021-07-15T07:32:07Z</time>
      </trkpt>
      <trkpt lat="45.10876" lon="6.5894">
        <ele>2429</ele>
        <time>2021-07-15T07:32:20Z</time>
      </trkpt>
      <trkpt lat="45.10867" lon="6.58944">
        <ele>2433</ele>
        <time>2021-07-15T07:32:41Z</time>
      </trkpt>
      <trkpt lat="45.10861" lon="6.58952">
        <ele>2437</ele>
        <time>2021-07-15T07:32:59Z</time>
      </trkpt>
      <trkpt lat="45.10845" lon="6.58973">
        <ele>2441</ele>
        <time>2021-07-15T07:33:31Z</time>
      </trkpt>
      <trkpt lat="45.10846" lon="6.58987">
        <ele>2443</ele>
        <time>2021-07-15T07:33:44Z</time>
      </trkpt>
      <trkpt lat="45.10844" lon="6.58995">
        <ele>2445</ele>
        <time>2021-07-15T07:33:58Z</time>
      </trkpt>
      <trkpt lat="45.10841" lon="6.59006">
        <ele>2447</ele>
        <time>2021-07-15T07:34:08Z</time>
      </trkpt>
      <trkpt lat="45.10844" lon="6.59017">
        <ele>2447</ele>
        <time>2021-07-15T07:34:14Z</time>
      </trkpt>
      <trkpt lat="45.10843" lon="6.59024">
        <ele>2447</ele>
        <time>2021-07-15T07:34:18Z</time>
      </trkpt>
      <trkpt lat="45.10843" lon="6.59032">
        <ele>2447</ele>
        <time>2021-07-15T07:34:23Z</time>
      </trkpt>
      <trkpt lat="45.10842" lon="6.59054">
        <ele>2446</ele>
        <time>2021-07-15T07:34:39Z</time>
      </trkpt>
      <trkpt lat="45.10844" lon="6.59062">
        <ele>2446</ele>
        <time>2021-07-15T07:34:43Z</time>
      </trkpt>
      <trkpt lat="45.10845" lon="6.59069">
        <ele>2446</ele>
        <time>2021-07-15T07:34:49Z</time>
      </trkpt>
      <trkpt lat="45.10848" lon="6.59077">
        <ele>2445</ele>
        <time>2021-07-15T07:34:55Z</time>
      </trkpt>
      <trkpt lat="45.10852" lon="6.59102">
        <ele>2443</ele>
        <time>2021-07-15T07:35:12Z</time>
      </trkpt>
      <trkpt lat="45.10858" lon="6.59117">
        <ele>2440</ele>
        <time>2021-07-15T07:35:22Z</time>
      </trkpt>
      <trkpt lat="45.10867" lon="6.59129">
        <ele>2438</ele>
        <time>2021-07-15T07:35:33Z</time>
      </trkpt>
      <trkpt lat="45.10861" lon="6.59132">
        <ele>2437</ele>
        <time>2021-07-15T07:35:45Z</time>
      </trkpt>
      <trkpt lat="45.10854" lon="6.59136">
        <ele>2437</ele>
        <time>2021-07-15T07:35:53Z</time>
      </trkpt>
      <trkpt lat="45.10852" lon="6.59145">
        <ele>2437</ele>
        <time>2021-07-15T07:35:59Z</time>
      </trkpt>
      <trkpt lat="45.10848" lon="6.59173">
        <ele>2440</ele>
        <time>2021-07-15T07:36:21Z</time>
      </trkpt>
      <trkpt lat="45.10844" lon="6.59183">
        <ele>2443</ele>
        <time>2021-07-15T07:36:35Z</time>
      </trkpt>
      <trkpt lat="45.1084" lon="6.59192">
        <ele>2443</ele>
        <time>2021-07-15T07:36:41Z</time>
      </trkpt>
      <trkpt lat="45.10842" lon="6.5921">
        <ele>2444</ele>
        <time>2021-07-15T07:36:56Z</time>
      </trkpt>
      <trkpt lat="45.10838" lon="6.59232">
        <ele>2447</ele>
        <time>2021-07-15T07:37:19Z</time>
      </trkpt>
      <trkpt lat="45.10837" lon="6.59245">
        <ele>2448</ele>
        <time>2021-07-15T07:37:34Z</time>
      </trkpt>
      <trkpt lat="45.10835" lon="6.59253">
        <ele>2447</ele>
        <time>2021-07-15T07:37:44Z</time>
      </trkpt>
      <trkpt lat="45.10832" lon="6.59262">
        <ele>2449</ele>
        <time>2021-07-15T07:37:59Z</time>
      </trkpt>
      <trkpt lat="45.10835" lon="6.59277">
        <ele>2451</ele>
        <time>2021-07-15T07:38:12Z</time>
      </trkpt>
      <trkpt lat="45.10838" lon="6.59294">
        <ele>2451</ele>
        <time>2021-07-15T07:38:23Z</time>
      </trkpt>
      <trkpt lat="45.10833" lon="6.59301">
        <ele>2451</ele>
        <time>2021-07-15T07:38:31Z</time>
      </trkpt>
      <trkpt lat="45.10826" lon="6.59307">
        <ele>2452</ele>
        <time>2021-07-15T07:38:44Z</time>
      </trkpt>
      <trkpt lat="45.10812" lon="6.59311">
        <ele>2455</ele>
        <time>2021-07-15T07:39:05Z</time>
      </trkpt>
      <trkpt lat="45.10804" lon="6.5932">
        <ele>2455</ele>
        <time>2021-07-15T07:39:21Z</time>
      </trkpt>
      <trkpt lat="45.10795" lon="6.59335">
        <ele>2456</ele>
        <time>2021-07-15T07:39:41Z</time>
      </trkpt>
      <trkpt lat="45.10788" lon="6.59328">
        <ele>2455</ele>
        <time>2021-07-15T07:39:53Z</time>
      </trkpt>
      <trkpt lat="45.10782" lon="6.59335">
        <ele>2457</ele>
        <time>2021-07-15T07:40:07Z</time>
      </trkpt>
      <trkpt lat="45.10765" lon="6.59342">
        <ele>2461</ele>
        <time>2021-07-15T07:40:37Z</time>
      </trkpt>
      <trkpt lat="45.1076" lon="6.59358">
        <ele>2463</ele>
        <time>2021-07-15T07:40:52Z</time>
      </trkpt>
      <trkpt lat="45.10749" lon="6.59358">
        <ele>2464</ele>
        <time>2021-07-15T07:41:06Z</time>
      </trkpt>
      <trkpt lat="45.10735" lon="6.59366">
        <ele>2467</ele>
        <time>2021-07-15T07:41:39Z</time>
      </trkpt>
      <trkpt lat="45.1073" lon="6.59371">
        <ele>2468</ele>
        <time>2021-07-15T07:41:45Z</time>
      </trkpt>
      <trkpt lat="45.10725" lon="6.59374">
        <ele>2469</ele>
        <time>2021-07-15T07:41:53Z</time>
      </trkpt>
      <trkpt lat="45.1072" lon="6.59372">
        <ele>2471</ele>
        <time>2021-07-15T07:42:05Z</time>
      </trkpt>
      <trkpt lat="45.10712" lon="6.5938">
        <ele>2472</ele>
        <time>2021-07-15T07:42:18Z</time>
      </trkpt>
      <trkpt lat="45.10709" lon="6.59388">
        <ele>2473</ele>
        <time>2021-07-15T07:42:26Z</time>
      </trkpt>
      <trkpt lat="45.10703" lon="6.59393">
        <ele>2474</ele>
        <time>2021-07-15T07:42:34Z</time>
      </trkpt>
      <trkpt lat="45.10696" lon="6.59397">
        <ele>2476</ele>
        <time>2021-07-15T07:42:46Z</time>
      </trkpt>
      <trkpt lat="45.10691" lon="6.59406">
        <ele>2478</ele>
        <time>2021-07-15T07:42:58Z</time>
      </trkpt>
      <trkpt lat="45.10687" lon="6.59413">
        <ele>2478</ele>
        <time>2021-07-15T07:43:04Z</time>
      </trkpt>
      <trkpt lat="45.10684" lon="6.5942">
        <ele>2478</ele>
        <time>2021-07-15T07:43:15Z</time>
      </trkpt>
      <trkpt lat="45.1068" lon="6.59428">
        <ele>2480</ele>
        <time>2021-07-15T07:43:33Z</time>
      </trkpt>
      <trkpt lat="45.10672" lon="6.59433">
        <ele>2483</ele>
        <time>2021-07-15T07:43:51Z</time>
      </trkpt>
      <trkpt lat="45.10665" lon="6.59433">
        <ele>2485</ele>
        <time>2021-07-15T07:44:09Z</time>
      </trkpt>
      <trkpt lat="45.10655" lon="6.59459">
        <ele>2492</ele>
        <time>2021-07-15T07:44:57Z</time>
      </trkpt>
      <trkpt lat="45.10652" lon="6.59469">
        <ele>2495</ele>
        <time>2021-07-15T07:45:13Z</time>
      </trkpt>
      <trkpt lat="45.10646" lon="6.59474">
        <ele>2496</ele>
        <time>2021-07-15T07:45:25Z</time>
      </trkpt>
      <trkpt lat="45.10642" lon="6.59485">
        <ele>2498</ele>
        <time>2021-07-15T07:45:40Z</time>
      </trkpt>
      <trkpt lat="45.10643" lon="6.59497">
        <ele>2500</ele>
        <time>2021-07-15T07:45:58Z</time>
      </trkpt>
      <trkpt lat="45.10639" lon="6.59507">
        <ele>2502</ele>
        <time>2021-07-15T07:46:09Z</time>
      </trkpt>
      <trkpt lat="45.10636" lon="6.59514">
        <ele>2503</ele>
        <time>2021-07-15T07:46:21Z</time>
      </trkpt>
      <trkpt lat="45.10631" lon="6.5951">
        <ele>2504</ele>
        <time>2021-07-15T07:46:28Z</time>
      </trkpt>
      <trkpt lat="45.10626" lon="6.59514">
        <ele>2506</ele>
        <time>2021-07-15T07:46:42Z</time>
      </trkpt>
      <trkpt lat="45.10619" lon="6.59512">
        <ele>2508</ele>
        <time>2021-07-15T07:47:00Z</time>
      </trkpt>
      <trkpt lat="45.1062" lon="6.5951">
        <ele>2511</ele>
        <time>2021-07-15T07:50:06Z</time>
      </trkpt>
      <trkpt lat="45.10613" lon="6.5951">
        <ele>2510</ele>
        <time>2021-07-15T07:56:03Z</time>
      </trkpt>
      <trkpt lat="45.10605" lon="6.59507">
        <ele>2513</ele>
        <time>2021-07-15T07:56:15Z</time>
      </trkpt>
      <trkpt lat="45.10599" lon="6.59499">
        <ele>2515</ele>
        <time>2021-07-15T07:56:27Z</time>
      </trkpt>
      <trkpt lat="45.10594" lon="6.59495">
        <ele>2516</ele>
        <time>2021-07-15T07:56:34Z</time>
      </trkpt>
      <trkpt lat="45.1059" lon="6.59502">
        <ele>2519</ele>
        <time>2021-07-15T07:56:58Z</time>
      </trkpt>
      <trkpt lat="45.10584" lon="6.595">
        <ele>2523</ele>
        <time>2021-07-15T07:57:22Z</time>
      </trkpt>
      <trkpt lat="45.1058" lon="6.5949">
        <ele>2525</ele>
        <time>2021-07-15T07:57:33Z</time>
      </trkpt>
      <trkpt lat="45.10574" lon="6.59487">
        <ele>2526</ele>
        <time>2021-07-15T07:57:47Z</time>
      </trkpt>
      <trkpt lat="45.1057" lon="6.5948">
        <ele>2526</ele>
        <time>2021-07-15T07:57:54Z</time>
      </trkpt>
      <trkpt lat="45.10566" lon="6.59474">
        <ele>2526</ele>
        <time>2021-07-15T07:58:02Z</time>
      </trkpt>
      <trkpt lat="45.10564" lon="6.59462">
        <ele>2526</ele>
        <time>2021-07-15T07:58:14Z</time>
      </trkpt>
      <trkpt lat="45.10552" lon="6.59457">
        <ele>2532</ele>
        <time>2021-07-15T07:58:48Z</time>
      </trkpt>
      <trkpt lat="45.10549" lon="6.59449">
        <ele>2537</ele>
        <time>2021-07-15T07:59:13Z</time>
      </trkpt>
      <trkpt lat="45.10542" lon="6.59447">
        <ele>2538</ele>
        <time>2021-07-15T07:59:35Z</time>
      </trkpt>
      <trkpt lat="45.10536" lon="6.59446">
        <ele>2542</ele>
        <time>2021-07-15T07:59:59Z</time>
      </trkpt>
      <trkpt lat="45.10532" lon="6.59437">
        <ele>2545</ele>
        <time>2021-07-15T08:00:17Z</time>
      </trkpt>
      <trkpt lat="45.10532" lon="6.59428">
        <ele>2547</ele>
        <time>2021-07-15T08:00:41Z</time>
      </trkpt>
      <trkpt lat="45.10528" lon="6.59419">
        <ele>2549</ele>
        <time>2021-07-15T08:00:53Z</time>
      </trkpt>
      <trkpt lat="45.10528" lon="6.59411">
        <ele>2554</ele>
        <time>2021-07-15T08:01:23Z</time>
      </trkpt>
      <trkpt lat="45.10531" lon="6.59401">
        <ele>2558</ele>
        <time>2021-07-15T08:01:47Z</time>
      </trkpt>
      <trkpt lat="45.10525" lon="6.59397">
        <ele>2561</ele>
        <time>2021-07-15T08:02:05Z</time>
      </trkpt>
      <trkpt lat="45.10527" lon="6.59387">
        <ele>2563</ele>
        <time>2021-07-15T08:02:17Z</time>
      </trkpt>
      <trkpt lat="45.10531" lon="6.5938">
        <ele>2565</ele>
        <time>2021-07-15T08:02:29Z</time>
      </trkpt>
      <trkpt lat="45.10532" lon="6.59371">
        <ele>2570</ele>
        <time>2021-07-15T08:02:59Z</time>
      </trkpt>
      <trkpt lat="45.10532" lon="6.5936">
        <ele>2572</ele>
        <time>2021-07-15T08:03:17Z</time>
      </trkpt>
      <trkpt lat="45.10533" lon="6.59348">
        <ele>2575</ele>
        <time>2021-07-15T08:03:41Z</time>
      </trkpt>
      <trkpt lat="45.10535" lon="6.5934">
        <ele>2577</ele>
        <time>2021-07-15T08:03:53Z</time>
      </trkpt>
      <trkpt lat="45.10536" lon="6.59332">
        <ele>2577</ele>
        <time>2021-07-15T08:04:05Z</time>
      </trkpt>
      <trkpt lat="45.10535" lon="6.59325">
        <ele>2581</ele>
        <time>2021-07-15T08:04:23Z</time>
      </trkpt>
      <trkpt lat="45.10529" lon="6.59315">
        <ele>2583</ele>
        <time>2021-07-15T08:04:37Z</time>
      </trkpt>
      <trkpt lat="45.10516" lon="6.59301">
        <ele>2585</ele>
        <time>2021-07-15T08:05:01Z</time>
      </trkpt>
      <trkpt lat="45.10513" lon="6.59289">
        <ele>2586</ele>
        <time>2021-07-15T08:05:12Z</time>
      </trkpt>
      <trkpt lat="45.10521" lon="6.59272">
        <ele>2589</ele>
        <time>2021-07-15T08:05:36Z</time>
      </trkpt>
      <trkpt lat="45.1052" lon="6.59263">
        <ele>2593</ele>
        <time>2021-07-15T08:05:57Z</time>
      </trkpt>
      <trkpt lat="45.10519" lon="6.59256">
        <ele>2595</ele>
        <time>2021-07-15T08:06:08Z</time>
      </trkpt>
      <trkpt lat="45.10527" lon="6.59235">
        <ele>2601</ele>
        <time>2021-07-15T08:06:48Z</time>
      </trkpt>
      <trkpt lat="45.1053" lon="6.59216">
        <ele>2602</ele>
        <time>2021-07-15T08:07:03Z</time>
      </trkpt>
      <trkpt lat="45.10533" lon="6.59189">
        <ele>2608</ele>
        <time>2021-07-15T08:07:36Z</time>
      </trkpt>
      <trkpt lat="45.10533" lon="6.59158">
        <ele>2608</ele>
        <time>2021-07-15T08:07:55Z</time>
      </trkpt>
      <trkpt lat="45.10532" lon="6.5914">
        <ele>2608</ele>
        <time>2021-07-15T08:08:09Z</time>
      </trkpt>
      <trkpt lat="45.10534" lon="6.59132">
        <ele>2609</ele>
        <time>2021-07-15T08:08:14Z</time>
      </trkpt>
      <trkpt lat="45.10536" lon="6.59124">
        <ele>2608</ele>
        <time>2021-07-15T08:08:20Z</time>
      </trkpt>
      <trkpt lat="45.10537" lon="6.59117">
        <ele>2609</ele>
        <time>2021-07-15T08:08:26Z</time>
      </trkpt>
      <trkpt lat="45.10535" lon="6.59106">
        <ele>2609</ele>
        <time>2021-07-15T08:08:35Z</time>
      </trkpt>
      <trkpt lat="45.10539" lon="6.59096">
        <ele>2609</ele>
        <time>2021-07-15T08:08:44Z</time>
      </trkpt>
      <trkpt lat="45.10538" lon="6.59078">
        <ele>2610</ele>
        <time>2021-07-15T08:08:58Z</time>
      </trkpt>
      <trkpt lat="45.10538" lon="6.59069">
        <ele>2610</ele>
        <time>2021-07-15T08:09:03Z</time>
      </trkpt>
      <trkpt lat="45.10539" lon="6.59062">
        <ele>2609</ele>
        <time>2021-07-15T08:09:08Z</time>
      </trkpt>
      <trkpt lat="45.10543" lon="6.59045">
        <ele>2611</ele>
        <time>2021-07-15T08:09:22Z</time>
      </trkpt>
      <trkpt lat="45.1054" lon="6.59035">
        <ele>2611</ele>
        <time>2021-07-15T08:09:30Z</time>
      </trkpt>
      <trkpt lat="45.10539" lon="6.59029">
        <ele>2612</ele>
        <time>2021-07-15T08:09:34Z</time>
      </trkpt>
      <trkpt lat="45.1054" lon="6.59019">
        <ele>2612</ele>
        <time>2021-07-15T08:09:42Z</time>
      </trkpt>
      <trkpt lat="45.10538" lon="6.59011">
        <ele>2612</ele>
        <time>2021-07-15T08:09:47Z</time>
      </trkpt>
      <trkpt lat="45.10537" lon="6.58985">
        <ele>2614</ele>
        <time>2021-07-15T08:10:06Z</time>
      </trkpt>
      <trkpt lat="45.10538" lon="6.5898">
        <ele>2614</ele>
        <time>2021-07-15T08:10:09Z</time>
      </trkpt>
      <trkpt lat="45.10536" lon="6.58972">
        <ele>2615</ele>
        <time>2021-07-15T08:10:17Z</time>
      </trkpt>
      <trkpt lat="45.10529" lon="6.58953">
        <ele>2617</ele>
        <time>2021-07-15T08:10:32Z</time>
      </trkpt>
      <trkpt lat="45.1053" lon="6.5894">
        <ele>2615</ele>
        <time>2021-07-15T08:10:41Z</time>
      </trkpt>
      <trkpt lat="45.10533" lon="6.58924">
        <ele>2615</ele>
        <time>2021-07-15T08:10:53Z</time>
      </trkpt>
      <trkpt lat="45.10535" lon="6.58911">
        <ele>2615</ele>
        <time>2021-07-15T08:11:00Z</time>
      </trkpt>
      <trkpt lat="45.10536" lon="6.58902">
        <ele>2615</ele>
        <time>2021-07-15T08:11:07Z</time>
      </trkpt>
      <trkpt lat="45.10533" lon="6.58889">
        <ele>2615</ele>
        <time>2021-07-15T08:11:15Z</time>
      </trkpt>
      <trkpt lat="45.10531" lon="6.58877">
        <ele>2615</ele>
        <time>2021-07-15T08:11:24Z</time>
      </trkpt>
      <trkpt lat="45.10528" lon="6.58868">
        <ele>2616</ele>
        <time>2021-07-15T08:11:32Z</time>
      </trkpt>
      <trkpt lat="45.1053" lon="6.58859">
        <ele>2618</ele>
        <time>2021-07-15T08:11:41Z</time>
      </trkpt>
      <trkpt lat="45.1053" lon="6.58839">
        <ele>2622</ele>
        <time>2021-07-15T08:12:05Z</time>
      </trkpt>
      <trkpt lat="45.10531" lon="6.58828">
        <ele>2624</ele>
        <time>2021-07-15T08:12:16Z</time>
      </trkpt>
      <trkpt lat="45.10527" lon="6.58815">
        <ele>2626</ele>
        <time>2021-07-15T08:12:30Z</time>
      </trkpt>
      <trkpt lat="45.10526" lon="6.5881">
        <ele>2626</ele>
        <time>2021-07-15T08:12:34Z</time>
      </trkpt>
      <trkpt lat="45.10524" lon="6.58803">
        <ele>2627</ele>
        <time>2021-07-15T08:12:41Z</time>
      </trkpt>
      <trkpt lat="45.10523" lon="6.58788">
        <ele>2629</ele>
        <time>2021-07-15T08:12:58Z</time>
      </trkpt>
      <trkpt lat="45.10526" lon="6.5878">
        <ele>2632</ele>
        <time>2021-07-15T08:13:09Z</time>
      </trkpt>
      <trkpt lat="45.10528" lon="6.58771">
        <ele>2635</ele>
        <time>2021-07-15T08:13:24Z</time>
      </trkpt>
      <trkpt lat="45.10534" lon="6.58765">
        <ele>2638</ele>
        <time>2021-07-15T08:13:36Z</time>
      </trkpt>
      <trkpt lat="45.10536" lon="6.58755">
        <ele>2640</ele>
        <time>2021-07-15T08:13:48Z</time>
      </trkpt>
      <trkpt lat="45.10536" lon="6.58744">
        <ele>2643</ele>
        <time>2021-07-15T08:14:01Z</time>
      </trkpt>
      <trkpt lat="45.10533" lon="6.58741">
        <ele>2643</ele>
        <time>2021-07-15T08:14:06Z</time>
      </trkpt>
      <trkpt lat="45.10531" lon="6.58736">
        <ele>2644</ele>
        <time>2021-07-15T08:14:11Z</time>
      </trkpt>
      <trkpt lat="45.10533" lon="6.58731">
        <ele>2645</ele>
        <time>2021-07-15T08:14:16Z</time>
      </trkpt>
      <trkpt lat="45.1053" lon="6.58723">
        <ele>2645</ele>
        <time>2021-07-15T08:14:27Z</time>
      </trkpt>
      <trkpt lat="45.10528" lon="6.58719">
        <ele>2646</ele>
        <time>2021-07-15T08:14:31Z</time>
      </trkpt>
      <trkpt lat="45.10528" lon="6.58711">
        <ele>2646</ele>
        <time>2021-07-15T08:14:39Z</time>
      </trkpt>
      <trkpt lat="45.10525" lon="6.58703">
        <ele>2647</ele>
        <time>2021-07-15T08:14:44Z</time>
      </trkpt>
      <trkpt lat="45.10521" lon="6.58697">
        <ele>2648</ele>
        <time>2021-07-15T08:14:53Z</time>
      </trkpt>
      <trkpt lat="45.1052" lon="6.58691">
        <ele>2649</ele>
        <time>2021-07-15T08:14:59Z</time>
      </trkpt>
      <trkpt lat="45.10513" lon="6.58673">
        <ele>2651</ele>
        <time>2021-07-15T08:15:17Z</time>
      </trkpt>
      <trkpt lat="45.10516" lon="6.58675">
        <ele>2651</ele>
        <time>2021-07-15T08:16:27Z</time>
      </trkpt>
      <trkpt lat="45.10518" lon="6.58656">
        <ele>2653</ele>
        <time>2021-07-15T08:16:48Z</time>
      </trkpt>
      <trkpt lat="45.10518" lon="6.58646">
        <ele>2655</ele>
        <time>2021-07-15T08:17:03Z</time>
      </trkpt>
      <trkpt lat="45.10521" lon="6.58638">
        <ele>2656</ele>
        <time>2021-07-15T08:17:15Z</time>
      </trkpt>
      <trkpt lat="45.1052" lon="6.58626">
        <ele>2659</ele>
        <time>2021-07-15T08:17:32Z</time>
      </trkpt>
      <trkpt lat="45.10524" lon="6.58622">
        <ele>2659</ele>
        <time>2021-07-15T08:17:42Z</time>
      </trkpt>
      <trkpt lat="45.10528" lon="6.58616">
        <ele>2660</ele>
        <time>2021-07-15T08:17:53Z</time>
      </trkpt>
      <trkpt lat="45.10538" lon="6.58608">
        <ele>2661</ele>
        <time>2021-07-15T08:18:11Z</time>
      </trkpt>
      <trkpt lat="45.10536" lon="6.5861">
        <ele>2659</ele>
        <time>2021-07-15T08:20:51Z</time>
      </trkpt>
      <trkpt lat="45.10534" lon="6.58605">
        <ele>2658</ele>
        <time>2021-07-15T08:23:52Z</time>
      </trkpt>
      <trkpt lat="45.10535" lon="6.58593">
        <ele>2658</ele>
        <time>2021-07-15T08:26:55Z</time>
      </trkpt>
      <trkpt lat="45.10532" lon="6.58584">
        <ele>2657</ele>
        <time>2021-07-15T08:27:04Z</time>
      </trkpt>
      <trkpt lat="45.10531" lon="6.58576">
        <ele>2657</ele>
        <time>2021-07-15T08:27:08Z</time>
      </trkpt>
      <trkpt lat="45.1053" lon="6.58567">
        <ele>2658</ele>
        <time>2021-07-15T08:27:13Z</time>
      </trkpt>
      <trkpt lat="45.1053" lon="6.58538">
        <ele>2663</ele>
        <time>2021-07-15T08:27:42Z</time>
      </trkpt>
      <trkpt lat="45.10539" lon="6.58523">
        <ele>2664</ele>
        <time>2021-07-15T08:27:55Z</time>
      </trkpt>
      <trkpt lat="45.10542" lon="6.58512">
        <ele>2665</ele>
        <time>2021-07-15T08:28:04Z</time>
      </trkpt>
      <trkpt lat="45.1055" lon="6.58486">
        <ele>2668</ele>
        <time>2021-07-15T08:28:27Z</time>
      </trkpt>
      <trkpt lat="45.10552" lon="6.58478">
        <ele>2668</ele>
        <time>2021-07-15T08:28:33Z</time>
      </trkpt>
      <trkpt lat="45.10554" lon="6.58468">
        <ele>2670</ele>
        <time>2021-07-15T08:28:42Z</time>
      </trkpt>
      <trkpt lat="45.10555" lon="6.58459">
        <ele>2670</ele>
        <time>2021-07-15T08:28:46Z</time>
      </trkpt>
      <trkpt lat="45.1056" lon="6.58448">
        <ele>2672</ele>
        <time>2021-07-15T08:28:57Z</time>
      </trkpt>
      <trkpt lat="45.10564" lon="6.58431">
        <ele>2672</ele>
        <time>2021-07-15T08:29:11Z</time>
      </trkpt>
      <trkpt lat="45.10564" lon="6.58423">
        <ele>2673</ele>
        <time>2021-07-15T08:29:20Z</time>
      </trkpt>
      <trkpt lat="45.10562" lon="6.58414">
        <ele>2672</ele>
        <time>2021-07-15T08:29:25Z</time>
      </trkpt>
      <trkpt lat="45.10563" lon="6.58404">
        <ele>2673</ele>
        <time>2021-07-15T08:29:33Z</time>
      </trkpt>
      <trkpt lat="45.10564" lon="6.58386">
        <ele>2676</ele>
        <time>2021-07-15T08:29:47Z</time>
      </trkpt>
      <trkpt lat="45.10567" lon="6.58358">
        <ele>2679</ele>
        <time>2021-07-15T08:30:12Z</time>
      </trkpt>
      <trkpt lat="45.10564" lon="6.58328">
        <ele>2683</ele>
        <time>2021-07-15T08:30:38Z</time>
      </trkpt>
      <trkpt lat="45.10572" lon="6.5829">
        <ele>2687</ele>
        <time>2021-07-15T08:31:13Z</time>
      </trkpt>
      <trkpt lat="45.10573" lon="6.58283">
        <ele>2687</ele>
        <time>2021-07-15T08:31:19Z</time>
      </trkpt>
      <trkpt lat="45.10575" lon="6.58259">
        <ele>2689</ele>
        <time>2021-07-15T08:31:41Z</time>
      </trkpt>
      <trkpt lat="45.1058" lon="6.58241">
        <ele>2692</ele>
        <time>2021-07-15T08:31:56Z</time>
      </trkpt>
      <trkpt lat="45.10581" lon="6.58232">
        <ele>2694</ele>
        <time>2021-07-15T08:32:05Z</time>
      </trkpt>
      <trkpt lat="45.1058" lon="6.58218">
        <ele>2696</ele>
        <time>2021-07-15T08:32:16Z</time>
      </trkpt>
      <trkpt lat="45.10581" lon="6.58201">
        <ele>2698</ele>
        <time>2021-07-15T08:32:32Z</time>
      </trkpt>
      <trkpt lat="45.10582" lon="6.5819">
        <ele>2701</ele>
        <time>2021-07-15T08:32:44Z</time>
      </trkpt>
      <trkpt lat="45.10584" lon="6.58175">
        <ele>2701</ele>
        <time>2021-07-15T08:32:56Z</time>
      </trkpt>
      <trkpt lat="45.10586" lon="6.58167">
        <ele>2702</ele>
        <time>2021-07-15T08:33:02Z</time>
      </trkpt>
      <trkpt lat="45.10586" lon="6.58158">
        <ele>2703</ele>
        <time>2021-07-15T08:33:08Z</time>
      </trkpt>
      <trkpt lat="45.10592" lon="6.58141">
        <ele>2706</ele>
        <time>2021-07-15T08:33:21Z</time>
      </trkpt>
      <trkpt lat="45.10592" lon="6.58134">
        <ele>2706</ele>
        <time>2021-07-15T08:33:26Z</time>
      </trkpt>
      <trkpt lat="45.10604" lon="6.58092">
        <ele>2708</ele>
        <time>2021-07-15T08:33:59Z</time>
      </trkpt>
      <trkpt lat="45.10607" lon="6.5808">
        <ele>2708</ele>
        <time>2021-07-15T08:34:08Z</time>
      </trkpt>
      <trkpt lat="45.1061" lon="6.58073">
        <ele>2708</ele>
        <time>2021-07-15T08:34:16Z</time>
      </trkpt>
      <trkpt lat="45.10612" lon="6.58063">
        <ele>2709</ele>
        <time>2021-07-15T08:34:27Z</time>
      </trkpt>
      <trkpt lat="45.10613" lon="6.58051">
        <ele>2710</ele>
        <time>2021-07-15T08:34:38Z</time>
      </trkpt>
      <trkpt lat="45.1062" lon="6.58045">
        <ele>2712</ele>
        <time>2021-07-15T08:34:49Z</time>
      </trkpt>
      <trkpt lat="45.10626" lon="6.58033">
        <ele>2713</ele>
        <time>2021-07-15T08:35:00Z</time>
      </trkpt>
      <trkpt lat="45.10642" lon="6.58022">
        <ele>2716</ele>
        <time>2021-07-15T08:35:21Z</time>
      </trkpt>
      <trkpt lat="45.10648" lon="6.58021">
        <ele>2717</ele>
        <time>2021-07-15T08:35:27Z</time>
      </trkpt>
      <trkpt lat="45.10654" lon="6.58014">
        <ele>2718</ele>
        <time>2021-07-15T08:35:36Z</time>
      </trkpt>
      <trkpt lat="45.10656" lon="6.58006">
        <ele>2718</ele>
        <time>2021-07-15T08:35:41Z</time>
      </trkpt>
      <trkpt lat="45.10662" lon="6.58003">
        <ele>2718</ele>
        <time>2021-07-15T08:35:48Z</time>
      </trkpt>
      <trkpt lat="45.10667" lon="6.57998">
        <ele>2718</ele>
        <time>2021-07-15T08:35:54Z</time>
      </trkpt>
      <trkpt lat="45.10675" lon="6.57981">
        <ele>2720</ele>
        <time>2021-07-15T08:36:09Z</time>
      </trkpt>
      <trkpt lat="45.10675" lon="6.57972">
        <ele>2720</ele>
        <time>2021-07-15T08:36:14Z</time>
      </trkpt>
      <trkpt lat="45.10677" lon="6.57965">
        <ele>2720</ele>
        <time>2021-07-15T08:36:23Z</time>
      </trkpt>
      <trkpt lat="45.10679" lon="6.57961">
        <ele>2720</ele>
        <time>2021-07-15T08:36:28Z</time>
      </trkpt>
      <trkpt lat="45.10682" lon="6.57953">
        <ele>2719</ele>
        <time>2021-07-15T08:36:34Z</time>
      </trkpt>
      <trkpt lat="45.10687" lon="6.5795">
        <ele>2719</ele>
        <time>2021-07-15T08:36:40Z</time>
      </trkpt>
      <trkpt lat="45.1069" lon="6.57941">
        <ele>2718</ele>
        <time>2021-07-15T08:36:48Z</time>
      </trkpt>
      <trkpt lat="45.10694" lon="6.57932">
        <ele>2719</ele>
        <time>2021-07-15T08:37:00Z</time>
      </trkpt>
      <trkpt lat="45.10697" lon="6.57905">
        <ele>2719</ele>
        <time>2021-07-15T08:37:16Z</time>
      </trkpt>
      <trkpt lat="45.107" lon="6.57883">
        <ele>2721</ele>
        <time>2021-07-15T08:37:33Z</time>
      </trkpt>
      <trkpt lat="45.10701" lon="6.57876">
        <ele>2719</ele>
        <time>2021-07-15T08:37:38Z</time>
      </trkpt>
      <trkpt lat="45.10703" lon="6.57856">
        <ele>2718</ele>
        <time>2021-07-15T08:37:54Z</time>
      </trkpt>
      <trkpt lat="45.10703" lon="6.57849">
        <ele>2717</ele>
        <time>2021-07-15T08:37:58Z</time>
      </trkpt>
      <trkpt lat="45.10705" lon="6.5784">
        <ele>2717</ele>
        <time>2021-07-15T08:38:02Z</time>
      </trkpt>
      <trkpt lat="45.10707" lon="6.57833">
        <ele>2718</ele>
        <time>2021-07-15T08:38:06Z</time>
      </trkpt>
      <trkpt lat="45.10711" lon="6.57826">
        <ele>2717</ele>
        <time>2021-07-15T08:38:12Z</time>
      </trkpt>
      <trkpt lat="45.10715" lon="6.57815">
        <ele>2719</ele>
        <time>2021-07-15T08:38:26Z</time>
      </trkpt>
      <trkpt lat="45.10715" lon="6.57807">
        <ele>2720</ele>
        <time>2021-07-15T08:38:30Z</time>
      </trkpt>
      <trkpt lat="45.10718" lon="6.57798">
        <ele>2719</ele>
        <time>2021-07-15T08:38:37Z</time>
      </trkpt>
      <trkpt lat="45.10725" lon="6.57793">
        <ele>2720</ele>
        <time>2021-07-15T08:38:46Z</time>
      </trkpt>
      <trkpt lat="45.10729" lon="6.57783">
        <ele>2720</ele>
        <time>2021-07-15T08:38:54Z</time>
      </trkpt>
      <trkpt lat="45.10733" lon="6.57774">
        <ele>2721</ele>
        <time>2021-07-15T08:39:04Z</time>
      </trkpt>
      <trkpt lat="45.10735" lon="6.57767">
        <ele>2720</ele>
        <time>2021-07-15T08:39:09Z</time>
      </trkpt>
      <trkpt lat="45.10738" lon="6.57759">
        <ele>2722</ele>
        <time>2021-07-15T08:39:15Z</time>
      </trkpt>
      <trkpt lat="45.10741" lon="6.57749">
        <ele>2722</ele>
        <time>2021-07-15T08:39:23Z</time>
      </trkpt>
      <trkpt lat="45.10743" lon="6.57741">
        <ele>2723</ele>
        <time>2021-07-15T08:39:27Z</time>
      </trkpt>
      <trkpt lat="45.10748" lon="6.57735">
        <ele>2723</ele>
        <time>2021-07-15T08:39:35Z</time>
      </trkpt>
      <trkpt lat="45.10752" lon="6.57728">
        <ele>2722</ele>
        <time>2021-07-15T08:39:41Z</time>
      </trkpt>
      <trkpt lat="45.10753" lon="6.5772">
        <ele>2723</ele>
        <time>2021-07-15T08:39:47Z</time>
      </trkpt>
      <trkpt lat="45.10754" lon="6.57712">
        <ele>2727</ele>
        <time>2021-07-15T08:39:55Z</time>
      </trkpt>
      <trkpt lat="45.10752" lon="6.57714">
        <ele>2725</ele>
        <time>2021-07-15T08:42:43Z</time>
      </trkpt>
      <trkpt lat="45.10751" lon="6.57704">
        <ele>2732</ele>
        <time>2021-07-15T08:42:50Z</time>
      </trkpt>
      <trkpt lat="45.10749" lon="6.5769">
        <ele>2731</ele>
        <time>2021-07-15T08:43:01Z</time>
      </trkpt>
      <trkpt lat="45.10749" lon="6.57678">
        <ele>2729</ele>
        <time>2021-07-15T08:43:13Z</time>
      </trkpt>
      <trkpt lat="45.10749" lon="6.57669">
        <ele>2730</ele>
        <time>2021-07-15T08:43:25Z</time>
      </trkpt>
      <trkpt lat="45.10747" lon="6.57661">
        <ele>2731</ele>
        <time>2021-07-15T08:43:42Z</time>
      </trkpt>
      <trkpt lat="45.1074" lon="6.57655">
        <ele>2733</ele>
        <time>2021-07-15T08:43:54Z</time>
      </trkpt>
      <trkpt lat="45.10739" lon="6.57646">
        <ele>2737</ele>
        <time>2021-07-15T08:44:12Z</time>
      </trkpt>
      <trkpt lat="45.10737" lon="6.57638">
        <ele>2740</ele>
        <time>2021-07-15T08:44:36Z</time>
      </trkpt>
      <trkpt lat="45.1074" lon="6.57632">
        <ele>2739</ele>
        <time>2021-07-15T08:44:42Z</time>
      </trkpt>
      <trkpt lat="45.10747" lon="6.57627">
        <ele>2742</ele>
        <time>2021-07-15T08:44:56Z</time>
      </trkpt>
      <trkpt lat="45.10745" lon="6.57619">
        <ele>2748</ele>
        <time>2021-07-15T08:45:20Z</time>
      </trkpt>
      <trkpt lat="45.10734" lon="6.57606">
        <ele>2748</ele>
        <time>2021-07-15T08:45:40Z</time>
      </trkpt>
      <trkpt lat="45.10731" lon="6.57594">
        <ele>2752</ele>
        <time>2021-07-15T08:45:55Z</time>
      </trkpt>
      <trkpt lat="45.10732" lon="6.57584">
        <ele>2754</ele>
        <time>2021-07-15T08:46:07Z</time>
      </trkpt>
      <trkpt lat="45.10737" lon="6.57574">
        <ele>2757</ele>
        <time>2021-07-15T08:46:25Z</time>
      </trkpt>
      <trkpt lat="45.10739" lon="6.57561">
        <ele>2760</ele>
        <time>2021-07-15T08:46:49Z</time>
      </trkpt>
      <trkpt lat="45.10738" lon="6.57553">
        <ele>2761</ele>
        <time>2021-07-15T08:47:01Z</time>
      </trkpt>
      <trkpt lat="45.10743" lon="6.57548">
        <ele>2763</ele>
        <time>2021-07-15T08:47:13Z</time>
      </trkpt>
      <trkpt lat="45.10745" lon="6.57541">
        <ele>2765</ele>
        <time>2021-07-15T08:47:25Z</time>
      </trkpt>
      <trkpt lat="45.10755" lon="6.57529">
        <ele>2768</ele>
        <time>2021-07-15T08:47:50Z</time>
      </trkpt>
      <trkpt lat="45.10747" lon="6.5752">
        <ele>2771</ele>
        <time>2021-07-15T08:48:14Z</time>
      </trkpt>
      <trkpt lat="45.1075" lon="6.57511">
        <ele>2772</ele>
        <time>2021-07-15T08:48:22Z</time>
      </trkpt>
      <trkpt lat="45.10749" lon="6.575">
        <ele>2776</ele>
        <time>2021-07-15T08:48:47Z</time>
      </trkpt>
      <trkpt lat="45.10745" lon="6.57492">
        <ele>2778</ele>
        <time>2021-07-15T08:49:02Z</time>
      </trkpt>
      <trkpt lat="45.10745" lon="6.5748">
        <ele>2778</ele>
        <time>2021-07-15T08:49:14Z</time>
      </trkpt>
      <trkpt lat="45.1075" lon="6.57456">
        <ele>2785</ele>
        <time>2021-07-15T08:49:50Z</time>
      </trkpt>
      <trkpt lat="45.10746" lon="6.57447">
        <ele>2786</ele>
        <time>2021-07-15T08:50:02Z</time>
      </trkpt>
      <trkpt lat="45.10742" lon="6.57439">
        <ele>2789</ele>
        <time>2021-07-15T08:50:13Z</time>
      </trkpt>
      <trkpt lat="45.10738" lon="6.5743">
        <ele>2791</ele>
        <time>2021-07-15T08:50:31Z</time>
      </trkpt>
      <trkpt lat="45.10737" lon="6.57418">
        <ele>2793</ele>
        <time>2021-07-15T08:50:47Z</time>
      </trkpt>
      <trkpt lat="45.1073" lon="6.57408">
        <ele>2796</ele>
        <time>2021-07-15T08:51:05Z</time>
      </trkpt>
      <trkpt lat="45.10736" lon="6.57398">
        <ele>2799</ele>
        <time>2021-07-15T08:51:24Z</time>
      </trkpt>
      <trkpt lat="45.10731" lon="6.57385">
        <ele>2807</ele>
        <time>2021-07-15T08:53:04Z</time>
      </trkpt>
      <trkpt lat="45.1072" lon="6.57357">
        <ele>2816</ele>
        <time>2021-07-15T08:53:54Z</time>
      </trkpt>
      <trkpt lat="45.10706" lon="6.57369">
        <ele>2822</ele>
        <time>2021-07-15T08:55:14Z</time>
      </trkpt>
      <trkpt lat="45.10699" lon="6.57374">
        <ele>2826</ele>
        <time>2021-07-15T08:55:57Z</time>
      </trkpt>
      <trkpt lat="45.10701" lon="6.57364">
        <ele>2831</ele>
        <time>2021-07-15T08:56:21Z</time>
      </trkpt>
      <trkpt lat="45.10696" lon="6.57356">
        <ele>2833</ele>
        <time>2021-07-15T08:56:51Z</time>
      </trkpt>
      <trkpt lat="45.10694" lon="6.57342">
        <ele>2836</ele>
        <time>2021-07-15T08:57:08Z</time>
      </trkpt>
      <trkpt lat="45.1069" lon="6.57333">
        <ele>2839</ele>
        <time>2021-07-15T08:57:26Z</time>
      </trkpt>
      <trkpt lat="45.10695" lon="6.57311">
        <ele>2842</ele>
        <time>2021-07-15T08:58:09Z</time>
      </trkpt>
      <trkpt lat="45.107" lon="6.57305">
        <ele>2844</ele>
        <time>2021-07-15T08:58:17Z</time>
      </trkpt>
      <trkpt lat="45.10704" lon="6.57299">
        <ele>2846</ele>
        <time>2021-07-15T08:58:32Z</time>
      </trkpt>
      <trkpt lat="45.1071" lon="6.57301">
        <ele>2848</ele>
        <time>2021-07-15T08:58:44Z</time>
      </trkpt>
      <trkpt lat="45.10721" lon="6.57278">
        <ele>2855</ele>
        <time>2021-07-15T08:59:38Z</time>
      </trkpt>
      <trkpt lat="45.10736" lon="6.57276">
        <ele>2859</ele>
        <time>2021-07-15T09:00:14Z</time>
      </trkpt>
      <trkpt lat="45.10739" lon="6.57268">
        <ele>2861</ele>
        <time>2021-07-15T09:00:20Z</time>
      </trkpt>
      <trkpt lat="45.10745" lon="6.57258">
        <ele>2863</ele>
        <time>2021-07-15T09:00:46Z</time>
      </trkpt>
      <trkpt lat="45.10751" lon="6.57252">
        <ele>2864</ele>
        <time>2021-07-15T09:00:58Z</time>
      </trkpt>
      <trkpt lat="45.10756" lon="6.57242">
        <ele>2865</ele>
        <time>2021-07-15T09:01:16Z</time>
      </trkpt>
      <trkpt lat="45.10762" lon="6.57221">
        <ele>2869</ele>
        <time>2021-07-15T09:01:40Z</time>
      </trkpt>
      <trkpt lat="45.10766" lon="6.57211">
        <ele>2871</ele>
        <time>2021-07-15T09:01:58Z</time>
      </trkpt>
      <trkpt lat="45.10771" lon="6.57191">
        <ele>2878</ele>
        <time>2021-07-15T09:02:53Z</time>
      </trkpt>
      <trkpt lat="45.10779" lon="6.57186">
        <ele>2880</ele>
        <time>2021-07-15T09:03:10Z</time>
      </trkpt>
      <trkpt lat="45.10782" lon="6.57174">
        <ele>2882</ele>
        <time>2021-07-15T09:03:44Z</time>
      </trkpt>
      <trkpt lat="45.10789" lon="6.57177">
        <ele>2884</ele>
        <time>2021-07-15T09:04:02Z</time>
      </trkpt>
      <trkpt lat="45.10809" lon="6.57184">
        <ele>2892</ele>
        <time>2021-07-15T09:04:38Z</time>
      </trkpt>
      <trkpt lat="45.10816" lon="6.57179">
        <ele>2895</ele>
        <time>2021-07-15T09:05:02Z</time>
      </trkpt>
      <trkpt lat="45.1082" lon="6.57172">
        <ele>2899</ele>
        <time>2021-07-15T09:05:20Z</time>
      </trkpt>
      <trkpt lat="45.1082" lon="6.5716">
        <ele>2899</ele>
        <time>2021-07-15T09:05:28Z</time>
      </trkpt>
      <trkpt lat="45.10819" lon="6.57149">
        <ele>2900</ele>
        <time>2021-07-15T09:05:41Z</time>
      </trkpt>
      <trkpt lat="45.10827" lon="6.57144">
        <ele>2903</ele>
        <time>2021-07-15T09:06:05Z</time>
      </trkpt>
      <trkpt lat="45.10832" lon="6.57136">
        <ele>2906</ele>
        <time>2021-07-15T09:06:19Z</time>
      </trkpt>
      <trkpt lat="45.10835" lon="6.5715">
        <ele>2908</ele>
        <time>2021-07-15T09:06:37Z</time>
      </trkpt>
      <trkpt lat="45.10843" lon="6.57148">
        <ele>2910</ele>
        <time>2021-07-15T09:06:57Z</time>
      </trkpt>
      <trkpt lat="45.1085" lon="6.57143">
        <ele>2909</ele>
        <time>2021-07-15T09:07:09Z</time>
      </trkpt>
      <trkpt lat="45.10856" lon="6.57129">
        <ele>2908</ele>
        <time>2021-07-15T09:07:23Z</time>
      </trkpt>
      <trkpt lat="45.10858" lon="6.5712">
        <ele>2910</ele>
        <time>2021-07-15T09:07:28Z</time>
      </trkpt>
      <trkpt lat="45.10861" lon="6.57113">
        <ele>2911</ele>
        <time>2021-07-15T09:07:39Z</time>
      </trkpt>
      <trkpt lat="45.10863" lon="6.57105">
        <ele>2915</ele>
        <time>2021-07-15T09:08:03Z</time>
      </trkpt>
      <trkpt lat="45.10862" lon="6.57095">
        <ele>2918</ele>
        <time>2021-07-15T09:08:21Z</time>
      </trkpt>
      <trkpt lat="45.1086" lon="6.57084">
        <ele>2919</ele>
        <time>2021-07-15T09:08:33Z</time>
      </trkpt>
      <trkpt lat="45.10859" lon="6.57074">
        <ele>2923</ele>
        <time>2021-07-15T09:08:51Z</time>
      </trkpt>
      <trkpt lat="45.10868" lon="6.57072">
        <ele>2928</ele>
        <time>2021-07-15T09:09:27Z</time>
      </trkpt>
      <trkpt lat="45.10871" lon="6.57061">
        <ele>2930</ele>
        <time>2021-07-15T09:09:43Z</time>
      </trkpt>
      <trkpt lat="45.10873" lon="6.57054">
        <ele>2935</ele>
        <time>2021-07-15T09:10:03Z</time>
      </trkpt>
      <trkpt lat="45.10879" lon="6.57053">
        <ele>2937</ele>
        <time>2021-07-15T09:10:19Z</time>
      </trkpt>
      <trkpt lat="45.10882" lon="6.57042">
        <ele>2941</ele>
        <time>2021-07-15T09:10:54Z</time>
      </trkpt>
      <trkpt lat="45.10876" lon="6.57041">
        <ele>2943</ele>
        <time>2021-07-15T09:11:23Z</time>
      </trkpt>
      <trkpt lat="45.10879" lon="6.57031">
        <ele>2943</ele>
        <time>2021-07-15T09:12:23Z</time>
      </trkpt>
      <trkpt lat="45.10887" lon="6.57024">
        <ele>2947</ele>
        <time>2021-07-15T09:12:41Z</time>
      </trkpt>
      <trkpt lat="45.10895" lon="6.57015">
        <ele>2947</ele>
        <time>2021-07-15T09:12:53Z</time>
      </trkpt>
      <trkpt lat="45.10903" lon="6.57012">
        <ele>2948</ele>
        <time>2021-07-15T09:13:01Z</time>
      </trkpt>
      <trkpt lat="45.10911" lon="6.57008">
        <ele>2949</ele>
        <time>2021-07-15T09:13:13Z</time>
      </trkpt>
      <trkpt lat="45.10917" lon="6.57008">
        <ele>2949</ele>
        <time>2021-07-15T09:13:19Z</time>
      </trkpt>
      <trkpt lat="45.10923" lon="6.57006">
        <ele>2950</ele>
        <time>2021-07-15T09:13:25Z</time>
      </trkpt>
      <trkpt lat="45.10931" lon="6.57">
        <ele>2951</ele>
        <time>2021-07-15T09:13:36Z</time>
      </trkpt>
      <trkpt lat="45.10935" lon="6.56996">
        <ele>2952</ele>
        <time>2021-07-15T09:13:41Z</time>
      </trkpt>
      <trkpt lat="45.10939" lon="6.56989">
        <ele>2953</ele>
        <time>2021-07-15T09:13:47Z</time>
      </trkpt>
      <trkpt lat="45.10944" lon="6.56987">
        <ele>2954</ele>
        <time>2021-07-15T09:13:55Z</time>
      </trkpt>
      <trkpt lat="45.1095" lon="6.56981">
        <ele>2954</ele>
        <time>2021-07-15T09:14:01Z</time>
      </trkpt>
      <trkpt lat="45.10953" lon="6.56973">
        <ele>2956</ele>
        <time>2021-07-15T09:14:21Z</time>
      </trkpt>
      <trkpt lat="45.10945" lon="6.56968">
        <ele>2958</ele>
        <time>2021-07-15T09:14:34Z</time>
      </trkpt>
      <trkpt lat="45.10942" lon="6.56962">
        <ele>2960</ele>
        <time>2021-07-15T09:14:40Z</time>
      </trkpt>
      <trkpt lat="45.10942" lon="6.56954">
        <ele>2964</ele>
        <time>2021-07-15T09:15:11Z</time>
      </trkpt>
      <trkpt lat="45.10944" lon="6.56945">
        <ele>2965</ele>
        <time>2021-07-15T09:15:21Z</time>
      </trkpt>
      <trkpt lat="45.1095" lon="6.5694">
        <ele>2968</ele>
        <time>2021-07-15T09:15:41Z</time>
      </trkpt>
      <trkpt lat="45.10951" lon="6.56927">
        <ele>2972</ele>
        <time>2021-07-15T09:16:10Z</time>
      </trkpt>
      <trkpt lat="45.10959" lon="6.56915">
        <ele>2978</ele>
        <time>2021-07-15T09:16:40Z</time>
      </trkpt>
      <trkpt lat="45.10958" lon="6.5691">
        <ele>2983</ele>
        <time>2021-07-15T09:17:23Z</time>
      </trkpt>
      <trkpt lat="45.10956" lon="6.56897">
        <ele>2983</ele>
        <time>2021-07-15T09:17:47Z</time>
      </trkpt>
      <trkpt lat="45.10955" lon="6.5689">
        <ele>2987</ele>
        <time>2021-07-15T09:18:11Z</time>
      </trkpt>
      <trkpt lat="45.10959" lon="6.5687">
        <ele>2995</ele>
        <time>2021-07-15T09:18:58Z</time>
      </trkpt>
      <trkpt lat="45.10971" lon="6.56856">
        <ele>3003</ele>
        <time>2021-07-15T09:19:59Z</time>
      </trkpt>
      <trkpt lat="45.1097" lon="6.56855">
        <ele>3004</ele>
        <time>2021-07-15T09:26:15Z</time>
      </trkpt>
      <trkpt lat="45.10974" lon="6.56856">
        <ele>3005</ele>
        <time>2021-07-15T09:28:03Z</time>
      </trkpt>
      <trkpt lat="45.10982" lon="6.56849">
        <ele>3009</ele>
        <time>2021-07-15T09:28:40Z</time>
      </trkpt>
      <trkpt lat="45.10985" lon="6.5684">
        <ele>3010</ele>
        <time>2021-07-15T09:28:48Z</time>
      </trkpt>
      <trkpt lat="45.1098" lon="6.56837">
        <ele>3011</ele>
        <time>2021-07-15T09:29:49Z</time>
      </trkpt>
      <trkpt lat="45.10976" lon="6.56854">
        <ele>3004</ele>
        <time>2021-07-15T09:30:11Z</time>
      </trkpt>
      <trkpt lat="45.10972" lon="6.56856">
        <ele>3004</ele>
        <time>2021-07-15T09:32:06Z</time>
      </trkpt>
      <trkpt lat="45.10968" lon="6.56865">
        <ele>3003</ele>
        <time>2021-07-15T09:32:29Z</time>
      </trkpt>
      <trkpt lat="45.10973" lon="6.56872">
        <ele>3000</ele>
        <time>2021-07-15T09:32:41Z</time>
      </trkpt>
      <trkpt lat="45.10971" lon="6.5688">
        <ele>2998</ele>
        <time>2021-07-15T09:32:49Z</time>
      </trkpt>
      <trkpt lat="45.10959" lon="6.56891">
        <ele>2995</ele>
        <time>2021-07-15T09:33:22Z</time>
      </trkpt>
      <trkpt lat="45.10957" lon="6.56911">
        <ele>2986</ele>
        <time>2021-07-15T09:33:58Z</time>
      </trkpt>
      <trkpt lat="45.10967" lon="6.56912">
        <ele>2985</ele>
        <time>2021-07-15T09:34:17Z</time>
      </trkpt>
      <trkpt lat="45.1097" lon="6.56921">
        <ele>2982</ele>
        <time>2021-07-15T09:34:29Z</time>
      </trkpt>
      <trkpt lat="45.10963" lon="6.56929">
        <ele>2980</ele>
        <time>2021-07-15T09:34:41Z</time>
      </trkpt>
      <trkpt lat="45.10957" lon="6.56943">
        <ele>2976</ele>
        <time>2021-07-15T09:35:29Z</time>
      </trkpt>
      <trkpt lat="45.10956" lon="6.56956">
        <ele>2973</ele>
        <time>2021-07-15T09:35:46Z</time>
      </trkpt>
      <trkpt lat="45.10946" lon="6.56962">
        <ele>2969</ele>
        <time>2021-07-15T09:36:00Z</time>
      </trkpt>
      <trkpt lat="45.10941" lon="6.56967">
        <ele>2967</ele>
        <time>2021-07-15T09:36:10Z</time>
      </trkpt>
      <trkpt lat="45.10946" lon="6.56974">
        <ele>2965</ele>
        <time>2021-07-15T09:36:22Z</time>
      </trkpt>
      <trkpt lat="45.10949" lon="6.56984">
        <ele>2962</ele>
        <time>2021-07-15T09:36:46Z</time>
      </trkpt>
      <trkpt lat="45.10947" lon="6.56995">
        <ele>2958</ele>
        <time>2021-07-15T09:36:58Z</time>
      </trkpt>
      <trkpt lat="45.10941" lon="6.57002">
        <ele>2956</ele>
        <time>2021-07-15T09:37:10Z</time>
      </trkpt>
      <trkpt lat="45.10936" lon="6.57007">
        <ele>2957</ele>
        <time>2021-07-15T09:37:15Z</time>
      </trkpt>
      <trkpt lat="45.1093" lon="6.57011">
        <ele>2954</ele>
        <time>2021-07-15T09:37:23Z</time>
      </trkpt>
      <trkpt lat="45.10914" lon="6.57017">
        <ele>2952</ele>
        <time>2021-07-15T09:37:39Z</time>
      </trkpt>
      <trkpt lat="45.10907" lon="6.57022">
        <ele>2951</ele>
        <time>2021-07-15T09:37:52Z</time>
      </trkpt>
      <trkpt lat="45.10901" lon="6.57024">
        <ele>2949</ele>
        <time>2021-07-15T09:38:08Z</time>
      </trkpt>
      <trkpt lat="45.10898" lon="6.57029">
        <ele>2948</ele>
        <time>2021-07-15T09:38:13Z</time>
      </trkpt>
      <trkpt lat="45.10886" lon="6.57036">
        <ele>2947</ele>
        <time>2021-07-15T09:38:30Z</time>
      </trkpt>
      <trkpt lat="45.10871" lon="6.57057">
        <ele>2941</ele>
        <time>2021-07-15T09:38:58Z</time>
      </trkpt>
      <trkpt lat="45.10875" lon="6.57063">
        <ele>2938</ele>
        <time>2021-07-15T09:39:10Z</time>
      </trkpt>
      <trkpt lat="45.10876" lon="6.57073">
        <ele>2933</ele>
        <time>2021-07-15T09:39:29Z</time>
      </trkpt>
      <trkpt lat="45.10872" lon="6.57084">
        <ele>2929</ele>
        <time>2021-07-15T09:39:42Z</time>
      </trkpt>
      <trkpt lat="45.10866" lon="6.57086">
        <ele>2928</ele>
        <time>2021-07-15T09:39:49Z</time>
      </trkpt>
      <trkpt lat="45.1086" lon="6.5709">
        <ele>2924</ele>
        <time>2021-07-15T09:40:00Z</time>
      </trkpt>
      <trkpt lat="45.10864" lon="6.57102">
        <ele>2920</ele>
        <time>2021-07-15T09:40:14Z</time>
      </trkpt>
      <trkpt lat="45.10863" lon="6.57116">
        <ele>2917</ele>
        <time>2021-07-15T09:40:27Z</time>
      </trkpt>
      <trkpt lat="45.10866" lon="6.57129">
        <ele>2913</ele>
        <time>2021-07-15T09:40:52Z</time>
      </trkpt>
      <trkpt lat="45.10864" lon="6.57137">
        <ele>2911</ele>
        <time>2021-07-15T09:40:57Z</time>
      </trkpt>
      <trkpt lat="45.10861" lon="6.57144">
        <ele>2910</ele>
        <time>2021-07-15T09:41:01Z</time>
      </trkpt>
      <trkpt lat="45.10854" lon="6.57147">
        <ele>2910</ele>
        <time>2021-07-15T09:41:08Z</time>
      </trkpt>
      <trkpt lat="45.10848" lon="6.5714">
        <ele>2910</ele>
        <time>2021-07-15T09:41:16Z</time>
      </trkpt>
      <trkpt lat="45.10842" lon="6.57133">
        <ele>2910</ele>
        <time>2021-07-15T09:41:23Z</time>
      </trkpt>
      <trkpt lat="45.10838" lon="6.57138">
        <ele>2910</ele>
        <time>2021-07-15T09:41:28Z</time>
      </trkpt>
      <trkpt lat="45.10824" lon="6.57147">
        <ele>2903</ele>
        <time>2021-07-15T09:41:58Z</time>
      </trkpt>
      <trkpt lat="45.10819" lon="6.57153">
        <ele>2899</ele>
        <time>2021-07-15T09:42:10Z</time>
      </trkpt>
      <trkpt lat="45.1081" lon="6.57161">
        <ele>2896</ele>
        <time>2021-07-15T09:42:22Z</time>
      </trkpt>
      <trkpt lat="45.10812" lon="6.57169">
        <ele>2896</ele>
        <time>2021-07-15T09:42:26Z</time>
      </trkpt>
      <trkpt lat="45.1081" lon="6.57178">
        <ele>2894</ele>
        <time>2021-07-15T09:42:35Z</time>
      </trkpt>
      <trkpt lat="45.10804" lon="6.57176">
        <ele>2892</ele>
        <time>2021-07-15T09:42:41Z</time>
      </trkpt>
      <trkpt lat="45.10796" lon="6.57181">
        <ele>2891</ele>
        <time>2021-07-15T09:43:04Z</time>
      </trkpt>
      <trkpt lat="45.10788" lon="6.57196">
        <ele>2884</ele>
        <time>2021-07-15T09:43:23Z</time>
      </trkpt>
      <trkpt lat="45.10766" lon="6.57223">
        <ele>2875</ele>
        <time>2021-07-15T09:43:53Z</time>
      </trkpt>
      <trkpt lat="45.10751" lon="6.57251">
        <ele>2868</ele>
        <time>2021-07-15T09:44:26Z</time>
      </trkpt>
      <trkpt lat="45.1074" lon="6.57271">
        <ele>2864</ele>
        <time>2021-07-15T09:44:45Z</time>
      </trkpt>
      <trkpt lat="45.10743" lon="6.5728">
        <ele>2863</ele>
        <time>2021-07-15T09:44:51Z</time>
      </trkpt>
      <trkpt lat="45.10739" lon="6.57289">
        <ele>2861</ele>
        <time>2021-07-15T09:45:07Z</time>
      </trkpt>
      <trkpt lat="45.10731" lon="6.57291">
        <ele>2855</ele>
        <time>2021-07-15T09:45:25Z</time>
      </trkpt>
      <trkpt lat="45.10725" lon="6.57299">
        <ele>2852</ele>
        <time>2021-07-15T09:45:42Z</time>
      </trkpt>
      <trkpt lat="45.10718" lon="6.5731">
        <ele>2848</ele>
        <time>2021-07-15T09:46:00Z</time>
      </trkpt>
      <trkpt lat="45.10704" lon="6.57327">
        <ele>2843</ele>
        <time>2021-07-15T09:46:24Z</time>
      </trkpt>
      <trkpt lat="45.10697" lon="6.57332">
        <ele>2840</ele>
        <time>2021-07-15T09:46:32Z</time>
      </trkpt>
      <trkpt lat="45.10697" lon="6.5734">
        <ele>2840</ele>
        <time>2021-07-15T09:46:38Z</time>
      </trkpt>
      <trkpt lat="45.10704" lon="6.57335">
        <ele>2838</ele>
        <time>2021-07-15T09:47:45Z</time>
      </trkpt>
      <trkpt lat="45.10708" lon="6.57342">
        <ele>2833</ele>
        <time>2021-07-15T09:48:45Z</time>
      </trkpt>
      <trkpt lat="45.10702" lon="6.57349">
        <ele>2832</ele>
        <time>2021-07-15T09:48:53Z</time>
      </trkpt>
      <trkpt lat="45.10705" lon="6.57357">
        <ele>2830</ele>
        <time>2021-07-15T09:49:07Z</time>
      </trkpt>
      <trkpt lat="45.10696" lon="6.57374">
        <ele>2825</ele>
        <time>2021-07-15T09:49:32Z</time>
      </trkpt>
      <trkpt lat="45.10705" lon="6.57374">
        <ele>2823</ele>
        <time>2021-07-15T09:50:01Z</time>
      </trkpt>
      <trkpt lat="45.10715" lon="6.57375">
        <ele>2819</ele>
        <time>2021-07-15T09:50:16Z</time>
      </trkpt>
      <trkpt lat="45.1073" lon="6.57368">
        <ele>2813</ele>
        <time>2021-07-15T09:50:49Z</time>
      </trkpt>
      <trkpt lat="45.10736" lon="6.57379">
        <ele>2806</ele>
        <time>2021-07-15T09:51:19Z</time>
      </trkpt>
      <trkpt lat="45.10745" lon="6.57382">
        <ele>2803</ele>
        <time>2021-07-15T09:51:30Z</time>
      </trkpt>
      <trkpt lat="45.10739" lon="6.57393">
        <ele>2801</ele>
        <time>2021-07-15T09:51:44Z</time>
      </trkpt>
      <trkpt lat="45.10742" lon="6.57402">
        <ele>2800</ele>
        <time>2021-07-15T09:51:52Z</time>
      </trkpt>
      <trkpt lat="45.10748" lon="6.57412">
        <ele>2795</ele>
        <time>2021-07-15T09:52:06Z</time>
      </trkpt>
      <trkpt lat="45.10752" lon="6.57421">
        <ele>2794</ele>
        <time>2021-07-15T09:52:14Z</time>
      </trkpt>
      <trkpt lat="45.10751" lon="6.5743">
        <ele>2793</ele>
        <time>2021-07-15T09:52:22Z</time>
      </trkpt>
      <trkpt lat="45.10746" lon="6.57437">
        <ele>2791</ele>
        <time>2021-07-15T09:52:28Z</time>
      </trkpt>
      <trkpt lat="45.10745" lon="6.57448">
        <ele>2789</ele>
        <time>2021-07-15T09:52:38Z</time>
      </trkpt>
      <trkpt lat="45.10749" lon="6.57453">
        <ele>2787</ele>
        <time>2021-07-15T09:52:46Z</time>
      </trkpt>
      <trkpt lat="45.10759" lon="6.57473">
        <ele>2782</ele>
        <time>2021-07-15T09:53:11Z</time>
      </trkpt>
      <trkpt lat="45.10753" lon="6.5748">
        <ele>2781</ele>
        <time>2021-07-15T09:53:17Z</time>
      </trkpt>
      <trkpt lat="45.10752" lon="6.57488">
        <ele>2780</ele>
        <time>2021-07-15T09:53:21Z</time>
      </trkpt>
      <trkpt lat="45.10754" lon="6.57497">
        <ele>2778</ele>
        <time>2021-07-15T09:53:30Z</time>
      </trkpt>
      <trkpt lat="45.1076" lon="6.57505">
        <ele>2776</ele>
        <time>2021-07-15T09:53:39Z</time>
      </trkpt>
      <trkpt lat="45.1075" lon="6.57523">
        <ele>2770</ele>
        <time>2021-07-15T09:54:01Z</time>
      </trkpt>
      <trkpt lat="45.10752" lon="6.5753">
        <ele>2769</ele>
        <time>2021-07-15T09:54:07Z</time>
      </trkpt>
      <trkpt lat="45.10747" lon="6.5754">
        <ele>2765</ele>
        <time>2021-07-15T09:54:23Z</time>
      </trkpt>
      <trkpt lat="45.10744" lon="6.57546">
        <ele>2763</ele>
        <time>2021-07-15T09:54:28Z</time>
      </trkpt>
      <trkpt lat="45.10739" lon="6.57558">
        <ele>2760</ele>
        <time>2021-07-15T09:55:07Z</time>
      </trkpt>
      <trkpt lat="45.10735" lon="6.5757">
        <ele>2756</ele>
        <time>2021-07-15T09:55:19Z</time>
      </trkpt>
      <trkpt lat="45.10736" lon="6.57579">
        <ele>2755</ele>
        <time>2021-07-15T09:55:25Z</time>
      </trkpt>
      <trkpt lat="45.10728" lon="6.57594">
        <ele>2750</ele>
        <time>2021-07-15T09:55:39Z</time>
      </trkpt>
      <trkpt lat="45.10735" lon="6.57617">
        <ele>2747</ele>
        <time>2021-07-15T09:55:54Z</time>
      </trkpt>
      <trkpt lat="45.10735" lon="6.57628">
        <ele>2746</ele>
        <time>2021-07-15T09:56:03Z</time>
      </trkpt>
      <trkpt lat="45.10735" lon="6.57636">
        <ele>2743</ele>
        <time>2021-07-15T09:56:09Z</time>
      </trkpt>
      <trkpt lat="45.10737" lon="6.57645">
        <ele>2741</ele>
        <time>2021-07-15T09:56:13Z</time>
      </trkpt>
      <trkpt lat="45.10736" lon="6.57654">
        <ele>2736</ele>
        <time>2021-07-15T09:56:22Z</time>
      </trkpt>
      <trkpt lat="45.10738" lon="6.57662">
        <ele>2734</ele>
        <time>2021-07-15T09:56:26Z</time>
      </trkpt>
      <trkpt lat="45.1074" lon="6.5767">
        <ele>2734</ele>
        <time>2021-07-15T09:56:30Z</time>
      </trkpt>
      <trkpt lat="45.10747" lon="6.57674">
        <ele>2731</ele>
        <time>2021-07-15T09:56:38Z</time>
      </trkpt>
      <trkpt lat="45.1075" lon="6.57687">
        <ele>2726</ele>
        <time>2021-07-15T09:56:54Z</time>
      </trkpt>
      <trkpt lat="45.10751" lon="6.57694">
        <ele>2725</ele>
        <time>2021-07-15T09:56:58Z</time>
      </trkpt>
      <trkpt lat="45.10752" lon="6.57703">
        <ele>2725</ele>
        <time>2021-07-15T09:57:04Z</time>
      </trkpt>
      <trkpt lat="45.10755" lon="6.5771">
        <ele>2724</ele>
        <time>2021-07-15T09:57:10Z</time>
      </trkpt>
      <trkpt lat="45.10756" lon="6.57722">
        <ele>2726</ele>
        <time>2021-07-15T09:57:24Z</time>
      </trkpt>
      <trkpt lat="45.10748" lon="6.57733">
        <ele>2725</ele>
        <time>2021-07-15T09:57:35Z</time>
      </trkpt>
      <trkpt lat="45.10744" lon="6.57739">
        <ele>2724</ele>
        <time>2021-07-15T09:57:41Z</time>
      </trkpt>
      <trkpt lat="45.10741" lon="6.57747">
        <ele>2724</ele>
        <time>2021-07-15T09:57:45Z</time>
      </trkpt>
      <trkpt lat="45.10737" lon="6.57761">
        <ele>2723</ele>
        <time>2021-07-15T09:57:53Z</time>
      </trkpt>
      <trkpt lat="45.10734" lon="6.57767">
        <ele>2723</ele>
        <time>2021-07-15T09:57:57Z</time>
      </trkpt>
      <trkpt lat="45.1073" lon="6.57773">
        <ele>2722</ele>
        <time>2021-07-15T09:58:02Z</time>
      </trkpt>
      <trkpt lat="45.10727" lon="6.57782">
        <ele>2721</ele>
        <time>2021-07-15T09:58:07Z</time>
      </trkpt>
      <trkpt lat="45.10715" lon="6.57804">
        <ele>2719</ele>
        <time>2021-07-15T09:58:23Z</time>
      </trkpt>
      <trkpt lat="45.10711" lon="6.57822">
        <ele>2718</ele>
        <time>2021-07-15T09:58:35Z</time>
      </trkpt>
      <trkpt lat="45.10712" lon="6.57832">
        <ele>2718</ele>
        <time>2021-07-15T09:58:49Z</time>
      </trkpt>
      <trkpt lat="45.10711" lon="6.57831">
        <ele>2719</ele>
        <time>2021-07-15T09:59:35Z</time>
      </trkpt>
      <trkpt lat="45.10709" lon="6.57843">
        <ele>2719</ele>
        <time>2021-07-15T10:00:11Z</time>
      </trkpt>
      <trkpt lat="45.10707" lon="6.57851">
        <ele>2720</ele>
        <time>2021-07-15T10:00:29Z</time>
      </trkpt>
      <trkpt lat="45.10705" lon="6.57862">
        <ele>2722</ele>
        <time>2021-07-15T10:00:47Z</time>
      </trkpt>
      <trkpt lat="45.10704" lon="6.57872">
        <ele>2722</ele>
        <time>2021-07-15T10:00:54Z</time>
      </trkpt>
      <trkpt lat="45.10702" lon="6.57878">
        <ele>2722</ele>
        <time>2021-07-15T10:01:00Z</time>
      </trkpt>
      <trkpt lat="45.10703" lon="6.5789">
        <ele>2723</ele>
        <time>2021-07-15T10:01:31Z</time>
      </trkpt>
      <trkpt lat="45.107" lon="6.57903">
        <ele>2721</ele>
        <time>2021-07-15T10:01:42Z</time>
      </trkpt>
      <trkpt lat="45.107" lon="6.5791">
        <ele>2720</ele>
        <time>2021-07-15T10:01:54Z</time>
      </trkpt>
      <trkpt lat="45.107" lon="6.57919">
        <ele>2720</ele>
        <time>2021-07-15T10:02:54Z</time>
      </trkpt>
      <trkpt lat="45.107" lon="6.57927">
        <ele>2721</ele>
        <time>2021-07-15T10:03:00Z</time>
      </trkpt>
      <trkpt lat="45.10695" lon="6.57939">
        <ele>2719</ele>
        <time>2021-07-15T10:03:10Z</time>
      </trkpt>
      <trkpt lat="45.10691" lon="6.57945">
        <ele>2719</ele>
        <time>2021-07-15T10:03:16Z</time>
      </trkpt>
      <trkpt lat="45.10685" lon="6.57952">
        <ele>2720</ele>
        <time>2021-07-15T10:03:24Z</time>
      </trkpt>
      <trkpt lat="45.10677" lon="6.57975">
        <ele>2721</ele>
        <time>2021-07-15T10:03:45Z</time>
      </trkpt>
      <trkpt lat="45.10675" lon="6.57982">
        <ele>2721</ele>
        <time>2021-07-15T10:03:51Z</time>
      </trkpt>
      <trkpt lat="45.10674" lon="6.57993">
        <ele>2720</ele>
        <time>2021-07-15T10:03:58Z</time>
      </trkpt>
      <trkpt lat="45.1067" lon="6.58">
        <ele>2719</ele>
        <time>2021-07-15T10:04:03Z</time>
      </trkpt>
      <trkpt lat="45.10664" lon="6.58003">
        <ele>2718</ele>
        <time>2021-07-15T10:04:07Z</time>
      </trkpt>
      <trkpt lat="45.10659" lon="6.58007">
        <ele>2719</ele>
        <time>2021-07-15T10:04:13Z</time>
      </trkpt>
      <trkpt lat="45.10649" lon="6.58017">
        <ele>2721</ele>
        <time>2021-07-15T10:04:27Z</time>
      </trkpt>
      <trkpt lat="45.10642" lon="6.58023">
        <ele>2721</ele>
        <time>2021-07-15T10:04:37Z</time>
      </trkpt>
      <trkpt lat="45.10626" lon="6.58042">
        <ele>2716</ele>
        <time>2021-07-15T10:04:59Z</time>
      </trkpt>
      <trkpt lat="45.10622" lon="6.58053">
        <ele>2715</ele>
        <time>2021-07-15T10:05:09Z</time>
      </trkpt>
      <trkpt lat="45.10617" lon="6.58057">
        <ele>2714</ele>
        <time>2021-07-15T10:05:15Z</time>
      </trkpt>
      <trkpt lat="45.10614" lon="6.58065">
        <ele>2713</ele>
        <time>2021-07-15T10:05:23Z</time>
      </trkpt>
      <trkpt lat="45.10612" lon="6.58073">
        <ele>2713</ele>
        <time>2021-07-15T10:05:29Z</time>
      </trkpt>
      <trkpt lat="45.1061" lon="6.58078">
        <ele>2712</ele>
        <time>2021-07-15T10:05:33Z</time>
      </trkpt>
      <trkpt lat="45.10605" lon="6.58085">
        <ele>2710</ele>
        <time>2021-07-15T10:05:43Z</time>
      </trkpt>
      <trkpt lat="45.106" lon="6.58102">
        <ele>2709</ele>
        <time>2021-07-15T10:05:54Z</time>
      </trkpt>
      <trkpt lat="45.10599" lon="6.58111">
        <ele>2709</ele>
        <time>2021-07-15T10:06:01Z</time>
      </trkpt>
      <trkpt lat="45.10596" lon="6.58121">
        <ele>2708</ele>
        <time>2021-07-15T10:06:08Z</time>
      </trkpt>
      <trkpt lat="45.10594" lon="6.58129">
        <ele>2708</ele>
        <time>2021-07-15T10:06:13Z</time>
      </trkpt>
      <trkpt lat="45.10589" lon="6.58144">
        <ele>2707</ele>
        <time>2021-07-15T10:06:24Z</time>
      </trkpt>
      <trkpt lat="45.10585" lon="6.5816">
        <ele>2706</ele>
        <time>2021-07-15T10:06:32Z</time>
      </trkpt>
      <trkpt lat="45.10584" lon="6.58164">
        <ele>2705</ele>
        <time>2021-07-15T10:06:35Z</time>
      </trkpt>
      <trkpt lat="45.1058" lon="6.58212">
        <ele>2701</ele>
        <time>2021-07-15T10:07:06Z</time>
      </trkpt>
      <trkpt lat="45.10575" lon="6.58264">
        <ele>2692</ele>
        <time>2021-07-15T10:07:39Z</time>
      </trkpt>
      <trkpt lat="45.10574" lon="6.58294">
        <ele>2689</ele>
        <time>2021-07-15T10:07:58Z</time>
      </trkpt>
      <trkpt lat="45.10572" lon="6.58301">
        <ele>2689</ele>
        <time>2021-07-15T10:08:03Z</time>
      </trkpt>
      <trkpt lat="45.10572" lon="6.58309">
        <ele>2688</ele>
        <time>2021-07-15T10:08:07Z</time>
      </trkpt>
      <trkpt lat="45.10571" lon="6.58335">
        <ele>2685</ele>
        <time>2021-07-15T10:08:21Z</time>
      </trkpt>
      <trkpt lat="45.10567" lon="6.58352">
        <ele>2683</ele>
        <time>2021-07-15T10:08:31Z</time>
      </trkpt>
      <trkpt lat="45.10562" lon="6.58403">
        <ele>2677</ele>
        <time>2021-07-15T10:09:01Z</time>
      </trkpt>
      <trkpt lat="45.10562" lon="6.58419">
        <ele>2675</ele>
        <time>2021-07-15T10:09:09Z</time>
      </trkpt>
      <trkpt lat="45.1056" lon="6.58427">
        <ele>2675</ele>
        <time>2021-07-15T10:09:13Z</time>
      </trkpt>
      <trkpt lat="45.10558" lon="6.58446">
        <ele>2674</ele>
        <time>2021-07-15T10:09:27Z</time>
      </trkpt>
      <trkpt lat="45.10553" lon="6.58471">
        <ele>2672</ele>
        <time>2021-07-15T10:09:42Z</time>
      </trkpt>
      <trkpt lat="45.10551" lon="6.58481">
        <ele>2670</ele>
        <time>2021-07-15T10:09:50Z</time>
      </trkpt>
      <trkpt lat="45.10545" lon="6.58512">
        <ele>2668</ele>
        <time>2021-07-15T10:10:07Z</time>
      </trkpt>
      <trkpt lat="45.10542" lon="6.58519">
        <ele>2667</ele>
        <time>2021-07-15T10:10:12Z</time>
      </trkpt>
      <trkpt lat="45.10538" lon="6.58524">
        <ele>2666</ele>
        <time>2021-07-15T10:10:17Z</time>
      </trkpt>
      <trkpt lat="45.10532" lon="6.58537">
        <ele>2667</ele>
        <time>2021-07-15T10:10:27Z</time>
      </trkpt>
      <trkpt lat="45.10533" lon="6.58548">
        <ele>2666</ele>
        <time>2021-07-15T10:10:33Z</time>
      </trkpt>
      <trkpt lat="45.10531" lon="6.58581">
        <ele>2662</ele>
        <time>2021-07-15T10:10:52Z</time>
      </trkpt>
      <trkpt lat="45.10528" lon="6.58604">
        <ele>2661</ele>
        <time>2021-07-15T10:11:09Z</time>
      </trkpt>
      <trkpt lat="45.10517" lon="6.58622">
        <ele>2658</ele>
        <time>2021-07-15T10:11:23Z</time>
      </trkpt>
      <trkpt lat="45.10514" lon="6.5863">
        <ele>2659</ele>
        <time>2021-07-15T10:11:28Z</time>
      </trkpt>
      <trkpt lat="45.10516" lon="6.58638">
        <ele>2658</ele>
        <time>2021-07-15T10:11:32Z</time>
      </trkpt>
      <trkpt lat="45.10518" lon="6.58646">
        <ele>2657</ele>
        <time>2021-07-15T10:11:36Z</time>
      </trkpt>
      <trkpt lat="45.10515" lon="6.58664">
        <ele>2654</ele>
        <time>2021-07-15T10:11:47Z</time>
      </trkpt>
      <trkpt lat="45.10519" lon="6.58689">
        <ele>2650</ele>
        <time>2021-07-15T10:12:04Z</time>
      </trkpt>
      <trkpt lat="45.10528" lon="6.58714">
        <ele>2648</ele>
        <time>2021-07-15T10:12:18Z</time>
      </trkpt>
      <trkpt lat="45.10528" lon="6.58722">
        <ele>2647</ele>
        <time>2021-07-15T10:12:24Z</time>
      </trkpt>
      <trkpt lat="45.10528" lon="6.5873">
        <ele>2647</ele>
        <time>2021-07-15T10:12:29Z</time>
      </trkpt>
      <trkpt lat="45.10528" lon="6.58749">
        <ele>2643</ele>
        <time>2021-07-15T10:12:45Z</time>
      </trkpt>
      <trkpt lat="45.10531" lon="6.58752">
        <ele>2643</ele>
        <time>2021-07-15T10:12:47Z</time>
      </trkpt>
      <trkpt lat="45.10531" lon="6.58764">
        <ele>2639</ele>
        <time>2021-07-15T10:12:57Z</time>
      </trkpt>
      <trkpt lat="45.10526" lon="6.58769">
        <ele>2638</ele>
        <time>2021-07-15T10:13:05Z</time>
      </trkpt>
      <trkpt lat="45.10524" lon="6.58774">
        <ele>2636</ele>
        <time>2021-07-15T10:13:09Z</time>
      </trkpt>
      <trkpt lat="45.10523" lon="6.5878">
        <ele>2634</ele>
        <time>2021-07-15T10:13:13Z</time>
      </trkpt>
      <trkpt lat="45.10523" lon="6.58791">
        <ele>2632</ele>
        <time>2021-07-15T10:13:20Z</time>
      </trkpt>
      <trkpt lat="45.10528" lon="6.58821">
        <ele>2628</ele>
        <time>2021-07-15T10:13:39Z</time>
      </trkpt>
      <trkpt lat="45.10531" lon="6.58829">
        <ele>2626</ele>
        <time>2021-07-15T10:13:45Z</time>
      </trkpt>
      <trkpt lat="45.10531" lon="6.58838">
        <ele>2624</ele>
        <time>2021-07-15T10:13:52Z</time>
      </trkpt>
      <trkpt lat="45.10529" lon="6.58847">
        <ele>2623</ele>
        <time>2021-07-15T10:13:57Z</time>
      </trkpt>
      <trkpt lat="45.1053" lon="6.58858">
        <ele>2621</ele>
        <time>2021-07-15T10:14:06Z</time>
      </trkpt>
      <trkpt lat="45.10528" lon="6.58866">
        <ele>2619</ele>
        <time>2021-07-15T10:14:11Z</time>
      </trkpt>
      <trkpt lat="45.10528" lon="6.58875">
        <ele>2618</ele>
        <time>2021-07-15T10:14:16Z</time>
      </trkpt>
      <trkpt lat="45.10533" lon="6.58891">
        <ele>2617</ele>
        <time>2021-07-15T10:14:24Z</time>
      </trkpt>
      <trkpt lat="45.10538" lon="6.58906">
        <ele>2617</ele>
        <time>2021-07-15T10:14:33Z</time>
      </trkpt>
      <trkpt lat="45.10536" lon="6.58915">
        <ele>2617</ele>
        <time>2021-07-15T10:14:38Z</time>
      </trkpt>
      <trkpt lat="45.10533" lon="6.58922">
        <ele>2617</ele>
        <time>2021-07-15T10:14:42Z</time>
      </trkpt>
      <trkpt lat="45.10531" lon="6.58944">
        <ele>2616</ele>
        <time>2021-07-15T10:14:58Z</time>
      </trkpt>
      <trkpt lat="45.1053" lon="6.58952">
        <ele>2616</ele>
        <time>2021-07-15T10:15:03Z</time>
      </trkpt>
      <trkpt lat="45.10532" lon="6.59">
        <ele>2614</ele>
        <time>2021-07-15T10:15:32Z</time>
      </trkpt>
      <trkpt lat="45.10536" lon="6.59023">
        <ele>2613</ele>
        <time>2021-07-15T10:15:47Z</time>
      </trkpt>
      <trkpt lat="45.10534" lon="6.59031">
        <ele>2612</ele>
        <time>2021-07-15T10:15:52Z</time>
      </trkpt>
      <trkpt lat="45.10532" lon="6.59039">
        <ele>2612</ele>
        <time>2021-07-15T10:15:56Z</time>
      </trkpt>
      <trkpt lat="45.10534" lon="6.59048">
        <ele>2612</ele>
        <time>2021-07-15T10:16:01Z</time>
      </trkpt>
      <trkpt lat="45.10537" lon="6.59082">
        <ele>2610</ele>
        <time>2021-07-15T10:16:27Z</time>
      </trkpt>
      <trkpt lat="45.10536" lon="6.59093">
        <ele>2610</ele>
        <time>2021-07-15T10:16:36Z</time>
      </trkpt>
      <trkpt lat="45.10535" lon="6.59101">
        <ele>2610</ele>
        <time>2021-07-15T10:16:41Z</time>
      </trkpt>
      <trkpt lat="45.10533" lon="6.59109">
        <ele>2610</ele>
        <time>2021-07-15T10:16:46Z</time>
      </trkpt>
      <trkpt lat="45.10535" lon="6.5912">
        <ele>2610</ele>
        <time>2021-07-15T10:16:54Z</time>
      </trkpt>
      <trkpt lat="45.10534" lon="6.59127">
        <ele>2610</ele>
        <time>2021-07-15T10:17:03Z</time>
      </trkpt>
      <trkpt lat="45.10533" lon="6.59137">
        <ele>2610</ele>
        <time>2021-07-15T10:17:09Z</time>
      </trkpt>
      <trkpt lat="45.10532" lon="6.59145">
        <ele>2610</ele>
        <time>2021-07-15T10:17:13Z</time>
      </trkpt>
      <trkpt lat="45.10533" lon="6.59155">
        <ele>2610</ele>
        <time>2021-07-15T10:17:18Z</time>
      </trkpt>
      <trkpt lat="45.10533" lon="6.59171">
        <ele>2609</ele>
        <time>2021-07-15T10:17:28Z</time>
      </trkpt>
      <trkpt lat="45.10531" lon="6.59178">
        <ele>2609</ele>
        <time>2021-07-15T10:17:34Z</time>
      </trkpt>
      <trkpt lat="45.10533" lon="6.59201">
        <ele>2608</ele>
        <time>2021-07-15T10:17:52Z</time>
      </trkpt>
      <trkpt lat="45.1053" lon="6.59218">
        <ele>2607</ele>
        <time>2021-07-15T10:18:01Z</time>
      </trkpt>
      <trkpt lat="45.10522" lon="6.59236">
        <ele>2604</ele>
        <time>2021-07-15T10:18:17Z</time>
      </trkpt>
      <trkpt lat="45.1052" lon="6.59257">
        <ele>2600</ele>
        <time>2021-07-15T10:18:36Z</time>
      </trkpt>
      <trkpt lat="45.10517" lon="6.59261">
        <ele>2596</ele>
        <time>2021-07-15T10:18:54Z</time>
      </trkpt>
      <trkpt lat="45.10515" lon="6.59279">
        <ele>2592</ele>
        <time>2021-07-15T10:19:24Z</time>
      </trkpt>
      <trkpt lat="45.10512" lon="6.59285">
        <ele>2590</ele>
        <time>2021-07-15T10:19:29Z</time>
      </trkpt>
      <trkpt lat="45.1051" lon="6.59295">
        <ele>2589</ele>
        <time>2021-07-15T10:19:34Z</time>
      </trkpt>
      <trkpt lat="45.10515" lon="6.59311">
        <ele>2587</ele>
        <time>2021-07-15T10:19:42Z</time>
      </trkpt>
      <trkpt lat="45.10524" lon="6.5932">
        <ele>2586</ele>
        <time>2021-07-15T10:19:50Z</time>
      </trkpt>
      <trkpt lat="45.1053" lon="6.59322">
        <ele>2586</ele>
        <time>2021-07-15T10:19:58Z</time>
      </trkpt>
      <trkpt lat="45.10536" lon="6.59329">
        <ele>2584</ele>
        <time>2021-07-15T10:20:17Z</time>
      </trkpt>
      <trkpt lat="45.10533" lon="6.5933">
        <ele>2582</ele>
        <time>2021-07-15T10:21:30Z</time>
      </trkpt>
      <trkpt lat="45.10532" lon="6.59334">
        <ele>2578</ele>
        <time>2021-07-15T10:25:57Z</time>
      </trkpt>
      <trkpt lat="45.10539" lon="6.59335">
        <ele>2576</ele>
        <time>2021-07-15T10:32:55Z</time>
      </trkpt>
      <trkpt lat="45.10535" lon="6.59339">
        <ele>2574</ele>
        <time>2021-07-15T10:43:22Z</time>
      </trkpt>
      <trkpt lat="45.1053" lon="6.59352">
        <ele>2572</ele>
        <time>2021-07-15T10:43:47Z</time>
      </trkpt>
      <trkpt lat="45.10527" lon="6.59361">
        <ele>2571</ele>
        <time>2021-07-15T10:43:55Z</time>
      </trkpt>
      <trkpt lat="45.10523" lon="6.59367">
        <ele>2569</ele>
        <time>2021-07-15T10:44:17Z</time>
      </trkpt>
      <trkpt lat="45.10524" lon="6.59369">
        <ele>2571</ele>
        <time>2021-07-15T10:45:37Z</time>
      </trkpt>
      <trkpt lat="45.10524" lon="6.59359">
        <ele>2571</ele>
        <time>2021-07-15T10:47:34Z</time>
      </trkpt>
      <trkpt lat="45.1052" lon="6.5937">
        <ele>2576</ele>
        <time>2021-07-15T11:08:12Z</time>
      </trkpt>
      <trkpt lat="45.10521" lon="6.59373">
        <ele>2575</ele>
        <time>2021-07-15T11:12:22Z</time>
      </trkpt>
      <trkpt lat="45.10528" lon="6.59372">
        <ele>2574</ele>
        <time>2021-07-15T11:14:52Z</time>
      </trkpt>
      <trkpt lat="45.10535" lon="6.59364">
        <ele>2574</ele>
        <time>2021-07-15T11:15:10Z</time>
      </trkpt>
      <trkpt lat="45.10537" lon="6.59346">
        <ele>2574</ele>
        <time>2021-07-15T11:15:59Z</time>
      </trkpt>
      <trkpt lat="45.10536" lon="6.59336">
        <ele>2577</ele>
        <time>2021-07-15T11:16:47Z</time>
      </trkpt>
      <trkpt lat="45.10529" lon="6.59318">
        <ele>2579</ele>
        <time>2021-07-15T11:17:12Z</time>
      </trkpt>
      <trkpt lat="45.10523" lon="6.59315">
        <ele>2581</ele>
        <time>2021-07-15T11:17:20Z</time>
      </trkpt>
      <trkpt lat="45.1051" lon="6.59306">
        <ele>2583</ele>
        <time>2021-07-15T11:17:36Z</time>
      </trkpt>
      <trkpt lat="45.10504" lon="6.59306">
        <ele>2582</ele>
        <time>2021-07-15T11:17:44Z</time>
      </trkpt>
      <trkpt lat="45.10499" lon="6.5931">
        <ele>2582</ele>
        <time>2021-07-15T11:17:49Z</time>
      </trkpt>
      <trkpt lat="45.10492" lon="6.59312">
        <ele>2580</ele>
        <time>2021-07-15T11:17:53Z</time>
      </trkpt>
      <trkpt lat="45.10485" lon="6.59312">
        <ele>2579</ele>
        <time>2021-07-15T11:17:58Z</time>
      </trkpt>
      <trkpt lat="45.10479" lon="6.59313">
        <ele>2580</ele>
        <time>2021-07-15T11:18:04Z</time>
      </trkpt>
      <trkpt lat="45.10464" lon="6.59333">
        <ele>2582</ele>
        <time>2021-07-15T11:18:29Z</time>
      </trkpt>
      <trkpt lat="45.10458" lon="6.59335">
        <ele>2582</ele>
        <time>2021-07-15T11:18:38Z</time>
      </trkpt>
      <trkpt lat="45.10449" lon="6.59339">
        <ele>2584</ele>
        <time>2021-07-15T11:18:50Z</time>
      </trkpt>
      <trkpt lat="45.10442" lon="6.59338">
        <ele>2586</ele>
        <time>2021-07-15T11:19:02Z</time>
      </trkpt>
      <trkpt lat="45.10437" lon="6.59342">
        <ele>2586</ele>
        <time>2021-07-15T11:19:08Z</time>
      </trkpt>
      <trkpt lat="45.10428" lon="6.59347">
        <ele>2585</ele>
        <time>2021-07-15T11:19:16Z</time>
      </trkpt>
      <trkpt lat="45.10424" lon="6.59354">
        <ele>2584</ele>
        <time>2021-07-15T11:19:21Z</time>
      </trkpt>
      <trkpt lat="45.1042" lon="6.59358">
        <ele>2583</ele>
        <time>2021-07-15T11:19:27Z</time>
      </trkpt>
      <trkpt lat="45.10411" lon="6.59366">
        <ele>2583</ele>
        <time>2021-07-15T11:19:43Z</time>
      </trkpt>
      <trkpt lat="45.10413" lon="6.59373">
        <ele>2581</ele>
        <time>2021-07-15T11:20:03Z</time>
      </trkpt>
      <trkpt lat="45.10422" lon="6.5938">
        <ele>2579</ele>
        <time>2021-07-15T11:20:16Z</time>
      </trkpt>
      <trkpt lat="45.10426" lon="6.59402">
        <ele>2581</ele>
        <time>2021-07-15T11:20:22Z</time>
      </trkpt>
      <trkpt lat="45.10454" lon="6.59449">
        <ele>2587</ele>
        <time>2021-07-15T11:20:29Z</time>
      </trkpt>
      <trkpt lat="45.1047" lon="6.59414">
        <ele>2585</ele>
        <time>2021-07-15T11:20:33Z</time>
      </trkpt>
      <trkpt lat="45.10474" lon="6.59379">
        <ele>2582</ele>
        <time>2021-07-15T11:21:00Z</time>
      </trkpt>
      <trkpt lat="45.10425" lon="6.59376">
        <ele>2582</ele>
        <time>2021-07-15T11:21:33Z</time>
      </trkpt>
      <trkpt lat="45.10432" lon="6.59353">
        <ele>2586</ele>
        <time>2021-07-15T11:22:40Z</time>
      </trkpt>
      <trkpt lat="45.10444" lon="6.59337">
        <ele>2588</ele>
        <time>2021-07-15T11:23:06Z</time>
      </trkpt>
      <trkpt lat="45.10455" lon="6.59337">
        <ele>2587</ele>
        <time>2021-07-15T11:23:18Z</time>
      </trkpt>
      <trkpt lat="45.10467" lon="6.5933">
        <ele>2585</ele>
        <time>2021-07-15T11:23:28Z</time>
      </trkpt>
      <trkpt lat="45.10471" lon="6.59324">
        <ele>2584</ele>
        <time>2021-07-15T11:23:33Z</time>
      </trkpt>
      <trkpt lat="45.10477" lon="6.5932">
        <ele>2584</ele>
        <time>2021-07-15T11:23:37Z</time>
      </trkpt>
      <trkpt lat="45.10481" lon="6.59315">
        <ele>2583</ele>
        <time>2021-07-15T11:23:41Z</time>
      </trkpt>
      <trkpt lat="45.10486" lon="6.59312">
        <ele>2583</ele>
        <time>2021-07-15T11:23:45Z</time>
      </trkpt>
      <trkpt lat="45.10492" lon="6.5931">
        <ele>2582</ele>
        <time>2021-07-15T11:23:49Z</time>
      </trkpt>
      <trkpt lat="45.105" lon="6.59311">
        <ele>2582</ele>
        <time>2021-07-15T11:23:56Z</time>
      </trkpt>
      <trkpt lat="45.10501" lon="6.59327">
        <ele>2584</ele>
        <time>2021-07-15T11:24:09Z</time>
      </trkpt>
      <trkpt lat="45.10508" lon="6.59333">
        <ele>2584</ele>
        <time>2021-07-15T11:24:18Z</time>
      </trkpt>
      <trkpt lat="45.10518" lon="6.59333">
        <ele>2584</ele>
        <time>2021-07-15T11:24:29Z</time>
      </trkpt>
      <trkpt lat="45.10526" lon="6.59335">
        <ele>2583</ele>
        <time>2021-07-15T11:24:40Z</time>
      </trkpt>
      <trkpt lat="45.10534" lon="6.59338">
        <ele>2581</ele>
        <time>2021-07-15T11:25:25Z</time>
      </trkpt>
      <trkpt lat="45.10537" lon="6.59345">
        <ele>2580</ele>
        <time>2021-07-15T11:26:18Z</time>
      </trkpt>
      <trkpt lat="45.10541" lon="6.5934">
        <ele>2580</ele>
        <time>2021-07-15T11:26:54Z</time>
      </trkpt>
      <trkpt lat="45.1054" lon="6.59333">
        <ele>2580</ele>
        <time>2021-07-15T11:27:30Z</time>
      </trkpt>
      <trkpt lat="45.10533" lon="6.59334">
        <ele>2579</ele>
        <time>2021-07-15T11:29:11Z</time>
      </trkpt>
      <trkpt lat="45.10538" lon="6.59342">
        <ele>2577</ele>
        <time>2021-07-15T11:29:55Z</time>
      </trkpt>
      <trkpt lat="45.10532" lon="6.59344">
        <ele>2576</ele>
        <time>2021-07-15T11:30:50Z</time>
      </trkpt>
      <trkpt lat="45.10525" lon="6.59345">
        <ele>2578</ele>
        <time>2021-07-15T11:31:33Z</time>
      </trkpt>
      <trkpt lat="45.10518" lon="6.59341">
        <ele>2579</ele>
        <time>2021-07-15T11:31:54Z</time>
      </trkpt>
      <trkpt lat="45.10511" lon="6.59339">
        <ele>2581</ele>
        <time>2021-07-15T11:32:21Z</time>
      </trkpt>
      <trkpt lat="45.10512" lon="6.59348">
        <ele>2582</ele>
        <time>2021-07-15T11:33:27Z</time>
      </trkpt>
      <trkpt lat="45.10517" lon="6.59345">
        <ele>2581</ele>
        <time>2021-07-15T11:33:39Z</time>
      </trkpt>
      <trkpt lat="45.10513" lon="6.59339">
        <ele>2581</ele>
        <time>2021-07-15T11:34:02Z</time>
      </trkpt>
      <trkpt lat="45.10523" lon="6.5934">
        <ele>2581</ele>
        <time>2021-07-15T11:34:29Z</time>
      </trkpt>
      <trkpt lat="45.10518" lon="6.59346">
        <ele>2581</ele>
        <time>2021-07-15T11:34:47Z</time>
      </trkpt>
      <trkpt lat="45.10515" lon="6.59356">
        <ele>2580</ele>
        <time>2021-07-15T11:35:05Z</time>
      </trkpt>
      <trkpt lat="45.10511" lon="6.59356">
        <ele>2580</ele>
        <time>2021-07-15T11:36:11Z</time>
      </trkpt>
      <trkpt lat="45.10511" lon="6.59348">
        <ele>2581</ele>
        <time>2021-07-15T11:36:41Z</time>
      </trkpt>
      <trkpt lat="45.1051" lon="6.5934">
        <ele>2581</ele>
        <time>2021-07-15T11:37:53Z</time>
      </trkpt>
      <trkpt lat="45.10511" lon="6.59341">
        <ele>2581</ele>
        <time>2021-07-15T11:39:46Z</time>
      </trkpt>
      <trkpt lat="45.10517" lon="6.59344">
        <ele>2580</ele>
        <time>2021-07-15T11:40:45Z</time>
      </trkpt>
      <trkpt lat="45.10526" lon="6.59346">
        <ele>2580</ele>
        <time>2021-07-15T11:41:09Z</time>
      </trkpt>
      <trkpt lat="45.10524" lon="6.59337">
        <ele>2580</ele>
        <time>2021-07-15T11:41:34Z</time>
      </trkpt>
      <trkpt lat="45.10527" lon="6.59324">
        <ele>2580</ele>
        <time>2021-07-15T11:41:53Z</time>
      </trkpt>
      <trkpt lat="45.1053" lon="6.59317">
        <ele>2580</ele>
        <time>2021-07-15T11:42:00Z</time>
      </trkpt>
      <trkpt lat="45.10533" lon="6.59308">
        <ele>2581</ele>
        <time>2021-07-15T11:42:08Z</time>
      </trkpt>
      <trkpt lat="45.10539" lon="6.59303">
        <ele>2585</ele>
        <time>2021-07-15T11:42:32Z</time>
      </trkpt>
      <trkpt lat="45.10543" lon="6.59294">
        <ele>2586</ele>
        <time>2021-07-15T11:42:36Z</time>
      </trkpt>
      <trkpt lat="45.10545" lon="6.59288">
        <ele>2589</ele>
        <time>2021-07-15T11:42:51Z</time>
      </trkpt>
      <trkpt lat="45.10543" lon="6.59279">
        <ele>2593</ele>
        <time>2021-07-15T11:43:15Z</time>
      </trkpt>
      <trkpt lat="45.10544" lon="6.59271">
        <ele>2595</ele>
        <time>2021-07-15T11:43:27Z</time>
      </trkpt>
      <trkpt lat="45.10549" lon="6.59262">
        <ele>2599</ele>
        <time>2021-07-15T11:43:51Z</time>
      </trkpt>
      <trkpt lat="45.10547" lon="6.59255">
        <ele>2602</ele>
        <time>2021-07-15T11:44:09Z</time>
      </trkpt>
      <trkpt lat="45.10552" lon="6.59247">
        <ele>2604</ele>
        <time>2021-07-15T11:44:21Z</time>
      </trkpt>
      <trkpt lat="45.10557" lon="6.59245">
        <ele>2606</ele>
        <time>2021-07-15T11:44:33Z</time>
      </trkpt>
      <trkpt lat="45.10555" lon="6.59252">
        <ele>2601</ele>
        <time>2021-07-15T11:52:16Z</time>
      </trkpt>
      <trkpt lat="45.1055" lon="6.5926">
        <ele>2598</ele>
        <time>2021-07-15T11:52:26Z</time>
      </trkpt>
      <trkpt lat="45.10545" lon="6.59264">
        <ele>2597</ele>
        <time>2021-07-15T11:52:31Z</time>
      </trkpt>
      <trkpt lat="45.1053" lon="6.59271">
        <ele>2592</ele>
        <time>2021-07-15T11:52:51Z</time>
      </trkpt>
      <trkpt lat="45.10531" lon="6.59283">
        <ele>2588</ele>
        <time>2021-07-15T11:53:04Z</time>
      </trkpt>
      <trkpt lat="45.10535" lon="6.59303">
        <ele>2581</ele>
        <time>2021-07-15T11:53:25Z</time>
      </trkpt>
      <trkpt lat="45.10529" lon="6.59303">
        <ele>2578</ele>
        <time>2021-07-15T11:53:35Z</time>
      </trkpt>
      <trkpt lat="45.10525" lon="6.5931">
        <ele>2577</ele>
        <time>2021-07-15T11:53:38Z</time>
      </trkpt>
      <trkpt lat="45.10523" lon="6.59328">
        <ele>2575</ele>
        <time>2021-07-15T11:53:51Z</time>
      </trkpt>
      <trkpt lat="45.10519" lon="6.59335">
        <ele>2575</ele>
        <time>2021-07-15T11:53:57Z</time>
      </trkpt>
      <trkpt lat="45.10514" lon="6.59338">
        <ele>2575</ele>
        <time>2021-07-15T11:54:03Z</time>
      </trkpt>
      <trkpt lat="45.10509" lon="6.59341">
        <ele>2576</ele>
        <time>2021-07-15T11:54:47Z</time>
      </trkpt>
      <trkpt lat="45.10508" lon="6.59347">
        <ele>2576</ele>
        <time>2021-07-15T11:56:11Z</time>
      </trkpt>
      <trkpt lat="45.10503" lon="6.59347">
        <ele>2577</ele>
        <time>2021-07-15T11:56:16Z</time>
      </trkpt>
      <trkpt lat="45.10497" lon="6.59348">
        <ele>2577</ele>
        <time>2021-07-15T11:56:24Z</time>
      </trkpt>
      <trkpt lat="45.10497" lon="6.59347">
        <ele>2580</ele>
        <time>2021-07-15T11:58:36Z</time>
      </trkpt>
      <trkpt lat="45.10498" lon="6.59353">
        <ele>2584</ele>
        <time>2021-07-15T12:06:10Z</time>
      </trkpt>
      <trkpt lat="45.10494" lon="6.5935">
        <ele>2587</ele>
        <time>2021-07-15T12:18:21Z</time>
      </trkpt>
      <trkpt lat="45.10491" lon="6.59355">
        <ele>2587</ele>
        <time>2021-07-15T12:19:51Z</time>
      </trkpt>
      <trkpt lat="45.10485" lon="6.59347">
        <ele>2588</ele>
        <time>2021-07-15T12:20:12Z</time>
      </trkpt>
      <trkpt lat="45.10487" lon="6.59348">
        <ele>2588</ele>
        <time>2021-07-15T12:21:58Z</time>
      </trkpt>
      <trkpt lat="45.10493" lon="6.59351">
        <ele>2588</ele>
        <time>2021-07-15T12:22:31Z</time>
      </trkpt>
      <trkpt lat="45.10493" lon="6.59347">
        <ele>2588</ele>
        <time>2021-07-15T12:24:43Z</time>
      </trkpt>
      <trkpt lat="45.10499" lon="6.59352">
        <ele>2587</ele>
        <time>2021-07-15T12:25:25Z</time>
      </trkpt>
      <trkpt lat="45.10498" lon="6.59349">
        <ele>2589</ele>
        <time>2021-07-15T12:34:50Z</time>
      </trkpt>
      <trkpt lat="45.10497" lon="6.59353">
        <ele>2587</ele>
        <time>2021-07-15T12:36:25Z</time>
      </trkpt>
      <trkpt lat="45.10505" lon="6.59346">
        <ele>2586</ele>
        <time>2021-07-15T12:39:23Z</time>
      </trkpt>
      <trkpt lat="45.10511" lon="6.59343">
        <ele>2585</ele>
        <time>2021-07-15T12:39:27Z</time>
      </trkpt>
      <trkpt lat="45.1051" lon="6.5934">
        <ele>2584</ele>
        <time>2021-07-15T12:39:56Z</time>
      </trkpt>
      <trkpt lat="45.10508" lon="6.59348">
        <ele>2585</ele>
        <time>2021-07-15T12:40:14Z</time>
      </trkpt>
      <trkpt lat="45.10506" lon="6.59345">
        <ele>2585</ele>
        <time>2021-07-15T12:43:24Z</time>
      </trkpt>
      <trkpt lat="45.10505" lon="6.5935">
        <ele>2585</ele>
        <time>2021-07-15T12:59:55Z</time>
      </trkpt>
      <trkpt lat="45.10504" lon="6.59345">
        <ele>2585</ele>
        <time>2021-07-15T13:03:42Z</time>
      </trkpt>
      <trkpt lat="45.1051" lon="6.59342">
        <ele>2586</ele>
        <time>2021-07-15T13:09:33Z</time>
      </trkpt>
      <trkpt lat="45.1051" lon="6.59344">
        <ele>2585</ele>
        <time>2021-07-15T13:12:21Z</time>
      </trkpt>
      <trkpt lat="45.10516" lon="6.59339">
        <ele>2584</ele>
        <time>2021-07-15T13:13:32Z</time>
      </trkpt>
      <trkpt lat="45.10523" lon="6.59345">
        <ele>2583</ele>
        <time>2021-07-15T13:14:15Z</time>
      </trkpt>
      <trkpt lat="45.10532" lon="6.59347">
        <ele>2580</ele>
        <time>2021-07-15T13:14:27Z</time>
      </trkpt>
      <trkpt lat="45.10536" lon="6.59352">
        <ele>2575</ele>
        <time>2021-07-15T13:14:39Z</time>
      </trkpt>
      <trkpt lat="45.10537" lon="6.59364">
        <ele>2571</ele>
        <time>2021-07-15T13:14:52Z</time>
      </trkpt>
      <trkpt lat="45.10535" lon="6.59373">
        <ele>2569</ele>
        <time>2021-07-15T13:14:58Z</time>
      </trkpt>
      <trkpt lat="45.10532" lon="6.59393">
        <ele>2562</ele>
        <time>2021-07-15T13:15:20Z</time>
      </trkpt>
      <trkpt lat="45.10533" lon="6.59405">
        <ele>2558</ele>
        <time>2021-07-15T13:15:35Z</time>
      </trkpt>
      <trkpt lat="45.10542" lon="6.59425">
        <ele>2553</ele>
        <time>2021-07-15T13:15:57Z</time>
      </trkpt>
      <trkpt lat="45.10536" lon="6.59448">
        <ele>2545</ele>
        <time>2021-07-15T13:16:19Z</time>
      </trkpt>
      <trkpt lat="45.1055" lon="6.59448">
        <ele>2538</ele>
        <time>2021-07-15T13:16:43Z</time>
      </trkpt>
      <trkpt lat="45.10556" lon="6.59455">
        <ele>2537</ele>
        <time>2021-07-15T13:16:55Z</time>
      </trkpt>
      <trkpt lat="45.10561" lon="6.59466">
        <ele>2531</ele>
        <time>2021-07-15T13:17:09Z</time>
      </trkpt>
      <trkpt lat="45.10568" lon="6.59466">
        <ele>2528</ele>
        <time>2021-07-15T13:17:15Z</time>
      </trkpt>
      <trkpt lat="45.10571" lon="6.59475">
        <ele>2528</ele>
        <time>2021-07-15T13:17:20Z</time>
      </trkpt>
      <trkpt lat="45.10574" lon="6.59488">
        <ele>2527</ele>
        <time>2021-07-15T13:17:28Z</time>
      </trkpt>
      <trkpt lat="45.10582" lon="6.59499">
        <ele>2524</ele>
        <time>2021-07-15T13:17:42Z</time>
      </trkpt>
      <trkpt lat="45.10589" lon="6.59505">
        <ele>2521</ele>
        <time>2021-07-15T13:17:54Z</time>
      </trkpt>
      <trkpt lat="45.10595" lon="6.59501">
        <ele>2518</ele>
        <time>2021-07-15T13:18:03Z</time>
      </trkpt>
      <trkpt lat="45.10614" lon="6.59512">
        <ele>2512</ele>
        <time>2021-07-15T13:18:20Z</time>
      </trkpt>
      <trkpt lat="45.1062" lon="6.59516">
        <ele>2510</ele>
        <time>2021-07-15T13:18:28Z</time>
      </trkpt>
      <trkpt lat="45.10629" lon="6.59514">
        <ele>2509</ele>
        <time>2021-07-15T13:18:37Z</time>
      </trkpt>
      <trkpt lat="45.1064" lon="6.59511">
        <ele>2506</ele>
        <time>2021-07-15T13:18:51Z</time>
      </trkpt>
      <trkpt lat="45.10641" lon="6.59498">
        <ele>2502</ele>
        <time>2021-07-15T13:19:03Z</time>
      </trkpt>
      <trkpt lat="45.10639" lon="6.5948">
        <ele>2500</ele>
        <time>2021-07-15T13:19:17Z</time>
      </trkpt>
      <trkpt lat="45.10643" lon="6.5947">
        <ele>2498</ele>
        <time>2021-07-15T13:19:25Z</time>
      </trkpt>
      <trkpt lat="45.10652" lon="6.59462">
        <ele>2495</ele>
        <time>2021-07-15T13:19:39Z</time>
      </trkpt>
      <trkpt lat="45.1066" lon="6.59445">
        <ele>2490</ele>
        <time>2021-07-15T13:19:59Z</time>
      </trkpt>
      <trkpt lat="45.10662" lon="6.59434">
        <ele>2489</ele>
        <time>2021-07-15T13:20:11Z</time>
      </trkpt>
      <trkpt lat="45.10671" lon="6.59434">
        <ele>2486</ele>
        <time>2021-07-15T13:20:24Z</time>
      </trkpt>
      <trkpt lat="45.10677" lon="6.59434">
        <ele>2485</ele>
        <time>2021-07-15T13:20:32Z</time>
      </trkpt>
      <trkpt lat="45.10687" lon="6.59425">
        <ele>2480</ele>
        <time>2021-07-15T13:20:43Z</time>
      </trkpt>
      <trkpt lat="45.10695" lon="6.59412">
        <ele>2479</ele>
        <time>2021-07-15T13:20:53Z</time>
      </trkpt>
      <trkpt lat="45.10698" lon="6.59405">
        <ele>2480</ele>
        <time>2021-07-15T13:20:58Z</time>
      </trkpt>
      <trkpt lat="45.10701" lon="6.59398">
        <ele>2479</ele>
        <time>2021-07-15T13:21:02Z</time>
      </trkpt>
      <trkpt lat="45.10709" lon="6.5939">
        <ele>2476</ele>
        <time>2021-07-15T13:21:14Z</time>
      </trkpt>
      <trkpt lat="45.10715" lon="6.59379">
        <ele>2475</ele>
        <time>2021-07-15T13:21:26Z</time>
      </trkpt>
      <trkpt lat="45.10721" lon="6.59379">
        <ele>2474</ele>
        <time>2021-07-15T13:21:38Z</time>
      </trkpt>
      <trkpt lat="45.10731" lon="6.59373">
        <ele>2471</ele>
        <time>2021-07-15T13:21:51Z</time>
      </trkpt>
      <trkpt lat="45.10738" lon="6.59366">
        <ele>2470</ele>
        <time>2021-07-15T13:22:01Z</time>
      </trkpt>
      <trkpt lat="45.10744" lon="6.59364">
        <ele>2470</ele>
        <time>2021-07-15T13:22:10Z</time>
      </trkpt>
      <trkpt lat="45.10755" lon="6.59365">
        <ele>2467</ele>
        <time>2021-07-15T13:22:21Z</time>
      </trkpt>
      <trkpt lat="45.1076" lon="6.59359">
        <ele>2466</ele>
        <time>2021-07-15T13:22:25Z</time>
      </trkpt>
      <trkpt lat="45.10767" lon="6.59337">
        <ele>2462</ele>
        <time>2021-07-15T13:22:42Z</time>
      </trkpt>
      <trkpt lat="45.10772" lon="6.59338">
        <ele>2460</ele>
        <time>2021-07-15T13:22:51Z</time>
      </trkpt>
      <trkpt lat="45.10778" lon="6.59336">
        <ele>2459</ele>
        <time>2021-07-15T13:22:56Z</time>
      </trkpt>
      <trkpt lat="45.10782" lon="6.5933">
        <ele>2458</ele>
        <time>2021-07-15T13:23:00Z</time>
      </trkpt>
      <trkpt lat="45.10793" lon="6.59336">
        <ele>2457</ele>
        <time>2021-07-15T13:23:07Z</time>
      </trkpt>
      <trkpt lat="45.10799" lon="6.5933">
        <ele>2457</ele>
        <time>2021-07-15T13:23:12Z</time>
      </trkpt>
      <trkpt lat="45.10802" lon="6.59321">
        <ele>2457</ele>
        <time>2021-07-15T13:23:20Z</time>
      </trkpt>
      <trkpt lat="45.10809" lon="6.59311">
        <ele>2456</ele>
        <time>2021-07-15T13:23:31Z</time>
      </trkpt>
      <trkpt lat="45.10816" lon="6.59307">
        <ele>2456</ele>
        <time>2021-07-15T13:23:38Z</time>
      </trkpt>
      <trkpt lat="45.10825" lon="6.59307">
        <ele>2453</ele>
        <time>2021-07-15T13:23:58Z</time>
      </trkpt>
      <trkpt lat="45.10833" lon="6.59294">
        <ele>2452</ele>
        <time>2021-07-15T13:24:10Z</time>
      </trkpt>
      <trkpt lat="45.1083" lon="6.5928">
        <ele>2452</ele>
        <time>2021-07-15T13:24:21Z</time>
      </trkpt>
      <trkpt lat="45.10829" lon="6.59273">
        <ele>2452</ele>
        <time>2021-07-15T13:24:26Z</time>
      </trkpt>
      <trkpt lat="45.10831" lon="6.59264">
        <ele>2452</ele>
        <time>2021-07-15T13:24:34Z</time>
      </trkpt>
      <trkpt lat="45.10832" lon="6.59243">
        <ele>2448</ele>
        <time>2021-07-15T13:24:48Z</time>
      </trkpt>
      <trkpt lat="45.10837" lon="6.59226">
        <ele>2448</ele>
        <time>2021-07-15T13:25:02Z</time>
      </trkpt>
      <trkpt lat="45.10835" lon="6.59211">
        <ele>2447</ele>
        <time>2021-07-15T13:25:15Z</time>
      </trkpt>
      <trkpt lat="45.10835" lon="6.59202">
        <ele>2444</ele>
        <time>2021-07-15T13:25:20Z</time>
      </trkpt>
      <trkpt lat="45.10838" lon="6.5918">
        <ele>2444</ele>
        <time>2021-07-15T13:25:37Z</time>
      </trkpt>
      <trkpt lat="45.10842" lon="6.59169">
        <ele>2443</ele>
        <time>2021-07-15T13:25:48Z</time>
      </trkpt>
      <trkpt lat="45.10846" lon="6.59163">
        <ele>2442</ele>
        <time>2021-07-15T13:25:53Z</time>
      </trkpt>
      <trkpt lat="45.10846" lon="6.59144">
        <ele>2439</ele>
        <time>2021-07-15T13:26:06Z</time>
      </trkpt>
      <trkpt lat="45.10851" lon="6.5913">
        <ele>2437</ele>
        <time>2021-07-15T13:26:15Z</time>
      </trkpt>
      <trkpt lat="45.10856" lon="6.59126">
        <ele>2438</ele>
        <time>2021-07-15T13:26:21Z</time>
      </trkpt>
      <trkpt lat="45.10861" lon="6.59124">
        <ele>2438</ele>
        <time>2021-07-15T13:26:26Z</time>
      </trkpt>
      <trkpt lat="45.10866" lon="6.59128">
        <ele>2437</ele>
        <time>2021-07-15T13:26:31Z</time>
      </trkpt>
      <trkpt lat="45.10866" lon="6.59119">
        <ele>2438</ele>
        <time>2021-07-15T13:26:39Z</time>
      </trkpt>
      <trkpt lat="45.10862" lon="6.59112">
        <ele>2438</ele>
        <time>2021-07-15T13:27:39Z</time>
      </trkpt>
      <trkpt lat="45.10857" lon="6.59107">
        <ele>2438</ele>
        <time>2021-07-15T13:35:03Z</time>
      </trkpt>
      <trkpt lat="45.10849" lon="6.59096">
        <ele>2440</ele>
        <time>2021-07-15T13:35:15Z</time>
      </trkpt>
      <trkpt lat="45.10847" lon="6.59085">
        <ele>2442</ele>
        <time>2021-07-15T13:35:24Z</time>
      </trkpt>
      <trkpt lat="45.10844" lon="6.59078">
        <ele>2442</ele>
        <time>2021-07-15T13:35:29Z</time>
      </trkpt>
      <trkpt lat="45.1084" lon="6.59067">
        <ele>2443</ele>
        <time>2021-07-15T13:35:35Z</time>
      </trkpt>
      <trkpt lat="45.10845" lon="6.59062">
        <ele>2444</ele>
        <time>2021-07-15T13:36:14Z</time>
      </trkpt>
      <trkpt lat="45.10851" lon="6.59073">
        <ele>2443</ele>
        <time>2021-07-15T13:41:47Z</time>
      </trkpt>
      <trkpt lat="45.1085" lon="6.59063">
        <ele>2442</ele>
        <time>2021-07-15T13:43:01Z</time>
      </trkpt>
      <trkpt lat="45.10851" lon="6.59066">
        <ele>2444</ele>
        <time>2021-07-15T13:45:01Z</time>
      </trkpt>
      <trkpt lat="45.10842" lon="6.59063">
        <ele>2443</ele>
        <time>2021-07-15T13:45:31Z</time>
      </trkpt>
      <trkpt lat="45.10845" lon="6.5907">
        <ele>2442</ele>
        <time>2021-07-15T13:49:00Z</time>
      </trkpt>
      <trkpt lat="45.10845" lon="6.59069">
        <ele>2440</ele>
        <time>2021-07-15T13:58:26Z</time>
      </trkpt>
      <trkpt lat="45.10848" lon="6.59081">
        <ele>2439</ele>
        <time>2021-07-15T13:58:44Z</time>
      </trkpt>
      <trkpt lat="45.1085" lon="6.59093">
        <ele>2437</ele>
        <time>2021-07-15T13:58:57Z</time>
      </trkpt>
      <trkpt lat="45.10854" lon="6.591">
        <ele>2434</ele>
        <time>2021-07-15T13:59:03Z</time>
      </trkpt>
      <trkpt lat="45.10858" lon="6.59105">
        <ele>2435</ele>
        <time>2021-07-15T13:59:07Z</time>
      </trkpt>
      <trkpt lat="45.10861" lon="6.59112">
        <ele>2434</ele>
        <time>2021-07-15T13:59:11Z</time>
      </trkpt>
      <trkpt lat="45.10856" lon="6.5911">
        <ele>2433</ele>
        <time>2021-07-15T13:59:36Z</time>
      </trkpt>
      <trkpt lat="45.10853" lon="6.59103">
        <ele>2433</ele>
        <time>2021-07-15T14:00:02Z</time>
      </trkpt>
      <trkpt lat="45.10851" lon="6.59099">
        <ele>2435</ele>
        <time>2021-07-15T14:01:20Z</time>
      </trkpt>
      <trkpt lat="45.10847" lon="6.59094">
        <ele>2435</ele>
        <time>2021-07-15T14:01:23Z</time>
      </trkpt>
      <trkpt lat="45.10838" lon="6.59067">
        <ele>2439</ele>
        <time>2021-07-15T14:01:43Z</time>
      </trkpt>
      <trkpt lat="45.10836" lon="6.59052">
        <ele>2440</ele>
        <time>2021-07-15T14:01:55Z</time>
      </trkpt>
      <trkpt lat="45.10839" lon="6.59042">
        <ele>2440</ele>
        <time>2021-07-15T14:02:04Z</time>
      </trkpt>
      <trkpt lat="45.10838" lon="6.59035">
        <ele>2440</ele>
        <time>2021-07-15T14:02:07Z</time>
      </trkpt>
      <trkpt lat="45.10838" lon="6.59025">
        <ele>2441</ele>
        <time>2021-07-15T14:02:12Z</time>
      </trkpt>
      <trkpt lat="45.10835" lon="6.59016">
        <ele>2442</ele>
        <time>2021-07-15T14:02:19Z</time>
      </trkpt>
      <trkpt lat="45.10837" lon="6.59011">
        <ele>2442</ele>
        <time>2021-07-15T14:02:22Z</time>
      </trkpt>
      <trkpt lat="45.10839" lon="6.59002">
        <ele>2442</ele>
        <time>2021-07-15T14:02:27Z</time>
      </trkpt>
      <trkpt lat="45.10836" lon="6.58991">
        <ele>2442</ele>
        <time>2021-07-15T14:02:34Z</time>
      </trkpt>
      <trkpt lat="45.10844" lon="6.58986">
        <ele>2441</ele>
        <time>2021-07-15T14:02:42Z</time>
      </trkpt>
      <trkpt lat="45.10846" lon="6.58978">
        <ele>2440</ele>
        <time>2021-07-15T14:02:47Z</time>
      </trkpt>
      <trkpt lat="45.10847" lon="6.58969">
        <ele>2438</ele>
        <time>2021-07-15T14:02:53Z</time>
      </trkpt>
      <trkpt lat="45.10851" lon="6.58962">
        <ele>2436</ele>
        <time>2021-07-15T14:02:57Z</time>
      </trkpt>
      <trkpt lat="45.10856" lon="6.58959">
        <ele>2436</ele>
        <time>2021-07-15T14:03:01Z</time>
      </trkpt>
      <trkpt lat="45.10863" lon="6.5895">
        <ele>2434</ele>
        <time>2021-07-15T14:03:11Z</time>
      </trkpt>
      <trkpt lat="45.10866" lon="6.58938">
        <ele>2431</ele>
        <time>2021-07-15T14:03:19Z</time>
      </trkpt>
      <trkpt lat="45.10871" lon="6.5894">
        <ele>2428</ele>
        <time>2021-07-15T14:03:27Z</time>
      </trkpt>
      <trkpt lat="45.10878" lon="6.58932">
        <ele>2426</ele>
        <time>2021-07-15T14:03:32Z</time>
      </trkpt>
      <trkpt lat="45.10888" lon="6.58927">
        <ele>2425</ele>
        <time>2021-07-15T14:03:39Z</time>
      </trkpt>
      <trkpt lat="45.10891" lon="6.58924">
        <ele>2424</ele>
        <time>2021-07-15T14:03:43Z</time>
      </trkpt>
      <trkpt lat="45.10895" lon="6.58925">
        <ele>2424</ele>
        <time>2021-07-15T14:03:46Z</time>
      </trkpt>
      <trkpt lat="45.10898" lon="6.58928">
        <ele>2424</ele>
        <time>2021-07-15T14:03:49Z</time>
      </trkpt>
      <trkpt lat="45.10903" lon="6.58927">
        <ele>2425</ele>
        <time>2021-07-15T14:03:55Z</time>
      </trkpt>
      <trkpt lat="45.10905" lon="6.58922">
        <ele>2425</ele>
        <time>2021-07-15T14:03:58Z</time>
      </trkpt>
      <trkpt lat="45.10906" lon="6.58914">
        <ele>2425</ele>
        <time>2021-07-15T14:04:04Z</time>
      </trkpt>
      <trkpt lat="45.10908" lon="6.58905">
        <ele>2425</ele>
        <time>2021-07-15T14:04:08Z</time>
      </trkpt>
      <trkpt lat="45.10913" lon="6.58893">
        <ele>2423</ele>
        <time>2021-07-15T14:04:18Z</time>
      </trkpt>
      <trkpt lat="45.10915" lon="6.58888">
        <ele>2423</ele>
        <time>2021-07-15T14:04:22Z</time>
      </trkpt>
      <trkpt lat="45.10927" lon="6.58878">
        <ele>2423</ele>
        <time>2021-07-15T14:04:30Z</time>
      </trkpt>
      <trkpt lat="45.10931" lon="6.58878">
        <ele>2423</ele>
        <time>2021-07-15T14:04:34Z</time>
      </trkpt>
      <trkpt lat="45.10938" lon="6.58859">
        <ele>2424</ele>
        <time>2021-07-15T14:04:50Z</time>
      </trkpt>
      <trkpt lat="45.10939" lon="6.58851">
        <ele>2424</ele>
        <time>2021-07-15T14:04:54Z</time>
      </trkpt>
      <trkpt lat="45.10945" lon="6.58846">
        <ele>2424</ele>
        <time>2021-07-15T14:04:59Z</time>
      </trkpt>
      <trkpt lat="45.10955" lon="6.58832">
        <ele>2425</ele>
        <time>2021-07-15T14:05:10Z</time>
      </trkpt>
      <trkpt lat="45.10956" lon="6.58827">
        <ele>2425</ele>
        <time>2021-07-15T14:05:14Z</time>
      </trkpt>
      <trkpt lat="45.1096" lon="6.58822">
        <ele>2425</ele>
        <time>2021-07-15T14:05:17Z</time>
      </trkpt>
      <trkpt lat="45.10962" lon="6.58818">
        <ele>2425</ele>
        <time>2021-07-15T14:05:20Z</time>
      </trkpt>
      <trkpt lat="45.10962" lon="6.58812">
        <ele>2426</ele>
        <time>2021-07-15T14:05:23Z</time>
      </trkpt>
      <trkpt lat="45.10963" lon="6.58807">
        <ele>2425</ele>
        <time>2021-07-15T14:05:27Z</time>
      </trkpt>
      <trkpt lat="45.10966" lon="6.58802">
        <ele>2425</ele>
        <time>2021-07-15T14:05:30Z</time>
      </trkpt>
      <trkpt lat="45.1097" lon="6.58786">
        <ele>2426</ele>
        <time>2021-07-15T14:05:41Z</time>
      </trkpt>
      <trkpt lat="45.10975" lon="6.58784">
        <ele>2427</ele>
        <time>2021-07-15T14:05:52Z</time>
      </trkpt>
      <trkpt lat="45.10975" lon="6.588">
        <ele>2427</ele>
        <time>2021-07-15T14:06:09Z</time>
      </trkpt>
      <trkpt lat="45.10984" lon="6.58839">
        <ele>2426</ele>
        <time>2021-07-15T14:06:30Z</time>
      </trkpt>
      <trkpt lat="45.1099" lon="6.58845">
        <ele>2426</ele>
        <time>2021-07-15T14:06:35Z</time>
      </trkpt>
      <trkpt lat="45.11003" lon="6.58855">
        <ele>2430</ele>
        <time>2021-07-15T14:06:57Z</time>
      </trkpt>
      <trkpt lat="45.11012" lon="6.58858">
        <ele>2432</ele>
        <time>2021-07-15T14:07:09Z</time>
      </trkpt>
      <trkpt lat="45.11022" lon="6.5885">
        <ele>2434</ele>
        <time>2021-07-15T14:07:25Z</time>
      </trkpt>
      <trkpt lat="45.11027" lon="6.58847">
        <ele>2433</ele>
        <time>2021-07-15T14:07:31Z</time>
      </trkpt>
      <trkpt lat="45.11034" lon="6.58834">
        <ele>2431</ele>
        <time>2021-07-15T14:07:42Z</time>
      </trkpt>
      <trkpt lat="45.11049" lon="6.58809">
        <ele>2431</ele>
        <time>2021-07-15T14:08:01Z</time>
      </trkpt>
      <trkpt lat="45.11054" lon="6.58804">
        <ele>2432</ele>
        <time>2021-07-15T14:08:07Z</time>
      </trkpt>
      <trkpt lat="45.11056" lon="6.58797">
        <ele>2432</ele>
        <time>2021-07-15T14:08:11Z</time>
      </trkpt>
      <trkpt lat="45.11054" lon="6.58788">
        <ele>2432</ele>
        <time>2021-07-15T14:08:16Z</time>
      </trkpt>
      <trkpt lat="45.11056" lon="6.5878">
        <ele>2433</ele>
        <time>2021-07-15T14:08:20Z</time>
      </trkpt>
      <trkpt lat="45.11063" lon="6.5878">
        <ele>2434</ele>
        <time>2021-07-15T14:08:25Z</time>
      </trkpt>
      <trkpt lat="45.11066" lon="6.58782">
        <ele>2434</ele>
        <time>2021-07-15T14:08:28Z</time>
      </trkpt>
      <trkpt lat="45.11072" lon="6.58778">
        <ele>2436</ele>
        <time>2021-07-15T14:08:36Z</time>
      </trkpt>
      <trkpt lat="45.1108" lon="6.58778">
        <ele>2438</ele>
        <time>2021-07-15T14:08:45Z</time>
      </trkpt>
      <trkpt lat="45.11084" lon="6.58774">
        <ele>2438</ele>
        <time>2021-07-15T14:08:51Z</time>
      </trkpt>
      <trkpt lat="45.11088" lon="6.58767">
        <ele>2439</ele>
        <time>2021-07-15T14:08:57Z</time>
      </trkpt>
      <trkpt lat="45.11094" lon="6.58771">
        <ele>2439</ele>
        <time>2021-07-15T14:09:05Z</time>
      </trkpt>
      <trkpt lat="45.11099" lon="6.58773">
        <ele>2439</ele>
        <time>2021-07-15T14:09:11Z</time>
      </trkpt>
      <trkpt lat="45.11106" lon="6.58777">
        <ele>2442</ele>
        <time>2021-07-15T14:09:25Z</time>
      </trkpt>
      <trkpt lat="45.11115" lon="6.58777">
        <ele>2445</ele>
        <time>2021-07-15T14:09:41Z</time>
      </trkpt>
      <trkpt lat="45.11122" lon="6.58777">
        <ele>2444</ele>
        <time>2021-07-15T14:09:48Z</time>
      </trkpt>
      <trkpt lat="45.11128" lon="6.58782">
        <ele>2445</ele>
        <time>2021-07-15T14:09:55Z</time>
      </trkpt>
      <trkpt lat="45.1113" lon="6.58789">
        <ele>2446</ele>
        <time>2021-07-15T14:10:04Z</time>
      </trkpt>
      <trkpt lat="45.11137" lon="6.58796">
        <ele>2448</ele>
        <time>2021-07-15T14:10:16Z</time>
      </trkpt>
      <trkpt lat="45.11144" lon="6.58807">
        <ele>2448</ele>
        <time>2021-07-15T14:10:27Z</time>
      </trkpt>
      <trkpt lat="45.11147" lon="6.58814">
        <ele>2448</ele>
        <time>2021-07-15T14:10:35Z</time>
      </trkpt>
      <trkpt lat="45.11146" lon="6.58822">
        <ele>2447</ele>
        <time>2021-07-15T14:10:40Z</time>
      </trkpt>
      <trkpt lat="45.11149" lon="6.58833">
        <ele>2447</ele>
        <time>2021-07-15T14:10:51Z</time>
      </trkpt>
      <trkpt lat="45.11151" lon="6.58848">
        <ele>2449</ele>
        <time>2021-07-15T14:11:03Z</time>
      </trkpt>
      <trkpt lat="45.11158" lon="6.58866">
        <ele>2452</ele>
        <time>2021-07-15T14:11:23Z</time>
      </trkpt>
      <trkpt lat="45.1116" lon="6.58875">
        <ele>2452</ele>
        <time>2021-07-15T14:11:29Z</time>
      </trkpt>
      <trkpt lat="45.11164" lon="6.58881">
        <ele>2452</ele>
        <time>2021-07-15T14:11:33Z</time>
      </trkpt>
      <trkpt lat="45.11166" lon="6.58888">
        <ele>2452</ele>
        <time>2021-07-15T14:11:38Z</time>
      </trkpt>
      <trkpt lat="45.11168" lon="6.58897">
        <ele>2452</ele>
        <time>2021-07-15T14:11:44Z</time>
      </trkpt>
      <trkpt lat="45.1117" lon="6.58904">
        <ele>2452</ele>
        <time>2021-07-15T14:11:49Z</time>
      </trkpt>
      <trkpt lat="45.11169" lon="6.58914">
        <ele>2452</ele>
        <time>2021-07-15T14:11:54Z</time>
      </trkpt>
      <trkpt lat="45.11174" lon="6.58928">
        <ele>2452</ele>
        <time>2021-07-15T14:12:04Z</time>
      </trkpt>
      <trkpt lat="45.11179" lon="6.58938">
        <ele>2453</ele>
        <time>2021-07-15T14:12:13Z</time>
      </trkpt>
      <trkpt lat="45.11185" lon="6.58944">
        <ele>2454</ele>
        <time>2021-07-15T14:12:22Z</time>
      </trkpt>
      <trkpt lat="45.11188" lon="6.58954">
        <ele>2456</ele>
        <time>2021-07-15T14:12:32Z</time>
      </trkpt>
      <trkpt lat="45.11186" lon="6.58962">
        <ele>2457</ele>
        <time>2021-07-15T14:12:40Z</time>
      </trkpt>
      <trkpt lat="45.11186" lon="6.5897">
        <ele>2458</ele>
        <time>2021-07-15T14:12:44Z</time>
      </trkpt>
      <trkpt lat="45.11189" lon="6.5899">
        <ele>2458</ele>
        <time>2021-07-15T14:12:56Z</time>
      </trkpt>
      <trkpt lat="45.11193" lon="6.58996">
        <ele>2458</ele>
        <time>2021-07-15T14:13:00Z</time>
      </trkpt>
      <trkpt lat="45.11195" lon="6.59003">
        <ele>2459</ele>
        <time>2021-07-15T14:13:06Z</time>
      </trkpt>
      <trkpt lat="45.11198" lon="6.5901">
        <ele>2460</ele>
        <time>2021-07-15T14:13:15Z</time>
      </trkpt>
      <trkpt lat="45.11197" lon="6.59024">
        <ele>2462</ele>
        <time>2021-07-15T14:13:27Z</time>
      </trkpt>
      <trkpt lat="45.11197" lon="6.59032">
        <ele>2462</ele>
        <time>2021-07-15T14:13:32Z</time>
      </trkpt>
      <trkpt lat="45.11197" lon="6.59049">
        <ele>2463</ele>
        <time>2021-07-15T14:13:43Z</time>
      </trkpt>
      <trkpt lat="45.11199" lon="6.59057">
        <ele>2463</ele>
        <time>2021-07-15T14:13:47Z</time>
      </trkpt>
      <trkpt lat="45.11201" lon="6.59064">
        <ele>2463</ele>
        <time>2021-07-15T14:13:51Z</time>
      </trkpt>
      <trkpt lat="45.11201" lon="6.59074">
        <ele>2464</ele>
        <time>2021-07-15T14:13:56Z</time>
      </trkpt>
      <trkpt lat="45.11203" lon="6.59081">
        <ele>2464</ele>
        <time>2021-07-15T14:14:01Z</time>
      </trkpt>
      <trkpt lat="45.11205" lon="6.59105">
        <ele>2468</ele>
        <time>2021-07-15T14:14:23Z</time>
      </trkpt>
      <trkpt lat="45.112" lon="6.59134">
        <ele>2470</ele>
        <time>2021-07-15T14:14:48Z</time>
      </trkpt>
      <trkpt lat="45.11202" lon="6.59141">
        <ele>2471</ele>
        <time>2021-07-15T14:14:54Z</time>
      </trkpt>
      <trkpt lat="45.11205" lon="6.59148">
        <ele>2472</ele>
        <time>2021-07-15T14:14:59Z</time>
      </trkpt>
      <trkpt lat="45.11215" lon="6.59166">
        <ele>2474</ele>
        <time>2021-07-15T14:15:15Z</time>
      </trkpt>
      <trkpt lat="45.11218" lon="6.59173">
        <ele>2474</ele>
        <time>2021-07-15T14:15:22Z</time>
      </trkpt>
      <trkpt lat="45.11225" lon="6.59198">
        <ele>2476</ele>
        <time>2021-07-15T14:15:40Z</time>
      </trkpt>
      <trkpt lat="45.11226" lon="6.59208">
        <ele>2477</ele>
        <time>2021-07-15T14:15:48Z</time>
      </trkpt>
      <trkpt lat="45.11228" lon="6.59215">
        <ele>2478</ele>
        <time>2021-07-15T14:15:53Z</time>
      </trkpt>
      <trkpt lat="45.11231" lon="6.5922">
        <ele>2479</ele>
        <time>2021-07-15T14:15:58Z</time>
      </trkpt>
      <trkpt lat="45.11234" lon="6.59231">
        <ele>2479</ele>
        <time>2021-07-15T14:16:06Z</time>
      </trkpt>
      <trkpt lat="45.11238" lon="6.59239">
        <ele>2479</ele>
        <time>2021-07-15T14:16:10Z</time>
      </trkpt>
      <trkpt lat="45.11248" lon="6.59259">
        <ele>2476</ele>
        <time>2021-07-15T14:16:22Z</time>
      </trkpt>
      <trkpt lat="45.11255" lon="6.59277">
        <ele>2475</ele>
        <time>2021-07-15T14:16:33Z</time>
      </trkpt>
      <trkpt lat="45.11259" lon="6.59288">
        <ele>2475</ele>
        <time>2021-07-15T14:16:39Z</time>
      </trkpt>
      <trkpt lat="45.11263" lon="6.59293">
        <ele>2475</ele>
        <time>2021-07-15T14:16:44Z</time>
      </trkpt>
      <trkpt lat="45.11266" lon="6.59298">
        <ele>2475</ele>
        <time>2021-07-15T14:16:48Z</time>
      </trkpt>
      <trkpt lat="45.11272" lon="6.59295">
        <ele>2475</ele>
        <time>2021-07-15T14:16:53Z</time>
      </trkpt>
      <trkpt lat="45.11281" lon="6.59297">
        <ele>2477</ele>
        <time>2021-07-15T14:17:03Z</time>
      </trkpt>
      <trkpt lat="45.11298" lon="6.59318">
        <ele>2481</ele>
        <time>2021-07-15T14:17:26Z</time>
      </trkpt>
      <trkpt lat="45.11301" lon="6.59327">
        <ele>2480</ele>
        <time>2021-07-15T14:17:31Z</time>
      </trkpt>
      <trkpt lat="45.11311" lon="6.59317">
        <ele>2476</ele>
        <time>2021-07-15T14:17:50Z</time>
      </trkpt>
      <trkpt lat="45.11317" lon="6.59315">
        <ele>2476</ele>
        <time>2021-07-15T14:17:56Z</time>
      </trkpt>
      <trkpt lat="45.11328" lon="6.59322">
        <ele>2472</ele>
        <time>2021-07-15T14:18:04Z</time>
      </trkpt>
      <trkpt lat="45.11333" lon="6.59327">
        <ele>2471</ele>
        <time>2021-07-15T14:18:08Z</time>
      </trkpt>
      <trkpt lat="45.11336" lon="6.59334">
        <ele>2470</ele>
        <time>2021-07-15T14:18:12Z</time>
      </trkpt>
      <trkpt lat="45.11345" lon="6.5937">
        <ele>2466</ele>
        <time>2021-07-15T14:18:38Z</time>
      </trkpt>
      <trkpt lat="45.11349" lon="6.59376">
        <ele>2466</ele>
        <time>2021-07-15T14:18:43Z</time>
      </trkpt>
      <trkpt lat="45.11357" lon="6.59383">
        <ele>2466</ele>
        <time>2021-07-15T14:18:53Z</time>
      </trkpt>
      <trkpt lat="45.11363" lon="6.59391">
        <ele>2469</ele>
        <time>2021-07-15T14:19:06Z</time>
      </trkpt>
      <trkpt lat="45.1137" lon="6.59393">
        <ele>2471</ele>
        <time>2021-07-15T14:19:18Z</time>
      </trkpt>
      <trkpt lat="45.11377" lon="6.594">
        <ele>2473</ele>
        <time>2021-07-15T14:19:30Z</time>
      </trkpt>
      <trkpt lat="45.11378" lon="6.5941">
        <ele>2476</ele>
        <time>2021-07-15T14:19:42Z</time>
      </trkpt>
      <trkpt lat="45.11381" lon="6.59419">
        <ele>2477</ele>
        <time>2021-07-15T14:19:48Z</time>
      </trkpt>
      <trkpt lat="45.11383" lon="6.59425">
        <ele>2477</ele>
        <time>2021-07-15T14:19:53Z</time>
      </trkpt>
      <trkpt lat="45.11397" lon="6.59452">
        <ele>2480</ele>
        <time>2021-07-15T14:20:16Z</time>
      </trkpt>
      <trkpt lat="45.11401" lon="6.59457">
        <ele>2480</ele>
        <time>2021-07-15T14:20:20Z</time>
      </trkpt>
      <trkpt lat="45.11405" lon="6.59463">
        <ele>2481</ele>
        <time>2021-07-15T14:20:26Z</time>
      </trkpt>
      <trkpt lat="45.11406" lon="6.59472">
        <ele>2481</ele>
        <time>2021-07-15T14:20:33Z</time>
      </trkpt>
      <trkpt lat="45.11406" lon="6.59482">
        <ele>2482</ele>
        <time>2021-07-15T14:20:40Z</time>
      </trkpt>
      <trkpt lat="45.11406" lon="6.5949">
        <ele>2481</ele>
        <time>2021-07-15T14:20:46Z</time>
      </trkpt>
      <trkpt lat="45.11405" lon="6.59499">
        <ele>2481</ele>
        <time>2021-07-15T14:20:51Z</time>
      </trkpt>
      <trkpt lat="45.11408" lon="6.59506">
        <ele>2482</ele>
        <time>2021-07-15T14:20:57Z</time>
      </trkpt>
      <trkpt lat="45.11412" lon="6.59512">
        <ele>2483</ele>
        <time>2021-07-15T14:21:03Z</time>
      </trkpt>
      <trkpt lat="45.11416" lon="6.5952">
        <ele>2483</ele>
        <time>2021-07-15T14:21:08Z</time>
      </trkpt>
      <trkpt lat="45.11422" lon="6.59524">
        <ele>2483</ele>
        <time>2021-07-15T14:21:12Z</time>
      </trkpt>
      <trkpt lat="45.11432" lon="6.59532">
        <ele>2480</ele>
        <time>2021-07-15T14:21:22Z</time>
      </trkpt>
      <trkpt lat="45.11441" lon="6.59542">
        <ele>2480</ele>
        <time>2021-07-15T14:21:32Z</time>
      </trkpt>
      <trkpt lat="45.11442" lon="6.5955">
        <ele>2480</ele>
        <time>2021-07-15T14:21:38Z</time>
      </trkpt>
      <trkpt lat="45.11439" lon="6.59558">
        <ele>2480</ele>
        <time>2021-07-15T14:21:42Z</time>
      </trkpt>
      <trkpt lat="45.11439" lon="6.59566">
        <ele>2480</ele>
        <time>2021-07-15T14:21:46Z</time>
      </trkpt>
      <trkpt lat="45.11437" lon="6.59574">
        <ele>2480</ele>
        <time>2021-07-15T14:21:51Z</time>
      </trkpt>
      <trkpt lat="45.11436" lon="6.59583">
        <ele>2481</ele>
        <time>2021-07-15T14:21:56Z</time>
      </trkpt>
      <trkpt lat="45.11432" lon="6.59593">
        <ele>2481</ele>
        <time>2021-07-15T14:22:04Z</time>
      </trkpt>
      <trkpt lat="45.1143" lon="6.5961">
        <ele>2481</ele>
        <time>2021-07-15T14:22:13Z</time>
      </trkpt>
      <trkpt lat="45.11431" lon="6.5962">
        <ele>2482</ele>
        <time>2021-07-15T14:22:22Z</time>
      </trkpt>
      <trkpt lat="45.1143" lon="6.59629">
        <ele>2482</ele>
        <time>2021-07-15T14:22:30Z</time>
      </trkpt>
      <trkpt lat="45.11433" lon="6.59642">
        <ele>2481</ele>
        <time>2021-07-15T14:22:40Z</time>
      </trkpt>
      <trkpt lat="45.11438" lon="6.59658">
        <ele>2481</ele>
        <time>2021-07-15T14:22:51Z</time>
      </trkpt>
      <trkpt lat="45.11445" lon="6.59676">
        <ele>2479</ele>
        <time>2021-07-15T14:23:04Z</time>
      </trkpt>
      <trkpt lat="45.11449" lon="6.59697">
        <ele>2479</ele>
        <time>2021-07-15T14:23:18Z</time>
      </trkpt>
      <trkpt lat="45.11452" lon="6.59704">
        <ele>2479</ele>
        <time>2021-07-15T14:23:21Z</time>
      </trkpt>
      <trkpt lat="45.11452" lon="6.59712">
        <ele>2479</ele>
        <time>2021-07-15T14:23:26Z</time>
      </trkpt>
      <trkpt lat="45.11453" lon="6.59721">
        <ele>2479</ele>
        <time>2021-07-15T14:23:31Z</time>
      </trkpt>
      <trkpt lat="45.11454" lon="6.59729">
        <ele>2479</ele>
        <time>2021-07-15T14:23:35Z</time>
      </trkpt>
      <trkpt lat="45.11457" lon="6.59737">
        <ele>2479</ele>
        <time>2021-07-15T14:23:40Z</time>
      </trkpt>
      <trkpt lat="45.11458" lon="6.59744">
        <ele>2479</ele>
        <time>2021-07-15T14:23:45Z</time>
      </trkpt>
      <trkpt lat="45.11457" lon="6.59762">
        <ele>2479</ele>
        <time>2021-07-15T14:23:54Z</time>
      </trkpt>
      <trkpt lat="45.11457" lon="6.5977">
        <ele>2480</ele>
        <time>2021-07-15T14:23:59Z</time>
      </trkpt>
      <trkpt lat="45.11457" lon="6.59783">
        <ele>2481</ele>
        <time>2021-07-15T14:24:07Z</time>
      </trkpt>
      <trkpt lat="45.11463" lon="6.5979">
        <ele>2480</ele>
        <time>2021-07-15T14:24:14Z</time>
      </trkpt>
      <trkpt lat="45.11471" lon="6.59788">
        <ele>2478</ele>
        <time>2021-07-15T14:24:23Z</time>
      </trkpt>
      <trkpt lat="45.11479" lon="6.59787">
        <ele>2477</ele>
        <time>2021-07-15T14:24:29Z</time>
      </trkpt>
      <trkpt lat="45.11486" lon="6.59789">
        <ele>2477</ele>
        <time>2021-07-15T14:24:34Z</time>
      </trkpt>
      <trkpt lat="45.11491" lon="6.59791">
        <ele>2477</ele>
        <time>2021-07-15T14:24:38Z</time>
      </trkpt>
      <trkpt lat="45.11495" lon="6.59797">
        <ele>2476</ele>
        <time>2021-07-15T14:24:43Z</time>
      </trkpt>
      <trkpt lat="45.11514" lon="6.59831">
        <ele>2471</ele>
        <time>2021-07-15T14:25:06Z</time>
      </trkpt>
      <trkpt lat="45.11519" lon="6.59834">
        <ele>2471</ele>
        <time>2021-07-15T14:25:10Z</time>
      </trkpt>
      <trkpt lat="45.11532" lon="6.59836">
        <ele>2471</ele>
        <time>2021-07-15T14:25:21Z</time>
      </trkpt>
      <trkpt lat="45.11536" lon="6.59842">
        <ele>2471</ele>
        <time>2021-07-15T14:25:27Z</time>
      </trkpt>
      <trkpt lat="45.11543" lon="6.59842">
        <ele>2469</ele>
        <time>2021-07-15T14:25:41Z</time>
      </trkpt>
      <trkpt lat="45.11544" lon="6.59853">
        <ele>2465</ele>
        <time>2021-07-15T14:25:53Z</time>
      </trkpt>
      <trkpt lat="45.11552" lon="6.59865">
        <ele>2462</ele>
        <time>2021-07-15T14:26:02Z</time>
      </trkpt>
      <trkpt lat="45.11554" lon="6.59873">
        <ele>2462</ele>
        <time>2021-07-15T14:26:10Z</time>
      </trkpt>
      <trkpt lat="45.11557" lon="6.59886">
        <ele>2463</ele>
        <time>2021-07-15T14:26:20Z</time>
      </trkpt>
      <trkpt lat="45.11559" lon="6.59892">
        <ele>2463</ele>
        <time>2021-07-15T14:26:26Z</time>
      </trkpt>
      <trkpt lat="45.11562" lon="6.599">
        <ele>2463</ele>
        <time>2021-07-15T14:26:32Z</time>
      </trkpt>
      <trkpt lat="45.11566" lon="6.59906">
        <ele>2461</ele>
        <time>2021-07-15T14:26:37Z</time>
      </trkpt>
      <trkpt lat="45.11566" lon="6.59914">
        <ele>2461</ele>
        <time>2021-07-15T14:26:42Z</time>
      </trkpt>
      <trkpt lat="45.11564" lon="6.59927">
        <ele>2461</ele>
        <time>2021-07-15T14:26:54Z</time>
      </trkpt>
      <trkpt lat="45.11567" lon="6.59935">
        <ele>2459</ele>
        <time>2021-07-15T14:26:58Z</time>
      </trkpt>
      <trkpt lat="45.11569" lon="6.59945">
        <ele>2459</ele>
        <time>2021-07-15T14:27:02Z</time>
      </trkpt>
      <trkpt lat="45.11579" lon="6.59971">
        <ele>2455</ele>
        <time>2021-07-15T14:27:18Z</time>
      </trkpt>
      <trkpt lat="45.11579" lon="6.59985">
        <ele>2455</ele>
        <time>2021-07-15T14:27:27Z</time>
      </trkpt>
      <trkpt lat="45.11584" lon="6.59989">
        <ele>2455</ele>
        <time>2021-07-15T14:27:32Z</time>
      </trkpt>
      <trkpt lat="45.11586" lon="6.59996">
        <ele>2455</ele>
        <time>2021-07-15T14:27:37Z</time>
      </trkpt>
      <trkpt lat="45.11587" lon="6.60005">
        <ele>2455</ele>
        <time>2021-07-15T14:27:41Z</time>
      </trkpt>
      <trkpt lat="45.11594" lon="6.60021">
        <ele>2454</ele>
        <time>2021-07-15T14:27:50Z</time>
      </trkpt>
      <trkpt lat="45.11598" lon="6.60026">
        <ele>2454</ele>
        <time>2021-07-15T14:27:54Z</time>
      </trkpt>
      <trkpt lat="45.116" lon="6.60035">
        <ele>2453</ele>
        <time>2021-07-15T14:28:00Z</time>
      </trkpt>
      <trkpt lat="45.116" lon="6.60043">
        <ele>2453</ele>
        <time>2021-07-15T14:28:04Z</time>
      </trkpt>
      <trkpt lat="45.11601" lon="6.60051">
        <ele>2453</ele>
        <time>2021-07-15T14:28:09Z</time>
      </trkpt>
      <trkpt lat="45.11604" lon="6.60057">
        <ele>2451</ele>
        <time>2021-07-15T14:28:13Z</time>
      </trkpt>
      <trkpt lat="45.11608" lon="6.60067">
        <ele>2450</ele>
        <time>2021-07-15T14:28:20Z</time>
      </trkpt>
      <trkpt lat="45.11618" lon="6.6007">
        <ele>2448</ele>
        <time>2021-07-15T14:28:38Z</time>
      </trkpt>
      <trkpt lat="45.11618" lon="6.60078">
        <ele>2446</ele>
        <time>2021-07-15T14:28:44Z</time>
      </trkpt>
      <trkpt lat="45.11621" lon="6.60084">
        <ele>2445</ele>
        <time>2021-07-15T14:28:48Z</time>
      </trkpt>
      <trkpt lat="45.11621" lon="6.60101">
        <ele>2443</ele>
        <time>2021-07-15T14:28:55Z</time>
      </trkpt>
      <trkpt lat="45.11623" lon="6.6011">
        <ele>2442</ele>
        <time>2021-07-15T14:28:59Z</time>
      </trkpt>
      <trkpt lat="45.1163" lon="6.60125">
        <ele>2442</ele>
        <time>2021-07-15T14:29:09Z</time>
      </trkpt>
      <trkpt lat="45.11634" lon="6.60132">
        <ele>2441</ele>
        <time>2021-07-15T14:29:13Z</time>
      </trkpt>
      <trkpt lat="45.11644" lon="6.60166">
        <ele>2436</ele>
        <time>2021-07-15T14:29:40Z</time>
      </trkpt>
      <trkpt lat="45.11645" lon="6.60178">
        <ele>2435</ele>
        <time>2021-07-15T14:29:45Z</time>
      </trkpt>
      <trkpt lat="45.11648" lon="6.60193">
        <ele>2435</ele>
        <time>2021-07-15T14:29:55Z</time>
      </trkpt>
      <trkpt lat="45.11648" lon="6.60203">
        <ele>2433</ele>
        <time>2021-07-15T14:29:59Z</time>
      </trkpt>
      <trkpt lat="45.11649" lon="6.60214">
        <ele>2432</ele>
        <time>2021-07-15T14:30:05Z</time>
      </trkpt>
      <trkpt lat="45.11652" lon="6.60221">
        <ele>2430</ele>
        <time>2021-07-15T14:30:09Z</time>
      </trkpt>
      <trkpt lat="45.11657" lon="6.60227">
        <ele>2430</ele>
        <time>2021-07-15T14:30:14Z</time>
      </trkpt>
      <trkpt lat="45.11659" lon="6.60235">
        <ele>2431</ele>
        <time>2021-07-15T14:30:20Z</time>
      </trkpt>
      <trkpt lat="45.11661" lon="6.60251">
        <ele>2431</ele>
        <time>2021-07-15T14:30:31Z</time>
      </trkpt>
      <trkpt lat="45.11666" lon="6.60256">
        <ele>2432</ele>
        <time>2021-07-15T14:30:37Z</time>
      </trkpt>
      <trkpt lat="45.11671" lon="6.60263">
        <ele>2432</ele>
        <time>2021-07-15T14:30:43Z</time>
      </trkpt>
      <trkpt lat="45.11674" lon="6.6027">
        <ele>2432</ele>
        <time>2021-07-15T14:30:48Z</time>
      </trkpt>
      <trkpt lat="45.11678" lon="6.60276">
        <ele>2432</ele>
        <time>2021-07-15T14:30:54Z</time>
      </trkpt>
      <trkpt lat="45.11678" lon="6.60286">
        <ele>2433</ele>
        <time>2021-07-15T14:31:03Z</time>
      </trkpt>
      <trkpt lat="45.11681" lon="6.60294">
        <ele>2433</ele>
        <time>2021-07-15T14:31:07Z</time>
      </trkpt>
      <trkpt lat="45.11693" lon="6.60299">
        <ele>2435</ele>
        <time>2021-07-15T14:31:21Z</time>
      </trkpt>
      <trkpt lat="45.11691" lon="6.60309">
        <ele>2436</ele>
        <time>2021-07-15T14:31:31Z</time>
      </trkpt>
      <trkpt lat="45.11689" lon="6.60317">
        <ele>2435</ele>
        <time>2021-07-15T14:31:35Z</time>
      </trkpt>
      <trkpt lat="45.11686" lon="6.60324">
        <ele>2435</ele>
        <time>2021-07-15T14:31:39Z</time>
      </trkpt>
      <trkpt lat="45.11684" lon="6.60331">
        <ele>2435</ele>
        <time>2021-07-15T14:31:43Z</time>
      </trkpt>
      <trkpt lat="45.11678" lon="6.60335">
        <ele>2435</ele>
        <time>2021-07-15T14:31:48Z</time>
      </trkpt>
      <trkpt lat="45.11673" lon="6.60341">
        <ele>2434</ele>
        <time>2021-07-15T14:31:53Z</time>
      </trkpt>
      <trkpt lat="45.11671" lon="6.60349">
        <ele>2435</ele>
        <time>2021-07-15T14:31:57Z</time>
      </trkpt>
      <trkpt lat="45.11671" lon="6.60357">
        <ele>2435</ele>
        <time>2021-07-15T14:32:01Z</time>
      </trkpt>
      <trkpt lat="45.11666" lon="6.60374">
        <ele>2435</ele>
        <time>2021-07-15T14:32:12Z</time>
      </trkpt>
      <trkpt lat="45.11665" lon="6.60391">
        <ele>2435</ele>
        <time>2021-07-15T14:32:21Z</time>
      </trkpt>
      <trkpt lat="45.11665" lon="6.604">
        <ele>2436</ele>
        <time>2021-07-15T14:32:25Z</time>
      </trkpt>
      <trkpt lat="45.11665" lon="6.60416">
        <ele>2435</ele>
        <time>2021-07-15T14:32:34Z</time>
      </trkpt>
      <trkpt lat="45.11667" lon="6.60424">
        <ele>2435</ele>
        <time>2021-07-15T14:32:39Z</time>
      </trkpt>
      <trkpt lat="45.11673" lon="6.60438">
        <ele>2434</ele>
        <time>2021-07-15T14:32:48Z</time>
      </trkpt>
      <trkpt lat="45.11675" lon="6.60445">
        <ele>2434</ele>
        <time>2021-07-15T14:32:52Z</time>
      </trkpt>
      <trkpt lat="45.11678" lon="6.60452">
        <ele>2435</ele>
        <time>2021-07-15T14:32:56Z</time>
      </trkpt>
      <trkpt lat="45.11679" lon="6.6046">
        <ele>2435</ele>
        <time>2021-07-15T14:33:00Z</time>
      </trkpt>
      <trkpt lat="45.11679" lon="6.60485">
        <ele>2436</ele>
        <time>2021-07-15T14:33:18Z</time>
      </trkpt>
      <trkpt lat="45.1168" lon="6.60493">
        <ele>2436</ele>
        <time>2021-07-15T14:33:23Z</time>
      </trkpt>
      <trkpt lat="45.11678" lon="6.605">
        <ele>2437</ele>
        <time>2021-07-15T14:33:28Z</time>
      </trkpt>
      <trkpt lat="45.11684" lon="6.60512">
        <ele>2439</ele>
        <time>2021-07-15T14:33:38Z</time>
      </trkpt>
      <trkpt lat="45.11705" lon="6.6054">
        <ele>2439</ele>
        <time>2021-07-15T14:34:02Z</time>
      </trkpt>
      <trkpt lat="45.11709" lon="6.60546">
        <ele>2439</ele>
        <time>2021-07-15T14:34:08Z</time>
      </trkpt>
      <trkpt lat="45.11716" lon="6.60553">
        <ele>2439</ele>
        <time>2021-07-15T14:34:13Z</time>
      </trkpt>
      <trkpt lat="45.11733" lon="6.60564">
        <ele>2437</ele>
        <time>2021-07-15T14:34:28Z</time>
      </trkpt>
      <trkpt lat="45.11736" lon="6.60564">
        <ele>2437</ele>
        <time>2021-07-15T14:34:31Z</time>
      </trkpt>
      <trkpt lat="45.11742" lon="6.60568">
        <ele>2437</ele>
        <time>2021-07-15T14:34:35Z</time>
      </trkpt>
      <trkpt lat="45.11752" lon="6.60575">
        <ele>2437</ele>
        <time>2021-07-15T14:34:45Z</time>
      </trkpt>
      <trkpt lat="45.11758" lon="6.60576">
        <ele>2437</ele>
        <time>2021-07-15T14:34:50Z</time>
      </trkpt>
      <trkpt lat="45.1177" lon="6.60577">
        <ele>2437</ele>
        <time>2021-07-15T14:34:59Z</time>
      </trkpt>
      <trkpt lat="45.11801" lon="6.60593">
        <ele>2438</ele>
        <time>2021-07-15T14:35:28Z</time>
      </trkpt>
      <trkpt lat="45.11817" lon="6.60594">
        <ele>2439</ele>
        <time>2021-07-15T14:35:44Z</time>
      </trkpt>
      <trkpt lat="45.11821" lon="6.60596">
        <ele>2438</ele>
        <time>2021-07-15T14:35:48Z</time>
      </trkpt>
      <trkpt lat="45.11837" lon="6.60602">
        <ele>2440</ele>
        <time>2021-07-15T14:36:01Z</time>
      </trkpt>
      <trkpt lat="45.11843" lon="6.60602">
        <ele>2440</ele>
        <time>2021-07-15T14:36:07Z</time>
      </trkpt>
      <trkpt lat="45.11856" lon="6.60608">
        <ele>2439</ele>
        <time>2021-07-15T14:36:16Z</time>
      </trkpt>
      <trkpt lat="45.11861" lon="6.60608">
        <ele>2439</ele>
        <time>2021-07-15T14:36:20Z</time>
      </trkpt>
      <trkpt lat="45.11874" lon="6.60612">
        <ele>2439</ele>
        <time>2021-07-15T14:36:33Z</time>
      </trkpt>
      <trkpt lat="45.1188" lon="6.60614">
        <ele>2440</ele>
        <time>2021-07-15T14:36:39Z</time>
      </trkpt>
      <trkpt lat="45.11886" lon="6.60615">
        <ele>2440</ele>
        <time>2021-07-15T14:36:44Z</time>
      </trkpt>
      <trkpt lat="45.11892" lon="6.60617">
        <ele>2441</ele>
        <time>2021-07-15T14:36:48Z</time>
      </trkpt>
      <trkpt lat="45.11896" lon="6.60619">
        <ele>2441</ele>
        <time>2021-07-15T14:36:51Z</time>
      </trkpt>
      <trkpt lat="45.119" lon="6.60622">
        <ele>2441</ele>
        <time>2021-07-15T14:36:54Z</time>
      </trkpt>
      <trkpt lat="45.11904" lon="6.60624">
        <ele>2440</ele>
        <time>2021-07-15T14:36:57Z</time>
      </trkpt>
      <trkpt lat="45.11908" lon="6.60626">
        <ele>2440</ele>
        <time>2021-07-15T14:37:00Z</time>
      </trkpt>
      <trkpt lat="45.11921" lon="6.60637">
        <ele>2437</ele>
        <time>2021-07-15T14:37:26Z</time>
      </trkpt>
      <trkpt lat="45.11924" lon="6.60637">
        <ele>2437</ele>
        <time>2021-07-15T14:37:30Z</time>
      </trkpt>
      <trkpt lat="45.11937" lon="6.60637">
        <ele>2437</ele>
        <time>2021-07-15T14:37:40Z</time>
      </trkpt>
      <trkpt lat="45.11941" lon="6.60635">
        <ele>2437</ele>
        <time>2021-07-15T14:37:43Z</time>
      </trkpt>
      <trkpt lat="45.11945" lon="6.60636">
        <ele>2436</ele>
        <time>2021-07-15T14:37:46Z</time>
      </trkpt>
      <trkpt lat="45.11949" lon="6.60634">
        <ele>2437</ele>
        <time>2021-07-15T14:37:50Z</time>
      </trkpt>
      <trkpt lat="45.11951" lon="6.60638">
        <ele>2437</ele>
        <time>2021-07-15T14:37:53Z</time>
      </trkpt>
      <trkpt lat="45.11957" lon="6.60639">
        <ele>2437</ele>
        <time>2021-07-15T14:37:56Z</time>
      </trkpt>
      <trkpt lat="45.11961" lon="6.60643">
        <ele>2438</ele>
        <time>2021-07-15T14:38:02Z</time>
      </trkpt>
      <trkpt lat="45.11965" lon="6.60644">
        <ele>2438</ele>
        <time>2021-07-15T14:38:05Z</time>
      </trkpt>
      <trkpt lat="45.11973" lon="6.60647">
        <ele>2437</ele>
        <time>2021-07-15T14:38:11Z</time>
      </trkpt>
      <trkpt lat="45.11977" lon="6.60649">
        <ele>2438</ele>
        <time>2021-07-15T14:38:14Z</time>
      </trkpt>
      <trkpt lat="45.11981" lon="6.60649">
        <ele>2438</ele>
        <time>2021-07-15T14:38:18Z</time>
      </trkpt>
      <trkpt lat="45.11985" lon="6.60654">
        <ele>2438</ele>
        <time>2021-07-15T14:38:21Z</time>
      </trkpt>
      <trkpt lat="45.1199" lon="6.60654">
        <ele>2438</ele>
        <time>2021-07-15T14:38:24Z</time>
      </trkpt>
      <trkpt lat="45.12014" lon="6.60662">
        <ele>2437</ele>
        <time>2021-07-15T14:38:44Z</time>
      </trkpt>
      <trkpt lat="45.12019" lon="6.60663">
        <ele>2437</ele>
        <time>2021-07-15T14:38:48Z</time>
      </trkpt>
      <trkpt lat="45.12023" lon="6.60665">
        <ele>2437</ele>
        <time>2021-07-15T14:38:52Z</time>
      </trkpt>
      <trkpt lat="45.12027" lon="6.60664">
        <ele>2437</ele>
        <time>2021-07-15T14:38:56Z</time>
      </trkpt>
      <trkpt lat="45.12037" lon="6.60667">
        <ele>2438</ele>
        <time>2021-07-15T14:39:03Z</time>
      </trkpt>
      <trkpt lat="45.12049" lon="6.60672">
        <ele>2437</ele>
        <time>2021-07-15T14:39:12Z</time>
      </trkpt>
      <trkpt lat="45.12057" lon="6.60672">
        <ele>2437</ele>
        <time>2021-07-15T14:39:18Z</time>
      </trkpt>
      <trkpt lat="45.12061" lon="6.60674">
        <ele>2437</ele>
        <time>2021-07-15T14:39:21Z</time>
      </trkpt>
      <trkpt lat="45.12065" lon="6.60674">
        <ele>2437</ele>
        <time>2021-07-15T14:39:25Z</time>
      </trkpt>
      <trkpt lat="45.12079" lon="6.60678">
        <ele>2437</ele>
        <time>2021-07-15T14:39:38Z</time>
      </trkpt>
      <trkpt lat="45.12089" lon="6.60675">
        <ele>2437</ele>
        <time>2021-07-15T14:39:45Z</time>
      </trkpt>
      <trkpt lat="45.12093" lon="6.60672">
        <ele>2437</ele>
        <time>2021-07-15T14:39:49Z</time>
      </trkpt>
      <trkpt lat="45.12101" lon="6.60674">
        <ele>2437</ele>
        <time>2021-07-15T14:39:55Z</time>
      </trkpt>
      <trkpt lat="45.12105" lon="6.60673">
        <ele>2437</ele>
        <time>2021-07-15T14:39:59Z</time>
      </trkpt>
      <trkpt lat="45.12115" lon="6.60668">
        <ele>2439</ele>
        <time>2021-07-15T14:40:09Z</time>
      </trkpt>
      <trkpt lat="45.1213" lon="6.60664">
        <ele>2438</ele>
        <time>2021-07-15T14:40:20Z</time>
      </trkpt>
      <trkpt lat="45.12141" lon="6.60657">
        <ele>2439</ele>
        <time>2021-07-15T14:40:29Z</time>
      </trkpt>
      <trkpt lat="45.12145" lon="6.60651">
        <ele>2439</ele>
        <time>2021-07-15T14:40:35Z</time>
      </trkpt>
      <trkpt lat="45.1215" lon="6.60647">
        <ele>2441</ele>
        <time>2021-07-15T14:40:41Z</time>
      </trkpt>
      <trkpt lat="45.12158" lon="6.60633">
        <ele>2441</ele>
        <time>2021-07-15T14:40:50Z</time>
      </trkpt>
      <trkpt lat="45.12165" lon="6.60612">
        <ele>2442</ele>
        <time>2021-07-15T14:41:05Z</time>
      </trkpt>
      <trkpt lat="45.12163" lon="6.60604">
        <ele>2441</ele>
        <time>2021-07-15T14:41:11Z</time>
      </trkpt>
      <trkpt lat="45.12159" lon="6.60597">
        <ele>2441</ele>
        <time>2021-07-15T14:41:15Z</time>
      </trkpt>
      <trkpt lat="45.12156" lon="6.60586">
        <ele>2441</ele>
        <time>2021-07-15T14:41:22Z</time>
      </trkpt>
      <trkpt lat="45.12157" lon="6.60581">
        <ele>2441</ele>
        <time>2021-07-15T14:41:25Z</time>
      </trkpt>
      <trkpt lat="45.12156" lon="6.60574">
        <ele>2441</ele>
        <time>2021-07-15T14:41:29Z</time>
      </trkpt>
      <trkpt lat="45.12154" lon="6.60569">
        <ele>2440</ele>
        <time>2021-07-15T14:41:32Z</time>
      </trkpt>
      <trkpt lat="45.1215" lon="6.60565">
        <ele>2439</ele>
        <time>2021-07-15T14:41:36Z</time>
      </trkpt>
      <trkpt lat="45.12152" lon="6.60556">
        <ele>2438</ele>
        <time>2021-07-15T14:41:41Z</time>
      </trkpt>
      <trkpt lat="45.12151" lon="6.60551">
        <ele>2438</ele>
        <time>2021-07-15T14:41:44Z</time>
      </trkpt>
      <trkpt lat="45.12151" lon="6.60544">
        <ele>2439</ele>
        <time>2021-07-15T14:41:47Z</time>
      </trkpt>
      <trkpt lat="45.12152" lon="6.60539">
        <ele>2439</ele>
        <time>2021-07-15T14:41:50Z</time>
      </trkpt>
      <trkpt lat="45.12154" lon="6.6052">
        <ele>2439</ele>
        <time>2021-07-15T14:42:01Z</time>
      </trkpt>
      <trkpt lat="45.12155" lon="6.60511">
        <ele>2440</ele>
        <time>2021-07-15T14:42:10Z</time>
      </trkpt>
      <trkpt lat="45.12159" lon="6.60503">
        <ele>2441</ele>
        <time>2021-07-15T14:42:15Z</time>
      </trkpt>
      <trkpt lat="45.12161" lon="6.60496">
        <ele>2441</ele>
        <time>2021-07-15T14:42:20Z</time>
      </trkpt>
      <trkpt lat="45.12167" lon="6.6049">
        <ele>2440</ele>
        <time>2021-07-15T14:42:25Z</time>
      </trkpt>
      <trkpt lat="45.12168" lon="6.60484">
        <ele>2440</ele>
        <time>2021-07-15T14:42:28Z</time>
      </trkpt>
      <trkpt lat="45.1217" lon="6.60478">
        <ele>2440</ele>
        <time>2021-07-15T14:42:31Z</time>
      </trkpt>
      <trkpt lat="45.12174" lon="6.60469">
        <ele>2441</ele>
        <time>2021-07-15T14:42:38Z</time>
      </trkpt>
      <trkpt lat="45.12176" lon="6.60461">
        <ele>2441</ele>
        <time>2021-07-15T14:42:43Z</time>
      </trkpt>
      <trkpt lat="45.12181" lon="6.60456">
        <ele>2440</ele>
        <time>2021-07-15T14:42:49Z</time>
      </trkpt>
      <trkpt lat="45.12185" lon="6.60448">
        <ele>2441</ele>
        <time>2021-07-15T14:42:55Z</time>
      </trkpt>
      <trkpt lat="45.12191" lon="6.60445">
        <ele>2442</ele>
        <time>2021-07-15T14:43:00Z</time>
      </trkpt>
      <trkpt lat="45.12194" lon="6.60428">
        <ele>2443</ele>
        <time>2021-07-15T14:43:10Z</time>
      </trkpt>
      <trkpt lat="45.12197" lon="6.60421">
        <ele>2443</ele>
        <time>2021-07-15T14:43:15Z</time>
      </trkpt>
      <trkpt lat="45.122" lon="6.60415">
        <ele>2443</ele>
        <time>2021-07-15T14:43:20Z</time>
      </trkpt>
      <trkpt lat="45.12208" lon="6.60403">
        <ele>2443</ele>
        <time>2021-07-15T14:43:31Z</time>
      </trkpt>
      <trkpt lat="45.12211" lon="6.60396">
        <ele>2444</ele>
        <time>2021-07-15T14:43:39Z</time>
      </trkpt>
      <trkpt lat="45.12218" lon="6.60391">
        <ele>2444</ele>
        <time>2021-07-15T14:43:50Z</time>
      </trkpt>
      <trkpt lat="45.12225" lon="6.60388">
        <ele>2445</ele>
        <time>2021-07-15T14:43:56Z</time>
      </trkpt>
      <trkpt lat="45.12232" lon="6.6038">
        <ele>2447</ele>
        <time>2021-07-15T14:44:07Z</time>
      </trkpt>
      <trkpt lat="45.12239" lon="6.6038">
        <ele>2447</ele>
        <time>2021-07-15T14:44:13Z</time>
      </trkpt>
      <trkpt lat="45.12244" lon="6.60374">
        <ele>2448</ele>
        <time>2021-07-15T14:44:23Z</time>
      </trkpt>
      <trkpt lat="45.12247" lon="6.60366">
        <ele>2449</ele>
        <time>2021-07-15T14:44:29Z</time>
      </trkpt>
      <trkpt lat="45.12254" lon="6.60357">
        <ele>2451</ele>
        <time>2021-07-15T14:44:42Z</time>
      </trkpt>
      <trkpt lat="45.12257" lon="6.60349">
        <ele>2451</ele>
        <time>2021-07-15T14:44:49Z</time>
      </trkpt>
      <trkpt lat="45.12264" lon="6.60346">
        <ele>2453</ele>
        <time>2021-07-15T14:45:03Z</time>
      </trkpt>
      <trkpt lat="45.12269" lon="6.60338">
        <ele>2453</ele>
        <time>2021-07-15T14:45:08Z</time>
      </trkpt>
      <trkpt lat="45.12271" lon="6.60331">
        <ele>2454</ele>
        <time>2021-07-15T14:45:12Z</time>
      </trkpt>
      <trkpt lat="45.12277" lon="6.60325">
        <ele>2455</ele>
        <time>2021-07-15T14:45:21Z</time>
      </trkpt>
      <trkpt lat="45.12281" lon="6.60314">
        <ele>2456</ele>
        <time>2021-07-15T14:45:30Z</time>
      </trkpt>
      <trkpt lat="45.1229" lon="6.60316">
        <ele>2458</ele>
        <time>2021-07-15T14:45:43Z</time>
      </trkpt>
      <trkpt lat="45.12292" lon="6.60307">
        <ele>2459</ele>
        <time>2021-07-15T14:45:53Z</time>
      </trkpt>
      <trkpt lat="45.123" lon="6.60311">
        <ele>2463</ele>
        <time>2021-07-15T14:46:11Z</time>
      </trkpt>
      <trkpt lat="45.12305" lon="6.60303">
        <ele>2465</ele>
        <time>2021-07-15T14:46:23Z</time>
      </trkpt>
      <trkpt lat="45.12304" lon="6.60292">
        <ele>2468</ele>
        <time>2021-07-15T14:46:35Z</time>
      </trkpt>
      <trkpt lat="45.12305" lon="6.60281">
        <ele>2468</ele>
        <time>2021-07-15T14:46:42Z</time>
      </trkpt>
      <trkpt lat="45.12311" lon="6.60276">
        <ele>2470</ele>
        <time>2021-07-15T14:46:56Z</time>
      </trkpt>
      <trkpt lat="45.12316" lon="6.6027">
        <ele>2470</ele>
        <time>2021-07-15T14:46:59Z</time>
      </trkpt>
      <trkpt lat="45.12322" lon="6.6027">
        <ele>2469</ele>
        <time>2021-07-15T14:47:04Z</time>
      </trkpt>
      <trkpt lat="45.12326" lon="6.60269">
        <ele>2470</ele>
        <time>2021-07-15T14:47:07Z</time>
      </trkpt>
      <trkpt lat="45.12331" lon="6.60255">
        <ele>2470</ele>
        <time>2021-07-15T14:47:18Z</time>
      </trkpt>
      <trkpt lat="45.12331" lon="6.60247">
        <ele>2471</ele>
        <time>2021-07-15T14:47:24Z</time>
      </trkpt>
      <trkpt lat="45.12335" lon="6.60239">
        <ele>2469</ele>
        <time>2021-07-15T14:47:29Z</time>
      </trkpt>
      <trkpt lat="45.1234" lon="6.60235">
        <ele>2469</ele>
        <time>2021-07-15T14:47:33Z</time>
      </trkpt>
      <trkpt lat="45.12343" lon="6.60227">
        <ele>2470</ele>
        <time>2021-07-15T14:47:36Z</time>
      </trkpt>
      <trkpt lat="45.12343" lon="6.60219">
        <ele>2471</ele>
        <time>2021-07-15T14:47:42Z</time>
      </trkpt>
      <trkpt lat="45.12342" lon="6.6021">
        <ele>2471</ele>
        <time>2021-07-15T14:47:47Z</time>
      </trkpt>
      <trkpt lat="45.12343" lon="6.60202">
        <ele>2471</ele>
        <time>2021-07-15T14:47:52Z</time>
      </trkpt>
      <trkpt lat="45.12347" lon="6.60182">
        <ele>2467</ele>
        <time>2021-07-15T14:48:06Z</time>
      </trkpt>
      <trkpt lat="45.12345" lon="6.60174">
        <ele>2466</ele>
        <time>2021-07-15T14:48:10Z</time>
      </trkpt>
      <trkpt lat="45.12344" lon="6.60165">
        <ele>2466</ele>
        <time>2021-07-15T14:48:14Z</time>
      </trkpt>
      <trkpt lat="45.12344" lon="6.60157">
        <ele>2466</ele>
        <time>2021-07-15T14:48:18Z</time>
      </trkpt>
      <trkpt lat="45.12343" lon="6.60133">
        <ele>2462</ele>
        <time>2021-07-15T14:48:32Z</time>
      </trkpt>
      <trkpt lat="45.12336" lon="6.60117">
        <ele>2465</ele>
        <time>2021-07-15T14:48:48Z</time>
      </trkpt>
      <trkpt lat="45.12337" lon="6.60099">
        <ele>2468</ele>
        <time>2021-07-15T14:49:02Z</time>
      </trkpt>
      <trkpt lat="45.12329" lon="6.60081">
        <ele>2472</ele>
        <time>2021-07-15T14:49:18Z</time>
      </trkpt>
      <trkpt lat="45.12325" lon="6.60076">
        <ele>2474</ele>
        <time>2021-07-15T14:49:27Z</time>
      </trkpt>
      <trkpt lat="45.12337" lon="6.60064">
        <ele>2479</ele>
        <time>2021-07-15T14:49:52Z</time>
      </trkpt>
      <trkpt lat="45.12339" lon="6.60056">
        <ele>2482</ele>
        <time>2021-07-15T14:50:10Z</time>
      </trkpt>
      <trkpt lat="45.1234" lon="6.60048">
        <ele>2485</ele>
        <time>2021-07-15T14:50:28Z</time>
      </trkpt>
      <trkpt lat="45.12338" lon="6.60038">
        <ele>2487</ele>
        <time>2021-07-15T14:50:42Z</time>
      </trkpt>
      <trkpt lat="45.12343" lon="6.60033">
        <ele>2489</ele>
        <time>2021-07-15T14:50:54Z</time>
      </trkpt>
      <trkpt lat="45.12342" lon="6.60008">
        <ele>2494</ele>
        <time>2021-07-15T14:51:25Z</time>
      </trkpt>
      <trkpt lat="45.12338" lon="6.5999">
        <ele>2496</ele>
        <time>2021-07-15T14:51:46Z</time>
      </trkpt>
      <trkpt lat="45.12339" lon="6.59988">
        <ele>2500</ele>
        <time>2021-07-15T14:54:18Z</time>
      </trkpt>
      <trkpt lat="45.12333" lon="6.59984">
        <ele>2498</ele>
        <time>2021-07-15T14:56:36Z</time>
      </trkpt>
      <trkpt lat="45.12357" lon="6.60012">
        <ele>2499</ele>
        <time>2021-07-15T14:58:46Z</time>
      </trkpt>
      <trkpt lat="45.12369" lon="6.60023">
        <ele>2498</ele>
        <time>2021-07-15T14:58:51Z</time>
      </trkpt>
      <trkpt lat="45.12375" lon="6.60082">
        <ele>2499</ele>
        <time>2021-07-15T14:59:23Z</time>
      </trkpt>
      <trkpt lat="45.12365" lon="6.60023">
        <ele>2498</ele>
        <time>2021-07-15T14:59:53Z</time>
      </trkpt>
      <trkpt lat="45.12344" lon="6.59993">
        <ele>2498</ele>
        <time>2021-07-15T14:59:57Z</time>
      </trkpt>
      <trkpt lat="45.12339" lon="6.5998">
        <ele>2499</ele>
        <time>2021-07-15T15:00:08Z</time>
      </trkpt>
      <trkpt lat="45.12331" lon="6.59981">
        <ele>2500</ele>
        <time>2021-07-15T15:03:23Z</time>
      </trkpt>
      <trkpt lat="45.12333" lon="6.5997">
        <ele>2499</ele>
        <time>2021-07-15T15:05:38Z</time>
      </trkpt>
      <trkpt lat="45.12333" lon="6.59957">
        <ele>2499</ele>
        <time>2021-07-15T15:05:50Z</time>
      </trkpt>
      <trkpt lat="45.12332" lon="6.59949">
        <ele>2502</ele>
        <time>2021-07-15T15:05:55Z</time>
      </trkpt>
      <trkpt lat="45.1233" lon="6.59938">
        <ele>2501</ele>
        <time>2021-07-15T15:06:07Z</time>
      </trkpt>
      <trkpt lat="45.12328" lon="6.59931">
        <ele>2503</ele>
        <time>2021-07-15T15:06:19Z</time>
      </trkpt>
      <trkpt lat="45.12327" lon="6.5992">
        <ele>2505</ele>
        <time>2021-07-15T15:06:32Z</time>
      </trkpt>
      <trkpt lat="45.12322" lon="6.59914">
        <ele>2507</ele>
        <time>2021-07-15T15:06:44Z</time>
      </trkpt>
      <trkpt lat="45.12323" lon="6.59893">
        <ele>2512</ele>
        <time>2021-07-15T15:07:18Z</time>
      </trkpt>
      <trkpt lat="45.12321" lon="6.59876">
        <ele>2515</ele>
        <time>2021-07-15T15:07:31Z</time>
      </trkpt>
      <trkpt lat="45.12317" lon="6.59858">
        <ele>2515</ele>
        <time>2021-07-15T15:07:41Z</time>
      </trkpt>
      <trkpt lat="45.1232" lon="6.5985">
        <ele>2515</ele>
        <time>2021-07-15T15:07:47Z</time>
      </trkpt>
      <trkpt lat="45.12323" lon="6.59844">
        <ele>2515</ele>
        <time>2021-07-15T15:07:53Z</time>
      </trkpt>
      <trkpt lat="45.12329" lon="6.5984">
        <ele>2513</ele>
        <time>2021-07-15T15:07:58Z</time>
      </trkpt>
      <trkpt lat="45.12337" lon="6.5984">
        <ele>2512</ele>
        <time>2021-07-15T15:08:06Z</time>
      </trkpt>
      <trkpt lat="45.12353" lon="6.59845">
        <ele>2511</ele>
        <time>2021-07-15T15:08:18Z</time>
      </trkpt>
      <trkpt lat="45.12361" lon="6.59844">
        <ele>2510</ele>
        <time>2021-07-15T15:08:28Z</time>
      </trkpt>
      <trkpt lat="45.12376" lon="6.59846">
        <ele>2511</ele>
        <time>2021-07-15T15:08:40Z</time>
      </trkpt>
      <trkpt lat="45.12382" lon="6.59842">
        <ele>2510</ele>
        <time>2021-07-15T15:09:01Z</time>
      </trkpt>
      <trkpt lat="45.12392" lon="6.59838">
        <ele>2510</ele>
        <time>2021-07-15T15:09:15Z</time>
      </trkpt>
      <trkpt lat="45.12418" lon="6.59832">
        <ele>2509</ele>
        <time>2021-07-15T15:09:48Z</time>
      </trkpt>
      <trkpt lat="45.12434" lon="6.59822">
        <ele>2508</ele>
        <time>2021-07-15T15:10:03Z</time>
      </trkpt>
      <trkpt lat="45.12438" lon="6.5982">
        <ele>2508</ele>
        <time>2021-07-15T15:10:06Z</time>
      </trkpt>
      <trkpt lat="45.12441" lon="6.59814">
        <ele>2509</ele>
        <time>2021-07-15T15:10:15Z</time>
      </trkpt>
      <trkpt lat="45.12444" lon="6.59806">
        <ele>2510</ele>
        <time>2021-07-15T15:10:51Z</time>
      </trkpt>
      <trkpt lat="45.12438" lon="6.59803">
        <ele>2509</ele>
        <time>2021-07-15T15:13:07Z</time>
      </trkpt>
      <trkpt lat="45.12439" lon="6.59808">
        <ele>2508</ele>
        <time>2021-07-15T15:15:32Z</time>
      </trkpt>
      <trkpt lat="45.12439" lon="6.59811">
        <ele>2509</ele>
        <time>2021-07-15T15:20:15Z</time>
      </trkpt>
      <trkpt lat="45.1244" lon="6.59807">
        <ele>2508</ele>
        <time>2021-07-15T15:23:51Z</time>
      </trkpt>
      <trkpt lat="45.12447" lon="6.59813">
        <ele>2509</ele>
        <time>2021-07-15T15:24:13Z</time>
      </trkpt>
      <trkpt lat="45.12452" lon="6.59821">
        <ele>2509</ele>
        <time>2021-07-15T15:24:21Z</time>
      </trkpt>
      <trkpt lat="45.12458" lon="6.59823">
        <ele>2509</ele>
        <time>2021-07-15T15:24:26Z</time>
      </trkpt>
      <trkpt lat="45.12468" lon="6.59837">
        <ele>2512</ele>
        <time>2021-07-15T15:24:40Z</time>
      </trkpt>
      <trkpt lat="45.12474" lon="6.59844">
        <ele>2513</ele>
        <time>2021-07-15T15:24:46Z</time>
      </trkpt>
      <trkpt lat="45.12481" lon="6.59851">
        <ele>2512</ele>
        <time>2021-07-15T15:25:00Z</time>
      </trkpt>
      <trkpt lat="45.1249" lon="6.59853">
        <ele>2509</ele>
        <time>2021-07-15T15:25:12Z</time>
      </trkpt>
      <trkpt lat="45.12492" lon="6.5986">
        <ele>2507</ele>
        <time>2021-07-15T15:25:18Z</time>
      </trkpt>
      <trkpt lat="45.12497" lon="6.59865">
        <ele>2503</ele>
        <time>2021-07-15T15:25:30Z</time>
      </trkpt>
      <trkpt lat="45.12503" lon="6.59868">
        <ele>2500</ele>
        <time>2021-07-15T15:25:42Z</time>
      </trkpt>
      <trkpt lat="45.12508" lon="6.59871">
        <ele>2497</ele>
        <time>2021-07-15T15:25:54Z</time>
      </trkpt>
      <trkpt lat="45.12516" lon="6.59869">
        <ele>2493</ele>
        <time>2021-07-15T15:26:29Z</time>
      </trkpt>
      <trkpt lat="45.12522" lon="6.59869">
        <ele>2490</ele>
        <time>2021-07-15T15:26:47Z</time>
      </trkpt>
      <trkpt lat="45.1253" lon="6.59875">
        <ele>2488</ele>
        <time>2021-07-15T15:27:22Z</time>
      </trkpt>
      <trkpt lat="45.12538" lon="6.5988">
        <ele>2484</ele>
        <time>2021-07-15T15:27:34Z</time>
      </trkpt>
      <trkpt lat="45.12542" lon="6.59889">
        <ele>2481</ele>
        <time>2021-07-15T15:27:48Z</time>
      </trkpt>
      <trkpt lat="45.12547" lon="6.59897">
        <ele>2477</ele>
        <time>2021-07-15T15:28:02Z</time>
      </trkpt>
      <trkpt lat="45.12553" lon="6.59898">
        <ele>2475</ele>
        <time>2021-07-15T15:28:09Z</time>
      </trkpt>
      <trkpt lat="45.12561" lon="6.59896">
        <ele>2470</ele>
        <time>2021-07-15T15:28:21Z</time>
      </trkpt>
      <trkpt lat="45.12564" lon="6.59904">
        <ele>2465</ele>
        <time>2021-07-15T15:28:40Z</time>
      </trkpt>
      <trkpt lat="45.1257" lon="6.59904">
        <ele>2462</ele>
        <time>2021-07-15T15:28:52Z</time>
      </trkpt>
      <trkpt lat="45.12583" lon="6.59907">
        <ele>2453</ele>
        <time>2021-07-15T15:29:22Z</time>
      </trkpt>
      <trkpt lat="45.12582" lon="6.59919">
        <ele>2450</ele>
        <time>2021-07-15T15:30:47Z</time>
      </trkpt>
      <trkpt lat="45.12591" lon="6.59919">
        <ele>2445</ele>
        <time>2021-07-15T15:31:07Z</time>
      </trkpt>
      <trkpt lat="45.12615" lon="6.59915">
        <ele>2441</ele>
        <time>2021-07-15T15:31:28Z</time>
      </trkpt>
      <trkpt lat="45.1262" lon="6.59918">
        <ele>2440</ele>
        <time>2021-07-15T15:31:32Z</time>
      </trkpt>
      <trkpt lat="45.12635" lon="6.59917">
        <ele>2438</ele>
        <time>2021-07-15T15:31:46Z</time>
      </trkpt>
      <trkpt lat="45.12643" lon="6.59911">
        <ele>2437</ele>
        <time>2021-07-15T15:31:55Z</time>
      </trkpt>
      <trkpt lat="45.12654" lon="6.59911">
        <ele>2436</ele>
        <time>2021-07-15T15:32:07Z</time>
      </trkpt>
      <trkpt lat="45.12661" lon="6.59909">
        <ele>2434</ele>
        <time>2021-07-15T15:32:15Z</time>
      </trkpt>
      <trkpt lat="45.12667" lon="6.5991">
        <ele>2434</ele>
        <time>2021-07-15T15:32:21Z</time>
      </trkpt>
      <trkpt lat="45.12673" lon="6.59915">
        <ele>2433</ele>
        <time>2021-07-15T15:32:28Z</time>
      </trkpt>
      <trkpt lat="45.12678" lon="6.59918">
        <ele>2432</ele>
        <time>2021-07-15T15:32:32Z</time>
      </trkpt>
      <trkpt lat="45.12684" lon="6.59926">
        <ele>2433</ele>
        <time>2021-07-15T15:32:42Z</time>
      </trkpt>
      <trkpt lat="45.12685" lon="6.59935">
        <ele>2433</ele>
        <time>2021-07-15T15:32:48Z</time>
      </trkpt>
      <trkpt lat="45.12691" lon="6.59939">
        <ele>2433</ele>
        <time>2021-07-15T15:32:53Z</time>
      </trkpt>
      <trkpt lat="45.12697" lon="6.59941">
        <ele>2433</ele>
        <time>2021-07-15T15:33:02Z</time>
      </trkpt>
      <trkpt lat="45.12708" lon="6.59942">
        <ele>2432</ele>
        <time>2021-07-15T15:33:13Z</time>
      </trkpt>
      <trkpt lat="45.12714" lon="6.59942">
        <ele>2431</ele>
        <time>2021-07-15T15:33:18Z</time>
      </trkpt>
      <trkpt lat="45.12719" lon="6.5994">
        <ele>2431</ele>
        <time>2021-07-15T15:33:21Z</time>
      </trkpt>
      <trkpt lat="45.12732" lon="6.59944">
        <ele>2428</ele>
        <time>2021-07-15T15:33:35Z</time>
      </trkpt>
      <trkpt lat="45.12737" lon="6.59942">
        <ele>2427</ele>
        <time>2021-07-15T15:33:39Z</time>
      </trkpt>
      <trkpt lat="45.12743" lon="6.59939">
        <ele>2427</ele>
        <time>2021-07-15T15:33:45Z</time>
      </trkpt>
      <trkpt lat="45.12748" lon="6.59943">
        <ele>2426</ele>
        <time>2021-07-15T15:33:49Z</time>
      </trkpt>
      <trkpt lat="45.12754" lon="6.59944">
        <ele>2427</ele>
        <time>2021-07-15T15:33:55Z</time>
      </trkpt>
      <trkpt lat="45.1276" lon="6.59943">
        <ele>2427</ele>
        <time>2021-07-15T15:33:59Z</time>
      </trkpt>
      <trkpt lat="45.12773" lon="6.59945">
        <ele>2424</ele>
        <time>2021-07-15T15:34:14Z</time>
      </trkpt>
      <trkpt lat="45.12781" lon="6.59949">
        <ele>2423</ele>
        <time>2021-07-15T15:34:24Z</time>
      </trkpt>
      <trkpt lat="45.12787" lon="6.59946">
        <ele>2421</ele>
        <time>2021-07-15T15:34:36Z</time>
      </trkpt>
      <trkpt lat="45.12792" lon="6.5995">
        <ele>2420</ele>
        <time>2021-07-15T15:34:42Z</time>
      </trkpt>
      <trkpt lat="45.12797" lon="6.59948">
        <ele>2419</ele>
        <time>2021-07-15T15:34:47Z</time>
      </trkpt>
      <trkpt lat="45.12804" lon="6.59953">
        <ele>2417</ele>
        <time>2021-07-15T15:35:02Z</time>
      </trkpt>
      <trkpt lat="45.12814" lon="6.59956">
        <ele>2415</ele>
        <time>2021-07-15T15:35:15Z</time>
      </trkpt>
      <trkpt lat="45.12818" lon="6.59952">
        <ele>2413</ele>
        <time>2021-07-15T15:35:20Z</time>
      </trkpt>
      <trkpt lat="45.12825" lon="6.59955">
        <ele>2411</ele>
        <time>2021-07-15T15:35:30Z</time>
      </trkpt>
      <trkpt lat="45.12826" lon="6.59963">
        <ele>2410</ele>
        <time>2021-07-15T15:35:36Z</time>
      </trkpt>
      <trkpt lat="45.12825" lon="6.59973">
        <ele>2408</ele>
        <time>2021-07-15T15:35:42Z</time>
      </trkpt>
      <trkpt lat="45.12821" lon="6.59989">
        <ele>2405</ele>
        <time>2021-07-15T15:35:53Z</time>
      </trkpt>
      <trkpt lat="45.1281" lon="6.6">
        <ele>2403</ele>
        <time>2021-07-15T15:36:06Z</time>
      </trkpt>
      <trkpt lat="45.12809" lon="6.60009">
        <ele>2402</ele>
        <time>2021-07-15T15:36:11Z</time>
      </trkpt>
      <trkpt lat="45.12809" lon="6.60025">
        <ele>2402</ele>
        <time>2021-07-15T15:36:22Z</time>
      </trkpt>
      <trkpt lat="45.12813" lon="6.60043">
        <ele>2399</ele>
        <time>2021-07-15T15:36:36Z</time>
      </trkpt>
      <trkpt lat="45.12818" lon="6.60054">
        <ele>2397</ele>
        <time>2021-07-15T15:36:50Z</time>
      </trkpt>
      <trkpt lat="45.12825" lon="6.60062">
        <ele>2394</ele>
        <time>2021-07-15T15:37:00Z</time>
      </trkpt>
      <trkpt lat="45.12826" lon="6.60073">
        <ele>2395</ele>
        <time>2021-07-15T15:37:13Z</time>
      </trkpt>
      <trkpt lat="45.12833" lon="6.6008">
        <ele>2393</ele>
        <time>2021-07-15T15:37:24Z</time>
      </trkpt>
      <trkpt lat="45.12831" lon="6.60094">
        <ele>2393</ele>
        <time>2021-07-15T15:37:38Z</time>
      </trkpt>
      <trkpt lat="45.12828" lon="6.60101">
        <ele>2392</ele>
        <time>2021-07-15T15:37:43Z</time>
      </trkpt>
      <trkpt lat="45.1283" lon="6.60111">
        <ele>2395</ele>
        <time>2021-07-15T15:37:55Z</time>
      </trkpt>
      <trkpt lat="45.12828" lon="6.60123">
        <ele>2393</ele>
        <time>2021-07-15T15:38:47Z</time>
      </trkpt>
      <trkpt lat="45.12827" lon="6.60131">
        <ele>2393</ele>
        <time>2021-07-15T15:38:51Z</time>
      </trkpt>
      <trkpt lat="45.12822" lon="6.60139">
        <ele>2393</ele>
        <time>2021-07-15T15:39:03Z</time>
      </trkpt>
      <trkpt lat="45.12819" lon="6.60147">
        <ele>2392</ele>
        <time>2021-07-15T15:39:08Z</time>
      </trkpt>
      <trkpt lat="45.12813" lon="6.60161">
        <ele>2392</ele>
        <time>2021-07-15T15:39:21Z</time>
      </trkpt>
      <trkpt lat="45.12811" lon="6.60175">
        <ele>2392</ele>
        <time>2021-07-15T15:39:36Z</time>
      </trkpt>
      <trkpt lat="45.1281" lon="6.60184">
        <ele>2391</ele>
        <time>2021-07-15T15:39:41Z</time>
      </trkpt>
      <trkpt lat="45.12812" lon="6.60194">
        <ele>2391</ele>
        <time>2021-07-15T15:39:47Z</time>
      </trkpt>
      <trkpt lat="45.12812" lon="6.60202">
        <ele>2390</ele>
        <time>2021-07-15T15:39:51Z</time>
      </trkpt>
      <trkpt lat="45.12813" lon="6.60209">
        <ele>2389</ele>
        <time>2021-07-15T15:39:56Z</time>
      </trkpt>
      <trkpt lat="45.12813" lon="6.6022">
        <ele>2389</ele>
        <time>2021-07-15T15:40:04Z</time>
      </trkpt>
      <trkpt lat="45.12812" lon="6.60228">
        <ele>2389</ele>
        <time>2021-07-15T15:40:09Z</time>
      </trkpt>
      <trkpt lat="45.12809" lon="6.6024">
        <ele>2388</ele>
        <time>2021-07-15T15:40:19Z</time>
      </trkpt>
      <trkpt lat="45.1281" lon="6.6025">
        <ele>2387</ele>
        <time>2021-07-15T15:40:29Z</time>
      </trkpt>
      <trkpt lat="45.12812" lon="6.60259">
        <ele>2386</ele>
        <time>2021-07-15T15:40:34Z</time>
      </trkpt>
      <trkpt lat="45.12815" lon="6.60265">
        <ele>2386</ele>
        <time>2021-07-15T15:40:38Z</time>
      </trkpt>
      <trkpt lat="45.12813" lon="6.60273">
        <ele>2386</ele>
        <time>2021-07-15T15:40:44Z</time>
      </trkpt>
      <trkpt lat="45.12814" lon="6.60291">
        <ele>2386</ele>
        <time>2021-07-15T15:40:58Z</time>
      </trkpt>
      <trkpt lat="45.12816" lon="6.60297">
        <ele>2385</ele>
        <time>2021-07-15T15:41:03Z</time>
      </trkpt>
      <trkpt lat="45.12815" lon="6.60306">
        <ele>2384</ele>
        <time>2021-07-15T15:41:09Z</time>
      </trkpt>
      <trkpt lat="45.12818" lon="6.60316">
        <ele>2382</ele>
        <time>2021-07-15T15:41:17Z</time>
      </trkpt>
      <trkpt lat="45.12821" lon="6.60324">
        <ele>2382</ele>
        <time>2021-07-15T15:41:22Z</time>
      </trkpt>
      <trkpt lat="45.12827" lon="6.6034">
        <ele>2383</ele>
        <time>2021-07-15T15:41:36Z</time>
      </trkpt>
      <trkpt lat="45.1283" lon="6.60348">
        <ele>2383</ele>
        <time>2021-07-15T15:41:45Z</time>
      </trkpt>
      <trkpt lat="45.12834" lon="6.60354">
        <ele>2384</ele>
        <time>2021-07-15T15:41:50Z</time>
      </trkpt>
      <trkpt lat="45.12839" lon="6.60352">
        <ele>2384</ele>
        <time>2021-07-15T15:41:58Z</time>
      </trkpt>
      <trkpt lat="45.12856" lon="6.6035">
        <ele>2380</ele>
        <time>2021-07-15T15:42:16Z</time>
      </trkpt>
      <trkpt lat="45.12862" lon="6.60347">
        <ele>2379</ele>
        <time>2021-07-15T15:42:22Z</time>
      </trkpt>
      <trkpt lat="45.12866" lon="6.60342">
        <ele>2379</ele>
        <time>2021-07-15T15:42:27Z</time>
      </trkpt>
      <trkpt lat="45.12875" lon="6.60335">
        <ele>2376</ele>
        <time>2021-07-15T15:42:39Z</time>
      </trkpt>
      <trkpt lat="45.12879" lon="6.60343">
        <ele>2376</ele>
        <time>2021-07-15T15:42:43Z</time>
      </trkpt>
      <trkpt lat="45.12887" lon="6.60351">
        <ele>2376</ele>
        <time>2021-07-15T15:42:54Z</time>
      </trkpt>
      <trkpt lat="45.12892" lon="6.60346">
        <ele>2375</ele>
        <time>2021-07-15T15:43:00Z</time>
      </trkpt>
      <trkpt lat="45.12909" lon="6.6036">
        <ele>2375</ele>
        <time>2021-07-15T15:43:23Z</time>
      </trkpt>
      <trkpt lat="45.12917" lon="6.60379">
        <ele>2373</ele>
        <time>2021-07-15T15:43:42Z</time>
      </trkpt>
      <trkpt lat="45.1292" lon="6.60388">
        <ele>2373</ele>
        <time>2021-07-15T15:43:50Z</time>
      </trkpt>
      <trkpt lat="45.12917" lon="6.60405">
        <ele>2370</ele>
        <time>2021-07-15T15:44:06Z</time>
      </trkpt>
      <trkpt lat="45.12915" lon="6.60409">
        <ele>2369</ele>
        <time>2021-07-15T15:44:10Z</time>
      </trkpt>
      <trkpt lat="45.12913" lon="6.60425">
        <ele>2367</ele>
        <time>2021-07-15T15:44:23Z</time>
      </trkpt>
      <trkpt lat="45.12916" lon="6.6045">
        <ele>2366</ele>
        <time>2021-07-15T15:44:39Z</time>
      </trkpt>
      <trkpt lat="45.12917" lon="6.60458">
        <ele>2365</ele>
        <time>2021-07-15T15:44:45Z</time>
      </trkpt>
      <trkpt lat="45.12917" lon="6.60466">
        <ele>2366</ele>
        <time>2021-07-15T15:44:50Z</time>
      </trkpt>
      <trkpt lat="45.12918" lon="6.60484">
        <ele>2363</ele>
        <time>2021-07-15T15:45:05Z</time>
      </trkpt>
      <trkpt lat="45.12919" lon="6.60493">
        <ele>2364</ele>
        <time>2021-07-15T15:45:14Z</time>
      </trkpt>
      <trkpt lat="45.12917" lon="6.6051">
        <ele>2363</ele>
        <time>2021-07-15T15:45:26Z</time>
      </trkpt>
      <trkpt lat="45.12919" lon="6.60519">
        <ele>2362</ele>
        <time>2021-07-15T15:45:34Z</time>
      </trkpt>
      <trkpt lat="45.12916" lon="6.60533">
        <ele>2361</ele>
        <time>2021-07-15T15:45:44Z</time>
      </trkpt>
      <trkpt lat="45.12916" lon="6.60541">
        <ele>2362</ele>
        <time>2021-07-15T15:45:50Z</time>
      </trkpt>
      <trkpt lat="45.12915" lon="6.6055">
        <ele>2362</ele>
        <time>2021-07-15T15:45:56Z</time>
      </trkpt>
      <trkpt lat="45.12915" lon="6.60558">
        <ele>2361</ele>
        <time>2021-07-15T15:46:04Z</time>
      </trkpt>
      <trkpt lat="45.12915" lon="6.60567">
        <ele>2362</ele>
        <time>2021-07-15T15:46:10Z</time>
      </trkpt>
      <trkpt lat="45.12915" lon="6.60584">
        <ele>2362</ele>
        <time>2021-07-15T15:46:33Z</time>
      </trkpt>
      <trkpt lat="45.12913" lon="6.60591">
        <ele>2362</ele>
        <time>2021-07-15T15:46:40Z</time>
      </trkpt>
      <trkpt lat="45.12914" lon="6.606">
        <ele>2363</ele>
        <time>2021-07-15T15:46:50Z</time>
      </trkpt>
      <trkpt lat="45.12923" lon="6.60616">
        <ele>2366</ele>
        <time>2021-07-15T15:47:10Z</time>
      </trkpt>
      <trkpt lat="45.12926" lon="6.60622">
        <ele>2368</ele>
        <time>2021-07-15T15:47:25Z</time>
      </trkpt>
      <trkpt lat="45.12932" lon="6.60626">
        <ele>2369</ele>
        <time>2021-07-15T15:47:31Z</time>
      </trkpt>
      <trkpt lat="45.12937" lon="6.60627">
        <ele>2369</ele>
        <time>2021-07-15T15:47:36Z</time>
      </trkpt>
      <trkpt lat="45.12943" lon="6.60634">
        <ele>2370</ele>
        <time>2021-07-15T15:47:45Z</time>
      </trkpt>
      <trkpt lat="45.12946" lon="6.60644">
        <ele>2370</ele>
        <time>2021-07-15T15:47:53Z</time>
      </trkpt>
      <trkpt lat="45.1295" lon="6.60651">
        <ele>2369</ele>
        <time>2021-07-15T15:48:02Z</time>
      </trkpt>
      <trkpt lat="45.12948" lon="6.6066">
        <ele>2367</ele>
        <time>2021-07-15T15:48:14Z</time>
      </trkpt>
      <trkpt lat="45.12949" lon="6.60668">
        <ele>2367</ele>
        <time>2021-07-15T15:48:19Z</time>
      </trkpt>
      <trkpt lat="45.1295" lon="6.60676">
        <ele>2365</ele>
        <time>2021-07-15T15:48:25Z</time>
      </trkpt>
      <trkpt lat="45.12948" lon="6.6069">
        <ele>2365</ele>
        <time>2021-07-15T15:48:36Z</time>
      </trkpt>
      <trkpt lat="45.12946" lon="6.60697">
        <ele>2365</ele>
        <time>2021-07-15T15:48:41Z</time>
      </trkpt>
      <trkpt lat="45.12943" lon="6.60703">
        <ele>2365</ele>
        <time>2021-07-15T15:48:45Z</time>
      </trkpt>
      <trkpt lat="45.12938" lon="6.60712">
        <ele>2367</ele>
        <time>2021-07-15T15:48:55Z</time>
      </trkpt>
      <trkpt lat="45.12933" lon="6.60718">
        <ele>2366</ele>
        <time>2021-07-15T15:49:01Z</time>
      </trkpt>
      <trkpt lat="45.12931" lon="6.60735">
        <ele>2367</ele>
        <time>2021-07-15T15:49:17Z</time>
      </trkpt>
      <trkpt lat="45.12932" lon="6.60745">
        <ele>2368</ele>
        <time>2021-07-15T15:49:24Z</time>
      </trkpt>
      <trkpt lat="45.12933" lon="6.60754">
        <ele>2366</ele>
        <time>2021-07-15T15:49:30Z</time>
      </trkpt>
      <trkpt lat="45.12935" lon="6.60761">
        <ele>2366</ele>
        <time>2021-07-15T15:49:38Z</time>
      </trkpt>
      <trkpt lat="45.12939" lon="6.60767">
        <ele>2366</ele>
        <time>2021-07-15T15:49:44Z</time>
      </trkpt>
      <trkpt lat="45.12941" lon="6.60773">
        <ele>2365</ele>
        <time>2021-07-15T15:49:48Z</time>
      </trkpt>
      <trkpt lat="45.12947" lon="6.60778">
        <ele>2363</ele>
        <time>2021-07-15T15:50:13Z</time>
      </trkpt>
      <trkpt lat="45.1295" lon="6.60782">
        <ele>2363</ele>
        <time>2021-07-15T15:50:16Z</time>
      </trkpt>
      <trkpt lat="45.12954" lon="6.60789">
        <ele>2362</ele>
        <time>2021-07-15T15:50:25Z</time>
      </trkpt>
      <trkpt lat="45.12955" lon="6.60795">
        <ele>2362</ele>
        <time>2021-07-15T15:50:29Z</time>
      </trkpt>
      <trkpt lat="45.12954" lon="6.60801">
        <ele>2362</ele>
        <time>2021-07-15T15:50:33Z</time>
      </trkpt>
      <trkpt lat="45.12949" lon="6.60805">
        <ele>2362</ele>
        <time>2021-07-15T15:50:44Z</time>
      </trkpt>
      <trkpt lat="45.12938" lon="6.60814">
        <ele>2360</ele>
        <time>2021-07-15T15:50:57Z</time>
      </trkpt>
      <trkpt lat="45.12937" lon="6.6082">
        <ele>2359</ele>
        <time>2021-07-15T15:51:00Z</time>
      </trkpt>
      <trkpt lat="45.1293" lon="6.60828">
        <ele>2358</ele>
        <time>2021-07-15T15:51:08Z</time>
      </trkpt>
      <trkpt lat="45.12926" lon="6.6083">
        <ele>2358</ele>
        <time>2021-07-15T15:51:12Z</time>
      </trkpt>
      <trkpt lat="45.12923" lon="6.60834">
        <ele>2358</ele>
        <time>2021-07-15T15:51:15Z</time>
      </trkpt>
      <trkpt lat="45.12919" lon="6.60844">
        <ele>2357</ele>
        <time>2021-07-15T15:51:22Z</time>
      </trkpt>
      <trkpt lat="45.12916" lon="6.60853">
        <ele>2356</ele>
        <time>2021-07-15T15:51:32Z</time>
      </trkpt>
      <trkpt lat="45.12914" lon="6.60858">
        <ele>2355</ele>
        <time>2021-07-15T15:51:37Z</time>
      </trkpt>
      <trkpt lat="45.12913" lon="6.60868">
        <ele>2354</ele>
        <time>2021-07-15T15:51:42Z</time>
      </trkpt>
      <trkpt lat="45.12913" lon="6.60875">
        <ele>2353</ele>
        <time>2021-07-15T15:51:48Z</time>
      </trkpt>
      <trkpt lat="45.12912" lon="6.6088">
        <ele>2353</ele>
        <time>2021-07-15T15:51:51Z</time>
      </trkpt>
      <trkpt lat="45.12912" lon="6.60904">
        <ele>2351</ele>
        <time>2021-07-15T15:52:09Z</time>
      </trkpt>
      <trkpt lat="45.12906" lon="6.60919">
        <ele>2349</ele>
        <time>2021-07-15T15:52:21Z</time>
      </trkpt>
      <trkpt lat="45.12897" lon="6.60934">
        <ele>2347</ele>
        <time>2021-07-15T15:52:35Z</time>
      </trkpt>
      <trkpt lat="45.12894" lon="6.60937">
        <ele>2347</ele>
        <time>2021-07-15T15:52:38Z</time>
      </trkpt>
      <trkpt lat="45.12889" lon="6.60937">
        <ele>2345</ele>
        <time>2021-07-15T15:52:43Z</time>
      </trkpt>
      <trkpt lat="45.12882" lon="6.60935">
        <ele>2344</ele>
        <time>2021-07-15T15:52:50Z</time>
      </trkpt>
      <trkpt lat="45.12878" lon="6.60934">
        <ele>2343</ele>
        <time>2021-07-15T15:52:54Z</time>
      </trkpt>
      <trkpt lat="45.12873" lon="6.60941">
        <ele>2342</ele>
        <time>2021-07-15T15:53:04Z</time>
      </trkpt>
      <trkpt lat="45.12872" lon="6.60946">
        <ele>2341</ele>
        <time>2021-07-15T15:53:09Z</time>
      </trkpt>
      <trkpt lat="45.12869" lon="6.6095">
        <ele>2341</ele>
        <time>2021-07-15T15:53:13Z</time>
      </trkpt>
      <trkpt lat="45.12868" lon="6.60955">
        <ele>2340</ele>
        <time>2021-07-15T15:53:16Z</time>
      </trkpt>
      <trkpt lat="45.12866" lon="6.60961">
        <ele>2340</ele>
        <time>2021-07-15T15:53:19Z</time>
      </trkpt>
      <trkpt lat="45.12864" lon="6.60969">
        <ele>2340</ele>
        <time>2021-07-15T15:53:23Z</time>
      </trkpt>
      <trkpt lat="45.12858" lon="6.60973">
        <ele>2339</ele>
        <time>2021-07-15T15:53:53Z</time>
      </trkpt>
      <trkpt lat="45.12851" lon="6.60982">
        <ele>2338</ele>
        <time>2021-07-15T15:54:04Z</time>
      </trkpt>
      <trkpt lat="45.1285" lon="6.6099">
        <ele>2336</ele>
        <time>2021-07-15T15:54:08Z</time>
      </trkpt>
      <trkpt lat="45.12855" lon="6.60996">
        <ele>2336</ele>
        <time>2021-07-15T15:54:14Z</time>
      </trkpt>
      <trkpt lat="45.12861" lon="6.60998">
        <ele>2335</ele>
        <time>2021-07-15T15:54:19Z</time>
      </trkpt>
      <trkpt lat="45.12868" lon="6.60997">
        <ele>2333</ele>
        <time>2021-07-15T15:54:23Z</time>
      </trkpt>
      <trkpt lat="45.12872" lon="6.60991">
        <ele>2334</ele>
        <time>2021-07-15T15:54:28Z</time>
      </trkpt>
      <trkpt lat="45.12879" lon="6.60979">
        <ele>2332</ele>
        <time>2021-07-15T15:54:39Z</time>
      </trkpt>
      <trkpt lat="45.12886" lon="6.60979">
        <ele>2332</ele>
        <time>2021-07-15T15:54:45Z</time>
      </trkpt>
      <trkpt lat="45.12902" lon="6.60981">
        <ele>2329</ele>
        <time>2021-07-15T15:55:01Z</time>
      </trkpt>
      <trkpt lat="45.12908" lon="6.6098">
        <ele>2329</ele>
        <time>2021-07-15T15:55:06Z</time>
      </trkpt>
      <trkpt lat="45.12925" lon="6.60978">
        <ele>2326</ele>
        <time>2021-07-15T15:55:27Z</time>
      </trkpt>
      <trkpt lat="45.12931" lon="6.60978">
        <ele>2325</ele>
        <time>2021-07-15T15:55:31Z</time>
      </trkpt>
      <trkpt lat="45.12936" lon="6.60977">
        <ele>2326</ele>
        <time>2021-07-15T15:55:35Z</time>
      </trkpt>
      <trkpt lat="45.12942" lon="6.60975">
        <ele>2325</ele>
        <time>2021-07-15T15:55:40Z</time>
      </trkpt>
      <trkpt lat="45.1295" lon="6.60973">
        <ele>2323</ele>
        <time>2021-07-15T15:55:49Z</time>
      </trkpt>
      <trkpt lat="45.12955" lon="6.60977">
        <ele>2323</ele>
        <time>2021-07-15T15:55:53Z</time>
      </trkpt>
      <trkpt lat="45.12958" lon="6.60982">
        <ele>2323</ele>
        <time>2021-07-15T15:55:59Z</time>
      </trkpt>
      <trkpt lat="45.12979" lon="6.61011">
        <ele>2317</ele>
        <time>2021-07-15T15:56:33Z</time>
      </trkpt>
      <trkpt lat="45.1298" lon="6.61017">
        <ele>2316</ele>
        <time>2021-07-15T15:56:39Z</time>
      </trkpt>
      <trkpt lat="45.12985" lon="6.6103">
        <ele>2315</ele>
        <time>2021-07-15T15:56:49Z</time>
      </trkpt>
      <trkpt lat="45.12995" lon="6.61051">
        <ele>2313</ele>
        <time>2021-07-15T15:57:10Z</time>
      </trkpt>
      <trkpt lat="45.12999" lon="6.61055">
        <ele>2311</ele>
        <time>2021-07-15T15:57:14Z</time>
      </trkpt>
      <trkpt lat="45.13021" lon="6.6108">
        <ele>2307</ele>
        <time>2021-07-15T15:57:41Z</time>
      </trkpt>
      <trkpt lat="45.13026" lon="6.61084">
        <ele>2306</ele>
        <time>2021-07-15T15:57:45Z</time>
      </trkpt>
      <trkpt lat="45.13032" lon="6.61087">
        <ele>2306</ele>
        <time>2021-07-15T15:57:50Z</time>
      </trkpt>
      <trkpt lat="45.13042" lon="6.61097">
        <ele>2304</ele>
        <time>2021-07-15T15:58:01Z</time>
      </trkpt>
      <trkpt lat="45.13049" lon="6.61096">
        <ele>2303</ele>
        <time>2021-07-15T15:58:11Z</time>
      </trkpt>
      <trkpt lat="45.13054" lon="6.61092">
        <ele>2302</ele>
        <time>2021-07-15T15:58:17Z</time>
      </trkpt>
      <trkpt lat="45.13063" lon="6.61089">
        <ele>2301</ele>
        <time>2021-07-15T15:58:25Z</time>
      </trkpt>
      <trkpt lat="45.13068" lon="6.61086">
        <ele>2301</ele>
        <time>2021-07-15T15:58:29Z</time>
      </trkpt>
      <trkpt lat="45.13073" lon="6.61082">
        <ele>2300</ele>
        <time>2021-07-15T15:58:35Z</time>
      </trkpt>
      <trkpt lat="45.13079" lon="6.61078">
        <ele>2299</ele>
        <time>2021-07-15T15:58:41Z</time>
      </trkpt>
      <trkpt lat="45.13093" lon="6.61076">
        <ele>2298</ele>
        <time>2021-07-15T15:58:55Z</time>
      </trkpt>
      <trkpt lat="45.13101" lon="6.61073">
        <ele>2297</ele>
        <time>2021-07-15T15:59:03Z</time>
      </trkpt>
      <trkpt lat="45.13116" lon="6.6107">
        <ele>2294</ele>
        <time>2021-07-15T15:59:22Z</time>
      </trkpt>
      <trkpt lat="45.13126" lon="6.61068">
        <ele>2292</ele>
        <time>2021-07-15T15:59:33Z</time>
      </trkpt>
      <trkpt lat="45.13133" lon="6.61065">
        <ele>2291</ele>
        <time>2021-07-15T15:59:40Z</time>
      </trkpt>
      <trkpt lat="45.13139" lon="6.61068">
        <ele>2290</ele>
        <time>2021-07-15T15:59:48Z</time>
      </trkpt>
      <trkpt lat="45.13145" lon="6.61068">
        <ele>2290</ele>
        <time>2021-07-15T15:59:54Z</time>
      </trkpt>
      <trkpt lat="45.13152" lon="6.61065">
        <ele>2289</ele>
        <time>2021-07-15T16:00:00Z</time>
      </trkpt>
      <trkpt lat="45.13158" lon="6.61066">
        <ele>2288</ele>
        <time>2021-07-15T16:00:05Z</time>
      </trkpt>
      <trkpt lat="45.13164" lon="6.61067">
        <ele>2287</ele>
        <time>2021-07-15T16:00:10Z</time>
      </trkpt>
      <trkpt lat="45.13169" lon="6.61067">
        <ele>2287</ele>
        <time>2021-07-15T16:00:13Z</time>
      </trkpt>
      <trkpt lat="45.13181" lon="6.61068">
        <ele>2285</ele>
        <time>2021-07-15T16:00:23Z</time>
      </trkpt>
      <trkpt lat="45.13187" lon="6.61067">
        <ele>2285</ele>
        <time>2021-07-15T16:00:27Z</time>
      </trkpt>
      <trkpt lat="45.13195" lon="6.61069">
        <ele>2284</ele>
        <time>2021-07-15T16:00:36Z</time>
      </trkpt>
      <trkpt lat="45.13202" lon="6.61068">
        <ele>2284</ele>
        <time>2021-07-15T16:00:40Z</time>
      </trkpt>
      <trkpt lat="45.1321" lon="6.6107">
        <ele>2283</ele>
        <time>2021-07-15T16:00:49Z</time>
      </trkpt>
      <trkpt lat="45.13215" lon="6.61074">
        <ele>2282</ele>
        <time>2021-07-15T16:00:54Z</time>
      </trkpt>
      <trkpt lat="45.13223" lon="6.61076">
        <ele>2281</ele>
        <time>2021-07-15T16:01:02Z</time>
      </trkpt>
      <trkpt lat="45.13244" lon="6.61101">
        <ele>2277</ele>
        <time>2021-07-15T16:01:31Z</time>
      </trkpt>
      <trkpt lat="45.1325" lon="6.61105">
        <ele>2276</ele>
        <time>2021-07-15T16:01:36Z</time>
      </trkpt>
      <trkpt lat="45.13256" lon="6.6111">
        <ele>2275</ele>
        <time>2021-07-15T16:01:40Z</time>
      </trkpt>
      <trkpt lat="45.13257" lon="6.61115">
        <ele>2275</ele>
        <time>2021-07-15T16:01:44Z</time>
      </trkpt>
      <trkpt lat="45.13257" lon="6.61143">
        <ele>2271</ele>
        <time>2021-07-15T16:02:22Z</time>
      </trkpt>
      <trkpt lat="45.13258" lon="6.61149">
        <ele>2271</ele>
        <time>2021-07-15T16:02:28Z</time>
      </trkpt>
      <trkpt lat="45.13257" lon="6.61156">
        <ele>2270</ele>
        <time>2021-07-15T16:02:31Z</time>
      </trkpt>
      <trkpt lat="45.13254" lon="6.61165">
        <ele>2269</ele>
        <time>2021-07-15T16:02:39Z</time>
      </trkpt>
      <trkpt lat="45.13254" lon="6.61176">
        <ele>2268</ele>
        <time>2021-07-15T16:02:47Z</time>
      </trkpt>
      <trkpt lat="45.13251" lon="6.61183">
        <ele>2268</ele>
        <time>2021-07-15T16:02:53Z</time>
      </trkpt>
      <trkpt lat="45.13251" lon="6.61189">
        <ele>2267</ele>
        <time>2021-07-15T16:02:57Z</time>
      </trkpt>
      <trkpt lat="45.1325" lon="6.61194">
        <ele>2266</ele>
        <time>2021-07-15T16:03:00Z</time>
      </trkpt>
      <trkpt lat="45.1325" lon="6.612">
        <ele>2266</ele>
        <time>2021-07-15T16:03:04Z</time>
      </trkpt>
      <trkpt lat="45.13253" lon="6.61206">
        <ele>2265</ele>
        <time>2021-07-15T16:03:09Z</time>
      </trkpt>
      <trkpt lat="45.13251" lon="6.61216">
        <ele>2264</ele>
        <time>2021-07-15T16:03:14Z</time>
      </trkpt>
      <trkpt lat="45.13258" lon="6.61245">
        <ele>2260</ele>
        <time>2021-07-15T16:03:36Z</time>
      </trkpt>
      <trkpt lat="45.13261" lon="6.61252">
        <ele>2259</ele>
        <time>2021-07-15T16:03:41Z</time>
      </trkpt>
      <trkpt lat="45.13266" lon="6.61256">
        <ele>2259</ele>
        <time>2021-07-15T16:03:47Z</time>
      </trkpt>
      <trkpt lat="45.13273" lon="6.6127">
        <ele>2258</ele>
        <time>2021-07-15T16:03:57Z</time>
      </trkpt>
      <trkpt lat="45.13276" lon="6.61273">
        <ele>2257</ele>
        <time>2021-07-15T16:04:00Z</time>
      </trkpt>
      <trkpt lat="45.13294" lon="6.61294">
        <ele>2254</ele>
        <time>2021-07-15T16:04:21Z</time>
      </trkpt>
      <trkpt lat="45.13299" lon="6.61297">
        <ele>2254</ele>
        <time>2021-07-15T16:04:25Z</time>
      </trkpt>
      <trkpt lat="45.13317" lon="6.61313">
        <ele>2251</ele>
        <time>2021-07-15T16:04:48Z</time>
      </trkpt>
      <trkpt lat="45.1333" lon="6.61332">
        <ele>2247</ele>
        <time>2021-07-15T16:05:15Z</time>
      </trkpt>
      <trkpt lat="45.13333" lon="6.61338">
        <ele>2247</ele>
        <time>2021-07-15T16:05:20Z</time>
      </trkpt>
      <trkpt lat="45.13342" lon="6.61358">
        <ele>2243</ele>
        <time>2021-07-15T16:05:38Z</time>
      </trkpt>
      <trkpt lat="45.13345" lon="6.61365">
        <ele>2242</ele>
        <time>2021-07-15T16:05:43Z</time>
      </trkpt>
      <trkpt lat="45.13348" lon="6.61373">
        <ele>2241</ele>
        <time>2021-07-15T16:05:49Z</time>
      </trkpt>
      <trkpt lat="45.13359" lon="6.61381">
        <ele>2240</ele>
        <time>2021-07-15T16:05:58Z</time>
      </trkpt>
      <trkpt lat="45.13379" lon="6.6139">
        <ele>2236</ele>
        <time>2021-07-15T16:06:20Z</time>
      </trkpt>
      <trkpt lat="45.13397" lon="6.61407">
        <ele>2232</ele>
        <time>2021-07-15T16:06:40Z</time>
      </trkpt>
      <trkpt lat="45.13407" lon="6.61411">
        <ele>2231</ele>
        <time>2021-07-15T16:06:50Z</time>
      </trkpt>
      <trkpt lat="45.13414" lon="6.61417">
        <ele>2229</ele>
        <time>2021-07-15T16:06:57Z</time>
      </trkpt>
      <trkpt lat="45.13415" lon="6.61424">
        <ele>2228</ele>
        <time>2021-07-15T16:07:02Z</time>
      </trkpt>
      <trkpt lat="45.13426" lon="6.61446">
        <ele>2224</ele>
        <time>2021-07-15T16:07:21Z</time>
      </trkpt>
      <trkpt lat="45.13432" lon="6.61447">
        <ele>2223</ele>
        <time>2021-07-15T16:07:27Z</time>
      </trkpt>
      <trkpt lat="45.1344" lon="6.61461">
        <ele>2221</ele>
        <time>2021-07-15T16:07:37Z</time>
      </trkpt>
      <trkpt lat="45.13445" lon="6.61478">
        <ele>2220</ele>
        <time>2021-07-15T16:07:46Z</time>
      </trkpt>
      <trkpt lat="45.13475" lon="6.61503">
        <ele>2220</ele>
        <time>2021-07-15T16:08:19Z</time>
      </trkpt>
      <trkpt lat="45.13494" lon="6.61518">
        <ele>2216</ele>
        <time>2021-07-15T16:08:42Z</time>
      </trkpt>
      <trkpt lat="45.13523" lon="6.61542">
        <ele>2211</ele>
        <time>2021-07-15T16:09:11Z</time>
      </trkpt>
      <trkpt lat="45.13534" lon="6.61546">
        <ele>2210</ele>
        <time>2021-07-15T16:09:21Z</time>
      </trkpt>
      <trkpt lat="45.13549" lon="6.61543">
        <ele>2209</ele>
        <time>2021-07-15T16:09:34Z</time>
      </trkpt>
      <trkpt lat="45.13555" lon="6.6154">
        <ele>2208</ele>
        <time>2021-07-15T16:09:39Z</time>
      </trkpt>
      <trkpt lat="45.13561" lon="6.61542">
        <ele>2207</ele>
        <time>2021-07-15T16:09:44Z</time>
      </trkpt>
      <trkpt lat="45.13569" lon="6.61547">
        <ele>2207</ele>
        <time>2021-07-15T16:09:52Z</time>
      </trkpt>
      <trkpt lat="45.13582" lon="6.61548">
        <ele>2205</ele>
        <time>2021-07-15T16:10:06Z</time>
      </trkpt>
      <trkpt lat="45.13606" lon="6.61539">
        <ele>2203</ele>
        <time>2021-07-15T16:10:29Z</time>
      </trkpt>
      <trkpt lat="45.13623" lon="6.61541">
        <ele>2202</ele>
        <time>2021-07-15T16:10:44Z</time>
      </trkpt>
      <trkpt lat="45.13629" lon="6.61545">
        <ele>2201</ele>
        <time>2021-07-15T16:10:52Z</time>
      </trkpt>
      <trkpt lat="45.13636" lon="6.61559">
        <ele>2200</ele>
        <time>2021-07-15T16:11:03Z</time>
      </trkpt>
      <trkpt lat="45.1364" lon="6.61565">
        <ele>2200</ele>
        <time>2021-07-15T16:11:08Z</time>
      </trkpt>
      <trkpt lat="45.1365" lon="6.61574">
        <ele>2199</ele>
        <time>2021-07-15T16:11:18Z</time>
      </trkpt>
      <trkpt lat="45.13666" lon="6.61599">
        <ele>2197</ele>
        <time>2021-07-15T16:11:38Z</time>
      </trkpt>
      <trkpt lat="45.13678" lon="6.61602">
        <ele>2195</ele>
        <time>2021-07-15T16:11:48Z</time>
      </trkpt>
      <trkpt lat="45.13681" lon="6.61597">
        <ele>2193</ele>
        <time>2021-07-15T16:12:44Z</time>
      </trkpt>
      <trkpt lat="45.13684" lon="6.61607">
        <ele>2193</ele>
        <time>2021-07-15T16:13:01Z</time>
      </trkpt>
    </trkseg>
  </trk>
  <trk>
    <name><![CDATA[14 juil. 2021 à 19:40:59]]></name>
    <cmt><![CDATA[14 juil. 2021 à 19:40:59]]></cmt>
    <trkseg>
      <trkpt lat="45.13882" lon="6.6208">
        <ele>2169</ele>
        <time>2021-07-14T17:40:59Z</time>
      </trkpt>
      <trkpt lat="45.13883" lon="6.62078">
        <ele>2187</ele>
        <time>2021-07-14T17:41:00Z</time>
      </trkpt>
      <trkpt lat="45.13884" lon="6.62074">
        <ele>2207</ele>
        <time>2021-07-14T17:41:07Z</time>
      </trkpt>
      <trkpt lat="45.13883" lon="6.62074">
        <ele>2207</ele>
        <time>2021-07-14T17:41:08Z</time>
      </trkpt>
      <trkpt lat="45.13875" lon="6.62073">
        <ele>2209</ele>
        <time>2021-07-14T17:41:21Z</time>
      </trkpt>
      <trkpt lat="45.1387" lon="6.62073">
        <ele>2210</ele>
        <time>2021-07-14T17:41:25Z</time>
      </trkpt>
      <trkpt lat="45.13865" lon="6.62071">
        <ele>2211</ele>
        <time>2021-07-14T17:41:33Z</time>
      </trkpt>
      <trkpt lat="45.13863" lon="6.62067">
        <ele>2211</ele>
        <time>2021-07-14T17:41:38Z</time>
      </trkpt>
      <trkpt lat="45.13857" lon="6.62055">
        <ele>2209</ele>
        <time>2021-07-14T17:41:50Z</time>
      </trkpt>
      <trkpt lat="45.13841" lon="6.62036">
        <ele>2213</ele>
        <time>2021-07-14T17:42:18Z</time>
      </trkpt>
      <trkpt lat="45.1384" lon="6.6203">
        <ele>2214</ele>
        <time>2021-07-14T17:42:24Z</time>
      </trkpt>
      <trkpt lat="45.13831" lon="6.62009">
        <ele>2217</ele>
        <time>2021-07-14T17:42:47Z</time>
      </trkpt>
      <trkpt lat="45.13826" lon="6.62002">
        <ele>2219</ele>
        <time>2021-07-14T17:42:59Z</time>
      </trkpt>
      <trkpt lat="45.13825" lon="6.61996">
        <ele>2219</ele>
        <time>2021-07-14T17:43:03Z</time>
      </trkpt>
      <trkpt lat="45.13819" lon="6.61985">
        <ele>2220</ele>
        <time>2021-07-14T17:43:14Z</time>
      </trkpt>
      <trkpt lat="45.13815" lon="6.61982">
        <ele>2220</ele>
        <time>2021-07-14T17:43:21Z</time>
      </trkpt>
      <trkpt lat="45.13812" lon="6.61978">
        <ele>2223</ele>
        <time>2021-07-14T17:43:27Z</time>
      </trkpt>
      <trkpt lat="45.13808" lon="6.61974">
        <ele>2222</ele>
        <time>2021-07-14T17:43:31Z</time>
      </trkpt>
      <trkpt lat="45.13804" lon="6.61972">
        <ele>2223</ele>
        <time>2021-07-14T17:43:39Z</time>
      </trkpt>
      <trkpt lat="45.13799" lon="6.61966">
        <ele>2223</ele>
        <time>2021-07-14T17:43:51Z</time>
      </trkpt>
      <trkpt lat="45.13788" lon="6.61965">
        <ele>2226</ele>
        <time>2021-07-14T17:44:07Z</time>
      </trkpt>
      <trkpt lat="45.13784" lon="6.61963">
        <ele>2225</ele>
        <time>2021-07-14T17:44:15Z</time>
      </trkpt>
      <trkpt lat="45.1378" lon="6.61961">
        <ele>2226</ele>
        <time>2021-07-14T17:44:20Z</time>
      </trkpt>
      <trkpt lat="45.13775" lon="6.61963">
        <ele>2226</ele>
        <time>2021-07-14T17:44:27Z</time>
      </trkpt>
      <trkpt lat="45.1377" lon="6.61974">
        <ele>2228</ele>
        <time>2021-07-14T17:45:03Z</time>
      </trkpt>
      <trkpt lat="45.1377" lon="6.61993">
        <ele>2230</ele>
        <time>2021-07-14T17:45:21Z</time>
      </trkpt>
      <trkpt lat="45.13766" lon="6.61994">
        <ele>2231</ele>
        <time>2021-07-14T17:45:25Z</time>
      </trkpt>
      <trkpt lat="45.13762" lon="6.61997">
        <ele>2231</ele>
        <time>2021-07-14T17:45:29Z</time>
      </trkpt>
      <trkpt lat="45.13759" lon="6.61998">
        <ele>2232</ele>
        <time>2021-07-14T17:45:33Z</time>
      </trkpt>
      <trkpt lat="45.13752" lon="6.61997">
        <ele>2233</ele>
        <time>2021-07-14T17:45:46Z</time>
      </trkpt>
      <trkpt lat="45.13744" lon="6.61995">
        <ele>2234</ele>
        <time>2021-07-14T17:45:58Z</time>
      </trkpt>
      <trkpt lat="45.13741" lon="6.61991">
        <ele>2238</ele>
        <time>2021-07-14T17:46:02Z</time>
      </trkpt>
      <trkpt lat="45.1373" lon="6.61991">
        <ele>2237</ele>
        <time>2021-07-14T17:46:15Z</time>
      </trkpt>
      <trkpt lat="45.13723" lon="6.61993">
        <ele>2242</ele>
        <time>2021-07-14T17:46:28Z</time>
      </trkpt>
      <trkpt lat="45.13717" lon="6.61994">
        <ele>2239</ele>
        <time>2021-07-14T17:46:40Z</time>
      </trkpt>
      <trkpt lat="45.13701" lon="6.61998">
        <ele>2245</ele>
        <time>2021-07-14T17:47:04Z</time>
      </trkpt>
      <trkpt lat="45.13692" lon="6.61999">
        <ele>2248</ele>
        <time>2021-07-14T17:47:18Z</time>
      </trkpt>
      <trkpt lat="45.13686" lon="6.61999">
        <ele>2246</ele>
        <time>2021-07-14T17:47:30Z</time>
      </trkpt>
      <trkpt lat="45.13682" lon="6.62001">
        <ele>2249</ele>
        <time>2021-07-14T17:47:35Z</time>
      </trkpt>
      <trkpt lat="45.13678" lon="6.62">
        <ele>2248</ele>
        <time>2021-07-14T17:47:40Z</time>
      </trkpt>
      <trkpt lat="45.13674" lon="6.61998">
        <ele>2250</ele>
        <time>2021-07-14T17:47:50Z</time>
      </trkpt>
      <trkpt lat="45.13667" lon="6.61993">
        <ele>2252</ele>
        <time>2021-07-14T17:48:02Z</time>
      </trkpt>
      <trkpt lat="45.1366" lon="6.61995">
        <ele>2256</ele>
        <time>2021-07-14T17:48:13Z</time>
      </trkpt>
      <trkpt lat="45.13652" lon="6.61998">
        <ele>2257</ele>
        <time>2021-07-14T17:48:23Z</time>
      </trkpt>
      <trkpt lat="45.13648" lon="6.62001">
        <ele>2257</ele>
        <time>2021-07-14T17:48:35Z</time>
      </trkpt>
      <trkpt lat="45.13642" lon="6.62004">
        <ele>2254</ele>
        <time>2021-07-14T17:48:45Z</time>
      </trkpt>
      <trkpt lat="45.13637" lon="6.62005">
        <ele>2256</ele>
        <time>2021-07-14T17:48:56Z</time>
      </trkpt>
      <trkpt lat="45.13633" lon="6.62015">
        <ele>2259</ele>
        <time>2021-07-14T17:49:08Z</time>
      </trkpt>
      <trkpt lat="45.13613" lon="6.62016">
        <ele>2265</ele>
        <time>2021-07-14T17:49:44Z</time>
      </trkpt>
      <trkpt lat="45.13604" lon="6.62026">
        <ele>2267</ele>
        <time>2021-07-14T17:49:59Z</time>
      </trkpt>
      <trkpt lat="45.13598" lon="6.62029">
        <ele>2268</ele>
        <time>2021-07-14T17:50:06Z</time>
      </trkpt>
      <trkpt lat="45.13595" lon="6.62032">
        <ele>2268</ele>
        <time>2021-07-14T17:50:11Z</time>
      </trkpt>
      <trkpt lat="45.13592" lon="6.62033">
        <ele>2269</ele>
        <time>2021-07-14T17:50:16Z</time>
      </trkpt>
      <trkpt lat="45.13587" lon="6.62033">
        <ele>2269</ele>
        <time>2021-07-14T17:50:21Z</time>
      </trkpt>
      <trkpt lat="45.13581" lon="6.62033">
        <ele>2270</ele>
        <time>2021-07-14T17:50:29Z</time>
      </trkpt>
      <trkpt lat="45.13576" lon="6.62033">
        <ele>2271</ele>
        <time>2021-07-14T17:50:35Z</time>
      </trkpt>
      <trkpt lat="45.13565" lon="6.62024">
        <ele>2272</ele>
        <time>2021-07-14T17:50:49Z</time>
      </trkpt>
      <trkpt lat="45.13559" lon="6.62021">
        <ele>2272</ele>
        <time>2021-07-14T17:50:55Z</time>
      </trkpt>
      <trkpt lat="45.13547" lon="6.62017">
        <ele>2273</ele>
        <time>2021-07-14T17:51:14Z</time>
      </trkpt>
      <trkpt lat="45.13544" lon="6.62013">
        <ele>2273</ele>
        <time>2021-07-14T17:51:18Z</time>
      </trkpt>
      <trkpt lat="45.1354" lon="6.62011">
        <ele>2273</ele>
        <time>2021-07-14T17:51:22Z</time>
      </trkpt>
      <trkpt lat="45.13535" lon="6.62009">
        <ele>2273</ele>
        <time>2021-07-14T17:51:29Z</time>
      </trkpt>
      <trkpt lat="45.13529" lon="6.62007">
        <ele>2274</ele>
        <time>2021-07-14T17:51:37Z</time>
      </trkpt>
      <trkpt lat="45.13524" lon="6.62004">
        <ele>2274</ele>
        <time>2021-07-14T17:51:41Z</time>
      </trkpt>
      <trkpt lat="45.1352" lon="6.62002">
        <ele>2274</ele>
        <time>2021-07-14T17:51:44Z</time>
      </trkpt>
      <trkpt lat="45.13517" lon="6.61995">
        <ele>2274</ele>
        <time>2021-07-14T17:51:49Z</time>
      </trkpt>
      <trkpt lat="45.13509" lon="6.61991">
        <ele>2275</ele>
        <time>2021-07-14T17:52:00Z</time>
      </trkpt>
      <trkpt lat="45.13499" lon="6.61986">
        <ele>2276</ele>
        <time>2021-07-14T17:52:14Z</time>
      </trkpt>
      <trkpt lat="45.13488" lon="6.61986">
        <ele>2277</ele>
        <time>2021-07-14T17:52:26Z</time>
      </trkpt>
      <trkpt lat="45.13483" lon="6.61985">
        <ele>2278</ele>
        <time>2021-07-14T17:52:32Z</time>
      </trkpt>
      <trkpt lat="45.13475" lon="6.61984">
        <ele>2279</ele>
        <time>2021-07-14T17:52:45Z</time>
      </trkpt>
      <trkpt lat="45.13474" lon="6.61986">
        <ele>2283</ele>
        <time>2021-07-14T17:54:21Z</time>
      </trkpt>
      <trkpt lat="45.13465" lon="6.61982">
        <ele>2284</ele>
        <time>2021-07-14T17:55:01Z</time>
      </trkpt>
      <trkpt lat="45.13459" lon="6.61982">
        <ele>2283</ele>
        <time>2021-07-14T17:55:05Z</time>
      </trkpt>
      <trkpt lat="45.13454" lon="6.61982">
        <ele>2283</ele>
        <time>2021-07-14T17:55:10Z</time>
      </trkpt>
      <trkpt lat="45.13448" lon="6.6198">
        <ele>2285</ele>
        <time>2021-07-14T17:55:15Z</time>
      </trkpt>
      <trkpt lat="45.13444" lon="6.61979">
        <ele>2285</ele>
        <time>2021-07-14T17:55:18Z</time>
      </trkpt>
      <trkpt lat="45.1344" lon="6.61978">
        <ele>2285</ele>
        <time>2021-07-14T17:55:21Z</time>
      </trkpt>
      <trkpt lat="45.13434" lon="6.61974">
        <ele>2285</ele>
        <time>2021-07-14T17:55:28Z</time>
      </trkpt>
      <trkpt lat="45.13428" lon="6.6197">
        <ele>2286</ele>
        <time>2021-07-14T17:55:34Z</time>
      </trkpt>
      <trkpt lat="45.13424" lon="6.61965">
        <ele>2286</ele>
        <time>2021-07-14T17:55:39Z</time>
      </trkpt>
      <trkpt lat="45.13415" lon="6.6196">
        <ele>2287</ele>
        <time>2021-07-14T17:55:51Z</time>
      </trkpt>
      <trkpt lat="45.13413" lon="6.61952">
        <ele>2289</ele>
        <time>2021-07-14T17:55:57Z</time>
      </trkpt>
      <trkpt lat="45.13411" lon="6.61935">
        <ele>2291</ele>
        <time>2021-07-14T17:56:10Z</time>
      </trkpt>
      <trkpt lat="45.1341" lon="6.61929">
        <ele>2292</ele>
        <time>2021-07-14T17:56:14Z</time>
      </trkpt>
      <trkpt lat="45.13409" lon="6.61919">
        <ele>2294</ele>
        <time>2021-07-14T17:56:23Z</time>
      </trkpt>
      <trkpt lat="45.13408" lon="6.61912">
        <ele>2293</ele>
        <time>2021-07-14T17:56:29Z</time>
      </trkpt>
      <trkpt lat="45.13403" lon="6.61907">
        <ele>2292</ele>
        <time>2021-07-14T17:56:36Z</time>
      </trkpt>
      <trkpt lat="45.134" lon="6.61901">
        <ele>2292</ele>
        <time>2021-07-14T17:56:39Z</time>
      </trkpt>
      <trkpt lat="45.13397" lon="6.61897">
        <ele>2292</ele>
        <time>2021-07-14T17:56:42Z</time>
      </trkpt>
      <trkpt lat="45.13394" lon="6.61894">
        <ele>2292</ele>
        <time>2021-07-14T17:56:45Z</time>
      </trkpt>
      <trkpt lat="45.13388" lon="6.61889">
        <ele>2291</ele>
        <time>2021-07-14T17:56:51Z</time>
      </trkpt>
      <trkpt lat="45.13385" lon="6.61885">
        <ele>2291</ele>
        <time>2021-07-14T17:56:54Z</time>
      </trkpt>
      <trkpt lat="45.13382" lon="6.6188">
        <ele>2291</ele>
        <time>2021-07-14T17:56:59Z</time>
      </trkpt>
      <trkpt lat="45.13377" lon="6.61875">
        <ele>2291</ele>
        <time>2021-07-14T17:57:05Z</time>
      </trkpt>
      <trkpt lat="45.13366" lon="6.61868">
        <ele>2291</ele>
        <time>2021-07-14T17:57:14Z</time>
      </trkpt>
      <trkpt lat="45.1336" lon="6.61863">
        <ele>2290</ele>
        <time>2021-07-14T17:57:19Z</time>
      </trkpt>
      <trkpt lat="45.13339" lon="6.61858">
        <ele>2289</ele>
        <time>2021-07-14T17:57:38Z</time>
      </trkpt>
      <trkpt lat="45.13333" lon="6.61859">
        <ele>2289</ele>
        <time>2021-07-14T17:57:43Z</time>
      </trkpt>
      <trkpt lat="45.13327" lon="6.61858">
        <ele>2289</ele>
        <time>2021-07-14T17:57:48Z</time>
      </trkpt>
      <trkpt lat="45.13322" lon="6.61856">
        <ele>2288</ele>
        <time>2021-07-14T17:57:53Z</time>
      </trkpt>
      <trkpt lat="45.13317" lon="6.61854">
        <ele>2288</ele>
        <time>2021-07-14T17:57:57Z</time>
      </trkpt>
      <trkpt lat="45.13311" lon="6.61851">
        <ele>2288</ele>
        <time>2021-07-14T17:58:01Z</time>
      </trkpt>
      <trkpt lat="45.13307" lon="6.61845">
        <ele>2288</ele>
        <time>2021-07-14T17:58:07Z</time>
      </trkpt>
      <trkpt lat="45.13301" lon="6.61836">
        <ele>2288</ele>
        <time>2021-07-14T17:58:18Z</time>
      </trkpt>
      <trkpt lat="45.13294" lon="6.61835">
        <ele>2288</ele>
        <time>2021-07-14T17:58:23Z</time>
      </trkpt>
      <trkpt lat="45.1329" lon="6.61831">
        <ele>2288</ele>
        <time>2021-07-14T17:58:28Z</time>
      </trkpt>
      <trkpt lat="45.13283" lon="6.61827">
        <ele>2289</ele>
        <time>2021-07-14T17:58:37Z</time>
      </trkpt>
      <trkpt lat="45.13278" lon="6.61823">
        <ele>2288</ele>
        <time>2021-07-14T17:58:41Z</time>
      </trkpt>
      <trkpt lat="45.13271" lon="6.61813">
        <ele>2288</ele>
        <time>2021-07-14T17:58:49Z</time>
      </trkpt>
      <trkpt lat="45.13264" lon="6.61809">
        <ele>2289</ele>
        <time>2021-07-14T17:58:54Z</time>
      </trkpt>
      <trkpt lat="45.1326" lon="6.61805">
        <ele>2288</ele>
        <time>2021-07-14T17:58:58Z</time>
      </trkpt>
      <trkpt lat="45.13255" lon="6.61801">
        <ele>2288</ele>
        <time>2021-07-14T17:59:03Z</time>
      </trkpt>
      <trkpt lat="45.13243" lon="6.61788">
        <ele>2288</ele>
        <time>2021-07-14T17:59:16Z</time>
      </trkpt>
      <trkpt lat="45.13238" lon="6.61783">
        <ele>2287</ele>
        <time>2021-07-14T17:59:21Z</time>
      </trkpt>
      <trkpt lat="45.1323" lon="6.61774">
        <ele>2287</ele>
        <time>2021-07-14T17:59:31Z</time>
      </trkpt>
      <trkpt lat="45.13226" lon="6.61768">
        <ele>2289</ele>
        <time>2021-07-14T17:59:36Z</time>
      </trkpt>
      <trkpt lat="45.13221" lon="6.61762">
        <ele>2287</ele>
        <time>2021-07-14T17:59:43Z</time>
      </trkpt>
      <trkpt lat="45.13202" lon="6.61751">
        <ele>2288</ele>
        <time>2021-07-14T18:00:01Z</time>
      </trkpt>
      <trkpt lat="45.13185" lon="6.6173">
        <ele>2288</ele>
        <time>2021-07-14T18:00:19Z</time>
      </trkpt>
      <trkpt lat="45.13178" lon="6.61727">
        <ele>2287</ele>
        <time>2021-07-14T18:00:27Z</time>
      </trkpt>
      <trkpt lat="45.13173" lon="6.61721">
        <ele>2288</ele>
        <time>2021-07-14T18:00:33Z</time>
      </trkpt>
      <trkpt lat="45.13162" lon="6.61712">
        <ele>2288</ele>
        <time>2021-07-14T18:00:43Z</time>
      </trkpt>
      <trkpt lat="45.13146" lon="6.61694">
        <ele>2287</ele>
        <time>2021-07-14T18:01:02Z</time>
      </trkpt>
      <trkpt lat="45.13141" lon="6.61691">
        <ele>2287</ele>
        <time>2021-07-14T18:01:10Z</time>
      </trkpt>
      <trkpt lat="45.13135" lon="6.61687">
        <ele>2287</ele>
        <time>2021-07-14T18:01:15Z</time>
      </trkpt>
      <trkpt lat="45.13131" lon="6.61679">
        <ele>2286</ele>
        <time>2021-07-14T18:01:22Z</time>
      </trkpt>
      <trkpt lat="45.13123" lon="6.61673">
        <ele>2286</ele>
        <time>2021-07-14T18:01:29Z</time>
      </trkpt>
      <trkpt lat="45.13118" lon="6.61668">
        <ele>2284</ele>
        <time>2021-07-14T18:01:34Z</time>
      </trkpt>
      <trkpt lat="45.13114" lon="6.61662">
        <ele>2283</ele>
        <time>2021-07-14T18:01:38Z</time>
      </trkpt>
      <trkpt lat="45.13109" lon="6.6166">
        <ele>2284</ele>
        <time>2021-07-14T18:01:43Z</time>
      </trkpt>
      <trkpt lat="45.131" lon="6.61646">
        <ele>2282</ele>
        <time>2021-07-14T18:01:52Z</time>
      </trkpt>
      <trkpt lat="45.13092" lon="6.61632">
        <ele>2283</ele>
        <time>2021-07-14T18:02:04Z</time>
      </trkpt>
      <trkpt lat="45.13085" lon="6.61618">
        <ele>2282</ele>
        <time>2021-07-14T18:02:14Z</time>
      </trkpt>
      <trkpt lat="45.1308" lon="6.61613">
        <ele>2280</ele>
        <time>2021-07-14T18:02:18Z</time>
      </trkpt>
      <trkpt lat="45.13075" lon="6.61608">
        <ele>2281</ele>
        <time>2021-07-14T18:02:24Z</time>
      </trkpt>
      <trkpt lat="45.13069" lon="6.61604">
        <ele>2280</ele>
        <time>2021-07-14T18:02:28Z</time>
      </trkpt>
      <trkpt lat="45.13064" lon="6.616">
        <ele>2281</ele>
        <time>2021-07-14T18:02:34Z</time>
      </trkpt>
      <trkpt lat="45.13057" lon="6.61594">
        <ele>2280</ele>
        <time>2021-07-14T18:02:42Z</time>
      </trkpt>
      <trkpt lat="45.13047" lon="6.61587">
        <ele>2281</ele>
        <time>2021-07-14T18:02:54Z</time>
      </trkpt>
      <trkpt lat="45.13041" lon="6.6158">
        <ele>2280</ele>
        <time>2021-07-14T18:03:01Z</time>
      </trkpt>
      <trkpt lat="45.13036" lon="6.61576">
        <ele>2280</ele>
        <time>2021-07-14T18:03:05Z</time>
      </trkpt>
      <trkpt lat="45.13031" lon="6.61574">
        <ele>2280</ele>
        <time>2021-07-14T18:03:09Z</time>
      </trkpt>
      <trkpt lat="45.13022" lon="6.61573">
        <ele>2280</ele>
        <time>2021-07-14T18:03:18Z</time>
      </trkpt>
      <trkpt lat="45.13017" lon="6.61574">
        <ele>2280</ele>
        <time>2021-07-14T18:03:22Z</time>
      </trkpt>
      <trkpt lat="45.13011" lon="6.61575">
        <ele>2282</ele>
        <time>2021-07-14T18:03:28Z</time>
      </trkpt>
      <trkpt lat="45.13004" lon="6.61574">
        <ele>2281</ele>
        <time>2021-07-14T18:03:36Z</time>
      </trkpt>
      <trkpt lat="45.12997" lon="6.61569">
        <ele>2281</ele>
        <time>2021-07-14T18:03:43Z</time>
      </trkpt>
      <trkpt lat="45.1298" lon="6.6156">
        <ele>2283</ele>
        <time>2021-07-14T18:04:03Z</time>
      </trkpt>
      <trkpt lat="45.12974" lon="6.61558">
        <ele>2283</ele>
        <time>2021-07-14T18:04:08Z</time>
      </trkpt>
      <trkpt lat="45.12969" lon="6.61552">
        <ele>2284</ele>
        <time>2021-07-14T18:04:13Z</time>
      </trkpt>
      <trkpt lat="45.12963" lon="6.61549">
        <ele>2283</ele>
        <time>2021-07-14T18:04:18Z</time>
      </trkpt>
      <trkpt lat="45.12952" lon="6.61545">
        <ele>2282</ele>
        <time>2021-07-14T18:04:27Z</time>
      </trkpt>
      <trkpt lat="45.12933" lon="6.61538">
        <ele>2283</ele>
        <time>2021-07-14T18:04:47Z</time>
      </trkpt>
      <trkpt lat="45.12928" lon="6.61533">
        <ele>2282</ele>
        <time>2021-07-14T18:04:53Z</time>
      </trkpt>
      <trkpt lat="45.12925" lon="6.61527">
        <ele>2284</ele>
        <time>2021-07-14T18:04:58Z</time>
      </trkpt>
      <trkpt lat="45.1292" lon="6.61522">
        <ele>2283</ele>
        <time>2021-07-14T18:05:04Z</time>
      </trkpt>
      <trkpt lat="45.12913" lon="6.61512">
        <ele>2284</ele>
        <time>2021-07-14T18:05:14Z</time>
      </trkpt>
      <trkpt lat="45.12903" lon="6.61498">
        <ele>2285</ele>
        <time>2021-07-14T18:05:26Z</time>
      </trkpt>
      <trkpt lat="45.12899" lon="6.61491">
        <ele>2287</ele>
        <time>2021-07-14T18:05:35Z</time>
      </trkpt>
      <trkpt lat="45.12894" lon="6.61487">
        <ele>2286</ele>
        <time>2021-07-14T18:05:39Z</time>
      </trkpt>
      <trkpt lat="45.12889" lon="6.61484">
        <ele>2285</ele>
        <time>2021-07-14T18:05:44Z</time>
      </trkpt>
      <trkpt lat="45.12883" lon="6.61483">
        <ele>2287</ele>
        <time>2021-07-14T18:05:49Z</time>
      </trkpt>
      <trkpt lat="45.1287" lon="6.61481">
        <ele>2285</ele>
        <time>2021-07-14T18:06:01Z</time>
      </trkpt>
      <trkpt lat="45.12862" lon="6.61479">
        <ele>2285</ele>
        <time>2021-07-14T18:06:10Z</time>
      </trkpt>
      <trkpt lat="45.12855" lon="6.61476">
        <ele>2287</ele>
        <time>2021-07-14T18:06:18Z</time>
      </trkpt>
      <trkpt lat="45.12851" lon="6.61471">
        <ele>2288</ele>
        <time>2021-07-14T18:06:23Z</time>
      </trkpt>
      <trkpt lat="45.12845" lon="6.61463">
        <ele>2287</ele>
        <time>2021-07-14T18:06:30Z</time>
      </trkpt>
      <trkpt lat="45.12839" lon="6.61457">
        <ele>2289</ele>
        <time>2021-07-14T18:06:38Z</time>
      </trkpt>
      <trkpt lat="45.12832" lon="6.61451">
        <ele>2289</ele>
        <time>2021-07-14T18:06:47Z</time>
      </trkpt>
      <trkpt lat="45.12823" lon="6.61446">
        <ele>2289</ele>
        <time>2021-07-14T18:06:56Z</time>
      </trkpt>
      <trkpt lat="45.12819" lon="6.61441">
        <ele>2289</ele>
        <time>2021-07-14T18:07:01Z</time>
      </trkpt>
      <trkpt lat="45.12812" lon="6.61435">
        <ele>2287</ele>
        <time>2021-07-14T18:07:10Z</time>
      </trkpt>
      <trkpt lat="45.12797" lon="6.6142">
        <ele>2287</ele>
        <time>2021-07-14T18:07:28Z</time>
      </trkpt>
      <trkpt lat="45.12793" lon="6.61414">
        <ele>2288</ele>
        <time>2021-07-14T18:07:34Z</time>
      </trkpt>
      <trkpt lat="45.1279" lon="6.61407">
        <ele>2288</ele>
        <time>2021-07-14T18:07:39Z</time>
      </trkpt>
      <trkpt lat="45.12785" lon="6.61402">
        <ele>2288</ele>
        <time>2021-07-14T18:07:44Z</time>
      </trkpt>
      <trkpt lat="45.1278" lon="6.61397">
        <ele>2287</ele>
        <time>2021-07-14T18:07:49Z</time>
      </trkpt>
      <trkpt lat="45.12776" lon="6.6139">
        <ele>2288</ele>
        <time>2021-07-14T18:07:55Z</time>
      </trkpt>
      <trkpt lat="45.12771" lon="6.61381">
        <ele>2288</ele>
        <time>2021-07-14T18:08:03Z</time>
      </trkpt>
      <trkpt lat="45.12767" lon="6.61375">
        <ele>2289</ele>
        <time>2021-07-14T18:08:09Z</time>
      </trkpt>
      <trkpt lat="45.12763" lon="6.61369">
        <ele>2290</ele>
        <time>2021-07-14T18:08:14Z</time>
      </trkpt>
      <trkpt lat="45.1276" lon="6.61362">
        <ele>2290</ele>
        <time>2021-07-14T18:08:18Z</time>
      </trkpt>
      <trkpt lat="45.12756" lon="6.61357">
        <ele>2289</ele>
        <time>2021-07-14T18:08:23Z</time>
      </trkpt>
      <trkpt lat="45.12746" lon="6.61344">
        <ele>2292</ele>
        <time>2021-07-14T18:08:35Z</time>
      </trkpt>
      <trkpt lat="45.12743" lon="6.61338">
        <ele>2292</ele>
        <time>2021-07-14T18:08:41Z</time>
      </trkpt>
      <trkpt lat="45.12738" lon="6.61335">
        <ele>2292</ele>
        <time>2021-07-14T18:08:47Z</time>
      </trkpt>
      <trkpt lat="45.12735" lon="6.61332">
        <ele>2291</ele>
        <time>2021-07-14T18:08:51Z</time>
      </trkpt>
      <trkpt lat="45.12726" lon="6.61318">
        <ele>2294</ele>
        <time>2021-07-14T18:09:04Z</time>
      </trkpt>
      <trkpt lat="45.12725" lon="6.61313">
        <ele>2294</ele>
        <time>2021-07-14T18:09:08Z</time>
      </trkpt>
      <trkpt lat="45.12721" lon="6.61304">
        <ele>2294</ele>
        <time>2021-07-14T18:09:15Z</time>
      </trkpt>
      <trkpt lat="45.12713" lon="6.61295">
        <ele>2296</ele>
        <time>2021-07-14T18:09:29Z</time>
      </trkpt>
      <trkpt lat="45.12708" lon="6.61287">
        <ele>2297</ele>
        <time>2021-07-14T18:09:41Z</time>
      </trkpt>
      <trkpt lat="45.12703" lon="6.61282">
        <ele>2295</ele>
        <time>2021-07-14T18:09:48Z</time>
      </trkpt>
      <trkpt lat="45.12694" lon="6.61273">
        <ele>2298</ele>
        <time>2021-07-14T18:10:00Z</time>
      </trkpt>
      <trkpt lat="45.1269" lon="6.61271">
        <ele>2298</ele>
        <time>2021-07-14T18:10:04Z</time>
      </trkpt>
      <trkpt lat="45.12687" lon="6.61269">
        <ele>2299</ele>
        <time>2021-07-14T18:10:07Z</time>
      </trkpt>
      <trkpt lat="45.12683" lon="6.61261">
        <ele>2299</ele>
        <time>2021-07-14T18:10:15Z</time>
      </trkpt>
      <trkpt lat="45.12673" lon="6.61249">
        <ele>2302</ele>
        <time>2021-07-14T18:10:32Z</time>
      </trkpt>
      <trkpt lat="45.1267" lon="6.61242">
        <ele>2303</ele>
        <time>2021-07-14T18:10:46Z</time>
      </trkpt>
      <trkpt lat="45.12666" lon="6.61233">
        <ele>2306</ele>
        <time>2021-07-14T18:11:03Z</time>
      </trkpt>
      <trkpt lat="45.12662" lon="6.61224">
        <ele>2307</ele>
        <time>2021-07-14T18:11:15Z</time>
      </trkpt>
      <trkpt lat="45.12658" lon="6.61214">
        <ele>2309</ele>
        <time>2021-07-14T18:11:33Z</time>
      </trkpt>
      <trkpt lat="45.12658" lon="6.61205">
        <ele>2309</ele>
        <time>2021-07-14T18:11:45Z</time>
      </trkpt>
      <trkpt lat="45.12656" lon="6.61196">
        <ele>2312</ele>
        <time>2021-07-14T18:11:57Z</time>
      </trkpt>
      <trkpt lat="45.12651" lon="6.61183">
        <ele>2314</ele>
        <time>2021-07-14T18:12:11Z</time>
      </trkpt>
      <trkpt lat="45.12646" lon="6.61173">
        <ele>2317</ele>
        <time>2021-07-14T18:12:23Z</time>
      </trkpt>
      <trkpt lat="45.12647" lon="6.61161">
        <ele>2315</ele>
        <time>2021-07-14T18:12:35Z</time>
      </trkpt>
      <trkpt lat="45.12647" lon="6.61155">
        <ele>2316</ele>
        <time>2021-07-14T18:12:39Z</time>
      </trkpt>
      <trkpt lat="45.12642" lon="6.61153">
        <ele>2316</ele>
        <time>2021-07-14T18:12:46Z</time>
      </trkpt>
      <trkpt lat="45.12637" lon="6.61148">
        <ele>2318</ele>
        <time>2021-07-14T18:12:58Z</time>
      </trkpt>
      <trkpt lat="45.12629" lon="6.61143">
        <ele>2324</ele>
        <time>2021-07-14T18:13:11Z</time>
      </trkpt>
      <trkpt lat="45.12619" lon="6.61138">
        <ele>2321</ele>
        <time>2021-07-14T18:13:23Z</time>
      </trkpt>
      <trkpt lat="45.12613" lon="6.61133">
        <ele>2323</ele>
        <time>2021-07-14T18:13:33Z</time>
      </trkpt>
      <trkpt lat="45.12606" lon="6.61135">
        <ele>2325</ele>
        <time>2021-07-14T18:13:45Z</time>
      </trkpt>
      <trkpt lat="45.12601" lon="6.61131">
        <ele>2327</ele>
        <time>2021-07-14T18:13:58Z</time>
      </trkpt>
      <trkpt lat="45.12594" lon="6.61123">
        <ele>2329</ele>
        <time>2021-07-14T18:14:10Z</time>
      </trkpt>
      <trkpt lat="45.12587" lon="6.61118">
        <ele>2329</ele>
        <time>2021-07-14T18:14:22Z</time>
      </trkpt>
      <trkpt lat="45.1258" lon="6.6112">
        <ele>2329</ele>
        <time>2021-07-14T18:14:34Z</time>
      </trkpt>
      <trkpt lat="45.12574" lon="6.61118">
        <ele>2336</ele>
        <time>2021-07-14T18:14:46Z</time>
      </trkpt>
      <trkpt lat="45.12567" lon="6.61114">
        <ele>2337</ele>
        <time>2021-07-14T18:14:59Z</time>
      </trkpt>
      <trkpt lat="45.12563" lon="6.61114">
        <ele>2338</ele>
        <time>2021-07-14T18:15:04Z</time>
      </trkpt>
      <trkpt lat="45.12558" lon="6.61112">
        <ele>2336</ele>
        <time>2021-07-14T18:15:16Z</time>
      </trkpt>
      <trkpt lat="45.12551" lon="6.61115">
        <ele>2338</ele>
        <time>2021-07-14T18:15:29Z</time>
      </trkpt>
      <trkpt lat="45.12547" lon="6.61116">
        <ele>2340</ele>
        <time>2021-07-14T18:15:41Z</time>
      </trkpt>
      <trkpt lat="45.12543" lon="6.61119">
        <ele>2342</ele>
        <time>2021-07-14T18:16:05Z</time>
      </trkpt>
      <trkpt lat="45.12539" lon="6.61117">
        <ele>2344</ele>
        <time>2021-07-14T18:16:11Z</time>
      </trkpt>
      <trkpt lat="45.12531" lon="6.61122">
        <ele>2344</ele>
        <time>2021-07-14T18:16:29Z</time>
      </trkpt>
      <trkpt lat="45.12524" lon="6.61127">
        <ele>2346</ele>
        <time>2021-07-14T18:16:40Z</time>
      </trkpt>
      <trkpt lat="45.12521" lon="6.61135">
        <ele>2351</ele>
        <time>2021-07-14T18:16:55Z</time>
      </trkpt>
      <trkpt lat="45.12514" lon="6.61142">
        <ele>2351</ele>
        <time>2021-07-14T18:17:06Z</time>
      </trkpt>
      <trkpt lat="45.12508" lon="6.61143">
        <ele>2351</ele>
        <time>2021-07-14T18:17:13Z</time>
      </trkpt>
      <trkpt lat="45.12502" lon="6.61142">
        <ele>2351</ele>
        <time>2021-07-14T18:17:20Z</time>
      </trkpt>
      <trkpt lat="45.12495" lon="6.61141">
        <ele>2353</ele>
        <time>2021-07-14T18:17:28Z</time>
      </trkpt>
      <trkpt lat="45.12492" lon="6.61139">
        <ele>2353</ele>
        <time>2021-07-14T18:17:34Z</time>
      </trkpt>
      <trkpt lat="45.12487" lon="6.61141">
        <ele>2355</ele>
        <time>2021-07-14T18:17:46Z</time>
      </trkpt>
      <trkpt lat="45.12476" lon="6.61145">
        <ele>2358</ele>
        <time>2021-07-14T18:18:04Z</time>
      </trkpt>
      <trkpt lat="45.1247" lon="6.61142">
        <ele>2361</ele>
        <time>2021-07-14T18:18:23Z</time>
      </trkpt>
      <trkpt lat="45.12464" lon="6.61147">
        <ele>2364</ele>
        <time>2021-07-14T18:18:41Z</time>
      </trkpt>
      <trkpt lat="45.1246" lon="6.61137">
        <ele>2365</ele>
        <time>2021-07-14T18:18:59Z</time>
      </trkpt>
      <trkpt lat="45.12446" lon="6.6113">
        <ele>2367</ele>
        <time>2021-07-14T18:19:25Z</time>
      </trkpt>
      <trkpt lat="45.12434" lon="6.61115">
        <ele>2373</ele>
        <time>2021-07-14T18:20:01Z</time>
      </trkpt>
      <trkpt lat="45.12429" lon="6.61108">
        <ele>2373</ele>
        <time>2021-07-14T18:20:13Z</time>
      </trkpt>
      <trkpt lat="45.12423" lon="6.61111">
        <ele>2377</ele>
        <time>2021-07-14T18:20:25Z</time>
      </trkpt>
      <trkpt lat="45.12415" lon="6.61106">
        <ele>2375</ele>
        <time>2021-07-14T18:20:43Z</time>
      </trkpt>
      <trkpt lat="45.12411" lon="6.61096">
        <ele>2377</ele>
        <time>2021-07-14T18:20:56Z</time>
      </trkpt>
      <trkpt lat="45.12406" lon="6.61092">
        <ele>2381</ele>
        <time>2021-07-14T18:21:09Z</time>
      </trkpt>
      <trkpt lat="45.12407" lon="6.61083">
        <ele>2383</ele>
        <time>2021-07-14T18:21:21Z</time>
      </trkpt>
      <trkpt lat="45.12402" lon="6.61074">
        <ele>2383</ele>
        <time>2021-07-14T18:21:40Z</time>
      </trkpt>
      <trkpt lat="45.12398" lon="6.61068">
        <ele>2387</ele>
        <time>2021-07-14T18:22:04Z</time>
      </trkpt>
      <trkpt lat="45.1239" lon="6.61066">
        <ele>2389</ele>
        <time>2021-07-14T18:22:22Z</time>
      </trkpt>
      <trkpt lat="45.12385" lon="6.61042">
        <ele>2394</ele>
        <time>2021-07-14T18:23:05Z</time>
      </trkpt>
      <trkpt lat="45.12379" lon="6.61039">
        <ele>2396</ele>
        <time>2021-07-14T18:23:17Z</time>
      </trkpt>
      <trkpt lat="45.12371" lon="6.61018">
        <ele>2403</ele>
        <time>2021-07-14T18:23:47Z</time>
      </trkpt>
      <trkpt lat="45.12369" lon="6.61009">
        <ele>2404</ele>
        <time>2021-07-14T18:24:02Z</time>
      </trkpt>
      <trkpt lat="45.12371" lon="6.61011">
        <ele>2401</ele>
        <time>2021-07-14T18:28:10Z</time>
      </trkpt>
      <trkpt lat="45.12366" lon="6.61002">
        <ele>2401</ele>
        <time>2021-07-14T18:28:28Z</time>
      </trkpt>
      <trkpt lat="45.12359" lon="6.60993">
        <ele>2401</ele>
        <time>2021-07-14T18:28:40Z</time>
      </trkpt>
      <trkpt lat="45.12353" lon="6.60988">
        <ele>2400</ele>
        <time>2021-07-14T18:28:47Z</time>
      </trkpt>
      <trkpt lat="45.12339" lon="6.60972">
        <ele>2401</ele>
        <time>2021-07-14T18:29:04Z</time>
      </trkpt>
      <trkpt lat="45.12333" lon="6.60966">
        <ele>2403</ele>
        <time>2021-07-14T18:29:11Z</time>
      </trkpt>
      <trkpt lat="45.12326" lon="6.60963">
        <ele>2403</ele>
        <time>2021-07-14T18:29:19Z</time>
      </trkpt>
      <trkpt lat="45.12317" lon="6.6096">
        <ele>2403</ele>
        <time>2021-07-14T18:29:31Z</time>
      </trkpt>
      <trkpt lat="45.12303" lon="6.60952">
        <ele>2404</ele>
        <time>2021-07-14T18:29:59Z</time>
      </trkpt>
      <trkpt lat="45.12295" lon="6.60931">
        <ele>2407</ele>
        <time>2021-07-14T18:30:16Z</time>
      </trkpt>
      <trkpt lat="45.12293" lon="6.60924">
        <ele>2407</ele>
        <time>2021-07-14T18:30:22Z</time>
      </trkpt>
      <trkpt lat="45.12287" lon="6.60908">
        <ele>2410</ele>
        <time>2021-07-14T18:30:38Z</time>
      </trkpt>
      <trkpt lat="45.12285" lon="6.60891">
        <ele>2411</ele>
        <time>2021-07-14T18:30:54Z</time>
      </trkpt>
      <trkpt lat="45.1228" lon="6.60886">
        <ele>2412</ele>
        <time>2021-07-14T18:31:02Z</time>
      </trkpt>
      <trkpt lat="45.12273" lon="6.60866">
        <ele>2415</ele>
        <time>2021-07-14T18:31:23Z</time>
      </trkpt>
      <trkpt lat="45.12264" lon="6.60857">
        <ele>2416</ele>
        <time>2021-07-14T18:31:40Z</time>
      </trkpt>
      <trkpt lat="45.12259" lon="6.60852">
        <ele>2415</ele>
        <time>2021-07-14T18:31:46Z</time>
      </trkpt>
      <trkpt lat="45.12255" lon="6.60845">
        <ele>2415</ele>
        <time>2021-07-14T18:31:54Z</time>
      </trkpt>
      <trkpt lat="45.12252" lon="6.60831">
        <ele>2417</ele>
        <time>2021-07-14T18:32:06Z</time>
      </trkpt>
      <trkpt lat="45.12248" lon="6.60819">
        <ele>2418</ele>
        <time>2021-07-14T18:32:18Z</time>
      </trkpt>
      <trkpt lat="45.12243" lon="6.60809">
        <ele>2421</ele>
        <time>2021-07-14T18:32:36Z</time>
      </trkpt>
      <trkpt lat="45.12235" lon="6.60798">
        <ele>2422</ele>
        <time>2021-07-14T18:32:48Z</time>
      </trkpt>
      <trkpt lat="45.12231" lon="6.60793">
        <ele>2422</ele>
        <time>2021-07-14T18:32:52Z</time>
      </trkpt>
      <trkpt lat="45.1222" lon="6.60786">
        <ele>2421</ele>
        <time>2021-07-14T18:33:05Z</time>
      </trkpt>
      <trkpt lat="45.12217" lon="6.60778">
        <ele>2421</ele>
        <time>2021-07-14T18:33:10Z</time>
      </trkpt>
      <trkpt lat="45.12213" lon="6.60771">
        <ele>2421</ele>
        <time>2021-07-14T18:33:15Z</time>
      </trkpt>
      <trkpt lat="45.1221" lon="6.60764">
        <ele>2421</ele>
        <time>2021-07-14T18:33:19Z</time>
      </trkpt>
      <trkpt lat="45.12204" lon="6.60758">
        <ele>2421</ele>
        <time>2021-07-14T18:33:24Z</time>
      </trkpt>
      <trkpt lat="45.12201" lon="6.60751">
        <ele>2421</ele>
        <time>2021-07-14T18:33:28Z</time>
      </trkpt>
      <trkpt lat="45.12194" lon="6.60744">
        <ele>2420</ele>
        <time>2021-07-14T18:33:38Z</time>
      </trkpt>
      <trkpt lat="45.12186" lon="6.6072">
        <ele>2418</ele>
        <time>2021-07-14T18:33:56Z</time>
      </trkpt>
      <trkpt lat="45.12187" lon="6.6071">
        <ele>2420</ele>
        <time>2021-07-14T18:34:08Z</time>
      </trkpt>
      <trkpt lat="45.12191" lon="6.6071">
        <ele>2419</ele>
        <time>2021-07-14T18:34:13Z</time>
      </trkpt>
      <trkpt lat="45.12196" lon="6.60708">
        <ele>2422</ele>
        <time>2021-07-14T18:34:25Z</time>
      </trkpt>
      <trkpt lat="45.12203" lon="6.60699">
        <ele>2423</ele>
        <time>2021-07-14T18:34:38Z</time>
      </trkpt>
      <trkpt lat="45.12206" lon="6.60695">
        <ele>2423</ele>
        <time>2021-07-14T18:34:44Z</time>
      </trkpt>
      <trkpt lat="45.12209" lon="6.60685">
        <ele>2426</ele>
        <time>2021-07-14T18:35:20Z</time>
      </trkpt>
      <trkpt lat="45.12212" lon="6.60675">
        <ele>2427</ele>
        <time>2021-07-14T18:35:32Z</time>
      </trkpt>
      <trkpt lat="45.12211" lon="6.60665">
        <ele>2426</ele>
        <time>2021-07-14T18:35:38Z</time>
      </trkpt>
      <trkpt lat="45.12211" lon="6.60653">
        <ele>2427</ele>
        <time>2021-07-14T18:35:48Z</time>
      </trkpt>
      <trkpt lat="45.12209" lon="6.60646">
        <ele>2427</ele>
        <time>2021-07-14T18:35:54Z</time>
      </trkpt>
      <trkpt lat="45.12208" lon="6.60636">
        <ele>2428</ele>
        <time>2021-07-14T18:36:02Z</time>
      </trkpt>
      <trkpt lat="45.12206" lon="6.60627">
        <ele>2426</ele>
        <time>2021-07-14T18:36:10Z</time>
      </trkpt>
      <trkpt lat="45.12202" lon="6.60622">
        <ele>2428</ele>
        <time>2021-07-14T18:36:15Z</time>
      </trkpt>
      <trkpt lat="45.12199" lon="6.60614">
        <ele>2428</ele>
        <time>2021-07-14T18:36:20Z</time>
      </trkpt>
      <trkpt lat="45.12195" lon="6.60594">
        <ele>2429</ele>
        <time>2021-07-14T18:36:35Z</time>
      </trkpt>
      <trkpt lat="45.12192" lon="6.60586">
        <ele>2428</ele>
        <time>2021-07-14T18:36:40Z</time>
      </trkpt>
      <trkpt lat="45.1219" lon="6.60573">
        <ele>2430</ele>
        <time>2021-07-14T18:36:54Z</time>
      </trkpt>
      <trkpt lat="45.12189" lon="6.6055">
        <ele>2432</ele>
        <time>2021-07-14T18:37:15Z</time>
      </trkpt>
      <trkpt lat="45.12191" lon="6.60541">
        <ele>2432</ele>
        <time>2021-07-14T18:37:27Z</time>
      </trkpt>
      <trkpt lat="45.12199" lon="6.6052">
        <ele>2435</ele>
        <time>2021-07-14T18:37:51Z</time>
      </trkpt>
      <trkpt lat="45.12199" lon="6.60512">
        <ele>2435</ele>
        <time>2021-07-14T18:38:01Z</time>
      </trkpt>
      <trkpt lat="45.12197" lon="6.60503">
        <ele>2437</ele>
        <time>2021-07-14T18:38:13Z</time>
      </trkpt>
      <trkpt lat="45.12198" lon="6.60488">
        <ele>2437</ele>
        <time>2021-07-14T18:38:25Z</time>
      </trkpt>
      <trkpt lat="45.12192" lon="6.60475">
        <ele>2439</ele>
        <time>2021-07-14T18:38:36Z</time>
      </trkpt>
      <trkpt lat="45.12188" lon="6.60464">
        <ele>2439</ele>
        <time>2021-07-14T18:38:47Z</time>
      </trkpt>
      <trkpt lat="45.12191" lon="6.60457">
        <ele>2441</ele>
        <time>2021-07-14T18:39:04Z</time>
      </trkpt>
      <trkpt lat="45.12194" lon="6.60438">
        <ele>2442</ele>
        <time>2021-07-14T18:39:18Z</time>
      </trkpt>
      <trkpt lat="45.12197" lon="6.60429">
        <ele>2442</ele>
        <time>2021-07-14T18:39:31Z</time>
      </trkpt>
      <trkpt lat="45.12202" lon="6.60426">
        <ele>2441</ele>
        <time>2021-07-14T18:39:37Z</time>
      </trkpt>
      <trkpt lat="45.12207" lon="6.60415">
        <ele>2440</ele>
        <time>2021-07-14T18:39:47Z</time>
      </trkpt>
      <trkpt lat="45.12213" lon="6.60405">
        <ele>2443</ele>
        <time>2021-07-14T18:40:01Z</time>
      </trkpt>
      <trkpt lat="45.12221" lon="6.604">
        <ele>2443</ele>
        <time>2021-07-14T18:40:13Z</time>
      </trkpt>
      <trkpt lat="45.12227" lon="6.60398">
        <ele>2443</ele>
        <time>2021-07-14T18:40:18Z</time>
      </trkpt>
      <trkpt lat="45.12234" lon="6.60395">
        <ele>2445</ele>
        <time>2021-07-14T18:40:32Z</time>
      </trkpt>
      <trkpt lat="45.12241" lon="6.60389">
        <ele>2446</ele>
        <time>2021-07-14T18:40:50Z</time>
      </trkpt>
      <trkpt lat="45.12245" lon="6.60383">
        <ele>2447</ele>
        <time>2021-07-14T18:40:56Z</time>
      </trkpt>
      <trkpt lat="45.1225" lon="6.60375">
        <ele>2449</ele>
        <time>2021-07-14T18:41:10Z</time>
      </trkpt>
      <trkpt lat="45.12254" lon="6.6037">
        <ele>2450</ele>
        <time>2021-07-14T18:41:22Z</time>
      </trkpt>
      <trkpt lat="45.12257" lon="6.60363">
        <ele>2450</ele>
        <time>2021-07-14T18:41:34Z</time>
      </trkpt>
      <trkpt lat="45.12261" lon="6.60356">
        <ele>2452</ele>
        <time>2021-07-14T18:41:46Z</time>
      </trkpt>
      <trkpt lat="45.12271" lon="6.60349">
        <ele>2451</ele>
        <time>2021-07-14T18:41:59Z</time>
      </trkpt>
      <trkpt lat="45.12276" lon="6.60338">
        <ele>2453</ele>
        <time>2021-07-14T18:42:11Z</time>
      </trkpt>
      <trkpt lat="45.12282" lon="6.60328">
        <ele>2453</ele>
        <time>2021-07-14T18:42:22Z</time>
      </trkpt>
      <trkpt lat="45.12286" lon="6.60321">
        <ele>2454</ele>
        <time>2021-07-14T18:42:34Z</time>
      </trkpt>
      <trkpt lat="45.12291" lon="6.60317">
        <ele>2456</ele>
        <time>2021-07-14T18:42:46Z</time>
      </trkpt>
      <trkpt lat="45.12296" lon="6.60312">
        <ele>2458</ele>
        <time>2021-07-14T18:43:10Z</time>
      </trkpt>
      <trkpt lat="45.12301" lon="6.60314">
        <ele>2462</ele>
        <time>2021-07-14T18:43:29Z</time>
      </trkpt>
      <trkpt lat="45.12306" lon="6.60304">
        <ele>2463</ele>
        <time>2021-07-14T18:43:53Z</time>
      </trkpt>
      <trkpt lat="45.12306" lon="6.60293">
        <ele>2467</ele>
        <time>2021-07-14T18:44:17Z</time>
      </trkpt>
      <trkpt lat="45.12308" lon="6.60285">
        <ele>2467</ele>
        <time>2021-07-14T18:44:24Z</time>
      </trkpt>
      <trkpt lat="45.1231" lon="6.60288">
        <ele>2469</ele>
        <time>2021-07-14T18:45:26Z</time>
      </trkpt>
      <trkpt lat="45.12316" lon="6.60283">
        <ele>2467</ele>
        <time>2021-07-14T18:46:07Z</time>
      </trkpt>
      <trkpt lat="45.12322" lon="6.60282">
        <ele>2469</ele>
        <time>2021-07-14T18:46:14Z</time>
      </trkpt>
      <trkpt lat="45.12328" lon="6.60279">
        <ele>2468</ele>
        <time>2021-07-14T18:46:20Z</time>
      </trkpt>
      <trkpt lat="45.12333" lon="6.60275">
        <ele>2467</ele>
        <time>2021-07-14T18:46:29Z</time>
      </trkpt>
      <trkpt lat="45.12335" lon="6.60266">
        <ele>2468</ele>
        <time>2021-07-14T18:46:35Z</time>
      </trkpt>
      <trkpt lat="45.12333" lon="6.60257">
        <ele>2469</ele>
        <time>2021-07-14T18:46:41Z</time>
      </trkpt>
      <trkpt lat="45.12333" lon="6.60249">
        <ele>2469</ele>
        <time>2021-07-14T18:46:46Z</time>
      </trkpt>
      <trkpt lat="45.12337" lon="6.60241">
        <ele>2469</ele>
        <time>2021-07-14T18:46:55Z</time>
      </trkpt>
      <trkpt lat="45.12341" lon="6.60227">
        <ele>2470</ele>
        <time>2021-07-14T18:47:06Z</time>
      </trkpt>
      <trkpt lat="45.12339" lon="6.60219">
        <ele>2470</ele>
        <time>2021-07-14T18:47:11Z</time>
      </trkpt>
      <trkpt lat="45.1234" lon="6.60209">
        <ele>2470</ele>
        <time>2021-07-14T18:47:17Z</time>
      </trkpt>
      <trkpt lat="45.12343" lon="6.602">
        <ele>2469</ele>
        <time>2021-07-14T18:47:22Z</time>
      </trkpt>
      <trkpt lat="45.12344" lon="6.60193">
        <ele>2468</ele>
        <time>2021-07-14T18:47:28Z</time>
      </trkpt>
      <trkpt lat="45.12343" lon="6.60184">
        <ele>2466</ele>
        <time>2021-07-14T18:47:33Z</time>
      </trkpt>
      <trkpt lat="45.12341" lon="6.60176">
        <ele>2466</ele>
        <time>2021-07-14T18:47:38Z</time>
      </trkpt>
      <trkpt lat="45.12342" lon="6.60168">
        <ele>2466</ele>
        <time>2021-07-14T18:47:44Z</time>
      </trkpt>
      <trkpt lat="45.12346" lon="6.60156">
        <ele>2463</ele>
        <time>2021-07-14T18:47:57Z</time>
      </trkpt>
      <trkpt lat="45.12345" lon="6.60147">
        <ele>2461</ele>
        <time>2021-07-14T18:48:04Z</time>
      </trkpt>
      <trkpt lat="45.12342" lon="6.6014">
        <ele>2463</ele>
        <time>2021-07-14T18:48:10Z</time>
      </trkpt>
      <trkpt lat="45.12338" lon="6.60129">
        <ele>2463</ele>
        <time>2021-07-14T18:48:24Z</time>
      </trkpt>
      <trkpt lat="45.12334" lon="6.60118">
        <ele>2464</ele>
        <time>2021-07-14T18:48:36Z</time>
      </trkpt>
      <trkpt lat="45.12334" lon="6.60096">
        <ele>2469</ele>
        <time>2021-07-14T18:49:18Z</time>
      </trkpt>
      <trkpt lat="45.12331" lon="6.6009">
        <ele>2472</ele>
        <time>2021-07-14T18:49:36Z</time>
      </trkpt>
      <trkpt lat="45.12336" lon="6.6008">
        <ele>2476</ele>
        <time>2021-07-14T18:50:00Z</time>
      </trkpt>
      <trkpt lat="45.1234" lon="6.60071">
        <ele>2477</ele>
        <time>2021-07-14T18:50:24Z</time>
      </trkpt>
      <trkpt lat="45.12343" lon="6.60054">
        <ele>2483</ele>
        <time>2021-07-14T18:51:06Z</time>
      </trkpt>
      <trkpt lat="45.12343" lon="6.60045">
        <ele>2486</ele>
        <time>2021-07-14T18:51:42Z</time>
      </trkpt>
      <trkpt lat="45.12344" lon="6.60036">
        <ele>2488</ele>
        <time>2021-07-14T18:51:54Z</time>
      </trkpt>
      <trkpt lat="45.12344" lon="6.60028">
        <ele>2490</ele>
        <time>2021-07-14T18:52:10Z</time>
      </trkpt>
      <trkpt lat="45.12343" lon="6.60019">
        <ele>2493</ele>
        <time>2021-07-14T18:52:30Z</time>
      </trkpt>
      <trkpt lat="45.12342" lon="6.60011">
        <ele>2494</ele>
        <time>2021-07-14T18:52:37Z</time>
      </trkpt>
      <trkpt lat="45.12337" lon="6.60004">
        <ele>2494</ele>
        <time>2021-07-14T18:52:48Z</time>
      </trkpt>
      <trkpt lat="45.12336" lon="6.59992">
        <ele>2495</ele>
        <time>2021-07-14T18:53:06Z</time>
      </trkpt>
      <trkpt lat="45.12339" lon="6.59983">
        <ele>2497</ele>
        <time>2021-07-14T18:53:18Z</time>
      </trkpt>
      <trkpt lat="45.12389" lon="6.59979">
        <ele>2498</ele>
        <time>2021-07-14T18:54:34Z</time>
      </trkpt>
    </trkseg>
  </trk>
  <trk>
    <name><![CDATA[26 juin 2021 à 06:25:53]]></name>
    <cmt><![CDATA[26 juin 2021 à 06:25:53]]></cmt>
    <trkseg>
      <trkpt lat="45.35654" lon="5.8851">
        <ele>1672</ele>
        <time>2021-06-26T04:25:54Z</time>
      </trkpt>
      <trkpt lat="45.35655" lon="5.88509">
        <ele>1673</ele>
        <time>2021-06-26T04:25:55Z</time>
      </trkpt>
      <trkpt lat="45.35655" lon="5.88506">
        <ele>1672</ele>
        <time>2021-06-26T04:26:01Z</time>
      </trkpt>
      <trkpt lat="45.35655" lon="5.88507">
        <ele>1672</ele>
        <time>2021-06-26T04:26:02Z</time>
      </trkpt>
      <trkpt lat="45.35644" lon="5.88575">
        <ele>1678</ele>
        <time>2021-06-26T04:41:07Z</time>
      </trkpt>
      <trkpt lat="45.35644" lon="5.88575">
        <ele>1678</ele>
        <time>2021-06-26T04:41:08Z</time>
      </trkpt>
      <trkpt lat="45.35641" lon="5.88582">
        <ele>1680</ele>
        <time>2021-06-26T04:41:26Z</time>
      </trkpt>
      <trkpt lat="45.35633" lon="5.88576">
        <ele>1679</ele>
        <time>2021-06-26T04:41:47Z</time>
      </trkpt>
      <trkpt lat="45.35618" lon="5.88591">
        <ele>1685</ele>
        <time>2021-06-26T04:42:18Z</time>
      </trkpt>
      <trkpt lat="45.35613" lon="5.88593">
        <ele>1685</ele>
        <time>2021-06-26T04:42:20Z</time>
      </trkpt>
      <trkpt lat="45.3561" lon="5.88604">
        <ele>1685</ele>
        <time>2021-06-26T04:42:26Z</time>
      </trkpt>
      <trkpt lat="45.35604" lon="5.88606">
        <ele>1688</ele>
        <time>2021-06-26T04:42:30Z</time>
      </trkpt>
      <trkpt lat="45.35609" lon="5.8861">
        <ele>1689</ele>
        <time>2021-06-26T04:45:48Z</time>
      </trkpt>
      <trkpt lat="45.35615" lon="5.88611">
        <ele>1691</ele>
        <time>2021-06-26T04:47:27Z</time>
      </trkpt>
      <trkpt lat="45.35619" lon="5.88612">
        <ele>1691</ele>
        <time>2021-06-26T04:49:14Z</time>
      </trkpt>
      <trkpt lat="45.35622" lon="5.88605">
        <ele>1689</ele>
        <time>2021-06-26T04:49:17Z</time>
      </trkpt>
      <trkpt lat="45.35626" lon="5.88598">
        <ele>1688</ele>
        <time>2021-06-26T04:49:22Z</time>
      </trkpt>
      <trkpt lat="45.35628" lon="5.88586">
        <ele>1688</ele>
        <time>2021-06-26T04:49:43Z</time>
      </trkpt>
      <trkpt lat="45.35635" lon="5.88577">
        <ele>1684</ele>
        <time>2021-06-26T04:49:56Z</time>
      </trkpt>
      <trkpt lat="45.35636" lon="5.88567">
        <ele>1685</ele>
        <time>2021-06-26T04:50:03Z</time>
      </trkpt>
      <trkpt lat="45.35632" lon="5.88558">
        <ele>1684</ele>
        <time>2021-06-26T04:50:42Z</time>
      </trkpt>
      <trkpt lat="45.35639" lon="5.88554">
        <ele>1685</ele>
        <time>2021-06-26T04:51:18Z</time>
      </trkpt>
      <trkpt lat="45.35634" lon="5.88576">
        <ele>1684</ele>
        <time>2021-06-26T04:52:42Z</time>
      </trkpt>
      <trkpt lat="45.35641" lon="5.8858">
        <ele>1683</ele>
        <time>2021-06-26T04:53:58Z</time>
      </trkpt>
      <trkpt lat="45.35645" lon="5.88587">
        <ele>1684</ele>
        <time>2021-06-26T04:54:01Z</time>
      </trkpt>
      <trkpt lat="45.35644" lon="5.88595">
        <ele>1683</ele>
        <time>2021-06-26T04:56:16Z</time>
      </trkpt>
      <trkpt lat="45.35652" lon="5.88592">
        <ele>1682</ele>
        <time>2021-06-26T04:57:28Z</time>
      </trkpt>
      <trkpt lat="45.35646" lon="5.88583">
        <ele>1684</ele>
        <time>2021-06-26T04:57:34Z</time>
      </trkpt>
      <trkpt lat="45.35639" lon="5.88574">
        <ele>1683</ele>
        <time>2021-06-26T04:57:45Z</time>
      </trkpt>
      <trkpt lat="45.35636" lon="5.88562">
        <ele>1687</ele>
        <time>2021-06-26T04:58:05Z</time>
      </trkpt>
      <trkpt lat="45.35636" lon="5.88567">
        <ele>1683</ele>
        <time>2021-06-26T05:00:37Z</time>
      </trkpt>
      <trkpt lat="45.3564" lon="5.88576">
        <ele>1685</ele>
        <time>2021-06-26T05:00:52Z</time>
      </trkpt>
      <trkpt lat="45.35644" lon="5.88593">
        <ele>1684</ele>
        <time>2021-06-26T05:02:07Z</time>
      </trkpt>
      <trkpt lat="45.3565" lon="5.886">
        <ele>1685</ele>
        <time>2021-06-26T05:02:25Z</time>
      </trkpt>
      <trkpt lat="45.35642" lon="5.88606">
        <ele>1685</ele>
        <time>2021-06-26T05:02:40Z</time>
      </trkpt>
      <trkpt lat="45.3564" lon="5.88599">
        <ele>1685</ele>
        <time>2021-06-26T05:04:57Z</time>
      </trkpt>
      <trkpt lat="45.35646" lon="5.88594">
        <ele>1682</ele>
        <time>2021-06-26T05:06:09Z</time>
      </trkpt>
      <trkpt lat="45.35645" lon="5.88605">
        <ele>1684</ele>
        <time>2021-06-26T05:09:52Z</time>
      </trkpt>
      <trkpt lat="45.35649" lon="5.88611">
        <ele>1686</ele>
        <time>2021-06-26T05:09:58Z</time>
      </trkpt>
      <trkpt lat="45.35648" lon="5.88604">
        <ele>1685</ele>
        <time>2021-06-26T05:11:06Z</time>
      </trkpt>
      <trkpt lat="45.35642" lon="5.88599">
        <ele>1684</ele>
        <time>2021-06-26T05:15:22Z</time>
      </trkpt>
      <trkpt lat="45.35639" lon="5.88592">
        <ele>1684</ele>
        <time>2021-06-26T05:17:37Z</time>
      </trkpt>
      <trkpt lat="45.35634" lon="5.88587">
        <ele>1685</ele>
        <time>2021-06-26T05:17:51Z</time>
      </trkpt>
      <trkpt lat="45.35626" lon="5.88581">
        <ele>1686</ele>
        <time>2021-06-26T05:20:03Z</time>
      </trkpt>
      <trkpt lat="45.35625" lon="5.88573">
        <ele>1685</ele>
        <time>2021-06-26T05:22:03Z</time>
      </trkpt>
      <trkpt lat="45.35616" lon="5.88568">
        <ele>1685</ele>
        <time>2021-06-26T05:22:36Z</time>
      </trkpt>
      <trkpt lat="45.35617" lon="5.88574">
        <ele>1685</ele>
        <time>2021-06-26T05:24:11Z</time>
      </trkpt>
      <trkpt lat="45.35623" lon="5.8858">
        <ele>1684</ele>
        <time>2021-06-26T05:25:23Z</time>
      </trkpt>
      <trkpt lat="45.35629" lon="5.88578">
        <ele>1686</ele>
        <time>2021-06-26T05:27:53Z</time>
      </trkpt>
      <trkpt lat="45.35628" lon="5.88583">
        <ele>1685</ele>
        <time>2021-06-26T05:49:14Z</time>
      </trkpt>
      <trkpt lat="45.35636" lon="5.88577">
        <ele>1685</ele>
        <time>2021-06-26T05:50:45Z</time>
      </trkpt>
      <trkpt lat="45.35645" lon="5.88579">
        <ele>1685</ele>
        <time>2021-06-26T05:50:59Z</time>
      </trkpt>
      <trkpt lat="45.35651" lon="5.88578">
        <ele>1679</ele>
        <time>2021-06-26T05:51:09Z</time>
      </trkpt>
      <trkpt lat="45.35655" lon="5.88567">
        <ele>1682</ele>
        <time>2021-06-26T05:51:21Z</time>
      </trkpt>
      <trkpt lat="45.35654" lon="5.88558">
        <ele>1680</ele>
        <time>2021-06-26T05:51:28Z</time>
      </trkpt>
      <trkpt lat="45.35652" lon="5.8855">
        <ele>1682</ele>
        <time>2021-06-26T05:51:38Z</time>
      </trkpt>
      <trkpt lat="45.35651" lon="5.88537">
        <ele>1679</ele>
        <time>2021-06-26T05:51:51Z</time>
      </trkpt>
      <trkpt lat="45.35646" lon="5.88521">
        <ele>1682</ele>
        <time>2021-06-26T05:52:01Z</time>
      </trkpt>
      <trkpt lat="45.35653" lon="5.88516">
        <ele>1678</ele>
        <time>2021-06-26T05:52:09Z</time>
      </trkpt>
      <trkpt lat="45.35659" lon="5.88513">
        <ele>1675</ele>
        <time>2021-06-26T05:52:29Z</time>
      </trkpt>
      <trkpt lat="45.35656" lon="5.88517">
        <ele>1678</ele>
        <time>2021-06-26T05:53:16Z</time>
      </trkpt>
      <trkpt lat="45.35662" lon="5.88524">
        <ele>1679</ele>
        <time>2021-06-26T05:54:37Z</time>
      </trkpt>
      <trkpt lat="45.35663" lon="5.88514">
        <ele>1676</ele>
        <time>2021-06-26T05:59:30Z</time>
      </trkpt>
      <trkpt lat="45.3567" lon="5.88519">
        <ele>1677</ele>
        <time>2021-06-26T06:00:19Z</time>
      </trkpt>
      <trkpt lat="45.35669" lon="5.88519">
        <ele>1672</ele>
        <time>2021-06-26T06:01:54Z</time>
      </trkpt>
      <trkpt lat="45.35663" lon="5.88516">
        <ele>1676</ele>
        <time>2021-06-26T06:02:54Z</time>
      </trkpt>
      <trkpt lat="45.35664" lon="5.88518">
        <ele>1677</ele>
        <time>2021-06-26T06:05:25Z</time>
      </trkpt>
      <trkpt lat="45.35664" lon="5.88521">
        <ele>1677</ele>
        <time>2021-06-26T06:07:19Z</time>
      </trkpt>
      <trkpt lat="45.3566" lon="5.88522">
        <ele>1675</ele>
        <time>2021-06-26T06:16:46Z</time>
      </trkpt>
      <trkpt lat="45.35655" lon="5.88513">
        <ele>1671</ele>
        <time>2021-06-26T06:17:22Z</time>
      </trkpt>
      <trkpt lat="45.35641" lon="5.885">
        <ele>1668</ele>
        <time>2021-06-26T06:19:22Z</time>
      </trkpt>
      <trkpt lat="45.35643" lon="5.88473">
        <ele>1667</ele>
        <time>2021-06-26T06:19:55Z</time>
      </trkpt>
      <trkpt lat="45.35632" lon="5.88454">
        <ele>1667</ele>
        <time>2021-06-26T06:20:28Z</time>
      </trkpt>
      <trkpt lat="45.35618" lon="5.88448">
        <ele>1665</ele>
        <time>2021-06-26T06:21:17Z</time>
      </trkpt>
      <trkpt lat="45.35598" lon="5.88439">
        <ele>1668</ele>
        <time>2021-06-26T06:22:48Z</time>
      </trkpt>
      <trkpt lat="45.35581" lon="5.88447">
        <ele>1670</ele>
        <time>2021-06-26T06:23:18Z</time>
      </trkpt>
      <trkpt lat="45.35565" lon="5.88445">
        <ele>1671</ele>
        <time>2021-06-26T06:23:49Z</time>
      </trkpt>
      <trkpt lat="45.35551" lon="5.88438">
        <ele>1675</ele>
        <time>2021-06-26T06:24:45Z</time>
      </trkpt>
      <trkpt lat="45.35509" lon="5.88426">
        <ele>1683</ele>
        <time>2021-06-26T06:25:54Z</time>
      </trkpt>
      <trkpt lat="45.35494" lon="5.88416">
        <ele>1683</ele>
        <time>2021-06-26T06:26:33Z</time>
      </trkpt>
      <trkpt lat="45.35479" lon="5.88403">
        <ele>1684</ele>
        <time>2021-06-26T06:27:59Z</time>
      </trkpt>
      <trkpt lat="45.35469" lon="5.88387">
        <ele>1682</ele>
        <time>2021-06-26T06:28:53Z</time>
      </trkpt>
      <trkpt lat="45.35475" lon="5.88382">
        <ele>1682</ele>
        <time>2021-06-26T06:43:53Z</time>
      </trkpt>
      <trkpt lat="45.3546" lon="5.88374">
        <ele>1682</ele>
        <time>2021-06-26T06:52:16Z</time>
      </trkpt>
      <trkpt lat="45.35476" lon="5.88378">
        <ele>1676</ele>
        <time>2021-06-26T07:06:24Z</time>
      </trkpt>
      <trkpt lat="45.35489" lon="5.88389">
        <ele>1681</ele>
        <time>2021-06-26T07:34:13Z</time>
      </trkpt>
      <trkpt lat="45.35487" lon="5.88374">
        <ele>1680</ele>
        <time>2021-06-26T07:34:51Z</time>
      </trkpt>
      <trkpt lat="45.35484" lon="5.88368">
        <ele>1683</ele>
        <time>2021-06-26T07:35:04Z</time>
      </trkpt>
      <trkpt lat="45.35477" lon="5.88372">
        <ele>1680</ele>
        <time>2021-06-26T07:36:10Z</time>
      </trkpt>
      <trkpt lat="45.35479" lon="5.88369">
        <ele>1680</ele>
        <time>2021-06-26T09:09:53Z</time>
      </trkpt>
      <trkpt lat="45.55224" lon="5.93777">
        <ele>366</ele>
        <time>2021-06-27T16:32:47Z</time>
      </trkpt>
      <trkpt lat="45.55224" lon="5.93777">
        <ele>366</ele>
        <time>2021-06-27T16:32:56Z</time>
      </trkpt>
      <trkpt lat="45.55229" lon="5.93775">
        <ele>365</ele>
        <time>2021-06-27T19:58:42Z</time>
      </trkpt>
      <trkpt lat="45.55229" lon="5.93775">
        <ele>365</ele>
        <time>2021-06-27T19:58:51Z</time>
      </trkpt>
    </trkseg>
  </trk>
  <trk>
    <name><![CDATA[25 juin 2021 à 19:24:04]]></name>
    <cmt><![CDATA[25 juin 2021 à 19:24:04]]></cmt>
    <trkseg>
      <trkpt lat="45.3587" lon="5.91099">
        <ele>1240</ele>
        <time>2021-06-25T17:24:05Z</time>
      </trkpt>
      <trkpt lat="45.3587" lon="5.91098">
        <ele>1240</ele>
        <time>2021-06-25T17:24:06Z</time>
      </trkpt>
      <trkpt lat="45.35846" lon="5.91048">
        <ele>1252</ele>
        <time>2021-06-25T17:25:40Z</time>
      </trkpt>
      <trkpt lat="45.35846" lon="5.91047">
        <ele>1252</ele>
        <time>2021-06-25T17:25:41Z</time>
      </trkpt>
      <trkpt lat="45.35844" lon="5.91037">
        <ele>1254</ele>
        <time>2021-06-25T17:25:59Z</time>
      </trkpt>
      <trkpt lat="45.35842" lon="5.91029">
        <ele>1255</ele>
        <time>2021-06-25T17:26:09Z</time>
      </trkpt>
      <trkpt lat="45.35839" lon="5.91021">
        <ele>1258</ele>
        <time>2021-06-25T17:26:25Z</time>
      </trkpt>
      <trkpt lat="45.35837" lon="5.9101">
        <ele>1260</ele>
        <time>2021-06-25T17:26:37Z</time>
      </trkpt>
      <trkpt lat="45.35835" lon="5.91003">
        <ele>1262</ele>
        <time>2021-06-25T17:26:49Z</time>
      </trkpt>
      <trkpt lat="45.35834" lon="5.9099">
        <ele>1263</ele>
        <time>2021-06-25T17:27:02Z</time>
      </trkpt>
      <trkpt lat="45.35834" lon="5.90981">
        <ele>1266</ele>
        <time>2021-06-25T17:27:18Z</time>
      </trkpt>
      <trkpt lat="45.35837" lon="5.90956">
        <ele>1274</ele>
        <time>2021-06-25T17:28:14Z</time>
      </trkpt>
      <trkpt lat="45.35836" lon="5.90944">
        <ele>1276</ele>
        <time>2021-06-25T17:28:27Z</time>
      </trkpt>
      <trkpt lat="45.35826" lon="5.9093">
        <ele>1280</ele>
        <time>2021-06-25T17:28:58Z</time>
      </trkpt>
      <trkpt lat="45.35818" lon="5.90916">
        <ele>1283</ele>
        <time>2021-06-25T17:29:24Z</time>
      </trkpt>
      <trkpt lat="45.35816" lon="5.90903">
        <ele>1286</ele>
        <time>2021-06-25T17:29:44Z</time>
      </trkpt>
      <trkpt lat="45.35812" lon="5.90895">
        <ele>1287</ele>
        <time>2021-06-25T17:29:59Z</time>
      </trkpt>
      <trkpt lat="45.35811" lon="5.90884">
        <ele>1289</ele>
        <time>2021-06-25T17:30:19Z</time>
      </trkpt>
      <trkpt lat="45.35809" lon="5.90863">
        <ele>1294</ele>
        <time>2021-06-25T17:31:07Z</time>
      </trkpt>
      <trkpt lat="45.35807" lon="5.9085">
        <ele>1298</ele>
        <time>2021-06-25T17:31:31Z</time>
      </trkpt>
      <trkpt lat="45.35808" lon="5.90837">
        <ele>1301</ele>
        <time>2021-06-25T17:31:56Z</time>
      </trkpt>
      <trkpt lat="45.35806" lon="5.9083">
        <ele>1303</ele>
        <time>2021-06-25T17:32:11Z</time>
      </trkpt>
      <trkpt lat="45.35806" lon="5.90819">
        <ele>1306</ele>
        <time>2021-06-25T17:32:31Z</time>
      </trkpt>
      <trkpt lat="45.35806" lon="5.90805">
        <ele>1310</ele>
        <time>2021-06-25T17:32:53Z</time>
      </trkpt>
      <trkpt lat="45.35806" lon="5.90796">
        <ele>1312</ele>
        <time>2021-06-25T17:33:08Z</time>
      </trkpt>
      <trkpt lat="45.35808" lon="5.90789">
        <ele>1314</ele>
        <time>2021-06-25T17:33:28Z</time>
      </trkpt>
      <trkpt lat="45.35808" lon="5.90774">
        <ele>1321</ele>
        <time>2021-06-25T17:34:10Z</time>
      </trkpt>
      <trkpt lat="45.35804" lon="5.90761">
        <ele>1324</ele>
        <time>2021-06-25T17:34:33Z</time>
      </trkpt>
      <trkpt lat="45.35799" lon="5.90765">
        <ele>1325</ele>
        <time>2021-06-25T17:34:43Z</time>
      </trkpt>
      <trkpt lat="45.35791" lon="5.90758">
        <ele>1326</ele>
        <time>2021-06-25T17:34:53Z</time>
      </trkpt>
      <trkpt lat="45.35785" lon="5.9075">
        <ele>1327</ele>
        <time>2021-06-25T17:35:05Z</time>
      </trkpt>
      <trkpt lat="45.35778" lon="5.90747">
        <ele>1328</ele>
        <time>2021-06-25T17:35:15Z</time>
      </trkpt>
      <trkpt lat="45.35773" lon="5.90739">
        <ele>1332</ele>
        <time>2021-06-25T17:35:40Z</time>
      </trkpt>
      <trkpt lat="45.35766" lon="5.90737">
        <ele>1334</ele>
        <time>2021-06-25T17:36:05Z</time>
      </trkpt>
      <trkpt lat="45.35769" lon="5.90748">
        <ele>1332</ele>
        <time>2021-06-25T17:36:30Z</time>
      </trkpt>
      <trkpt lat="45.35783" lon="5.90761">
        <ele>1329</ele>
        <time>2021-06-25T17:36:44Z</time>
      </trkpt>
      <trkpt lat="45.35778" lon="5.90746">
        <ele>1331</ele>
        <time>2021-06-25T17:37:18Z</time>
      </trkpt>
      <trkpt lat="45.35778" lon="5.90745">
        <ele>1331</ele>
        <time>2021-06-25T17:37:37Z</time>
      </trkpt>
      <trkpt lat="45.35771" lon="5.90742">
        <ele>1332</ele>
        <time>2021-06-25T17:37:48Z</time>
      </trkpt>
      <trkpt lat="45.35764" lon="5.90733">
        <ele>1335</ele>
        <time>2021-06-25T17:38:18Z</time>
      </trkpt>
      <trkpt lat="45.35758" lon="5.90723">
        <ele>1338</ele>
        <time>2021-06-25T17:38:58Z</time>
      </trkpt>
      <trkpt lat="45.35752" lon="5.90704">
        <ele>1341</ele>
        <time>2021-06-25T17:44:51Z</time>
      </trkpt>
      <trkpt lat="45.35739" lon="5.90681">
        <ele>1349</ele>
        <time>2021-06-25T17:47:13Z</time>
      </trkpt>
      <trkpt lat="45.35733" lon="5.90657">
        <ele>1354</ele>
        <time>2021-06-25T17:47:40Z</time>
      </trkpt>
      <trkpt lat="45.35731" lon="5.90649">
        <ele>1355</ele>
        <time>2021-06-25T17:47:45Z</time>
      </trkpt>
      <trkpt lat="45.35717" lon="5.90612">
        <ele>1362</ele>
        <time>2021-06-25T17:48:22Z</time>
      </trkpt>
      <trkpt lat="45.35701" lon="5.90581">
        <ele>1368</ele>
        <time>2021-06-25T17:48:52Z</time>
      </trkpt>
      <trkpt lat="45.35695" lon="5.90575">
        <ele>1371</ele>
        <time>2021-06-25T17:49:02Z</time>
      </trkpt>
      <trkpt lat="45.35682" lon="5.90562">
        <ele>1374</ele>
        <time>2021-06-25T17:49:16Z</time>
      </trkpt>
      <trkpt lat="45.35665" lon="5.90513">
        <ele>1383</ele>
        <time>2021-06-25T17:49:54Z</time>
      </trkpt>
      <trkpt lat="45.35663" lon="5.90499">
        <ele>1387</ele>
        <time>2021-06-25T17:50:07Z</time>
      </trkpt>
      <trkpt lat="45.35661" lon="5.90487">
        <ele>1389</ele>
        <time>2021-06-25T17:50:20Z</time>
      </trkpt>
      <trkpt lat="45.35663" lon="5.90473">
        <ele>1391</ele>
        <time>2021-06-25T17:50:43Z</time>
      </trkpt>
      <trkpt lat="45.35661" lon="5.90462">
        <ele>1393</ele>
        <time>2021-06-25T17:50:55Z</time>
      </trkpt>
      <trkpt lat="45.35657" lon="5.90454">
        <ele>1396</ele>
        <time>2021-06-25T17:51:02Z</time>
      </trkpt>
      <trkpt lat="45.35629" lon="5.90412">
        <ele>1402</ele>
        <time>2021-06-25T17:51:33Z</time>
      </trkpt>
      <trkpt lat="45.35602" lon="5.90388">
        <ele>1408</ele>
        <time>2021-06-25T17:52:00Z</time>
      </trkpt>
      <trkpt lat="45.35592" lon="5.90372">
        <ele>1410</ele>
        <time>2021-06-25T17:52:12Z</time>
      </trkpt>
      <trkpt lat="45.35588" lon="5.90363">
        <ele>1413</ele>
        <time>2021-06-25T17:52:18Z</time>
      </trkpt>
      <trkpt lat="45.3558" lon="5.90356">
        <ele>1415</ele>
        <time>2021-06-25T17:52:28Z</time>
      </trkpt>
      <trkpt lat="45.35568" lon="5.90338">
        <ele>1424</ele>
        <time>2021-06-25T17:53:05Z</time>
      </trkpt>
      <trkpt lat="45.35559" lon="5.9033">
        <ele>1428</ele>
        <time>2021-06-25T17:53:18Z</time>
      </trkpt>
      <trkpt lat="45.35548" lon="5.90308">
        <ele>1437</ele>
        <time>2021-06-25T17:53:52Z</time>
      </trkpt>
      <trkpt lat="45.35543" lon="5.903">
        <ele>1438</ele>
        <time>2021-06-25T17:53:58Z</time>
      </trkpt>
      <trkpt lat="45.35535" lon="5.90291">
        <ele>1441</ele>
        <time>2021-06-25T17:54:10Z</time>
      </trkpt>
      <trkpt lat="45.3553" lon="5.90282">
        <ele>1443</ele>
        <time>2021-06-25T17:54:17Z</time>
      </trkpt>
      <trkpt lat="45.35511" lon="5.9028">
        <ele>1446</ele>
        <time>2021-06-25T17:54:29Z</time>
      </trkpt>
      <trkpt lat="45.35497" lon="5.90286">
        <ele>1449</ele>
        <time>2021-06-25T17:54:41Z</time>
      </trkpt>
      <trkpt lat="45.35481" lon="5.90296">
        <ele>1453</ele>
        <time>2021-06-25T17:54:57Z</time>
      </trkpt>
      <trkpt lat="45.35475" lon="5.9029">
        <ele>1456</ele>
        <time>2021-06-25T17:55:09Z</time>
      </trkpt>
      <trkpt lat="45.35471" lon="5.90283">
        <ele>1457</ele>
        <time>2021-06-25T17:55:48Z</time>
      </trkpt>
      <trkpt lat="45.35465" lon="5.9028">
        <ele>1455</ele>
        <time>2021-06-25T17:57:51Z</time>
      </trkpt>
      <trkpt lat="45.35471" lon="5.90275">
        <ele>1460</ele>
        <time>2021-06-25T17:58:07Z</time>
      </trkpt>
      <trkpt lat="45.35475" lon="5.90267">
        <ele>1462</ele>
        <time>2021-06-25T17:58:18Z</time>
      </trkpt>
      <trkpt lat="45.35472" lon="5.90256">
        <ele>1464</ele>
        <time>2021-06-25T17:58:39Z</time>
      </trkpt>
      <trkpt lat="45.35472" lon="5.90249">
        <ele>1467</ele>
        <time>2021-06-25T17:58:49Z</time>
      </trkpt>
      <trkpt lat="45.3547" lon="5.9024">
        <ele>1466</ele>
        <time>2021-06-25T17:59:14Z</time>
      </trkpt>
      <trkpt lat="45.35475" lon="5.90227">
        <ele>1468</ele>
        <time>2021-06-25T17:59:40Z</time>
      </trkpt>
      <trkpt lat="45.35474" lon="5.90219">
        <ele>1469</ele>
        <time>2021-06-25T17:59:48Z</time>
      </trkpt>
      <trkpt lat="45.35476" lon="5.90205">
        <ele>1468</ele>
        <time>2021-06-25T17:59:59Z</time>
      </trkpt>
      <trkpt lat="45.35482" lon="5.90196">
        <ele>1471</ele>
        <time>2021-06-25T18:00:18Z</time>
      </trkpt>
      <trkpt lat="45.35487" lon="5.90186">
        <ele>1471</ele>
        <time>2021-06-25T18:00:27Z</time>
      </trkpt>
      <trkpt lat="45.35493" lon="5.90168">
        <ele>1473</ele>
        <time>2021-06-25T18:00:49Z</time>
      </trkpt>
      <trkpt lat="45.35501" lon="5.90163">
        <ele>1476</ele>
        <time>2021-06-25T18:01:01Z</time>
      </trkpt>
      <trkpt lat="45.35508" lon="5.90161">
        <ele>1478</ele>
        <time>2021-06-25T18:01:15Z</time>
      </trkpt>
      <trkpt lat="45.35517" lon="5.9016">
        <ele>1481</ele>
        <time>2021-06-25T18:01:28Z</time>
      </trkpt>
      <trkpt lat="45.35527" lon="5.90157">
        <ele>1481</ele>
        <time>2021-06-25T18:01:41Z</time>
      </trkpt>
      <trkpt lat="45.35535" lon="5.90159">
        <ele>1484</ele>
        <time>2021-06-25T18:02:02Z</time>
      </trkpt>
      <trkpt lat="45.35543" lon="5.90158">
        <ele>1486</ele>
        <time>2021-06-25T18:02:19Z</time>
      </trkpt>
      <trkpt lat="45.35574" lon="5.90148">
        <ele>1493</ele>
        <time>2021-06-25T18:03:20Z</time>
      </trkpt>
      <trkpt lat="45.35589" lon="5.90149">
        <ele>1505</ele>
        <time>2021-06-25T18:04:00Z</time>
      </trkpt>
      <trkpt lat="45.35602" lon="5.90158">
        <ele>1504</ele>
        <time>2021-06-25T18:04:35Z</time>
      </trkpt>
      <trkpt lat="45.35615" lon="5.90146">
        <ele>1508</ele>
        <time>2021-06-25T18:05:11Z</time>
      </trkpt>
      <trkpt lat="45.35648" lon="5.9015">
        <ele>1520</ele>
        <time>2021-06-25T18:06:08Z</time>
      </trkpt>
      <trkpt lat="45.35668" lon="5.90143">
        <ele>1531</ele>
        <time>2021-06-25T18:06:39Z</time>
      </trkpt>
      <trkpt lat="45.35682" lon="5.90143">
        <ele>1533</ele>
        <time>2021-06-25T18:07:19Z</time>
      </trkpt>
      <trkpt lat="45.35686" lon="5.90134">
        <ele>1535</ele>
        <time>2021-06-25T18:08:29Z</time>
      </trkpt>
      <trkpt lat="45.35685" lon="5.90121">
        <ele>1538</ele>
        <time>2021-06-25T18:08:49Z</time>
      </trkpt>
      <trkpt lat="45.35674" lon="5.90124">
        <ele>1543</ele>
        <time>2021-06-25T18:09:30Z</time>
      </trkpt>
      <trkpt lat="45.35661" lon="5.90112">
        <ele>1549</ele>
        <time>2021-06-25T18:09:47Z</time>
      </trkpt>
      <trkpt lat="45.35657" lon="5.90102">
        <ele>1545</ele>
        <time>2021-06-25T18:09:57Z</time>
      </trkpt>
      <trkpt lat="45.35648" lon="5.90098">
        <ele>1545</ele>
        <time>2021-06-25T18:10:19Z</time>
      </trkpt>
      <trkpt lat="45.35645" lon="5.90084">
        <ele>1550</ele>
        <time>2021-06-25T18:10:32Z</time>
      </trkpt>
      <trkpt lat="45.35649" lon="5.90074">
        <ele>1552</ele>
        <time>2021-06-25T18:11:11Z</time>
      </trkpt>
      <trkpt lat="45.35639" lon="5.90056">
        <ele>1553</ele>
        <time>2021-06-25T18:12:44Z</time>
      </trkpt>
      <trkpt lat="45.35633" lon="5.90044">
        <ele>1555</ele>
        <time>2021-06-25T18:13:15Z</time>
      </trkpt>
      <trkpt lat="45.35619" lon="5.9002">
        <ele>1564</ele>
        <time>2021-06-25T18:14:02Z</time>
      </trkpt>
      <trkpt lat="45.35629" lon="5.90003">
        <ele>1563</ele>
        <time>2021-06-25T18:14:25Z</time>
      </trkpt>
      <trkpt lat="45.35615" lon="5.89991">
        <ele>1574</ele>
        <time>2021-06-25T18:15:19Z</time>
      </trkpt>
      <trkpt lat="45.35626" lon="5.89947">
        <ele>1584</ele>
        <time>2021-06-25T18:16:49Z</time>
      </trkpt>
      <trkpt lat="45.35632" lon="5.89905">
        <ele>1596</ele>
        <time>2021-06-25T18:19:34Z</time>
      </trkpt>
      <trkpt lat="45.35636" lon="5.89854">
        <ele>1603</ele>
        <time>2021-06-25T18:21:08Z</time>
      </trkpt>
      <trkpt lat="45.3563" lon="5.89812">
        <ele>1623</ele>
        <time>2021-06-25T18:23:45Z</time>
      </trkpt>
      <trkpt lat="45.35614" lon="5.89775">
        <ele>1630</ele>
        <time>2021-06-25T18:25:08Z</time>
      </trkpt>
      <trkpt lat="45.35607" lon="5.89744">
        <ele>1631</ele>
        <time>2021-06-25T18:26:19Z</time>
      </trkpt>
      <trkpt lat="45.356" lon="5.89725">
        <ele>1645</ele>
        <time>2021-06-25T18:27:14Z</time>
      </trkpt>
      <trkpt lat="45.35603" lon="5.89704">
        <ele>1650</ele>
        <time>2021-06-25T18:28:29Z</time>
      </trkpt>
      <trkpt lat="45.35599" lon="5.89684">
        <ele>1660</ele>
        <time>2021-06-25T18:29:54Z</time>
      </trkpt>
      <trkpt lat="45.35614" lon="5.89648">
        <ele>1673</ele>
        <time>2021-06-25T18:32:10Z</time>
      </trkpt>
      <trkpt lat="45.35641" lon="5.89668">
        <ele>1685</ele>
        <time>2021-06-25T18:33:47Z</time>
      </trkpt>
      <trkpt lat="45.35641" lon="5.89622">
        <ele>1696</ele>
        <time>2021-06-25T18:36:05Z</time>
      </trkpt>
      <trkpt lat="45.35642" lon="5.89578">
        <ele>1710</ele>
        <time>2021-06-25T18:37:38Z</time>
      </trkpt>
      <trkpt lat="45.35675" lon="5.89578">
        <ele>1720</ele>
        <time>2021-06-25T18:39:19Z</time>
      </trkpt>
      <trkpt lat="45.35678" lon="5.89536">
        <ele>1728</ele>
        <time>2021-06-25T18:40:21Z</time>
      </trkpt>
      <trkpt lat="45.35702" lon="5.89565">
        <ele>1745</ele>
        <time>2021-06-25T18:44:49Z</time>
      </trkpt>
      <trkpt lat="45.35711" lon="5.89524">
        <ele>1754</ele>
        <time>2021-06-25T18:45:59Z</time>
      </trkpt>
      <trkpt lat="45.35744" lon="5.89547">
        <ele>1772</ele>
        <time>2021-06-25T18:48:14Z</time>
      </trkpt>
      <trkpt lat="45.35758" lon="5.89536">
        <ele>1781</ele>
        <time>2021-06-25T18:50:41Z</time>
      </trkpt>
      <trkpt lat="45.35785" lon="5.8957">
        <ele>1785</ele>
        <time>2021-06-25T18:51:50Z</time>
      </trkpt>
      <trkpt lat="45.35806" lon="5.89605">
        <ele>1794</ele>
        <time>2021-06-25T18:52:46Z</time>
      </trkpt>
      <trkpt lat="45.3579" lon="5.89661">
        <ele>1801</ele>
        <time>2021-06-25T18:53:35Z</time>
      </trkpt>
      <trkpt lat="45.35786" lon="5.89682">
        <ele>1797</ele>
        <time>2021-06-25T18:53:53Z</time>
      </trkpt>
      <trkpt lat="45.35776" lon="5.897">
        <ele>1800</ele>
        <time>2021-06-25T18:54:09Z</time>
      </trkpt>
      <trkpt lat="45.35769" lon="5.89718">
        <ele>1801</ele>
        <time>2021-06-25T18:54:30Z</time>
      </trkpt>
      <trkpt lat="45.35759" lon="5.89739">
        <ele>1800</ele>
        <time>2021-06-25T18:54:54Z</time>
      </trkpt>
      <trkpt lat="45.35755" lon="5.89764">
        <ele>1806</ele>
        <time>2021-06-25T18:55:20Z</time>
      </trkpt>
      <trkpt lat="45.35762" lon="5.89785">
        <ele>1805</ele>
        <time>2021-06-25T18:55:42Z</time>
      </trkpt>
      <trkpt lat="45.35778" lon="5.89802">
        <ele>1807</ele>
        <time>2021-06-25T18:56:14Z</time>
      </trkpt>
      <trkpt lat="45.35788" lon="5.89779">
        <ele>1805</ele>
        <time>2021-06-25T18:56:36Z</time>
      </trkpt>
      <trkpt lat="45.35794" lon="5.8976">
        <ele>1800</ele>
        <time>2021-06-25T18:56:57Z</time>
      </trkpt>
      <trkpt lat="45.35803" lon="5.89741">
        <ele>1799</ele>
        <time>2021-06-25T18:57:18Z</time>
      </trkpt>
      <trkpt lat="45.35819" lon="5.89732">
        <ele>1806</ele>
        <time>2021-06-25T18:57:57Z</time>
      </trkpt>
      <trkpt lat="45.35834" lon="5.897">
        <ele>1832</ele>
        <time>2021-06-25T19:06:26Z</time>
      </trkpt>
      <trkpt lat="45.35842" lon="5.89718">
        <ele>1833</ele>
        <time>2021-06-25T19:06:38Z</time>
      </trkpt>
      <trkpt lat="45.35839" lon="5.89722">
        <ele>1835</ele>
        <time>2021-06-25T19:07:48Z</time>
      </trkpt>
      <trkpt lat="45.35841" lon="5.89721">
        <ele>1833</ele>
        <time>2021-06-25T19:09:18Z</time>
      </trkpt>
      <trkpt lat="45.35832" lon="5.897">
        <ele>1827</ele>
        <time>2021-06-25T19:09:53Z</time>
      </trkpt>
      <trkpt lat="45.3582" lon="5.8969">
        <ele>1827</ele>
        <time>2021-06-25T19:10:48Z</time>
      </trkpt>
      <trkpt lat="45.3583" lon="5.89674">
        <ele>1823</ele>
        <time>2021-06-25T19:12:08Z</time>
      </trkpt>
      <trkpt lat="45.35827" lon="5.89649">
        <ele>1814</ele>
        <time>2021-06-25T19:13:10Z</time>
      </trkpt>
      <trkpt lat="45.35827" lon="5.89629">
        <ele>1812</ele>
        <time>2021-06-25T19:13:19Z</time>
      </trkpt>
      <trkpt lat="45.35817" lon="5.89603">
        <ele>1804</ele>
        <time>2021-06-25T19:14:24Z</time>
      </trkpt>
      <trkpt lat="45.35811" lon="5.89577">
        <ele>1797</ele>
        <time>2021-06-25T19:14:48Z</time>
      </trkpt>
      <trkpt lat="45.35796" lon="5.89534">
        <ele>1788</ele>
        <time>2021-06-25T19:15:24Z</time>
      </trkpt>
      <trkpt lat="45.35792" lon="5.89512">
        <ele>1785</ele>
        <time>2021-06-25T19:15:39Z</time>
      </trkpt>
      <trkpt lat="45.35799" lon="5.89504">
        <ele>1781</ele>
        <time>2021-06-25T19:16:01Z</time>
      </trkpt>
      <trkpt lat="45.35801" lon="5.89494">
        <ele>1777</ele>
        <time>2021-06-25T19:16:12Z</time>
      </trkpt>
      <trkpt lat="45.35803" lon="5.89476">
        <ele>1772</ele>
        <time>2021-06-25T19:16:29Z</time>
      </trkpt>
      <trkpt lat="45.35802" lon="5.89466">
        <ele>1769</ele>
        <time>2021-06-25T19:16:39Z</time>
      </trkpt>
      <trkpt lat="45.35805" lon="5.89425">
        <ele>1761</ele>
        <time>2021-06-25T19:17:11Z</time>
      </trkpt>
      <trkpt lat="45.35807" lon="5.89396">
        <ele>1755</ele>
        <time>2021-06-25T19:17:33Z</time>
      </trkpt>
      <trkpt lat="45.35804" lon="5.89378">
        <ele>1753</ele>
        <time>2021-06-25T19:17:47Z</time>
      </trkpt>
      <trkpt lat="45.35804" lon="5.89324">
        <ele>1742</ele>
        <time>2021-06-25T19:18:21Z</time>
      </trkpt>
      <trkpt lat="45.35804" lon="5.89313">
        <ele>1741</ele>
        <time>2021-06-25T19:18:28Z</time>
      </trkpt>
      <trkpt lat="45.35795" lon="5.89286">
        <ele>1735</ele>
        <time>2021-06-25T19:18:52Z</time>
      </trkpt>
      <trkpt lat="45.35794" lon="5.89269">
        <ele>1731</ele>
        <time>2021-06-25T19:19:07Z</time>
      </trkpt>
      <trkpt lat="45.3579" lon="5.89256">
        <ele>1730</ele>
        <time>2021-06-25T19:19:17Z</time>
      </trkpt>
      <trkpt lat="45.35789" lon="5.89245">
        <ele>1732</ele>
        <time>2021-06-25T19:19:23Z</time>
      </trkpt>
      <trkpt lat="45.35786" lon="5.89235">
        <ele>1730</ele>
        <time>2021-06-25T19:19:29Z</time>
      </trkpt>
      <trkpt lat="45.35786" lon="5.89223">
        <ele>1731</ele>
        <time>2021-06-25T19:19:35Z</time>
      </trkpt>
      <trkpt lat="45.35787" lon="5.89211">
        <ele>1726</ele>
        <time>2021-06-25T19:19:45Z</time>
      </trkpt>
      <trkpt lat="45.35784" lon="5.89202">
        <ele>1727</ele>
        <time>2021-06-25T19:19:52Z</time>
      </trkpt>
      <trkpt lat="45.35779" lon="5.89193">
        <ele>1727</ele>
        <time>2021-06-25T19:19:58Z</time>
      </trkpt>
      <trkpt lat="45.35776" lon="5.89182">
        <ele>1724</ele>
        <time>2021-06-25T19:20:04Z</time>
      </trkpt>
      <trkpt lat="45.35775" lon="5.89171">
        <ele>1725</ele>
        <time>2021-06-25T19:20:12Z</time>
      </trkpt>
      <trkpt lat="45.35776" lon="5.89161">
        <ele>1722</ele>
        <time>2021-06-25T19:20:19Z</time>
      </trkpt>
      <trkpt lat="45.35771" lon="5.89135">
        <ele>1718</ele>
        <time>2021-06-25T19:20:37Z</time>
      </trkpt>
      <trkpt lat="45.35768" lon="5.89125">
        <ele>1718</ele>
        <time>2021-06-25T19:20:44Z</time>
      </trkpt>
      <trkpt lat="45.35765" lon="5.89115">
        <ele>1716</ele>
        <time>2021-06-25T19:20:52Z</time>
      </trkpt>
      <trkpt lat="45.35763" lon="5.89109">
        <ele>1719</ele>
        <time>2021-06-25T19:20:56Z</time>
      </trkpt>
      <trkpt lat="45.35758" lon="5.891">
        <ele>1712</ele>
        <time>2021-06-25T19:21:10Z</time>
      </trkpt>
      <trkpt lat="45.35755" lon="5.89089">
        <ele>1713</ele>
        <time>2021-06-25T19:21:18Z</time>
      </trkpt>
      <trkpt lat="45.35753" lon="5.89078">
        <ele>1709</ele>
        <time>2021-06-25T19:21:32Z</time>
      </trkpt>
      <trkpt lat="45.35751" lon="5.89065">
        <ele>1711</ele>
        <time>2021-06-25T19:21:39Z</time>
      </trkpt>
      <trkpt lat="45.3575" lon="5.89054">
        <ele>1710</ele>
        <time>2021-06-25T19:21:46Z</time>
      </trkpt>
      <trkpt lat="45.35748" lon="5.89043">
        <ele>1711</ele>
        <time>2021-06-25T19:21:52Z</time>
      </trkpt>
      <trkpt lat="45.35747" lon="5.89033">
        <ele>1710</ele>
        <time>2021-06-25T19:21:59Z</time>
      </trkpt>
      <trkpt lat="45.35744" lon="5.89023">
        <ele>1710</ele>
        <time>2021-06-25T19:22:05Z</time>
      </trkpt>
      <trkpt lat="45.35739" lon="5.89005">
        <ele>1707</ele>
        <time>2021-06-25T19:22:19Z</time>
      </trkpt>
      <trkpt lat="45.35736" lon="5.88994">
        <ele>1705</ele>
        <time>2021-06-25T19:22:26Z</time>
      </trkpt>
      <trkpt lat="45.35733" lon="5.88984">
        <ele>1706</ele>
        <time>2021-06-25T19:22:32Z</time>
      </trkpt>
      <trkpt lat="45.3573" lon="5.88965">
        <ele>1704</ele>
        <time>2021-06-25T19:22:47Z</time>
      </trkpt>
      <trkpt lat="45.35729" lon="5.88955">
        <ele>1707</ele>
        <time>2021-06-25T19:22:52Z</time>
      </trkpt>
      <trkpt lat="45.35729" lon="5.8893">
        <ele>1702</ele>
        <time>2021-06-25T19:23:05Z</time>
      </trkpt>
      <trkpt lat="45.35727" lon="5.88921">
        <ele>1705</ele>
        <time>2021-06-25T19:23:10Z</time>
      </trkpt>
      <trkpt lat="45.3572" lon="5.88914">
        <ele>1706</ele>
        <time>2021-06-25T19:23:21Z</time>
      </trkpt>
      <trkpt lat="45.35714" lon="5.88894">
        <ele>1703</ele>
        <time>2021-06-25T19:24:26Z</time>
      </trkpt>
      <trkpt lat="45.35706" lon="5.88877">
        <ele>1701</ele>
        <time>2021-06-25T19:24:39Z</time>
      </trkpt>
      <trkpt lat="45.35696" lon="5.88838">
        <ele>1699</ele>
        <time>2021-06-25T19:25:08Z</time>
      </trkpt>
      <trkpt lat="45.35689" lon="5.88819">
        <ele>1699</ele>
        <time>2021-06-25T19:25:20Z</time>
      </trkpt>
      <trkpt lat="45.35695" lon="5.88755">
        <ele>1695</ele>
        <time>2021-06-25T19:25:58Z</time>
      </trkpt>
      <trkpt lat="45.35699" lon="5.88735">
        <ele>1693</ele>
        <time>2021-06-25T19:26:09Z</time>
      </trkpt>
      <trkpt lat="45.35702" lon="5.88685">
        <ele>1689</ele>
        <time>2021-06-25T19:26:40Z</time>
      </trkpt>
      <trkpt lat="45.35699" lon="5.88664">
        <ele>1689</ele>
        <time>2021-06-25T19:26:53Z</time>
      </trkpt>
      <trkpt lat="45.35695" lon="5.88641">
        <ele>1687</ele>
        <time>2021-06-25T19:27:10Z</time>
      </trkpt>
      <trkpt lat="45.35689" lon="5.8862">
        <ele>1686</ele>
        <time>2021-06-25T19:27:34Z</time>
      </trkpt>
      <trkpt lat="45.35674" lon="5.88581">
        <ele>1681</ele>
        <time>2021-06-25T19:28:36Z</time>
      </trkpt>
      <trkpt lat="45.35658" lon="5.88545">
        <ele>1682</ele>
        <time>2021-06-25T19:30:48Z</time>
      </trkpt>
      <trkpt lat="45.3565" lon="5.885">
        <ele>1675</ele>
        <time>2021-06-25T19:34:31Z</time>
      </trkpt>
      <trkpt lat="45.35623" lon="5.88499">
        <ele>1673</ele>
        <time>2021-06-25T19:35:20Z</time>
      </trkpt>
      <trkpt lat="45.35638" lon="5.88541">
        <ele>1673</ele>
        <time>2021-06-25T19:38:45Z</time>
      </trkpt>
      <trkpt lat="45.35677" lon="5.88548">
        <ele>1666</ele>
        <time>2021-06-25T19:39:36Z</time>
      </trkpt>
      <trkpt lat="45.35675" lon="5.88557">
        <ele>1676</ele>
        <time>2021-06-25T19:46:25Z</time>
      </trkpt>
      <trkpt lat="45.35674" lon="5.88645">
        <ele>1674</ele>
        <time>2021-06-25T19:46:53Z</time>
      </trkpt>
      <trkpt lat="45.35696" lon="5.88692">
        <ele>1676</ele>
        <time>2021-06-25T19:47:01Z</time>
      </trkpt>
      <trkpt lat="45.35742" lon="5.88783">
        <ele>1677</ele>
        <time>2021-06-25T19:47:10Z</time>
      </trkpt>
      <trkpt lat="45.35784" lon="5.88834">
        <ele>1675</ele>
        <time>2021-06-25T19:47:15Z</time>
      </trkpt>
      <trkpt lat="45.35816" lon="5.88891">
        <ele>1678</ele>
        <time>2021-06-25T19:47:24Z</time>
      </trkpt>
      <trkpt lat="45.35678" lon="5.88589">
        <ele>1612</ele>
        <time>2021-06-25T19:53:48Z</time>
      </trkpt>
      <trkpt lat="45.35667" lon="5.88562">
        <ele>1675</ele>
        <time>2021-06-25T19:56:29Z</time>
      </trkpt>
    </trkseg>
  </trk>
  <trk>
    <name><![CDATA[19 juin 2021 à 11:22:05]]></name>
    <cmt><![CDATA[19 juin 2021 à 11:22:05]]></cmt>
    <trkseg>
      <trkpt lat="45.69558" lon="6.27171">
        <ele>1820</ele>
        <time>2021-06-19T09:22:13Z</time>
      </trkpt>
      <trkpt lat="45.69547" lon="6.27007">
        <ele>1879</ele>
        <time>2021-06-19T09:22:28Z</time>
      </trkpt>
      <trkpt lat="45.69521" lon="6.27037">
        <ele>1890</ele>
        <time>2021-06-19T09:36:14Z</time>
      </trkpt>
      <trkpt lat="45.69515" lon="6.27052">
        <ele>1921</ele>
        <time>2021-06-19T09:44:53Z</time>
      </trkpt>
      <trkpt lat="45.69501" lon="6.27057">
        <ele>1922</ele>
        <time>2021-06-19T09:45:59Z</time>
      </trkpt>
      <trkpt lat="45.69489" lon="6.27066">
        <ele>1921</ele>
        <time>2021-06-19T09:46:30Z</time>
      </trkpt>
      <trkpt lat="45.69487" lon="6.27057">
        <ele>1922</ele>
        <time>2021-06-19T09:46:42Z</time>
      </trkpt>
      <trkpt lat="45.69483" lon="6.27047">
        <ele>1925</ele>
        <time>2021-06-19T09:47:01Z</time>
      </trkpt>
      <trkpt lat="45.69482" lon="6.27036">
        <ele>1926</ele>
        <time>2021-06-19T09:47:13Z</time>
      </trkpt>
      <trkpt lat="45.6948" lon="6.27028">
        <ele>1932</ele>
        <time>2021-06-19T09:47:25Z</time>
      </trkpt>
      <trkpt lat="45.69475" lon="6.27026">
        <ele>1931</ele>
        <time>2021-06-19T09:47:43Z</time>
      </trkpt>
      <trkpt lat="45.69468" lon="6.27024">
        <ele>1931</ele>
        <time>2021-06-19T09:47:56Z</time>
      </trkpt>
      <trkpt lat="45.69463" lon="6.27021">
        <ele>1936</ele>
        <time>2021-06-19T09:48:08Z</time>
      </trkpt>
      <trkpt lat="45.69455" lon="6.27026">
        <ele>1939</ele>
        <time>2021-06-19T09:48:32Z</time>
      </trkpt>
      <trkpt lat="45.69454" lon="6.27015">
        <ele>1933</ele>
        <time>2021-06-19T09:48:44Z</time>
      </trkpt>
      <trkpt lat="45.69449" lon="6.27007">
        <ele>1930</ele>
        <time>2021-06-19T09:48:54Z</time>
      </trkpt>
      <trkpt lat="45.69446" lon="6.26999">
        <ele>1930</ele>
        <time>2021-06-19T09:49:01Z</time>
      </trkpt>
      <trkpt lat="45.6943" lon="6.26985">
        <ele>1927</ele>
        <time>2021-06-19T09:49:20Z</time>
      </trkpt>
      <trkpt lat="45.69429" lon="6.26977">
        <ele>1927</ele>
        <time>2021-06-19T09:49:26Z</time>
      </trkpt>
      <trkpt lat="45.69425" lon="6.26972">
        <ele>1926</ele>
        <time>2021-06-19T09:49:32Z</time>
      </trkpt>
      <trkpt lat="45.69419" lon="6.26969">
        <ele>1927</ele>
        <time>2021-06-19T09:49:38Z</time>
      </trkpt>
      <trkpt lat="45.69409" lon="6.26973">
        <ele>1927</ele>
        <time>2021-06-19T09:49:47Z</time>
      </trkpt>
      <trkpt lat="45.69404" lon="6.26975">
        <ele>1928</ele>
        <time>2021-06-19T09:49:51Z</time>
      </trkpt>
      <trkpt lat="45.69401" lon="6.26967">
        <ele>1928</ele>
        <time>2021-06-19T09:50:05Z</time>
      </trkpt>
      <trkpt lat="45.69401" lon="6.26957">
        <ele>1929</ele>
        <time>2021-06-19T09:50:11Z</time>
      </trkpt>
      <trkpt lat="45.69401" lon="6.26948">
        <ele>1929</ele>
        <time>2021-06-19T09:50:17Z</time>
      </trkpt>
      <trkpt lat="45.694" lon="6.2694">
        <ele>1929</ele>
        <time>2021-06-19T09:50:25Z</time>
      </trkpt>
      <trkpt lat="45.69395" lon="6.2692">
        <ele>1924</ele>
        <time>2021-06-19T09:50:47Z</time>
      </trkpt>
      <trkpt lat="45.69394" lon="6.26913">
        <ele>1925</ele>
        <time>2021-06-19T09:50:56Z</time>
      </trkpt>
      <trkpt lat="45.69384" lon="6.26905">
        <ele>1920</ele>
        <time>2021-06-19T09:51:13Z</time>
      </trkpt>
      <trkpt lat="45.69383" lon="6.26889">
        <ele>1921</ele>
        <time>2021-06-19T09:51:26Z</time>
      </trkpt>
      <trkpt lat="45.69383" lon="6.26881">
        <ele>1922</ele>
        <time>2021-06-19T09:51:32Z</time>
      </trkpt>
      <trkpt lat="45.6939" lon="6.26877">
        <ele>1922</ele>
        <time>2021-06-19T09:51:43Z</time>
      </trkpt>
      <trkpt lat="45.69403" lon="6.26873">
        <ele>1918</ele>
        <time>2021-06-19T09:51:57Z</time>
      </trkpt>
      <trkpt lat="45.6942" lon="6.26865">
        <ele>1917</ele>
        <time>2021-06-19T09:52:08Z</time>
      </trkpt>
      <trkpt lat="45.69425" lon="6.26861">
        <ele>1918</ele>
        <time>2021-06-19T09:52:12Z</time>
      </trkpt>
      <trkpt lat="45.69433" lon="6.26855">
        <ele>1915</ele>
        <time>2021-06-19T09:52:23Z</time>
      </trkpt>
      <trkpt lat="45.69439" lon="6.26855">
        <ele>1914</ele>
        <time>2021-06-19T09:52:29Z</time>
      </trkpt>
      <trkpt lat="45.69444" lon="6.26858">
        <ele>1913</ele>
        <time>2021-06-19T09:52:33Z</time>
      </trkpt>
      <trkpt lat="45.6945" lon="6.26857">
        <ele>1911</ele>
        <time>2021-06-19T09:52:38Z</time>
      </trkpt>
      <trkpt lat="45.69455" lon="6.26852">
        <ele>1910</ele>
        <time>2021-06-19T09:52:42Z</time>
      </trkpt>
      <trkpt lat="45.6946" lon="6.26856">
        <ele>1909</ele>
        <time>2021-06-19T09:52:47Z</time>
      </trkpt>
      <trkpt lat="45.69466" lon="6.26869">
        <ele>1907</ele>
        <time>2021-06-19T09:52:56Z</time>
      </trkpt>
      <trkpt lat="45.69466" lon="6.26878">
        <ele>1906</ele>
        <time>2021-06-19T09:53:01Z</time>
      </trkpt>
      <trkpt lat="45.69469" lon="6.26887">
        <ele>1903</ele>
        <time>2021-06-19T09:53:11Z</time>
      </trkpt>
      <trkpt lat="45.69491" lon="6.26897">
        <ele>1896</ele>
        <time>2021-06-19T09:53:41Z</time>
      </trkpt>
      <trkpt lat="45.69499" lon="6.26893">
        <ele>1894</ele>
        <time>2021-06-19T09:53:53Z</time>
      </trkpt>
      <trkpt lat="45.69502" lon="6.26902">
        <ele>1893</ele>
        <time>2021-06-19T09:53:58Z</time>
      </trkpt>
      <trkpt lat="45.69513" lon="6.26901">
        <ele>1888</ele>
        <time>2021-06-19T09:54:13Z</time>
      </trkpt>
      <trkpt lat="45.69519" lon="6.26905">
        <ele>1885</ele>
        <time>2021-06-19T09:54:27Z</time>
      </trkpt>
      <trkpt lat="45.69522" lon="6.26911">
        <ele>1885</ele>
        <time>2021-06-19T09:54:34Z</time>
      </trkpt>
      <trkpt lat="45.69528" lon="6.26911">
        <ele>1882</ele>
        <time>2021-06-19T09:54:42Z</time>
      </trkpt>
      <trkpt lat="45.6954" lon="6.26923">
        <ele>1878</ele>
        <time>2021-06-19T09:54:57Z</time>
      </trkpt>
      <trkpt lat="45.69544" lon="6.26931">
        <ele>1875</ele>
        <time>2021-06-19T09:55:05Z</time>
      </trkpt>
      <trkpt lat="45.69555" lon="6.26936">
        <ele>1874</ele>
        <time>2021-06-19T09:55:18Z</time>
      </trkpt>
      <trkpt lat="45.69562" lon="6.26939">
        <ele>1873</ele>
        <time>2021-06-19T09:55:48Z</time>
      </trkpt>
      <trkpt lat="45.69573" lon="6.26941">
        <ele>1873</ele>
        <time>2021-06-19T09:56:00Z</time>
      </trkpt>
      <trkpt lat="45.69578" lon="6.2694">
        <ele>1872</ele>
        <time>2021-06-19T09:56:04Z</time>
      </trkpt>
      <trkpt lat="45.69584" lon="6.26942">
        <ele>1872</ele>
        <time>2021-06-19T09:56:09Z</time>
      </trkpt>
      <trkpt lat="45.69588" lon="6.26932">
        <ele>1874</ele>
        <time>2021-06-19T09:56:22Z</time>
      </trkpt>
      <trkpt lat="45.69592" lon="6.26925">
        <ele>1875</ele>
        <time>2021-06-19T09:56:28Z</time>
      </trkpt>
      <trkpt lat="45.69595" lon="6.26919">
        <ele>1874</ele>
        <time>2021-06-19T09:56:33Z</time>
      </trkpt>
      <trkpt lat="45.69603" lon="6.26909">
        <ele>1877</ele>
        <time>2021-06-19T09:56:47Z</time>
      </trkpt>
      <trkpt lat="45.69609" lon="6.269">
        <ele>1880</ele>
        <time>2021-06-19T09:57:01Z</time>
      </trkpt>
      <trkpt lat="45.69616" lon="6.26893">
        <ele>1883</ele>
        <time>2021-06-19T09:57:19Z</time>
      </trkpt>
      <trkpt lat="45.69624" lon="6.26885">
        <ele>1884</ele>
        <time>2021-06-19T09:58:13Z</time>
      </trkpt>
      <trkpt lat="45.69617" lon="6.26898">
        <ele>1881</ele>
        <time>2021-06-19T10:00:44Z</time>
      </trkpt>
      <trkpt lat="45.69608" lon="6.26902">
        <ele>1879</ele>
        <time>2021-06-19T10:00:56Z</time>
      </trkpt>
      <trkpt lat="45.69604" lon="6.26909">
        <ele>1881</ele>
        <time>2021-06-19T10:01:04Z</time>
      </trkpt>
      <trkpt lat="45.69598" lon="6.26914">
        <ele>1877</ele>
        <time>2021-06-19T10:01:10Z</time>
      </trkpt>
      <trkpt lat="45.69597" lon="6.26921">
        <ele>1881</ele>
        <time>2021-06-19T10:01:14Z</time>
      </trkpt>
      <trkpt lat="45.6959" lon="6.26934">
        <ele>1877</ele>
        <time>2021-06-19T10:01:27Z</time>
      </trkpt>
      <trkpt lat="45.69586" lon="6.26937">
        <ele>1876</ele>
        <time>2021-06-19T10:01:32Z</time>
      </trkpt>
      <trkpt lat="45.69588" lon="6.26946">
        <ele>1875</ele>
        <time>2021-06-19T10:01:39Z</time>
      </trkpt>
      <trkpt lat="45.69593" lon="6.26951">
        <ele>1874</ele>
        <time>2021-06-19T10:01:45Z</time>
      </trkpt>
      <trkpt lat="45.696" lon="6.26955">
        <ele>1872</ele>
        <time>2021-06-19T10:01:52Z</time>
      </trkpt>
      <trkpt lat="45.69603" lon="6.26962">
        <ele>1872</ele>
        <time>2021-06-19T10:01:57Z</time>
      </trkpt>
      <trkpt lat="45.69609" lon="6.26978">
        <ele>1870</ele>
        <time>2021-06-19T10:02:09Z</time>
      </trkpt>
      <trkpt lat="45.69615" lon="6.26985">
        <ele>1869</ele>
        <time>2021-06-19T10:02:16Z</time>
      </trkpt>
      <trkpt lat="45.69617" lon="6.26996">
        <ele>1866</ele>
        <time>2021-06-19T10:02:28Z</time>
      </trkpt>
      <trkpt lat="45.69614" lon="6.27003">
        <ele>1864</ele>
        <time>2021-06-19T10:02:33Z</time>
      </trkpt>
      <trkpt lat="45.6961" lon="6.27007">
        <ele>1861</ele>
        <time>2021-06-19T10:02:38Z</time>
      </trkpt>
      <trkpt lat="45.69605" lon="6.27015">
        <ele>1858</ele>
        <time>2021-06-19T10:02:46Z</time>
      </trkpt>
      <trkpt lat="45.696" lon="6.27018">
        <ele>1856</ele>
        <time>2021-06-19T10:02:50Z</time>
      </trkpt>
      <trkpt lat="45.69595" lon="6.27026">
        <ele>1854</ele>
        <time>2021-06-19T10:02:59Z</time>
      </trkpt>
      <trkpt lat="45.69593" lon="6.27035">
        <ele>1859</ele>
        <time>2021-06-19T10:03:09Z</time>
      </trkpt>
      <trkpt lat="45.6959" lon="6.27042">
        <ele>1858</ele>
        <time>2021-06-19T10:03:15Z</time>
      </trkpt>
      <trkpt lat="45.69587" lon="6.27048">
        <ele>1857</ele>
        <time>2021-06-19T10:03:23Z</time>
      </trkpt>
      <trkpt lat="45.69585" lon="6.27057">
        <ele>1855</ele>
        <time>2021-06-19T10:03:29Z</time>
      </trkpt>
      <trkpt lat="45.69589" lon="6.27062">
        <ele>1856</ele>
        <time>2021-06-19T10:03:43Z</time>
      </trkpt>
      <trkpt lat="45.69593" lon="6.2707">
        <ele>1857</ele>
        <time>2021-06-19T10:03:55Z</time>
      </trkpt>
      <trkpt lat="45.69596" lon="6.2707">
        <ele>1860</ele>
        <time>2021-06-19T10:08:20Z</time>
      </trkpt>
      <trkpt lat="45.69599" lon="6.27074">
        <ele>1859</ele>
        <time>2021-06-19T10:09:32Z</time>
      </trkpt>
      <trkpt lat="45.69595" lon="6.27078">
        <ele>1860</ele>
        <time>2021-06-19T10:11:57Z</time>
      </trkpt>
      <trkpt lat="45.69596" lon="6.27066">
        <ele>1860</ele>
        <time>2021-06-19T10:12:38Z</time>
      </trkpt>
      <trkpt lat="45.696" lon="6.27062">
        <ele>1859</ele>
        <time>2021-06-19T10:17:47Z</time>
      </trkpt>
      <trkpt lat="45.69598" lon="6.27051">
        <ele>1858</ele>
        <time>2021-06-19T10:18:01Z</time>
      </trkpt>
      <trkpt lat="45.69594" lon="6.27042">
        <ele>1863</ele>
        <time>2021-06-19T10:18:19Z</time>
      </trkpt>
      <trkpt lat="45.69588" lon="6.27033">
        <ele>1865</ele>
        <time>2021-06-19T10:18:33Z</time>
      </trkpt>
      <trkpt lat="45.69573" lon="6.27016">
        <ele>1866</ele>
        <time>2021-06-19T10:19:14Z</time>
      </trkpt>
      <trkpt lat="45.6957" lon="6.26995">
        <ele>1868</ele>
        <time>2021-06-19T10:19:50Z</time>
      </trkpt>
      <trkpt lat="45.69576" lon="6.26977">
        <ele>1872</ele>
        <time>2021-06-19T10:20:05Z</time>
      </trkpt>
      <trkpt lat="45.69571" lon="6.26953">
        <ele>1874</ele>
        <time>2021-06-19T10:20:26Z</time>
      </trkpt>
      <trkpt lat="45.69586" lon="6.26928">
        <ele>1881</ele>
        <time>2021-06-19T10:21:21Z</time>
      </trkpt>
      <trkpt lat="45.69562" lon="6.26923">
        <ele>1884</ele>
        <time>2021-06-19T10:21:47Z</time>
      </trkpt>
      <trkpt lat="45.69534" lon="6.26909">
        <ele>1892</ele>
        <time>2021-06-19T10:22:21Z</time>
      </trkpt>
      <trkpt lat="45.69519" lon="6.2691">
        <ele>1898</ele>
        <time>2021-06-19T10:22:51Z</time>
      </trkpt>
      <trkpt lat="45.69504" lon="6.26898">
        <ele>1906</ele>
        <time>2021-06-19T10:23:21Z</time>
      </trkpt>
      <trkpt lat="45.69486" lon="6.26895">
        <ele>1908</ele>
        <time>2021-06-19T10:23:44Z</time>
      </trkpt>
      <trkpt lat="45.69471" lon="6.26887">
        <ele>1913</ele>
        <time>2021-06-19T10:24:08Z</time>
      </trkpt>
      <trkpt lat="45.69464" lon="6.26868">
        <ele>1920</ele>
        <time>2021-06-19T10:24:59Z</time>
      </trkpt>
      <trkpt lat="45.69458" lon="6.26848">
        <ele>1920</ele>
        <time>2021-06-19T10:25:11Z</time>
      </trkpt>
      <trkpt lat="45.69445" lon="6.2684">
        <ele>1920</ele>
        <time>2021-06-19T10:25:30Z</time>
      </trkpt>
      <trkpt lat="45.69457" lon="6.26825">
        <ele>1924</ele>
        <time>2021-06-19T10:27:59Z</time>
      </trkpt>
      <trkpt lat="45.69455" lon="6.26792">
        <ele>1935</ele>
        <time>2021-06-19T10:28:44Z</time>
      </trkpt>
      <trkpt lat="45.69452" lon="6.26762">
        <ele>1940</ele>
        <time>2021-06-19T10:29:11Z</time>
      </trkpt>
      <trkpt lat="45.69471" lon="6.26746">
        <ele>1945</ele>
        <time>2021-06-19T10:29:37Z</time>
      </trkpt>
      <trkpt lat="45.69481" lon="6.26731">
        <ele>1950</ele>
        <time>2021-06-19T10:30:04Z</time>
      </trkpt>
      <trkpt lat="45.69504" lon="6.26709">
        <ele>1960</ele>
        <time>2021-06-19T10:30:42Z</time>
      </trkpt>
      <trkpt lat="45.69514" lon="6.26696">
        <ele>1968</ele>
        <time>2021-06-19T10:31:19Z</time>
      </trkpt>
      <trkpt lat="45.69532" lon="6.26683">
        <ele>1968</ele>
        <time>2021-06-19T10:31:40Z</time>
      </trkpt>
      <trkpt lat="45.69537" lon="6.26663">
        <ele>1979</ele>
        <time>2021-06-19T10:32:19Z</time>
      </trkpt>
      <trkpt lat="45.69525" lon="6.26643">
        <ele>1992</ele>
        <time>2021-06-19T10:33:30Z</time>
      </trkpt>
      <trkpt lat="45.69537" lon="6.26631">
        <ele>1997</ele>
        <time>2021-06-19T10:33:59Z</time>
      </trkpt>
      <trkpt lat="45.69538" lon="6.26609">
        <ele>2002</ele>
        <time>2021-06-19T10:34:21Z</time>
      </trkpt>
      <trkpt lat="45.69524" lon="6.26602">
        <ele>2017</ele>
        <time>2021-06-19T10:35:46Z</time>
      </trkpt>
      <trkpt lat="45.69508" lon="6.26602">
        <ele>2026</ele>
        <time>2021-06-19T10:36:36Z</time>
      </trkpt>
      <trkpt lat="45.69495" lon="6.26579">
        <ele>2026</ele>
        <time>2021-06-19T10:37:10Z</time>
      </trkpt>
      <trkpt lat="45.69477" lon="6.26564">
        <ele>2031</ele>
        <time>2021-06-19T10:37:32Z</time>
      </trkpt>
      <trkpt lat="45.69467" lon="6.26545">
        <ele>2036</ele>
        <time>2021-06-19T10:37:57Z</time>
      </trkpt>
      <trkpt lat="45.69463" lon="6.26533">
        <ele>2038</ele>
        <time>2021-06-19T10:38:22Z</time>
      </trkpt>
      <trkpt lat="45.69449" lon="6.26524">
        <ele>2043</ele>
        <time>2021-06-19T10:38:39Z</time>
      </trkpt>
      <trkpt lat="45.6944" lon="6.26523">
        <ele>2045</ele>
        <time>2021-06-19T10:38:44Z</time>
      </trkpt>
      <trkpt lat="45.69418" lon="6.26511">
        <ele>2051</ele>
        <time>2021-06-19T10:39:14Z</time>
      </trkpt>
      <trkpt lat="45.69408" lon="6.26506">
        <ele>2055</ele>
        <time>2021-06-19T10:39:30Z</time>
      </trkpt>
      <trkpt lat="45.69401" lon="6.26502">
        <ele>2059</ele>
        <time>2021-06-19T10:39:55Z</time>
      </trkpt>
      <trkpt lat="45.69402" lon="6.26486">
        <ele>2061</ele>
        <time>2021-06-19T10:40:23Z</time>
      </trkpt>
      <trkpt lat="45.69399" lon="6.26475">
        <ele>2066</ele>
        <time>2021-06-19T10:40:44Z</time>
      </trkpt>
      <trkpt lat="45.6939" lon="6.26472">
        <ele>2069</ele>
        <time>2021-06-19T10:40:56Z</time>
      </trkpt>
      <trkpt lat="45.69384" lon="6.26474">
        <ele>2073</ele>
        <time>2021-06-19T10:41:22Z</time>
      </trkpt>
      <trkpt lat="45.69378" lon="6.26467">
        <ele>2075</ele>
        <time>2021-06-19T10:41:43Z</time>
      </trkpt>
      <trkpt lat="45.6938" lon="6.26454">
        <ele>2074</ele>
        <time>2021-06-19T10:41:54Z</time>
      </trkpt>
      <trkpt lat="45.69381" lon="6.26446">
        <ele>2075</ele>
        <time>2021-06-19T10:42:04Z</time>
      </trkpt>
      <trkpt lat="45.69376" lon="6.26435">
        <ele>2076</ele>
        <time>2021-06-19T10:42:39Z</time>
      </trkpt>
      <trkpt lat="45.69371" lon="6.26441">
        <ele>2076</ele>
        <time>2021-06-19T10:43:49Z</time>
      </trkpt>
      <trkpt lat="45.69368" lon="6.26449">
        <ele>2073</ele>
        <time>2021-06-19T10:44:05Z</time>
      </trkpt>
      <trkpt lat="45.69361" lon="6.26467">
        <ele>2074</ele>
        <time>2021-06-19T10:44:10Z</time>
      </trkpt>
      <trkpt lat="45.69359" lon="6.26478">
        <ele>2074</ele>
        <time>2021-06-19T10:44:13Z</time>
      </trkpt>
      <trkpt lat="45.69356" lon="6.26484">
        <ele>2074</ele>
        <time>2021-06-19T10:44:16Z</time>
      </trkpt>
      <trkpt lat="45.6935" lon="6.26505">
        <ele>2068</ele>
        <time>2021-06-19T10:44:24Z</time>
      </trkpt>
      <trkpt lat="45.69347" lon="6.26514">
        <ele>2068</ele>
        <time>2021-06-19T10:44:27Z</time>
      </trkpt>
      <trkpt lat="45.6934" lon="6.26517">
        <ele>2067</ele>
        <time>2021-06-19T10:44:30Z</time>
      </trkpt>
      <trkpt lat="45.69324" lon="6.26519">
        <ele>2070</ele>
        <time>2021-06-19T10:44:39Z</time>
      </trkpt>
      <trkpt lat="45.69317" lon="6.26524">
        <ele>2072</ele>
        <time>2021-06-19T10:44:43Z</time>
      </trkpt>
      <trkpt lat="45.6931" lon="6.26527">
        <ele>2074</ele>
        <time>2021-06-19T10:44:50Z</time>
      </trkpt>
      <trkpt lat="45.69307" lon="6.26534">
        <ele>2076</ele>
        <time>2021-06-19T10:44:56Z</time>
      </trkpt>
      <trkpt lat="45.69296" lon="6.26544">
        <ele>2083</ele>
        <time>2021-06-19T10:45:14Z</time>
      </trkpt>
      <trkpt lat="45.69291" lon="6.26545">
        <ele>2086</ele>
        <time>2021-06-19T10:45:24Z</time>
      </trkpt>
      <trkpt lat="45.69284" lon="6.26545">
        <ele>2086</ele>
        <time>2021-06-19T10:45:35Z</time>
      </trkpt>
      <trkpt lat="45.69285" lon="6.26559">
        <ele>2091</ele>
        <time>2021-06-19T10:45:56Z</time>
      </trkpt>
      <trkpt lat="45.6928" lon="6.26564">
        <ele>2094</ele>
        <time>2021-06-19T10:46:13Z</time>
      </trkpt>
      <trkpt lat="45.69272" lon="6.26564">
        <ele>2097</ele>
        <time>2021-06-19T10:46:24Z</time>
      </trkpt>
      <trkpt lat="45.69282" lon="6.26589">
        <ele>2103</ele>
        <time>2021-06-19T10:46:49Z</time>
      </trkpt>
      <trkpt lat="45.69281" lon="6.26599">
        <ele>2107</ele>
        <time>2021-06-19T10:47:10Z</time>
      </trkpt>
      <trkpt lat="45.69276" lon="6.26594">
        <ele>2108</ele>
        <time>2021-06-19T10:47:41Z</time>
      </trkpt>
      <trkpt lat="45.6927" lon="6.26593">
        <ele>2109</ele>
        <time>2021-06-19T10:47:47Z</time>
      </trkpt>
      <trkpt lat="45.69264" lon="6.26594">
        <ele>2109</ele>
        <time>2021-06-19T10:47:51Z</time>
      </trkpt>
      <trkpt lat="45.69256" lon="6.26592">
        <ele>2113</ele>
        <time>2021-06-19T10:48:08Z</time>
      </trkpt>
      <trkpt lat="45.69247" lon="6.26582">
        <ele>2117</ele>
        <time>2021-06-19T10:48:26Z</time>
      </trkpt>
      <trkpt lat="45.69241" lon="6.26577">
        <ele>2121</ele>
        <time>2021-06-19T10:48:44Z</time>
      </trkpt>
      <trkpt lat="45.69233" lon="6.26571">
        <ele>2125</ele>
        <time>2021-06-19T10:48:57Z</time>
      </trkpt>
      <trkpt lat="45.69224" lon="6.2657">
        <ele>2128</ele>
        <time>2021-06-19T10:49:15Z</time>
      </trkpt>
      <trkpt lat="45.69216" lon="6.26568">
        <ele>2131</ele>
        <time>2021-06-19T10:49:33Z</time>
      </trkpt>
      <trkpt lat="45.69205" lon="6.26548">
        <ele>2137</ele>
        <time>2021-06-19T10:50:03Z</time>
      </trkpt>
      <trkpt lat="45.69198" lon="6.26537">
        <ele>2139</ele>
        <time>2021-06-19T10:50:16Z</time>
      </trkpt>
      <trkpt lat="45.69189" lon="6.26541">
        <ele>2144</ele>
        <time>2021-06-19T10:50:41Z</time>
      </trkpt>
      <trkpt lat="45.6919" lon="6.26552">
        <ele>2148</ele>
        <time>2021-06-19T10:50:59Z</time>
      </trkpt>
      <trkpt lat="45.6918" lon="6.26546">
        <ele>2153</ele>
        <time>2021-06-19T10:51:18Z</time>
      </trkpt>
      <trkpt lat="45.69179" lon="6.26535">
        <ele>2155</ele>
        <time>2021-06-19T10:51:30Z</time>
      </trkpt>
      <trkpt lat="45.69172" lon="6.26528">
        <ele>2164</ele>
        <time>2021-06-19T10:52:06Z</time>
      </trkpt>
      <trkpt lat="45.69172" lon="6.26542">
        <ele>2170</ele>
        <time>2021-06-19T10:52:38Z</time>
      </trkpt>
      <trkpt lat="45.69162" lon="6.26536">
        <ele>2176</ele>
        <time>2021-06-19T10:53:08Z</time>
      </trkpt>
      <trkpt lat="45.69154" lon="6.26533">
        <ele>2179</ele>
        <time>2021-06-19T10:53:23Z</time>
      </trkpt>
      <trkpt lat="45.69158" lon="6.26532">
        <ele>2183</ele>
        <time>2021-06-19T10:54:35Z</time>
      </trkpt>
      <trkpt lat="45.69161" lon="6.2654">
        <ele>2186</ele>
        <time>2021-06-19T10:54:43Z</time>
      </trkpt>
      <trkpt lat="45.69163" lon="6.26539">
        <ele>2182</ele>
        <time>2021-06-19T10:57:01Z</time>
      </trkpt>
      <trkpt lat="45.69161" lon="6.2653">
        <ele>2181</ele>
        <time>2021-06-19T10:57:12Z</time>
      </trkpt>
      <trkpt lat="45.69156" lon="6.2652">
        <ele>2181</ele>
        <time>2021-06-19T10:57:16Z</time>
      </trkpt>
      <trkpt lat="45.69151" lon="6.26515">
        <ele>2182</ele>
        <time>2021-06-19T10:57:19Z</time>
      </trkpt>
      <trkpt lat="45.69157" lon="6.26512">
        <ele>2182</ele>
        <time>2021-06-19T10:58:27Z</time>
      </trkpt>
      <trkpt lat="45.69161" lon="6.2652">
        <ele>2181</ele>
        <time>2021-06-19T10:58:39Z</time>
      </trkpt>
      <trkpt lat="45.69163" lon="6.26528">
        <ele>2182</ele>
        <time>2021-06-19T10:58:45Z</time>
      </trkpt>
      <trkpt lat="45.69169" lon="6.26535">
        <ele>2173</ele>
        <time>2021-06-19T10:59:25Z</time>
      </trkpt>
      <trkpt lat="45.69176" lon="6.2654">
        <ele>2167</ele>
        <time>2021-06-19T10:59:43Z</time>
      </trkpt>
      <trkpt lat="45.69179" lon="6.26529">
        <ele>2164</ele>
        <time>2021-06-19T10:59:51Z</time>
      </trkpt>
      <trkpt lat="45.69184" lon="6.2652">
        <ele>2157</ele>
        <time>2021-06-19T11:00:21Z</time>
      </trkpt>
      <trkpt lat="45.69198" lon="6.26541">
        <ele>2149</ele>
        <time>2021-06-19T11:00:44Z</time>
      </trkpt>
      <trkpt lat="45.69203" lon="6.26529">
        <ele>2142</ele>
        <time>2021-06-19T11:01:08Z</time>
      </trkpt>
      <trkpt lat="45.69214" lon="6.26537">
        <ele>2137</ele>
        <time>2021-06-19T11:01:24Z</time>
      </trkpt>
      <trkpt lat="45.69221" lon="6.26552">
        <ele>2134</ele>
        <time>2021-06-19T11:01:32Z</time>
      </trkpt>
      <trkpt lat="45.69229" lon="6.26558">
        <ele>2132</ele>
        <time>2021-06-19T11:01:40Z</time>
      </trkpt>
      <trkpt lat="45.69237" lon="6.26567">
        <ele>2129</ele>
        <time>2021-06-19T11:01:54Z</time>
      </trkpt>
      <trkpt lat="45.69241" lon="6.26577">
        <ele>2128</ele>
        <time>2021-06-19T11:02:00Z</time>
      </trkpt>
      <trkpt lat="45.69243" lon="6.26588">
        <ele>2125</ele>
        <time>2021-06-19T11:02:08Z</time>
      </trkpt>
      <trkpt lat="45.69248" lon="6.2658">
        <ele>2120</ele>
        <time>2021-06-19T11:02:29Z</time>
      </trkpt>
      <trkpt lat="45.69262" lon="6.2659">
        <ele>2111</ele>
        <time>2021-06-19T11:02:59Z</time>
      </trkpt>
      <trkpt lat="45.6927" lon="6.26593">
        <ele>2108</ele>
        <time>2021-06-19T11:03:06Z</time>
      </trkpt>
      <trkpt lat="45.6928" lon="6.26601">
        <ele>2105</ele>
        <time>2021-06-19T11:04:21Z</time>
      </trkpt>
      <trkpt lat="45.69289" lon="6.26584">
        <ele>2102</ele>
        <time>2021-06-19T11:04:53Z</time>
      </trkpt>
      <trkpt lat="45.69291" lon="6.26576">
        <ele>2099</ele>
        <time>2021-06-19T11:04:57Z</time>
      </trkpt>
      <trkpt lat="45.69295" lon="6.26568">
        <ele>2096</ele>
        <time>2021-06-19T11:05:02Z</time>
      </trkpt>
      <trkpt lat="45.693" lon="6.26562">
        <ele>2092</ele>
        <time>2021-06-19T11:05:07Z</time>
      </trkpt>
      <trkpt lat="45.69322" lon="6.26519">
        <ele>2076</ele>
        <time>2021-06-19T11:05:31Z</time>
      </trkpt>
      <trkpt lat="45.69336" lon="6.2651">
        <ele>2070</ele>
        <time>2021-06-19T11:05:38Z</time>
      </trkpt>
      <trkpt lat="45.69355" lon="6.26505">
        <ele>2066</ele>
        <time>2021-06-19T11:05:45Z</time>
      </trkpt>
      <trkpt lat="45.69361" lon="6.26503">
        <ele>2066</ele>
        <time>2021-06-19T11:05:47Z</time>
      </trkpt>
      <trkpt lat="45.69368" lon="6.265">
        <ele>2066</ele>
        <time>2021-06-19T11:05:50Z</time>
      </trkpt>
      <trkpt lat="45.69374" lon="6.26499">
        <ele>2065</ele>
        <time>2021-06-19T11:05:52Z</time>
      </trkpt>
      <trkpt lat="45.69381" lon="6.26497">
        <ele>2064</ele>
        <time>2021-06-19T11:05:54Z</time>
      </trkpt>
      <trkpt lat="45.69386" lon="6.26499">
        <ele>2064</ele>
        <time>2021-06-19T11:05:56Z</time>
      </trkpt>
      <trkpt lat="45.69395" lon="6.26498">
        <ele>2063</ele>
        <time>2021-06-19T11:06:00Z</time>
      </trkpt>
      <trkpt lat="45.69403" lon="6.26502">
        <ele>2060</ele>
        <time>2021-06-19T11:06:11Z</time>
      </trkpt>
      <trkpt lat="45.69407" lon="6.26506">
        <ele>2058</ele>
        <time>2021-06-19T11:06:15Z</time>
      </trkpt>
      <trkpt lat="45.69413" lon="6.26508">
        <ele>2056</ele>
        <time>2021-06-19T11:06:19Z</time>
      </trkpt>
      <trkpt lat="45.69438" lon="6.26517">
        <ele>2048</ele>
        <time>2021-06-19T11:06:31Z</time>
      </trkpt>
      <trkpt lat="45.69458" lon="6.26527">
        <ele>2044</ele>
        <time>2021-06-19T11:06:42Z</time>
      </trkpt>
      <trkpt lat="45.6948" lon="6.26559">
        <ele>2032</ele>
        <time>2021-06-19T11:07:02Z</time>
      </trkpt>
      <trkpt lat="45.69483" lon="6.26568">
        <ele>2029</ele>
        <time>2021-06-19T11:07:07Z</time>
      </trkpt>
      <trkpt lat="45.69491" lon="6.2658">
        <ele>2025</ele>
        <time>2021-06-19T11:07:16Z</time>
      </trkpt>
      <trkpt lat="45.69496" lon="6.26584">
        <ele>2023</ele>
        <time>2021-06-19T11:07:20Z</time>
      </trkpt>
      <trkpt lat="45.69515" lon="6.26589">
        <ele>2016</ele>
        <time>2021-06-19T11:07:29Z</time>
      </trkpt>
      <trkpt lat="45.69522" lon="6.26593">
        <ele>2015</ele>
        <time>2021-06-19T11:07:32Z</time>
      </trkpt>
      <trkpt lat="45.69529" lon="6.26596">
        <ele>2013</ele>
        <time>2021-06-19T11:07:36Z</time>
      </trkpt>
      <trkpt lat="45.6954" lon="6.26602">
        <ele>2009</ele>
        <time>2021-06-19T11:07:43Z</time>
      </trkpt>
      <trkpt lat="45.69545" lon="6.26608">
        <ele>2007</ele>
        <time>2021-06-19T11:07:51Z</time>
      </trkpt>
      <trkpt lat="45.69542" lon="6.26616">
        <ele>2003</ele>
        <time>2021-06-19T11:08:03Z</time>
      </trkpt>
      <trkpt lat="45.69509" lon="6.26659">
        <ele>1990</ele>
        <time>2021-06-19T11:08:36Z</time>
      </trkpt>
      <trkpt lat="45.69513" lon="6.26667">
        <ele>1986</ele>
        <time>2021-06-19T11:08:42Z</time>
      </trkpt>
      <trkpt lat="45.69518" lon="6.26673">
        <ele>1985</ele>
        <time>2021-06-19T11:08:45Z</time>
      </trkpt>
      <trkpt lat="45.69526" lon="6.2667">
        <ele>1983</ele>
        <time>2021-06-19T11:08:48Z</time>
      </trkpt>
      <trkpt lat="45.69532" lon="6.26672">
        <ele>1982</ele>
        <time>2021-06-19T11:08:52Z</time>
      </trkpt>
      <trkpt lat="45.6954" lon="6.26684">
        <ele>1974</ele>
        <time>2021-06-19T11:09:05Z</time>
      </trkpt>
      <trkpt lat="45.69538" lon="6.26694">
        <ele>1970</ele>
        <time>2021-06-19T11:09:12Z</time>
      </trkpt>
      <trkpt lat="45.69534" lon="6.26701">
        <ele>1970</ele>
        <time>2021-06-19T11:09:14Z</time>
      </trkpt>
      <trkpt lat="45.69528" lon="6.26706">
        <ele>1971</ele>
        <time>2021-06-19T11:09:17Z</time>
      </trkpt>
      <trkpt lat="45.69523" lon="6.2671">
        <ele>1971</ele>
        <time>2021-06-19T11:09:19Z</time>
      </trkpt>
      <trkpt lat="45.69518" lon="6.26713">
        <ele>1970</ele>
        <time>2021-06-19T11:09:25Z</time>
      </trkpt>
      <trkpt lat="45.69512" lon="6.26715">
        <ele>1968</ele>
        <time>2021-06-19T11:09:29Z</time>
      </trkpt>
      <trkpt lat="45.69507" lon="6.26719">
        <ele>1966</ele>
        <time>2021-06-19T11:09:32Z</time>
      </trkpt>
      <trkpt lat="45.69498" lon="6.26731">
        <ele>1962</ele>
        <time>2021-06-19T11:09:43Z</time>
      </trkpt>
      <trkpt lat="45.69492" lon="6.26731">
        <ele>1961</ele>
        <time>2021-06-19T11:09:47Z</time>
      </trkpt>
      <trkpt lat="45.69484" lon="6.26734">
        <ele>1958</ele>
        <time>2021-06-19T11:09:55Z</time>
      </trkpt>
      <trkpt lat="45.69474" lon="6.26741">
        <ele>1953</ele>
        <time>2021-06-19T11:10:07Z</time>
      </trkpt>
      <trkpt lat="45.69467" lon="6.26743">
        <ele>1951</ele>
        <time>2021-06-19T11:10:11Z</time>
      </trkpt>
      <trkpt lat="45.69459" lon="6.26743">
        <ele>1948</ele>
        <time>2021-06-19T11:10:14Z</time>
      </trkpt>
      <trkpt lat="45.69452" lon="6.26746">
        <ele>1948</ele>
        <time>2021-06-19T11:10:16Z</time>
      </trkpt>
      <trkpt lat="45.69451" lon="6.26754">
        <ele>1946</ele>
        <time>2021-06-19T11:10:21Z</time>
      </trkpt>
      <trkpt lat="45.69454" lon="6.2676">
        <ele>1945</ele>
        <time>2021-06-19T11:10:25Z</time>
      </trkpt>
      <trkpt lat="45.69455" lon="6.2677">
        <ele>1944</ele>
        <time>2021-06-19T11:10:29Z</time>
      </trkpt>
      <trkpt lat="45.69454" lon="6.2678">
        <ele>1942</ele>
        <time>2021-06-19T11:10:32Z</time>
      </trkpt>
      <trkpt lat="45.69447" lon="6.26791">
        <ele>1940</ele>
        <time>2021-06-19T11:10:37Z</time>
      </trkpt>
      <trkpt lat="45.69447" lon="6.26799">
        <ele>1939</ele>
        <time>2021-06-19T11:10:40Z</time>
      </trkpt>
      <trkpt lat="45.69449" lon="6.26808">
        <ele>1937</ele>
        <time>2021-06-19T11:10:43Z</time>
      </trkpt>
      <trkpt lat="45.69454" lon="6.26813">
        <ele>1935</ele>
        <time>2021-06-19T11:10:48Z</time>
      </trkpt>
      <trkpt lat="45.69454" lon="6.26822">
        <ele>1933</ele>
        <time>2021-06-19T11:10:53Z</time>
      </trkpt>
      <trkpt lat="45.69446" lon="6.2684">
        <ele>1928</ele>
        <time>2021-06-19T11:11:06Z</time>
      </trkpt>
      <trkpt lat="45.69446" lon="6.26849">
        <ele>1925</ele>
        <time>2021-06-19T11:11:10Z</time>
      </trkpt>
      <trkpt lat="45.6946" lon="6.26873">
        <ele>1920</ele>
        <time>2021-06-19T11:11:22Z</time>
      </trkpt>
      <trkpt lat="45.6948" lon="6.26891">
        <ele>1912</ele>
        <time>2021-06-19T11:11:36Z</time>
      </trkpt>
      <trkpt lat="45.69488" lon="6.26887">
        <ele>1910</ele>
        <time>2021-06-19T11:11:39Z</time>
      </trkpt>
      <trkpt lat="45.69493" lon="6.26886">
        <ele>1909</ele>
        <time>2021-06-19T11:11:42Z</time>
      </trkpt>
      <trkpt lat="45.69512" lon="6.26895">
        <ele>1902</ele>
        <time>2021-06-19T11:11:53Z</time>
      </trkpt>
      <trkpt lat="45.69517" lon="6.26902">
        <ele>1900</ele>
        <time>2021-06-19T11:11:58Z</time>
      </trkpt>
      <trkpt lat="45.69524" lon="6.26904">
        <ele>1897</ele>
        <time>2021-06-19T11:12:03Z</time>
      </trkpt>
      <trkpt lat="45.6953" lon="6.26906">
        <ele>1894</ele>
        <time>2021-06-19T11:12:08Z</time>
      </trkpt>
      <trkpt lat="45.69535" lon="6.26911">
        <ele>1892</ele>
        <time>2021-06-19T11:12:12Z</time>
      </trkpt>
      <trkpt lat="45.69539" lon="6.26919">
        <ele>1890</ele>
        <time>2021-06-19T11:12:17Z</time>
      </trkpt>
      <trkpt lat="45.69544" lon="6.26923">
        <ele>1888</ele>
        <time>2021-06-19T11:12:21Z</time>
      </trkpt>
      <trkpt lat="45.69554" lon="6.26931">
        <ele>1886</ele>
        <time>2021-06-19T11:12:27Z</time>
      </trkpt>
      <trkpt lat="45.69561" lon="6.26933">
        <ele>1885</ele>
        <time>2021-06-19T11:12:30Z</time>
      </trkpt>
      <trkpt lat="45.69569" lon="6.26935">
        <ele>1885</ele>
        <time>2021-06-19T11:12:33Z</time>
      </trkpt>
      <trkpt lat="45.69576" lon="6.26938">
        <ele>1885</ele>
        <time>2021-06-19T11:12:36Z</time>
      </trkpt>
      <trkpt lat="45.69581" lon="6.26943">
        <ele>1884</ele>
        <time>2021-06-19T11:12:40Z</time>
      </trkpt>
      <trkpt lat="45.69588" lon="6.26943">
        <ele>1883</ele>
        <time>2021-06-19T11:12:43Z</time>
      </trkpt>
      <trkpt lat="45.69593" lon="6.26946">
        <ele>1883</ele>
        <time>2021-06-19T11:12:46Z</time>
      </trkpt>
      <trkpt lat="45.69599" lon="6.26949">
        <ele>1882</ele>
        <time>2021-06-19T11:12:48Z</time>
      </trkpt>
      <trkpt lat="45.69605" lon="6.26952">
        <ele>1880</ele>
        <time>2021-06-19T11:12:50Z</time>
      </trkpt>
      <trkpt lat="45.69607" lon="6.2696">
        <ele>1879</ele>
        <time>2021-06-19T11:12:52Z</time>
      </trkpt>
      <trkpt lat="45.6961" lon="6.2697">
        <ele>1880</ele>
        <time>2021-06-19T11:12:55Z</time>
      </trkpt>
      <trkpt lat="45.69612" lon="6.26982">
        <ele>1878</ele>
        <time>2021-06-19T11:13:01Z</time>
      </trkpt>
      <trkpt lat="45.69619" lon="6.26993">
        <ele>1875</ele>
        <time>2021-06-19T11:13:15Z</time>
      </trkpt>
      <trkpt lat="45.6961" lon="6.27006">
        <ele>1869</ele>
        <time>2021-06-19T11:13:26Z</time>
      </trkpt>
      <trkpt lat="45.696" lon="6.27016">
        <ele>1865</ele>
        <time>2021-06-19T11:13:34Z</time>
      </trkpt>
      <trkpt lat="45.69601" lon="6.27023">
        <ele>1862</ele>
        <time>2021-06-19T11:13:38Z</time>
      </trkpt>
      <trkpt lat="45.69603" lon="6.27034">
        <ele>1860</ele>
        <time>2021-06-19T11:13:44Z</time>
      </trkpt>
      <trkpt lat="45.69601" lon="6.27046">
        <ele>1863</ele>
        <time>2021-06-19T11:13:53Z</time>
      </trkpt>
      <trkpt lat="45.69599" lon="6.27057">
        <ele>1862</ele>
        <time>2021-06-19T11:14:06Z</time>
      </trkpt>
      <trkpt lat="45.69594" lon="6.27065">
        <ele>1863</ele>
        <time>2021-06-19T11:14:12Z</time>
      </trkpt>
      <trkpt lat="45.69648" lon="6.27057">
        <ele>1854</ele>
        <time>2021-06-19T11:18:23Z</time>
      </trkpt>
      <trkpt lat="45.69664" lon="6.27054">
        <ele>1853</ele>
        <time>2021-06-19T11:18:39Z</time>
      </trkpt>
      <trkpt lat="45.69678" lon="6.27063">
        <ele>1851</ele>
        <time>2021-06-19T11:18:51Z</time>
      </trkpt>
      <trkpt lat="45.69698" lon="6.27088">
        <ele>1844</ele>
        <time>2021-06-19T11:19:15Z</time>
      </trkpt>
      <trkpt lat="45.69703" lon="6.27092">
        <ele>1843</ele>
        <time>2021-06-19T11:19:19Z</time>
      </trkpt>
      <trkpt lat="45.69708" lon="6.27096">
        <ele>1842</ele>
        <time>2021-06-19T11:19:25Z</time>
      </trkpt>
      <trkpt lat="45.69714" lon="6.27108">
        <ele>1839</ele>
        <time>2021-06-19T11:19:35Z</time>
      </trkpt>
      <trkpt lat="45.69726" lon="6.27122">
        <ele>1834</ele>
        <time>2021-06-19T11:19:53Z</time>
      </trkpt>
      <trkpt lat="45.69733" lon="6.27129">
        <ele>1834</ele>
        <time>2021-06-19T11:20:00Z</time>
      </trkpt>
      <trkpt lat="45.69738" lon="6.27136">
        <ele>1833</ele>
        <time>2021-06-19T11:20:06Z</time>
      </trkpt>
      <trkpt lat="45.6974" lon="6.27143">
        <ele>1831</ele>
        <time>2021-06-19T11:20:10Z</time>
      </trkpt>
      <trkpt lat="45.69745" lon="6.27147">
        <ele>1831</ele>
        <time>2021-06-19T11:20:15Z</time>
      </trkpt>
      <trkpt lat="45.6975" lon="6.27154">
        <ele>1831</ele>
        <time>2021-06-19T11:20:21Z</time>
      </trkpt>
      <trkpt lat="45.69758" lon="6.27151">
        <ele>1832</ele>
        <time>2021-06-19T11:21:03Z</time>
      </trkpt>
      <trkpt lat="45.69763" lon="6.27148">
        <ele>1833</ele>
        <time>2021-06-19T11:21:08Z</time>
      </trkpt>
      <trkpt lat="45.69769" lon="6.2715">
        <ele>1834</ele>
        <time>2021-06-19T11:21:13Z</time>
      </trkpt>
      <trkpt lat="45.69775" lon="6.27148">
        <ele>1834</ele>
        <time>2021-06-19T11:21:18Z</time>
      </trkpt>
      <trkpt lat="45.69782" lon="6.27147">
        <ele>1833</ele>
        <time>2021-06-19T11:21:23Z</time>
      </trkpt>
      <trkpt lat="45.69789" lon="6.27148">
        <ele>1832</ele>
        <time>2021-06-19T11:21:28Z</time>
      </trkpt>
      <trkpt lat="45.69794" lon="6.2715">
        <ele>1833</ele>
        <time>2021-06-19T11:21:32Z</time>
      </trkpt>
      <trkpt lat="45.69801" lon="6.27152">
        <ele>1834</ele>
        <time>2021-06-19T11:21:37Z</time>
      </trkpt>
      <trkpt lat="45.69802" lon="6.2716">
        <ele>1835</ele>
        <time>2021-06-19T11:21:44Z</time>
      </trkpt>
      <trkpt lat="45.69807" lon="6.27185">
        <ele>1834</ele>
        <time>2021-06-19T11:22:06Z</time>
      </trkpt>
      <trkpt lat="45.69811" lon="6.27192">
        <ele>1833</ele>
        <time>2021-06-19T11:22:10Z</time>
      </trkpt>
      <trkpt lat="45.69816" lon="6.27201">
        <ele>1834</ele>
        <time>2021-06-19T11:22:15Z</time>
      </trkpt>
      <trkpt lat="45.69823" lon="6.27202">
        <ele>1833</ele>
        <time>2021-06-19T11:22:20Z</time>
      </trkpt>
      <trkpt lat="45.69832" lon="6.27207">
        <ele>1834</ele>
        <time>2021-06-19T11:22:33Z</time>
      </trkpt>
      <trkpt lat="45.69839" lon="6.27205">
        <ele>1834</ele>
        <time>2021-06-19T11:22:42Z</time>
      </trkpt>
      <trkpt lat="45.69839" lon="6.27215">
        <ele>1834</ele>
        <time>2021-06-19T11:22:50Z</time>
      </trkpt>
      <trkpt lat="45.69842" lon="6.27222">
        <ele>1834</ele>
        <time>2021-06-19T11:22:54Z</time>
      </trkpt>
      <trkpt lat="45.69849" lon="6.27237">
        <ele>1835</ele>
        <time>2021-06-19T11:23:06Z</time>
      </trkpt>
      <trkpt lat="45.69853" lon="6.27245">
        <ele>1835</ele>
        <time>2021-06-19T11:23:11Z</time>
      </trkpt>
      <trkpt lat="45.69845" lon="6.27242">
        <ele>1835</ele>
        <time>2021-06-19T11:23:39Z</time>
      </trkpt>
      <trkpt lat="45.69842" lon="6.27234">
        <ele>1834</ele>
        <time>2021-06-19T11:23:44Z</time>
      </trkpt>
      <trkpt lat="45.69838" lon="6.27229">
        <ele>1834</ele>
        <time>2021-06-19T11:23:47Z</time>
      </trkpt>
      <trkpt lat="45.69833" lon="6.27224">
        <ele>1834</ele>
        <time>2021-06-19T11:23:52Z</time>
      </trkpt>
      <trkpt lat="45.69829" lon="6.27225">
        <ele>1833</ele>
        <time>2021-06-19T11:23:55Z</time>
      </trkpt>
      <trkpt lat="45.69819" lon="6.27219">
        <ele>1833</ele>
        <time>2021-06-19T11:24:04Z</time>
      </trkpt>
      <trkpt lat="45.69811" lon="6.27211">
        <ele>1833</ele>
        <time>2021-06-19T11:24:11Z</time>
      </trkpt>
      <trkpt lat="45.69807" lon="6.27203">
        <ele>1832</ele>
        <time>2021-06-19T11:24:16Z</time>
      </trkpt>
      <trkpt lat="45.69803" lon="6.27196">
        <ele>1832</ele>
        <time>2021-06-19T11:24:20Z</time>
      </trkpt>
      <trkpt lat="45.69802" lon="6.27188">
        <ele>1831</ele>
        <time>2021-06-19T11:24:24Z</time>
      </trkpt>
      <trkpt lat="45.69802" lon="6.27179">
        <ele>1833</ele>
        <time>2021-06-19T11:24:29Z</time>
      </trkpt>
      <trkpt lat="45.69802" lon="6.27166">
        <ele>1832</ele>
        <time>2021-06-19T11:24:39Z</time>
      </trkpt>
      <trkpt lat="45.69799" lon="6.27159">
        <ele>1832</ele>
        <time>2021-06-19T11:24:44Z</time>
      </trkpt>
      <trkpt lat="45.69794" lon="6.27155">
        <ele>1831</ele>
        <time>2021-06-19T11:24:48Z</time>
      </trkpt>
      <trkpt lat="45.69787" lon="6.27156">
        <ele>1832</ele>
        <time>2021-06-19T11:24:52Z</time>
      </trkpt>
      <trkpt lat="45.69783" lon="6.27156">
        <ele>1832</ele>
        <time>2021-06-19T11:24:55Z</time>
      </trkpt>
      <trkpt lat="45.69777" lon="6.27157">
        <ele>1832</ele>
        <time>2021-06-19T11:25:04Z</time>
      </trkpt>
      <trkpt lat="45.69768" lon="6.27157">
        <ele>1831</ele>
        <time>2021-06-19T11:25:20Z</time>
      </trkpt>
      <trkpt lat="45.69756" lon="6.27155">
        <ele>1830</ele>
        <time>2021-06-19T11:25:28Z</time>
      </trkpt>
      <trkpt lat="45.6975" lon="6.27157">
        <ele>1829</ele>
        <time>2021-06-19T11:25:33Z</time>
      </trkpt>
      <trkpt lat="45.6975" lon="6.27156">
        <ele>1827</ele>
        <time>2021-06-19T11:27:04Z</time>
      </trkpt>
      <trkpt lat="45.69748" lon="6.27157">
        <ele>1825</ele>
        <time>2021-06-19T11:32:55Z</time>
      </trkpt>
      <trkpt lat="45.69742" lon="6.27161">
        <ele>1823</ele>
        <time>2021-06-19T11:34:21Z</time>
      </trkpt>
      <trkpt lat="45.69733" lon="6.27168">
        <ele>1820</ele>
        <time>2021-06-19T11:34:27Z</time>
      </trkpt>
      <trkpt lat="45.6973" lon="6.27176">
        <ele>1819</ele>
        <time>2021-06-19T11:34:33Z</time>
      </trkpt>
      <trkpt lat="45.69733" lon="6.27185">
        <ele>1816</ele>
        <time>2021-06-19T11:34:40Z</time>
      </trkpt>
      <trkpt lat="45.69734" lon="6.27195">
        <ele>1814</ele>
        <time>2021-06-19T11:34:45Z</time>
      </trkpt>
      <trkpt lat="45.69731" lon="6.27203">
        <ele>1812</ele>
        <time>2021-06-19T11:34:49Z</time>
      </trkpt>
      <trkpt lat="45.6972" lon="6.27211">
        <ele>1811</ele>
        <time>2021-06-19T11:34:54Z</time>
      </trkpt>
      <trkpt lat="45.69716" lon="6.27215">
        <ele>1811</ele>
        <time>2021-06-19T11:34:57Z</time>
      </trkpt>
      <trkpt lat="45.69711" lon="6.2722">
        <ele>1810</ele>
        <time>2021-06-19T11:35:01Z</time>
      </trkpt>
      <trkpt lat="45.69698" lon="6.2723">
        <ele>1808</ele>
        <time>2021-06-19T11:35:09Z</time>
      </trkpt>
      <trkpt lat="45.69691" lon="6.27231">
        <ele>1807</ele>
        <time>2021-06-19T11:35:13Z</time>
      </trkpt>
      <trkpt lat="45.69686" lon="6.27235">
        <ele>1806</ele>
        <time>2021-06-19T11:35:17Z</time>
      </trkpt>
      <trkpt lat="45.6968" lon="6.27242">
        <ele>1805</ele>
        <time>2021-06-19T11:35:21Z</time>
      </trkpt>
      <trkpt lat="45.69677" lon="6.27248">
        <ele>1804</ele>
        <time>2021-06-19T11:35:25Z</time>
      </trkpt>
      <trkpt lat="45.69675" lon="6.27257">
        <ele>1804</ele>
        <time>2021-06-19T11:35:29Z</time>
      </trkpt>
      <trkpt lat="45.69675" lon="6.27264">
        <ele>1802</ele>
        <time>2021-06-19T11:35:33Z</time>
      </trkpt>
      <trkpt lat="45.69678" lon="6.27299">
        <ele>1795</ele>
        <time>2021-06-19T11:35:49Z</time>
      </trkpt>
      <trkpt lat="45.69677" lon="6.27306">
        <ele>1794</ele>
        <time>2021-06-19T11:35:53Z</time>
      </trkpt>
      <trkpt lat="45.69672" lon="6.27319">
        <ele>1791</ele>
        <time>2021-06-19T11:36:03Z</time>
      </trkpt>
      <trkpt lat="45.69669" lon="6.27327">
        <ele>1790</ele>
        <time>2021-06-19T11:36:06Z</time>
      </trkpt>
      <trkpt lat="45.69664" lon="6.27334">
        <ele>1789</ele>
        <time>2021-06-19T11:36:10Z</time>
      </trkpt>
      <trkpt lat="45.69662" lon="6.27342">
        <ele>1788</ele>
        <time>2021-06-19T11:36:14Z</time>
      </trkpt>
      <trkpt lat="45.69665" lon="6.27349">
        <ele>1786</ele>
        <time>2021-06-19T11:36:18Z</time>
      </trkpt>
      <trkpt lat="45.69685" lon="6.27348">
        <ele>1783</ele>
        <time>2021-06-19T11:36:30Z</time>
      </trkpt>
      <trkpt lat="45.69692" lon="6.27353">
        <ele>1783</ele>
        <time>2021-06-19T11:36:34Z</time>
      </trkpt>
      <trkpt lat="45.69696" lon="6.27358">
        <ele>1782</ele>
        <time>2021-06-19T11:36:38Z</time>
      </trkpt>
      <trkpt lat="45.69696" lon="6.27367">
        <ele>1780</ele>
        <time>2021-06-19T11:36:44Z</time>
      </trkpt>
      <trkpt lat="45.6969" lon="6.2737">
        <ele>1779</ele>
        <time>2021-06-19T11:36:47Z</time>
      </trkpt>
      <trkpt lat="45.69685" lon="6.27374">
        <ele>1777</ele>
        <time>2021-06-19T11:36:51Z</time>
      </trkpt>
      <trkpt lat="45.69682" lon="6.27382">
        <ele>1775</ele>
        <time>2021-06-19T11:36:54Z</time>
      </trkpt>
      <trkpt lat="45.69681" lon="6.27397">
        <ele>1773</ele>
        <time>2021-06-19T11:37:00Z</time>
      </trkpt>
      <trkpt lat="45.69683" lon="6.27407">
        <ele>1772</ele>
        <time>2021-06-19T11:37:04Z</time>
      </trkpt>
      <trkpt lat="45.69687" lon="6.27415">
        <ele>1772</ele>
        <time>2021-06-19T11:37:08Z</time>
      </trkpt>
      <trkpt lat="45.69695" lon="6.27439">
        <ele>1770</ele>
        <time>2021-06-19T11:37:22Z</time>
      </trkpt>
      <trkpt lat="45.69701" lon="6.27448">
        <ele>1771</ele>
        <time>2021-06-19T11:37:30Z</time>
      </trkpt>
      <trkpt lat="45.69702" lon="6.27456">
        <ele>1771</ele>
        <time>2021-06-19T11:37:42Z</time>
      </trkpt>
      <trkpt lat="45.69702" lon="6.27453">
        <ele>1769</ele>
        <time>2021-06-19T11:39:36Z</time>
      </trkpt>
      <trkpt lat="45.6971" lon="6.27453">
        <ele>1768</ele>
        <time>2021-06-19T12:56:51Z</time>
      </trkpt>
      <trkpt lat="45.69712" lon="6.27449">
        <ele>1771</ele>
        <time>2021-06-19T12:56:53Z</time>
      </trkpt>
      <trkpt lat="45.69405" lon="6.28157">
        <ele>1712</ele>
        <time>2021-06-19T13:31:00Z</time>
      </trkpt>
      <trkpt lat="45.69405" lon="6.28157">
        <ele>1712</ele>
        <time>2021-06-19T13:31:01Z</time>
      </trkpt>
      <trkpt lat="45.69401" lon="6.28168">
        <ele>1711</ele>
        <time>2021-06-19T13:31:30Z</time>
      </trkpt>
      <trkpt lat="45.69396" lon="6.28194">
        <ele>1706</ele>
        <time>2021-06-19T13:32:48Z</time>
      </trkpt>
      <trkpt lat="45.69393" lon="6.2821">
        <ele>1705</ele>
        <time>2021-06-19T13:33:08Z</time>
      </trkpt>
      <trkpt lat="45.69288" lon="6.27962">
        <ele>1656.8</ele>
        <time>2021-06-19T13:41:19Z</time>
      </trkpt>
      <trkpt lat="45.67944" lon="6.27429">
        <ele>1641</ele>
        <time>2021-06-19T14:27:57Z</time>
      </trkpt>
      <trkpt lat="45.67945" lon="6.27429">
        <ele>1641</ele>
        <time>2021-06-19T14:27:58Z</time>
      </trkpt>
      <trkpt lat="45.51197" lon="6.00501">
        <ele>296</ele>
        <time>2021-06-20T12:01:34Z</time>
      </trkpt>
      <trkpt lat="45.51197" lon="6.00501">
        <ele>296</ele>
        <time>2021-06-20T12:01:42Z</time>
      </trkpt>
      <trkpt lat="45.51466" lon="5.9983">
        <ele>295</ele>
        <time>2021-06-20T12:02:13Z</time>
      </trkpt>
      <trkpt lat="45.51535" lon="5.99618">
        <ele>296</ele>
        <time>2021-06-20T12:02:20Z</time>
      </trkpt>
      <trkpt lat="45.51565" lon="5.99489">
        <ele>298</ele>
        <time>2021-06-20T12:02:25Z</time>
      </trkpt>
    </trkseg>
  </trk>
  <trk>
    <name><![CDATA[16 juin 2021 à 17:39:07]]></name>
    <cmt><![CDATA[16 juin 2021 à 17:39:07]]></cmt>
    <trkseg>
  </trk>
  <trk>
    <name><![CDATA[16 juin 2021 à 16:17:49]]></name>
    <cmt><![CDATA[16 juin 2021 à 16:17:49]]></cmt>
    <trkseg>
      <trkpt lat="45.11631" lon="5.40387">
        <ele>942</ele>
        <time>2021-06-16T14:17:49Z</time>
      </trkpt>
      <trkpt lat="45.11631" lon="5.40385">
        <ele>942</ele>
        <time>2021-06-16T14:17:50Z</time>
      </trkpt>
      <trkpt lat="45.11629" lon="5.40357">
        <ele>944</ele>
        <time>2021-06-16T14:18:29Z</time>
      </trkpt>
      <trkpt lat="45.11621" lon="5.4036">
        <ele>944</ele>
        <time>2021-06-16T14:19:03Z</time>
      </trkpt>
      <trkpt lat="45.11615" lon="5.40359">
        <ele>944</ele>
        <time>2021-06-16T14:19:07Z</time>
      </trkpt>
      <trkpt lat="45.1161" lon="5.40362">
        <ele>944</ele>
        <time>2021-06-16T14:19:12Z</time>
      </trkpt>
      <trkpt lat="45.11601" lon="5.40361">
        <ele>945</ele>
        <time>2021-06-16T14:19:21Z</time>
      </trkpt>
      <trkpt lat="45.11584" lon="5.40358">
        <ele>945</ele>
        <time>2021-06-16T14:19:39Z</time>
      </trkpt>
      <trkpt lat="45.11569" lon="5.4036">
        <ele>945</ele>
        <time>2021-06-16T14:19:54Z</time>
      </trkpt>
      <trkpt lat="45.11562" lon="5.40364">
        <ele>944</ele>
        <time>2021-06-16T14:20:01Z</time>
      </trkpt>
      <trkpt lat="45.11554" lon="5.40367">
        <ele>943</ele>
        <time>2021-06-16T14:20:07Z</time>
      </trkpt>
      <trkpt lat="45.1155" lon="5.40372">
        <ele>942</ele>
        <time>2021-06-16T14:20:18Z</time>
      </trkpt>
      <trkpt lat="45.11543" lon="5.40376">
        <ele>943</ele>
        <time>2021-06-16T14:20:24Z</time>
      </trkpt>
      <trkpt lat="45.11537" lon="5.40378">
        <ele>942</ele>
        <time>2021-06-16T14:20:28Z</time>
      </trkpt>
      <trkpt lat="45.11533" lon="5.40374">
        <ele>941</ele>
        <time>2021-06-16T14:20:33Z</time>
      </trkpt>
      <trkpt lat="45.11528" lon="5.40376">
        <ele>942</ele>
        <time>2021-06-16T14:21:11Z</time>
      </trkpt>
      <trkpt lat="45.11526" lon="5.40367">
        <ele>942</ele>
        <time>2021-06-16T14:21:17Z</time>
      </trkpt>
      <trkpt lat="45.11527" lon="5.40359">
        <ele>941</ele>
        <time>2021-06-16T14:21:23Z</time>
      </trkpt>
      <trkpt lat="45.11524" lon="5.40351">
        <ele>941</ele>
        <time>2021-06-16T14:21:36Z</time>
      </trkpt>
      <trkpt lat="45.11519" lon="5.40357">
        <ele>941</ele>
        <time>2021-06-16T14:21:44Z</time>
      </trkpt>
      <trkpt lat="45.11514" lon="5.40362">
        <ele>940</ele>
        <time>2021-06-16T14:21:50Z</time>
      </trkpt>
      <trkpt lat="45.11509" lon="5.40366">
        <ele>939</ele>
        <time>2021-06-16T14:22:01Z</time>
      </trkpt>
      <trkpt lat="45.115" lon="5.40367">
        <ele>938</ele>
        <time>2021-06-16T14:22:21Z</time>
      </trkpt>
      <trkpt lat="45.11494" lon="5.40361">
        <ele>937</ele>
        <time>2021-06-16T14:22:25Z</time>
      </trkpt>
      <trkpt lat="45.11495" lon="5.40366">
        <ele>940</ele>
        <time>2021-06-16T14:22:59Z</time>
      </trkpt>
      <trkpt lat="45.115" lon="5.40371">
        <ele>940</ele>
        <time>2021-06-16T14:23:29Z</time>
      </trkpt>
      <trkpt lat="45.11502" lon="5.40379">
        <ele>940</ele>
        <time>2021-06-16T14:23:33Z</time>
      </trkpt>
      <trkpt lat="45.11507" lon="5.40371">
        <ele>941</ele>
        <time>2021-06-16T14:23:50Z</time>
      </trkpt>
      <trkpt lat="45.11513" lon="5.40371">
        <ele>941</ele>
        <time>2021-06-16T14:23:54Z</time>
      </trkpt>
      <trkpt lat="45.11518" lon="5.40372">
        <ele>941</ele>
        <time>2021-06-16T14:23:58Z</time>
      </trkpt>
      <trkpt lat="45.11524" lon="5.40371">
        <ele>943</ele>
        <time>2021-06-16T14:24:04Z</time>
      </trkpt>
      <trkpt lat="45.11536" lon="5.40379">
        <ele>944</ele>
        <time>2021-06-16T14:24:14Z</time>
      </trkpt>
      <trkpt lat="45.11542" lon="5.40377">
        <ele>945</ele>
        <time>2021-06-16T14:24:26Z</time>
      </trkpt>
      <trkpt lat="45.11534" lon="5.40389">
        <ele>944</ele>
        <time>2021-06-16T14:24:49Z</time>
      </trkpt>
      <trkpt lat="45.1153" lon="5.40396">
        <ele>942</ele>
        <time>2021-06-16T14:24:57Z</time>
      </trkpt>
      <trkpt lat="45.11545" lon="5.40431">
        <ele>939</ele>
        <time>2021-06-16T14:25:24Z</time>
      </trkpt>
      <trkpt lat="45.11548" lon="5.40442">
        <ele>938</ele>
        <time>2021-06-16T14:25:29Z</time>
      </trkpt>
      <trkpt lat="45.11547" lon="5.40453">
        <ele>937</ele>
        <time>2021-06-16T14:25:35Z</time>
      </trkpt>
      <trkpt lat="45.11545" lon="5.4046">
        <ele>936</ele>
        <time>2021-06-16T14:25:39Z</time>
      </trkpt>
      <trkpt lat="45.11542" lon="5.40469">
        <ele>935</ele>
        <time>2021-06-16T14:25:51Z</time>
      </trkpt>
      <trkpt lat="45.11534" lon="5.40475">
        <ele>934</ele>
        <time>2021-06-16T14:26:04Z</time>
      </trkpt>
      <trkpt lat="45.11529" lon="5.40477">
        <ele>933</ele>
        <time>2021-06-16T14:26:09Z</time>
      </trkpt>
      <trkpt lat="45.11515" lon="5.40494">
        <ele>932</ele>
        <time>2021-06-16T14:26:26Z</time>
      </trkpt>
      <trkpt lat="45.11501" lon="5.40502">
        <ele>930</ele>
        <time>2021-06-16T14:26:40Z</time>
      </trkpt>
      <trkpt lat="45.11495" lon="5.40509">
        <ele>930</ele>
        <time>2021-06-16T14:26:46Z</time>
      </trkpt>
      <trkpt lat="45.11487" lon="5.40523">
        <ele>929</ele>
        <time>2021-06-16T14:26:59Z</time>
      </trkpt>
      <trkpt lat="45.11478" lon="5.40527">
        <ele>927</ele>
        <time>2021-06-16T14:27:09Z</time>
      </trkpt>
      <trkpt lat="45.1147" lon="5.40522">
        <ele>927</ele>
        <time>2021-06-16T14:27:14Z</time>
      </trkpt>
      <trkpt lat="45.11463" lon="5.40514">
        <ele>927</ele>
        <time>2021-06-16T14:27:19Z</time>
      </trkpt>
      <trkpt lat="45.1146" lon="5.40508">
        <ele>927</ele>
        <time>2021-06-16T14:27:23Z</time>
      </trkpt>
      <trkpt lat="45.11455" lon="5.40499">
        <ele>927</ele>
        <time>2021-06-16T14:27:30Z</time>
      </trkpt>
      <trkpt lat="45.11448" lon="5.40491">
        <ele>926</ele>
        <time>2021-06-16T14:27:41Z</time>
      </trkpt>
      <trkpt lat="45.11444" lon="5.40498">
        <ele>927</ele>
        <time>2021-06-16T14:28:01Z</time>
      </trkpt>
      <trkpt lat="45.11463" lon="5.40522">
        <ele>928</ele>
        <time>2021-06-16T14:28:20Z</time>
      </trkpt>
      <trkpt lat="45.11477" lon="5.40524">
        <ele>929</ele>
        <time>2021-06-16T14:28:34Z</time>
      </trkpt>
      <trkpt lat="45.11485" lon="5.4052">
        <ele>930</ele>
        <time>2021-06-16T14:28:39Z</time>
      </trkpt>
      <trkpt lat="45.11491" lon="5.40525">
        <ele>930</ele>
        <time>2021-06-16T14:28:50Z</time>
      </trkpt>
      <trkpt lat="45.11492" lon="5.40546">
        <ele>931</ele>
        <time>2021-06-16T14:29:02Z</time>
      </trkpt>
      <trkpt lat="45.11485" lon="5.40576">
        <ele>932</ele>
        <time>2021-06-16T14:29:18Z</time>
      </trkpt>
      <trkpt lat="45.11486" lon="5.406">
        <ele>934</ele>
        <time>2021-06-16T14:29:29Z</time>
      </trkpt>
      <trkpt lat="45.11484" lon="5.4061">
        <ele>934</ele>
        <time>2021-06-16T14:29:35Z</time>
      </trkpt>
      <trkpt lat="45.11478" lon="5.40621">
        <ele>936</ele>
        <time>2021-06-16T14:29:51Z</time>
      </trkpt>
      <trkpt lat="45.1147" lon="5.40624">
        <ele>936</ele>
        <time>2021-06-16T14:30:21Z</time>
      </trkpt>
      <trkpt lat="45.11458" lon="5.40622">
        <ele>936</ele>
        <time>2021-06-16T14:30:34Z</time>
      </trkpt>
      <trkpt lat="45.1145" lon="5.40622">
        <ele>936</ele>
        <time>2021-06-16T14:31:16Z</time>
      </trkpt>
      <trkpt lat="45.11442" lon="5.40623">
        <ele>936</ele>
        <time>2021-06-16T14:31:22Z</time>
      </trkpt>
      <trkpt lat="45.11419" lon="5.40625">
        <ele>938</ele>
        <time>2021-06-16T14:31:39Z</time>
      </trkpt>
      <trkpt lat="45.11413" lon="5.40623">
        <ele>938</ele>
        <time>2021-06-16T14:31:45Z</time>
      </trkpt>
      <trkpt lat="45.11412" lon="5.40609">
        <ele>938</ele>
        <time>2021-06-16T14:31:54Z</time>
      </trkpt>
      <trkpt lat="45.11417" lon="5.40602">
        <ele>937</ele>
        <time>2021-06-16T14:32:01Z</time>
      </trkpt>
      <trkpt lat="45.11418" lon="5.4059">
        <ele>936</ele>
        <time>2021-06-16T14:32:14Z</time>
      </trkpt>
      <trkpt lat="45.11421" lon="5.40581">
        <ele>934</ele>
        <time>2021-06-16T14:32:20Z</time>
      </trkpt>
      <trkpt lat="45.11416" lon="5.40571">
        <ele>933</ele>
        <time>2021-06-16T14:32:33Z</time>
      </trkpt>
      <trkpt lat="45.11417" lon="5.4056">
        <ele>932</ele>
        <time>2021-06-16T14:32:43Z</time>
      </trkpt>
      <trkpt lat="45.11414" lon="5.4055">
        <ele>931</ele>
        <time>2021-06-16T14:32:50Z</time>
      </trkpt>
      <trkpt lat="45.11391" lon="5.40507">
        <ele>928</ele>
        <time>2021-06-16T14:33:24Z</time>
      </trkpt>
      <trkpt lat="45.11386" lon="5.40499">
        <ele>928</ele>
        <time>2021-06-16T14:33:30Z</time>
      </trkpt>
      <trkpt lat="45.11381" lon="5.40492">
        <ele>928</ele>
        <time>2021-06-16T14:33:37Z</time>
      </trkpt>
      <trkpt lat="45.11357" lon="5.40476">
        <ele>927</ele>
        <time>2021-06-16T14:33:55Z</time>
      </trkpt>
      <trkpt lat="45.11348" lon="5.40476">
        <ele>927</ele>
        <time>2021-06-16T14:33:59Z</time>
      </trkpt>
      <trkpt lat="45.11342" lon="5.40478">
        <ele>926</ele>
        <time>2021-06-16T14:34:04Z</time>
      </trkpt>
      <trkpt lat="45.11334" lon="5.40477">
        <ele>926</ele>
        <time>2021-06-16T14:34:10Z</time>
      </trkpt>
      <trkpt lat="45.11323" lon="5.40474">
        <ele>926</ele>
        <time>2021-06-16T14:34:22Z</time>
      </trkpt>
      <trkpt lat="45.11318" lon="5.40476">
        <ele>927</ele>
        <time>2021-06-16T14:34:26Z</time>
      </trkpt>
      <trkpt lat="45.11285" lon="5.40499">
        <ele>930</ele>
        <time>2021-06-16T14:34:58Z</time>
      </trkpt>
      <trkpt lat="45.11277" lon="5.405">
        <ele>931</ele>
        <time>2021-06-16T14:35:04Z</time>
      </trkpt>
      <trkpt lat="45.11254" lon="5.40515">
        <ele>933</ele>
        <time>2021-06-16T14:35:19Z</time>
      </trkpt>
      <trkpt lat="45.11247" lon="5.40516">
        <ele>933</ele>
        <time>2021-06-16T14:35:24Z</time>
      </trkpt>
      <trkpt lat="45.11243" lon="5.40521">
        <ele>934</ele>
        <time>2021-06-16T14:35:29Z</time>
      </trkpt>
      <trkpt lat="45.11235" lon="5.40527">
        <ele>932</ele>
        <time>2021-06-16T14:35:38Z</time>
      </trkpt>
      <trkpt lat="45.11227" lon="5.4053">
        <ele>930</ele>
        <time>2021-06-16T14:35:49Z</time>
      </trkpt>
      <trkpt lat="45.11211" lon="5.4055">
        <ele>928</ele>
        <time>2021-06-16T14:36:16Z</time>
      </trkpt>
      <trkpt lat="45.11205" lon="5.40552">
        <ele>928</ele>
        <time>2021-06-16T14:36:20Z</time>
      </trkpt>
      <trkpt lat="45.11179" lon="5.40538">
        <ele>929</ele>
        <time>2021-06-16T14:36:41Z</time>
      </trkpt>
      <trkpt lat="45.11167" lon="5.40521">
        <ele>929</ele>
        <time>2021-06-16T14:36:54Z</time>
      </trkpt>
      <trkpt lat="45.1116" lon="5.40521">
        <ele>929</ele>
        <time>2021-06-16T14:36:59Z</time>
      </trkpt>
      <trkpt lat="45.11116" lon="5.40493">
        <ele>928</ele>
        <time>2021-06-16T14:37:39Z</time>
      </trkpt>
      <trkpt lat="45.11102" lon="5.40483">
        <ele>928</ele>
        <time>2021-06-16T14:37:50Z</time>
      </trkpt>
      <trkpt lat="45.11086" lon="5.40477">
        <ele>928</ele>
        <time>2021-06-16T14:37:58Z</time>
      </trkpt>
      <trkpt lat="45.11081" lon="5.40471">
        <ele>928</ele>
        <time>2021-06-16T14:38:02Z</time>
      </trkpt>
      <trkpt lat="45.11077" lon="5.40466">
        <ele>928</ele>
        <time>2021-06-16T14:38:07Z</time>
      </trkpt>
      <trkpt lat="45.11067" lon="5.40461">
        <ele>928</ele>
        <time>2021-06-16T14:38:19Z</time>
      </trkpt>
      <trkpt lat="45.11066" lon="5.40446">
        <ele>929</ele>
        <time>2021-06-16T14:38:34Z</time>
      </trkpt>
      <trkpt lat="45.11058" lon="5.40445">
        <ele>930</ele>
        <time>2021-06-16T14:38:46Z</time>
      </trkpt>
      <trkpt lat="45.11054" lon="5.40441">
        <ele>931</ele>
        <time>2021-06-16T14:38:51Z</time>
      </trkpt>
      <trkpt lat="45.11052" lon="5.40434">
        <ele>931</ele>
        <time>2021-06-16T14:39:12Z</time>
      </trkpt>
      <trkpt lat="45.1106" lon="5.40417">
        <ele>931</ele>
        <time>2021-06-16T14:39:44Z</time>
      </trkpt>
      <trkpt lat="45.11066" lon="5.40408">
        <ele>932</ele>
        <time>2021-06-16T14:40:07Z</time>
      </trkpt>
      <trkpt lat="45.11066" lon="5.40414">
        <ele>932</ele>
        <time>2021-06-16T14:40:50Z</time>
      </trkpt>
      <trkpt lat="45.11066" lon="5.40426">
        <ele>927</ele>
        <time>2021-06-16T14:41:15Z</time>
      </trkpt>
      <trkpt lat="45.11055" lon="5.40441">
        <ele>932</ele>
        <time>2021-06-16T14:41:58Z</time>
      </trkpt>
      <trkpt lat="45.11047" lon="5.40438">
        <ele>934</ele>
        <time>2021-06-16T14:42:09Z</time>
      </trkpt>
      <trkpt lat="45.1103" lon="5.40428">
        <ele>935</ele>
        <time>2021-06-16T14:42:34Z</time>
      </trkpt>
      <trkpt lat="45.11019" lon="5.40428">
        <ele>935</ele>
        <time>2021-06-16T14:42:55Z</time>
      </trkpt>
      <trkpt lat="45.11014" lon="5.40424">
        <ele>935</ele>
        <time>2021-06-16T14:43:02Z</time>
      </trkpt>
      <trkpt lat="45.11009" lon="5.40423">
        <ele>935</ele>
        <time>2021-06-16T14:43:08Z</time>
      </trkpt>
      <trkpt lat="45.10995" lon="5.40421">
        <ele>933</ele>
        <time>2021-06-16T14:43:24Z</time>
      </trkpt>
      <trkpt lat="45.10988" lon="5.40419">
        <ele>933</ele>
        <time>2021-06-16T14:43:41Z</time>
      </trkpt>
      <trkpt lat="45.10981" lon="5.40424">
        <ele>932</ele>
        <time>2021-06-16T14:44:06Z</time>
      </trkpt>
      <trkpt lat="45.10975" lon="5.40422">
        <ele>932</ele>
        <time>2021-06-16T14:44:11Z</time>
      </trkpt>
      <trkpt lat="45.1097" lon="5.40419">
        <ele>931</ele>
        <time>2021-06-16T14:44:20Z</time>
      </trkpt>
      <trkpt lat="45.10952" lon="5.40416">
        <ele>929</ele>
        <time>2021-06-16T14:44:36Z</time>
      </trkpt>
      <trkpt lat="45.10944" lon="5.4042">
        <ele>929</ele>
        <time>2021-06-16T14:44:46Z</time>
      </trkpt>
      <trkpt lat="45.10936" lon="5.40422">
        <ele>928</ele>
        <time>2021-06-16T14:45:18Z</time>
      </trkpt>
      <trkpt lat="45.10931" lon="5.4042">
        <ele>926</ele>
        <time>2021-06-16T14:45:43Z</time>
      </trkpt>
      <trkpt lat="45.10927" lon="5.40413">
        <ele>928</ele>
        <time>2021-06-16T14:50:20Z</time>
      </trkpt>
      <trkpt lat="45.10921" lon="5.4041">
        <ele>928</ele>
        <time>2021-06-16T14:50:45Z</time>
      </trkpt>
      <trkpt lat="45.10916" lon="5.40404">
        <ele>928</ele>
        <time>2021-06-16T14:50:51Z</time>
      </trkpt>
      <trkpt lat="45.1091" lon="5.40401">
        <ele>928</ele>
        <time>2021-06-16T14:51:03Z</time>
      </trkpt>
      <trkpt lat="45.10904" lon="5.40392">
        <ele>927</ele>
        <time>2021-06-16T14:51:18Z</time>
      </trkpt>
      <trkpt lat="45.10902" lon="5.40382">
        <ele>927</ele>
        <time>2021-06-16T14:51:49Z</time>
      </trkpt>
      <trkpt lat="45.10898" lon="5.40375">
        <ele>926</ele>
        <time>2021-06-16T14:51:59Z</time>
      </trkpt>
      <trkpt lat="45.10887" lon="5.40361">
        <ele>925</ele>
        <time>2021-06-16T14:52:17Z</time>
      </trkpt>
      <trkpt lat="45.10882" lon="5.40357">
        <ele>924</ele>
        <time>2021-06-16T14:52:23Z</time>
      </trkpt>
      <trkpt lat="45.10878" lon="5.40349">
        <ele>923</ele>
        <time>2021-06-16T14:52:31Z</time>
      </trkpt>
      <trkpt lat="45.10868" lon="5.40336">
        <ele>922</ele>
        <time>2021-06-16T14:52:43Z</time>
      </trkpt>
      <trkpt lat="45.1086" lon="5.40332">
        <ele>921</ele>
        <time>2021-06-16T14:52:51Z</time>
      </trkpt>
      <trkpt lat="45.10846" lon="5.40317">
        <ele>919</ele>
        <time>2021-06-16T14:53:05Z</time>
      </trkpt>
      <trkpt lat="45.10842" lon="5.40309">
        <ele>920</ele>
        <time>2021-06-16T14:54:24Z</time>
      </trkpt>
      <trkpt lat="45.10836" lon="5.40305">
        <ele>920</ele>
        <time>2021-06-16T14:54:29Z</time>
      </trkpt>
      <trkpt lat="45.10832" lon="5.40298">
        <ele>919</ele>
        <time>2021-06-16T14:54:34Z</time>
      </trkpt>
      <trkpt lat="45.1083" lon="5.40291">
        <ele>919</ele>
        <time>2021-06-16T14:54:38Z</time>
      </trkpt>
      <trkpt lat="45.10823" lon="5.40276">
        <ele>918</ele>
        <time>2021-06-16T14:54:47Z</time>
      </trkpt>
      <trkpt lat="45.10819" lon="5.40271">
        <ele>917</ele>
        <time>2021-06-16T14:54:50Z</time>
      </trkpt>
      <trkpt lat="45.10815" lon="5.40266">
        <ele>917</ele>
        <time>2021-06-16T14:54:54Z</time>
      </trkpt>
      <trkpt lat="45.10811" lon="5.40258">
        <ele>915</ele>
        <time>2021-06-16T14:54:59Z</time>
      </trkpt>
      <trkpt lat="45.10811" lon="5.4025">
        <ele>916</ele>
        <time>2021-06-16T14:55:03Z</time>
      </trkpt>
      <trkpt lat="45.10812" lon="5.40242">
        <ele>916</ele>
        <time>2021-06-16T14:55:07Z</time>
      </trkpt>
      <trkpt lat="45.10813" lon="5.40234">
        <ele>915</ele>
        <time>2021-06-16T14:55:12Z</time>
      </trkpt>
      <trkpt lat="45.10815" lon="5.40225">
        <ele>913</ele>
        <time>2021-06-16T14:55:30Z</time>
      </trkpt>
      <trkpt lat="45.10819" lon="5.40217">
        <ele>912</ele>
        <time>2021-06-16T14:55:35Z</time>
      </trkpt>
      <trkpt lat="45.10832" lon="5.40205">
        <ele>911</ele>
        <time>2021-06-16T14:55:53Z</time>
      </trkpt>
      <trkpt lat="45.10837" lon="5.40202">
        <ele>910</ele>
        <time>2021-06-16T14:55:59Z</time>
      </trkpt>
      <trkpt lat="45.10843" lon="5.40201">
        <ele>911</ele>
        <time>2021-06-16T14:56:06Z</time>
      </trkpt>
      <trkpt lat="45.10852" lon="5.40195">
        <ele>910</ele>
        <time>2021-06-16T14:56:16Z</time>
      </trkpt>
      <trkpt lat="45.10857" lon="5.4019">
        <ele>907</ele>
        <time>2021-06-16T14:56:22Z</time>
      </trkpt>
      <trkpt lat="45.10867" lon="5.40179">
        <ele>911</ele>
        <time>2021-06-16T14:56:51Z</time>
      </trkpt>
      <trkpt lat="45.10869" lon="5.40171">
        <ele>907</ele>
        <time>2021-06-16T14:56:58Z</time>
      </trkpt>
      <trkpt lat="45.1087" lon="5.40163">
        <ele>909</ele>
        <time>2021-06-16T14:57:02Z</time>
      </trkpt>
      <trkpt lat="45.10868" lon="5.40153">
        <ele>911</ele>
        <time>2021-06-16T14:57:06Z</time>
      </trkpt>
      <trkpt lat="45.10864" lon="5.40148">
        <ele>906</ele>
        <time>2021-06-16T14:57:11Z</time>
      </trkpt>
      <trkpt lat="45.10858" lon="5.4014">
        <ele>909</ele>
        <time>2021-06-16T14:57:18Z</time>
      </trkpt>
      <trkpt lat="45.1085" lon="5.4013">
        <ele>910</ele>
        <time>2021-06-16T14:57:47Z</time>
      </trkpt>
      <trkpt lat="45.1084" lon="5.40129">
        <ele>909</ele>
        <time>2021-06-16T14:57:56Z</time>
      </trkpt>
      <trkpt lat="45.10833" lon="5.40131">
        <ele>909</ele>
        <time>2021-06-16T14:58:04Z</time>
      </trkpt>
      <trkpt lat="45.10825" lon="5.40128">
        <ele>909</ele>
        <time>2021-06-16T14:58:11Z</time>
      </trkpt>
      <trkpt lat="45.1081" lon="5.40126">
        <ele>908</ele>
        <time>2021-06-16T14:58:25Z</time>
      </trkpt>
      <trkpt lat="45.10801" lon="5.40128">
        <ele>905</ele>
        <time>2021-06-16T14:58:47Z</time>
      </trkpt>
      <trkpt lat="45.10794" lon="5.40134">
        <ele>905</ele>
        <time>2021-06-16T14:58:55Z</time>
      </trkpt>
      <trkpt lat="45.10787" lon="5.40133">
        <ele>908</ele>
        <time>2021-06-16T14:59:01Z</time>
      </trkpt>
      <trkpt lat="45.10772" lon="5.40138">
        <ele>905</ele>
        <time>2021-06-16T14:59:11Z</time>
      </trkpt>
      <trkpt lat="45.10764" lon="5.40139">
        <ele>907</ele>
        <time>2021-06-16T14:59:17Z</time>
      </trkpt>
      <trkpt lat="45.10758" lon="5.40136">
        <ele>907</ele>
        <time>2021-06-16T14:59:23Z</time>
      </trkpt>
      <trkpt lat="45.1075" lon="5.40137">
        <ele>907</ele>
        <time>2021-06-16T14:59:30Z</time>
      </trkpt>
      <trkpt lat="45.10742" lon="5.40137">
        <ele>907</ele>
        <time>2021-06-16T14:59:35Z</time>
      </trkpt>
      <trkpt lat="45.10736" lon="5.40139">
        <ele>907</ele>
        <time>2021-06-16T14:59:40Z</time>
      </trkpt>
      <trkpt lat="45.1073" lon="5.40137">
        <ele>907</ele>
        <time>2021-06-16T14:59:52Z</time>
      </trkpt>
      <trkpt lat="45.10724" lon="5.4013">
        <ele>908</ele>
        <time>2021-06-16T15:00:17Z</time>
      </trkpt>
      <trkpt lat="45.10718" lon="5.40129">
        <ele>908</ele>
        <time>2021-06-16T15:00:22Z</time>
      </trkpt>
      <trkpt lat="45.10704" lon="5.40132">
        <ele>908</ele>
        <time>2021-06-16T15:00:31Z</time>
      </trkpt>
      <trkpt lat="45.10699" lon="5.40139">
        <ele>908</ele>
        <time>2021-06-16T15:01:05Z</time>
      </trkpt>
      <trkpt lat="45.10695" lon="5.40128">
        <ele>908</ele>
        <time>2021-06-16T15:01:32Z</time>
      </trkpt>
      <trkpt lat="45.1069" lon="5.4013">
        <ele>909</ele>
        <time>2021-06-16T15:01:39Z</time>
      </trkpt>
      <trkpt lat="45.10682" lon="5.40131">
        <ele>908</ele>
        <time>2021-06-16T15:01:48Z</time>
      </trkpt>
      <trkpt lat="45.1067" lon="5.40133">
        <ele>909</ele>
        <time>2021-06-16T15:01:59Z</time>
      </trkpt>
      <trkpt lat="45.10664" lon="5.40139">
        <ele>909</ele>
        <time>2021-06-16T15:02:05Z</time>
      </trkpt>
      <trkpt lat="45.10661" lon="5.40147">
        <ele>908</ele>
        <time>2021-06-16T15:02:10Z</time>
      </trkpt>
      <trkpt lat="45.10655" lon="5.40166">
        <ele>908</ele>
        <time>2021-06-16T15:02:48Z</time>
      </trkpt>
      <trkpt lat="45.1065" lon="5.40165">
        <ele>907</ele>
        <time>2021-06-16T15:02:58Z</time>
      </trkpt>
      <trkpt lat="45.10648" lon="5.40159">
        <ele>908</ele>
        <time>2021-06-16T15:03:50Z</time>
      </trkpt>
      <trkpt lat="45.10646" lon="5.40157">
        <ele>909</ele>
        <time>2021-06-16T15:04:55Z</time>
      </trkpt>
      <trkpt lat="45.10643" lon="5.40164">
        <ele>909</ele>
        <time>2021-06-16T15:05:40Z</time>
      </trkpt>
      <trkpt lat="45.10639" lon="5.40157">
        <ele>909</ele>
        <time>2021-06-16T15:06:05Z</time>
      </trkpt>
      <trkpt lat="45.10647" lon="5.40155">
        <ele>910</ele>
        <time>2021-06-16T15:06:15Z</time>
      </trkpt>
      <trkpt lat="45.10651" lon="5.40145">
        <ele>911</ele>
        <time>2021-06-16T15:06:30Z</time>
      </trkpt>
      <trkpt lat="45.10652" lon="5.40139">
        <ele>911</ele>
        <time>2021-06-16T15:06:35Z</time>
      </trkpt>
      <trkpt lat="45.10655" lon="5.40131">
        <ele>911</ele>
        <time>2021-06-16T15:06:44Z</time>
      </trkpt>
      <trkpt lat="45.10654" lon="5.40133">
        <ele>912</ele>
        <time>2021-06-16T15:10:22Z</time>
      </trkpt>
      <trkpt lat="45.10679" lon="5.40105">
        <ele>915</ele>
        <time>2021-06-16T15:13:36Z</time>
      </trkpt>
      <trkpt lat="45.10682" lon="5.40137">
        <ele>920</ele>
        <time>2021-06-16T15:21:16Z</time>
      </trkpt>
      <trkpt lat="45.10676" lon="5.40136">
        <ele>919</ele>
        <time>2021-06-16T15:21:27Z</time>
      </trkpt>
      <trkpt lat="45.1067" lon="5.40134">
        <ele>921</ele>
        <time>2021-06-16T15:21:33Z</time>
      </trkpt>
      <trkpt lat="45.10664" lon="5.40136">
        <ele>920</ele>
        <time>2021-06-16T15:21:43Z</time>
      </trkpt>
    </trkseg>
  </trk>
  <trk>
    <name><![CDATA[22 mai 2021 à 17:05:13]]></name>
    <cmt><![CDATA[22 mai 2021 à 17:05:13]]></cmt>
    <trkseg>
      <trkpt lat="45.95134" lon="6.73959">
        <ele>1353</ele>
        <time>2021-05-22T15:05:14Z</time>
      </trkpt>
      <trkpt lat="45.95137" lon="6.7396">
        <ele>1353</ele>
        <time>2021-05-22T15:05:15Z</time>
      </trkpt>
    </trkseg>
  </trk>
  <trk>
    <name><![CDATA[22 mai 2021 à 12:23:43]]></name>
    <cmt><![CDATA[22 mai 2021 à 12:23:43]]></cmt>
    <trkseg>
      <trkpt lat="45.95132" lon="6.73946">
        <ele>1346</ele>
        <time>2021-05-22T10:23:44Z</time>
      </trkpt>
      <trkpt lat="45.95133" lon="6.73947">
        <ele>1346</ele>
        <time>2021-05-22T10:23:45Z</time>
      </trkpt>
      <trkpt lat="45.95126" lon="6.73947">
        <ele>1346</ele>
        <time>2021-05-22T10:24:02Z</time>
      </trkpt>
      <trkpt lat="45.95123" lon="6.73953">
        <ele>1346</ele>
        <time>2021-05-22T10:24:22Z</time>
      </trkpt>
      <trkpt lat="45.95118" lon="6.73947">
        <ele>1345</ele>
        <time>2021-05-22T10:24:58Z</time>
      </trkpt>
      <trkpt lat="45.95125" lon="6.73943">
        <ele>1347</ele>
        <time>2021-05-22T10:26:39Z</time>
      </trkpt>
      <trkpt lat="45.95127" lon="6.73949">
        <ele>1347</ele>
        <time>2021-05-22T10:39:46Z</time>
      </trkpt>
      <trkpt lat="45.95124" lon="6.73956">
        <ele>1347</ele>
        <time>2021-05-22T10:40:35Z</time>
      </trkpt>
      <trkpt lat="45.95119" lon="6.73964">
        <ele>1348</ele>
        <time>2021-05-22T10:40:43Z</time>
      </trkpt>
      <trkpt lat="45.95118" lon="6.73971">
        <ele>1348</ele>
        <time>2021-05-22T10:40:47Z</time>
      </trkpt>
      <trkpt lat="45.95118" lon="6.73976">
        <ele>1348</ele>
        <time>2021-05-22T10:40:50Z</time>
      </trkpt>
      <trkpt lat="45.9512" lon="6.73981">
        <ele>1348</ele>
        <time>2021-05-22T10:40:53Z</time>
      </trkpt>
      <trkpt lat="45.95121" lon="6.73993">
        <ele>1349</ele>
        <time>2021-05-22T10:41:00Z</time>
      </trkpt>
      <trkpt lat="45.95122" lon="6.74002">
        <ele>1349</ele>
        <time>2021-05-22T10:41:05Z</time>
      </trkpt>
      <trkpt lat="45.95125" lon="6.74007">
        <ele>1350</ele>
        <time>2021-05-22T10:41:09Z</time>
      </trkpt>
      <trkpt lat="45.95128" lon="6.74014">
        <ele>1350</ele>
        <time>2021-05-22T10:41:12Z</time>
      </trkpt>
      <trkpt lat="45.95129" lon="6.74021">
        <ele>1350</ele>
        <time>2021-05-22T10:41:16Z</time>
      </trkpt>
      <trkpt lat="45.95127" lon="6.74027">
        <ele>1351</ele>
        <time>2021-05-22T10:41:24Z</time>
      </trkpt>
      <trkpt lat="45.95126" lon="6.74032">
        <ele>1351</ele>
        <time>2021-05-22T10:41:28Z</time>
      </trkpt>
      <trkpt lat="45.95122" lon="6.74035">
        <ele>1353</ele>
        <time>2021-05-22T10:41:34Z</time>
      </trkpt>
      <trkpt lat="45.95119" lon="6.7404">
        <ele>1354</ele>
        <time>2021-05-22T10:41:37Z</time>
      </trkpt>
      <trkpt lat="45.95119" lon="6.74048">
        <ele>1354</ele>
        <time>2021-05-22T10:41:44Z</time>
      </trkpt>
      <trkpt lat="45.9512" lon="6.74054">
        <ele>1355</ele>
        <time>2021-05-22T10:41:48Z</time>
      </trkpt>
      <trkpt lat="45.95124" lon="6.74057">
        <ele>1355</ele>
        <time>2021-05-22T10:41:51Z</time>
      </trkpt>
      <trkpt lat="45.95128" lon="6.74059">
        <ele>1355</ele>
        <time>2021-05-22T10:41:54Z</time>
      </trkpt>
      <trkpt lat="45.95132" lon="6.74063">
        <ele>1355</ele>
        <time>2021-05-22T10:41:57Z</time>
      </trkpt>
      <trkpt lat="45.95136" lon="6.74065">
        <ele>1355</ele>
        <time>2021-05-22T10:42:00Z</time>
      </trkpt>
      <trkpt lat="45.95144" lon="6.74079">
        <ele>1356</ele>
        <time>2021-05-22T10:42:10Z</time>
      </trkpt>
      <trkpt lat="45.95141" lon="6.74083">
        <ele>1356</ele>
        <time>2021-05-22T10:42:16Z</time>
      </trkpt>
      <trkpt lat="45.95138" lon="6.74083">
        <ele>1357</ele>
        <time>2021-05-22T10:42:19Z</time>
      </trkpt>
      <trkpt lat="45.95134" lon="6.74087">
        <ele>1358</ele>
        <time>2021-05-22T10:42:22Z</time>
      </trkpt>
      <trkpt lat="45.9513" lon="6.74087">
        <ele>1358</ele>
        <time>2021-05-22T10:42:25Z</time>
      </trkpt>
      <trkpt lat="45.95125" lon="6.7409">
        <ele>1358</ele>
        <time>2021-05-22T10:42:29Z</time>
      </trkpt>
      <trkpt lat="45.95117" lon="6.74093">
        <ele>1359</ele>
        <time>2021-05-22T10:42:37Z</time>
      </trkpt>
      <trkpt lat="45.95116" lon="6.74099">
        <ele>1359</ele>
        <time>2021-05-22T10:42:39Z</time>
      </trkpt>
      <trkpt lat="45.95112" lon="6.74098">
        <ele>1359</ele>
        <time>2021-05-22T10:42:43Z</time>
      </trkpt>
      <trkpt lat="45.95108" lon="6.74099">
        <ele>1359</ele>
        <time>2021-05-22T10:42:47Z</time>
      </trkpt>
      <trkpt lat="45.95102" lon="6.74104">
        <ele>1359</ele>
        <time>2021-05-22T10:42:54Z</time>
      </trkpt>
      <trkpt lat="45.95098" lon="6.74108">
        <ele>1359</ele>
        <time>2021-05-22T10:42:57Z</time>
      </trkpt>
      <trkpt lat="45.95095" lon="6.74112">
        <ele>1359</ele>
        <time>2021-05-22T10:43:01Z</time>
      </trkpt>
      <trkpt lat="45.95091" lon="6.74115">
        <ele>1359</ele>
        <time>2021-05-22T10:43:05Z</time>
      </trkpt>
      <trkpt lat="45.95086" lon="6.74124">
        <ele>1359</ele>
        <time>2021-05-22T10:43:11Z</time>
      </trkpt>
      <trkpt lat="45.95085" lon="6.74133">
        <ele>1360</ele>
        <time>2021-05-22T10:43:20Z</time>
      </trkpt>
      <trkpt lat="45.9509" lon="6.74167">
        <ele>1363</ele>
        <time>2021-05-22T10:43:55Z</time>
      </trkpt>
      <trkpt lat="45.95093" lon="6.74184">
        <ele>1365</ele>
        <time>2021-05-22T10:44:15Z</time>
      </trkpt>
      <trkpt lat="45.95096" lon="6.74194">
        <ele>1366</ele>
        <time>2021-05-22T10:44:23Z</time>
      </trkpt>
      <trkpt lat="45.95097" lon="6.742">
        <ele>1366</ele>
        <time>2021-05-22T10:44:27Z</time>
      </trkpt>
      <trkpt lat="45.95102" lon="6.74204">
        <ele>1368</ele>
        <time>2021-05-22T10:44:35Z</time>
      </trkpt>
      <trkpt lat="45.95105" lon="6.74208">
        <ele>1368</ele>
        <time>2021-05-22T10:44:39Z</time>
      </trkpt>
      <trkpt lat="45.95106" lon="6.74216">
        <ele>1370</ele>
        <time>2021-05-22T10:44:47Z</time>
      </trkpt>
      <trkpt lat="45.95114" lon="6.74224">
        <ele>1373</ele>
        <time>2021-05-22T10:45:01Z</time>
      </trkpt>
      <trkpt lat="45.95119" lon="6.74232">
        <ele>1375</ele>
        <time>2021-05-22T10:45:12Z</time>
      </trkpt>
      <trkpt lat="45.95123" lon="6.74233">
        <ele>1375</ele>
        <time>2021-05-22T10:45:15Z</time>
      </trkpt>
      <trkpt lat="45.95131" lon="6.74233">
        <ele>1376</ele>
        <time>2021-05-22T10:45:22Z</time>
      </trkpt>
      <trkpt lat="45.95135" lon="6.74235">
        <ele>1377</ele>
        <time>2021-05-22T10:45:30Z</time>
      </trkpt>
      <trkpt lat="45.9514" lon="6.74233">
        <ele>1377</ele>
        <time>2021-05-22T10:46:00Z</time>
      </trkpt>
      <trkpt lat="45.95158" lon="6.74237">
        <ele>1379</ele>
        <time>2021-05-22T10:46:20Z</time>
      </trkpt>
      <trkpt lat="45.95158" lon="6.74246">
        <ele>1380</ele>
        <time>2021-05-22T10:46:33Z</time>
      </trkpt>
      <trkpt lat="45.95152" lon="6.7426">
        <ele>1382</ele>
        <time>2021-05-22T10:46:50Z</time>
      </trkpt>
      <trkpt lat="45.95148" lon="6.74265">
        <ele>1385</ele>
        <time>2021-05-22T10:47:02Z</time>
      </trkpt>
      <trkpt lat="45.95146" lon="6.74269">
        <ele>1385</ele>
        <time>2021-05-22T10:47:08Z</time>
      </trkpt>
      <trkpt lat="45.95139" lon="6.74272">
        <ele>1386</ele>
        <time>2021-05-22T10:47:18Z</time>
      </trkpt>
      <trkpt lat="45.95135" lon="6.74271">
        <ele>1385</ele>
        <time>2021-05-22T10:47:21Z</time>
      </trkpt>
      <trkpt lat="45.95127" lon="6.74272">
        <ele>1386</ele>
        <time>2021-05-22T10:47:27Z</time>
      </trkpt>
      <trkpt lat="45.95122" lon="6.74275">
        <ele>1386</ele>
        <time>2021-05-22T10:47:32Z</time>
      </trkpt>
      <trkpt lat="45.95114" lon="6.74279">
        <ele>1385</ele>
        <time>2021-05-22T10:47:39Z</time>
      </trkpt>
      <trkpt lat="45.9511" lon="6.74286">
        <ele>1384</ele>
        <time>2021-05-22T10:47:47Z</time>
      </trkpt>
      <trkpt lat="45.95105" lon="6.74288">
        <ele>1382</ele>
        <time>2021-05-22T10:47:52Z</time>
      </trkpt>
      <trkpt lat="45.9508" lon="6.74286">
        <ele>1376</ele>
        <time>2021-05-22T10:48:12Z</time>
      </trkpt>
      <trkpt lat="45.95077" lon="6.74289">
        <ele>1375</ele>
        <time>2021-05-22T10:48:15Z</time>
      </trkpt>
      <trkpt lat="45.95073" lon="6.7429">
        <ele>1375</ele>
        <time>2021-05-22T10:48:19Z</time>
      </trkpt>
      <trkpt lat="45.95068" lon="6.74289">
        <ele>1374</ele>
        <time>2021-05-22T10:48:25Z</time>
      </trkpt>
      <trkpt lat="45.95063" lon="6.74286">
        <ele>1372</ele>
        <time>2021-05-22T10:48:29Z</time>
      </trkpt>
      <trkpt lat="45.95058" lon="6.74289">
        <ele>1371</ele>
        <time>2021-05-22T10:48:33Z</time>
      </trkpt>
      <trkpt lat="45.95055" lon="6.74293">
        <ele>1371</ele>
        <time>2021-05-22T10:48:36Z</time>
      </trkpt>
      <trkpt lat="45.95051" lon="6.74294">
        <ele>1370</ele>
        <time>2021-05-22T10:48:40Z</time>
      </trkpt>
      <trkpt lat="45.95041" lon="6.74295">
        <ele>1368</ele>
        <time>2021-05-22T10:48:46Z</time>
      </trkpt>
      <trkpt lat="45.95037" lon="6.74297">
        <ele>1368</ele>
        <time>2021-05-22T10:48:49Z</time>
      </trkpt>
      <trkpt lat="45.95034" lon="6.74299">
        <ele>1367</ele>
        <time>2021-05-22T10:48:53Z</time>
      </trkpt>
      <trkpt lat="45.9503" lon="6.74302">
        <ele>1367</ele>
        <time>2021-05-22T10:48:56Z</time>
      </trkpt>
      <trkpt lat="45.95023" lon="6.74308">
        <ele>1365</ele>
        <time>2021-05-22T10:49:04Z</time>
      </trkpt>
      <trkpt lat="45.95018" lon="6.74309">
        <ele>1364</ele>
        <time>2021-05-22T10:49:07Z</time>
      </trkpt>
      <trkpt lat="45.95015" lon="6.74317">
        <ele>1363</ele>
        <time>2021-05-22T10:49:12Z</time>
      </trkpt>
      <trkpt lat="45.95013" lon="6.74326">
        <ele>1363</ele>
        <time>2021-05-22T10:49:19Z</time>
      </trkpt>
      <trkpt lat="45.9501" lon="6.74325">
        <ele>1363</ele>
        <time>2021-05-22T10:49:45Z</time>
      </trkpt>
      <trkpt lat="45.95006" lon="6.74332">
        <ele>1364</ele>
        <time>2021-05-22T10:49:56Z</time>
      </trkpt>
      <trkpt lat="45.95005" lon="6.74337">
        <ele>1364</ele>
        <time>2021-05-22T10:49:58Z</time>
      </trkpt>
      <trkpt lat="45.95004" lon="6.74342">
        <ele>1363</ele>
        <time>2021-05-22T10:50:01Z</time>
      </trkpt>
      <trkpt lat="45.95" lon="6.74346">
        <ele>1363</ele>
        <time>2021-05-22T10:50:05Z</time>
      </trkpt>
      <trkpt lat="45.94999" lon="6.74352">
        <ele>1363</ele>
        <time>2021-05-22T10:50:08Z</time>
      </trkpt>
      <trkpt lat="45.94996" lon="6.74357">
        <ele>1363</ele>
        <time>2021-05-22T10:50:12Z</time>
      </trkpt>
      <trkpt lat="45.94996" lon="6.74364">
        <ele>1363</ele>
        <time>2021-05-22T10:50:16Z</time>
      </trkpt>
      <trkpt lat="45.94992" lon="6.74371">
        <ele>1363</ele>
        <time>2021-05-22T10:50:21Z</time>
      </trkpt>
      <trkpt lat="45.94991" lon="6.74381">
        <ele>1362</ele>
        <time>2021-05-22T10:50:28Z</time>
      </trkpt>
      <trkpt lat="45.94989" lon="6.7439">
        <ele>1363</ele>
        <time>2021-05-22T10:50:32Z</time>
      </trkpt>
      <trkpt lat="45.94989" lon="6.74399">
        <ele>1363</ele>
        <time>2021-05-22T10:50:37Z</time>
      </trkpt>
      <trkpt lat="45.94987" lon="6.74407">
        <ele>1362</ele>
        <time>2021-05-22T10:50:42Z</time>
      </trkpt>
      <trkpt lat="45.94984" lon="6.74414">
        <ele>1362</ele>
        <time>2021-05-22T10:50:46Z</time>
      </trkpt>
      <trkpt lat="45.94983" lon="6.74422">
        <ele>1362</ele>
        <time>2021-05-22T10:50:51Z</time>
      </trkpt>
      <trkpt lat="45.94982" lon="6.7443">
        <ele>1361</ele>
        <time>2021-05-22T10:50:55Z</time>
      </trkpt>
      <trkpt lat="45.94981" lon="6.74438">
        <ele>1361</ele>
        <time>2021-05-22T10:51:00Z</time>
      </trkpt>
      <trkpt lat="45.94982" lon="6.74467">
        <ele>1360</ele>
        <time>2021-05-22T10:51:19Z</time>
      </trkpt>
      <trkpt lat="45.94985" lon="6.74476">
        <ele>1359</ele>
        <time>2021-05-22T10:51:24Z</time>
      </trkpt>
      <trkpt lat="45.94987" lon="6.74487">
        <ele>1359</ele>
        <time>2021-05-22T10:51:29Z</time>
      </trkpt>
      <trkpt lat="45.94989" lon="6.74513">
        <ele>1358</ele>
        <time>2021-05-22T10:51:43Z</time>
      </trkpt>
      <trkpt lat="45.9499" lon="6.74523">
        <ele>1358</ele>
        <time>2021-05-22T10:51:48Z</time>
      </trkpt>
      <trkpt lat="45.94988" lon="6.74531">
        <ele>1358</ele>
        <time>2021-05-22T10:51:53Z</time>
      </trkpt>
      <trkpt lat="45.94985" lon="6.74539">
        <ele>1357</ele>
        <time>2021-05-22T10:51:57Z</time>
      </trkpt>
      <trkpt lat="45.94983" lon="6.74548">
        <ele>1358</ele>
        <time>2021-05-22T10:52:02Z</time>
      </trkpt>
      <trkpt lat="45.94978" lon="6.74574">
        <ele>1357</ele>
        <time>2021-05-22T10:52:15Z</time>
      </trkpt>
      <trkpt lat="45.94978" lon="6.74582">
        <ele>1356</ele>
        <time>2021-05-22T10:52:19Z</time>
      </trkpt>
      <trkpt lat="45.94976" lon="6.74591">
        <ele>1356</ele>
        <time>2021-05-22T10:52:24Z</time>
      </trkpt>
      <trkpt lat="45.94976" lon="6.746">
        <ele>1357</ele>
        <time>2021-05-22T10:52:29Z</time>
      </trkpt>
      <trkpt lat="45.94973" lon="6.7461">
        <ele>1356</ele>
        <time>2021-05-22T10:52:34Z</time>
      </trkpt>
      <trkpt lat="45.9497" lon="6.74617">
        <ele>1355</ele>
        <time>2021-05-22T10:52:38Z</time>
      </trkpt>
      <trkpt lat="45.94966" lon="6.74625">
        <ele>1356</ele>
        <time>2021-05-22T10:52:42Z</time>
      </trkpt>
      <trkpt lat="45.94959" lon="6.74649">
        <ele>1355</ele>
        <time>2021-05-22T10:52:56Z</time>
      </trkpt>
      <trkpt lat="45.94959" lon="6.74658">
        <ele>1355</ele>
        <time>2021-05-22T10:53:02Z</time>
      </trkpt>
      <trkpt lat="45.9496" lon="6.74667">
        <ele>1355</ele>
        <time>2021-05-22T10:53:06Z</time>
      </trkpt>
      <trkpt lat="45.94959" lon="6.74675">
        <ele>1355</ele>
        <time>2021-05-22T10:53:11Z</time>
      </trkpt>
      <trkpt lat="45.94957" lon="6.74701">
        <ele>1355</ele>
        <time>2021-05-22T10:53:25Z</time>
      </trkpt>
      <trkpt lat="45.94959" lon="6.74709">
        <ele>1355</ele>
        <time>2021-05-22T10:53:29Z</time>
      </trkpt>
      <trkpt lat="45.9496" lon="6.74724">
        <ele>1355</ele>
        <time>2021-05-22T10:53:39Z</time>
      </trkpt>
      <trkpt lat="45.94966" lon="6.74733">
        <ele>1355</ele>
        <time>2021-05-22T10:53:46Z</time>
      </trkpt>
      <trkpt lat="45.94978" lon="6.74737">
        <ele>1355</ele>
        <time>2021-05-22T10:53:56Z</time>
      </trkpt>
      <trkpt lat="45.94987" lon="6.74736">
        <ele>1355</ele>
        <time>2021-05-22T10:54:03Z</time>
      </trkpt>
      <trkpt lat="45.94998" lon="6.74729">
        <ele>1354</ele>
        <time>2021-05-22T10:54:11Z</time>
      </trkpt>
      <trkpt lat="45.95003" lon="6.74726">
        <ele>1354</ele>
        <time>2021-05-22T10:54:15Z</time>
      </trkpt>
      <trkpt lat="45.95009" lon="6.74725">
        <ele>1354</ele>
        <time>2021-05-22T10:54:20Z</time>
      </trkpt>
      <trkpt lat="45.95015" lon="6.74724">
        <ele>1353</ele>
        <time>2021-05-22T10:54:24Z</time>
      </trkpt>
      <trkpt lat="45.95025" lon="6.74728">
        <ele>1353</ele>
        <time>2021-05-22T10:54:32Z</time>
      </trkpt>
      <trkpt lat="45.9503" lon="6.74733">
        <ele>1353</ele>
        <time>2021-05-22T10:54:36Z</time>
      </trkpt>
      <trkpt lat="45.95034" lon="6.74738">
        <ele>1353</ele>
        <time>2021-05-22T10:54:41Z</time>
      </trkpt>
      <trkpt lat="45.95038" lon="6.74745">
        <ele>1353</ele>
        <time>2021-05-22T10:54:46Z</time>
      </trkpt>
      <trkpt lat="45.95044" lon="6.74749">
        <ele>1353</ele>
        <time>2021-05-22T10:54:50Z</time>
      </trkpt>
      <trkpt lat="45.95048" lon="6.74755">
        <ele>1353</ele>
        <time>2021-05-22T10:54:55Z</time>
      </trkpt>
      <trkpt lat="45.95052" lon="6.74761">
        <ele>1352</ele>
        <time>2021-05-22T10:55:00Z</time>
      </trkpt>
      <trkpt lat="45.95058" lon="6.74766">
        <ele>1351</ele>
        <time>2021-05-22T10:55:06Z</time>
      </trkpt>
      <trkpt lat="45.95067" lon="6.74779">
        <ele>1351</ele>
        <time>2021-05-22T10:55:15Z</time>
      </trkpt>
      <trkpt lat="45.95069" lon="6.74789">
        <ele>1350</ele>
        <time>2021-05-22T10:55:19Z</time>
      </trkpt>
      <trkpt lat="45.95071" lon="6.74796">
        <ele>1351</ele>
        <time>2021-05-22T10:55:22Z</time>
      </trkpt>
      <trkpt lat="45.95069" lon="6.74807">
        <ele>1350</ele>
        <time>2021-05-22T10:55:35Z</time>
      </trkpt>
      <trkpt lat="45.95071" lon="6.74817">
        <ele>1351</ele>
        <time>2021-05-22T10:55:39Z</time>
      </trkpt>
      <trkpt lat="45.95069" lon="6.74824">
        <ele>1350</ele>
        <time>2021-05-22T10:55:44Z</time>
      </trkpt>
      <trkpt lat="45.95068" lon="6.74832">
        <ele>1350</ele>
        <time>2021-05-22T10:55:49Z</time>
      </trkpt>
      <trkpt lat="45.95068" lon="6.7484">
        <ele>1349</ele>
        <time>2021-05-22T10:55:54Z</time>
      </trkpt>
      <trkpt lat="45.95069" lon="6.74849">
        <ele>1350</ele>
        <time>2021-05-22T10:55:57Z</time>
      </trkpt>
      <trkpt lat="45.95071" lon="6.74855">
        <ele>1349</ele>
        <time>2021-05-22T10:56:01Z</time>
      </trkpt>
      <trkpt lat="45.95074" lon="6.74863">
        <ele>1348</ele>
        <time>2021-05-22T10:56:05Z</time>
      </trkpt>
      <trkpt lat="45.95077" lon="6.74875">
        <ele>1348</ele>
        <time>2021-05-22T10:56:14Z</time>
      </trkpt>
      <trkpt lat="45.95082" lon="6.74891">
        <ele>1347</ele>
        <time>2021-05-22T10:56:22Z</time>
      </trkpt>
      <trkpt lat="45.95082" lon="6.749">
        <ele>1348</ele>
        <time>2021-05-22T10:56:26Z</time>
      </trkpt>
      <trkpt lat="45.95085" lon="6.74906">
        <ele>1347</ele>
        <time>2021-05-22T10:56:30Z</time>
      </trkpt>
      <trkpt lat="45.95085" lon="6.74915">
        <ele>1347</ele>
        <time>2021-05-22T10:56:35Z</time>
      </trkpt>
      <trkpt lat="45.95086" lon="6.74924">
        <ele>1346</ele>
        <time>2021-05-22T10:56:40Z</time>
      </trkpt>
      <trkpt lat="45.95082" lon="6.74933">
        <ele>1347</ele>
        <time>2021-05-22T10:56:44Z</time>
      </trkpt>
      <trkpt lat="45.9508" lon="6.7494">
        <ele>1347</ele>
        <time>2021-05-22T10:56:49Z</time>
      </trkpt>
      <trkpt lat="45.95079" lon="6.74948">
        <ele>1347</ele>
        <time>2021-05-22T10:56:53Z</time>
      </trkpt>
      <trkpt lat="45.95079" lon="6.74967">
        <ele>1346</ele>
        <time>2021-05-22T10:57:03Z</time>
      </trkpt>
      <trkpt lat="45.9508" lon="6.74976">
        <ele>1346</ele>
        <time>2021-05-22T10:57:07Z</time>
      </trkpt>
      <trkpt lat="45.95081" lon="6.74985">
        <ele>1347</ele>
        <time>2021-05-22T10:57:12Z</time>
      </trkpt>
      <trkpt lat="45.95081" lon="6.74994">
        <ele>1347</ele>
        <time>2021-05-22T10:57:17Z</time>
      </trkpt>
      <trkpt lat="45.95084" lon="6.75002">
        <ele>1347</ele>
        <time>2021-05-22T10:57:23Z</time>
      </trkpt>
      <trkpt lat="45.95087" lon="6.7501">
        <ele>1347</ele>
        <time>2021-05-22T10:57:28Z</time>
      </trkpt>
      <trkpt lat="45.95092" lon="6.75015">
        <ele>1347</ele>
        <time>2021-05-22T10:57:32Z</time>
      </trkpt>
      <trkpt lat="45.95105" lon="6.75044">
        <ele>1348</ele>
        <time>2021-05-22T10:57:51Z</time>
      </trkpt>
      <trkpt lat="45.95111" lon="6.75047">
        <ele>1348</ele>
        <time>2021-05-22T10:57:57Z</time>
      </trkpt>
      <trkpt lat="45.95144" lon="6.75086">
        <ele>1350</ele>
        <time>2021-05-22T10:58:29Z</time>
      </trkpt>
      <trkpt lat="45.95147" lon="6.75092">
        <ele>1351</ele>
        <time>2021-05-22T10:58:33Z</time>
      </trkpt>
      <trkpt lat="45.95151" lon="6.75099">
        <ele>1351</ele>
        <time>2021-05-22T10:58:39Z</time>
      </trkpt>
      <trkpt lat="45.95159" lon="6.75112">
        <ele>1352</ele>
        <time>2021-05-22T10:58:49Z</time>
      </trkpt>
      <trkpt lat="45.95164" lon="6.75117">
        <ele>1353</ele>
        <time>2021-05-22T10:58:55Z</time>
      </trkpt>
      <trkpt lat="45.95169" lon="6.75128">
        <ele>1355</ele>
        <time>2021-05-22T10:59:04Z</time>
      </trkpt>
      <trkpt lat="45.95177" lon="6.75134">
        <ele>1355</ele>
        <time>2021-05-22T10:59:15Z</time>
      </trkpt>
      <trkpt lat="45.95182" lon="6.75139">
        <ele>1356</ele>
        <time>2021-05-22T10:59:20Z</time>
      </trkpt>
      <trkpt lat="45.95213" lon="6.75164">
        <ele>1357</ele>
        <time>2021-05-22T10:59:48Z</time>
      </trkpt>
      <trkpt lat="45.95217" lon="6.7517">
        <ele>1357</ele>
        <time>2021-05-22T10:59:53Z</time>
      </trkpt>
      <trkpt lat="45.95221" lon="6.75177">
        <ele>1357</ele>
        <time>2021-05-22T10:59:58Z</time>
      </trkpt>
      <trkpt lat="45.95226" lon="6.7518">
        <ele>1357</ele>
        <time>2021-05-22T11:00:02Z</time>
      </trkpt>
      <trkpt lat="45.9523" lon="6.75186">
        <ele>1357</ele>
        <time>2021-05-22T11:00:06Z</time>
      </trkpt>
      <trkpt lat="45.95236" lon="6.75188">
        <ele>1357</ele>
        <time>2021-05-22T11:00:10Z</time>
      </trkpt>
      <trkpt lat="45.9524" lon="6.75195">
        <ele>1358</ele>
        <time>2021-05-22T11:00:15Z</time>
      </trkpt>
      <trkpt lat="45.95252" lon="6.75208">
        <ele>1358</ele>
        <time>2021-05-22T11:00:30Z</time>
      </trkpt>
      <trkpt lat="45.95261" lon="6.75221">
        <ele>1358</ele>
        <time>2021-05-22T11:00:40Z</time>
      </trkpt>
      <trkpt lat="45.95264" lon="6.75227">
        <ele>1358</ele>
        <time>2021-05-22T11:00:45Z</time>
      </trkpt>
      <trkpt lat="45.9527" lon="6.75242">
        <ele>1360</ele>
        <time>2021-05-22T11:00:56Z</time>
      </trkpt>
      <trkpt lat="45.95274" lon="6.7525">
        <ele>1360</ele>
        <time>2021-05-22T11:01:01Z</time>
      </trkpt>
      <trkpt lat="45.95275" lon="6.7526">
        <ele>1360</ele>
        <time>2021-05-22T11:01:06Z</time>
      </trkpt>
      <trkpt lat="45.95274" lon="6.75275">
        <ele>1359</ele>
        <time>2021-05-22T11:01:15Z</time>
      </trkpt>
      <trkpt lat="45.95273" lon="6.75285">
        <ele>1358</ele>
        <time>2021-05-22T11:01:20Z</time>
      </trkpt>
      <trkpt lat="45.95271" lon="6.75298">
        <ele>1359</ele>
        <time>2021-05-22T11:01:30Z</time>
      </trkpt>
      <trkpt lat="45.95265" lon="6.75314">
        <ele>1361</ele>
        <time>2021-05-22T11:01:39Z</time>
      </trkpt>
      <trkpt lat="45.9525" lon="6.75341">
        <ele>1361</ele>
        <time>2021-05-22T11:01:58Z</time>
      </trkpt>
      <trkpt lat="45.95247" lon="6.75358">
        <ele>1362</ele>
        <time>2021-05-22T11:02:09Z</time>
      </trkpt>
      <trkpt lat="45.95252" lon="6.75406">
        <ele>1364</ele>
        <time>2021-05-22T11:02:38Z</time>
      </trkpt>
      <trkpt lat="45.9525" lon="6.75422">
        <ele>1364</ele>
        <time>2021-05-22T11:02:47Z</time>
      </trkpt>
      <trkpt lat="45.95242" lon="6.75446">
        <ele>1364</ele>
        <time>2021-05-22T11:03:03Z</time>
      </trkpt>
      <trkpt lat="45.9524" lon="6.75464">
        <ele>1364</ele>
        <time>2021-05-22T11:03:13Z</time>
      </trkpt>
      <trkpt lat="45.9524" lon="6.75472">
        <ele>1363</ele>
        <time>2021-05-22T11:03:18Z</time>
      </trkpt>
      <trkpt lat="45.9524" lon="6.75482">
        <ele>1364</ele>
        <time>2021-05-22T11:03:23Z</time>
      </trkpt>
      <trkpt lat="45.9524" lon="6.75493">
        <ele>1363</ele>
        <time>2021-05-22T11:03:37Z</time>
      </trkpt>
      <trkpt lat="45.9524" lon="6.75501">
        <ele>1364</ele>
        <time>2021-05-22T11:03:42Z</time>
      </trkpt>
      <trkpt lat="45.95237" lon="6.75511">
        <ele>1363</ele>
        <time>2021-05-22T11:03:49Z</time>
      </trkpt>
      <trkpt lat="45.95238" lon="6.75521">
        <ele>1363</ele>
        <time>2021-05-22T11:03:53Z</time>
      </trkpt>
      <trkpt lat="45.95236" lon="6.75529">
        <ele>1363</ele>
        <time>2021-05-22T11:03:59Z</time>
      </trkpt>
      <trkpt lat="45.95233" lon="6.75535">
        <ele>1363</ele>
        <time>2021-05-22T11:04:03Z</time>
      </trkpt>
      <trkpt lat="45.9523" lon="6.75543">
        <ele>1363</ele>
        <time>2021-05-22T11:04:08Z</time>
      </trkpt>
      <trkpt lat="45.95226" lon="6.75548">
        <ele>1363</ele>
        <time>2021-05-22T11:04:13Z</time>
      </trkpt>
      <trkpt lat="45.95222" lon="6.75555">
        <ele>1363</ele>
        <time>2021-05-22T11:04:18Z</time>
      </trkpt>
      <trkpt lat="45.95217" lon="6.7556">
        <ele>1364</ele>
        <time>2021-05-22T11:04:23Z</time>
      </trkpt>
      <trkpt lat="45.95212" lon="6.75569">
        <ele>1363</ele>
        <time>2021-05-22T11:04:28Z</time>
      </trkpt>
      <trkpt lat="45.9521" lon="6.75575">
        <ele>1363</ele>
        <time>2021-05-22T11:04:33Z</time>
      </trkpt>
      <trkpt lat="45.95209" lon="6.75583">
        <ele>1363</ele>
        <time>2021-05-22T11:04:38Z</time>
      </trkpt>
      <trkpt lat="45.95205" lon="6.7559">
        <ele>1363</ele>
        <time>2021-05-22T11:04:42Z</time>
      </trkpt>
      <trkpt lat="45.95207" lon="6.75607">
        <ele>1363</ele>
        <time>2021-05-22T11:04:52Z</time>
      </trkpt>
      <trkpt lat="45.95205" lon="6.75614">
        <ele>1362</ele>
        <time>2021-05-22T11:04:56Z</time>
      </trkpt>
      <trkpt lat="45.95204" lon="6.75625">
        <ele>1363</ele>
        <time>2021-05-22T11:05:00Z</time>
      </trkpt>
      <trkpt lat="45.95207" lon="6.75633">
        <ele>1363</ele>
        <time>2021-05-22T11:05:05Z</time>
      </trkpt>
      <trkpt lat="45.95208" lon="6.75641">
        <ele>1362</ele>
        <time>2021-05-22T11:05:10Z</time>
      </trkpt>
      <trkpt lat="45.95211" lon="6.75649">
        <ele>1362</ele>
        <time>2021-05-22T11:05:14Z</time>
      </trkpt>
      <trkpt lat="45.95212" lon="6.75657">
        <ele>1361</ele>
        <time>2021-05-22T11:05:18Z</time>
      </trkpt>
      <trkpt lat="45.95214" lon="6.75666">
        <ele>1362</ele>
        <time>2021-05-22T11:05:22Z</time>
      </trkpt>
      <trkpt lat="45.95216" lon="6.75691">
        <ele>1361</ele>
        <time>2021-05-22T11:05:37Z</time>
      </trkpt>
      <trkpt lat="45.95213" lon="6.757">
        <ele>1361</ele>
        <time>2021-05-22T11:05:42Z</time>
      </trkpt>
      <trkpt lat="45.95212" lon="6.75708">
        <ele>1361</ele>
        <time>2021-05-22T11:05:46Z</time>
      </trkpt>
      <trkpt lat="45.95209" lon="6.75715">
        <ele>1362</ele>
        <time>2021-05-22T11:05:50Z</time>
      </trkpt>
      <trkpt lat="45.95207" lon="6.75722">
        <ele>1362</ele>
        <time>2021-05-22T11:05:55Z</time>
      </trkpt>
      <trkpt lat="45.95204" lon="6.75729">
        <ele>1362</ele>
        <time>2021-05-22T11:06:03Z</time>
      </trkpt>
      <trkpt lat="45.952" lon="6.75736">
        <ele>1362</ele>
        <time>2021-05-22T11:06:11Z</time>
      </trkpt>
      <trkpt lat="45.95194" lon="6.75758">
        <ele>1365</ele>
        <time>2021-05-22T11:06:32Z</time>
      </trkpt>
      <trkpt lat="45.95191" lon="6.75777">
        <ele>1366</ele>
        <time>2021-05-22T11:06:48Z</time>
      </trkpt>
      <trkpt lat="45.95179" lon="6.75795">
        <ele>1372</ele>
        <time>2021-05-22T11:07:21Z</time>
      </trkpt>
      <trkpt lat="45.95158" lon="6.75808">
        <ele>1374</ele>
        <time>2021-05-22T11:07:43Z</time>
      </trkpt>
      <trkpt lat="45.95149" lon="6.75825">
        <ele>1376</ele>
        <time>2021-05-22T11:08:09Z</time>
      </trkpt>
      <trkpt lat="45.95117" lon="6.7587">
        <ele>1379</ele>
        <time>2021-05-22T11:08:50Z</time>
      </trkpt>
      <trkpt lat="45.95112" lon="6.7589">
        <ele>1381</ele>
        <time>2021-05-22T11:09:02Z</time>
      </trkpt>
      <trkpt lat="45.95075" lon="6.75924">
        <ele>1386</ele>
        <time>2021-05-22T11:09:45Z</time>
      </trkpt>
      <trkpt lat="45.95064" lon="6.75938">
        <ele>1387</ele>
        <time>2021-05-22T11:10:00Z</time>
      </trkpt>
      <trkpt lat="45.9506" lon="6.75958">
        <ele>1388</ele>
        <time>2021-05-22T11:10:11Z</time>
      </trkpt>
      <trkpt lat="45.95059" lon="6.75967">
        <ele>1390</ele>
        <time>2021-05-22T11:10:20Z</time>
      </trkpt>
      <trkpt lat="45.95058" lon="6.75975">
        <ele>1390</ele>
        <time>2021-05-22T11:10:25Z</time>
      </trkpt>
      <trkpt lat="45.95059" lon="6.75983">
        <ele>1391</ele>
        <time>2021-05-22T11:10:30Z</time>
      </trkpt>
      <trkpt lat="45.95059" lon="6.75993">
        <ele>1391</ele>
        <time>2021-05-22T11:10:36Z</time>
      </trkpt>
      <trkpt lat="45.95056" lon="6.76023">
        <ele>1393</ele>
        <time>2021-05-22T11:10:57Z</time>
      </trkpt>
      <trkpt lat="45.95052" lon="6.7603">
        <ele>1394</ele>
        <time>2021-05-22T11:11:02Z</time>
      </trkpt>
      <trkpt lat="45.95047" lon="6.76033">
        <ele>1394</ele>
        <time>2021-05-22T11:11:07Z</time>
      </trkpt>
      <trkpt lat="45.95041" lon="6.76037">
        <ele>1395</ele>
        <time>2021-05-22T11:11:11Z</time>
      </trkpt>
      <trkpt lat="45.95031" lon="6.76045">
        <ele>1395</ele>
        <time>2021-05-22T11:11:20Z</time>
      </trkpt>
      <trkpt lat="45.95021" lon="6.76078">
        <ele>1397</ele>
        <time>2021-05-22T11:11:41Z</time>
      </trkpt>
      <trkpt lat="45.95019" lon="6.76086">
        <ele>1398</ele>
        <time>2021-05-22T11:11:46Z</time>
      </trkpt>
      <trkpt lat="45.95018" lon="6.76103">
        <ele>1398</ele>
        <time>2021-05-22T11:11:55Z</time>
      </trkpt>
      <trkpt lat="45.9502" lon="6.76111">
        <ele>1398</ele>
        <time>2021-05-22T11:11:59Z</time>
      </trkpt>
      <trkpt lat="45.95024" lon="6.76118">
        <ele>1399</ele>
        <time>2021-05-22T11:12:05Z</time>
      </trkpt>
      <trkpt lat="45.95027" lon="6.76129">
        <ele>1400</ele>
        <time>2021-05-22T11:12:12Z</time>
      </trkpt>
      <trkpt lat="45.95032" lon="6.76135">
        <ele>1400</ele>
        <time>2021-05-22T11:12:17Z</time>
      </trkpt>
      <trkpt lat="45.95037" lon="6.76145">
        <ele>1402</ele>
        <time>2021-05-22T11:12:27Z</time>
      </trkpt>
      <trkpt lat="45.95046" lon="6.76153">
        <ele>1403</ele>
        <time>2021-05-22T11:12:35Z</time>
      </trkpt>
      <trkpt lat="45.95048" lon="6.76165">
        <ele>1404</ele>
        <time>2021-05-22T11:12:44Z</time>
      </trkpt>
      <trkpt lat="45.9505" lon="6.76172">
        <ele>1404</ele>
        <time>2021-05-22T11:12:48Z</time>
      </trkpt>
      <trkpt lat="45.95054" lon="6.76179">
        <ele>1404</ele>
        <time>2021-05-22T11:13:03Z</time>
      </trkpt>
      <trkpt lat="45.95059" lon="6.76192">
        <ele>1406</ele>
        <time>2021-05-22T11:13:15Z</time>
      </trkpt>
      <trkpt lat="45.95067" lon="6.76203">
        <ele>1407</ele>
        <time>2021-05-22T11:13:27Z</time>
      </trkpt>
      <trkpt lat="45.95075" lon="6.7621">
        <ele>1408</ele>
        <time>2021-05-22T11:13:37Z</time>
      </trkpt>
      <trkpt lat="45.95079" lon="6.76216">
        <ele>1408</ele>
        <time>2021-05-22T11:13:46Z</time>
      </trkpt>
      <trkpt lat="45.9509" lon="6.76232">
        <ele>1411</ele>
        <time>2021-05-22T11:14:06Z</time>
      </trkpt>
      <trkpt lat="45.95095" lon="6.76279">
        <ele>1413</ele>
        <time>2021-05-22T11:14:42Z</time>
      </trkpt>
      <trkpt lat="45.95098" lon="6.76286">
        <ele>1413</ele>
        <time>2021-05-22T11:14:47Z</time>
      </trkpt>
      <trkpt lat="45.95099" lon="6.76316">
        <ele>1416</ele>
        <time>2021-05-22T11:15:06Z</time>
      </trkpt>
      <trkpt lat="45.95102" lon="6.76324">
        <ele>1416</ele>
        <time>2021-05-22T11:15:12Z</time>
      </trkpt>
      <trkpt lat="45.95105" lon="6.76332">
        <ele>1417</ele>
        <time>2021-05-22T11:15:17Z</time>
      </trkpt>
      <trkpt lat="45.95104" lon="6.7634">
        <ele>1417</ele>
        <time>2021-05-22T11:15:22Z</time>
      </trkpt>
      <trkpt lat="45.95106" lon="6.76347">
        <ele>1417</ele>
        <time>2021-05-22T11:15:25Z</time>
      </trkpt>
      <trkpt lat="45.95111" lon="6.76353">
        <ele>1418</ele>
        <time>2021-05-22T11:15:31Z</time>
      </trkpt>
      <trkpt lat="45.95118" lon="6.76359">
        <ele>1418</ele>
        <time>2021-05-22T11:15:41Z</time>
      </trkpt>
      <trkpt lat="45.95124" lon="6.76365">
        <ele>1419</ele>
        <time>2021-05-22T11:15:51Z</time>
      </trkpt>
      <trkpt lat="45.95125" lon="6.76371">
        <ele>1420</ele>
        <time>2021-05-22T11:15:55Z</time>
      </trkpt>
      <trkpt lat="45.95129" lon="6.76383">
        <ele>1420</ele>
        <time>2021-05-22T11:16:06Z</time>
      </trkpt>
      <trkpt lat="45.9513" lon="6.7639">
        <ele>1421</ele>
        <time>2021-05-22T11:16:09Z</time>
      </trkpt>
      <trkpt lat="45.95131" lon="6.76395">
        <ele>1421</ele>
        <time>2021-05-22T11:16:12Z</time>
      </trkpt>
      <trkpt lat="45.95135" lon="6.76401">
        <ele>1421</ele>
        <time>2021-05-22T11:16:18Z</time>
      </trkpt>
      <trkpt lat="45.95138" lon="6.76416">
        <ele>1421</ele>
        <time>2021-05-22T11:16:30Z</time>
      </trkpt>
      <trkpt lat="45.9514" lon="6.76428">
        <ele>1421</ele>
        <time>2021-05-22T11:16:44Z</time>
      </trkpt>
      <trkpt lat="45.95144" lon="6.76434">
        <ele>1422</ele>
        <time>2021-05-22T11:16:50Z</time>
      </trkpt>
      <trkpt lat="45.95147" lon="6.76447">
        <ele>1422</ele>
        <time>2021-05-22T11:16:59Z</time>
      </trkpt>
      <trkpt lat="45.95151" lon="6.76451">
        <ele>1422</ele>
        <time>2021-05-22T11:17:19Z</time>
      </trkpt>
      <trkpt lat="45.95156" lon="6.76464">
        <ele>1422</ele>
        <time>2021-05-22T11:17:29Z</time>
      </trkpt>
      <trkpt lat="45.95159" lon="6.7647">
        <ele>1422</ele>
        <time>2021-05-22T11:17:34Z</time>
      </trkpt>
      <trkpt lat="45.95163" lon="6.76473">
        <ele>1422</ele>
        <time>2021-05-22T11:17:36Z</time>
      </trkpt>
      <trkpt lat="45.9517" lon="6.76487">
        <ele>1421</ele>
        <time>2021-05-22T11:17:44Z</time>
      </trkpt>
      <trkpt lat="45.9518" lon="6.76499">
        <ele>1420</ele>
        <time>2021-05-22T11:17:54Z</time>
      </trkpt>
      <trkpt lat="45.95196" lon="6.76528">
        <ele>1420</ele>
        <time>2021-05-22T11:18:15Z</time>
      </trkpt>
      <trkpt lat="45.95211" lon="6.7656">
        <ele>1417</ele>
        <time>2021-05-22T11:18:40Z</time>
      </trkpt>
      <trkpt lat="45.95213" lon="6.76569">
        <ele>1417</ele>
        <time>2021-05-22T11:18:45Z</time>
      </trkpt>
      <trkpt lat="45.95223" lon="6.76588">
        <ele>1415</ele>
        <time>2021-05-22T11:18:58Z</time>
      </trkpt>
      <trkpt lat="45.95242" lon="6.76608">
        <ele>1414</ele>
        <time>2021-05-22T11:19:14Z</time>
      </trkpt>
      <trkpt lat="45.95254" lon="6.76628">
        <ele>1414</ele>
        <time>2021-05-22T11:19:31Z</time>
      </trkpt>
      <trkpt lat="45.95256" lon="6.76637">
        <ele>1414</ele>
        <time>2021-05-22T11:19:36Z</time>
      </trkpt>
      <trkpt lat="45.9526" lon="6.76643">
        <ele>1414</ele>
        <time>2021-05-22T11:19:40Z</time>
      </trkpt>
      <trkpt lat="45.95265" lon="6.76648">
        <ele>1414</ele>
        <time>2021-05-22T11:19:45Z</time>
      </trkpt>
      <trkpt lat="45.95285" lon="6.76674">
        <ele>1412</ele>
        <time>2021-05-22T11:20:10Z</time>
      </trkpt>
      <trkpt lat="45.9529" lon="6.76684">
        <ele>1411</ele>
        <time>2021-05-22T11:20:17Z</time>
      </trkpt>
      <trkpt lat="45.95295" lon="6.76693">
        <ele>1411</ele>
        <time>2021-05-22T11:20:23Z</time>
      </trkpt>
      <trkpt lat="45.9531" lon="6.76702">
        <ele>1411</ele>
        <time>2021-05-22T11:20:34Z</time>
      </trkpt>
      <trkpt lat="45.95311" lon="6.76703">
        <ele>1412</ele>
        <time>2021-05-22T11:20:57Z</time>
      </trkpt>
      <trkpt lat="45.95313" lon="6.76713">
        <ele>1411</ele>
        <time>2021-05-22T11:21:17Z</time>
      </trkpt>
      <trkpt lat="45.95316" lon="6.7672">
        <ele>1412</ele>
        <time>2021-05-22T11:21:21Z</time>
      </trkpt>
      <trkpt lat="45.9532" lon="6.76724">
        <ele>1412</ele>
        <time>2021-05-22T11:21:26Z</time>
      </trkpt>
      <trkpt lat="45.95324" lon="6.76729">
        <ele>1412</ele>
        <time>2021-05-22T11:21:31Z</time>
      </trkpt>
      <trkpt lat="45.95328" lon="6.76736">
        <ele>1412</ele>
        <time>2021-05-22T11:21:39Z</time>
      </trkpt>
      <trkpt lat="45.95333" lon="6.76741">
        <ele>1412</ele>
        <time>2021-05-22T11:21:44Z</time>
      </trkpt>
      <trkpt lat="45.95337" lon="6.7675">
        <ele>1412</ele>
        <time>2021-05-22T11:21:50Z</time>
      </trkpt>
      <trkpt lat="45.95338" lon="6.76759">
        <ele>1412</ele>
        <time>2021-05-22T11:21:53Z</time>
      </trkpt>
      <trkpt lat="45.95345" lon="6.76774">
        <ele>1412</ele>
        <time>2021-05-22T11:22:02Z</time>
      </trkpt>
      <trkpt lat="45.9535" lon="6.76779">
        <ele>1412</ele>
        <time>2021-05-22T11:22:08Z</time>
      </trkpt>
      <trkpt lat="45.95353" lon="6.76786">
        <ele>1412</ele>
        <time>2021-05-22T11:22:13Z</time>
      </trkpt>
      <trkpt lat="45.95356" lon="6.76796">
        <ele>1413</ele>
        <time>2021-05-22T11:22:21Z</time>
      </trkpt>
      <trkpt lat="45.95356" lon="6.76805">
        <ele>1414</ele>
        <time>2021-05-22T11:22:26Z</time>
      </trkpt>
      <trkpt lat="45.9536" lon="6.76811">
        <ele>1414</ele>
        <time>2021-05-22T11:22:30Z</time>
      </trkpt>
      <trkpt lat="45.95362" lon="6.76828">
        <ele>1416</ele>
        <time>2021-05-22T11:22:41Z</time>
      </trkpt>
      <trkpt lat="45.95364" lon="6.76838">
        <ele>1417</ele>
        <time>2021-05-22T11:22:50Z</time>
      </trkpt>
      <trkpt lat="45.95364" lon="6.76847">
        <ele>1416</ele>
        <time>2021-05-22T11:22:56Z</time>
      </trkpt>
      <trkpt lat="45.95366" lon="6.76858">
        <ele>1417</ele>
        <time>2021-05-22T11:23:05Z</time>
      </trkpt>
      <trkpt lat="45.95373" lon="6.76873">
        <ele>1417</ele>
        <time>2021-05-22T11:23:17Z</time>
      </trkpt>
      <trkpt lat="45.95375" lon="6.76879">
        <ele>1418</ele>
        <time>2021-05-22T11:23:21Z</time>
      </trkpt>
      <trkpt lat="45.95377" lon="6.76887">
        <ele>1419</ele>
        <time>2021-05-22T11:23:29Z</time>
      </trkpt>
      <trkpt lat="45.95379" lon="6.76896">
        <ele>1421</ele>
        <time>2021-05-22T11:23:35Z</time>
      </trkpt>
      <trkpt lat="45.95378" lon="6.76923">
        <ele>1423</ele>
        <time>2021-05-22T11:23:55Z</time>
      </trkpt>
      <trkpt lat="45.95379" lon="6.76933">
        <ele>1423</ele>
        <time>2021-05-22T11:24:02Z</time>
      </trkpt>
      <trkpt lat="45.95382" lon="6.76941">
        <ele>1423</ele>
        <time>2021-05-22T11:24:07Z</time>
      </trkpt>
      <trkpt lat="45.95385" lon="6.76948">
        <ele>1424</ele>
        <time>2021-05-22T11:24:12Z</time>
      </trkpt>
      <trkpt lat="45.95387" lon="6.76955">
        <ele>1422</ele>
        <time>2021-05-22T11:24:17Z</time>
      </trkpt>
      <trkpt lat="45.95393" lon="6.76967">
        <ele>1424</ele>
        <time>2021-05-22T11:24:27Z</time>
      </trkpt>
      <trkpt lat="45.95398" lon="6.76971">
        <ele>1424</ele>
        <time>2021-05-22T11:24:32Z</time>
      </trkpt>
      <trkpt lat="45.95403" lon="6.76975">
        <ele>1425</ele>
        <time>2021-05-22T11:24:38Z</time>
      </trkpt>
      <trkpt lat="45.95403" lon="6.76987">
        <ele>1427</ele>
        <time>2021-05-22T11:24:51Z</time>
      </trkpt>
      <trkpt lat="45.95406" lon="6.76999">
        <ele>1427</ele>
        <time>2021-05-22T11:24:59Z</time>
      </trkpt>
      <trkpt lat="45.9541" lon="6.77005">
        <ele>1429</ele>
        <time>2021-05-22T11:25:05Z</time>
      </trkpt>
      <trkpt lat="45.95424" lon="6.77011">
        <ele>1432</ele>
        <time>2021-05-22T11:25:23Z</time>
      </trkpt>
      <trkpt lat="45.95431" lon="6.77012">
        <ele>1432</ele>
        <time>2021-05-22T11:25:29Z</time>
      </trkpt>
      <trkpt lat="45.95437" lon="6.77018">
        <ele>1433</ele>
        <time>2021-05-22T11:25:41Z</time>
      </trkpt>
      <trkpt lat="45.95442" lon="6.77015">
        <ele>1433</ele>
        <time>2021-05-22T11:25:46Z</time>
      </trkpt>
      <trkpt lat="45.95448" lon="6.77015">
        <ele>1434</ele>
        <time>2021-05-22T11:25:51Z</time>
      </trkpt>
      <trkpt lat="45.95454" lon="6.77017">
        <ele>1435</ele>
        <time>2021-05-22T11:25:58Z</time>
      </trkpt>
      <trkpt lat="45.95459" lon="6.77018">
        <ele>1436</ele>
        <time>2021-05-22T11:26:04Z</time>
      </trkpt>
      <trkpt lat="45.95467" lon="6.77021">
        <ele>1437</ele>
        <time>2021-05-22T11:26:13Z</time>
      </trkpt>
      <trkpt lat="45.95473" lon="6.77028">
        <ele>1439</ele>
        <time>2021-05-22T11:26:24Z</time>
      </trkpt>
      <trkpt lat="45.95493" lon="6.77035">
        <ele>1442</ele>
        <time>2021-05-22T11:26:48Z</time>
      </trkpt>
      <trkpt lat="45.95499" lon="6.77029">
        <ele>1442</ele>
        <time>2021-05-22T11:27:05Z</time>
      </trkpt>
      <trkpt lat="45.95507" lon="6.7703">
        <ele>1443</ele>
        <time>2021-05-22T11:27:30Z</time>
      </trkpt>
      <trkpt lat="45.95513" lon="6.77033">
        <ele>1445</ele>
        <time>2021-05-22T11:27:36Z</time>
      </trkpt>
      <trkpt lat="45.95518" lon="6.7704">
        <ele>1445</ele>
        <time>2021-05-22T11:27:42Z</time>
      </trkpt>
      <trkpt lat="45.95521" lon="6.77049">
        <ele>1446</ele>
        <time>2021-05-22T11:27:51Z</time>
      </trkpt>
      <trkpt lat="45.95525" lon="6.77058">
        <ele>1447</ele>
        <time>2021-05-22T11:27:59Z</time>
      </trkpt>
      <trkpt lat="45.95538" lon="6.77077">
        <ele>1451</ele>
        <time>2021-05-22T11:28:22Z</time>
      </trkpt>
      <trkpt lat="45.95539" lon="6.77085">
        <ele>1452</ele>
        <time>2021-05-22T11:28:30Z</time>
      </trkpt>
      <trkpt lat="45.95546" lon="6.77094">
        <ele>1454</ele>
        <time>2021-05-22T11:28:43Z</time>
      </trkpt>
      <trkpt lat="45.95552" lon="6.77104">
        <ele>1455</ele>
        <time>2021-05-22T11:28:55Z</time>
      </trkpt>
      <trkpt lat="45.95559" lon="6.77108">
        <ele>1457</ele>
        <time>2021-05-22T11:29:07Z</time>
      </trkpt>
      <trkpt lat="45.9558" lon="6.77137">
        <ele>1460</ele>
        <time>2021-05-22T11:29:40Z</time>
      </trkpt>
      <trkpt lat="45.95586" lon="6.77144">
        <ele>1461</ele>
        <time>2021-05-22T11:29:47Z</time>
      </trkpt>
      <trkpt lat="45.9559" lon="6.77149">
        <ele>1462</ele>
        <time>2021-05-22T11:29:53Z</time>
      </trkpt>
      <trkpt lat="45.95598" lon="6.7715">
        <ele>1462</ele>
        <time>2021-05-22T11:29:59Z</time>
      </trkpt>
      <trkpt lat="45.95606" lon="6.77154">
        <ele>1462</ele>
        <time>2021-05-22T11:30:04Z</time>
      </trkpt>
      <trkpt lat="45.9561" lon="6.7716">
        <ele>1464</ele>
        <time>2021-05-22T11:30:15Z</time>
      </trkpt>
      <trkpt lat="45.95614" lon="6.77171">
        <ele>1466</ele>
        <time>2021-05-22T11:30:27Z</time>
      </trkpt>
      <trkpt lat="45.9562" lon="6.77184">
        <ele>1467</ele>
        <time>2021-05-22T11:30:39Z</time>
      </trkpt>
      <trkpt lat="45.95624" lon="6.77194">
        <ele>1468</ele>
        <time>2021-05-22T11:30:51Z</time>
      </trkpt>
      <trkpt lat="45.95628" lon="6.772">
        <ele>1469</ele>
        <time>2021-05-22T11:30:55Z</time>
      </trkpt>
      <trkpt lat="45.95629" lon="6.77207">
        <ele>1469</ele>
        <time>2021-05-22T11:31:00Z</time>
      </trkpt>
      <trkpt lat="45.95631" lon="6.77223">
        <ele>1471</ele>
        <time>2021-05-22T11:31:11Z</time>
      </trkpt>
      <trkpt lat="45.95631" lon="6.77235">
        <ele>1471</ele>
        <time>2021-05-22T11:31:19Z</time>
      </trkpt>
      <trkpt lat="45.95629" lon="6.77253">
        <ele>1472</ele>
        <time>2021-05-22T11:31:28Z</time>
      </trkpt>
      <trkpt lat="45.95632" lon="6.77311">
        <ele>1476</ele>
        <time>2021-05-22T11:32:06Z</time>
      </trkpt>
      <trkpt lat="45.95633" lon="6.77317">
        <ele>1477</ele>
        <time>2021-05-22T11:32:12Z</time>
      </trkpt>
      <trkpt lat="45.95638" lon="6.77331">
        <ele>1479</ele>
        <time>2021-05-22T11:32:27Z</time>
      </trkpt>
      <trkpt lat="45.95639" lon="6.77344">
        <ele>1480</ele>
        <time>2021-05-22T11:32:38Z</time>
      </trkpt>
      <trkpt lat="45.95642" lon="6.77351">
        <ele>1481</ele>
        <time>2021-05-22T11:32:45Z</time>
      </trkpt>
      <trkpt lat="45.95644" lon="6.7736">
        <ele>1482</ele>
        <time>2021-05-22T11:32:57Z</time>
      </trkpt>
      <trkpt lat="45.95643" lon="6.7738">
        <ele>1486</ele>
        <time>2021-05-22T11:33:13Z</time>
      </trkpt>
      <trkpt lat="45.95643" lon="6.77387">
        <ele>1487</ele>
        <time>2021-05-22T11:33:21Z</time>
      </trkpt>
      <trkpt lat="45.95649" lon="6.77401">
        <ele>1489</ele>
        <time>2021-05-22T11:33:34Z</time>
      </trkpt>
      <trkpt lat="45.9566" lon="6.77404">
        <ele>1491</ele>
        <time>2021-05-22T11:33:47Z</time>
      </trkpt>
      <trkpt lat="45.95664" lon="6.77406">
        <ele>1492</ele>
        <time>2021-05-22T11:33:52Z</time>
      </trkpt>
      <trkpt lat="45.95669" lon="6.77414">
        <ele>1494</ele>
        <time>2021-05-22T11:34:01Z</time>
      </trkpt>
      <trkpt lat="45.95675" lon="6.77413">
        <ele>1494</ele>
        <time>2021-05-22T11:34:06Z</time>
      </trkpt>
      <trkpt lat="45.95683" lon="6.77415">
        <ele>1494</ele>
        <time>2021-05-22T11:34:14Z</time>
      </trkpt>
      <trkpt lat="45.9569" lon="6.77418">
        <ele>1496</ele>
        <time>2021-05-22T11:34:22Z</time>
      </trkpt>
      <trkpt lat="45.95711" lon="6.77421">
        <ele>1499</ele>
        <time>2021-05-22T11:34:49Z</time>
      </trkpt>
      <trkpt lat="45.95721" lon="6.77415">
        <ele>1501</ele>
        <time>2021-05-22T11:35:09Z</time>
      </trkpt>
      <trkpt lat="45.95732" lon="6.77417">
        <ele>1503</ele>
        <time>2021-05-22T11:35:21Z</time>
      </trkpt>
      <trkpt lat="45.95749" lon="6.77436">
        <ele>1506</ele>
        <time>2021-05-22T11:35:52Z</time>
      </trkpt>
      <trkpt lat="45.95761" lon="6.77452">
        <ele>1507</ele>
        <time>2021-05-22T11:36:13Z</time>
      </trkpt>
      <trkpt lat="45.95775" lon="6.77481">
        <ele>1508</ele>
        <time>2021-05-22T11:36:40Z</time>
      </trkpt>
      <trkpt lat="45.9579" lon="6.77503">
        <ele>1510</ele>
        <time>2021-05-22T11:37:02Z</time>
      </trkpt>
      <trkpt lat="45.95799" lon="6.77528">
        <ele>1512</ele>
        <time>2021-05-22T11:37:26Z</time>
      </trkpt>
      <trkpt lat="45.958" lon="6.77561">
        <ele>1514</ele>
        <time>2021-05-22T11:37:52Z</time>
      </trkpt>
      <trkpt lat="45.95794" lon="6.77583">
        <ele>1514</ele>
        <time>2021-05-22T11:38:05Z</time>
      </trkpt>
      <trkpt lat="45.95784" lon="6.77598">
        <ele>1515</ele>
        <time>2021-05-22T11:38:17Z</time>
      </trkpt>
      <trkpt lat="45.95785" lon="6.77619">
        <ele>1517</ele>
        <time>2021-05-22T11:38:29Z</time>
      </trkpt>
      <trkpt lat="45.95794" lon="6.77645">
        <ele>1520</ele>
        <time>2021-05-22T11:38:53Z</time>
      </trkpt>
      <trkpt lat="45.95802" lon="6.77664">
        <ele>1523</ele>
        <time>2021-05-22T11:39:17Z</time>
      </trkpt>
      <trkpt lat="45.95803" lon="6.77686">
        <ele>1527</ele>
        <time>2021-05-22T11:39:51Z</time>
      </trkpt>
      <trkpt lat="45.95816" lon="6.77701">
        <ele>1530</ele>
        <time>2021-05-22T11:40:12Z</time>
      </trkpt>
      <trkpt lat="45.95834" lon="6.77699">
        <ele>1533</ele>
        <time>2021-05-22T11:40:35Z</time>
      </trkpt>
      <trkpt lat="45.95842" lon="6.77718">
        <ele>1540</ele>
        <time>2021-05-22T11:41:23Z</time>
      </trkpt>
      <trkpt lat="45.95849" lon="6.77723">
        <ele>1543</ele>
        <time>2021-05-22T11:41:38Z</time>
      </trkpt>
      <trkpt lat="45.95853" lon="6.77728">
        <ele>1546</ele>
        <time>2021-05-22T11:41:56Z</time>
      </trkpt>
      <trkpt lat="45.95857" lon="6.77735">
        <ele>1549</ele>
        <time>2021-05-22T11:42:20Z</time>
      </trkpt>
      <trkpt lat="45.95855" lon="6.77749">
        <ele>1551</ele>
        <time>2021-05-22T11:42:38Z</time>
      </trkpt>
      <trkpt lat="45.95856" lon="6.77759">
        <ele>1553</ele>
        <time>2021-05-22T11:42:50Z</time>
      </trkpt>
      <trkpt lat="45.95867" lon="6.77759">
        <ele>1555</ele>
        <time>2021-05-22T11:43:03Z</time>
      </trkpt>
      <trkpt lat="45.95874" lon="6.77754">
        <ele>1557</ele>
        <time>2021-05-22T11:43:16Z</time>
      </trkpt>
      <trkpt lat="45.9588" lon="6.77748">
        <ele>1557</ele>
        <time>2021-05-22T11:43:24Z</time>
      </trkpt>
      <trkpt lat="45.95891" lon="6.77745">
        <ele>1562</ele>
        <time>2021-05-22T11:43:57Z</time>
      </trkpt>
      <trkpt lat="45.95895" lon="6.77739">
        <ele>1563</ele>
        <time>2021-05-22T11:44:09Z</time>
      </trkpt>
      <trkpt lat="45.95896" lon="6.77751">
        <ele>1566</ele>
        <time>2021-05-22T11:44:33Z</time>
      </trkpt>
      <trkpt lat="45.95898" lon="6.77762">
        <ele>1568</ele>
        <time>2021-05-22T11:44:45Z</time>
      </trkpt>
      <trkpt lat="45.95903" lon="6.77756">
        <ele>1569</ele>
        <time>2021-05-22T11:45:03Z</time>
      </trkpt>
      <trkpt lat="45.95906" lon="6.77749">
        <ele>1571</ele>
        <time>2021-05-22T11:45:15Z</time>
      </trkpt>
      <trkpt lat="45.95913" lon="6.77745">
        <ele>1571</ele>
        <time>2021-05-22T11:45:21Z</time>
      </trkpt>
      <trkpt lat="45.95919" lon="6.7774">
        <ele>1572</ele>
        <time>2021-05-22T11:45:31Z</time>
      </trkpt>
      <trkpt lat="45.95924" lon="6.77734">
        <ele>1573</ele>
        <time>2021-05-22T11:45:36Z</time>
      </trkpt>
      <trkpt lat="45.95931" lon="6.77731">
        <ele>1574</ele>
        <time>2021-05-22T11:45:44Z</time>
      </trkpt>
      <trkpt lat="45.95934" lon="6.77723">
        <ele>1575</ele>
        <time>2021-05-22T11:45:49Z</time>
      </trkpt>
      <trkpt lat="45.95944" lon="6.77725">
        <ele>1577</ele>
        <time>2021-05-22T11:46:11Z</time>
      </trkpt>
      <trkpt lat="45.9595" lon="6.77729">
        <ele>1579</ele>
        <time>2021-05-22T11:46:23Z</time>
      </trkpt>
      <trkpt lat="45.9595" lon="6.77741">
        <ele>1581</ele>
        <time>2021-05-22T11:46:35Z</time>
      </trkpt>
      <trkpt lat="45.95952" lon="6.77749">
        <ele>1583</ele>
        <time>2021-05-22T11:46:45Z</time>
      </trkpt>
      <trkpt lat="45.95951" lon="6.77759">
        <ele>1582</ele>
        <time>2021-05-22T11:46:51Z</time>
      </trkpt>
      <trkpt lat="45.95952" lon="6.77766">
        <ele>1582</ele>
        <time>2021-05-22T11:46:57Z</time>
      </trkpt>
      <trkpt lat="45.95946" lon="6.77763">
        <ele>1582</ele>
        <time>2021-05-22T11:47:19Z</time>
      </trkpt>
      <trkpt lat="45.95947" lon="6.77772">
        <ele>1582</ele>
        <time>2021-05-22T11:47:26Z</time>
      </trkpt>
      <trkpt lat="45.95945" lon="6.77782">
        <ele>1583</ele>
        <time>2021-05-22T11:47:32Z</time>
      </trkpt>
      <trkpt lat="45.95945" lon="6.7779">
        <ele>1583</ele>
        <time>2021-05-22T11:47:36Z</time>
      </trkpt>
      <trkpt lat="45.95947" lon="6.77797">
        <ele>1582</ele>
        <time>2021-05-22T11:47:40Z</time>
      </trkpt>
      <trkpt lat="45.95953" lon="6.77805">
        <ele>1581</ele>
        <time>2021-05-22T11:47:48Z</time>
      </trkpt>
      <trkpt lat="45.95957" lon="6.77811">
        <ele>1581</ele>
        <time>2021-05-22T11:47:53Z</time>
      </trkpt>
      <trkpt lat="45.95961" lon="6.77817">
        <ele>1581</ele>
        <time>2021-05-22T11:47:58Z</time>
      </trkpt>
      <trkpt lat="45.95967" lon="6.77824">
        <ele>1580</ele>
        <time>2021-05-22T11:48:07Z</time>
      </trkpt>
      <trkpt lat="45.95972" lon="6.7783">
        <ele>1580</ele>
        <time>2021-05-22T11:48:13Z</time>
      </trkpt>
      <trkpt lat="45.95977" lon="6.77834">
        <ele>1580</ele>
        <time>2021-05-22T11:48:18Z</time>
      </trkpt>
      <trkpt lat="45.95988" lon="6.77841">
        <ele>1579</ele>
        <time>2021-05-22T11:48:27Z</time>
      </trkpt>
      <trkpt lat="45.95993" lon="6.77846">
        <ele>1579</ele>
        <time>2021-05-22T11:48:31Z</time>
      </trkpt>
      <trkpt lat="45.95995" lon="6.77854">
        <ele>1578</ele>
        <time>2021-05-22T11:48:35Z</time>
      </trkpt>
      <trkpt lat="45.95989" lon="6.7786">
        <ele>1577</ele>
        <time>2021-05-22T11:48:40Z</time>
      </trkpt>
      <trkpt lat="45.95983" lon="6.77863">
        <ele>1576</ele>
        <time>2021-05-22T11:48:44Z</time>
      </trkpt>
      <trkpt lat="45.95979" lon="6.77868">
        <ele>1576</ele>
        <time>2021-05-22T11:48:48Z</time>
      </trkpt>
      <trkpt lat="45.95975" lon="6.77884">
        <ele>1573</ele>
        <time>2021-05-22T11:48:55Z</time>
      </trkpt>
      <trkpt lat="45.9599" lon="6.77888">
        <ele>1574</ele>
        <time>2021-05-22T11:49:22Z</time>
      </trkpt>
      <trkpt lat="45.95995" lon="6.77881">
        <ele>1572</ele>
        <time>2021-05-22T11:49:40Z</time>
      </trkpt>
      <trkpt lat="45.96002" lon="6.77881">
        <ele>1572</ele>
        <time>2021-05-22T11:49:52Z</time>
      </trkpt>
      <trkpt lat="45.96007" lon="6.77887">
        <ele>1572</ele>
        <time>2021-05-22T11:49:56Z</time>
      </trkpt>
      <trkpt lat="45.96022" lon="6.77903">
        <ele>1568</ele>
        <time>2021-05-22T11:50:10Z</time>
      </trkpt>
      <trkpt lat="45.96026" lon="6.77911">
        <ele>1569</ele>
        <time>2021-05-22T11:50:16Z</time>
      </trkpt>
      <trkpt lat="45.96028" lon="6.77918">
        <ele>1568</ele>
        <time>2021-05-22T11:50:22Z</time>
      </trkpt>
      <trkpt lat="45.96034" lon="6.7792">
        <ele>1569</ele>
        <time>2021-05-22T11:50:28Z</time>
      </trkpt>
      <trkpt lat="45.9604" lon="6.77924">
        <ele>1567</ele>
        <time>2021-05-22T11:50:33Z</time>
      </trkpt>
      <trkpt lat="45.96046" lon="6.77923">
        <ele>1567</ele>
        <time>2021-05-22T11:50:37Z</time>
      </trkpt>
      <trkpt lat="45.96051" lon="6.77926">
        <ele>1566</ele>
        <time>2021-05-22T11:50:40Z</time>
      </trkpt>
      <trkpt lat="45.96057" lon="6.77931">
        <ele>1566</ele>
        <time>2021-05-22T11:50:45Z</time>
      </trkpt>
      <trkpt lat="45.96072" lon="6.77946">
        <ele>1565</ele>
        <time>2021-05-22T11:51:00Z</time>
      </trkpt>
      <trkpt lat="45.96077" lon="6.77951">
        <ele>1565</ele>
        <time>2021-05-22T11:51:05Z</time>
      </trkpt>
      <trkpt lat="45.96079" lon="6.7796">
        <ele>1563</ele>
        <time>2021-05-22T11:51:14Z</time>
      </trkpt>
      <trkpt lat="45.96083" lon="6.77967">
        <ele>1565</ele>
        <time>2021-05-22T11:51:20Z</time>
      </trkpt>
      <trkpt lat="45.96086" lon="6.77976">
        <ele>1565</ele>
        <time>2021-05-22T11:51:45Z</time>
      </trkpt>
      <trkpt lat="45.96091" lon="6.77983">
        <ele>1567</ele>
        <time>2021-05-22T11:52:05Z</time>
      </trkpt>
      <trkpt lat="45.96087" lon="6.77995">
        <ele>1567</ele>
        <time>2021-05-22T11:52:15Z</time>
      </trkpt>
      <trkpt lat="45.96089" lon="6.78003">
        <ele>1566</ele>
        <time>2021-05-22T11:52:20Z</time>
      </trkpt>
      <trkpt lat="45.96089" lon="6.78015">
        <ele>1564</ele>
        <time>2021-05-22T11:52:29Z</time>
      </trkpt>
      <trkpt lat="45.9609" lon="6.78025">
        <ele>1564</ele>
        <time>2021-05-22T11:52:33Z</time>
      </trkpt>
      <trkpt lat="45.9609" lon="6.78033">
        <ele>1564</ele>
        <time>2021-05-22T11:52:38Z</time>
      </trkpt>
      <trkpt lat="45.96087" lon="6.7804">
        <ele>1563</ele>
        <time>2021-05-22T11:52:44Z</time>
      </trkpt>
      <trkpt lat="45.96083" lon="6.78043">
        <ele>1560</ele>
        <time>2021-05-22T11:52:50Z</time>
      </trkpt>
      <trkpt lat="45.96077" lon="6.78039">
        <ele>1559</ele>
        <time>2021-05-22T11:53:00Z</time>
      </trkpt>
      <trkpt lat="45.96072" lon="6.78039">
        <ele>1558</ele>
        <time>2021-05-22T11:53:07Z</time>
      </trkpt>
      <trkpt lat="45.96072" lon="6.78049">
        <ele>1557</ele>
        <time>2021-05-22T11:53:27Z</time>
      </trkpt>
      <trkpt lat="45.96062" lon="6.78051">
        <ele>1557</ele>
        <time>2021-05-22T11:53:57Z</time>
      </trkpt>
      <trkpt lat="45.96058" lon="6.78064">
        <ele>1556</ele>
        <time>2021-05-22T11:54:14Z</time>
      </trkpt>
      <trkpt lat="45.96052" lon="6.78068">
        <ele>1556</ele>
        <time>2021-05-22T11:54:24Z</time>
      </trkpt>
      <trkpt lat="45.96059" lon="6.78072">
        <ele>1556</ele>
        <time>2021-05-22T11:54:49Z</time>
      </trkpt>
      <trkpt lat="45.96065" lon="6.78064">
        <ele>1555</ele>
        <time>2021-05-22T11:55:03Z</time>
      </trkpt>
      <trkpt lat="45.96068" lon="6.7805">
        <ele>1555</ele>
        <time>2021-05-22T11:55:20Z</time>
      </trkpt>
      <trkpt lat="45.96067" lon="6.78052">
        <ele>1557</ele>
        <time>2021-05-22T11:56:46Z</time>
      </trkpt>
      <trkpt lat="45.96074" lon="6.7806">
        <ele>1558</ele>
        <time>2021-05-22T11:57:08Z</time>
      </trkpt>
      <trkpt lat="45.96081" lon="6.78069">
        <ele>1561</ele>
        <time>2021-05-22T11:57:28Z</time>
      </trkpt>
      <trkpt lat="45.96085" lon="6.78073">
        <ele>1561</ele>
        <time>2021-05-22T11:57:32Z</time>
      </trkpt>
      <trkpt lat="45.96084" lon="6.78083">
        <ele>1564</ele>
        <time>2021-05-22T11:57:52Z</time>
      </trkpt>
      <trkpt lat="45.96092" lon="6.78113">
        <ele>1567</ele>
        <time>2021-05-22T11:58:21Z</time>
      </trkpt>
      <trkpt lat="45.96099" lon="6.78134">
        <ele>1573</ele>
        <time>2021-05-22T11:59:03Z</time>
      </trkpt>
      <trkpt lat="45.96095" lon="6.78154">
        <ele>1578</ele>
        <time>2021-05-22T11:59:57Z</time>
      </trkpt>
      <trkpt lat="45.96106" lon="6.78168">
        <ele>1586</ele>
        <time>2021-05-22T12:01:00Z</time>
      </trkpt>
      <trkpt lat="45.96105" lon="6.78181">
        <ele>1594</ele>
        <time>2021-05-22T12:01:56Z</time>
      </trkpt>
      <trkpt lat="45.96118" lon="6.78192">
        <ele>1602</ele>
        <time>2021-05-22T12:03:02Z</time>
      </trkpt>
      <trkpt lat="45.96123" lon="6.78212">
        <ele>1609</ele>
        <time>2021-05-22T12:04:26Z</time>
      </trkpt>
      <trkpt lat="45.96126" lon="6.78229">
        <ele>1616</ele>
        <time>2021-05-22T12:05:14Z</time>
      </trkpt>
      <trkpt lat="45.96128" lon="6.78242">
        <ele>1623</ele>
        <time>2021-05-22T12:06:02Z</time>
      </trkpt>
      <trkpt lat="45.96122" lon="6.78249">
        <ele>1628</ele>
        <time>2021-05-22T12:06:26Z</time>
      </trkpt>
      <trkpt lat="45.9613" lon="6.78252">
        <ele>1629</ele>
        <time>2021-05-22T12:07:04Z</time>
      </trkpt>
      <trkpt lat="45.96134" lon="6.78247">
        <ele>1633</ele>
        <time>2021-05-22T12:07:36Z</time>
      </trkpt>
      <trkpt lat="45.96156" lon="6.78242">
        <ele>1644</ele>
        <time>2021-05-22T12:08:48Z</time>
      </trkpt>
      <trkpt lat="45.96151" lon="6.78267">
        <ele>1655</ele>
        <time>2021-05-22T12:10:04Z</time>
      </trkpt>
      <trkpt lat="45.96155" lon="6.78278">
        <ele>1661</ele>
        <time>2021-05-22T12:10:52Z</time>
      </trkpt>
      <trkpt lat="45.96172" lon="6.78287">
        <ele>1665</ele>
        <time>2021-05-22T12:11:41Z</time>
      </trkpt>
      <trkpt lat="45.96184" lon="6.783">
        <ele>1667</ele>
        <time>2021-05-22T12:12:18Z</time>
      </trkpt>
      <trkpt lat="45.96213" lon="6.78316">
        <ele>1672</ele>
        <time>2021-05-22T12:13:12Z</time>
      </trkpt>
      <trkpt lat="45.96231" lon="6.78324">
        <ele>1673</ele>
        <time>2021-05-22T12:13:40Z</time>
      </trkpt>
      <trkpt lat="45.96263" lon="6.7836">
        <ele>1677</ele>
        <time>2021-05-22T12:14:37Z</time>
      </trkpt>
      <trkpt lat="45.96278" lon="6.78367">
        <ele>1678</ele>
        <time>2021-05-22T12:14:59Z</time>
      </trkpt>
      <trkpt lat="45.96296" lon="6.7837">
        <ele>1683</ele>
        <time>2021-05-22T12:15:55Z</time>
      </trkpt>
      <trkpt lat="45.96311" lon="6.78372">
        <ele>1689</ele>
        <time>2021-05-22T12:16:27Z</time>
      </trkpt>
      <trkpt lat="45.96317" lon="6.78384">
        <ele>1690</ele>
        <time>2021-05-22T12:17:47Z</time>
      </trkpt>
      <trkpt lat="45.96322" lon="6.7838">
        <ele>1692</ele>
        <time>2021-05-22T12:19:13Z</time>
      </trkpt>
      <trkpt lat="45.96329" lon="6.78382">
        <ele>1694</ele>
        <time>2021-05-22T12:20:13Z</time>
      </trkpt>
      <trkpt lat="45.96329" lon="6.78393">
        <ele>1696</ele>
        <time>2021-05-22T12:20:25Z</time>
      </trkpt>
      <trkpt lat="45.9633" lon="6.78401">
        <ele>1696</ele>
        <time>2021-05-22T12:20:49Z</time>
      </trkpt>
      <trkpt lat="45.96336" lon="6.7841">
        <ele>1698</ele>
        <time>2021-05-22T12:21:20Z</time>
      </trkpt>
      <trkpt lat="45.9634" lon="6.78417">
        <ele>1698</ele>
        <time>2021-05-22T12:21:44Z</time>
      </trkpt>
      <trkpt lat="45.96345" lon="6.78411">
        <ele>1701</ele>
        <time>2021-05-22T12:22:28Z</time>
      </trkpt>
      <trkpt lat="45.96352" lon="6.78417">
        <ele>1703</ele>
        <time>2021-05-22T12:22:48Z</time>
      </trkpt>
      <trkpt lat="45.96351" lon="6.78427">
        <ele>1706</ele>
        <time>2021-05-22T12:23:04Z</time>
      </trkpt>
      <trkpt lat="45.96351" lon="6.78439">
        <ele>1709</ele>
        <time>2021-05-22T12:23:17Z</time>
      </trkpt>
      <trkpt lat="45.96353" lon="6.78446">
        <ele>1713</ele>
        <time>2021-05-22T12:24:24Z</time>
      </trkpt>
      <trkpt lat="45.96358" lon="6.7845">
        <ele>1713</ele>
        <time>2021-05-22T12:25:01Z</time>
      </trkpt>
      <trkpt lat="45.96359" lon="6.78454">
        <ele>1720</ele>
        <time>2021-05-22T12:25:44Z</time>
      </trkpt>
      <trkpt lat="45.96359" lon="6.78456">
        <ele>1720</ele>
        <time>2021-05-22T12:26:38Z</time>
      </trkpt>
      <trkpt lat="45.96362" lon="6.78465">
        <ele>1722</ele>
        <time>2021-05-22T12:26:56Z</time>
      </trkpt>
      <trkpt lat="45.96368" lon="6.78472">
        <ele>1722</ele>
        <time>2021-05-22T12:27:20Z</time>
      </trkpt>
      <trkpt lat="45.96365" lon="6.78481">
        <ele>1722</ele>
        <time>2021-05-22T12:27:33Z</time>
      </trkpt>
      <trkpt lat="45.9637" lon="6.78484">
        <ele>1724</ele>
        <time>2021-05-22T12:27:57Z</time>
      </trkpt>
      <trkpt lat="45.96378" lon="6.78483">
        <ele>1724</ele>
        <time>2021-05-22T12:28:21Z</time>
      </trkpt>
      <trkpt lat="45.96384" lon="6.78492">
        <ele>1724</ele>
        <time>2021-05-22T12:29:06Z</time>
      </trkpt>
      <trkpt lat="45.96388" lon="6.78498">
        <ele>1722</ele>
        <time>2021-05-22T12:29:27Z</time>
      </trkpt>
      <trkpt lat="45.96392" lon="6.78508">
        <ele>1722</ele>
        <time>2021-05-22T12:29:53Z</time>
      </trkpt>
      <trkpt lat="45.96397" lon="6.7851">
        <ele>1723</ele>
        <time>2021-05-22T12:30:11Z</time>
      </trkpt>
      <trkpt lat="45.96397" lon="6.78521">
        <ele>1725</ele>
        <time>2021-05-22T12:30:29Z</time>
      </trkpt>
      <trkpt lat="45.964" lon="6.78531">
        <ele>1724</ele>
        <time>2021-05-22T12:30:52Z</time>
      </trkpt>
      <trkpt lat="45.96407" lon="6.78534">
        <ele>1725</ele>
        <time>2021-05-22T12:31:10Z</time>
      </trkpt>
      <trkpt lat="45.96412" lon="6.78534">
        <ele>1726</ele>
        <time>2021-05-22T12:31:22Z</time>
      </trkpt>
      <trkpt lat="45.96419" lon="6.78534">
        <ele>1727</ele>
        <time>2021-05-22T12:31:52Z</time>
      </trkpt>
      <trkpt lat="45.96425" lon="6.78533">
        <ele>1731</ele>
        <time>2021-05-22T12:32:16Z</time>
      </trkpt>
      <trkpt lat="45.96428" lon="6.78541">
        <ele>1732</ele>
        <time>2021-05-22T12:32:40Z</time>
      </trkpt>
      <trkpt lat="45.96435" lon="6.78553">
        <ele>1732</ele>
        <time>2021-05-22T12:32:51Z</time>
      </trkpt>
      <trkpt lat="45.96443" lon="6.78546">
        <ele>1735</ele>
        <time>2021-05-22T12:33:20Z</time>
      </trkpt>
      <trkpt lat="45.96445" lon="6.78551">
        <ele>1737</ele>
        <time>2021-05-22T12:34:16Z</time>
      </trkpt>
      <trkpt lat="45.96441" lon="6.78559">
        <ele>1740</ele>
        <time>2021-05-22T12:34:40Z</time>
      </trkpt>
      <trkpt lat="45.9644" lon="6.78568">
        <ele>1742</ele>
        <time>2021-05-22T12:34:52Z</time>
      </trkpt>
      <trkpt lat="45.96446" lon="6.78577">
        <ele>1744</ele>
        <time>2021-05-22T12:35:22Z</time>
      </trkpt>
      <trkpt lat="45.96455" lon="6.78578">
        <ele>1750</ele>
        <time>2021-05-22T12:35:46Z</time>
      </trkpt>
      <trkpt lat="45.96459" lon="6.78583">
        <ele>1752</ele>
        <time>2021-05-22T12:36:37Z</time>
      </trkpt>
      <trkpt lat="45.96462" lon="6.7859">
        <ele>1755</ele>
        <time>2021-05-22T12:37:08Z</time>
      </trkpt>
      <trkpt lat="45.96463" lon="6.78598">
        <ele>1758</ele>
        <time>2021-05-22T12:37:19Z</time>
      </trkpt>
      <trkpt lat="45.96471" lon="6.78606">
        <ele>1760</ele>
        <time>2021-05-22T12:37:43Z</time>
      </trkpt>
      <trkpt lat="45.96476" lon="6.78615">
        <ele>1762</ele>
        <time>2021-05-22T12:37:57Z</time>
      </trkpt>
      <trkpt lat="45.96478" lon="6.78624">
        <ele>1763</ele>
        <time>2021-05-22T12:38:39Z</time>
      </trkpt>
      <trkpt lat="45.96484" lon="6.78627">
        <ele>1765</ele>
        <time>2021-05-22T12:39:03Z</time>
      </trkpt>
      <trkpt lat="45.96484" lon="6.78634">
        <ele>1765</ele>
        <time>2021-05-22T12:39:33Z</time>
      </trkpt>
      <trkpt lat="45.96489" lon="6.7863">
        <ele>1767</ele>
        <time>2021-05-22T12:40:03Z</time>
      </trkpt>
      <trkpt lat="45.96496" lon="6.78629">
        <ele>1770</ele>
        <time>2021-05-22T12:41:32Z</time>
      </trkpt>
      <trkpt lat="45.96497" lon="6.78633">
        <ele>1772</ele>
        <time>2021-05-22T12:42:39Z</time>
      </trkpt>
      <trkpt lat="45.96504" lon="6.78637">
        <ele>1773</ele>
        <time>2021-05-22T12:42:52Z</time>
      </trkpt>
      <trkpt lat="45.96511" lon="6.78642">
        <ele>1773</ele>
        <time>2021-05-22T12:43:16Z</time>
      </trkpt>
      <trkpt lat="45.9651" lon="6.7865">
        <ele>1776</ele>
        <time>2021-05-22T12:43:32Z</time>
      </trkpt>
      <trkpt lat="45.96504" lon="6.78643">
        <ele>1775</ele>
        <time>2021-05-22T12:45:43Z</time>
      </trkpt>
      <trkpt lat="45.96501" lon="6.78636">
        <ele>1774</ele>
        <time>2021-05-22T12:45:53Z</time>
      </trkpt>
      <trkpt lat="45.96496" lon="6.78632">
        <ele>1773</ele>
        <time>2021-05-22T12:46:05Z</time>
      </trkpt>
      <trkpt lat="45.96495" lon="6.78635">
        <ele>1772</ele>
        <time>2021-05-22T12:51:44Z</time>
      </trkpt>
      <trkpt lat="45.96491" lon="6.7863">
        <ele>1773</ele>
        <time>2021-05-22T12:56:19Z</time>
      </trkpt>
      <trkpt lat="45.96496" lon="6.78628">
        <ele>1773</ele>
        <time>2021-05-22T12:58:23Z</time>
      </trkpt>
      <trkpt lat="45.96494" lon="6.78631">
        <ele>1773</ele>
        <time>2021-05-22T12:59:52Z</time>
      </trkpt>
      <trkpt lat="45.96489" lon="6.78623">
        <ele>1773</ele>
        <time>2021-05-22T13:01:52Z</time>
      </trkpt>
      <trkpt lat="45.96484" lon="6.78623">
        <ele>1769</ele>
        <time>2021-05-22T13:02:10Z</time>
      </trkpt>
      <trkpt lat="45.96485" lon="6.78623">
        <ele>1762</ele>
        <time>2021-05-22T13:03:18Z</time>
      </trkpt>
      <trkpt lat="45.96488" lon="6.7863">
        <ele>1768</ele>
        <time>2021-05-22T13:03:45Z</time>
      </trkpt>
      <trkpt lat="45.96478" lon="6.78629">
        <ele>1767</ele>
        <time>2021-05-22T13:05:05Z</time>
      </trkpt>
      <trkpt lat="45.96474" lon="6.78624">
        <ele>1766</ele>
        <time>2021-05-22T13:05:33Z</time>
      </trkpt>
      <trkpt lat="45.96473" lon="6.78615">
        <ele>1766</ele>
        <time>2021-05-22T13:05:46Z</time>
      </trkpt>
      <trkpt lat="45.96467" lon="6.78611">
        <ele>1765</ele>
        <time>2021-05-22T13:05:52Z</time>
      </trkpt>
      <trkpt lat="45.96464" lon="6.78603">
        <ele>1764</ele>
        <time>2021-05-22T13:06:04Z</time>
      </trkpt>
      <trkpt lat="45.96461" lon="6.78593">
        <ele>1758</ele>
        <time>2021-05-22T13:07:16Z</time>
      </trkpt>
      <trkpt lat="45.96457" lon="6.78584">
        <ele>1756</ele>
        <time>2021-05-22T13:07:34Z</time>
      </trkpt>
      <trkpt lat="45.96455" lon="6.78577">
        <ele>1752</ele>
        <time>2021-05-22T13:07:58Z</time>
      </trkpt>
      <trkpt lat="45.9645" lon="6.78579">
        <ele>1747</ele>
        <time>2021-05-22T13:08:16Z</time>
      </trkpt>
      <trkpt lat="45.96445" lon="6.78574">
        <ele>1746</ele>
        <time>2021-05-22T13:08:46Z</time>
      </trkpt>
      <trkpt lat="45.96443" lon="6.78561">
        <ele>1742</ele>
        <time>2021-05-22T13:09:16Z</time>
      </trkpt>
      <trkpt lat="45.96437" lon="6.78559">
        <ele>1740</ele>
        <time>2021-05-22T13:09:29Z</time>
      </trkpt>
      <trkpt lat="45.96437" lon="6.78549">
        <ele>1735</ele>
        <time>2021-05-22T13:10:11Z</time>
      </trkpt>
      <trkpt lat="45.96433" lon="6.78544">
        <ele>1736</ele>
        <time>2021-05-22T13:10:29Z</time>
      </trkpt>
      <trkpt lat="45.96425" lon="6.78539">
        <ele>1733</ele>
        <time>2021-05-22T13:10:48Z</time>
      </trkpt>
      <trkpt lat="45.96419" lon="6.78538">
        <ele>1729</ele>
        <time>2021-05-22T13:11:36Z</time>
      </trkpt>
      <trkpt lat="45.96412" lon="6.78537">
        <ele>1728</ele>
        <time>2021-05-22T13:11:48Z</time>
      </trkpt>
      <trkpt lat="45.96407" lon="6.78532">
        <ele>1728</ele>
        <time>2021-05-22T13:11:58Z</time>
      </trkpt>
      <trkpt lat="45.96402" lon="6.78528">
        <ele>1727</ele>
        <time>2021-05-22T13:12:19Z</time>
      </trkpt>
      <trkpt lat="45.96396" lon="6.78517">
        <ele>1727</ele>
        <time>2021-05-22T13:12:35Z</time>
      </trkpt>
      <trkpt lat="45.96393" lon="6.78508">
        <ele>1727</ele>
        <time>2021-05-22T13:12:53Z</time>
      </trkpt>
      <trkpt lat="45.9639" lon="6.78502">
        <ele>1727</ele>
        <time>2021-05-22T13:13:05Z</time>
      </trkpt>
      <trkpt lat="45.96384" lon="6.78501">
        <ele>1727</ele>
        <time>2021-05-22T13:13:17Z</time>
      </trkpt>
      <trkpt lat="45.96378" lon="6.78499">
        <ele>1727</ele>
        <time>2021-05-22T13:13:29Z</time>
      </trkpt>
      <trkpt lat="45.96372" lon="6.78495">
        <ele>1729</ele>
        <time>2021-05-22T13:13:53Z</time>
      </trkpt>
      <trkpt lat="45.96371" lon="6.78486">
        <ele>1728</ele>
        <time>2021-05-22T13:13:59Z</time>
      </trkpt>
      <trkpt lat="45.96369" lon="6.78476">
        <ele>1727</ele>
        <time>2021-05-22T13:14:15Z</time>
      </trkpt>
      <trkpt lat="45.96363" lon="6.78471">
        <ele>1726</ele>
        <time>2021-05-22T13:14:33Z</time>
      </trkpt>
      <trkpt lat="45.96361" lon="6.78463">
        <ele>1724</ele>
        <time>2021-05-22T13:14:51Z</time>
      </trkpt>
      <trkpt lat="45.96352" lon="6.78447">
        <ele>1722</ele>
        <time>2021-05-22T13:15:33Z</time>
      </trkpt>
      <trkpt lat="45.96356" lon="6.78443">
        <ele>1715</ele>
        <time>2021-05-22T13:16:15Z</time>
      </trkpt>
      <trkpt lat="45.96343" lon="6.78425">
        <ele>1705</ele>
        <time>2021-05-22T13:17:11Z</time>
      </trkpt>
      <trkpt lat="45.9634" lon="6.78418">
        <ele>1703</ele>
        <time>2021-05-22T13:17:41Z</time>
      </trkpt>
      <trkpt lat="45.96335" lon="6.78413">
        <ele>1701</ele>
        <time>2021-05-22T13:17:53Z</time>
      </trkpt>
      <trkpt lat="45.96331" lon="6.78407">
        <ele>1700</ele>
        <time>2021-05-22T13:18:06Z</time>
      </trkpt>
      <trkpt lat="45.96327" lon="6.78397">
        <ele>1699</ele>
        <time>2021-05-22T13:18:30Z</time>
      </trkpt>
      <trkpt lat="45.96321" lon="6.7839">
        <ele>1699</ele>
        <time>2021-05-22T13:18:42Z</time>
      </trkpt>
      <trkpt lat="45.96318" lon="6.78384">
        <ele>1697</ele>
        <time>2021-05-22T13:18:59Z</time>
      </trkpt>
      <trkpt lat="45.9631" lon="6.78368">
        <ele>1688</ele>
        <time>2021-05-22T13:19:33Z</time>
      </trkpt>
      <trkpt lat="45.96303" lon="6.78369">
        <ele>1685</ele>
        <time>2021-05-22T13:19:45Z</time>
      </trkpt>
      <trkpt lat="45.96297" lon="6.78369">
        <ele>1684</ele>
        <time>2021-05-22T13:19:52Z</time>
      </trkpt>
      <trkpt lat="45.96292" lon="6.78366">
        <ele>1684</ele>
        <time>2021-05-22T13:19:58Z</time>
      </trkpt>
      <trkpt lat="45.96286" lon="6.78366">
        <ele>1683</ele>
        <time>2021-05-22T13:20:04Z</time>
      </trkpt>
      <trkpt lat="45.96269" lon="6.7837">
        <ele>1679</ele>
        <time>2021-05-22T13:21:58Z</time>
      </trkpt>
      <trkpt lat="45.96246" lon="6.78356">
        <ele>1674</ele>
        <time>2021-05-22T13:22:31Z</time>
      </trkpt>
      <trkpt lat="45.9623" lon="6.78337">
        <ele>1676</ele>
        <time>2021-05-22T13:22:51Z</time>
      </trkpt>
      <trkpt lat="45.96216" lon="6.7833">
        <ele>1675</ele>
        <time>2021-05-22T13:23:06Z</time>
      </trkpt>
      <trkpt lat="45.9618" lon="6.78309">
        <ele>1668</ele>
        <time>2021-05-22T13:23:53Z</time>
      </trkpt>
      <trkpt lat="45.96177" lon="6.78302">
        <ele>1666</ele>
        <time>2021-05-22T13:24:05Z</time>
      </trkpt>
      <trkpt lat="45.96167" lon="6.78295">
        <ele>1667</ele>
        <time>2021-05-22T13:24:24Z</time>
      </trkpt>
      <trkpt lat="45.96161" lon="6.78297">
        <ele>1666</ele>
        <time>2021-05-22T13:24:51Z</time>
      </trkpt>
      <trkpt lat="45.96158" lon="6.78289">
        <ele>1663</ele>
        <time>2021-05-22T13:25:09Z</time>
      </trkpt>
      <trkpt lat="45.96153" lon="6.78277">
        <ele>1660</ele>
        <time>2021-05-22T13:25:26Z</time>
      </trkpt>
      <trkpt lat="45.96151" lon="6.7827">
        <ele>1655</ele>
        <time>2021-05-22T13:26:19Z</time>
      </trkpt>
      <trkpt lat="45.96152" lon="6.78256">
        <ele>1650</ele>
        <time>2021-05-22T13:26:36Z</time>
      </trkpt>
      <trkpt lat="45.96156" lon="6.7825">
        <ele>1649</ele>
        <time>2021-05-22T13:26:42Z</time>
      </trkpt>
      <trkpt lat="45.96151" lon="6.78248">
        <ele>1646</ele>
        <time>2021-05-22T13:26:54Z</time>
      </trkpt>
      <trkpt lat="45.96148" lon="6.78251">
        <ele>1646</ele>
        <time>2021-05-22T13:26:56Z</time>
      </trkpt>
      <trkpt lat="45.96144" lon="6.78252">
        <ele>1646</ele>
        <time>2021-05-22T13:27:00Z</time>
      </trkpt>
      <trkpt lat="45.96139" lon="6.78256">
        <ele>1644</ele>
        <time>2021-05-22T13:27:05Z</time>
      </trkpt>
      <trkpt lat="45.96134" lon="6.78258">
        <ele>1640</ele>
        <time>2021-05-22T13:27:36Z</time>
      </trkpt>
      <trkpt lat="45.96131" lon="6.78252">
        <ele>1634</ele>
        <time>2021-05-22T13:28:01Z</time>
      </trkpt>
      <trkpt lat="45.96125" lon="6.78249">
        <ele>1630</ele>
        <time>2021-05-22T13:28:19Z</time>
      </trkpt>
      <trkpt lat="45.96132" lon="6.78243">
        <ele>1627</ele>
        <time>2021-05-22T13:28:32Z</time>
      </trkpt>
      <trkpt lat="45.96129" lon="6.78237">
        <ele>1623</ele>
        <time>2021-05-22T13:28:47Z</time>
      </trkpt>
      <trkpt lat="45.96126" lon="6.78217">
        <ele>1615</ele>
        <time>2021-05-22T13:29:21Z</time>
      </trkpt>
      <trkpt lat="45.96127" lon="6.78207">
        <ele>1610</ele>
        <time>2021-05-22T13:29:39Z</time>
      </trkpt>
      <trkpt lat="45.96123" lon="6.78198">
        <ele>1607</ele>
        <time>2021-05-22T13:29:51Z</time>
      </trkpt>
      <trkpt lat="45.96124" lon="6.78188">
        <ele>1603</ele>
        <time>2021-05-22T13:30:09Z</time>
      </trkpt>
      <trkpt lat="45.96112" lon="6.78195">
        <ele>1600</ele>
        <time>2021-05-22T13:30:21Z</time>
      </trkpt>
      <trkpt lat="45.96108" lon="6.78186">
        <ele>1596</ele>
        <time>2021-05-22T13:30:37Z</time>
      </trkpt>
      <trkpt lat="45.96109" lon="6.7818">
        <ele>1594</ele>
        <time>2021-05-22T13:30:49Z</time>
      </trkpt>
      <trkpt lat="45.96113" lon="6.78172">
        <ele>1592</ele>
        <time>2021-05-22T13:31:01Z</time>
      </trkpt>
      <trkpt lat="45.96098" lon="6.78162">
        <ele>1583</ele>
        <time>2021-05-22T13:31:38Z</time>
      </trkpt>
      <trkpt lat="45.96095" lon="6.78154">
        <ele>1581</ele>
        <time>2021-05-22T13:31:50Z</time>
      </trkpt>
      <trkpt lat="45.961" lon="6.78146">
        <ele>1578</ele>
        <time>2021-05-22T13:32:13Z</time>
      </trkpt>
      <trkpt lat="45.96104" lon="6.78141">
        <ele>1577</ele>
        <time>2021-05-22T13:32:21Z</time>
      </trkpt>
      <trkpt lat="45.96108" lon="6.78134">
        <ele>1577</ele>
        <time>2021-05-22T13:32:26Z</time>
      </trkpt>
      <trkpt lat="45.96109" lon="6.78126">
        <ele>1574</ele>
        <time>2021-05-22T13:32:34Z</time>
      </trkpt>
      <trkpt lat="45.96103" lon="6.78113">
        <ele>1569</ele>
        <time>2021-05-22T13:32:47Z</time>
      </trkpt>
      <trkpt lat="45.96097" lon="6.7811">
        <ele>1569</ele>
        <time>2021-05-22T13:32:52Z</time>
      </trkpt>
      <trkpt lat="45.96092" lon="6.78095">
        <ele>1568</ele>
        <time>2021-05-22T13:33:05Z</time>
      </trkpt>
      <trkpt lat="45.96092" lon="6.78087">
        <ele>1567</ele>
        <time>2021-05-22T13:33:10Z</time>
      </trkpt>
      <trkpt lat="45.96094" lon="6.78079">
        <ele>1566</ele>
        <time>2021-05-22T13:33:22Z</time>
      </trkpt>
      <trkpt lat="45.96095" lon="6.78071">
        <ele>1565</ele>
        <time>2021-05-22T13:33:38Z</time>
      </trkpt>
      <trkpt lat="45.96088" lon="6.78066">
        <ele>1563</ele>
        <time>2021-05-22T13:34:05Z</time>
      </trkpt>
      <trkpt lat="45.96082" lon="6.78065">
        <ele>1560</ele>
        <time>2021-05-22T13:34:17Z</time>
      </trkpt>
      <trkpt lat="45.96076" lon="6.78057">
        <ele>1560</ele>
        <time>2021-05-22T13:34:35Z</time>
      </trkpt>
      <trkpt lat="45.96079" lon="6.7805">
        <ele>1561</ele>
        <time>2021-05-22T13:35:38Z</time>
      </trkpt>
      <trkpt lat="45.96072" lon="6.78048">
        <ele>1556</ele>
        <time>2021-05-22T13:35:56Z</time>
      </trkpt>
      <trkpt lat="45.96076" lon="6.78044">
        <ele>1558</ele>
        <time>2021-05-22T13:37:02Z</time>
      </trkpt>
      <trkpt lat="45.9608" lon="6.78044">
        <ele>1558</ele>
        <time>2021-05-22T13:38:15Z</time>
      </trkpt>
      <trkpt lat="45.96079" lon="6.78043">
        <ele>1558</ele>
        <time>2021-05-22T13:38:52Z</time>
      </trkpt>
      <trkpt lat="45.96077" lon="6.78035">
        <ele>1559</ele>
        <time>2021-05-22T13:39:22Z</time>
      </trkpt>
      <trkpt lat="45.96075" lon="6.78035">
        <ele>1559</ele>
        <time>2021-05-22T13:40:58Z</time>
      </trkpt>
      <trkpt lat="45.96069" lon="6.78028">
        <ele>1560</ele>
        <time>2021-05-22T13:41:28Z</time>
      </trkpt>
      <trkpt lat="45.96071" lon="6.78033">
        <ele>1559</ele>
        <time>2021-05-22T13:41:47Z</time>
      </trkpt>
      <trkpt lat="45.96074" lon="6.78039">
        <ele>1560</ele>
        <time>2021-05-22T13:41:53Z</time>
      </trkpt>
      <trkpt lat="45.96077" lon="6.78042">
        <ele>1559</ele>
        <time>2021-05-22T13:41:57Z</time>
      </trkpt>
      <trkpt lat="45.96073" lon="6.78036">
        <ele>1559</ele>
        <time>2021-05-22T13:42:58Z</time>
      </trkpt>
      <trkpt lat="45.96075" lon="6.78034">
        <ele>1558</ele>
        <time>2021-05-22T13:43:48Z</time>
      </trkpt>
      <trkpt lat="45.96083" lon="6.78026">
        <ele>1561</ele>
        <time>2021-05-22T13:46:53Z</time>
      </trkpt>
      <trkpt lat="45.96089" lon="6.78016">
        <ele>1563</ele>
        <time>2021-05-22T13:47:11Z</time>
      </trkpt>
      <trkpt lat="45.96093" lon="6.7801">
        <ele>1564</ele>
        <time>2021-05-22T13:47:16Z</time>
      </trkpt>
      <trkpt lat="45.96089" lon="6.78004">
        <ele>1565</ele>
        <time>2021-05-22T13:47:24Z</time>
      </trkpt>
      <trkpt lat="45.9609" lon="6.77993">
        <ele>1566</ele>
        <time>2021-05-22T13:47:31Z</time>
      </trkpt>
      <trkpt lat="45.96093" lon="6.77988">
        <ele>1566</ele>
        <time>2021-05-22T13:47:38Z</time>
      </trkpt>
      <trkpt lat="45.96094" lon="6.77979">
        <ele>1566</ele>
        <time>2021-05-22T13:47:45Z</time>
      </trkpt>
      <trkpt lat="45.9609" lon="6.7797">
        <ele>1565</ele>
        <time>2021-05-22T13:47:56Z</time>
      </trkpt>
      <trkpt lat="45.96085" lon="6.77965">
        <ele>1566</ele>
        <time>2021-05-22T13:48:07Z</time>
      </trkpt>
      <trkpt lat="45.96083" lon="6.77949">
        <ele>1566</ele>
        <time>2021-05-22T13:48:15Z</time>
      </trkpt>
      <trkpt lat="45.96078" lon="6.77943">
        <ele>1565</ele>
        <time>2021-05-22T13:48:19Z</time>
      </trkpt>
      <trkpt lat="45.96067" lon="6.77934">
        <ele>1567</ele>
        <time>2021-05-22T13:48:32Z</time>
      </trkpt>
      <trkpt lat="45.96062" lon="6.77932">
        <ele>1567</ele>
        <time>2021-05-22T13:48:37Z</time>
      </trkpt>
      <trkpt lat="45.96055" lon="6.77924">
        <ele>1567</ele>
        <time>2021-05-22T13:48:46Z</time>
      </trkpt>
      <trkpt lat="45.96043" lon="6.77916">
        <ele>1568</ele>
        <time>2021-05-22T13:48:59Z</time>
      </trkpt>
      <trkpt lat="45.96037" lon="6.77916">
        <ele>1568</ele>
        <time>2021-05-22T13:49:05Z</time>
      </trkpt>
      <trkpt lat="45.96032" lon="6.77914">
        <ele>1569</ele>
        <time>2021-05-22T13:49:11Z</time>
      </trkpt>
      <trkpt lat="45.96024" lon="6.77905">
        <ele>1569</ele>
        <time>2021-05-22T13:49:22Z</time>
      </trkpt>
      <trkpt lat="45.96022" lon="6.779">
        <ele>1569</ele>
        <time>2021-05-22T13:49:26Z</time>
      </trkpt>
      <trkpt lat="45.96018" lon="6.77895">
        <ele>1569</ele>
        <time>2021-05-22T13:49:30Z</time>
      </trkpt>
      <trkpt lat="45.96013" lon="6.77891">
        <ele>1570</ele>
        <time>2021-05-22T13:49:37Z</time>
      </trkpt>
      <trkpt lat="45.96008" lon="6.7789">
        <ele>1569</ele>
        <time>2021-05-22T13:49:40Z</time>
      </trkpt>
      <trkpt lat="45.95992" lon="6.77881">
        <ele>1573</ele>
        <time>2021-05-22T13:50:02Z</time>
      </trkpt>
      <trkpt lat="45.95988" lon="6.77881">
        <ele>1574</ele>
        <time>2021-05-22T13:50:07Z</time>
      </trkpt>
      <trkpt lat="45.9598" lon="6.7789">
        <ele>1575</ele>
        <time>2021-05-22T13:50:20Z</time>
      </trkpt>
      <trkpt lat="45.95976" lon="6.77882">
        <ele>1573</ele>
        <time>2021-05-22T13:50:56Z</time>
      </trkpt>
      <trkpt lat="45.95969" lon="6.77884">
        <ele>1572</ele>
        <time>2021-05-22T13:51:03Z</time>
      </trkpt>
      <trkpt lat="45.95957" lon="6.77878">
        <ele>1571</ele>
        <time>2021-05-22T13:51:12Z</time>
      </trkpt>
      <trkpt lat="45.95945" lon="6.77875">
        <ele>1570</ele>
        <time>2021-05-22T13:51:21Z</time>
      </trkpt>
      <trkpt lat="45.95939" lon="6.77875">
        <ele>1571</ele>
        <time>2021-05-22T13:51:26Z</time>
      </trkpt>
      <trkpt lat="45.95933" lon="6.77872">
        <ele>1570</ele>
        <time>2021-05-22T13:51:31Z</time>
      </trkpt>
      <trkpt lat="45.95925" lon="6.77872">
        <ele>1570</ele>
        <time>2021-05-22T13:51:40Z</time>
      </trkpt>
      <trkpt lat="45.95913" lon="6.77869">
        <ele>1570</ele>
        <time>2021-05-22T13:51:50Z</time>
      </trkpt>
      <trkpt lat="45.95907" lon="6.77868">
        <ele>1570</ele>
        <time>2021-05-22T13:51:56Z</time>
      </trkpt>
      <trkpt lat="45.95901" lon="6.77865">
        <ele>1568</ele>
        <time>2021-05-22T13:52:03Z</time>
      </trkpt>
      <trkpt lat="45.95894" lon="6.77862">
        <ele>1568</ele>
        <time>2021-05-22T13:52:08Z</time>
      </trkpt>
      <trkpt lat="45.95891" lon="6.77857">
        <ele>1566</ele>
        <time>2021-05-22T13:52:13Z</time>
      </trkpt>
      <trkpt lat="45.9589" lon="6.77847">
        <ele>1565</ele>
        <time>2021-05-22T13:52:19Z</time>
      </trkpt>
      <trkpt lat="45.95897" lon="6.77823">
        <ele>1561</ele>
        <time>2021-05-22T13:52:34Z</time>
      </trkpt>
      <trkpt lat="45.95902" lon="6.77815">
        <ele>1559</ele>
        <time>2021-05-22T13:52:42Z</time>
      </trkpt>
      <trkpt lat="45.95898" lon="6.77805">
        <ele>1557</ele>
        <time>2021-05-22T13:52:50Z</time>
      </trkpt>
      <trkpt lat="45.95894" lon="6.77799">
        <ele>1556</ele>
        <time>2021-05-22T13:52:54Z</time>
      </trkpt>
      <trkpt lat="45.95888" lon="6.77797">
        <ele>1556</ele>
        <time>2021-05-22T13:52:58Z</time>
      </trkpt>
      <trkpt lat="45.95882" lon="6.77797">
        <ele>1555</ele>
        <time>2021-05-22T13:53:03Z</time>
      </trkpt>
      <trkpt lat="45.95877" lon="6.77793">
        <ele>1555</ele>
        <time>2021-05-22T13:53:08Z</time>
      </trkpt>
      <trkpt lat="45.95875" lon="6.77785">
        <ele>1554</ele>
        <time>2021-05-22T13:53:13Z</time>
      </trkpt>
      <trkpt lat="45.95861" lon="6.7777">
        <ele>1552</ele>
        <time>2021-05-22T13:53:29Z</time>
      </trkpt>
      <trkpt lat="45.95859" lon="6.77761">
        <ele>1552</ele>
        <time>2021-05-22T13:53:34Z</time>
      </trkpt>
      <trkpt lat="45.95859" lon="6.77752">
        <ele>1550</ele>
        <time>2021-05-22T13:53:40Z</time>
      </trkpt>
      <trkpt lat="45.9586" lon="6.77743">
        <ele>1548</ele>
        <time>2021-05-22T13:53:45Z</time>
      </trkpt>
      <trkpt lat="45.95862" lon="6.77734">
        <ele>1548</ele>
        <time>2021-05-22T13:53:50Z</time>
      </trkpt>
      <trkpt lat="45.95861" lon="6.77717">
        <ele>1547</ele>
        <time>2021-05-22T13:53:59Z</time>
      </trkpt>
      <trkpt lat="45.95864" lon="6.77693">
        <ele>1544</ele>
        <time>2021-05-22T13:54:13Z</time>
      </trkpt>
      <trkpt lat="45.95869" lon="6.77684">
        <ele>1542</ele>
        <time>2021-05-22T13:54:21Z</time>
      </trkpt>
      <trkpt lat="45.95867" lon="6.77673">
        <ele>1540</ele>
        <time>2021-05-22T13:54:29Z</time>
      </trkpt>
      <trkpt lat="45.95862" lon="6.7767">
        <ele>1539</ele>
        <time>2021-05-22T13:54:32Z</time>
      </trkpt>
      <trkpt lat="45.95856" lon="6.77667">
        <ele>1539</ele>
        <time>2021-05-22T13:54:36Z</time>
      </trkpt>
      <trkpt lat="45.9585" lon="6.77669">
        <ele>1538</ele>
        <time>2021-05-22T13:54:41Z</time>
      </trkpt>
      <trkpt lat="45.95845" lon="6.77672">
        <ele>1537</ele>
        <time>2021-05-22T13:54:45Z</time>
      </trkpt>
      <trkpt lat="45.95838" lon="6.77683">
        <ele>1535</ele>
        <time>2021-05-22T13:54:54Z</time>
      </trkpt>
      <trkpt lat="45.95829" lon="6.77689">
        <ele>1533</ele>
        <time>2021-05-22T13:55:00Z</time>
      </trkpt>
      <trkpt lat="45.95825" lon="6.77691">
        <ele>1532</ele>
        <time>2021-05-22T13:55:04Z</time>
      </trkpt>
      <trkpt lat="45.95819" lon="6.77694">
        <ele>1532</ele>
        <time>2021-05-22T13:55:09Z</time>
      </trkpt>
      <trkpt lat="45.95809" lon="6.77695">
        <ele>1530</ele>
        <time>2021-05-22T13:55:22Z</time>
      </trkpt>
      <trkpt lat="45.95803" lon="6.77689">
        <ele>1527</ele>
        <time>2021-05-22T13:55:43Z</time>
      </trkpt>
      <trkpt lat="45.95802" lon="6.7768">
        <ele>1527</ele>
        <time>2021-05-22T13:55:47Z</time>
      </trkpt>
      <trkpt lat="45.95803" lon="6.77671">
        <ele>1525</ele>
        <time>2021-05-22T13:55:51Z</time>
      </trkpt>
      <trkpt lat="45.95807" lon="6.77665">
        <ele>1524</ele>
        <time>2021-05-22T13:55:57Z</time>
      </trkpt>
      <trkpt lat="45.95807" lon="6.77657">
        <ele>1523</ele>
        <time>2021-05-22T13:56:03Z</time>
      </trkpt>
      <trkpt lat="45.95802" lon="6.77655">
        <ele>1523</ele>
        <time>2021-05-22T13:56:06Z</time>
      </trkpt>
      <trkpt lat="45.95788" lon="6.77649">
        <ele>1520</ele>
        <time>2021-05-22T13:56:19Z</time>
      </trkpt>
      <trkpt lat="45.95785" lon="6.77641">
        <ele>1519</ele>
        <time>2021-05-22T13:56:24Z</time>
      </trkpt>
      <trkpt lat="45.95785" lon="6.77625">
        <ele>1517</ele>
        <time>2021-05-22T13:56:33Z</time>
      </trkpt>
      <trkpt lat="45.95786" lon="6.77613">
        <ele>1515</ele>
        <time>2021-05-22T13:56:38Z</time>
      </trkpt>
      <trkpt lat="45.95787" lon="6.77606">
        <ele>1515</ele>
        <time>2021-05-22T13:56:43Z</time>
      </trkpt>
      <trkpt lat="45.95791" lon="6.77599">
        <ele>1514</ele>
        <time>2021-05-22T13:56:48Z</time>
      </trkpt>
      <trkpt lat="45.95793" lon="6.77587">
        <ele>1513</ele>
        <time>2021-05-22T13:56:57Z</time>
      </trkpt>
      <trkpt lat="45.95797" lon="6.7758">
        <ele>1513</ele>
        <time>2021-05-22T13:57:02Z</time>
      </trkpt>
      <trkpt lat="45.95796" lon="6.77556">
        <ele>1511</ele>
        <time>2021-05-22T13:57:20Z</time>
      </trkpt>
      <trkpt lat="45.95797" lon="6.77548">
        <ele>1511</ele>
        <time>2021-05-22T13:57:24Z</time>
      </trkpt>
      <trkpt lat="45.958" lon="6.7754">
        <ele>1511</ele>
        <time>2021-05-22T13:57:29Z</time>
      </trkpt>
      <trkpt lat="45.95803" lon="6.77524">
        <ele>1510</ele>
        <time>2021-05-22T13:57:40Z</time>
      </trkpt>
      <trkpt lat="45.95792" lon="6.77513">
        <ele>1509</ele>
        <time>2021-05-22T13:57:46Z</time>
      </trkpt>
      <trkpt lat="45.95789" lon="6.77507">
        <ele>1509</ele>
        <time>2021-05-22T13:57:50Z</time>
      </trkpt>
      <trkpt lat="45.95784" lon="6.775">
        <ele>1509</ele>
        <time>2021-05-22T13:57:54Z</time>
      </trkpt>
      <trkpt lat="45.9578" lon="6.77495">
        <ele>1509</ele>
        <time>2021-05-22T13:57:57Z</time>
      </trkpt>
      <trkpt lat="45.95776" lon="6.7748">
        <ele>1508</ele>
        <time>2021-05-22T13:58:04Z</time>
      </trkpt>
      <trkpt lat="45.95774" lon="6.77472">
        <ele>1508</ele>
        <time>2021-05-22T13:58:08Z</time>
      </trkpt>
      <trkpt lat="45.95771" lon="6.77463">
        <ele>1508</ele>
        <time>2021-05-22T13:58:14Z</time>
      </trkpt>
      <trkpt lat="45.95766" lon="6.77458">
        <ele>1508</ele>
        <time>2021-05-22T13:58:20Z</time>
      </trkpt>
      <trkpt lat="45.95762" lon="6.77452">
        <ele>1507</ele>
        <time>2021-05-22T13:58:24Z</time>
      </trkpt>
      <trkpt lat="45.95757" lon="6.77445">
        <ele>1506</ele>
        <time>2021-05-22T13:58:29Z</time>
      </trkpt>
      <trkpt lat="45.95754" lon="6.77438">
        <ele>1507</ele>
        <time>2021-05-22T13:58:32Z</time>
      </trkpt>
      <trkpt lat="45.95751" lon="6.77434">
        <ele>1506</ele>
        <time>2021-05-22T13:58:35Z</time>
      </trkpt>
      <trkpt lat="45.95744" lon="6.77431">
        <ele>1506</ele>
        <time>2021-05-22T13:58:41Z</time>
      </trkpt>
      <trkpt lat="45.95739" lon="6.77429">
        <ele>1506</ele>
        <time>2021-05-22T13:58:46Z</time>
      </trkpt>
      <trkpt lat="45.95727" lon="6.77419">
        <ele>1503</ele>
        <time>2021-05-22T13:59:03Z</time>
      </trkpt>
      <trkpt lat="45.95722" lon="6.77415">
        <ele>1501</ele>
        <time>2021-05-22T13:59:13Z</time>
      </trkpt>
      <trkpt lat="45.95712" lon="6.77414">
        <ele>1499</ele>
        <time>2021-05-22T13:59:24Z</time>
      </trkpt>
      <trkpt lat="45.95706" lon="6.77417">
        <ele>1499</ele>
        <time>2021-05-22T13:59:28Z</time>
      </trkpt>
      <trkpt lat="45.95702" lon="6.77423">
        <ele>1499</ele>
        <time>2021-05-22T13:59:32Z</time>
      </trkpt>
      <trkpt lat="45.95697" lon="6.77426">
        <ele>1498</ele>
        <time>2021-05-22T13:59:37Z</time>
      </trkpt>
      <trkpt lat="45.9569" lon="6.77426">
        <ele>1497</ele>
        <time>2021-05-22T13:59:43Z</time>
      </trkpt>
      <trkpt lat="45.95684" lon="6.77421">
        <ele>1495</ele>
        <time>2021-05-22T13:59:48Z</time>
      </trkpt>
      <trkpt lat="45.95675" lon="6.77411">
        <ele>1493</ele>
        <time>2021-05-22T13:59:58Z</time>
      </trkpt>
      <trkpt lat="45.95671" lon="6.77407">
        <ele>1493</ele>
        <time>2021-05-22T14:00:03Z</time>
      </trkpt>
      <trkpt lat="45.95662" lon="6.77408">
        <ele>1492</ele>
        <time>2021-05-22T14:00:16Z</time>
      </trkpt>
      <trkpt lat="45.95655" lon="6.77406">
        <ele>1491</ele>
        <time>2021-05-22T14:00:23Z</time>
      </trkpt>
      <trkpt lat="45.95646" lon="6.77399">
        <ele>1488</ele>
        <time>2021-05-22T14:00:34Z</time>
      </trkpt>
      <trkpt lat="45.95643" lon="6.77387">
        <ele>1487</ele>
        <time>2021-05-22T14:00:41Z</time>
      </trkpt>
      <trkpt lat="45.95642" lon="6.77369">
        <ele>1485</ele>
        <time>2021-05-22T14:00:51Z</time>
      </trkpt>
      <trkpt lat="45.95644" lon="6.77359">
        <ele>1483</ele>
        <time>2021-05-22T14:00:58Z</time>
      </trkpt>
      <trkpt lat="45.95644" lon="6.7734">
        <ele>1480</ele>
        <time>2021-05-22T14:01:12Z</time>
      </trkpt>
      <trkpt lat="45.95638" lon="6.7733">
        <ele>1480</ele>
        <time>2021-05-22T14:01:24Z</time>
      </trkpt>
      <trkpt lat="45.95632" lon="6.77317">
        <ele>1477</ele>
        <time>2021-05-22T14:01:33Z</time>
      </trkpt>
      <trkpt lat="45.95634" lon="6.77301">
        <ele>1475</ele>
        <time>2021-05-22T14:01:41Z</time>
      </trkpt>
      <trkpt lat="45.95628" lon="6.77285">
        <ele>1473</ele>
        <time>2021-05-22T14:01:54Z</time>
      </trkpt>
      <trkpt lat="45.95627" lon="6.77268">
        <ele>1472</ele>
        <time>2021-05-22T14:02:05Z</time>
      </trkpt>
      <trkpt lat="45.95624" lon="6.77258">
        <ele>1471</ele>
        <time>2021-05-22T14:02:13Z</time>
      </trkpt>
      <trkpt lat="45.95627" lon="6.77248">
        <ele>1471</ele>
        <time>2021-05-22T14:02:21Z</time>
      </trkpt>
      <trkpt lat="45.95624" lon="6.7724">
        <ele>1471</ele>
        <time>2021-05-22T14:02:25Z</time>
      </trkpt>
      <trkpt lat="45.95622" lon="6.77231">
        <ele>1470</ele>
        <time>2021-05-22T14:02:30Z</time>
      </trkpt>
      <trkpt lat="45.95615" lon="6.77219">
        <ele>1468</ele>
        <time>2021-05-22T14:02:39Z</time>
      </trkpt>
      <trkpt lat="45.95614" lon="6.77211">
        <ele>1468</ele>
        <time>2021-05-22T14:02:43Z</time>
      </trkpt>
      <trkpt lat="45.95605" lon="6.77169">
        <ele>1465</ele>
        <time>2021-05-22T14:03:09Z</time>
      </trkpt>
      <trkpt lat="45.95601" lon="6.7716">
        <ele>1463</ele>
        <time>2021-05-22T14:03:16Z</time>
      </trkpt>
      <trkpt lat="45.95596" lon="6.77157">
        <ele>1463</ele>
        <time>2021-05-22T14:03:21Z</time>
      </trkpt>
      <trkpt lat="45.95588" lon="6.77157">
        <ele>1461</ele>
        <time>2021-05-22T14:03:28Z</time>
      </trkpt>
      <trkpt lat="45.95583" lon="6.77153">
        <ele>1461</ele>
        <time>2021-05-22T14:03:33Z</time>
      </trkpt>
      <trkpt lat="45.95568" lon="6.77133">
        <ele>1458</ele>
        <time>2021-05-22T14:03:54Z</time>
      </trkpt>
      <trkpt lat="45.95556" lon="6.77129">
        <ele>1457</ele>
        <time>2021-05-22T14:04:03Z</time>
      </trkpt>
      <trkpt lat="45.95547" lon="6.77119">
        <ele>1454</ele>
        <time>2021-05-22T14:04:15Z</time>
      </trkpt>
      <trkpt lat="45.95544" lon="6.77105">
        <ele>1452</ele>
        <time>2021-05-22T14:04:25Z</time>
      </trkpt>
      <trkpt lat="45.95534" lon="6.77094">
        <ele>1450</ele>
        <time>2021-05-22T14:04:38Z</time>
      </trkpt>
      <trkpt lat="45.9552" lon="6.77067">
        <ele>1444</ele>
        <time>2021-05-22T14:05:02Z</time>
      </trkpt>
      <trkpt lat="45.95503" lon="6.77058">
        <ele>1442</ele>
        <time>2021-05-22T14:05:15Z</time>
      </trkpt>
      <trkpt lat="45.9549" lon="6.77057">
        <ele>1440</ele>
        <time>2021-05-22T14:05:26Z</time>
      </trkpt>
      <trkpt lat="45.9548" lon="6.77052">
        <ele>1438</ele>
        <time>2021-05-22T14:05:38Z</time>
      </trkpt>
      <trkpt lat="45.95474" lon="6.7705">
        <ele>1437</ele>
        <time>2021-05-22T14:05:43Z</time>
      </trkpt>
      <trkpt lat="45.95462" lon="6.77045">
        <ele>1434</ele>
        <time>2021-05-22T14:05:53Z</time>
      </trkpt>
      <trkpt lat="45.95443" lon="6.77047">
        <ele>1431</ele>
        <time>2021-05-22T14:06:09Z</time>
      </trkpt>
      <trkpt lat="45.95437" lon="6.77047">
        <ele>1431</ele>
        <time>2021-05-22T14:06:14Z</time>
      </trkpt>
      <trkpt lat="45.95425" lon="6.7704">
        <ele>1429</ele>
        <time>2021-05-22T14:06:28Z</time>
      </trkpt>
      <trkpt lat="45.95418" lon="6.7704">
        <ele>1428</ele>
        <time>2021-05-22T14:06:33Z</time>
      </trkpt>
      <trkpt lat="45.95412" lon="6.77037">
        <ele>1428</ele>
        <time>2021-05-22T14:06:38Z</time>
      </trkpt>
      <trkpt lat="45.95408" lon="6.77035">
        <ele>1426</ele>
        <time>2021-05-22T14:06:43Z</time>
      </trkpt>
      <trkpt lat="45.95405" lon="6.7702">
        <ele>1423</ele>
        <time>2021-05-22T14:06:53Z</time>
      </trkpt>
      <trkpt lat="45.95401" lon="6.7701">
        <ele>1422</ele>
        <time>2021-05-22T14:06:58Z</time>
      </trkpt>
      <trkpt lat="45.95392" lon="6.7698">
        <ele>1420</ele>
        <time>2021-05-22T14:07:15Z</time>
      </trkpt>
      <trkpt lat="45.95387" lon="6.7697">
        <ele>1421</ele>
        <time>2021-05-22T14:07:22Z</time>
      </trkpt>
      <trkpt lat="45.95383" lon="6.7696">
        <ele>1420</ele>
        <time>2021-05-22T14:07:29Z</time>
      </trkpt>
      <trkpt lat="45.95382" lon="6.7695">
        <ele>1421</ele>
        <time>2021-05-22T14:07:34Z</time>
      </trkpt>
      <trkpt lat="45.95382" lon="6.76938">
        <ele>1420</ele>
        <time>2021-05-22T14:07:40Z</time>
      </trkpt>
      <trkpt lat="45.95379" lon="6.76928">
        <ele>1419</ele>
        <time>2021-05-22T14:07:46Z</time>
      </trkpt>
      <trkpt lat="45.9538" lon="6.76919">
        <ele>1419</ele>
        <time>2021-05-22T14:07:49Z</time>
      </trkpt>
      <trkpt lat="45.9538" lon="6.76908">
        <ele>1418</ele>
        <time>2021-05-22T14:07:55Z</time>
      </trkpt>
      <trkpt lat="45.95369" lon="6.7689">
        <ele>1415</ele>
        <time>2021-05-22T14:08:10Z</time>
      </trkpt>
      <trkpt lat="45.95365" lon="6.76868">
        <ele>1415</ele>
        <time>2021-05-22T14:08:24Z</time>
      </trkpt>
      <trkpt lat="45.95366" lon="6.76856">
        <ele>1414</ele>
        <time>2021-05-22T14:08:31Z</time>
      </trkpt>
      <trkpt lat="45.95349" lon="6.76821">
        <ele>1411</ele>
        <time>2021-05-22T14:08:54Z</time>
      </trkpt>
      <trkpt lat="45.95338" lon="6.76807">
        <ele>1411</ele>
        <time>2021-05-22T14:09:07Z</time>
      </trkpt>
      <trkpt lat="45.95331" lon="6.76787">
        <ele>1411</ele>
        <time>2021-05-22T14:09:18Z</time>
      </trkpt>
      <trkpt lat="45.9533" lon="6.76771">
        <ele>1411</ele>
        <time>2021-05-22T14:09:24Z</time>
      </trkpt>
      <trkpt lat="45.95327" lon="6.76766">
        <ele>1411</ele>
        <time>2021-05-22T14:09:28Z</time>
      </trkpt>
      <trkpt lat="45.9532" lon="6.76746">
        <ele>1411</ele>
        <time>2021-05-22T14:09:42Z</time>
      </trkpt>
      <trkpt lat="45.95314" lon="6.76741">
        <ele>1411</ele>
        <time>2021-05-22T14:09:48Z</time>
      </trkpt>
      <trkpt lat="45.95307" lon="6.76738">
        <ele>1412</ele>
        <time>2021-05-22T14:09:54Z</time>
      </trkpt>
      <trkpt lat="45.95301" lon="6.76736">
        <ele>1411</ele>
        <time>2021-05-22T14:09:59Z</time>
      </trkpt>
      <trkpt lat="45.95289" lon="6.76721">
        <ele>1412</ele>
        <time>2021-05-22T14:10:14Z</time>
      </trkpt>
      <trkpt lat="45.95285" lon="6.76714">
        <ele>1412</ele>
        <time>2021-05-22T14:10:20Z</time>
      </trkpt>
      <trkpt lat="45.95281" lon="6.76706">
        <ele>1413</ele>
        <time>2021-05-22T14:10:26Z</time>
      </trkpt>
      <trkpt lat="45.9528" lon="6.76692">
        <ele>1414</ele>
        <time>2021-05-22T14:10:34Z</time>
      </trkpt>
      <trkpt lat="45.95268" lon="6.76678">
        <ele>1415</ele>
        <time>2021-05-22T14:10:50Z</time>
      </trkpt>
      <trkpt lat="45.95255" lon="6.76647">
        <ele>1416</ele>
        <time>2021-05-22T14:11:11Z</time>
      </trkpt>
      <trkpt lat="45.95248" lon="6.76641">
        <ele>1416</ele>
        <time>2021-05-22T14:11:16Z</time>
      </trkpt>
      <trkpt lat="45.95243" lon="6.7663">
        <ele>1416</ele>
        <time>2021-05-22T14:11:25Z</time>
      </trkpt>
      <trkpt lat="45.95237" lon="6.76623">
        <ele>1416</ele>
        <time>2021-05-22T14:11:32Z</time>
      </trkpt>
      <trkpt lat="45.95232" lon="6.7661">
        <ele>1417</ele>
        <time>2021-05-22T14:11:43Z</time>
      </trkpt>
      <trkpt lat="45.95232" lon="6.766">
        <ele>1417</ele>
        <time>2021-05-22T14:11:51Z</time>
      </trkpt>
      <trkpt lat="45.95225" lon="6.76595">
        <ele>1418</ele>
        <time>2021-05-22T14:11:58Z</time>
      </trkpt>
      <trkpt lat="45.95217" lon="6.76576">
        <ele>1419</ele>
        <time>2021-05-22T14:12:11Z</time>
      </trkpt>
      <trkpt lat="45.95209" lon="6.76565">
        <ele>1420</ele>
        <time>2021-05-22T14:12:27Z</time>
      </trkpt>
      <trkpt lat="45.952" lon="6.76546">
        <ele>1420</ele>
        <time>2021-05-22T14:12:39Z</time>
      </trkpt>
      <trkpt lat="45.95198" lon="6.76538">
        <ele>1421</ele>
        <time>2021-05-22T14:12:43Z</time>
      </trkpt>
      <trkpt lat="45.95195" lon="6.76531">
        <ele>1421</ele>
        <time>2021-05-22T14:12:47Z</time>
      </trkpt>
      <trkpt lat="45.95183" lon="6.76511">
        <ele>1421</ele>
        <time>2021-05-22T14:13:03Z</time>
      </trkpt>
      <trkpt lat="45.95177" lon="6.76507">
        <ele>1421</ele>
        <time>2021-05-22T14:13:09Z</time>
      </trkpt>
      <trkpt lat="45.95172" lon="6.76499">
        <ele>1422</ele>
        <time>2021-05-22T14:13:16Z</time>
      </trkpt>
      <trkpt lat="45.9517" lon="6.76491">
        <ele>1422</ele>
        <time>2021-05-22T14:13:20Z</time>
      </trkpt>
      <trkpt lat="45.9516" lon="6.7647">
        <ele>1422</ele>
        <time>2021-05-22T14:13:37Z</time>
      </trkpt>
      <trkpt lat="45.95154" lon="6.76455">
        <ele>1423</ele>
        <time>2021-05-22T14:13:47Z</time>
      </trkpt>
      <trkpt lat="45.95147" lon="6.76422">
        <ele>1421</ele>
        <time>2021-05-22T14:14:07Z</time>
      </trkpt>
      <trkpt lat="45.95149" lon="6.76414">
        <ele>1420</ele>
        <time>2021-05-22T14:14:12Z</time>
      </trkpt>
      <trkpt lat="45.95142" lon="6.76415">
        <ele>1421</ele>
        <time>2021-05-22T14:14:46Z</time>
      </trkpt>
      <trkpt lat="45.95137" lon="6.76405">
        <ele>1420</ele>
        <time>2021-05-22T14:14:54Z</time>
      </trkpt>
      <trkpt lat="45.95133" lon="6.76399">
        <ele>1420</ele>
        <time>2021-05-22T14:14:59Z</time>
      </trkpt>
      <trkpt lat="45.95128" lon="6.7639">
        <ele>1419</ele>
        <time>2021-05-22T14:15:09Z</time>
      </trkpt>
      <trkpt lat="45.95118" lon="6.7638">
        <ele>1418</ele>
        <time>2021-05-22T14:15:18Z</time>
      </trkpt>
      <trkpt lat="45.95114" lon="6.7637">
        <ele>1417</ele>
        <time>2021-05-22T14:15:24Z</time>
      </trkpt>
      <trkpt lat="45.9511" lon="6.7636">
        <ele>1416</ele>
        <time>2021-05-22T14:15:29Z</time>
      </trkpt>
      <trkpt lat="45.95108" lon="6.76352">
        <ele>1416</ele>
        <time>2021-05-22T14:15:33Z</time>
      </trkpt>
      <trkpt lat="45.95108" lon="6.76344">
        <ele>1415</ele>
        <time>2021-05-22T14:15:36Z</time>
      </trkpt>
      <trkpt lat="45.95104" lon="6.76338">
        <ele>1414</ele>
        <time>2021-05-22T14:15:41Z</time>
      </trkpt>
      <trkpt lat="45.95098" lon="6.76335">
        <ele>1414</ele>
        <time>2021-05-22T14:15:45Z</time>
      </trkpt>
      <trkpt lat="45.95091" lon="6.76322">
        <ele>1411</ele>
        <time>2021-05-22T14:16:00Z</time>
      </trkpt>
      <trkpt lat="45.95089" lon="6.76305">
        <ele>1407</ele>
        <time>2021-05-22T14:16:12Z</time>
      </trkpt>
      <trkpt lat="45.95087" lon="6.76293">
        <ele>1405</ele>
        <time>2021-05-22T14:16:24Z</time>
      </trkpt>
      <trkpt lat="45.9508" lon="6.76265">
        <ele>1401</ele>
        <time>2021-05-22T14:16:39Z</time>
      </trkpt>
      <trkpt lat="45.95077" lon="6.76258">
        <ele>1401</ele>
        <time>2021-05-22T14:16:46Z</time>
      </trkpt>
      <trkpt lat="45.95071" lon="6.7625">
        <ele>1400</ele>
        <time>2021-05-22T14:16:54Z</time>
      </trkpt>
      <trkpt lat="45.95055" lon="6.76247">
        <ele>1397</ele>
        <time>2021-05-22T14:17:05Z</time>
      </trkpt>
      <trkpt lat="45.95051" lon="6.76251">
        <ele>1396</ele>
        <time>2021-05-22T14:17:11Z</time>
      </trkpt>
      <trkpt lat="45.95042" lon="6.76275">
        <ele>1390</ele>
        <time>2021-05-22T14:17:35Z</time>
      </trkpt>
      <trkpt lat="45.95038" lon="6.76281">
        <ele>1387</ele>
        <time>2021-05-22T14:17:41Z</time>
      </trkpt>
      <trkpt lat="45.95033" lon="6.76269">
        <ele>1382</ele>
        <time>2021-05-22T14:18:01Z</time>
      </trkpt>
      <trkpt lat="45.95032" lon="6.76261">
        <ele>1381</ele>
        <time>2021-05-22T14:18:43Z</time>
      </trkpt>
      <trkpt lat="45.95025" lon="6.76257">
        <ele>1382</ele>
        <time>2021-05-22T14:18:50Z</time>
      </trkpt>
      <trkpt lat="45.95029" lon="6.76257">
        <ele>1381</ele>
        <time>2021-05-22T14:20:52Z</time>
      </trkpt>
      <trkpt lat="45.95028" lon="6.76266">
        <ele>1381</ele>
        <time>2021-05-22T14:21:04Z</time>
      </trkpt>
      <trkpt lat="45.95017" lon="6.76232">
        <ele>1378</ele>
        <time>2021-05-22T14:25:25Z</time>
      </trkpt>
      <trkpt lat="45.95007" lon="6.76214">
        <ele>1374</ele>
        <time>2021-05-22T14:25:36Z</time>
      </trkpt>
      <trkpt lat="45.95001" lon="6.76212">
        <ele>1374</ele>
        <time>2021-05-22T14:25:40Z</time>
      </trkpt>
      <trkpt lat="45.94997" lon="6.76206">
        <ele>1374</ele>
        <time>2021-05-22T14:25:44Z</time>
      </trkpt>
      <trkpt lat="45.94991" lon="6.76202">
        <ele>1372</ele>
        <time>2021-05-22T14:25:48Z</time>
      </trkpt>
      <trkpt lat="45.94985" lon="6.762">
        <ele>1371</ele>
        <time>2021-05-22T14:25:53Z</time>
      </trkpt>
      <trkpt lat="45.94979" lon="6.76201">
        <ele>1371</ele>
        <time>2021-05-22T14:25:57Z</time>
      </trkpt>
      <trkpt lat="45.94974" lon="6.76202">
        <ele>1369</ele>
        <time>2021-05-22T14:26:01Z</time>
      </trkpt>
      <trkpt lat="45.94969" lon="6.762">
        <ele>1367</ele>
        <time>2021-05-22T14:26:09Z</time>
      </trkpt>
      <trkpt lat="45.94964" lon="6.7619">
        <ele>1364</ele>
        <time>2021-05-22T14:26:15Z</time>
      </trkpt>
      <trkpt lat="45.9496" lon="6.76184">
        <ele>1365</ele>
        <time>2021-05-22T14:26:19Z</time>
      </trkpt>
      <trkpt lat="45.94957" lon="6.76167">
        <ele>1362</ele>
        <time>2021-05-22T14:26:28Z</time>
      </trkpt>
      <trkpt lat="45.94951" lon="6.76152">
        <ele>1360</ele>
        <time>2021-05-22T14:26:37Z</time>
      </trkpt>
      <trkpt lat="45.94951" lon="6.76143">
        <ele>1360</ele>
        <time>2021-05-22T14:26:42Z</time>
      </trkpt>
      <trkpt lat="45.94954" lon="6.76129">
        <ele>1358</ele>
        <time>2021-05-22T14:26:49Z</time>
      </trkpt>
      <trkpt lat="45.94953" lon="6.76113">
        <ele>1356</ele>
        <time>2021-05-22T14:26:57Z</time>
      </trkpt>
      <trkpt lat="45.9495" lon="6.76104">
        <ele>1354</ele>
        <time>2021-05-22T14:27:02Z</time>
      </trkpt>
      <trkpt lat="45.94949" lon="6.76096">
        <ele>1352</ele>
        <time>2021-05-22T14:27:06Z</time>
      </trkpt>
      <trkpt lat="45.94946" lon="6.76086">
        <ele>1353</ele>
        <time>2021-05-22T14:27:11Z</time>
      </trkpt>
      <trkpt lat="45.94947" lon="6.76078">
        <ele>1350</ele>
        <time>2021-05-22T14:27:19Z</time>
      </trkpt>
      <trkpt lat="45.94952" lon="6.76074">
        <ele>1349</ele>
        <time>2021-05-22T14:27:25Z</time>
      </trkpt>
      <trkpt lat="45.94958" lon="6.76074">
        <ele>1348</ele>
        <time>2021-05-22T14:27:28Z</time>
      </trkpt>
      <trkpt lat="45.94966" lon="6.76065">
        <ele>1345</ele>
        <time>2021-05-22T14:27:36Z</time>
      </trkpt>
      <trkpt lat="45.9497" lon="6.76058">
        <ele>1344</ele>
        <time>2021-05-22T14:27:40Z</time>
      </trkpt>
      <trkpt lat="45.94974" lon="6.7605">
        <ele>1342</ele>
        <time>2021-05-22T14:27:45Z</time>
      </trkpt>
      <trkpt lat="45.94973" lon="6.76041">
        <ele>1341</ele>
        <time>2021-05-22T14:27:49Z</time>
      </trkpt>
      <trkpt lat="45.94966" lon="6.76037">
        <ele>1340</ele>
        <time>2021-05-22T14:27:53Z</time>
      </trkpt>
      <trkpt lat="45.94958" lon="6.76038">
        <ele>1340</ele>
        <time>2021-05-22T14:27:56Z</time>
      </trkpt>
      <trkpt lat="45.94947" lon="6.76033">
        <ele>1336</ele>
        <time>2021-05-22T14:28:07Z</time>
      </trkpt>
      <trkpt lat="45.94942" lon="6.76027">
        <ele>1333</ele>
        <time>2021-05-22T14:28:13Z</time>
      </trkpt>
      <trkpt lat="45.94938" lon="6.76021">
        <ele>1334</ele>
        <time>2021-05-22T14:28:17Z</time>
      </trkpt>
      <trkpt lat="45.94929" lon="6.76006">
        <ele>1331</ele>
        <time>2021-05-22T14:28:27Z</time>
      </trkpt>
      <trkpt lat="45.94934" lon="6.75999">
        <ele>1328</ele>
        <time>2021-05-22T14:28:33Z</time>
      </trkpt>
      <trkpt lat="45.9494" lon="6.75995">
        <ele>1325</ele>
        <time>2021-05-22T14:28:43Z</time>
      </trkpt>
      <trkpt lat="45.94948" lon="6.75992">
        <ele>1324</ele>
        <time>2021-05-22T14:28:47Z</time>
      </trkpt>
      <trkpt lat="45.94953" lon="6.7599">
        <ele>1324</ele>
        <time>2021-05-22T14:28:49Z</time>
      </trkpt>
      <trkpt lat="45.94957" lon="6.75985">
        <ele>1323</ele>
        <time>2021-05-22T14:28:52Z</time>
      </trkpt>
      <trkpt lat="45.94962" lon="6.7598">
        <ele>1323</ele>
        <time>2021-05-22T14:28:56Z</time>
      </trkpt>
      <trkpt lat="45.94966" lon="6.75976">
        <ele>1323</ele>
        <time>2021-05-22T14:29:02Z</time>
      </trkpt>
      <trkpt lat="45.94963" lon="6.75967">
        <ele>1323</ele>
        <time>2021-05-22T14:29:11Z</time>
      </trkpt>
      <trkpt lat="45.94969" lon="6.75956">
        <ele>1323</ele>
        <time>2021-05-22T14:29:22Z</time>
      </trkpt>
      <trkpt lat="45.94971" lon="6.75948">
        <ele>1323</ele>
        <time>2021-05-22T14:29:27Z</time>
      </trkpt>
      <trkpt lat="45.94978" lon="6.75949">
        <ele>1323</ele>
        <time>2021-05-22T14:29:36Z</time>
      </trkpt>
      <trkpt lat="45.94983" lon="6.75941">
        <ele>1323</ele>
        <time>2021-05-22T14:29:42Z</time>
      </trkpt>
      <trkpt lat="45.94986" lon="6.75931">
        <ele>1323</ele>
        <time>2021-05-22T14:29:48Z</time>
      </trkpt>
      <trkpt lat="45.94996" lon="6.75921">
        <ele>1322</ele>
        <time>2021-05-22T14:30:08Z</time>
      </trkpt>
      <trkpt lat="45.95" lon="6.75915">
        <ele>1321</ele>
        <time>2021-05-22T14:30:15Z</time>
      </trkpt>
      <trkpt lat="45.95001" lon="6.75902">
        <ele>1321</ele>
        <time>2021-05-22T14:30:22Z</time>
      </trkpt>
      <trkpt lat="45.95002" lon="6.7589">
        <ele>1321</ele>
        <time>2021-05-22T14:30:27Z</time>
      </trkpt>
      <trkpt lat="45.95002" lon="6.75882">
        <ele>1321</ele>
        <time>2021-05-22T14:30:30Z</time>
      </trkpt>
      <trkpt lat="45.95004" lon="6.75875">
        <ele>1320</ele>
        <time>2021-05-22T14:30:33Z</time>
      </trkpt>
      <trkpt lat="45.95006" lon="6.75866">
        <ele>1319</ele>
        <time>2021-05-22T14:30:37Z</time>
      </trkpt>
      <trkpt lat="45.95021" lon="6.75841">
        <ele>1313</ele>
        <time>2021-05-22T14:30:59Z</time>
      </trkpt>
      <trkpt lat="45.95025" lon="6.75834">
        <ele>1314</ele>
        <time>2021-05-22T14:31:03Z</time>
      </trkpt>
      <trkpt lat="45.95032" lon="6.75816">
        <ele>1311</ele>
        <time>2021-05-22T14:31:14Z</time>
      </trkpt>
      <trkpt lat="45.95033" lon="6.75808">
        <ele>1310</ele>
        <time>2021-05-22T14:31:19Z</time>
      </trkpt>
      <trkpt lat="45.95034" lon="6.75799">
        <ele>1310</ele>
        <time>2021-05-22T14:31:23Z</time>
      </trkpt>
      <trkpt lat="45.95033" lon="6.75788">
        <ele>1307</ele>
        <time>2021-05-22T14:31:31Z</time>
      </trkpt>
      <trkpt lat="45.9503" lon="6.75779">
        <ele>1307</ele>
        <time>2021-05-22T14:31:33Z</time>
      </trkpt>
      <trkpt lat="45.95024" lon="6.75762">
        <ele>1307</ele>
        <time>2021-05-22T14:31:41Z</time>
      </trkpt>
      <trkpt lat="45.95022" lon="6.75755">
        <ele>1305</ele>
        <time>2021-05-22T14:31:44Z</time>
      </trkpt>
      <trkpt lat="45.95022" lon="6.75747">
        <ele>1306</ele>
        <time>2021-05-22T14:31:48Z</time>
      </trkpt>
      <trkpt lat="45.9502" lon="6.7574">
        <ele>1306</ele>
        <time>2021-05-22T14:31:53Z</time>
      </trkpt>
      <trkpt lat="45.95018" lon="6.75731">
        <ele>1306</ele>
        <time>2021-05-22T14:31:58Z</time>
      </trkpt>
      <trkpt lat="45.95012" lon="6.75707">
        <ele>1304</ele>
        <time>2021-05-22T14:32:13Z</time>
      </trkpt>
      <trkpt lat="45.95011" lon="6.75698">
        <ele>1307</ele>
        <time>2021-05-22T14:32:17Z</time>
      </trkpt>
      <trkpt lat="45.95009" lon="6.75687">
        <ele>1306</ele>
        <time>2021-05-22T14:32:25Z</time>
      </trkpt>
      <trkpt lat="45.95008" lon="6.75678">
        <ele>1306</ele>
        <time>2021-05-22T14:32:29Z</time>
      </trkpt>
      <trkpt lat="45.95007" lon="6.75669">
        <ele>1305</ele>
        <time>2021-05-22T14:32:34Z</time>
      </trkpt>
      <trkpt lat="45.95009" lon="6.7566">
        <ele>1306</ele>
        <time>2021-05-22T14:32:44Z</time>
      </trkpt>
      <trkpt lat="45.95012" lon="6.75648">
        <ele>1306</ele>
        <time>2021-05-22T14:32:55Z</time>
      </trkpt>
      <trkpt lat="45.95015" lon="6.75629">
        <ele>1308</ele>
        <time>2021-05-22T14:33:07Z</time>
      </trkpt>
      <trkpt lat="45.95023" lon="6.75619">
        <ele>1309</ele>
        <time>2021-05-22T14:33:17Z</time>
      </trkpt>
      <trkpt lat="45.95026" lon="6.75612">
        <ele>1308</ele>
        <time>2021-05-22T14:33:22Z</time>
      </trkpt>
      <trkpt lat="45.95029" lon="6.75605">
        <ele>1307</ele>
        <time>2021-05-22T14:33:26Z</time>
      </trkpt>
      <trkpt lat="45.95034" lon="6.75599">
        <ele>1308</ele>
        <time>2021-05-22T14:33:30Z</time>
      </trkpt>
      <trkpt lat="45.95038" lon="6.75594">
        <ele>1308</ele>
        <time>2021-05-22T14:33:34Z</time>
      </trkpt>
      <trkpt lat="45.95046" lon="6.7559">
        <ele>1306</ele>
        <time>2021-05-22T14:33:43Z</time>
      </trkpt>
      <trkpt lat="45.95057" lon="6.75585">
        <ele>1305</ele>
        <time>2021-05-22T14:33:52Z</time>
      </trkpt>
      <trkpt lat="45.95067" lon="6.75584">
        <ele>1302</ele>
        <time>2021-05-22T14:34:05Z</time>
      </trkpt>
      <trkpt lat="45.95073" lon="6.7558">
        <ele>1301</ele>
        <time>2021-05-22T14:34:10Z</time>
      </trkpt>
      <trkpt lat="45.95079" lon="6.75577">
        <ele>1301</ele>
        <time>2021-05-22T14:34:14Z</time>
      </trkpt>
      <trkpt lat="45.95098" lon="6.7556">
        <ele>1301</ele>
        <time>2021-05-22T14:34:28Z</time>
      </trkpt>
      <trkpt lat="45.95101" lon="6.75552">
        <ele>1301</ele>
        <time>2021-05-22T14:34:33Z</time>
      </trkpt>
      <trkpt lat="45.95102" lon="6.75538">
        <ele>1302</ele>
        <time>2021-05-22T14:34:42Z</time>
      </trkpt>
      <trkpt lat="45.95102" lon="6.75529">
        <ele>1303</ele>
        <time>2021-05-22T14:34:52Z</time>
      </trkpt>
      <trkpt lat="45.95106" lon="6.75518">
        <ele>1304</ele>
        <time>2021-05-22T14:35:01Z</time>
      </trkpt>
      <trkpt lat="45.95107" lon="6.7551">
        <ele>1304</ele>
        <time>2021-05-22T14:35:06Z</time>
      </trkpt>
      <trkpt lat="45.95112" lon="6.75504">
        <ele>1303</ele>
        <time>2021-05-22T14:35:11Z</time>
      </trkpt>
      <trkpt lat="45.95114" lon="6.75494">
        <ele>1305</ele>
        <time>2021-05-22T14:35:18Z</time>
      </trkpt>
      <trkpt lat="45.95115" lon="6.75487">
        <ele>1305</ele>
        <time>2021-05-22T14:35:22Z</time>
      </trkpt>
      <trkpt lat="45.95113" lon="6.75479">
        <ele>1304</ele>
        <time>2021-05-22T14:35:27Z</time>
      </trkpt>
      <trkpt lat="45.95109" lon="6.75473">
        <ele>1304</ele>
        <time>2021-05-22T14:35:31Z</time>
      </trkpt>
      <trkpt lat="45.95106" lon="6.75462">
        <ele>1305</ele>
        <time>2021-05-22T14:35:40Z</time>
      </trkpt>
      <trkpt lat="45.95103" lon="6.7544">
        <ele>1308</ele>
        <time>2021-05-22T14:35:59Z</time>
      </trkpt>
      <trkpt lat="45.95102" lon="6.75419">
        <ele>1309</ele>
        <time>2021-05-22T14:36:15Z</time>
      </trkpt>
      <trkpt lat="45.95104" lon="6.7541">
        <ele>1309</ele>
        <time>2021-05-22T14:36:19Z</time>
      </trkpt>
      <trkpt lat="45.95105" lon="6.75398">
        <ele>1308</ele>
        <time>2021-05-22T14:36:27Z</time>
      </trkpt>
      <trkpt lat="45.95106" lon="6.75381">
        <ele>1306</ele>
        <time>2021-05-22T14:36:36Z</time>
      </trkpt>
      <trkpt lat="45.95104" lon="6.75373">
        <ele>1306</ele>
        <time>2021-05-22T14:36:42Z</time>
      </trkpt>
      <trkpt lat="45.95101" lon="6.75357">
        <ele>1308</ele>
        <time>2021-05-22T14:36:53Z</time>
      </trkpt>
      <trkpt lat="45.95102" lon="6.7534">
        <ele>1307</ele>
        <time>2021-05-22T14:37:02Z</time>
      </trkpt>
      <trkpt lat="45.95103" lon="6.7533">
        <ele>1308</ele>
        <time>2021-05-22T14:37:08Z</time>
      </trkpt>
      <trkpt lat="45.95103" lon="6.75315">
        <ele>1307</ele>
        <time>2021-05-22T14:37:17Z</time>
      </trkpt>
      <trkpt lat="45.95103" lon="6.75307">
        <ele>1308</ele>
        <time>2021-05-22T14:37:26Z</time>
      </trkpt>
      <trkpt lat="45.95097" lon="6.75303">
        <ele>1307</ele>
        <time>2021-05-22T14:37:46Z</time>
      </trkpt>
      <trkpt lat="45.95097" lon="6.75295">
        <ele>1305</ele>
        <time>2021-05-22T14:38:04Z</time>
      </trkpt>
      <trkpt lat="45.95104" lon="6.75291">
        <ele>1306</ele>
        <time>2021-05-22T14:39:02Z</time>
      </trkpt>
      <trkpt lat="45.95105" lon="6.75283">
        <ele>1306</ele>
        <time>2021-05-22T14:39:07Z</time>
      </trkpt>
      <trkpt lat="45.95108" lon="6.75237">
        <ele>1300</ele>
        <time>2021-05-22T14:39:32Z</time>
      </trkpt>
      <trkpt lat="45.95108" lon="6.75228">
        <ele>1301</ele>
        <time>2021-05-22T14:39:36Z</time>
      </trkpt>
      <trkpt lat="45.95109" lon="6.75212">
        <ele>1299</ele>
        <time>2021-05-22T14:39:49Z</time>
      </trkpt>
      <trkpt lat="45.95105" lon="6.75204">
        <ele>1297</ele>
        <time>2021-05-22T14:39:54Z</time>
      </trkpt>
      <trkpt lat="45.95101" lon="6.75198">
        <ele>1298</ele>
        <time>2021-05-22T14:39:59Z</time>
      </trkpt>
      <trkpt lat="45.95093" lon="6.75191">
        <ele>1295</ele>
        <time>2021-05-22T14:40:07Z</time>
      </trkpt>
      <trkpt lat="45.95087" lon="6.75185">
        <ele>1296</ele>
        <time>2021-05-22T14:40:11Z</time>
      </trkpt>
      <trkpt lat="45.95077" lon="6.75178">
        <ele>1292</ele>
        <time>2021-05-22T14:40:27Z</time>
      </trkpt>
      <trkpt lat="45.95068" lon="6.75176">
        <ele>1291</ele>
        <time>2021-05-22T14:40:34Z</time>
      </trkpt>
      <trkpt lat="45.95054" lon="6.75173">
        <ele>1290</ele>
        <time>2021-05-22T14:40:44Z</time>
      </trkpt>
      <trkpt lat="45.95029" lon="6.75157">
        <ele>1286</ele>
        <time>2021-05-22T14:41:02Z</time>
      </trkpt>
      <trkpt lat="45.95023" lon="6.75149">
        <ele>1285</ele>
        <time>2021-05-22T14:41:11Z</time>
      </trkpt>
      <trkpt lat="45.95017" lon="6.75131">
        <ele>1285</ele>
        <time>2021-05-22T14:41:27Z</time>
      </trkpt>
      <trkpt lat="45.95011" lon="6.75118">
        <ele>1287</ele>
        <time>2021-05-22T14:41:41Z</time>
      </trkpt>
      <trkpt lat="45.95006" lon="6.751">
        <ele>1288</ele>
        <time>2021-05-22T14:41:53Z</time>
      </trkpt>
      <trkpt lat="45.95003" lon="6.75093">
        <ele>1288</ele>
        <time>2021-05-22T14:41:58Z</time>
      </trkpt>
      <trkpt lat="45.94999" lon="6.75082">
        <ele>1290</ele>
        <time>2021-05-22T14:42:12Z</time>
      </trkpt>
      <trkpt lat="45.94996" lon="6.75073">
        <ele>1291</ele>
        <time>2021-05-22T14:42:24Z</time>
      </trkpt>
      <trkpt lat="45.94991" lon="6.75068">
        <ele>1291</ele>
        <time>2021-05-22T14:42:31Z</time>
      </trkpt>
      <trkpt lat="45.94987" lon="6.75058">
        <ele>1294</ele>
        <time>2021-05-22T14:42:47Z</time>
      </trkpt>
      <trkpt lat="45.94982" lon="6.75047">
        <ele>1296</ele>
        <time>2021-05-22T14:43:01Z</time>
      </trkpt>
      <trkpt lat="45.94979" lon="6.75037">
        <ele>1298</ele>
        <time>2021-05-22T14:43:10Z</time>
      </trkpt>
      <trkpt lat="45.94975" lon="6.75032">
        <ele>1298</ele>
        <time>2021-05-22T14:43:16Z</time>
      </trkpt>
      <trkpt lat="45.94971" lon="6.75023">
        <ele>1300</ele>
        <time>2021-05-22T14:43:24Z</time>
      </trkpt>
      <trkpt lat="45.94967" lon="6.75015">
        <ele>1301</ele>
        <time>2021-05-22T14:43:32Z</time>
      </trkpt>
      <trkpt lat="45.94961" lon="6.75012">
        <ele>1300</ele>
        <time>2021-05-22T14:43:36Z</time>
      </trkpt>
      <trkpt lat="45.94959" lon="6.74999">
        <ele>1300</ele>
        <time>2021-05-22T14:43:47Z</time>
      </trkpt>
      <trkpt lat="45.94958" lon="6.74991">
        <ele>1299</ele>
        <time>2021-05-22T14:43:53Z</time>
      </trkpt>
      <trkpt lat="45.94956" lon="6.74983">
        <ele>1299</ele>
        <time>2021-05-22T14:44:01Z</time>
      </trkpt>
      <trkpt lat="45.94955" lon="6.74973">
        <ele>1300</ele>
        <time>2021-05-22T14:44:11Z</time>
      </trkpt>
      <trkpt lat="45.94947" lon="6.74949">
        <ele>1302</ele>
        <time>2021-05-22T14:44:34Z</time>
      </trkpt>
      <trkpt lat="45.9494" lon="6.74943">
        <ele>1304</ele>
        <time>2021-05-22T14:44:49Z</time>
      </trkpt>
      <trkpt lat="45.94902" lon="6.74925">
        <ele>1307</ele>
        <time>2021-05-22T14:45:30Z</time>
      </trkpt>
      <trkpt lat="45.9489" lon="6.74925">
        <ele>1307</ele>
        <time>2021-05-22T14:45:41Z</time>
      </trkpt>
      <trkpt lat="45.94883" lon="6.74924">
        <ele>1308</ele>
        <time>2021-05-22T14:45:45Z</time>
      </trkpt>
      <trkpt lat="45.94864" lon="6.74887">
        <ele>1307</ele>
        <time>2021-05-22T14:46:22Z</time>
      </trkpt>
      <trkpt lat="45.94854" lon="6.74855">
        <ele>1308</ele>
        <time>2021-05-22T14:46:48Z</time>
      </trkpt>
      <trkpt lat="45.94844" lon="6.74841">
        <ele>1309</ele>
        <time>2021-05-22T14:47:02Z</time>
      </trkpt>
      <trkpt lat="45.94837" lon="6.74833">
        <ele>1310</ele>
        <time>2021-05-22T14:47:17Z</time>
      </trkpt>
      <trkpt lat="45.94837" lon="6.74815">
        <ele>1312</ele>
        <time>2021-05-22T14:47:31Z</time>
      </trkpt>
      <trkpt lat="45.94841" lon="6.7478">
        <ele>1314</ele>
        <time>2021-05-22T14:47:55Z</time>
      </trkpt>
      <trkpt lat="45.94847" lon="6.74765">
        <ele>1316</ele>
        <time>2021-05-22T14:48:11Z</time>
      </trkpt>
      <trkpt lat="45.94854" lon="6.74738">
        <ele>1318</ele>
        <time>2021-05-22T14:48:38Z</time>
      </trkpt>
      <trkpt lat="45.94865" lon="6.74715">
        <ele>1319</ele>
        <time>2021-05-22T14:48:58Z</time>
      </trkpt>
      <trkpt lat="45.94867" lon="6.74691">
        <ele>1320</ele>
        <time>2021-05-22T14:49:10Z</time>
      </trkpt>
      <trkpt lat="45.94866" lon="6.7467">
        <ele>1322</ele>
        <time>2021-05-22T14:49:31Z</time>
      </trkpt>
      <trkpt lat="45.94875" lon="6.7462">
        <ele>1324</ele>
        <time>2021-05-22T14:50:15Z</time>
      </trkpt>
      <trkpt lat="45.94879" lon="6.74563">
        <ele>1327</ele>
        <time>2021-05-22T14:51:05Z</time>
      </trkpt>
      <trkpt lat="45.94887" lon="6.74534">
        <ele>1331</ele>
        <time>2021-05-22T14:51:35Z</time>
      </trkpt>
      <trkpt lat="45.94893" lon="6.74503">
        <ele>1334</ele>
        <time>2021-05-22T14:52:12Z</time>
      </trkpt>
    </trkseg>
  </trk>
  <trk>
    <name><![CDATA[15 nov. 2020 à 12:57:23]]></name>
    <cmt><![CDATA[15 nov. 2020 à 12:57:23]]></cmt>
    <trkseg>
  </trk>
  <trk>
    <name><![CDATA[30 mai 2019 à 18:48:35]]></name>
    <cmt><![CDATA[30 mai 2019 à 18:48:35]]></cmt>
    <trkseg>
      <trkpt lat="45.58291" lon="6.13655">
        <ele>910</ele>
        <time>2019-05-30T16:48:36Z</time>
      </trkpt>
      <trkpt lat="45.58292" lon="6.13656">
        <ele>910</ele>
        <time>2019-05-30T16:48:37Z</time>
      </trkpt>
      <trkpt lat="45.58339" lon="6.13671">
        <ele>899</ele>
        <time>2019-05-30T16:50:22Z</time>
      </trkpt>
      <trkpt lat="45.58375" lon="6.13656">
        <ele>889</ele>
        <time>2019-05-30T16:51:02Z</time>
      </trkpt>
      <trkpt lat="45.58351" lon="6.13616">
        <ele>894</ele>
        <time>2019-05-30T16:53:26Z</time>
      </trkpt>
      <trkpt lat="45.58226" lon="6.13548">
        <ele>897</ele>
        <time>2019-05-30T16:53:42Z</time>
      </trkpt>
      <trkpt lat="45.5816" lon="6.13543">
        <ele>893</ele>
        <time>2019-05-30T16:53:50Z</time>
      </trkpt>
      <trkpt lat="45.5806" lon="6.13584">
        <ele>886</ele>
        <time>2019-05-30T16:54:00Z</time>
      </trkpt>
      <trkpt lat="45.57951" lon="6.13561">
        <ele>877</ele>
        <time>2019-05-30T16:54:09Z</time>
      </trkpt>
      <trkpt lat="45.57922" lon="6.13542">
        <ele>874</ele>
        <time>2019-05-30T16:54:12Z</time>
      </trkpt>
      <trkpt lat="45.57907" lon="6.13566">
        <ele>866</ele>
        <time>2019-05-30T16:54:31Z</time>
      </trkpt>
      <trkpt lat="45.57913" lon="6.13624">
        <ele>864</ele>
        <time>2019-05-30T16:54:34Z</time>
      </trkpt>
      <trkpt lat="45.57894" lon="6.13649">
        <ele>861</ele>
        <time>2019-05-30T16:54:37Z</time>
      </trkpt>
      <trkpt lat="45.57936" lon="6.1373">
        <ele>855</ele>
        <time>2019-05-30T16:54:47Z</time>
      </trkpt>
      <trkpt lat="45.57966" lon="6.13756">
        <ele>854</ele>
        <time>2019-05-30T16:54:51Z</time>
      </trkpt>
      <trkpt lat="45.58008" lon="6.13823">
        <ele>846</ele>
        <time>2019-05-30T16:54:58Z</time>
      </trkpt>
      <trkpt lat="45.58022" lon="6.13867">
        <ele>844</ele>
        <time>2019-05-30T16:55:02Z</time>
      </trkpt>
      <trkpt lat="45.58026" lon="6.13909">
        <ele>839</ele>
        <time>2019-05-30T16:55:06Z</time>
      </trkpt>
      <trkpt lat="45.58034" lon="6.13949">
        <ele>838</ele>
        <time>2019-05-30T16:55:10Z</time>
      </trkpt>
      <trkpt lat="45.58051" lon="6.14041">
        <ele>830</ele>
        <time>2019-05-30T16:55:18Z</time>
      </trkpt>
      <trkpt lat="45.58113" lon="6.14144">
        <ele>822</ele>
        <time>2019-05-30T16:55:29Z</time>
      </trkpt>
      <trkpt lat="45.58138" lon="6.14168">
        <ele>818</ele>
        <time>2019-05-30T16:55:33Z</time>
      </trkpt>
      <trkpt lat="45.5816" lon="6.14196">
        <ele>811</ele>
        <time>2019-05-30T16:55:40Z</time>
      </trkpt>
      <trkpt lat="45.58174" lon="6.14236">
        <ele>811</ele>
        <time>2019-05-30T16:55:43Z</time>
      </trkpt>
      <trkpt lat="45.58232" lon="6.14311">
        <ele>803</ele>
        <time>2019-05-30T16:55:52Z</time>
      </trkpt>
      <trkpt lat="45.58255" lon="6.14354">
        <ele>802</ele>
        <time>2019-05-30T16:55:55Z</time>
      </trkpt>
      <trkpt lat="45.58358" lon="6.14416">
        <ele>793</ele>
        <time>2019-05-30T16:56:05Z</time>
      </trkpt>
      <trkpt lat="45.58316" lon="6.14414">
        <ele>783</ele>
        <time>2019-05-30T16:56:19Z</time>
      </trkpt>
      <trkpt lat="45.58307" lon="6.14438">
        <ele>774</ele>
        <time>2019-05-30T16:56:39Z</time>
      </trkpt>
      <trkpt lat="45.58249" lon="6.14424">
        <ele>765</ele>
        <time>2019-05-30T16:56:55Z</time>
      </trkpt>
      <trkpt lat="45.58178" lon="6.14385">
        <ele>758</ele>
        <time>2019-05-30T16:57:02Z</time>
      </trkpt>
      <trkpt lat="45.58147" lon="6.1436">
        <ele>754</ele>
        <time>2019-05-30T16:57:06Z</time>
      </trkpt>
      <trkpt lat="45.58154" lon="6.14415">
        <ele>752</ele>
        <time>2019-05-30T16:57:17Z</time>
      </trkpt>
      <trkpt lat="45.58194" lon="6.14505">
        <ele>745</ele>
        <time>2019-05-30T16:57:24Z</time>
      </trkpt>
      <trkpt lat="45.58206" lon="6.14556">
        <ele>739</ele>
        <time>2019-05-30T16:57:27Z</time>
      </trkpt>
      <trkpt lat="45.58223" lon="6.14607">
        <ele>736</ele>
        <time>2019-05-30T16:57:30Z</time>
      </trkpt>
      <trkpt lat="45.58243" lon="6.1466">
        <ele>736</ele>
        <time>2019-05-30T16:57:33Z</time>
      </trkpt>
      <trkpt lat="45.58239" lon="6.1474">
        <ele>734</ele>
        <time>2019-05-30T16:57:36Z</time>
      </trkpt>
      <trkpt lat="45.58316" lon="6.14872">
        <ele>720</ele>
        <time>2019-05-30T16:57:47Z</time>
      </trkpt>
      <trkpt lat="45.58352" lon="6.14883">
        <ele>718</ele>
        <time>2019-05-30T16:57:49Z</time>
      </trkpt>
      <trkpt lat="45.58315" lon="6.14812">
        <ele>705</ele>
        <time>2019-05-30T16:58:13Z</time>
      </trkpt>
      <trkpt lat="45.58297" lon="6.14789">
        <ele>701</ele>
        <time>2019-05-30T16:58:15Z</time>
      </trkpt>
      <trkpt lat="45.58328" lon="6.14861">
        <ele>692</ele>
        <time>2019-05-30T16:58:33Z</time>
      </trkpt>
      <trkpt lat="45.5836" lon="6.14899">
        <ele>690</ele>
        <time>2019-05-30T16:58:36Z</time>
      </trkpt>
      <trkpt lat="45.58405" lon="6.14982">
        <ele>682</ele>
        <time>2019-05-30T16:58:41Z</time>
      </trkpt>
      <trkpt lat="45.5847" lon="6.15094">
        <ele>674</ele>
        <time>2019-05-30T16:58:51Z</time>
      </trkpt>
      <trkpt lat="45.58509" lon="6.15141">
        <ele>670</ele>
        <time>2019-05-30T16:58:55Z</time>
      </trkpt>
      <trkpt lat="45.58576" lon="6.15192">
        <ele>659</ele>
        <time>2019-05-30T16:59:03Z</time>
      </trkpt>
      <trkpt lat="45.5859" lon="6.15212">
        <ele>655</ele>
        <time>2019-05-30T16:59:07Z</time>
      </trkpt>
      <trkpt lat="45.58609" lon="6.15248">
        <ele>654</ele>
        <time>2019-05-30T16:59:11Z</time>
      </trkpt>
      <trkpt lat="45.5863" lon="6.15276">
        <ele>652</ele>
        <time>2019-05-30T16:59:16Z</time>
      </trkpt>
      <trkpt lat="45.58665" lon="6.15304">
        <ele>650</ele>
        <time>2019-05-30T16:59:21Z</time>
      </trkpt>
      <trkpt lat="45.58618" lon="6.15315">
        <ele>640</ele>
        <time>2019-05-30T16:59:41Z</time>
      </trkpt>
      <trkpt lat="45.58567" lon="6.15285">
        <ele>638</ele>
        <time>2019-05-30T16:59:47Z</time>
      </trkpt>
      <trkpt lat="45.58471" lon="6.15257">
        <ele>628</ele>
        <time>2019-05-30T16:59:54Z</time>
      </trkpt>
      <trkpt lat="45.58442" lon="6.15206">
        <ele>626</ele>
        <time>2019-05-30T16:59:56Z</time>
      </trkpt>
      <trkpt lat="45.58366" lon="6.15174">
        <ele>623</ele>
        <time>2019-05-30T17:00:00Z</time>
      </trkpt>
      <trkpt lat="45.5826" lon="6.15225">
        <ele>615</ele>
        <time>2019-05-30T17:00:06Z</time>
      </trkpt>
      <trkpt lat="45.58224" lon="6.15233">
        <ele>610</ele>
        <time>2019-05-30T17:00:09Z</time>
      </trkpt>
      <trkpt lat="45.58179" lon="6.15212">
        <ele>603</ele>
        <time>2019-05-30T17:00:12Z</time>
      </trkpt>
      <trkpt lat="45.58146" lon="6.15206">
        <ele>601</ele>
        <time>2019-05-30T17:00:14Z</time>
      </trkpt>
      <trkpt lat="45.58108" lon="6.15196">
        <ele>600</ele>
        <time>2019-05-30T17:00:17Z</time>
      </trkpt>
      <trkpt lat="45.58006" lon="6.15133">
        <ele>591</ele>
        <time>2019-05-30T17:00:26Z</time>
      </trkpt>
      <trkpt lat="45.57971" lon="6.15101">
        <ele>587</ele>
        <time>2019-05-30T17:00:29Z</time>
      </trkpt>
      <trkpt lat="45.57943" lon="6.15069">
        <ele>586</ele>
        <time>2019-05-30T17:00:32Z</time>
      </trkpt>
      <trkpt lat="45.57916" lon="6.15052">
        <ele>581</ele>
        <time>2019-05-30T17:00:36Z</time>
      </trkpt>
      <trkpt lat="45.57922" lon="6.15101">
        <ele>579</ele>
        <time>2019-05-30T17:00:49Z</time>
      </trkpt>
      <trkpt lat="45.57995" lon="6.15209">
        <ele>571</ele>
        <time>2019-05-30T17:00:57Z</time>
      </trkpt>
      <trkpt lat="45.5798" lon="6.15241">
        <ele>562</ele>
        <time>2019-05-30T17:01:07Z</time>
      </trkpt>
      <trkpt lat="45.57919" lon="6.15201">
        <ele>558</ele>
        <time>2019-05-30T17:01:13Z</time>
      </trkpt>
      <trkpt lat="45.57837" lon="6.15089">
        <ele>551</ele>
        <time>2019-05-30T17:01:21Z</time>
      </trkpt>
      <trkpt lat="45.57812" lon="6.15049">
        <ele>549</ele>
        <time>2019-05-30T17:01:24Z</time>
      </trkpt>
      <trkpt lat="45.57794" lon="6.15062">
        <ele>538</ele>
        <time>2019-05-30T17:01:39Z</time>
      </trkpt>
      <trkpt lat="45.57816" lon="6.15119">
        <ele>535</ele>
        <time>2019-05-30T17:01:42Z</time>
      </trkpt>
      <trkpt lat="45.57816" lon="6.15171">
        <ele>532</ele>
        <time>2019-05-30T17:01:44Z</time>
      </trkpt>
      <trkpt lat="45.57799" lon="6.15215">
        <ele>529</ele>
        <time>2019-05-30T17:01:46Z</time>
      </trkpt>
      <trkpt lat="45.57776" lon="6.15235">
        <ele>526</ele>
        <time>2019-05-30T17:01:48Z</time>
      </trkpt>
      <trkpt lat="45.57772" lon="6.1528">
        <ele>523</ele>
        <time>2019-05-30T17:01:51Z</time>
      </trkpt>
      <trkpt lat="45.57789" lon="6.15316">
        <ele>523</ele>
        <time>2019-05-30T17:01:54Z</time>
      </trkpt>
      <trkpt lat="45.57768" lon="6.1531">
        <ele>495</ele>
        <time>2019-05-30T17:02:14Z</time>
      </trkpt>
      <trkpt lat="45.57729" lon="6.15296">
        <ele>495</ele>
        <time>2019-05-30T17:02:17Z</time>
      </trkpt>
      <trkpt lat="45.57692" lon="6.15289">
        <ele>495</ele>
        <time>2019-05-30T17:02:20Z</time>
      </trkpt>
      <trkpt lat="45.57664" lon="6.15266">
        <ele>495</ele>
        <time>2019-05-30T17:02:23Z</time>
      </trkpt>
      <trkpt lat="45.57639" lon="6.15129">
        <ele>494</ele>
        <time>2019-05-30T17:02:29Z</time>
      </trkpt>
      <trkpt lat="45.57632" lon="6.1508">
        <ele>490</ele>
        <time>2019-05-30T17:02:32Z</time>
      </trkpt>
      <trkpt lat="45.57635" lon="6.15018">
        <ele>485</ele>
        <time>2019-05-30T17:02:36Z</time>
      </trkpt>
      <trkpt lat="45.57609" lon="6.14982">
        <ele>484</ele>
        <time>2019-05-30T17:02:43Z</time>
      </trkpt>
      <trkpt lat="45.57594" lon="6.15025">
        <ele>482</ele>
        <time>2019-05-30T17:02:47Z</time>
      </trkpt>
      <trkpt lat="45.57545" lon="6.15154">
        <ele>474</ele>
        <time>2019-05-30T17:02:55Z</time>
      </trkpt>
      <trkpt lat="45.57532" lon="6.15203">
        <ele>472</ele>
        <time>2019-05-30T17:02:58Z</time>
      </trkpt>
      <trkpt lat="45.57554" lon="6.15421">
        <ele>461</ele>
        <time>2019-05-30T17:03:08Z</time>
      </trkpt>
      <trkpt lat="45.57557" lon="6.15518">
        <ele>450</ele>
        <time>2019-05-30T17:03:18Z</time>
      </trkpt>
      <trkpt lat="45.5754" lon="6.15526">
        <ele>448</ele>
        <time>2019-05-30T17:03:23Z</time>
      </trkpt>
      <trkpt lat="45.57506" lon="6.15542">
        <ele>445</ele>
        <time>2019-05-30T17:03:28Z</time>
      </trkpt>
      <trkpt lat="45.57482" lon="6.15567">
        <ele>442</ele>
        <time>2019-05-30T17:03:32Z</time>
      </trkpt>
      <trkpt lat="45.57371" lon="6.15607">
        <ele>437</ele>
        <time>2019-05-30T17:03:39Z</time>
      </trkpt>
      <trkpt lat="45.5734" lon="6.15648">
        <ele>436</ele>
        <time>2019-05-30T17:03:42Z</time>
      </trkpt>
      <trkpt lat="45.5733" lon="6.15933">
        <ele>426</ele>
        <time>2019-05-30T17:03:55Z</time>
      </trkpt>
      <trkpt lat="45.57334" lon="6.15987">
        <ele>423</ele>
        <time>2019-05-30T17:03:58Z</time>
      </trkpt>
      <trkpt lat="45.57337" lon="6.16146">
        <ele>418</ele>
        <time>2019-05-30T17:04:06Z</time>
      </trkpt>
      <trkpt lat="45.57342" lon="6.1619">
        <ele>417</ele>
        <time>2019-05-30T17:04:08Z</time>
      </trkpt>
      <trkpt lat="45.57377" lon="6.16241">
        <ele>416</ele>
        <time>2019-05-30T17:04:10Z</time>
      </trkpt>
      <trkpt lat="45.57368" lon="6.16326">
        <ele>411</ele>
        <time>2019-05-30T17:04:15Z</time>
      </trkpt>
      <trkpt lat="45.57367" lon="6.16366">
        <ele>409</ele>
        <time>2019-05-30T17:04:19Z</time>
      </trkpt>
      <trkpt lat="45.57341" lon="6.16349">
        <ele>405</ele>
        <time>2019-05-30T17:04:28Z</time>
      </trkpt>
      <trkpt lat="45.5733" lon="6.16291">
        <ele>404</ele>
        <time>2019-05-30T17:04:32Z</time>
      </trkpt>
      <trkpt lat="45.56975" lon="6.15899">
        <ele>377</ele>
        <time>2019-05-30T17:05:06Z</time>
      </trkpt>
      <trkpt lat="45.56952" lon="6.15813">
        <ele>375</ele>
        <time>2019-05-30T17:05:13Z</time>
      </trkpt>
      <trkpt lat="45.5694" lon="6.1577">
        <ele>374</ele>
        <time>2019-05-30T17:05:16Z</time>
      </trkpt>
      <trkpt lat="45.56915" lon="6.15753">
        <ele>372</ele>
        <time>2019-05-30T17:05:20Z</time>
      </trkpt>
      <trkpt lat="45.56881" lon="6.15763">
        <ele>367</ele>
        <time>2019-05-30T17:05:44Z</time>
      </trkpt>
      <trkpt lat="45.56852" lon="6.15844">
        <ele>366</ele>
        <time>2019-05-30T17:05:51Z</time>
      </trkpt>
      <trkpt lat="45.56836" lon="6.15879">
        <ele>363</ele>
        <time>2019-05-30T17:05:54Z</time>
      </trkpt>
      <trkpt lat="45.56803" lon="6.15891">
        <ele>359</ele>
        <time>2019-05-30T17:05:58Z</time>
      </trkpt>
      <trkpt lat="45.56782" lon="6.15873">
        <ele>357</ele>
        <time>2019-05-30T17:06:02Z</time>
      </trkpt>
      <trkpt lat="45.56743" lon="6.15789">
        <ele>351</ele>
        <time>2019-05-30T17:06:11Z</time>
      </trkpt>
      <trkpt lat="45.56569" lon="6.1553">
        <ele>342</ele>
        <time>2019-05-30T17:06:28Z</time>
      </trkpt>
      <trkpt lat="45.56513" lon="6.15464">
        <ele>337</ele>
        <time>2019-05-30T17:06:33Z</time>
      </trkpt>
      <trkpt lat="45.56479" lon="6.15432">
        <ele>331</ele>
        <time>2019-05-30T17:06:36Z</time>
      </trkpt>
      <trkpt lat="45.56454" lon="6.15406">
        <ele>327</ele>
        <time>2019-05-30T17:06:40Z</time>
      </trkpt>
      <trkpt lat="45.56452" lon="6.15358">
        <ele>326</ele>
        <time>2019-05-30T17:06:47Z</time>
      </trkpt>
      <trkpt lat="45.56409" lon="6.14867">
        <ele>321</ele>
        <time>2019-05-30T17:07:11Z</time>
      </trkpt>
      <trkpt lat="45.56387" lon="6.14779">
        <ele>314</ele>
        <time>2019-05-30T17:07:15Z</time>
      </trkpt>
      <trkpt lat="45.56383" lon="6.14736">
        <ele>310</ele>
        <time>2019-05-30T17:07:17Z</time>
      </trkpt>
      <trkpt lat="45.56406" lon="6.146">
        <ele>304</ele>
        <time>2019-05-30T17:07:26Z</time>
      </trkpt>
      <trkpt lat="45.56415" lon="6.14551">
        <ele>303</ele>
        <time>2019-05-30T17:07:30Z</time>
      </trkpt>
      <trkpt lat="45.56413" lon="6.14504">
        <ele>303</ele>
        <time>2019-05-30T17:07:34Z</time>
      </trkpt>
      <trkpt lat="45.56406" lon="6.14462">
        <ele>301</ele>
        <time>2019-05-30T17:07:38Z</time>
      </trkpt>
      <trkpt lat="45.56328" lon="6.14305">
        <ele>299</ele>
        <time>2019-05-30T17:07:48Z</time>
      </trkpt>
      <trkpt lat="45.56227" lon="6.13951">
        <ele>289</ele>
        <time>2019-05-30T17:08:13Z</time>
      </trkpt>
      <trkpt lat="45.56224" lon="6.13876">
        <ele>287</ele>
        <time>2019-05-30T17:08:20Z</time>
      </trkpt>
      <trkpt lat="45.56154" lon="6.13651">
        <ele>281</ele>
        <time>2019-05-30T17:08:35Z</time>
      </trkpt>
      <trkpt lat="45.56086" lon="6.13555">
        <ele>275</ele>
        <time>2019-05-30T17:08:45Z</time>
      </trkpt>
      <trkpt lat="45.5598" lon="6.13386">
        <ele>280</ele>
        <time>2019-05-30T17:08:58Z</time>
      </trkpt>
      <trkpt lat="45.55736" lon="6.13103">
        <ele>282</ele>
        <time>2019-05-30T17:09:26Z</time>
      </trkpt>
      <trkpt lat="45.55693" lon="6.13038">
        <ele>279</ele>
        <time>2019-05-30T17:09:34Z</time>
      </trkpt>
      <trkpt lat="45.55546" lon="6.12718">
        <ele>273</ele>
        <time>2019-05-30T17:10:07Z</time>
      </trkpt>
      <trkpt lat="45.55527" lon="6.12684">
        <ele>273</ele>
        <time>2019-05-30T17:10:11Z</time>
      </trkpt>
      <trkpt lat="45.55431" lon="6.12631">
        <ele>269</ele>
        <time>2019-05-30T17:10:25Z</time>
      </trkpt>
      <trkpt lat="45.55379" lon="6.12567">
        <ele>270</ele>
        <time>2019-05-30T17:10:31Z</time>
      </trkpt>
      <trkpt lat="45.55303" lon="6.12388">
        <ele>273</ele>
        <time>2019-05-30T17:10:42Z</time>
      </trkpt>
      <trkpt lat="45.55254" lon="6.12316">
        <ele>273</ele>
        <time>2019-05-30T17:10:47Z</time>
      </trkpt>
      <trkpt lat="45.54875" lon="6.11895">
        <ele>297</ele>
        <time>2019-05-30T17:11:18Z</time>
      </trkpt>
      <trkpt lat="45.54475" lon="6.11478">
        <ele>325</ele>
        <time>2019-05-30T17:11:50Z</time>
      </trkpt>
      <trkpt lat="45.54014" lon="6.10988">
        <ele>331</ele>
        <time>2019-05-30T17:12:22Z</time>
      </trkpt>
      <trkpt lat="45.53835" lon="6.10807">
        <ele>334</ele>
        <time>2019-05-30T17:12:36Z</time>
      </trkpt>
      <trkpt lat="45.53808" lon="6.10779">
        <ele>332</ele>
        <time>2019-05-30T17:12:39Z</time>
      </trkpt>
      <trkpt lat="45.53706" lon="6.10594">
        <ele>330</ele>
        <time>2019-05-30T17:12:56Z</time>
      </trkpt>
      <trkpt lat="45.53639" lon="6.10514">
        <ele>333</ele>
        <time>2019-05-30T17:13:02Z</time>
      </trkpt>
      <trkpt lat="45.533" lon="6.10225">
        <ele>335</ele>
        <time>2019-05-30T17:13:30Z</time>
      </trkpt>
      <trkpt lat="45.5294" lon="6.09721">
        <ele>335</ele>
        <time>2019-05-30T17:14:00Z</time>
      </trkpt>
      <trkpt lat="45.529" lon="6.09652">
        <ele>336</ele>
        <time>2019-05-30T17:14:04Z</time>
      </trkpt>
      <trkpt lat="45.52884" lon="6.09593">
        <ele>336</ele>
        <time>2019-05-30T17:14:07Z</time>
      </trkpt>
      <trkpt lat="45.52885" lon="6.09542">
        <ele>337</ele>
        <time>2019-05-30T17:14:10Z</time>
      </trkpt>
      <trkpt lat="45.52916" lon="6.09444">
        <ele>336</ele>
        <time>2019-05-30T17:14:17Z</time>
      </trkpt>
      <trkpt lat="45.52877" lon="6.09373">
        <ele>334</ele>
        <time>2019-05-30T17:14:19Z</time>
      </trkpt>
      <trkpt lat="45.52878" lon="6.09339">
        <ele>333</ele>
        <time>2019-05-30T17:14:21Z</time>
      </trkpt>
      <trkpt lat="45.52864" lon="6.09283">
        <ele>333</ele>
        <time>2019-05-30T17:14:24Z</time>
      </trkpt>
      <trkpt lat="45.52847" lon="6.09251">
        <ele>333</ele>
        <time>2019-05-30T17:14:27Z</time>
      </trkpt>
      <trkpt lat="45.52804" lon="6.09231">
        <ele>329</ele>
        <time>2019-05-30T17:14:35Z</time>
      </trkpt>
      <trkpt lat="45.5277" lon="6.09228">
        <ele>330</ele>
        <time>2019-05-30T17:14:44Z</time>
      </trkpt>
      <trkpt lat="45.52729" lon="6.09315">
        <ele>328</ele>
        <time>2019-05-30T17:14:51Z</time>
      </trkpt>
      <trkpt lat="45.52671" lon="6.09329">
        <ele>327</ele>
        <time>2019-05-30T17:14:53Z</time>
      </trkpt>
      <trkpt lat="45.52619" lon="6.09303">
        <ele>324</ele>
        <time>2019-05-30T17:15:00Z</time>
      </trkpt>
      <trkpt lat="45.52505" lon="6.0928">
        <ele>320</ele>
        <time>2019-05-30T17:15:11Z</time>
      </trkpt>
      <trkpt lat="45.52476" lon="6.09275">
        <ele>320</ele>
        <time>2019-05-30T17:15:14Z</time>
      </trkpt>
      <trkpt lat="45.52336" lon="6.09137">
        <ele>316</ele>
        <time>2019-05-30T17:15:29Z</time>
      </trkpt>
      <trkpt lat="45.52272" lon="6.09096">
        <ele>312</ele>
        <time>2019-05-30T17:15:37Z</time>
      </trkpt>
      <trkpt lat="45.52144" lon="6.08975">
        <ele>306</ele>
        <time>2019-05-30T17:15:53Z</time>
      </trkpt>
      <trkpt lat="45.52089" lon="6.08912">
        <ele>296</ele>
        <time>2019-05-30T17:16:02Z</time>
      </trkpt>
      <trkpt lat="45.52057" lon="6.08881">
        <ele>294</ele>
        <time>2019-05-30T17:16:06Z</time>
      </trkpt>
      <trkpt lat="45.51933" lon="6.08784">
        <ele>297</ele>
        <time>2019-05-30T17:16:16Z</time>
      </trkpt>
      <trkpt lat="45.51885" lon="6.08718">
        <ele>295</ele>
        <time>2019-05-30T17:16:20Z</time>
      </trkpt>
      <trkpt lat="45.51832" lon="6.08605">
        <ele>291</ele>
        <time>2019-05-30T17:16:26Z</time>
      </trkpt>
      <trkpt lat="45.51816" lon="6.0857">
        <ele>290</ele>
        <time>2019-05-30T17:16:28Z</time>
      </trkpt>
      <trkpt lat="45.51417" lon="6.08083">
        <ele>266</ele>
        <time>2019-05-30T17:16:59Z</time>
      </trkpt>
      <trkpt lat="45.51327" lon="6.07974">
        <ele>265</ele>
        <time>2019-05-30T17:17:05Z</time>
      </trkpt>
      <trkpt lat="45.51286" lon="6.07842">
        <ele>268</ele>
        <time>2019-05-30T17:17:11Z</time>
      </trkpt>
      <trkpt lat="45.51289" lon="6.07741">
        <ele>270</ele>
        <time>2019-05-30T17:17:15Z</time>
      </trkpt>
      <trkpt lat="45.5126" lon="6.07648">
        <ele>269</ele>
        <time>2019-05-30T17:17:20Z</time>
      </trkpt>
      <trkpt lat="45.51237" lon="6.07601">
        <ele>265</ele>
        <time>2019-05-30T17:17:24Z</time>
      </trkpt>
      <trkpt lat="45.51136" lon="6.07417">
        <ele>270</ele>
        <time>2019-05-30T17:17:41Z</time>
      </trkpt>
      <trkpt lat="45.51104" lon="6.07337">
        <ele>269</ele>
        <time>2019-05-30T17:17:47Z</time>
      </trkpt>
      <trkpt lat="45.51092" lon="6.07295">
        <ele>266</ele>
        <time>2019-05-30T17:17:52Z</time>
      </trkpt>
      <trkpt lat="45.51029" lon="6.07075">
        <ele>266</ele>
        <time>2019-05-30T17:18:07Z</time>
      </trkpt>
      <trkpt lat="45.51011" lon="6.07018">
        <ele>266</ele>
        <time>2019-05-30T17:18:10Z</time>
      </trkpt>
      <trkpt lat="45.50986" lon="6.06972">
        <ele>266</ele>
        <time>2019-05-30T17:18:13Z</time>
      </trkpt>
      <trkpt lat="45.50896" lon="6.06893">
        <ele>272</ele>
        <time>2019-05-30T17:18:22Z</time>
      </trkpt>
      <trkpt lat="45.50869" lon="6.0686">
        <ele>273</ele>
        <time>2019-05-30T17:18:26Z</time>
      </trkpt>
      <trkpt lat="45.50848" lon="6.06821">
        <ele>272</ele>
        <time>2019-05-30T17:18:29Z</time>
      </trkpt>
      <trkpt lat="45.50835" lon="6.06772">
        <ele>271</ele>
        <time>2019-05-30T17:18:33Z</time>
      </trkpt>
      <trkpt lat="45.50819" lon="6.06578">
        <ele>276</ele>
        <time>2019-05-30T17:18:47Z</time>
      </trkpt>
      <trkpt lat="45.50811" lon="6.06531">
        <ele>276</ele>
        <time>2019-05-30T17:18:50Z</time>
      </trkpt>
      <trkpt lat="45.50787" lon="6.06433">
        <ele>269</ele>
        <time>2019-05-30T17:18:58Z</time>
      </trkpt>
      <trkpt lat="45.50769" lon="6.06402">
        <ele>267</ele>
        <time>2019-05-30T17:19:02Z</time>
      </trkpt>
      <trkpt lat="45.50752" lon="6.06371">
        <ele>266</ele>
        <time>2019-05-30T17:19:06Z</time>
      </trkpt>
      <trkpt lat="45.50721" lon="6.06297">
        <ele>260</ele>
        <time>2019-05-30T17:19:14Z</time>
      </trkpt>
      <trkpt lat="45.50653" lon="6.06273">
        <ele>254</ele>
        <time>2019-05-30T17:19:23Z</time>
      </trkpt>
      <trkpt lat="45.5062" lon="6.06258">
        <ele>253</ele>
        <time>2019-05-30T17:19:27Z</time>
      </trkpt>
      <trkpt lat="45.50592" lon="6.06246">
        <ele>253</ele>
        <time>2019-05-30T17:19:31Z</time>
      </trkpt>
      <trkpt lat="45.50492" lon="6.06246">
        <ele>254</ele>
        <time>2019-05-30T17:19:40Z</time>
      </trkpt>
      <trkpt lat="45.50458" lon="6.06248">
        <ele>254</ele>
        <time>2019-05-30T17:19:43Z</time>
      </trkpt>
      <trkpt lat="45.50426" lon="6.06238">
        <ele>254</ele>
        <time>2019-05-30T17:19:46Z</time>
      </trkpt>
      <trkpt lat="45.50398" lon="6.06004">
        <ele>258</ele>
        <time>2019-05-30T17:20:05Z</time>
      </trkpt>
      <trkpt lat="45.50389" lon="6.05901">
        <ele>257</ele>
        <time>2019-05-30T17:20:11Z</time>
      </trkpt>
      <trkpt lat="45.50358" lon="6.05449">
        <ele>267</ele>
        <time>2019-05-30T17:20:37Z</time>
      </trkpt>
      <trkpt lat="45.50351" lon="6.05402">
        <ele>265</ele>
        <time>2019-05-30T17:20:40Z</time>
      </trkpt>
      <trkpt lat="45.50336" lon="6.05361">
        <ele>269</ele>
        <time>2019-05-30T17:20:43Z</time>
      </trkpt>
      <trkpt lat="45.50316" lon="6.05323">
        <ele>272</ele>
        <time>2019-05-30T17:20:46Z</time>
      </trkpt>
      <trkpt lat="45.50258" lon="6.05274">
        <ele>275</ele>
        <time>2019-05-30T17:20:52Z</time>
      </trkpt>
      <trkpt lat="45.50233" lon="6.05252">
        <ele>275</ele>
        <time>2019-05-30T17:20:55Z</time>
      </trkpt>
      <trkpt lat="45.50202" lon="6.05222">
        <ele>277</ele>
        <time>2019-05-30T17:20:59Z</time>
      </trkpt>
      <trkpt lat="45.50181" lon="6.05189">
        <ele>277</ele>
        <time>2019-05-30T17:21:02Z</time>
      </trkpt>
      <trkpt lat="45.50158" lon="6.05149">
        <ele>275</ele>
        <time>2019-05-30T17:21:05Z</time>
      </trkpt>
      <trkpt lat="45.50143" lon="6.05114">
        <ele>272</ele>
        <time>2019-05-30T17:21:09Z</time>
      </trkpt>
      <trkpt lat="45.50138" lon="6.05073">
        <ele>273</ele>
        <time>2019-05-30T17:21:14Z</time>
      </trkpt>
      <trkpt lat="45.50137" lon="6.04927">
        <ele>273</ele>
        <time>2019-05-30T17:21:26Z</time>
      </trkpt>
      <trkpt lat="45.50149" lon="6.04813">
        <ele>270</ele>
        <time>2019-05-30T17:21:35Z</time>
      </trkpt>
      <trkpt lat="45.50183" lon="6.04631">
        <ele>270</ele>
        <time>2019-05-30T17:21:49Z</time>
      </trkpt>
      <trkpt lat="45.50214" lon="6.04537">
        <ele>263</ele>
        <time>2019-05-30T17:21:58Z</time>
      </trkpt>
      <trkpt lat="45.50158" lon="6.04561">
        <ele>268</ele>
        <time>2019-05-30T17:22:15Z</time>
      </trkpt>
      <trkpt lat="45.50134" lon="6.04557">
        <ele>269</ele>
        <time>2019-05-30T17:22:18Z</time>
      </trkpt>
      <trkpt lat="45.501" lon="6.04551">
        <ele>270</ele>
        <time>2019-05-30T17:22:21Z</time>
      </trkpt>
      <trkpt lat="45.5007" lon="6.04547">
        <ele>270</ele>
        <time>2019-05-30T17:22:24Z</time>
      </trkpt>
      <trkpt lat="45.50039" lon="6.04522">
        <ele>270</ele>
        <time>2019-05-30T17:22:28Z</time>
      </trkpt>
      <trkpt lat="45.5004" lon="6.04475">
        <ele>272</ele>
        <time>2019-05-30T17:22:33Z</time>
      </trkpt>
      <trkpt lat="45.50187" lon="6.04146">
        <ele>272</ele>
        <time>2019-05-30T17:22:51Z</time>
      </trkpt>
      <trkpt lat="45.50213" lon="6.04109">
        <ele>273</ele>
        <time>2019-05-30T17:22:53Z</time>
      </trkpt>
      <trkpt lat="45.50334" lon="6.03952">
        <ele>267</ele>
        <time>2019-05-30T17:23:04Z</time>
      </trkpt>
      <trkpt lat="45.50358" lon="6.03923">
        <ele>261</ele>
        <time>2019-05-30T17:23:08Z</time>
      </trkpt>
      <trkpt lat="45.50387" lon="6.03919">
        <ele>260</ele>
        <time>2019-05-30T17:23:13Z</time>
      </trkpt>
      <trkpt lat="45.50416" lon="6.03917">
        <ele>259</ele>
        <time>2019-05-30T17:23:19Z</time>
      </trkpt>
      <trkpt lat="45.50431" lon="6.03868">
        <ele>261</ele>
        <time>2019-05-30T17:23:23Z</time>
      </trkpt>
      <trkpt lat="45.50578" lon="6.03055">
        <ele>271</ele>
        <time>2019-05-30T17:23:55Z</time>
      </trkpt>
      <trkpt lat="45.50584" lon="6.03023">
        <ele>269</ele>
        <time>2019-05-30T17:23:56Z</time>
      </trkpt>
      <trkpt lat="45.50591" lon="6.02994">
        <ele>264</ele>
        <time>2019-05-30T17:23:57Z</time>
      </trkpt>
      <trkpt lat="45.50786" lon="6.0204">
        <ele>278</ele>
        <time>2019-05-30T17:24:28Z</time>
      </trkpt>
      <trkpt lat="45.50826" lon="6.01884">
        <ele>278</ele>
        <time>2019-05-30T17:24:34Z</time>
      </trkpt>
      <trkpt lat="45.51139" lon="6.0129">
        <ele>279</ele>
        <time>2019-05-30T17:25:05Z</time>
      </trkpt>
      <trkpt lat="45.51296" lon="6.00939">
        <ele>280</ele>
        <time>2019-05-30T17:25:25Z</time>
      </trkpt>
      <trkpt lat="45.51328" lon="6.00919">
        <ele>277</ele>
        <time>2019-05-30T17:25:29Z</time>
      </trkpt>
      <trkpt lat="45.51342" lon="6.00881">
        <ele>279</ele>
        <time>2019-05-30T17:25:34Z</time>
      </trkpt>
      <trkpt lat="45.51384" lon="6.00806">
        <ele>280</ele>
        <time>2019-05-30T17:25:39Z</time>
      </trkpt>
      <trkpt lat="45.51446" lon="6.00701">
        <ele>284</ele>
        <time>2019-05-30T17:25:46Z</time>
      </trkpt>
      <trkpt lat="45.51549" lon="6.00579">
        <ele>289</ele>
        <time>2019-05-30T17:25:55Z</time>
      </trkpt>
      <trkpt lat="45.51592" lon="6.00455">
        <ele>288</ele>
        <time>2019-05-30T17:26:01Z</time>
      </trkpt>
      <trkpt lat="45.51731" lon="6.00255">
        <ele>284</ele>
        <time>2019-05-30T17:26:13Z</time>
      </trkpt>
      <trkpt lat="45.51828" lon="6.00118">
        <ele>286</ele>
        <time>2019-05-30T17:26:22Z</time>
      </trkpt>
      <trkpt lat="45.51826" lon="6.00057">
        <ele>286</ele>
        <time>2019-05-30T17:26:23Z</time>
      </trkpt>
      <trkpt lat="45.51858" lon="6.00025">
        <ele>286</ele>
        <time>2019-05-30T17:26:26Z</time>
      </trkpt>
      <trkpt lat="45.52217" lon="5.99572">
        <ele>290</ele>
        <time>2019-05-30T17:26:51Z</time>
      </trkpt>
      <trkpt lat="45.52554" lon="5.99327">
        <ele>298</ele>
        <time>2019-05-30T17:27:11Z</time>
      </trkpt>
      <trkpt lat="45.52944" lon="5.99263">
        <ele>302</ele>
        <time>2019-05-30T17:27:31Z</time>
      </trkpt>
      <trkpt lat="45.53267" lon="5.99227">
        <ele>299</ele>
        <time>2019-05-30T17:28:30Z</time>
      </trkpt>
      <trkpt lat="45.53329" lon="5.99215">
        <ele>302</ele>
        <time>2019-05-30T17:28:37Z</time>
      </trkpt>
      <trkpt lat="45.53506" lon="5.99249">
        <ele>307</ele>
        <time>2019-05-30T17:28:52Z</time>
      </trkpt>
      <trkpt lat="45.53856" lon="5.99069">
        <ele>307</ele>
        <time>2019-05-30T17:29:24Z</time>
      </trkpt>
      <trkpt lat="45.53923" lon="5.99031">
        <ele>307</ele>
        <time>2019-05-30T17:29:32Z</time>
      </trkpt>
      <trkpt lat="45.53951" lon="5.99016">
        <ele>305</ele>
        <time>2019-05-30T17:29:37Z</time>
      </trkpt>
      <trkpt lat="45.53991" lon="5.99001">
        <ele>303</ele>
        <time>2019-05-30T17:29:48Z</time>
      </trkpt>
      <trkpt lat="45.53985" lon="5.98953">
        <ele>306</ele>
        <time>2019-05-30T17:29:53Z</time>
      </trkpt>
      <trkpt lat="45.54011" lon="5.98914">
        <ele>305</ele>
        <time>2019-05-30T17:29:57Z</time>
      </trkpt>
      <trkpt lat="45.54348" lon="5.98417">
        <ele>306</ele>
        <time>2019-05-30T17:30:28Z</time>
      </trkpt>
      <trkpt lat="45.54358" lon="5.98401">
        <ele>306</ele>
        <time>2019-05-30T17:30:29Z</time>
      </trkpt>
      <trkpt lat="45.54373" lon="5.98376">
        <ele>304</ele>
        <time>2019-05-30T17:30:31Z</time>
      </trkpt>
      <trkpt lat="45.5439" lon="5.98325">
        <ele>304</ele>
        <time>2019-05-30T17:30:34Z</time>
      </trkpt>
      <trkpt lat="45.54401" lon="5.98254">
        <ele>306</ele>
        <time>2019-05-30T17:30:38Z</time>
      </trkpt>
      <trkpt lat="45.54397" lon="5.98211">
        <ele>307</ele>
        <time>2019-05-30T17:30:40Z</time>
      </trkpt>
      <trkpt lat="45.5437" lon="5.98066">
        <ele>307</ele>
        <time>2019-05-30T17:30:48Z</time>
      </trkpt>
      <trkpt lat="45.54378" lon="5.97969">
        <ele>300</ele>
        <time>2019-05-30T17:30:54Z</time>
      </trkpt>
      <trkpt lat="45.5439" lon="5.97928">
        <ele>295</ele>
        <time>2019-05-30T17:31:00Z</time>
      </trkpt>
      <trkpt lat="45.54408" lon="5.97884">
        <ele>296</ele>
        <time>2019-05-30T17:31:05Z</time>
      </trkpt>
      <trkpt lat="45.54525" lon="5.97552">
        <ele>294</ele>
        <time>2019-05-30T17:31:26Z</time>
      </trkpt>
      <trkpt lat="45.54532" lon="5.97528">
        <ele>293</ele>
        <time>2019-05-30T17:31:29Z</time>
      </trkpt>
      <trkpt lat="45.54544" lon="5.97522">
        <ele>292</ele>
        <time>2019-05-30T17:31:31Z</time>
      </trkpt>
      <trkpt lat="45.54554" lon="5.97515">
        <ele>291</ele>
        <time>2019-05-30T17:31:33Z</time>
      </trkpt>
      <trkpt lat="45.54559" lon="5.97498">
        <ele>290</ele>
        <time>2019-05-30T17:31:36Z</time>
      </trkpt>
      <trkpt lat="45.54551" lon="5.9747">
        <ele>290</ele>
        <time>2019-05-30T17:31:37Z</time>
      </trkpt>
      <trkpt lat="45.5456" lon="5.97417">
        <ele>291</ele>
        <time>2019-05-30T17:31:41Z</time>
      </trkpt>
      <trkpt lat="45.54593" lon="5.97331">
        <ele>292</ele>
        <time>2019-05-30T17:31:46Z</time>
      </trkpt>
      <trkpt lat="45.54634" lon="5.97268">
        <ele>293</ele>
        <time>2019-05-30T17:31:50Z</time>
      </trkpt>
      <trkpt lat="45.54708" lon="5.97205">
        <ele>297</ele>
        <time>2019-05-30T17:31:56Z</time>
      </trkpt>
      <trkpt lat="45.5512" lon="5.96965">
        <ele>289</ele>
        <time>2019-05-30T17:32:26Z</time>
      </trkpt>
      <trkpt lat="45.55127" lon="5.96956">
        <ele>289</ele>
        <time>2019-05-30T17:32:27Z</time>
      </trkpt>
      <trkpt lat="45.55144" lon="5.96955">
        <ele>288</ele>
        <time>2019-05-30T17:32:29Z</time>
      </trkpt>
      <trkpt lat="45.55155" lon="5.96945">
        <ele>287</ele>
        <time>2019-05-30T17:32:32Z</time>
      </trkpt>
      <trkpt lat="45.55221" lon="5.9685">
        <ele>288</ele>
        <time>2019-05-30T17:32:42Z</time>
      </trkpt>
      <trkpt lat="45.55405" lon="5.96713">
        <ele>281</ele>
        <time>2019-05-30T17:33:01Z</time>
      </trkpt>
      <trkpt lat="45.55413" lon="5.96703">
        <ele>281</ele>
        <time>2019-05-30T17:33:02Z</time>
      </trkpt>
      <trkpt lat="45.5542" lon="5.96687">
        <ele>280</ele>
        <time>2019-05-30T17:33:05Z</time>
      </trkpt>
      <trkpt lat="45.55426" lon="5.96669">
        <ele>278</ele>
        <time>2019-05-30T17:33:22Z</time>
      </trkpt>
      <trkpt lat="45.55438" lon="5.96612">
        <ele>279</ele>
        <time>2019-05-30T17:33:28Z</time>
      </trkpt>
      <trkpt lat="45.55502" lon="5.96467">
        <ele>282</ele>
        <time>2019-05-30T17:33:38Z</time>
      </trkpt>
      <trkpt lat="45.55621" lon="5.96302">
        <ele>280</ele>
        <time>2019-05-30T17:33:53Z</time>
      </trkpt>
      <trkpt lat="45.5576" lon="5.96018">
        <ele>275</ele>
        <time>2019-05-30T17:34:13Z</time>
      </trkpt>
      <trkpt lat="45.55809" lon="5.95865">
        <ele>272</ele>
        <time>2019-05-30T17:34:26Z</time>
      </trkpt>
      <trkpt lat="45.55811" lon="5.95858">
        <ele>271</ele>
        <time>2019-05-30T17:34:30Z</time>
      </trkpt>
      <trkpt lat="45.55817" lon="5.95839">
        <ele>279</ele>
        <time>2019-05-30T17:35:07Z</time>
      </trkpt>
      <trkpt lat="45.55865" lon="5.95651">
        <ele>279</ele>
        <time>2019-05-30T17:35:22Z</time>
      </trkpt>
      <trkpt lat="45.55902" lon="5.95407">
        <ele>286</ele>
        <time>2019-05-30T17:35:36Z</time>
      </trkpt>
      <trkpt lat="45.5593" lon="5.95347">
        <ele>285</ele>
        <time>2019-05-30T17:35:42Z</time>
      </trkpt>
      <trkpt lat="45.55932" lon="5.95336">
        <ele>285</ele>
        <time>2019-05-30T17:35:44Z</time>
      </trkpt>
      <trkpt lat="45.55931" lon="5.95302">
        <ele>285</ele>
        <time>2019-05-30T17:35:47Z</time>
      </trkpt>
      <trkpt lat="45.55948" lon="5.95237">
        <ele>284</ele>
        <time>2019-05-30T17:35:52Z</time>
      </trkpt>
      <trkpt lat="45.55958" lon="5.95211">
        <ele>282</ele>
        <time>2019-05-30T17:35:55Z</time>
      </trkpt>
      <trkpt lat="45.55966" lon="5.95203">
        <ele>282</ele>
        <time>2019-05-30T17:35:56Z</time>
      </trkpt>
      <trkpt lat="45.5597" lon="5.95196">
        <ele>280</ele>
        <time>2019-05-30T17:35:58Z</time>
      </trkpt>
      <trkpt lat="45.55971" lon="5.95158">
        <ele>280</ele>
        <time>2019-05-30T17:36:01Z</time>
      </trkpt>
      <trkpt lat="45.55975" lon="5.95086">
        <ele>281</ele>
        <time>2019-05-30T17:36:06Z</time>
      </trkpt>
      <trkpt lat="45.55966" lon="5.9496">
        <ele>279</ele>
        <time>2019-05-30T17:36:14Z</time>
      </trkpt>
      <trkpt lat="45.55966" lon="5.94949">
        <ele>278</ele>
        <time>2019-05-30T17:36:15Z</time>
      </trkpt>
      <trkpt lat="45.55967" lon="5.94939">
        <ele>278</ele>
        <time>2019-05-30T17:36:16Z</time>
      </trkpt>
      <trkpt lat="45.55979" lon="5.94928">
        <ele>277</ele>
        <time>2019-05-30T17:36:18Z</time>
      </trkpt>
      <trkpt lat="45.56103" lon="5.94891">
        <ele>274</ele>
        <time>2019-05-30T17:36:28Z</time>
      </trkpt>
      <trkpt lat="45.56138" lon="5.94901">
        <ele>272</ele>
        <time>2019-05-30T17:36:31Z</time>
      </trkpt>
      <trkpt lat="45.56305" lon="5.94898">
        <ele>270</ele>
        <time>2019-05-30T17:36:47Z</time>
      </trkpt>
      <trkpt lat="45.56484" lon="5.94943">
        <ele>271</ele>
        <time>2019-05-30T17:37:03Z</time>
      </trkpt>
      <trkpt lat="45.56499" lon="5.94941">
        <ele>270</ele>
        <time>2019-05-30T17:37:05Z</time>
      </trkpt>
      <trkpt lat="45.56513" lon="5.94915">
        <ele>269</ele>
        <time>2019-05-30T17:37:08Z</time>
      </trkpt>
      <trkpt lat="45.56543" lon="5.94861">
        <ele>270</ele>
        <time>2019-05-30T17:37:14Z</time>
      </trkpt>
      <trkpt lat="45.56542" lon="5.94852">
        <ele>270</ele>
        <time>2019-05-30T17:37:16Z</time>
      </trkpt>
      <trkpt lat="45.56539" lon="5.94829">
        <ele>269</ele>
        <time>2019-05-30T17:37:18Z</time>
      </trkpt>
      <trkpt lat="45.56501" lon="5.94745">
        <ele>269</ele>
        <time>2019-05-30T17:37:25Z</time>
      </trkpt>
      <trkpt lat="45.56466" lon="5.94695">
        <ele>268</ele>
        <time>2019-05-30T17:37:30Z</time>
      </trkpt>
      <trkpt lat="45.56462" lon="5.94683">
        <ele>268</ele>
        <time>2019-05-30T17:37:32Z</time>
      </trkpt>
      <trkpt lat="45.56466" lon="5.94476">
        <ele>267</ele>
        <time>2019-05-30T17:37:42Z</time>
      </trkpt>
      <trkpt lat="45.56465" lon="5.9446">
        <ele>267</ele>
        <time>2019-05-30T17:37:43Z</time>
      </trkpt>
      <trkpt lat="45.56462" lon="5.94443">
        <ele>267</ele>
        <time>2019-05-30T17:37:44Z</time>
      </trkpt>
      <trkpt lat="45.5645" lon="5.94419">
        <ele>267</ele>
        <time>2019-05-30T17:37:46Z</time>
      </trkpt>
      <trkpt lat="45.56433" lon="5.94401">
        <ele>266</ele>
        <time>2019-05-30T17:37:49Z</time>
      </trkpt>
      <trkpt lat="45.56429" lon="5.94388">
        <ele>266</ele>
        <time>2019-05-30T17:37:50Z</time>
      </trkpt>
      <trkpt lat="45.56392" lon="5.9436">
        <ele>266</ele>
        <time>2019-05-30T17:37:55Z</time>
      </trkpt>
      <trkpt lat="45.56383" lon="5.94353">
        <ele>265</ele>
        <time>2019-05-30T17:37:56Z</time>
      </trkpt>
      <trkpt lat="45.56196" lon="5.94184">
        <ele>264</ele>
        <time>2019-05-30T17:38:23Z</time>
      </trkpt>
      <trkpt lat="45.56146" lon="5.94161">
        <ele>264</ele>
        <time>2019-05-30T17:38:31Z</time>
      </trkpt>
      <trkpt lat="45.56127" lon="5.94159">
        <ele>264</ele>
        <time>2019-05-30T17:38:34Z</time>
      </trkpt>
      <trkpt lat="45.5611" lon="5.94164">
        <ele>265</ele>
        <time>2019-05-30T17:38:37Z</time>
      </trkpt>
      <trkpt lat="45.56096" lon="5.94212">
        <ele>266</ele>
        <time>2019-05-30T17:38:41Z</time>
      </trkpt>
      <trkpt lat="45.5607" lon="5.94225">
        <ele>267</ele>
        <time>2019-05-30T17:38:43Z</time>
      </trkpt>
      <trkpt lat="45.56042" lon="5.94221">
        <ele>268</ele>
        <time>2019-05-30T17:38:45Z</time>
      </trkpt>
      <trkpt lat="45.56006" lon="5.94191">
        <ele>270</ele>
        <time>2019-05-30T17:38:49Z</time>
      </trkpt>
      <trkpt lat="45.55961" lon="5.94137">
        <ele>277</ele>
        <time>2019-05-30T17:38:55Z</time>
      </trkpt>
      <trkpt lat="45.55867" lon="5.94129">
        <ele>284</ele>
        <time>2019-05-30T17:39:03Z</time>
      </trkpt>
      <trkpt lat="45.55841" lon="5.94107">
        <ele>286</ele>
        <time>2019-05-30T17:39:06Z</time>
      </trkpt>
      <trkpt lat="45.55801" lon="5.93991">
        <ele>297</ele>
        <time>2019-05-30T17:39:17Z</time>
      </trkpt>
      <trkpt lat="45.55778" lon="5.93982">
        <ele>298</ele>
        <time>2019-05-30T17:39:21Z</time>
      </trkpt>
      <trkpt lat="45.55744" lon="5.94009">
        <ele>302</ele>
        <time>2019-05-30T17:39:26Z</time>
      </trkpt>
      <trkpt lat="45.55729" lon="5.94005">
        <ele>302</ele>
        <time>2019-05-30T17:39:27Z</time>
      </trkpt>
      <trkpt lat="45.55677" lon="5.94036">
        <ele>305</ele>
        <time>2019-05-30T17:39:33Z</time>
      </trkpt>
      <trkpt lat="45.55669" lon="5.94018">
        <ele>307</ele>
        <time>2019-05-30T17:39:37Z</time>
      </trkpt>
      <trkpt lat="45.55684" lon="5.93997">
        <ele>309</ele>
        <time>2019-05-30T17:39:40Z</time>
      </trkpt>
      <trkpt lat="45.55697" lon="5.93984">
        <ele>309</ele>
        <time>2019-05-30T17:39:42Z</time>
      </trkpt>
      <trkpt lat="45.55705" lon="5.93962">
        <ele>309</ele>
        <time>2019-05-30T17:39:44Z</time>
      </trkpt>
      <trkpt lat="45.55695" lon="5.93944">
        <ele>309</ele>
        <time>2019-05-30T17:39:47Z</time>
      </trkpt>
      <trkpt lat="45.55572" lon="5.93946">
        <ele>319</ele>
        <time>2019-05-30T17:40:01Z</time>
      </trkpt>
      <trkpt lat="45.55557" lon="5.93932">
        <ele>322</ele>
        <time>2019-05-30T17:40:04Z</time>
      </trkpt>
      <trkpt lat="45.55551" lon="5.93903">
        <ele>324</ele>
        <time>2019-05-30T17:40:07Z</time>
      </trkpt>
      <trkpt lat="45.55544" lon="5.93881">
        <ele>325</ele>
        <time>2019-05-30T17:40:09Z</time>
      </trkpt>
      <trkpt lat="45.55533" lon="5.93871">
        <ele>327</ele>
        <time>2019-05-30T17:40:11Z</time>
      </trkpt>
      <trkpt lat="45.55429" lon="5.93867">
        <ele>335</ele>
        <time>2019-05-30T17:40:23Z</time>
      </trkpt>
      <trkpt lat="45.552" lon="5.93909">
        <ele>345</ele>
        <time>2019-05-30T17:40:47Z</time>
      </trkpt>
      <trkpt lat="45.55191" lon="5.93909">
        <ele>346</ele>
        <time>2019-05-30T17:40:49Z</time>
      </trkpt>
      <trkpt lat="45.55214" lon="5.9378">
        <ele>362</ele>
        <time>2019-05-30T17:41:16Z</time>
      </trkpt>
      <trkpt lat="45.55217" lon="5.93773">
        <ele>361</ele>
        <time>2019-05-30T17:42:31Z</time>
      </trkpt>
      <trkpt lat="45.55223" lon="5.93778">
        <ele>361</ele>
        <time>2019-05-30T17:42:33Z</time>
      </trkpt>
      <trkpt lat="45.55205" lon="5.93772">
        <ele>371</ele>
        <time>2019-05-30T17:58:05Z</time>
      </trkpt>
      <trkpt lat="45.57207" lon="5.94916">
        <ele>289</ele>
        <time>2019-06-01T13:47:12Z</time>
      </trkpt>
      <trkpt lat="45.57205" lon="5.94916">
        <ele>289</ele>
        <time>2019-06-01T13:47:18Z</time>
      </trkpt>
    </trkseg>
  </trk>
  <trk>
    <name><![CDATA[4 avr. 2019 à 23:11:12]]></name>
    <cmt><![CDATA[4 avr. 2019 à 23:11:12]]></cmt>
    <desc><![CDATA[{DC1}Heure de fin	: 
Durée totale	: 0h00:00
Moyenne globale	: -
Pente moyenne	: 0.00 %
Aire incluse	: 7.4932 ha
Détails par segments
distance  | durée    | vit.moy. | vit.max. | déniv. + | déniv -
   km     | hh:mn:ss |   km/h   |   km/h   |    m     |    m
     0.81 | 00:00:00 |      0.0 |      0.0 |        0 |        0{DC2}]]></desc>
    <trkseg>
      <trkpt lat="45.60077" lon="6.18221">
        <ele>1608.6</ele>
      </trkpt>
      <trkpt lat="45.59978" lon="6.18129">
        <ele>1632.9</ele>
      </trkpt>
      <trkpt lat="45.59895" lon="6.18083">
        <ele>1651.1</ele>
      </trkpt>
      <trkpt lat="45.59655" lon="6.17967">
        <ele>1724</ele>
      </trkpt>
      <trkpt lat="45.59609" lon="6.18008">
        <ele>1742.8</ele>
      </trkpt>
      <trkpt lat="45.5958" lon="6.18042">
        <ele>1754.4</ele>
      </trkpt>
      <trkpt lat="45.59588" lon="6.1805">
        <ele>1752.7</ele>
      </trkpt>
      <trkpt lat="45.59582" lon="6.18057">
        <ele>1754.3</ele>
      </trkpt>
      <trkpt lat="45.59525" lon="6.18138">
        <ele>1760.7</ele>
      </trkpt>
      <trkpt lat="45.59496" lon="6.18179">
        <ele>1764.3</ele>
      </trkpt>
      <trkpt lat="45.59482" lon="6.18199">
        <ele>1767.3</ele>
      </trkpt>
      <trkpt lat="45.59475" lon="6.18209">
        <ele>1770</ele>
      </trkpt>
      <trkpt lat="45.59472" lon="6.18215">
        <ele>1769.5</ele>
      </trkpt>
      <trkpt lat="45.5947" lon="6.18217">
        <ele>1765.4</ele>
      </trkpt>
      <trkpt lat="45.59469" lon="6.18218">
        <ele>1763.2</ele>
      </trkpt>
      <trkpt lat="45.59468" lon="6.18219">
        <ele>1761.9</ele>
      </trkpt>
      <trkpt lat="45.59468" lon="6.18219">
        <ele>1761.4</ele>
      </trkpt>
      <trkpt lat="45.59468" lon="6.18219">
        <ele>1761.1</ele>
      </trkpt>
      <trkpt lat="45.59468" lon="6.1822">
        <ele>1760.9</ele>
      </trkpt>
      <trkpt lat="45.59468" lon="6.1822">
        <ele>1760.9</ele>
      </trkpt>
      <trkpt lat="45.59468" lon="6.1822">
        <ele>1760.9</ele>
      </trkpt>
      <trkpt lat="45.59468" lon="6.1822">
        <ele>1760.9</ele>
      </trkpt>
    </trkseg>
  </trk>
  <trk>
    <name><![CDATA[19 févr. 2019 à 15:43:54]]></name>
    <cmt><![CDATA[19 févr. 2019 à 15:43:54]]></cmt>
    <trkseg>
  </trk>
  <trk>
    <name><![CDATA[19 févr. 2019 à 12:26:18]]></name>
    <cmt><![CDATA[19 févr. 2019 à 12:26:18]]></cmt>
    <trkseg>
      <trkpt lat="45.79709" lon="2.93784">
        <ele>1137</ele>
        <time>2019-02-19T11:26:24Z</time>
      </trkpt>
      <trkpt lat="45.77021" lon="2.96299">
        <ele>1410.4</ele>
        <time>2019-02-19T13:16:48Z</time>
      </trkpt>
    </trkseg>
  </trk>
  <trk>
    <name><![CDATA[19 févr. 2019 à 08:31:21]]></name>
    <cmt><![CDATA[19 févr. 2019 à 08:31:21]]></cmt>
    <trkseg>
      <trkpt lat="45.78842" lon="2.99672">
        <ele>519</ele>
        <time>2019-02-19T07:31:21Z</time>
      </trkpt>
      <trkpt lat="45.78856" lon="2.99674">
        <ele>520</ele>
        <time>2019-02-19T07:32:10Z</time>
      </trkpt>
      <trkpt lat="45.78852" lon="2.99684">
        <ele>520</ele>
        <time>2019-02-19T07:32:22Z</time>
      </trkpt>
      <trkpt lat="45.78841" lon="2.99675">
        <ele>520</ele>
        <time>2019-02-19T07:32:58Z</time>
      </trkpt>
      <trkpt lat="45.7885" lon="2.99675">
        <ele>520</ele>
        <time>2019-02-19T07:33:14Z</time>
      </trkpt>
      <trkpt lat="45.78855" lon="2.99677">
        <ele>522</ele>
        <time>2019-02-19T07:35:53Z</time>
      </trkpt>
      <trkpt lat="45.78858" lon="2.99677">
        <ele>523</ele>
        <time>2019-02-19T07:39:01Z</time>
      </trkpt>
      <trkpt lat="45.78859" lon="2.99667">
        <ele>524</ele>
        <time>2019-02-19T07:40:01Z</time>
      </trkpt>
      <trkpt lat="45.7885" lon="2.99635">
        <ele>526</ele>
        <time>2019-02-19T07:43:59Z</time>
      </trkpt>
      <trkpt lat="45.78842" lon="2.99618">
        <ele>526</ele>
        <time>2019-02-19T07:44:09Z</time>
      </trkpt>
      <trkpt lat="45.78842" lon="2.9958">
        <ele>527</ele>
        <time>2019-02-19T07:44:32Z</time>
      </trkpt>
      <trkpt lat="45.78847" lon="2.99547">
        <ele>529</ele>
        <time>2019-02-19T07:44:56Z</time>
      </trkpt>
      <trkpt lat="45.78847" lon="2.99536">
        <ele>530</ele>
        <time>2019-02-19T07:45:05Z</time>
      </trkpt>
      <trkpt lat="45.7885" lon="2.99498">
        <ele>531</ele>
        <time>2019-02-19T07:45:31Z</time>
      </trkpt>
      <trkpt lat="45.78848" lon="2.99478">
        <ele>533</ele>
        <time>2019-02-19T07:45:45Z</time>
      </trkpt>
      <trkpt lat="45.78851" lon="2.99452">
        <ele>534</ele>
        <time>2019-02-19T07:45:59Z</time>
      </trkpt>
      <trkpt lat="45.78849" lon="2.99444">
        <ele>534</ele>
        <time>2019-02-19T07:46:04Z</time>
      </trkpt>
      <trkpt lat="45.78851" lon="2.99423">
        <ele>535</ele>
        <time>2019-02-19T07:46:18Z</time>
      </trkpt>
      <trkpt lat="45.78848" lon="2.99408">
        <ele>535</ele>
        <time>2019-02-19T07:46:28Z</time>
      </trkpt>
      <trkpt lat="45.7885" lon="2.99388">
        <ele>536</ele>
        <time>2019-02-19T07:46:40Z</time>
      </trkpt>
      <trkpt lat="45.78846" lon="2.99373">
        <ele>537</ele>
        <time>2019-02-19T07:46:49Z</time>
      </trkpt>
      <trkpt lat="45.78847" lon="2.99356">
        <ele>538</ele>
        <time>2019-02-19T07:47:00Z</time>
      </trkpt>
      <trkpt lat="45.78844" lon="2.99323">
        <ele>539</ele>
        <time>2019-02-19T07:47:22Z</time>
      </trkpt>
      <trkpt lat="45.78847" lon="2.99316">
        <ele>539</ele>
        <time>2019-02-19T07:47:27Z</time>
      </trkpt>
      <trkpt lat="45.78851" lon="2.99293">
        <ele>541</ele>
        <time>2019-02-19T07:47:44Z</time>
      </trkpt>
      <trkpt lat="45.78851" lon="2.99279">
        <ele>541</ele>
        <time>2019-02-19T07:47:53Z</time>
      </trkpt>
      <trkpt lat="45.78853" lon="2.99269">
        <ele>542</ele>
        <time>2019-02-19T07:47:58Z</time>
      </trkpt>
      <trkpt lat="45.78853" lon="2.99244">
        <ele>543</ele>
        <time>2019-02-19T07:48:06Z</time>
      </trkpt>
      <trkpt lat="45.78859" lon="2.99218">
        <ele>544</ele>
        <time>2019-02-19T07:48:24Z</time>
      </trkpt>
      <trkpt lat="45.7888" lon="2.99164">
        <ele>547</ele>
        <time>2019-02-19T07:48:59Z</time>
      </trkpt>
      <trkpt lat="45.78888" lon="2.99146">
        <ele>547</ele>
        <time>2019-02-19T07:49:12Z</time>
      </trkpt>
      <trkpt lat="45.78898" lon="2.99082">
        <ele>551</ele>
        <time>2019-02-19T07:49:51Z</time>
      </trkpt>
      <trkpt lat="45.78886" lon="2.9907">
        <ele>551</ele>
        <time>2019-02-19T07:50:00Z</time>
      </trkpt>
      <trkpt lat="45.78842" lon="2.99051">
        <ele>553</ele>
        <time>2019-02-19T07:50:34Z</time>
      </trkpt>
      <trkpt lat="45.78833" lon="2.99034">
        <ele>554</ele>
        <time>2019-02-19T07:50:48Z</time>
      </trkpt>
      <trkpt lat="45.78826" lon="2.99017">
        <ele>555</ele>
        <time>2019-02-19T07:51:20Z</time>
      </trkpt>
      <trkpt lat="45.78817" lon="2.99001">
        <ele>556</ele>
        <time>2019-02-19T07:51:46Z</time>
      </trkpt>
      <trkpt lat="45.78809" lon="2.98981">
        <ele>557</ele>
        <time>2019-02-19T07:52:00Z</time>
      </trkpt>
      <trkpt lat="45.78804" lon="2.98962">
        <ele>558</ele>
        <time>2019-02-19T07:52:13Z</time>
      </trkpt>
      <trkpt lat="45.78802" lon="2.98941">
        <ele>559</ele>
        <time>2019-02-19T07:52:25Z</time>
      </trkpt>
      <trkpt lat="45.78792" lon="2.989">
        <ele>559</ele>
        <time>2019-02-19T07:52:42Z</time>
      </trkpt>
      <trkpt lat="45.78789" lon="2.98837">
        <ele>559</ele>
        <time>2019-02-19T07:53:10Z</time>
      </trkpt>
      <trkpt lat="45.78786" lon="2.98817">
        <ele>560</ele>
        <time>2019-02-19T07:53:23Z</time>
      </trkpt>
      <trkpt lat="45.788" lon="2.98771">
        <ele>561</ele>
        <time>2019-02-19T07:53:49Z</time>
      </trkpt>
      <trkpt lat="45.78804" lon="2.98708">
        <ele>562</ele>
        <time>2019-02-19T07:54:22Z</time>
      </trkpt>
      <trkpt lat="45.78802" lon="2.98681">
        <ele>563</ele>
        <time>2019-02-19T07:54:39Z</time>
      </trkpt>
      <trkpt lat="45.78809" lon="2.98645">
        <ele>563</ele>
        <time>2019-02-19T07:55:02Z</time>
      </trkpt>
      <trkpt lat="45.78816" lon="2.98571">
        <ele>561</ele>
        <time>2019-02-19T07:55:41Z</time>
      </trkpt>
      <trkpt lat="45.7883" lon="2.98535">
        <ele>562</ele>
        <time>2019-02-19T07:56:08Z</time>
      </trkpt>
      <trkpt lat="45.78852" lon="2.98506">
        <ele>562</ele>
        <time>2019-02-19T07:56:29Z</time>
      </trkpt>
      <trkpt lat="45.78862" lon="2.98488">
        <ele>563</ele>
        <time>2019-02-19T07:56:40Z</time>
      </trkpt>
      <trkpt lat="45.7887" lon="2.98471">
        <ele>563</ele>
        <time>2019-02-19T07:56:50Z</time>
      </trkpt>
      <trkpt lat="45.78867" lon="2.98443">
        <ele>564</ele>
        <time>2019-02-19T07:57:06Z</time>
      </trkpt>
      <trkpt lat="45.78868" lon="2.98434">
        <ele>563</ele>
        <time>2019-02-19T07:57:20Z</time>
      </trkpt>
      <trkpt lat="45.78871" lon="2.98419">
        <ele>563</ele>
        <time>2019-02-19T07:57:48Z</time>
      </trkpt>
      <trkpt lat="45.78882" lon="2.98397">
        <ele>564</ele>
        <time>2019-02-19T07:57:58Z</time>
      </trkpt>
      <trkpt lat="45.78887" lon="2.98391">
        <ele>564</ele>
        <time>2019-02-19T07:58:02Z</time>
      </trkpt>
      <trkpt lat="45.789" lon="2.98375">
        <ele>565</ele>
        <time>2019-02-19T07:58:16Z</time>
      </trkpt>
      <trkpt lat="45.78909" lon="2.98353">
        <ele>565</ele>
        <time>2019-02-19T07:58:29Z</time>
      </trkpt>
      <trkpt lat="45.78911" lon="2.98345">
        <ele>565</ele>
        <time>2019-02-19T07:58:34Z</time>
      </trkpt>
      <trkpt lat="45.78915" lon="2.98338">
        <ele>566</ele>
        <time>2019-02-19T07:58:39Z</time>
      </trkpt>
      <trkpt lat="45.7892" lon="2.9832">
        <ele>566</ele>
        <time>2019-02-19T07:58:49Z</time>
      </trkpt>
      <trkpt lat="45.78926" lon="2.98306">
        <ele>567</ele>
        <time>2019-02-19T07:58:58Z</time>
      </trkpt>
      <trkpt lat="45.78939" lon="2.98274">
        <ele>567</ele>
        <time>2019-02-19T07:59:19Z</time>
      </trkpt>
      <trkpt lat="45.78942" lon="2.98268">
        <ele>568</ele>
        <time>2019-02-19T07:59:25Z</time>
      </trkpt>
      <trkpt lat="45.78945" lon="2.98251">
        <ele>569</ele>
        <time>2019-02-19T07:59:40Z</time>
      </trkpt>
      <trkpt lat="45.7895" lon="2.98244">
        <ele>568</ele>
        <time>2019-02-19T07:59:44Z</time>
      </trkpt>
      <trkpt lat="45.78952" lon="2.98234">
        <ele>569</ele>
        <time>2019-02-19T07:59:50Z</time>
      </trkpt>
      <trkpt lat="45.78954" lon="2.98226">
        <ele>569</ele>
        <time>2019-02-19T07:59:55Z</time>
      </trkpt>
      <trkpt lat="45.78957" lon="2.98217">
        <ele>569</ele>
        <time>2019-02-19T07:59:59Z</time>
      </trkpt>
      <trkpt lat="45.7896" lon="2.9821">
        <ele>569</ele>
        <time>2019-02-19T08:00:03Z</time>
      </trkpt>
      <trkpt lat="45.78963" lon="2.98194">
        <ele>570</ele>
        <time>2019-02-19T08:00:13Z</time>
      </trkpt>
      <trkpt lat="45.78968" lon="2.98189">
        <ele>571</ele>
        <time>2019-02-19T08:00:21Z</time>
      </trkpt>
      <trkpt lat="45.78972" lon="2.98183">
        <ele>571</ele>
        <time>2019-02-19T08:00:25Z</time>
      </trkpt>
      <trkpt lat="45.78979" lon="2.98179">
        <ele>571</ele>
        <time>2019-02-19T08:00:32Z</time>
      </trkpt>
      <trkpt lat="45.78989" lon="2.98157">
        <ele>572</ele>
        <time>2019-02-19T08:00:46Z</time>
      </trkpt>
      <trkpt lat="45.78994" lon="2.98141">
        <ele>573</ele>
        <time>2019-02-19T08:00:56Z</time>
      </trkpt>
      <trkpt lat="45.78999" lon="2.98136">
        <ele>573</ele>
        <time>2019-02-19T08:01:01Z</time>
      </trkpt>
      <trkpt lat="45.79002" lon="2.98129">
        <ele>573</ele>
        <time>2019-02-19T08:01:06Z</time>
      </trkpt>
      <trkpt lat="45.79005" lon="2.98118">
        <ele>573</ele>
        <time>2019-02-19T08:01:12Z</time>
      </trkpt>
      <trkpt lat="45.79009" lon="2.98112">
        <ele>573</ele>
        <time>2019-02-19T08:01:16Z</time>
      </trkpt>
      <trkpt lat="45.79019" lon="2.9809">
        <ele>574</ele>
        <time>2019-02-19T08:01:35Z</time>
      </trkpt>
      <trkpt lat="45.79037" lon="2.9807">
        <ele>576</ele>
        <time>2019-02-19T08:01:55Z</time>
      </trkpt>
      <trkpt lat="45.79046" lon="2.98049">
        <ele>577</ele>
        <time>2019-02-19T08:02:09Z</time>
      </trkpt>
      <trkpt lat="45.79051" lon="2.98048">
        <ele>577</ele>
        <time>2019-02-19T08:02:15Z</time>
      </trkpt>
      <trkpt lat="45.79076" lon="2.98004">
        <ele>581</ele>
        <time>2019-02-19T08:02:49Z</time>
      </trkpt>
      <trkpt lat="45.79081" lon="2.98001">
        <ele>582</ele>
        <time>2019-02-19T08:02:55Z</time>
      </trkpt>
      <trkpt lat="45.79108" lon="2.97959">
        <ele>586</ele>
        <time>2019-02-19T08:03:30Z</time>
      </trkpt>
      <trkpt lat="45.7912" lon="2.97949">
        <ele>588</ele>
        <time>2019-02-19T08:03:42Z</time>
      </trkpt>
      <trkpt lat="45.79123" lon="2.9794">
        <ele>588</ele>
        <time>2019-02-19T08:03:47Z</time>
      </trkpt>
      <trkpt lat="45.79123" lon="2.97931">
        <ele>589</ele>
        <time>2019-02-19T08:03:51Z</time>
      </trkpt>
      <trkpt lat="45.79122" lon="2.97924">
        <ele>589</ele>
        <time>2019-02-19T08:03:56Z</time>
      </trkpt>
      <trkpt lat="45.79127" lon="2.97901">
        <ele>591</ele>
        <time>2019-02-19T08:04:12Z</time>
      </trkpt>
      <trkpt lat="45.7913" lon="2.97894">
        <ele>592</ele>
        <time>2019-02-19T08:04:17Z</time>
      </trkpt>
      <trkpt lat="45.79134" lon="2.97881">
        <ele>593</ele>
        <time>2019-02-19T08:04:28Z</time>
      </trkpt>
      <trkpt lat="45.7915" lon="2.97846">
        <ele>596</ele>
        <time>2019-02-19T08:04:59Z</time>
      </trkpt>
      <trkpt lat="45.79156" lon="2.97833">
        <ele>597</ele>
        <time>2019-02-19T08:05:09Z</time>
      </trkpt>
      <trkpt lat="45.7916" lon="2.97823">
        <ele>598</ele>
        <time>2019-02-19T08:05:17Z</time>
      </trkpt>
      <trkpt lat="45.79167" lon="2.97818">
        <ele>599</ele>
        <time>2019-02-19T08:05:27Z</time>
      </trkpt>
      <trkpt lat="45.79194" lon="2.97777">
        <ele>602</ele>
        <time>2019-02-19T08:05:59Z</time>
      </trkpt>
      <trkpt lat="45.79218" lon="2.97739">
        <ele>606</ele>
        <time>2019-02-19T08:06:31Z</time>
      </trkpt>
      <trkpt lat="45.79227" lon="2.97726">
        <ele>609</ele>
        <time>2019-02-19T08:07:18Z</time>
      </trkpt>
      <trkpt lat="45.79232" lon="2.9772">
        <ele>610</ele>
        <time>2019-02-19T08:07:24Z</time>
      </trkpt>
      <trkpt lat="45.79233" lon="2.97713">
        <ele>610</ele>
        <time>2019-02-19T08:07:29Z</time>
      </trkpt>
      <trkpt lat="45.79233" lon="2.97701">
        <ele>611</ele>
        <time>2019-02-19T08:07:37Z</time>
      </trkpt>
      <trkpt lat="45.79231" lon="2.97685">
        <ele>612</ele>
        <time>2019-02-19T08:07:48Z</time>
      </trkpt>
      <trkpt lat="45.79232" lon="2.97676">
        <ele>613</ele>
        <time>2019-02-19T08:07:54Z</time>
      </trkpt>
      <trkpt lat="45.79235" lon="2.97649">
        <ele>616</ele>
        <time>2019-02-19T08:08:13Z</time>
      </trkpt>
      <trkpt lat="45.79235" lon="2.97639">
        <ele>616</ele>
        <time>2019-02-19T08:08:17Z</time>
      </trkpt>
      <trkpt lat="45.79237" lon="2.97615">
        <ele>618</ele>
        <time>2019-02-19T08:08:30Z</time>
      </trkpt>
      <trkpt lat="45.79235" lon="2.97606">
        <ele>619</ele>
        <time>2019-02-19T08:08:37Z</time>
      </trkpt>
      <trkpt lat="45.79231" lon="2.976">
        <ele>619</ele>
        <time>2019-02-19T08:08:41Z</time>
      </trkpt>
      <trkpt lat="45.79231" lon="2.97587">
        <ele>620</ele>
        <time>2019-02-19T08:08:50Z</time>
      </trkpt>
      <trkpt lat="45.79228" lon="2.97572">
        <ele>621</ele>
        <time>2019-02-19T08:09:00Z</time>
      </trkpt>
      <trkpt lat="45.79231" lon="2.97563">
        <ele>622</ele>
        <time>2019-02-19T08:09:08Z</time>
      </trkpt>
      <trkpt lat="45.79231" lon="2.97555">
        <ele>623</ele>
        <time>2019-02-19T08:09:13Z</time>
      </trkpt>
      <trkpt lat="45.79227" lon="2.97521">
        <ele>626</ele>
        <time>2019-02-19T08:09:35Z</time>
      </trkpt>
      <trkpt lat="45.79231" lon="2.97505">
        <ele>627</ele>
        <time>2019-02-19T08:09:46Z</time>
      </trkpt>
      <trkpt lat="45.79231" lon="2.97497">
        <ele>628</ele>
        <time>2019-02-19T08:09:51Z</time>
      </trkpt>
      <trkpt lat="45.79235" lon="2.97491">
        <ele>629</ele>
        <time>2019-02-19T08:09:56Z</time>
      </trkpt>
      <trkpt lat="45.79231" lon="2.97483">
        <ele>630</ele>
        <time>2019-02-19T08:10:04Z</time>
      </trkpt>
      <trkpt lat="45.7923" lon="2.97445">
        <ele>635</ele>
        <time>2019-02-19T08:10:38Z</time>
      </trkpt>
      <trkpt lat="45.7923" lon="2.97422">
        <ele>637</ele>
        <time>2019-02-19T08:10:57Z</time>
      </trkpt>
      <trkpt lat="45.79238" lon="2.97402">
        <ele>640</ele>
        <time>2019-02-19T08:11:18Z</time>
      </trkpt>
      <trkpt lat="45.79238" lon="2.97389">
        <ele>642</ele>
        <time>2019-02-19T08:11:34Z</time>
      </trkpt>
      <trkpt lat="45.79241" lon="2.97378">
        <ele>645</ele>
        <time>2019-02-19T08:11:53Z</time>
      </trkpt>
      <trkpt lat="45.79242" lon="2.97364">
        <ele>647</ele>
        <time>2019-02-19T08:12:06Z</time>
      </trkpt>
      <trkpt lat="45.79246" lon="2.97345">
        <ele>651</ele>
        <time>2019-02-19T08:12:28Z</time>
      </trkpt>
      <trkpt lat="45.79246" lon="2.97332">
        <ele>652</ele>
        <time>2019-02-19T08:12:40Z</time>
      </trkpt>
      <trkpt lat="45.79248" lon="2.9732">
        <ele>654</ele>
        <time>2019-02-19T08:12:52Z</time>
      </trkpt>
      <trkpt lat="45.79254" lon="2.97302">
        <ele>658</ele>
        <time>2019-02-19T08:13:17Z</time>
      </trkpt>
      <trkpt lat="45.79256" lon="2.97278">
        <ele>661</ele>
        <time>2019-02-19T08:13:41Z</time>
      </trkpt>
      <trkpt lat="45.79257" lon="2.9727">
        <ele>663</ele>
        <time>2019-02-19T08:13:51Z</time>
      </trkpt>
      <trkpt lat="45.79256" lon="2.97247">
        <ele>666</ele>
        <time>2019-02-19T08:14:14Z</time>
      </trkpt>
      <trkpt lat="45.79252" lon="2.97238">
        <ele>667</ele>
        <time>2019-02-19T08:14:22Z</time>
      </trkpt>
      <trkpt lat="45.79256" lon="2.97224">
        <ele>669</ele>
        <time>2019-02-19T08:14:40Z</time>
      </trkpt>
      <trkpt lat="45.7926" lon="2.97214">
        <ele>671</ele>
        <time>2019-02-19T08:14:52Z</time>
      </trkpt>
      <trkpt lat="45.79262" lon="2.97202">
        <ele>672</ele>
        <time>2019-02-19T08:15:04Z</time>
      </trkpt>
      <trkpt lat="45.79265" lon="2.97191">
        <ele>675</ele>
        <time>2019-02-19T08:15:22Z</time>
      </trkpt>
      <trkpt lat="45.79266" lon="2.97179">
        <ele>676</ele>
        <time>2019-02-19T08:15:34Z</time>
      </trkpt>
      <trkpt lat="45.79266" lon="2.9717">
        <ele>677</ele>
        <time>2019-02-19T08:15:39Z</time>
      </trkpt>
      <trkpt lat="45.79261" lon="2.9716">
        <ele>679</ele>
        <time>2019-02-19T08:15:53Z</time>
      </trkpt>
      <trkpt lat="45.79261" lon="2.9715">
        <ele>680</ele>
        <time>2019-02-19T08:16:00Z</time>
      </trkpt>
      <trkpt lat="45.79262" lon="2.97142">
        <ele>682</ele>
        <time>2019-02-19T08:16:09Z</time>
      </trkpt>
      <trkpt lat="45.79265" lon="2.97134">
        <ele>682</ele>
        <time>2019-02-19T08:16:14Z</time>
      </trkpt>
      <trkpt lat="45.7927" lon="2.97126">
        <ele>684</ele>
        <time>2019-02-19T08:16:28Z</time>
      </trkpt>
      <trkpt lat="45.79274" lon="2.97119">
        <ele>686</ele>
        <time>2019-02-19T08:16:40Z</time>
      </trkpt>
      <trkpt lat="45.79278" lon="2.9711">
        <ele>688</ele>
        <time>2019-02-19T08:16:52Z</time>
      </trkpt>
      <trkpt lat="45.79283" lon="2.97093">
        <ele>691</ele>
        <time>2019-02-19T08:17:11Z</time>
      </trkpt>
      <trkpt lat="45.79286" lon="2.97086">
        <ele>692</ele>
        <time>2019-02-19T08:17:20Z</time>
      </trkpt>
      <trkpt lat="45.79286" lon="2.97074">
        <ele>694</ele>
        <time>2019-02-19T08:17:32Z</time>
      </trkpt>
      <trkpt lat="45.79291" lon="2.97053">
        <ele>698</ele>
        <time>2019-02-19T08:17:57Z</time>
      </trkpt>
      <trkpt lat="45.79293" lon="2.97041">
        <ele>700</ele>
        <time>2019-02-19T08:18:09Z</time>
      </trkpt>
      <trkpt lat="45.79295" lon="2.97033">
        <ele>701</ele>
        <time>2019-02-19T08:18:16Z</time>
      </trkpt>
      <trkpt lat="45.79298" lon="2.97026">
        <ele>703</ele>
        <time>2019-02-19T08:18:30Z</time>
      </trkpt>
      <trkpt lat="45.79293" lon="2.97013">
        <ele>704</ele>
        <time>2019-02-19T08:18:43Z</time>
      </trkpt>
      <trkpt lat="45.79295" lon="2.97">
        <ele>706</ele>
        <time>2019-02-19T08:18:57Z</time>
      </trkpt>
      <trkpt lat="45.79303" lon="2.96985">
        <ele>709</ele>
        <time>2019-02-19T08:19:12Z</time>
      </trkpt>
      <trkpt lat="45.7931" lon="2.96977">
        <ele>711</ele>
        <time>2019-02-19T08:19:26Z</time>
      </trkpt>
      <trkpt lat="45.79311" lon="2.96966">
        <ele>712</ele>
        <time>2019-02-19T08:19:37Z</time>
      </trkpt>
      <trkpt lat="45.79316" lon="2.96945">
        <ele>716</ele>
        <time>2019-02-19T08:20:03Z</time>
      </trkpt>
      <trkpt lat="45.79317" lon="2.96936">
        <ele>717</ele>
        <time>2019-02-19T08:20:11Z</time>
      </trkpt>
      <trkpt lat="45.79325" lon="2.96916">
        <ele>720</ele>
        <time>2019-02-19T08:20:35Z</time>
      </trkpt>
      <trkpt lat="45.79323" lon="2.96909">
        <ele>720</ele>
        <time>2019-02-19T08:20:40Z</time>
      </trkpt>
      <trkpt lat="45.79324" lon="2.96901">
        <ele>721</ele>
        <time>2019-02-19T08:20:46Z</time>
      </trkpt>
      <trkpt lat="45.7933" lon="2.96897">
        <ele>723</ele>
        <time>2019-02-19T08:20:58Z</time>
      </trkpt>
      <trkpt lat="45.79335" lon="2.96902">
        <ele>724</ele>
        <time>2019-02-19T08:21:26Z</time>
      </trkpt>
      <trkpt lat="45.79339" lon="2.96908">
        <ele>726</ele>
        <time>2019-02-19T08:21:57Z</time>
      </trkpt>
      <trkpt lat="45.79348" lon="2.96938">
        <ele>733</ele>
        <time>2019-02-19T08:22:38Z</time>
      </trkpt>
      <trkpt lat="45.79353" lon="2.96947">
        <ele>734</ele>
        <time>2019-02-19T08:22:49Z</time>
      </trkpt>
      <trkpt lat="45.79358" lon="2.96969">
        <ele>735</ele>
        <time>2019-02-19T08:23:06Z</time>
      </trkpt>
      <trkpt lat="45.7936" lon="2.96977">
        <ele>736</ele>
        <time>2019-02-19T08:23:13Z</time>
      </trkpt>
      <trkpt lat="45.79371" lon="2.96994">
        <ele>742</ele>
        <time>2019-02-19T08:23:39Z</time>
      </trkpt>
      <trkpt lat="45.79386" lon="2.97012">
        <ele>748</ele>
        <time>2019-02-19T08:24:10Z</time>
      </trkpt>
      <trkpt lat="45.79396" lon="2.97022">
        <ele>751</ele>
        <time>2019-02-19T08:24:28Z</time>
      </trkpt>
      <trkpt lat="45.79402" lon="2.9706">
        <ele>757</ele>
        <time>2019-02-19T08:25:07Z</time>
      </trkpt>
      <trkpt lat="45.79414" lon="2.97102">
        <ele>765</ele>
        <time>2019-02-19T08:25:52Z</time>
      </trkpt>
      <trkpt lat="45.7943" lon="2.97152">
        <ele>772</ele>
        <time>2019-02-19T08:26:40Z</time>
      </trkpt>
      <trkpt lat="45.79444" lon="2.97186">
        <ele>777</ele>
        <time>2019-02-19T08:27:12Z</time>
      </trkpt>
      <trkpt lat="45.79449" lon="2.97191">
        <ele>778</ele>
        <time>2019-02-19T08:27:17Z</time>
      </trkpt>
      <trkpt lat="45.79455" lon="2.97205">
        <ele>780</ele>
        <time>2019-02-19T08:27:30Z</time>
      </trkpt>
      <trkpt lat="45.79461" lon="2.97215">
        <ele>781</ele>
        <time>2019-02-19T08:27:41Z</time>
      </trkpt>
      <trkpt lat="45.79468" lon="2.97223">
        <ele>783</ele>
        <time>2019-02-19T08:27:53Z</time>
      </trkpt>
      <trkpt lat="45.79476" lon="2.97231">
        <ele>786</ele>
        <time>2019-02-19T08:28:08Z</time>
      </trkpt>
      <trkpt lat="45.79481" lon="2.97232">
        <ele>789</ele>
        <time>2019-02-19T08:29:22Z</time>
      </trkpt>
      <trkpt lat="45.79485" lon="2.9724">
        <ele>791</ele>
        <time>2019-02-19T08:29:36Z</time>
      </trkpt>
      <trkpt lat="45.79496" lon="2.97246">
        <ele>792</ele>
        <time>2019-02-19T08:29:50Z</time>
      </trkpt>
      <trkpt lat="45.79504" lon="2.97253">
        <ele>796</ele>
        <time>2019-02-19T08:30:05Z</time>
      </trkpt>
      <trkpt lat="45.7951" lon="2.97262">
        <ele>797</ele>
        <time>2019-02-19T08:30:17Z</time>
      </trkpt>
      <trkpt lat="45.79528" lon="2.97279">
        <ele>803</ele>
        <time>2019-02-19T08:30:49Z</time>
      </trkpt>
      <trkpt lat="45.79533" lon="2.97283">
        <ele>805</ele>
        <time>2019-02-19T08:30:58Z</time>
      </trkpt>
      <trkpt lat="45.79539" lon="2.97291">
        <ele>806</ele>
        <time>2019-02-19T08:31:11Z</time>
      </trkpt>
      <trkpt lat="45.79544" lon="2.97298">
        <ele>808</ele>
        <time>2019-02-19T08:31:21Z</time>
      </trkpt>
      <trkpt lat="45.79552" lon="2.97304">
        <ele>810</ele>
        <time>2019-02-19T08:31:33Z</time>
      </trkpt>
      <trkpt lat="45.79563" lon="2.97321">
        <ele>814</ele>
        <time>2019-02-19T08:31:54Z</time>
      </trkpt>
      <trkpt lat="45.79566" lon="2.97328">
        <ele>814</ele>
        <time>2019-02-19T08:31:58Z</time>
      </trkpt>
      <trkpt lat="45.79571" lon="2.97333">
        <ele>816</ele>
        <time>2019-02-19T08:32:07Z</time>
      </trkpt>
      <trkpt lat="45.79576" lon="2.9734">
        <ele>818</ele>
        <time>2019-02-19T08:32:19Z</time>
      </trkpt>
      <trkpt lat="45.79581" lon="2.97343">
        <ele>819</ele>
        <time>2019-02-19T08:32:24Z</time>
      </trkpt>
      <trkpt lat="45.79587" lon="2.97352">
        <ele>821</ele>
        <time>2019-02-19T08:32:36Z</time>
      </trkpt>
      <trkpt lat="45.79592" lon="2.97356">
        <ele>821</ele>
        <time>2019-02-19T08:32:42Z</time>
      </trkpt>
      <trkpt lat="45.79605" lon="2.97363">
        <ele>825</ele>
        <time>2019-02-19T08:33:02Z</time>
      </trkpt>
      <trkpt lat="45.79611" lon="2.97367">
        <ele>827</ele>
        <time>2019-02-19T08:33:10Z</time>
      </trkpt>
      <trkpt lat="45.79618" lon="2.97372">
        <ele>827</ele>
        <time>2019-02-19T08:33:22Z</time>
      </trkpt>
      <trkpt lat="45.79625" lon="2.97376">
        <ele>830</ele>
        <time>2019-02-19T08:33:34Z</time>
      </trkpt>
      <trkpt lat="45.79633" lon="2.97381">
        <ele>833</ele>
        <time>2019-02-19T08:33:46Z</time>
      </trkpt>
      <trkpt lat="45.7964" lon="2.97384">
        <ele>835</ele>
        <time>2019-02-19T08:33:58Z</time>
      </trkpt>
      <trkpt lat="45.79654" lon="2.97372">
        <ele>837</ele>
        <time>2019-02-19T08:34:17Z</time>
      </trkpt>
      <trkpt lat="45.79645" lon="2.97369">
        <ele>835</ele>
        <time>2019-02-19T08:34:58Z</time>
      </trkpt>
      <trkpt lat="45.79639" lon="2.97366">
        <ele>835</ele>
        <time>2019-02-19T08:35:03Z</time>
      </trkpt>
      <trkpt lat="45.79634" lon="2.9736">
        <ele>835</ele>
        <time>2019-02-19T08:35:07Z</time>
      </trkpt>
      <trkpt lat="45.7963" lon="2.97353">
        <ele>835</ele>
        <time>2019-02-19T08:35:12Z</time>
      </trkpt>
      <trkpt lat="45.7962" lon="2.97343">
        <ele>835</ele>
        <time>2019-02-19T08:35:47Z</time>
      </trkpt>
      <trkpt lat="45.79615" lon="2.97336">
        <ele>833</ele>
        <time>2019-02-19T08:35:51Z</time>
      </trkpt>
      <trkpt lat="45.79612" lon="2.97342">
        <ele>834</ele>
        <time>2019-02-19T08:36:03Z</time>
      </trkpt>
      <trkpt lat="45.79619" lon="2.97352">
        <ele>835</ele>
        <time>2019-02-19T08:36:11Z</time>
      </trkpt>
      <trkpt lat="45.79625" lon="2.97356">
        <ele>835</ele>
        <time>2019-02-19T08:36:16Z</time>
      </trkpt>
      <trkpt lat="45.79629" lon="2.97361">
        <ele>835</ele>
        <time>2019-02-19T08:36:20Z</time>
      </trkpt>
      <trkpt lat="45.79634" lon="2.97364">
        <ele>836</ele>
        <time>2019-02-19T08:36:25Z</time>
      </trkpt>
      <trkpt lat="45.7964" lon="2.97365">
        <ele>836</ele>
        <time>2019-02-19T08:36:29Z</time>
      </trkpt>
      <trkpt lat="45.79644" lon="2.9737">
        <ele>836</ele>
        <time>2019-02-19T08:36:33Z</time>
      </trkpt>
      <trkpt lat="45.7965" lon="2.97374">
        <ele>837</ele>
        <time>2019-02-19T08:36:39Z</time>
      </trkpt>
      <trkpt lat="45.79655" lon="2.97382">
        <ele>838</ele>
        <time>2019-02-19T08:36:47Z</time>
      </trkpt>
      <trkpt lat="45.79665" lon="2.97385">
        <ele>839</ele>
        <time>2019-02-19T08:36:57Z</time>
      </trkpt>
      <trkpt lat="45.79671" lon="2.97386">
        <ele>839</ele>
        <time>2019-02-19T08:37:02Z</time>
      </trkpt>
      <trkpt lat="45.79678" lon="2.97384">
        <ele>839</ele>
        <time>2019-02-19T08:37:07Z</time>
      </trkpt>
      <trkpt lat="45.79683" lon="2.97384">
        <ele>838</ele>
        <time>2019-02-19T08:37:11Z</time>
      </trkpt>
      <trkpt lat="45.797" lon="2.9738">
        <ele>836</ele>
        <time>2019-02-19T08:37:23Z</time>
      </trkpt>
      <trkpt lat="45.79715" lon="2.97371">
        <ele>834</ele>
        <time>2019-02-19T08:37:33Z</time>
      </trkpt>
      <trkpt lat="45.79727" lon="2.97369">
        <ele>833</ele>
        <time>2019-02-19T08:37:42Z</time>
      </trkpt>
      <trkpt lat="45.79732" lon="2.97367">
        <ele>833</ele>
        <time>2019-02-19T08:37:46Z</time>
      </trkpt>
      <trkpt lat="45.79739" lon="2.97364">
        <ele>832</ele>
        <time>2019-02-19T08:37:51Z</time>
      </trkpt>
      <trkpt lat="45.79754" lon="2.97353">
        <ele>829</ele>
        <time>2019-02-19T08:38:04Z</time>
      </trkpt>
      <trkpt lat="45.79759" lon="2.97346">
        <ele>829</ele>
        <time>2019-02-19T08:38:08Z</time>
      </trkpt>
      <trkpt lat="45.79761" lon="2.97339">
        <ele>829</ele>
        <time>2019-02-19T08:38:13Z</time>
      </trkpt>
      <trkpt lat="45.79771" lon="2.97331">
        <ele>828</ele>
        <time>2019-02-19T08:38:23Z</time>
      </trkpt>
      <trkpt lat="45.79775" lon="2.97323">
        <ele>828</ele>
        <time>2019-02-19T08:38:28Z</time>
      </trkpt>
      <trkpt lat="45.79783" lon="2.97312">
        <ele>826</ele>
        <time>2019-02-19T08:38:35Z</time>
      </trkpt>
      <trkpt lat="45.79787" lon="2.97306">
        <ele>826</ele>
        <time>2019-02-19T08:38:39Z</time>
      </trkpt>
      <trkpt lat="45.79796" lon="2.97284">
        <ele>824</ele>
        <time>2019-02-19T08:38:53Z</time>
      </trkpt>
      <trkpt lat="45.79799" lon="2.97276">
        <ele>823</ele>
        <time>2019-02-19T08:38:58Z</time>
      </trkpt>
      <trkpt lat="45.79806" lon="2.9725">
        <ele>822</ele>
        <time>2019-02-19T08:39:12Z</time>
      </trkpt>
      <trkpt lat="45.79808" lon="2.97241">
        <ele>821</ele>
        <time>2019-02-19T08:39:17Z</time>
      </trkpt>
      <trkpt lat="45.79809" lon="2.97233">
        <ele>821</ele>
        <time>2019-02-19T08:39:21Z</time>
      </trkpt>
      <trkpt lat="45.79811" lon="2.97225">
        <ele>819</ele>
        <time>2019-02-19T08:39:26Z</time>
      </trkpt>
      <trkpt lat="45.79813" lon="2.97217">
        <ele>819</ele>
        <time>2019-02-19T08:39:31Z</time>
      </trkpt>
      <trkpt lat="45.79811" lon="2.97157">
        <ele>815</ele>
        <time>2019-02-19T08:40:17Z</time>
      </trkpt>
      <trkpt lat="45.79811" lon="2.97147">
        <ele>815</ele>
        <time>2019-02-19T08:40:23Z</time>
      </trkpt>
      <trkpt lat="45.79808" lon="2.97131">
        <ele>813</ele>
        <time>2019-02-19T08:40:32Z</time>
      </trkpt>
      <trkpt lat="45.79808" lon="2.97122">
        <ele>813</ele>
        <time>2019-02-19T08:40:38Z</time>
      </trkpt>
      <trkpt lat="45.79803" lon="2.97108">
        <ele>813</ele>
        <time>2019-02-19T08:40:58Z</time>
      </trkpt>
      <trkpt lat="45.79799" lon="2.97103">
        <ele>813</ele>
        <time>2019-02-19T08:41:02Z</time>
      </trkpt>
      <trkpt lat="45.79795" lon="2.97075">
        <ele>814</ele>
        <time>2019-02-19T08:41:18Z</time>
      </trkpt>
      <trkpt lat="45.79791" lon="2.97069">
        <ele>814</ele>
        <time>2019-02-19T08:41:23Z</time>
      </trkpt>
      <trkpt lat="45.79787" lon="2.97064">
        <ele>814</ele>
        <time>2019-02-19T08:41:27Z</time>
      </trkpt>
      <trkpt lat="45.79783" lon="2.97057">
        <ele>814</ele>
        <time>2019-02-19T08:41:32Z</time>
      </trkpt>
      <trkpt lat="45.79783" lon="2.97049">
        <ele>814</ele>
        <time>2019-02-19T08:41:43Z</time>
      </trkpt>
      <trkpt lat="45.79779" lon="2.97031">
        <ele>816</ele>
        <time>2019-02-19T08:42:01Z</time>
      </trkpt>
      <trkpt lat="45.79777" lon="2.97014">
        <ele>816</ele>
        <time>2019-02-19T08:42:12Z</time>
      </trkpt>
      <trkpt lat="45.79776" lon="2.97019">
        <ele>816</ele>
        <time>2019-02-19T08:42:47Z</time>
      </trkpt>
      <trkpt lat="45.79778" lon="2.97026">
        <ele>816</ele>
        <time>2019-02-19T08:42:51Z</time>
      </trkpt>
      <trkpt lat="45.7978" lon="2.97033">
        <ele>816</ele>
        <time>2019-02-19T08:42:56Z</time>
      </trkpt>
      <trkpt lat="45.79779" lon="2.97041">
        <ele>816</ele>
        <time>2019-02-19T08:43:01Z</time>
      </trkpt>
      <trkpt lat="45.79781" lon="2.97053">
        <ele>815</ele>
        <time>2019-02-19T08:43:08Z</time>
      </trkpt>
      <trkpt lat="45.79785" lon="2.97059">
        <ele>815</ele>
        <time>2019-02-19T08:43:12Z</time>
      </trkpt>
      <trkpt lat="45.79789" lon="2.97066">
        <ele>815</ele>
        <time>2019-02-19T08:43:16Z</time>
      </trkpt>
      <trkpt lat="45.79799" lon="2.97097">
        <ele>814</ele>
        <time>2019-02-19T08:43:36Z</time>
      </trkpt>
      <trkpt lat="45.79802" lon="2.97106">
        <ele>815</ele>
        <time>2019-02-19T08:43:41Z</time>
      </trkpt>
      <trkpt lat="45.7981" lon="2.97123">
        <ele>814</ele>
        <time>2019-02-19T08:43:54Z</time>
      </trkpt>
      <trkpt lat="45.79813" lon="2.97153">
        <ele>815</ele>
        <time>2019-02-19T08:44:22Z</time>
      </trkpt>
      <trkpt lat="45.79817" lon="2.97162">
        <ele>816</ele>
        <time>2019-02-19T08:44:30Z</time>
      </trkpt>
      <trkpt lat="45.79818" lon="2.9717">
        <ele>816</ele>
        <time>2019-02-19T08:44:36Z</time>
      </trkpt>
      <trkpt lat="45.79819" lon="2.97178">
        <ele>817</ele>
        <time>2019-02-19T08:44:41Z</time>
      </trkpt>
      <trkpt lat="45.79819" lon="2.97186">
        <ele>818</ele>
        <time>2019-02-19T08:44:49Z</time>
      </trkpt>
      <trkpt lat="45.79818" lon="2.97195">
        <ele>819</ele>
        <time>2019-02-19T08:44:55Z</time>
      </trkpt>
      <trkpt lat="45.79818" lon="2.97204">
        <ele>819</ele>
        <time>2019-02-19T08:45:00Z</time>
      </trkpt>
      <trkpt lat="45.79818" lon="2.97212">
        <ele>819</ele>
        <time>2019-02-19T08:45:06Z</time>
      </trkpt>
      <trkpt lat="45.79816" lon="2.97232">
        <ele>822</ele>
        <time>2019-02-19T08:45:20Z</time>
      </trkpt>
      <trkpt lat="45.79812" lon="2.97241">
        <ele>823</ele>
        <time>2019-02-19T08:45:29Z</time>
      </trkpt>
      <trkpt lat="45.79811" lon="2.97251">
        <ele>824</ele>
        <time>2019-02-19T08:45:38Z</time>
      </trkpt>
      <trkpt lat="45.79807" lon="2.97257">
        <ele>824</ele>
        <time>2019-02-19T08:45:43Z</time>
      </trkpt>
      <trkpt lat="45.79804" lon="2.97273">
        <ele>825</ele>
        <time>2019-02-19T08:45:54Z</time>
      </trkpt>
      <trkpt lat="45.79799" lon="2.97281">
        <ele>826</ele>
        <time>2019-02-19T08:46:01Z</time>
      </trkpt>
      <trkpt lat="45.79796" lon="2.97287">
        <ele>826</ele>
        <time>2019-02-19T08:46:06Z</time>
      </trkpt>
      <trkpt lat="45.79791" lon="2.97295">
        <ele>827</ele>
        <time>2019-02-19T08:46:13Z</time>
      </trkpt>
      <trkpt lat="45.79786" lon="2.97302">
        <ele>828</ele>
        <time>2019-02-19T08:46:22Z</time>
      </trkpt>
      <trkpt lat="45.79783" lon="2.97312">
        <ele>829</ele>
        <time>2019-02-19T08:46:30Z</time>
      </trkpt>
      <trkpt lat="45.79774" lon="2.97319">
        <ele>830</ele>
        <time>2019-02-19T08:46:41Z</time>
      </trkpt>
      <trkpt lat="45.79764" lon="2.97332">
        <ele>832</ele>
        <time>2019-02-19T08:46:55Z</time>
      </trkpt>
      <trkpt lat="45.79759" lon="2.97338">
        <ele>831</ele>
        <time>2019-02-19T08:46:59Z</time>
      </trkpt>
      <trkpt lat="45.79748" lon="2.97349">
        <ele>833</ele>
        <time>2019-02-19T08:47:11Z</time>
      </trkpt>
      <trkpt lat="45.79737" lon="2.97362">
        <ele>835</ele>
        <time>2019-02-19T08:47:25Z</time>
      </trkpt>
      <trkpt lat="45.79731" lon="2.97362">
        <ele>835</ele>
        <time>2019-02-19T08:47:29Z</time>
      </trkpt>
      <trkpt lat="45.79726" lon="2.97362">
        <ele>836</ele>
        <time>2019-02-19T08:47:35Z</time>
      </trkpt>
      <trkpt lat="45.79714" lon="2.97372">
        <ele>838</ele>
        <time>2019-02-19T08:47:48Z</time>
      </trkpt>
      <trkpt lat="45.79706" lon="2.97374">
        <ele>838</ele>
        <time>2019-02-19T08:47:58Z</time>
      </trkpt>
      <trkpt lat="45.79699" lon="2.97378">
        <ele>839</ele>
        <time>2019-02-19T08:48:06Z</time>
      </trkpt>
      <trkpt lat="45.79683" lon="2.97381">
        <ele>842</ele>
        <time>2019-02-19T08:48:24Z</time>
      </trkpt>
      <trkpt lat="45.79677" lon="2.97383">
        <ele>843</ele>
        <time>2019-02-19T08:48:30Z</time>
      </trkpt>
      <trkpt lat="45.79671" lon="2.97384">
        <ele>844</ele>
        <time>2019-02-19T08:48:35Z</time>
      </trkpt>
      <trkpt lat="45.79665" lon="2.97382">
        <ele>844</ele>
        <time>2019-02-19T08:48:40Z</time>
      </trkpt>
      <trkpt lat="45.79654" lon="2.97378">
        <ele>844</ele>
        <time>2019-02-19T08:48:49Z</time>
      </trkpt>
      <trkpt lat="45.79643" lon="2.97378">
        <ele>844</ele>
        <time>2019-02-19T08:48:57Z</time>
      </trkpt>
      <trkpt lat="45.79636" lon="2.9738">
        <ele>843</ele>
        <time>2019-02-19T08:49:06Z</time>
      </trkpt>
      <trkpt lat="45.79604" lon="2.97365">
        <ele>836</ele>
        <time>2019-02-19T08:49:39Z</time>
      </trkpt>
      <trkpt lat="45.79585" lon="2.97349">
        <ele>832</ele>
        <time>2019-02-19T08:50:00Z</time>
      </trkpt>
      <trkpt lat="45.79559" lon="2.97318">
        <ele>825</ele>
        <time>2019-02-19T08:50:33Z</time>
      </trkpt>
      <trkpt lat="45.79549" lon="2.97303">
        <ele>822</ele>
        <time>2019-02-19T08:50:47Z</time>
      </trkpt>
      <trkpt lat="45.79522" lon="2.97274">
        <ele>815</ele>
        <time>2019-02-19T08:51:18Z</time>
      </trkpt>
      <trkpt lat="45.79498" lon="2.97249">
        <ele>807</ele>
        <time>2019-02-19T08:51:51Z</time>
      </trkpt>
      <trkpt lat="45.79487" lon="2.97241">
        <ele>804</ele>
        <time>2019-02-19T08:52:02Z</time>
      </trkpt>
      <trkpt lat="45.79477" lon="2.97226">
        <ele>801</ele>
        <time>2019-02-19T08:52:20Z</time>
      </trkpt>
      <trkpt lat="45.79456" lon="2.97206">
        <ele>796</ele>
        <time>2019-02-19T08:52:41Z</time>
      </trkpt>
      <trkpt lat="45.79441" lon="2.97177">
        <ele>791</ele>
        <time>2019-02-19T08:53:03Z</time>
      </trkpt>
      <trkpt lat="45.79437" lon="2.9717">
        <ele>792</ele>
        <time>2019-02-19T08:53:07Z</time>
      </trkpt>
      <trkpt lat="45.79423" lon="2.97153">
        <ele>788</ele>
        <time>2019-02-19T08:53:22Z</time>
      </trkpt>
      <trkpt lat="45.79397" lon="2.9711">
        <ele>780</ele>
        <time>2019-02-19T08:54:00Z</time>
      </trkpt>
      <trkpt lat="45.79382" lon="2.97081">
        <ele>776</ele>
        <time>2019-02-19T08:54:33Z</time>
      </trkpt>
      <trkpt lat="45.79372" lon="2.97063">
        <ele>772</ele>
        <time>2019-02-19T08:54:49Z</time>
      </trkpt>
      <trkpt lat="45.79364" lon="2.97031">
        <ele>767</ele>
        <time>2019-02-19T08:55:10Z</time>
      </trkpt>
      <trkpt lat="45.79357" lon="2.97013">
        <ele>763</ele>
        <time>2019-02-19T08:55:28Z</time>
      </trkpt>
      <trkpt lat="45.79354" lon="2.97004">
        <ele>761</ele>
        <time>2019-02-19T08:55:36Z</time>
      </trkpt>
      <trkpt lat="45.7935" lon="2.96997">
        <ele>759</ele>
        <time>2019-02-19T08:55:44Z</time>
      </trkpt>
      <trkpt lat="45.79344" lon="2.96979">
        <ele>754</ele>
        <time>2019-02-19T08:56:00Z</time>
      </trkpt>
      <trkpt lat="45.79343" lon="2.96963">
        <ele>753</ele>
        <time>2019-02-19T08:56:09Z</time>
      </trkpt>
      <trkpt lat="45.79344" lon="2.96955">
        <ele>753</ele>
        <time>2019-02-19T08:56:15Z</time>
      </trkpt>
      <trkpt lat="45.79346" lon="2.96937">
        <ele>752</ele>
        <time>2019-02-19T08:56:29Z</time>
      </trkpt>
      <trkpt lat="45.79347" lon="2.96924">
        <ele>750</ele>
        <time>2019-02-19T08:56:38Z</time>
      </trkpt>
      <trkpt lat="45.7934" lon="2.96909">
        <ele>747</ele>
        <time>2019-02-19T08:56:51Z</time>
      </trkpt>
      <trkpt lat="45.79335" lon="2.96907">
        <ele>745</ele>
        <time>2019-02-19T08:56:56Z</time>
      </trkpt>
      <trkpt lat="45.7933" lon="2.96898">
        <ele>745</ele>
        <time>2019-02-19T08:57:03Z</time>
      </trkpt>
      <trkpt lat="45.79331" lon="2.96867">
        <ele>747</ele>
        <time>2019-02-19T08:59:16Z</time>
      </trkpt>
      <trkpt lat="45.79332" lon="2.96861">
        <ele>747</ele>
        <time>2019-02-19T08:59:20Z</time>
      </trkpt>
      <trkpt lat="45.79332" lon="2.96853">
        <ele>746</ele>
        <time>2019-02-19T08:59:25Z</time>
      </trkpt>
      <trkpt lat="45.79332" lon="2.96839">
        <ele>747</ele>
        <time>2019-02-19T08:59:32Z</time>
      </trkpt>
      <trkpt lat="45.79337" lon="2.96832">
        <ele>746</ele>
        <time>2019-02-19T08:59:37Z</time>
      </trkpt>
      <trkpt lat="45.79341" lon="2.96818">
        <ele>745</ele>
        <time>2019-02-19T08:59:46Z</time>
      </trkpt>
      <trkpt lat="45.79342" lon="2.96809">
        <ele>746</ele>
        <time>2019-02-19T08:59:51Z</time>
      </trkpt>
      <trkpt lat="45.79344" lon="2.96801">
        <ele>746</ele>
        <time>2019-02-19T08:59:55Z</time>
      </trkpt>
      <trkpt lat="45.79348" lon="2.9679">
        <ele>744</ele>
        <time>2019-02-19T09:00:00Z</time>
      </trkpt>
      <trkpt lat="45.7935" lon="2.96782">
        <ele>743</ele>
        <time>2019-02-19T09:00:05Z</time>
      </trkpt>
      <trkpt lat="45.79353" lon="2.96773">
        <ele>743</ele>
        <time>2019-02-19T09:00:10Z</time>
      </trkpt>
      <trkpt lat="45.79357" lon="2.96769">
        <ele>743</ele>
        <time>2019-02-19T09:00:14Z</time>
      </trkpt>
      <trkpt lat="45.7936" lon="2.96762">
        <ele>742</ele>
        <time>2019-02-19T09:00:17Z</time>
      </trkpt>
      <trkpt lat="45.79362" lon="2.96754">
        <ele>742</ele>
        <time>2019-02-19T09:00:21Z</time>
      </trkpt>
      <trkpt lat="45.79364" lon="2.96745">
        <ele>741</ele>
        <time>2019-02-19T09:00:27Z</time>
      </trkpt>
      <trkpt lat="45.79369" lon="2.9674">
        <ele>739</ele>
        <time>2019-02-19T09:00:32Z</time>
      </trkpt>
      <trkpt lat="45.79372" lon="2.96734">
        <ele>739</ele>
        <time>2019-02-19T09:00:36Z</time>
      </trkpt>
      <trkpt lat="45.79381" lon="2.96709">
        <ele>737</ele>
        <time>2019-02-19T09:00:47Z</time>
      </trkpt>
      <trkpt lat="45.79396" lon="2.96675">
        <ele>733</ele>
        <time>2019-02-19T09:01:06Z</time>
      </trkpt>
      <trkpt lat="45.79385" lon="2.9664">
        <ele>729</ele>
        <time>2019-02-19T09:01:33Z</time>
      </trkpt>
      <trkpt lat="45.79378" lon="2.96622">
        <ele>729</ele>
        <time>2019-02-19T09:01:46Z</time>
      </trkpt>
      <trkpt lat="45.79377" lon="2.96599">
        <ele>732</ele>
        <time>2019-02-19T09:02:00Z</time>
      </trkpt>
      <trkpt lat="45.79367" lon="2.96573">
        <ele>731</ele>
        <time>2019-02-19T09:02:21Z</time>
      </trkpt>
      <trkpt lat="45.79347" lon="2.9653">
        <ele>736</ele>
        <time>2019-02-19T09:03:01Z</time>
      </trkpt>
      <trkpt lat="45.79342" lon="2.9651">
        <ele>737</ele>
        <time>2019-02-19T09:03:15Z</time>
      </trkpt>
      <trkpt lat="45.79346" lon="2.9649">
        <ele>739</ele>
        <time>2019-02-19T09:03:31Z</time>
      </trkpt>
      <trkpt lat="45.79341" lon="2.96469">
        <ele>742</ele>
        <time>2019-02-19T09:04:00Z</time>
      </trkpt>
      <trkpt lat="45.79324" lon="2.96449">
        <ele>746</ele>
        <time>2019-02-19T09:04:27Z</time>
      </trkpt>
      <trkpt lat="45.79315" lon="2.96425">
        <ele>749</ele>
        <time>2019-02-19T09:04:59Z</time>
      </trkpt>
      <trkpt lat="45.79311" lon="2.96403">
        <ele>753</ele>
        <time>2019-02-19T09:05:29Z</time>
      </trkpt>
      <trkpt lat="45.79305" lon="2.96382">
        <ele>755</ele>
        <time>2019-02-19T09:05:42Z</time>
      </trkpt>
      <trkpt lat="45.79295" lon="2.96367">
        <ele>757</ele>
        <time>2019-02-19T09:05:57Z</time>
      </trkpt>
      <trkpt lat="45.79293" lon="2.96338">
        <ele>757</ele>
        <time>2019-02-19T09:06:22Z</time>
      </trkpt>
      <trkpt lat="45.79268" lon="2.96299">
        <ele>761</ele>
        <time>2019-02-19T09:07:00Z</time>
      </trkpt>
      <trkpt lat="45.79259" lon="2.96283">
        <ele>762</ele>
        <time>2019-02-19T09:07:14Z</time>
      </trkpt>
      <trkpt lat="45.79236" lon="2.96245">
        <ele>765</ele>
        <time>2019-02-19T09:07:49Z</time>
      </trkpt>
      <trkpt lat="45.79224" lon="2.962">
        <ele>769</ele>
        <time>2019-02-19T09:08:26Z</time>
      </trkpt>
      <trkpt lat="45.79217" lon="2.96149">
        <ele>771</ele>
        <time>2019-02-19T09:09:14Z</time>
      </trkpt>
      <trkpt lat="45.79203" lon="2.96098">
        <ele>774</ele>
        <time>2019-02-19T09:09:59Z</time>
      </trkpt>
      <trkpt lat="45.79203" lon="2.96076">
        <ele>774</ele>
        <time>2019-02-19T09:10:14Z</time>
      </trkpt>
      <trkpt lat="45.79205" lon="2.96055">
        <ele>776</ele>
        <time>2019-02-19T09:10:29Z</time>
      </trkpt>
      <trkpt lat="45.79203" lon="2.96031">
        <ele>777</ele>
        <time>2019-02-19T09:10:45Z</time>
      </trkpt>
      <trkpt lat="45.79207" lon="2.95997">
        <ele>779</ele>
        <time>2019-02-19T09:11:14Z</time>
      </trkpt>
      <trkpt lat="45.79219" lon="2.9598">
        <ele>783</ele>
        <time>2019-02-19T09:11:53Z</time>
      </trkpt>
      <trkpt lat="45.79234" lon="2.95975">
        <ele>788</ele>
        <time>2019-02-19T09:12:23Z</time>
      </trkpt>
      <trkpt lat="45.79253" lon="2.95964">
        <ele>793</ele>
        <time>2019-02-19T09:12:59Z</time>
      </trkpt>
      <trkpt lat="45.79283" lon="2.95943">
        <ele>800</ele>
        <time>2019-02-19T09:13:53Z</time>
      </trkpt>
      <trkpt lat="45.79297" lon="2.95931">
        <ele>805</ele>
        <time>2019-02-19T09:14:39Z</time>
      </trkpt>
      <trkpt lat="45.79319" lon="2.95901">
        <ele>812</ele>
        <time>2019-02-19T09:15:24Z</time>
      </trkpt>
      <trkpt lat="45.79334" lon="2.95881">
        <ele>816</ele>
        <time>2019-02-19T09:15:49Z</time>
      </trkpt>
      <trkpt lat="45.79338" lon="2.95875">
        <ele>816</ele>
        <time>2019-02-19T09:15:54Z</time>
      </trkpt>
      <trkpt lat="45.79342" lon="2.9587">
        <ele>817</ele>
        <time>2019-02-19T09:16:00Z</time>
      </trkpt>
      <trkpt lat="45.7935" lon="2.95866">
        <ele>818</ele>
        <time>2019-02-19T09:16:09Z</time>
      </trkpt>
      <trkpt lat="45.79354" lon="2.95859">
        <ele>819</ele>
        <time>2019-02-19T09:16:14Z</time>
      </trkpt>
      <trkpt lat="45.79361" lon="2.9585">
        <ele>819</ele>
        <time>2019-02-19T09:16:21Z</time>
      </trkpt>
      <trkpt lat="45.79384" lon="2.95831">
        <ele>825</ele>
        <time>2019-02-19T09:16:59Z</time>
      </trkpt>
      <trkpt lat="45.79398" lon="2.95826">
        <ele>831</ele>
        <time>2019-02-19T09:17:51Z</time>
      </trkpt>
      <trkpt lat="45.79385" lon="2.95854">
        <ele>833</ele>
        <time>2019-02-19T09:18:23Z</time>
      </trkpt>
      <trkpt lat="45.79392" lon="2.95873">
        <ele>839</ele>
        <time>2019-02-19T09:19:19Z</time>
      </trkpt>
      <trkpt lat="45.79396" lon="2.95915">
        <ele>850</ele>
        <time>2019-02-19T09:21:06Z</time>
      </trkpt>
      <trkpt lat="45.79397" lon="2.95939">
        <ele>855</ele>
        <time>2019-02-19T09:21:36Z</time>
      </trkpt>
      <trkpt lat="45.79401" lon="2.95963">
        <ele>861</ele>
        <time>2019-02-19T09:22:18Z</time>
      </trkpt>
      <trkpt lat="45.79393" lon="2.9599">
        <ele>864</ele>
        <time>2019-02-19T09:22:39Z</time>
      </trkpt>
      <trkpt lat="45.79401" lon="2.9601">
        <ele>865</ele>
        <time>2019-02-19T09:22:55Z</time>
      </trkpt>
      <trkpt lat="45.79413" lon="2.96027">
        <ele>867</ele>
        <time>2019-02-19T09:23:13Z</time>
      </trkpt>
      <trkpt lat="45.79429" lon="2.96014">
        <ele>871</ele>
        <time>2019-02-19T09:23:36Z</time>
      </trkpt>
      <trkpt lat="45.79438" lon="2.96009">
        <ele>873</ele>
        <time>2019-02-19T09:24:06Z</time>
      </trkpt>
      <trkpt lat="45.79441" lon="2.95999">
        <ele>874</ele>
        <time>2019-02-19T09:25:03Z</time>
      </trkpt>
      <trkpt lat="45.79433" lon="2.95977">
        <ele>876</ele>
        <time>2019-02-19T09:27:16Z</time>
      </trkpt>
      <trkpt lat="45.79432" lon="2.9597">
        <ele>876</ele>
        <time>2019-02-19T09:27:21Z</time>
      </trkpt>
      <trkpt lat="45.79433" lon="2.95961">
        <ele>876</ele>
        <time>2019-02-19T09:27:27Z</time>
      </trkpt>
      <trkpt lat="45.79434" lon="2.95953">
        <ele>876</ele>
        <time>2019-02-19T09:27:33Z</time>
      </trkpt>
      <trkpt lat="45.79438" lon="2.95946">
        <ele>876</ele>
        <time>2019-02-19T09:27:54Z</time>
      </trkpt>
      <trkpt lat="45.79441" lon="2.95939">
        <ele>876</ele>
        <time>2019-02-19T09:28:19Z</time>
      </trkpt>
      <trkpt lat="45.79425" lon="2.959">
        <ele>871</ele>
        <time>2019-02-19T09:28:46Z</time>
      </trkpt>
      <trkpt lat="45.79424" lon="2.95884">
        <ele>866</ele>
        <time>2019-02-19T09:29:05Z</time>
      </trkpt>
      <trkpt lat="45.79436" lon="2.95874">
        <ele>863</ele>
        <time>2019-02-19T09:29:34Z</time>
      </trkpt>
      <trkpt lat="45.79428" lon="2.9587">
        <ele>861</ele>
        <time>2019-02-19T09:29:41Z</time>
      </trkpt>
      <trkpt lat="45.79422" lon="2.95873">
        <ele>859</ele>
        <time>2019-02-19T09:29:49Z</time>
      </trkpt>
      <trkpt lat="45.79414" lon="2.95875">
        <ele>859</ele>
        <time>2019-02-19T09:30:08Z</time>
      </trkpt>
      <trkpt lat="45.79405" lon="2.95873">
        <ele>857</ele>
        <time>2019-02-19T09:30:19Z</time>
      </trkpt>
      <trkpt lat="45.79398" lon="2.95879">
        <ele>855</ele>
        <time>2019-02-19T09:30:27Z</time>
      </trkpt>
      <trkpt lat="45.79382" lon="2.95841">
        <ele>840</ele>
        <time>2019-02-19T09:31:13Z</time>
      </trkpt>
      <trkpt lat="45.79372" lon="2.95841">
        <ele>831</ele>
        <time>2019-02-19T09:32:03Z</time>
      </trkpt>
      <trkpt lat="45.79359" lon="2.95852">
        <ele>828</ele>
        <time>2019-02-19T09:32:17Z</time>
      </trkpt>
      <trkpt lat="45.79349" lon="2.95869">
        <ele>827</ele>
        <time>2019-02-19T09:32:40Z</time>
      </trkpt>
      <trkpt lat="45.79342" lon="2.95889">
        <ele>824</ele>
        <time>2019-02-19T09:32:52Z</time>
      </trkpt>
      <trkpt lat="45.79319" lon="2.95924">
        <ele>816</ele>
        <time>2019-02-19T09:33:44Z</time>
      </trkpt>
      <trkpt lat="45.79314" lon="2.95931">
        <ele>811</ele>
        <time>2019-02-19T09:33:49Z</time>
      </trkpt>
      <trkpt lat="45.79306" lon="2.95937">
        <ele>811</ele>
        <time>2019-02-19T09:33:58Z</time>
      </trkpt>
      <trkpt lat="45.79276" lon="2.95974">
        <ele>799</ele>
        <time>2019-02-19T09:34:33Z</time>
      </trkpt>
      <trkpt lat="45.7925" lon="2.95994">
        <ele>793</ele>
        <time>2019-02-19T09:35:00Z</time>
      </trkpt>
      <trkpt lat="45.79237" lon="2.96002">
        <ele>793</ele>
        <time>2019-02-19T09:35:12Z</time>
      </trkpt>
      <trkpt lat="45.79224" lon="2.96012">
        <ele>795</ele>
        <time>2019-02-19T09:35:25Z</time>
      </trkpt>
      <trkpt lat="45.79196" lon="2.96007">
        <ele>800</ele>
        <time>2019-02-19T09:36:04Z</time>
      </trkpt>
      <trkpt lat="45.79185" lon="2.95986">
        <ele>814</ele>
        <time>2019-02-19T09:37:41Z</time>
      </trkpt>
      <trkpt lat="45.7915" lon="2.95964">
        <ele>823</ele>
        <time>2019-02-19T09:38:36Z</time>
      </trkpt>
      <trkpt lat="45.79117" lon="2.95957">
        <ele>836</ele>
        <time>2019-02-19T09:40:09Z</time>
      </trkpt>
      <trkpt lat="45.79091" lon="2.95941">
        <ele>845</ele>
        <time>2019-02-19T09:41:24Z</time>
      </trkpt>
      <trkpt lat="45.79048" lon="2.95917">
        <ele>851</ele>
        <time>2019-02-19T09:42:26Z</time>
      </trkpt>
      <trkpt lat="45.79034" lon="2.9591">
        <ele>852</ele>
        <time>2019-02-19T09:42:38Z</time>
      </trkpt>
      <trkpt lat="45.79015" lon="2.95904">
        <ele>854</ele>
        <time>2019-02-19T09:42:56Z</time>
      </trkpt>
      <trkpt lat="45.79" lon="2.95914">
        <ele>855</ele>
        <time>2019-02-19T09:43:25Z</time>
      </trkpt>
      <trkpt lat="45.78997" lon="2.95944">
        <ele>860</ele>
        <time>2019-02-19T09:44:15Z</time>
      </trkpt>
      <trkpt lat="45.7899" lon="2.9599">
        <ele>871</ele>
        <time>2019-02-19T09:45:16Z</time>
      </trkpt>
      <trkpt lat="45.78986" lon="2.95999">
        <ele>873</ele>
        <time>2019-02-19T09:45:33Z</time>
      </trkpt>
      <trkpt lat="45.78983" lon="2.96006">
        <ele>874</ele>
        <time>2019-02-19T09:45:43Z</time>
      </trkpt>
      <trkpt lat="45.78981" lon="2.96019">
        <ele>878</ele>
        <time>2019-02-19T09:45:59Z</time>
      </trkpt>
      <trkpt lat="45.78976" lon="2.9603">
        <ele>879</ele>
        <time>2019-02-19T09:46:10Z</time>
      </trkpt>
      <trkpt lat="45.78973" lon="2.96053">
        <ele>882</ele>
        <time>2019-02-19T09:46:33Z</time>
      </trkpt>
      <trkpt lat="45.78971" lon="2.9606">
        <ele>883</ele>
        <time>2019-02-19T09:46:39Z</time>
      </trkpt>
      <trkpt lat="45.78966" lon="2.96069">
        <ele>884</ele>
        <time>2019-02-19T09:46:48Z</time>
      </trkpt>
      <trkpt lat="45.78965" lon="2.96086">
        <ele>885</ele>
        <time>2019-02-19T09:47:00Z</time>
      </trkpt>
      <trkpt lat="45.78963" lon="2.96094">
        <ele>885</ele>
        <time>2019-02-19T09:47:09Z</time>
      </trkpt>
      <trkpt lat="45.78963" lon="2.96103">
        <ele>885</ele>
        <time>2019-02-19T09:47:14Z</time>
      </trkpt>
      <trkpt lat="45.78963" lon="2.96115">
        <ele>885</ele>
        <time>2019-02-19T09:47:23Z</time>
      </trkpt>
      <trkpt lat="45.7897" lon="2.9613">
        <ele>886</ele>
        <time>2019-02-19T09:47:33Z</time>
      </trkpt>
      <trkpt lat="45.78975" lon="2.96136">
        <ele>886</ele>
        <time>2019-02-19T09:47:40Z</time>
      </trkpt>
      <trkpt lat="45.78983" lon="2.96133">
        <ele>887</ele>
        <time>2019-02-19T09:47:49Z</time>
      </trkpt>
      <trkpt lat="45.78989" lon="2.96134">
        <ele>887</ele>
        <time>2019-02-19T09:47:57Z</time>
      </trkpt>
      <trkpt lat="45.78994" lon="2.96132">
        <ele>887</ele>
        <time>2019-02-19T09:49:03Z</time>
      </trkpt>
      <trkpt lat="45.78991" lon="2.96119">
        <ele>888</ele>
        <time>2019-02-19T09:49:40Z</time>
      </trkpt>
      <trkpt lat="45.78987" lon="2.96103">
        <ele>888</ele>
        <time>2019-02-19T09:49:49Z</time>
      </trkpt>
      <trkpt lat="45.78982" lon="2.96085">
        <ele>887</ele>
        <time>2019-02-19T09:49:57Z</time>
      </trkpt>
      <trkpt lat="45.78981" lon="2.96076">
        <ele>887</ele>
        <time>2019-02-19T09:50:02Z</time>
      </trkpt>
      <trkpt lat="45.7898" lon="2.96067">
        <ele>886</ele>
        <time>2019-02-19T09:50:06Z</time>
      </trkpt>
      <trkpt lat="45.7898" lon="2.9605">
        <ele>883</ele>
        <time>2019-02-19T09:50:15Z</time>
      </trkpt>
      <trkpt lat="45.78976" lon="2.96044">
        <ele>884</ele>
        <time>2019-02-19T09:50:19Z</time>
      </trkpt>
      <trkpt lat="45.78973" lon="2.96037">
        <ele>884</ele>
        <time>2019-02-19T09:50:24Z</time>
      </trkpt>
      <trkpt lat="45.78973" lon="2.96028">
        <ele>883</ele>
        <time>2019-02-19T09:50:29Z</time>
      </trkpt>
      <trkpt lat="45.78977" lon="2.96007">
        <ele>879</ele>
        <time>2019-02-19T09:50:42Z</time>
      </trkpt>
      <trkpt lat="45.78979" lon="2.9599">
        <ele>876</ele>
        <time>2019-02-19T09:50:53Z</time>
      </trkpt>
      <trkpt lat="45.78983" lon="2.9598">
        <ele>874</ele>
        <time>2019-02-19T09:51:14Z</time>
      </trkpt>
      <trkpt lat="45.78987" lon="2.95974">
        <ele>873</ele>
        <time>2019-02-19T09:51:20Z</time>
      </trkpt>
      <trkpt lat="45.78991" lon="2.95963">
        <ele>870</ele>
        <time>2019-02-19T09:51:26Z</time>
      </trkpt>
      <trkpt lat="45.78992" lon="2.9595">
        <ele>867</ele>
        <time>2019-02-19T09:51:35Z</time>
      </trkpt>
      <trkpt lat="45.78994" lon="2.95942">
        <ele>866</ele>
        <time>2019-02-19T09:51:39Z</time>
      </trkpt>
      <trkpt lat="45.78995" lon="2.95933">
        <ele>864</ele>
        <time>2019-02-19T09:51:43Z</time>
      </trkpt>
      <trkpt lat="45.79" lon="2.95915">
        <ele>861</ele>
        <time>2019-02-19T09:51:51Z</time>
      </trkpt>
      <trkpt lat="45.79002" lon="2.95908">
        <ele>861</ele>
        <time>2019-02-19T09:51:55Z</time>
      </trkpt>
      <trkpt lat="45.79003" lon="2.95899">
        <ele>859</ele>
        <time>2019-02-19T09:51:59Z</time>
      </trkpt>
      <trkpt lat="45.79013" lon="2.95868">
        <ele>861</ele>
        <time>2019-02-19T09:52:24Z</time>
      </trkpt>
      <trkpt lat="45.79014" lon="2.95823">
        <ele>869</ele>
        <time>2019-02-19T09:53:24Z</time>
      </trkpt>
      <trkpt lat="45.79018" lon="2.95803">
        <ele>873</ele>
        <time>2019-02-19T09:54:00Z</time>
      </trkpt>
      <trkpt lat="45.79024" lon="2.95762">
        <ele>881</ele>
        <time>2019-02-19T09:55:01Z</time>
      </trkpt>
      <trkpt lat="45.79026" lon="2.95737">
        <ele>886</ele>
        <time>2019-02-19T09:55:37Z</time>
      </trkpt>
      <trkpt lat="45.79032" lon="2.95689">
        <ele>894</ele>
        <time>2019-02-19T09:56:26Z</time>
      </trkpt>
      <trkpt lat="45.79029" lon="2.95643">
        <ele>903</ele>
        <time>2019-02-19T09:57:20Z</time>
      </trkpt>
      <trkpt lat="45.79031" lon="2.95622">
        <ele>907</ele>
        <time>2019-02-19T09:57:49Z</time>
      </trkpt>
      <trkpt lat="45.79034" lon="2.95595">
        <ele>913</ele>
        <time>2019-02-19T09:58:25Z</time>
      </trkpt>
      <trkpt lat="45.79037" lon="2.95565">
        <ele>918</ele>
        <time>2019-02-19T09:59:01Z</time>
      </trkpt>
      <trkpt lat="45.79037" lon="2.95555">
        <ele>921</ele>
        <time>2019-02-19T09:59:13Z</time>
      </trkpt>
      <trkpt lat="45.79039" lon="2.95543">
        <ele>923</ele>
        <time>2019-02-19T09:59:28Z</time>
      </trkpt>
      <trkpt lat="45.79042" lon="2.95538">
        <ele>924</ele>
        <time>2019-02-19T09:59:37Z</time>
      </trkpt>
      <trkpt lat="45.79046" lon="2.95522">
        <ele>928</ele>
        <time>2019-02-19T09:59:50Z</time>
      </trkpt>
      <trkpt lat="45.79049" lon="2.95511">
        <ele>928</ele>
        <time>2019-02-19T10:00:03Z</time>
      </trkpt>
      <trkpt lat="45.79053" lon="2.95503">
        <ele>929</ele>
        <time>2019-02-19T10:00:29Z</time>
      </trkpt>
      <trkpt lat="45.7906" lon="2.9549">
        <ele>928</ele>
        <time>2019-02-19T10:00:42Z</time>
      </trkpt>
      <trkpt lat="45.79068" lon="2.95479">
        <ele>926</ele>
        <time>2019-02-19T10:02:08Z</time>
      </trkpt>
      <trkpt lat="45.79074" lon="2.95467">
        <ele>925</ele>
        <time>2019-02-19T10:02:42Z</time>
      </trkpt>
      <trkpt lat="45.79089" lon="2.95429">
        <ele>920</ele>
        <time>2019-02-19T10:03:12Z</time>
      </trkpt>
      <trkpt lat="45.79092" lon="2.95421">
        <ele>920</ele>
        <time>2019-02-19T10:03:16Z</time>
      </trkpt>
      <trkpt lat="45.79102" lon="2.95383">
        <ele>914</ele>
        <time>2019-02-19T10:03:38Z</time>
      </trkpt>
      <trkpt lat="45.7911" lon="2.95372">
        <ele>910</ele>
        <time>2019-02-19T10:03:48Z</time>
      </trkpt>
      <trkpt lat="45.79112" lon="2.95361">
        <ele>908</ele>
        <time>2019-02-19T10:03:57Z</time>
      </trkpt>
      <trkpt lat="45.79118" lon="2.95349">
        <ele>905</ele>
        <time>2019-02-19T10:04:17Z</time>
      </trkpt>
      <trkpt lat="45.79121" lon="2.95331">
        <ele>902</ele>
        <time>2019-02-19T10:04:28Z</time>
      </trkpt>
      <trkpt lat="45.79123" lon="2.95323">
        <ele>901</ele>
        <time>2019-02-19T10:04:33Z</time>
      </trkpt>
      <trkpt lat="45.79122" lon="2.95314">
        <ele>899</ele>
        <time>2019-02-19T10:04:38Z</time>
      </trkpt>
      <trkpt lat="45.79126" lon="2.95309">
        <ele>896</ele>
        <time>2019-02-19T10:04:47Z</time>
      </trkpt>
      <trkpt lat="45.79138" lon="2.95283">
        <ele>888</ele>
        <time>2019-02-19T10:05:16Z</time>
      </trkpt>
      <trkpt lat="45.79139" lon="2.95275">
        <ele>886</ele>
        <time>2019-02-19T10:05:21Z</time>
      </trkpt>
      <trkpt lat="45.79142" lon="2.95267">
        <ele>882</ele>
        <time>2019-02-19T10:05:35Z</time>
      </trkpt>
      <trkpt lat="45.79144" lon="2.95259">
        <ele>880</ele>
        <time>2019-02-19T10:06:05Z</time>
      </trkpt>
      <trkpt lat="45.79148" lon="2.9525">
        <ele>876</ele>
        <time>2019-02-19T10:06:35Z</time>
      </trkpt>
      <trkpt lat="45.79152" lon="2.95226">
        <ele>866</ele>
        <time>2019-02-19T10:07:08Z</time>
      </trkpt>
      <trkpt lat="45.79164" lon="2.95213">
        <ele>858</ele>
        <time>2019-02-19T10:08:04Z</time>
      </trkpt>
      <trkpt lat="45.79179" lon="2.95197">
        <ele>854</ele>
        <time>2019-02-19T10:08:32Z</time>
      </trkpt>
      <trkpt lat="45.79194" lon="2.95169">
        <ele>842</ele>
        <time>2019-02-19T10:09:05Z</time>
      </trkpt>
      <trkpt lat="45.79221" lon="2.95132">
        <ele>827</ele>
        <time>2019-02-19T10:09:58Z</time>
      </trkpt>
      <trkpt lat="45.79228" lon="2.95115">
        <ele>822</ele>
        <time>2019-02-19T10:10:12Z</time>
      </trkpt>
      <trkpt lat="45.79235" lon="2.95087">
        <ele>816</ele>
        <time>2019-02-19T10:10:36Z</time>
      </trkpt>
      <trkpt lat="45.79241" lon="2.9507">
        <ele>810</ele>
        <time>2019-02-19T10:11:09Z</time>
      </trkpt>
      <trkpt lat="45.79247" lon="2.95029">
        <ele>801</ele>
        <time>2019-02-19T10:11:43Z</time>
      </trkpt>
      <trkpt lat="45.79255" lon="2.95012">
        <ele>795</ele>
        <time>2019-02-19T10:12:03Z</time>
      </trkpt>
      <trkpt lat="45.79263" lon="2.9499">
        <ele>791</ele>
        <time>2019-02-19T10:13:27Z</time>
      </trkpt>
      <trkpt lat="45.79273" lon="2.94954">
        <ele>781</ele>
        <time>2019-02-19T10:13:58Z</time>
      </trkpt>
      <trkpt lat="45.79282" lon="2.94939">
        <ele>775</ele>
        <time>2019-02-19T10:14:13Z</time>
      </trkpt>
      <trkpt lat="45.79292" lon="2.94885">
        <ele>762</ele>
        <time>2019-02-19T10:15:06Z</time>
      </trkpt>
      <trkpt lat="45.79297" lon="2.94835">
        <ele>750</ele>
        <time>2019-02-19T10:15:45Z</time>
      </trkpt>
      <trkpt lat="45.79295" lon="2.94812">
        <ele>747</ele>
        <time>2019-02-19T10:16:10Z</time>
      </trkpt>
      <trkpt lat="45.79312" lon="2.94786">
        <ele>739</ele>
        <time>2019-02-19T10:16:55Z</time>
      </trkpt>
      <trkpt lat="45.79323" lon="2.94749">
        <ele>733</ele>
        <time>2019-02-19T10:17:28Z</time>
      </trkpt>
      <trkpt lat="45.79326" lon="2.94728">
        <ele>730</ele>
        <time>2019-02-19T10:17:40Z</time>
      </trkpt>
      <trkpt lat="45.79332" lon="2.94702">
        <ele>729</ele>
        <time>2019-02-19T10:18:12Z</time>
      </trkpt>
      <trkpt lat="45.79309" lon="2.94664">
        <ele>729</ele>
        <time>2019-02-19T10:18:43Z</time>
      </trkpt>
      <trkpt lat="45.79284" lon="2.94609">
        <ele>731</ele>
        <time>2019-02-19T10:19:20Z</time>
      </trkpt>
      <trkpt lat="45.79275" lon="2.94592">
        <ele>731</ele>
        <time>2019-02-19T10:19:35Z</time>
      </trkpt>
      <trkpt lat="45.79265" lon="2.9457">
        <ele>733</ele>
        <time>2019-02-19T10:22:46Z</time>
      </trkpt>
      <trkpt lat="45.79256" lon="2.94552">
        <ele>733</ele>
        <time>2019-02-19T10:22:58Z</time>
      </trkpt>
      <trkpt lat="45.79264" lon="2.94561">
        <ele>734</ele>
        <time>2019-02-19T10:24:18Z</time>
      </trkpt>
      <trkpt lat="45.79269" lon="2.94585">
        <ele>734</ele>
        <time>2019-02-19T10:24:32Z</time>
      </trkpt>
      <trkpt lat="45.79297" lon="2.94624">
        <ele>734</ele>
        <time>2019-02-19T10:25:14Z</time>
      </trkpt>
      <trkpt lat="45.79301" lon="2.94601">
        <ele>739</ele>
        <time>2019-02-19T10:26:20Z</time>
      </trkpt>
      <trkpt lat="45.79319" lon="2.94566">
        <ele>752</ele>
        <time>2019-02-19T10:27:57Z</time>
      </trkpt>
      <trkpt lat="45.79343" lon="2.94538">
        <ele>768</ele>
        <time>2019-02-19T10:29:42Z</time>
      </trkpt>
      <trkpt lat="45.79365" lon="2.94511">
        <ele>787</ele>
        <time>2019-02-19T10:31:42Z</time>
      </trkpt>
      <trkpt lat="45.79391" lon="2.94487">
        <ele>804</ele>
        <time>2019-02-19T10:33:42Z</time>
      </trkpt>
      <trkpt lat="45.79401" lon="2.94442">
        <ele>825</ele>
        <time>2019-02-19T10:36:15Z</time>
      </trkpt>
    </trkseg>
  </trk>
  <trk>
    <name><![CDATA[19 févr. 2019 à 08:30:42]]></name>
    <cmt><![CDATA[19 févr. 2019 à 08:30:42]]></cmt>
    <trkseg>
      <trkpt lat="45.7884" lon="2.99673">
        <ele>519</ele>
        <time>2019-02-19T07:30:42Z</time>
      </trkpt>
      <trkpt lat="45.7884" lon="2.99673">
        <ele>519</ele>
        <time>2019-02-19T07:30:43Z</time>
      </trkpt>
      <trkpt lat="45.78844" lon="2.99696">
        <ele>519</ele>
        <time>2019-02-19T07:30:55Z</time>
      </trkpt>
    </trkseg>
  </trk>
  <trk>
    <name><![CDATA[18 févr. 2019 à 13:06:13]]></name>
    <cmt><![CDATA[18 févr. 2019 à 13:06:13]]></cmt>
    <trkseg>
      <trkpt lat="45.54361" lon="2.81758">
        <ele>1300</ele>
        <time>2019-02-18T12:06:16Z</time>
      </trkpt>
      <trkpt lat="45.5434" lon="2.81786">
        <ele>1318</ele>
        <time>2019-02-18T12:06:32Z</time>
      </trkpt>
      <trkpt lat="45.5433" lon="2.81794">
        <ele>1302</ele>
        <time>2019-02-18T12:07:44Z</time>
      </trkpt>
      <trkpt lat="45.54309" lon="2.81799">
        <ele>1303</ele>
        <time>2019-02-18T12:08:02Z</time>
      </trkpt>
      <trkpt lat="45.54279" lon="2.81793">
        <ele>1306</ele>
        <time>2019-02-18T12:08:30Z</time>
      </trkpt>
      <trkpt lat="45.54262" lon="2.81784">
        <ele>1307</ele>
        <time>2019-02-18T12:08:52Z</time>
      </trkpt>
      <trkpt lat="45.54224" lon="2.81793">
        <ele>1312</ele>
        <time>2019-02-18T12:09:40Z</time>
      </trkpt>
      <trkpt lat="45.54198" lon="2.81805">
        <ele>1314</ele>
        <time>2019-02-18T12:10:12Z</time>
      </trkpt>
      <trkpt lat="45.54184" lon="2.8181">
        <ele>1315</ele>
        <time>2019-02-18T12:10:25Z</time>
      </trkpt>
      <trkpt lat="45.54172" lon="2.8182">
        <ele>1316</ele>
        <time>2019-02-18T12:10:38Z</time>
      </trkpt>
      <trkpt lat="45.54156" lon="2.81821">
        <ele>1316</ele>
        <time>2019-02-18T12:10:51Z</time>
      </trkpt>
      <trkpt lat="45.54143" lon="2.81813">
        <ele>1316</ele>
        <time>2019-02-18T12:11:01Z</time>
      </trkpt>
      <trkpt lat="45.54133" lon="2.81797">
        <ele>1316</ele>
        <time>2019-02-18T12:11:11Z</time>
      </trkpt>
      <trkpt lat="45.54129" lon="2.81775">
        <ele>1316</ele>
        <time>2019-02-18T12:11:23Z</time>
      </trkpt>
      <trkpt lat="45.54118" lon="2.81761">
        <ele>1317</ele>
        <time>2019-02-18T12:11:35Z</time>
      </trkpt>
      <trkpt lat="45.54073" lon="2.81769">
        <ele>1323</ele>
        <time>2019-02-18T12:12:26Z</time>
      </trkpt>
      <trkpt lat="45.54059" lon="2.81779">
        <ele>1324</ele>
        <time>2019-02-18T12:12:35Z</time>
      </trkpt>
      <trkpt lat="45.54051" lon="2.81795">
        <ele>1327</ele>
        <time>2019-02-18T12:12:53Z</time>
      </trkpt>
      <trkpt lat="45.54042" lon="2.81824">
        <ele>1322</ele>
        <time>2019-02-18T12:13:26Z</time>
      </trkpt>
      <trkpt lat="45.54036" lon="2.81842">
        <ele>1328</ele>
        <time>2019-02-18T12:14:02Z</time>
      </trkpt>
      <trkpt lat="45.54018" lon="2.81866">
        <ele>1335</ele>
        <time>2019-02-18T12:14:40Z</time>
      </trkpt>
      <trkpt lat="45.54006" lon="2.81884">
        <ele>1343</ele>
        <time>2019-02-18T12:15:36Z</time>
      </trkpt>
      <trkpt lat="45.53977" lon="2.81897">
        <ele>1349</ele>
        <time>2019-02-18T12:16:23Z</time>
      </trkpt>
      <trkpt lat="45.53975" lon="2.81938">
        <ele>1370</ele>
        <time>2019-02-18T12:18:47Z</time>
      </trkpt>
      <trkpt lat="45.54" lon="2.8198">
        <ele>1373</ele>
        <time>2019-02-18T12:19:31Z</time>
      </trkpt>
      <trkpt lat="45.53985" lon="2.82014">
        <ele>1380</ele>
        <time>2019-02-18T12:20:37Z</time>
      </trkpt>
      <trkpt lat="45.53955" lon="2.82046">
        <ele>1401</ele>
        <time>2019-02-18T12:22:59Z</time>
      </trkpt>
      <trkpt lat="45.53936" lon="2.8209">
        <ele>1419</ele>
        <time>2019-02-18T12:25:12Z</time>
      </trkpt>
      <trkpt lat="45.5392" lon="2.82123">
        <ele>1442</ele>
        <time>2019-02-18T12:27:15Z</time>
      </trkpt>
      <trkpt lat="45.53929" lon="2.8216">
        <ele>1458</ele>
        <time>2019-02-18T12:29:40Z</time>
      </trkpt>
      <trkpt lat="45.53934" lon="2.82182">
        <ele>1466</ele>
        <time>2019-02-18T12:30:40Z</time>
      </trkpt>
      <trkpt lat="45.53946" lon="2.82199">
        <ele>1469</ele>
        <time>2019-02-18T12:31:46Z</time>
      </trkpt>
      <trkpt lat="45.53951" lon="2.82222">
        <ele>1471</ele>
        <time>2019-02-18T12:32:10Z</time>
      </trkpt>
      <trkpt lat="45.5395" lon="2.82246">
        <ele>1473</ele>
        <time>2019-02-18T12:32:54Z</time>
      </trkpt>
      <trkpt lat="45.53949" lon="2.82292">
        <ele>1477</ele>
        <time>2019-02-18T12:33:35Z</time>
      </trkpt>
      <trkpt lat="45.5395" lon="2.82315">
        <ele>1480</ele>
        <time>2019-02-18T12:33:55Z</time>
      </trkpt>
      <trkpt lat="45.53944" lon="2.82343">
        <ele>1482</ele>
        <time>2019-02-18T12:34:14Z</time>
      </trkpt>
      <trkpt lat="45.5394" lon="2.82364">
        <ele>1482</ele>
        <time>2019-02-18T12:34:27Z</time>
      </trkpt>
      <trkpt lat="45.53927" lon="2.82374">
        <ele>1483</ele>
        <time>2019-02-18T12:34:40Z</time>
      </trkpt>
      <trkpt lat="45.53913" lon="2.82381">
        <ele>1485</ele>
        <time>2019-02-18T12:35:04Z</time>
      </trkpt>
      <trkpt lat="45.53897" lon="2.82373">
        <ele>1486</ele>
        <time>2019-02-18T12:35:21Z</time>
      </trkpt>
      <trkpt lat="45.53865" lon="2.82336">
        <ele>1491</ele>
        <time>2019-02-18T12:36:04Z</time>
      </trkpt>
      <trkpt lat="45.53854" lon="2.8232">
        <ele>1495</ele>
        <time>2019-02-18T12:36:34Z</time>
      </trkpt>
      <trkpt lat="45.53847" lon="2.82314">
        <ele>1497</ele>
        <time>2019-02-18T12:36:46Z</time>
      </trkpt>
      <trkpt lat="45.5384" lon="2.82308">
        <ele>1498</ele>
        <time>2019-02-18T12:36:58Z</time>
      </trkpt>
      <trkpt lat="45.53834" lon="2.82301">
        <ele>1502</ele>
        <time>2019-02-18T12:37:16Z</time>
      </trkpt>
      <trkpt lat="45.53828" lon="2.82289">
        <ele>1504</ele>
        <time>2019-02-18T12:37:30Z</time>
      </trkpt>
      <trkpt lat="45.53821" lon="2.82284">
        <ele>1508</ele>
        <time>2019-02-18T12:37:54Z</time>
      </trkpt>
      <trkpt lat="45.53818" lon="2.82274">
        <ele>1513</ele>
        <time>2019-02-18T12:38:24Z</time>
      </trkpt>
      <trkpt lat="45.53823" lon="2.82271">
        <ele>1513</ele>
        <time>2019-02-18T12:39:30Z</time>
      </trkpt>
      <trkpt lat="45.53812" lon="2.82285">
        <ele>1517</ele>
        <time>2019-02-18T12:40:36Z</time>
      </trkpt>
      <trkpt lat="45.53797" lon="2.82287">
        <ele>1520</ele>
        <time>2019-02-18T12:42:03Z</time>
      </trkpt>
      <trkpt lat="45.53781" lon="2.82291">
        <ele>1529</ele>
        <time>2019-02-18T12:45:21Z</time>
      </trkpt>
      <trkpt lat="45.53761" lon="2.82286">
        <ele>1532</ele>
        <time>2019-02-18T12:46:23Z</time>
      </trkpt>
      <trkpt lat="45.53748" lon="2.82298">
        <ele>1535</ele>
        <time>2019-02-18T12:47:41Z</time>
      </trkpt>
      <trkpt lat="45.53724" lon="2.82329">
        <ele>1545</ele>
        <time>2019-02-18T12:49:31Z</time>
      </trkpt>
      <trkpt lat="45.53682" lon="2.82348">
        <ele>1555</ele>
        <time>2019-02-18T12:51:05Z</time>
      </trkpt>
      <trkpt lat="45.53668" lon="2.8235">
        <ele>1555</ele>
        <time>2019-02-18T12:54:07Z</time>
      </trkpt>
      <trkpt lat="45.53667" lon="2.82373">
        <ele>1558</ele>
        <time>2019-02-18T12:55:33Z</time>
      </trkpt>
      <trkpt lat="45.53652" lon="2.82379">
        <ele>1559</ele>
        <time>2019-02-18T12:55:48Z</time>
      </trkpt>
      <trkpt lat="45.53639" lon="2.82391">
        <ele>1559</ele>
        <time>2019-02-18T12:55:58Z</time>
      </trkpt>
      <trkpt lat="45.53614" lon="2.82414">
        <ele>1564</ele>
        <time>2019-02-18T12:56:37Z</time>
      </trkpt>
      <trkpt lat="45.53587" lon="2.82426">
        <ele>1568</ele>
        <time>2019-02-18T12:57:10Z</time>
      </trkpt>
      <trkpt lat="45.53557" lon="2.82436">
        <ele>1572</ele>
        <time>2019-02-18T12:57:44Z</time>
      </trkpt>
      <trkpt lat="45.53544" lon="2.82443">
        <ele>1574</ele>
        <time>2019-02-18T12:58:02Z</time>
      </trkpt>
      <trkpt lat="45.53506" lon="2.82448">
        <ele>1582</ele>
        <time>2019-02-18T12:58:51Z</time>
      </trkpt>
      <trkpt lat="45.53498" lon="2.82446">
        <ele>1583</ele>
        <time>2019-02-18T12:58:59Z</time>
      </trkpt>
      <trkpt lat="45.53486" lon="2.82443">
        <ele>1583</ele>
        <time>2019-02-18T12:59:19Z</time>
      </trkpt>
      <trkpt lat="45.53479" lon="2.82444">
        <ele>1585</ele>
        <time>2019-02-18T12:59:25Z</time>
      </trkpt>
      <trkpt lat="45.53474" lon="2.82448">
        <ele>1587</ele>
        <time>2019-02-18T12:59:39Z</time>
      </trkpt>
      <trkpt lat="45.53467" lon="2.82446">
        <ele>1589</ele>
        <time>2019-02-18T12:59:51Z</time>
      </trkpt>
      <trkpt lat="45.53453" lon="2.82443">
        <ele>1596</ele>
        <time>2019-02-18T13:00:33Z</time>
      </trkpt>
      <trkpt lat="45.53447" lon="2.82447">
        <ele>1598</ele>
        <time>2019-02-18T13:00:45Z</time>
      </trkpt>
      <trkpt lat="45.53436" lon="2.82444">
        <ele>1602</ele>
        <time>2019-02-18T13:01:09Z</time>
      </trkpt>
      <trkpt lat="45.53429" lon="2.82445">
        <ele>1604</ele>
        <time>2019-02-18T13:01:27Z</time>
      </trkpt>
      <trkpt lat="45.53423" lon="2.82442">
        <ele>1605</ele>
        <time>2019-02-18T13:01:39Z</time>
      </trkpt>
      <trkpt lat="45.53417" lon="2.82439">
        <ele>1607</ele>
        <time>2019-02-18T13:01:57Z</time>
      </trkpt>
      <trkpt lat="45.53408" lon="2.82441">
        <ele>1609</ele>
        <time>2019-02-18T13:02:16Z</time>
      </trkpt>
      <trkpt lat="45.53388" lon="2.82445">
        <ele>1618</ele>
        <time>2019-02-18T13:03:01Z</time>
      </trkpt>
      <trkpt lat="45.53382" lon="2.82446">
        <ele>1620</ele>
        <time>2019-02-18T13:03:17Z</time>
      </trkpt>
      <trkpt lat="45.53378" lon="2.82451">
        <ele>1623</ele>
        <time>2019-02-18T13:03:32Z</time>
      </trkpt>
      <trkpt lat="45.53368" lon="2.82453">
        <ele>1627</ele>
        <time>2019-02-18T13:03:55Z</time>
      </trkpt>
      <trkpt lat="45.53362" lon="2.82459">
        <ele>1635</ele>
        <time>2019-02-18T13:04:36Z</time>
      </trkpt>
      <trkpt lat="45.53351" lon="2.82456">
        <ele>1637</ele>
        <time>2019-02-18T13:04:55Z</time>
      </trkpt>
      <trkpt lat="45.53345" lon="2.82458">
        <ele>1639</ele>
        <time>2019-02-18T13:05:07Z</time>
      </trkpt>
      <trkpt lat="45.5333" lon="2.82458">
        <ele>1645</ele>
        <time>2019-02-18T13:05:43Z</time>
      </trkpt>
      <trkpt lat="45.53323" lon="2.82456">
        <ele>1648</ele>
        <time>2019-02-18T13:05:55Z</time>
      </trkpt>
      <trkpt lat="45.53316" lon="2.82454">
        <ele>1649</ele>
        <time>2019-02-18T13:06:07Z</time>
      </trkpt>
      <trkpt lat="45.53311" lon="2.82456">
        <ele>1651</ele>
        <time>2019-02-18T13:06:15Z</time>
      </trkpt>
      <trkpt lat="45.53303" lon="2.82453">
        <ele>1653</ele>
        <time>2019-02-18T13:06:27Z</time>
      </trkpt>
      <trkpt lat="45.53288" lon="2.82445">
        <ele>1655</ele>
        <time>2019-02-18T13:06:50Z</time>
      </trkpt>
      <trkpt lat="45.53281" lon="2.82444">
        <ele>1655</ele>
        <time>2019-02-18T13:06:59Z</time>
      </trkpt>
      <trkpt lat="45.53273" lon="2.82441">
        <ele>1657</ele>
        <time>2019-02-18T13:07:15Z</time>
      </trkpt>
      <trkpt lat="45.53263" lon="2.82441">
        <ele>1660</ele>
        <time>2019-02-18T13:07:27Z</time>
      </trkpt>
      <trkpt lat="45.53249" lon="2.82436">
        <ele>1663</ele>
        <time>2019-02-18T13:07:51Z</time>
      </trkpt>
      <trkpt lat="45.53228" lon="2.82435">
        <ele>1666</ele>
        <time>2019-02-18T13:08:17Z</time>
      </trkpt>
      <trkpt lat="45.53221" lon="2.82432">
        <ele>1668</ele>
        <time>2019-02-18T13:08:29Z</time>
      </trkpt>
      <trkpt lat="45.53212" lon="2.82433">
        <ele>1670</ele>
        <time>2019-02-18T13:08:47Z</time>
      </trkpt>
      <trkpt lat="45.53208" lon="2.82425">
        <ele>1671</ele>
        <time>2019-02-18T13:08:59Z</time>
      </trkpt>
      <trkpt lat="45.53202" lon="2.82424">
        <ele>1672</ele>
        <time>2019-02-18T13:09:06Z</time>
      </trkpt>
      <trkpt lat="45.53197" lon="2.82426">
        <ele>1675</ele>
        <time>2019-02-18T13:09:20Z</time>
      </trkpt>
      <trkpt lat="45.53192" lon="2.8243">
        <ele>1678</ele>
        <time>2019-02-18T13:09:38Z</time>
      </trkpt>
      <trkpt lat="45.53185" lon="2.82433">
        <ele>1680</ele>
        <time>2019-02-18T13:09:50Z</time>
      </trkpt>
      <trkpt lat="45.5318" lon="2.82437">
        <ele>1684</ele>
        <time>2019-02-18T13:10:14Z</time>
      </trkpt>
      <trkpt lat="45.53168" lon="2.82445">
        <ele>1690</ele>
        <time>2019-02-18T13:10:45Z</time>
      </trkpt>
      <trkpt lat="45.53166" lon="2.82452">
        <ele>1695</ele>
        <time>2019-02-18T13:11:01Z</time>
      </trkpt>
      <trkpt lat="45.53158" lon="2.82458">
        <ele>1699</ele>
        <time>2019-02-18T13:11:19Z</time>
      </trkpt>
      <trkpt lat="45.53154" lon="2.8247">
        <ele>1702</ele>
        <time>2019-02-18T13:11:37Z</time>
      </trkpt>
      <trkpt lat="45.5315" lon="2.82478">
        <ele>1704</ele>
        <time>2019-02-18T13:11:49Z</time>
      </trkpt>
      <trkpt lat="45.53147" lon="2.82489">
        <ele>1706</ele>
        <time>2019-02-18T13:12:01Z</time>
      </trkpt>
      <trkpt lat="45.53141" lon="2.82506">
        <ele>1712</ele>
        <time>2019-02-18T13:12:37Z</time>
      </trkpt>
      <trkpt lat="45.53135" lon="2.82509">
        <ele>1712</ele>
        <time>2019-02-18T13:12:49Z</time>
      </trkpt>
      <trkpt lat="45.53129" lon="2.82503">
        <ele>1714</ele>
        <time>2019-02-18T13:13:13Z</time>
      </trkpt>
      <trkpt lat="45.53129" lon="2.82494">
        <ele>1715</ele>
        <time>2019-02-18T13:13:25Z</time>
      </trkpt>
      <trkpt lat="45.53126" lon="2.82483">
        <ele>1718</ele>
        <time>2019-02-18T13:14:13Z</time>
      </trkpt>
      <trkpt lat="45.53119" lon="2.8249">
        <ele>1724</ele>
        <time>2019-02-18T13:14:56Z</time>
      </trkpt>
      <trkpt lat="45.53115" lon="2.82478">
        <ele>1729</ele>
        <time>2019-02-18T13:15:45Z</time>
      </trkpt>
      <trkpt lat="45.53108" lon="2.82473">
        <ele>1732</ele>
        <time>2019-02-18T13:16:33Z</time>
      </trkpt>
      <trkpt lat="45.53106" lon="2.82466">
        <ele>1735</ele>
        <time>2019-02-18T13:16:45Z</time>
      </trkpt>
      <trkpt lat="45.53091" lon="2.82467">
        <ele>1735</ele>
        <time>2019-02-18T13:17:23Z</time>
      </trkpt>
      <trkpt lat="45.53075" lon="2.82456">
        <ele>1735</ele>
        <time>2019-02-18T13:17:42Z</time>
      </trkpt>
      <trkpt lat="45.53068" lon="2.82452">
        <ele>1734</ele>
        <time>2019-02-18T13:17:52Z</time>
      </trkpt>
      <trkpt lat="45.53055" lon="2.8243">
        <ele>1738</ele>
        <time>2019-02-18T13:18:13Z</time>
      </trkpt>
      <trkpt lat="45.53052" lon="2.82422">
        <ele>1738</ele>
        <time>2019-02-18T13:18:22Z</time>
      </trkpt>
      <trkpt lat="45.53047" lon="2.82413">
        <ele>1740</ele>
        <time>2019-02-18T13:18:29Z</time>
      </trkpt>
      <trkpt lat="45.53041" lon="2.82405">
        <ele>1741</ele>
        <time>2019-02-18T13:18:44Z</time>
      </trkpt>
      <trkpt lat="45.53034" lon="2.82392">
        <ele>1741</ele>
        <time>2019-02-18T13:18:56Z</time>
      </trkpt>
      <trkpt lat="45.53026" lon="2.82387">
        <ele>1741</ele>
        <time>2019-02-18T13:19:05Z</time>
      </trkpt>
      <trkpt lat="45.53023" lon="2.8238">
        <ele>1742</ele>
        <time>2019-02-18T13:19:09Z</time>
      </trkpt>
      <trkpt lat="45.53018" lon="2.82375">
        <ele>1743</ele>
        <time>2019-02-18T13:19:17Z</time>
      </trkpt>
      <trkpt lat="45.53015" lon="2.82369">
        <ele>1744</ele>
        <time>2019-02-18T13:19:22Z</time>
      </trkpt>
      <trkpt lat="45.53011" lon="2.82352">
        <ele>1745</ele>
        <time>2019-02-18T13:19:33Z</time>
      </trkpt>
      <trkpt lat="45.53007" lon="2.82348">
        <ele>1746</ele>
        <time>2019-02-18T13:19:41Z</time>
      </trkpt>
      <trkpt lat="45.52999" lon="2.82327">
        <ele>1751</ele>
        <time>2019-02-18T13:20:05Z</time>
      </trkpt>
      <trkpt lat="45.52996" lon="2.82321">
        <ele>1754</ele>
        <time>2019-02-18T13:20:23Z</time>
      </trkpt>
      <trkpt lat="45.52991" lon="2.82314">
        <ele>1757</ele>
        <time>2019-02-18T13:20:41Z</time>
      </trkpt>
      <trkpt lat="45.52981" lon="2.82295">
        <ele>1759</ele>
        <time>2019-02-18T13:21:09Z</time>
      </trkpt>
      <trkpt lat="45.52974" lon="2.82271">
        <ele>1765</ele>
        <time>2019-02-18T13:21:45Z</time>
      </trkpt>
      <trkpt lat="45.5297" lon="2.82261">
        <ele>1765</ele>
        <time>2019-02-18T13:21:55Z</time>
      </trkpt>
      <trkpt lat="45.52964" lon="2.82248">
        <ele>1767</ele>
        <time>2019-02-18T13:22:07Z</time>
      </trkpt>
      <trkpt lat="45.52958" lon="2.82243">
        <ele>1768</ele>
        <time>2019-02-18T13:22:13Z</time>
      </trkpt>
      <trkpt lat="45.52956" lon="2.82232">
        <ele>1768</ele>
        <time>2019-02-18T13:22:22Z</time>
      </trkpt>
      <trkpt lat="45.52951" lon="2.82223">
        <ele>1769</ele>
        <time>2019-02-18T13:22:50Z</time>
      </trkpt>
      <trkpt lat="45.52928" lon="2.8221">
        <ele>1749</ele>
        <time>2019-02-18T13:23:56Z</time>
      </trkpt>
      <trkpt lat="45.52916" lon="2.82195">
        <ele>1741</ele>
        <time>2019-02-18T13:24:24Z</time>
      </trkpt>
      <trkpt lat="45.52909" lon="2.82185">
        <ele>1733</ele>
        <time>2019-02-18T13:24:53Z</time>
      </trkpt>
      <trkpt lat="45.52905" lon="2.82179">
        <ele>1733</ele>
        <time>2019-02-18T13:24:59Z</time>
      </trkpt>
      <trkpt lat="45.52899" lon="2.82173">
        <ele>1730</ele>
        <time>2019-02-18T13:25:07Z</time>
      </trkpt>
      <trkpt lat="45.5288" lon="2.82162">
        <ele>1725</ele>
        <time>2019-02-18T13:25:23Z</time>
      </trkpt>
      <trkpt lat="45.52874" lon="2.82163">
        <ele>1724</ele>
        <time>2019-02-18T13:25:28Z</time>
      </trkpt>
      <trkpt lat="45.52867" lon="2.82158">
        <ele>1722</ele>
        <time>2019-02-18T13:25:35Z</time>
      </trkpt>
      <trkpt lat="45.52863" lon="2.82153">
        <ele>1722</ele>
        <time>2019-02-18T13:25:40Z</time>
      </trkpt>
      <trkpt lat="45.52855" lon="2.82151">
        <ele>1722</ele>
        <time>2019-02-18T13:25:53Z</time>
      </trkpt>
      <trkpt lat="45.52847" lon="2.82148">
        <ele>1723</ele>
        <time>2019-02-18T13:26:01Z</time>
      </trkpt>
      <trkpt lat="45.52836" lon="2.82141">
        <ele>1725</ele>
        <time>2019-02-18T13:26:15Z</time>
      </trkpt>
      <trkpt lat="45.52832" lon="2.82137">
        <ele>1725</ele>
        <time>2019-02-18T13:26:21Z</time>
      </trkpt>
      <trkpt lat="45.52826" lon="2.82133">
        <ele>1726</ele>
        <time>2019-02-18T13:26:27Z</time>
      </trkpt>
      <trkpt lat="45.52819" lon="2.82125">
        <ele>1729</ele>
        <time>2019-02-18T13:26:41Z</time>
      </trkpt>
      <trkpt lat="45.52813" lon="2.82113">
        <ele>1730</ele>
        <time>2019-02-18T13:26:53Z</time>
      </trkpt>
      <trkpt lat="45.52811" lon="2.82105">
        <ele>1730</ele>
        <time>2019-02-18T13:26:58Z</time>
      </trkpt>
      <trkpt lat="45.52808" lon="2.82099">
        <ele>1730</ele>
        <time>2019-02-18T13:27:04Z</time>
      </trkpt>
      <trkpt lat="45.52803" lon="2.82095">
        <ele>1731</ele>
        <time>2019-02-18T13:27:10Z</time>
      </trkpt>
      <trkpt lat="45.528" lon="2.82087">
        <ele>1732</ele>
        <time>2019-02-18T13:27:18Z</time>
      </trkpt>
      <trkpt lat="45.528" lon="2.82069">
        <ele>1735</ele>
        <time>2019-02-18T13:27:37Z</time>
      </trkpt>
      <trkpt lat="45.52796" lon="2.82056">
        <ele>1737</ele>
        <time>2019-02-18T13:27:50Z</time>
      </trkpt>
      <trkpt lat="45.52792" lon="2.82041">
        <ele>1737</ele>
        <time>2019-02-18T13:28:00Z</time>
      </trkpt>
      <trkpt lat="45.5279" lon="2.82033">
        <ele>1739</ele>
        <time>2019-02-18T13:28:05Z</time>
      </trkpt>
      <trkpt lat="45.52785" lon="2.82023">
        <ele>1740</ele>
        <time>2019-02-18T13:28:13Z</time>
      </trkpt>
      <trkpt lat="45.52783" lon="2.82016">
        <ele>1740</ele>
        <time>2019-02-18T13:28:19Z</time>
      </trkpt>
      <trkpt lat="45.52783" lon="2.82002">
        <ele>1742</ele>
        <time>2019-02-18T13:28:51Z</time>
      </trkpt>
      <trkpt lat="45.52779" lon="2.81989">
        <ele>1743</ele>
        <time>2019-02-18T13:29:02Z</time>
      </trkpt>
      <trkpt lat="45.52781" lon="2.81976">
        <ele>1745</ele>
        <time>2019-02-18T13:29:16Z</time>
      </trkpt>
      <trkpt lat="45.52777" lon="2.81954">
        <ele>1748</ele>
        <time>2019-02-18T13:29:36Z</time>
      </trkpt>
      <trkpt lat="45.52778" lon="2.81924">
        <ele>1752</ele>
        <time>2019-02-18T13:30:14Z</time>
      </trkpt>
      <trkpt lat="45.52776" lon="2.81914">
        <ele>1754</ele>
        <time>2019-02-18T13:30:26Z</time>
      </trkpt>
      <trkpt lat="45.52773" lon="2.81906">
        <ele>1755</ele>
        <time>2019-02-18T13:30:38Z</time>
      </trkpt>
      <trkpt lat="45.52775" lon="2.81895">
        <ele>1757</ele>
        <time>2019-02-18T13:30:50Z</time>
      </trkpt>
      <trkpt lat="45.52774" lon="2.81883">
        <ele>1759</ele>
        <time>2019-02-18T13:31:05Z</time>
      </trkpt>
      <trkpt lat="45.52777" lon="2.81874">
        <ele>1760</ele>
        <time>2019-02-18T13:31:16Z</time>
      </trkpt>
      <trkpt lat="45.52775" lon="2.81864">
        <ele>1761</ele>
        <time>2019-02-18T13:31:26Z</time>
      </trkpt>
      <trkpt lat="45.52772" lon="2.81858">
        <ele>1761</ele>
        <time>2019-02-18T13:31:32Z</time>
      </trkpt>
      <trkpt lat="45.52767" lon="2.81842">
        <ele>1764</ele>
        <time>2019-02-18T13:32:00Z</time>
      </trkpt>
      <trkpt lat="45.52768" lon="2.81811">
        <ele>1766</ele>
        <time>2019-02-18T13:32:36Z</time>
      </trkpt>
      <trkpt lat="45.52768" lon="2.81801">
        <ele>1768</ele>
        <time>2019-02-18T13:32:48Z</time>
      </trkpt>
      <trkpt lat="45.52765" lon="2.81782">
        <ele>1770</ele>
        <time>2019-02-18T13:33:08Z</time>
      </trkpt>
      <trkpt lat="45.52765" lon="2.81771">
        <ele>1771</ele>
        <time>2019-02-18T13:33:20Z</time>
      </trkpt>
      <trkpt lat="45.52761" lon="2.81759">
        <ele>1772</ele>
        <time>2019-02-18T13:33:32Z</time>
      </trkpt>
      <trkpt lat="45.52764" lon="2.8174">
        <ele>1773</ele>
        <time>2019-02-18T13:33:58Z</time>
      </trkpt>
      <trkpt lat="45.52765" lon="2.8173">
        <ele>1774</ele>
        <time>2019-02-18T13:34:06Z</time>
      </trkpt>
      <trkpt lat="45.52768" lon="2.81716">
        <ele>1775</ele>
        <time>2019-02-18T13:34:18Z</time>
      </trkpt>
      <trkpt lat="45.52771" lon="2.81704">
        <ele>1776</ele>
        <time>2019-02-18T13:34:29Z</time>
      </trkpt>
      <trkpt lat="45.52771" lon="2.81697">
        <ele>1776</ele>
        <time>2019-02-18T13:35:11Z</time>
      </trkpt>
      <trkpt lat="45.52769" lon="2.81689">
        <ele>1782</ele>
        <time>2019-02-18T13:37:05Z</time>
      </trkpt>
      <trkpt lat="45.52771" lon="2.81677">
        <ele>1786</ele>
        <time>2019-02-18T13:37:35Z</time>
      </trkpt>
      <trkpt lat="45.52769" lon="2.81667">
        <ele>1789</ele>
        <time>2019-02-18T13:37:59Z</time>
      </trkpt>
      <trkpt lat="45.52772" lon="2.81656">
        <ele>1796</ele>
        <time>2019-02-18T13:38:35Z</time>
      </trkpt>
      <trkpt lat="45.52775" lon="2.81646">
        <ele>1797</ele>
        <time>2019-02-18T13:38:43Z</time>
      </trkpt>
      <trkpt lat="45.52784" lon="2.81633">
        <ele>1799</ele>
        <time>2019-02-18T13:38:58Z</time>
      </trkpt>
      <trkpt lat="45.52783" lon="2.81619">
        <ele>1805</ele>
        <time>2019-02-18T13:39:40Z</time>
      </trkpt>
      <trkpt lat="45.52783" lon="2.81605">
        <ele>1808</ele>
        <time>2019-02-18T13:40:10Z</time>
      </trkpt>
      <trkpt lat="45.52784" lon="2.81593">
        <ele>1812</ele>
        <time>2019-02-18T13:40:39Z</time>
      </trkpt>
      <trkpt lat="45.52786" lon="2.81581">
        <ele>1816</ele>
        <time>2019-02-18T13:41:09Z</time>
      </trkpt>
      <trkpt lat="45.52787" lon="2.81571">
        <ele>1821</ele>
        <time>2019-02-18T13:42:03Z</time>
      </trkpt>
      <trkpt lat="45.52787" lon="2.8156">
        <ele>1826</ele>
        <time>2019-02-18T13:42:39Z</time>
      </trkpt>
      <trkpt lat="45.52791" lon="2.81548">
        <ele>1830</ele>
        <time>2019-02-18T13:43:21Z</time>
      </trkpt>
      <trkpt lat="45.52788" lon="2.81537">
        <ele>1833</ele>
        <time>2019-02-18T13:43:45Z</time>
      </trkpt>
      <trkpt lat="45.52784" lon="2.81525">
        <ele>1838</ele>
        <time>2019-02-18T13:44:39Z</time>
      </trkpt>
      <trkpt lat="45.52783" lon="2.81513">
        <ele>1843</ele>
        <time>2019-02-18T13:45:15Z</time>
      </trkpt>
      <trkpt lat="45.52785" lon="2.81503">
        <ele>1846</ele>
        <time>2019-02-18T13:45:44Z</time>
      </trkpt>
      <trkpt lat="45.52787" lon="2.81492">
        <ele>1854</ele>
        <time>2019-02-18T13:46:37Z</time>
      </trkpt>
      <trkpt lat="45.52789" lon="2.81474">
        <ele>1857</ele>
        <time>2019-02-18T13:47:07Z</time>
      </trkpt>
      <trkpt lat="45.52797" lon="2.81464">
        <ele>1860</ele>
        <time>2019-02-18T13:47:33Z</time>
      </trkpt>
      <trkpt lat="45.52798" lon="2.81446">
        <ele>1866</ele>
        <time>2019-02-18T13:48:07Z</time>
      </trkpt>
      <trkpt lat="45.52802" lon="2.81438">
        <ele>1869</ele>
        <time>2019-02-18T13:48:31Z</time>
      </trkpt>
      <trkpt lat="45.52805" lon="2.81413">
        <ele>1876</ele>
        <time>2019-02-18T13:49:08Z</time>
      </trkpt>
      <trkpt lat="45.52812" lon="2.81409">
        <ele>1876</ele>
        <time>2019-02-18T13:50:21Z</time>
      </trkpt>
      <trkpt lat="45.52818" lon="2.81399">
        <ele>1880</ele>
        <time>2019-02-18T13:51:09Z</time>
      </trkpt>
      <trkpt lat="45.52821" lon="2.81392">
        <ele>1880</ele>
        <time>2019-02-18T13:51:27Z</time>
      </trkpt>
      <trkpt lat="45.52828" lon="2.81393">
        <ele>1881</ele>
        <time>2019-02-18T13:51:57Z</time>
      </trkpt>
      <trkpt lat="45.52831" lon="2.81392">
        <ele>1881</ele>
        <time>2019-02-18T13:55:31Z</time>
      </trkpt>
      <trkpt lat="45.52833" lon="2.81385">
        <ele>1881</ele>
        <time>2019-02-18T13:55:59Z</time>
      </trkpt>
      <trkpt lat="45.52835" lon="2.81398">
        <ele>1878</ele>
        <time>2019-02-18T13:56:40Z</time>
      </trkpt>
      <trkpt lat="45.52829" lon="2.81394">
        <ele>1879</ele>
        <time>2019-02-18T13:57:17Z</time>
      </trkpt>
      <trkpt lat="45.52824" lon="2.81399">
        <ele>1879</ele>
        <time>2019-02-18T13:59:17Z</time>
      </trkpt>
      <trkpt lat="45.52818" lon="2.8139">
        <ele>1878</ele>
        <time>2019-02-18T13:59:35Z</time>
      </trkpt>
      <trkpt lat="45.52828" lon="2.81382">
        <ele>1874</ele>
        <time>2019-02-18T14:00:20Z</time>
      </trkpt>
      <trkpt lat="45.52843" lon="2.81374">
        <ele>1871</ele>
        <time>2019-02-18T14:00:35Z</time>
      </trkpt>
      <trkpt lat="45.5285" lon="2.81366">
        <ele>1869</ele>
        <time>2019-02-18T14:00:45Z</time>
      </trkpt>
      <trkpt lat="45.52864" lon="2.81338">
        <ele>1865</ele>
        <time>2019-02-18T14:01:05Z</time>
      </trkpt>
      <trkpt lat="45.52867" lon="2.81333">
        <ele>1865</ele>
        <time>2019-02-18T14:01:19Z</time>
      </trkpt>
      <trkpt lat="45.52869" lon="2.81327">
        <ele>1864</ele>
        <time>2019-02-18T14:04:37Z</time>
      </trkpt>
      <trkpt lat="45.52875" lon="2.81328">
        <ele>1862</ele>
        <time>2019-02-18T14:04:48Z</time>
      </trkpt>
      <trkpt lat="45.52881" lon="2.81325">
        <ele>1860</ele>
        <time>2019-02-18T14:05:00Z</time>
      </trkpt>
      <trkpt lat="45.52888" lon="2.81319">
        <ele>1859</ele>
        <time>2019-02-18T14:05:12Z</time>
      </trkpt>
      <trkpt lat="45.52895" lon="2.81315">
        <ele>1857</ele>
        <time>2019-02-18T14:05:30Z</time>
      </trkpt>
      <trkpt lat="45.52902" lon="2.81311">
        <ele>1852</ele>
        <time>2019-02-18T14:06:00Z</time>
      </trkpt>
      <trkpt lat="45.52902" lon="2.8131">
        <ele>1849</ele>
        <time>2019-02-18T14:07:28Z</time>
      </trkpt>
      <trkpt lat="45.52912" lon="2.81311">
        <ele>1846</ele>
        <time>2019-02-18T14:08:13Z</time>
      </trkpt>
      <trkpt lat="45.52918" lon="2.81309">
        <ele>1837</ele>
        <time>2019-02-18T14:09:46Z</time>
      </trkpt>
      <trkpt lat="45.52921" lon="2.81301">
        <ele>1836</ele>
        <time>2019-02-18T14:10:16Z</time>
      </trkpt>
      <trkpt lat="45.52926" lon="2.81298">
        <ele>1834</ele>
        <time>2019-02-18T14:11:28Z</time>
      </trkpt>
      <trkpt lat="45.52927" lon="2.8129">
        <ele>1833</ele>
        <time>2019-02-18T14:12:28Z</time>
      </trkpt>
      <trkpt lat="45.52929" lon="2.81283">
        <ele>1830</ele>
        <time>2019-02-18T14:14:51Z</time>
      </trkpt>
      <trkpt lat="45.52939" lon="2.81282">
        <ele>1830</ele>
        <time>2019-02-18T14:15:39Z</time>
      </trkpt>
      <trkpt lat="45.52938" lon="2.81274">
        <ele>1828</ele>
        <time>2019-02-18T14:15:57Z</time>
      </trkpt>
      <trkpt lat="45.52942" lon="2.81268">
        <ele>1825</ele>
        <time>2019-02-18T14:16:21Z</time>
      </trkpt>
      <trkpt lat="45.52943" lon="2.81257">
        <ele>1824</ele>
        <time>2019-02-18T14:16:32Z</time>
      </trkpt>
      <trkpt lat="45.52945" lon="2.81247">
        <ele>1823</ele>
        <time>2019-02-18T14:16:52Z</time>
      </trkpt>
      <trkpt lat="45.52938" lon="2.81239">
        <ele>1822</ele>
        <time>2019-02-18T14:17:22Z</time>
      </trkpt>
      <trkpt lat="45.52945" lon="2.81228">
        <ele>1819</ele>
        <time>2019-02-18T14:18:04Z</time>
      </trkpt>
      <trkpt lat="45.52952" lon="2.81236">
        <ele>1816</ele>
        <time>2019-02-18T14:18:22Z</time>
      </trkpt>
      <trkpt lat="45.52956" lon="2.81226">
        <ele>1813</ele>
        <time>2019-02-18T14:18:52Z</time>
      </trkpt>
      <trkpt lat="45.52978" lon="2.81201">
        <ele>1811</ele>
        <time>2019-02-18T14:19:15Z</time>
      </trkpt>
      <trkpt lat="45.52991" lon="2.81174">
        <ele>1812</ele>
        <time>2019-02-18T14:19:45Z</time>
      </trkpt>
      <trkpt lat="45.53" lon="2.81164">
        <ele>1813</ele>
        <time>2019-02-18T14:20:00Z</time>
      </trkpt>
      <trkpt lat="45.53034" lon="2.81155">
        <ele>1816</ele>
        <time>2019-02-18T14:20:32Z</time>
      </trkpt>
      <trkpt lat="45.53038" lon="2.8115">
        <ele>1816</ele>
        <time>2019-02-18T14:20:37Z</time>
      </trkpt>
      <trkpt lat="45.53045" lon="2.81144">
        <ele>1818</ele>
        <time>2019-02-18T14:20:51Z</time>
      </trkpt>
      <trkpt lat="45.5305" lon="2.81138">
        <ele>1819</ele>
        <time>2019-02-18T14:20:57Z</time>
      </trkpt>
      <trkpt lat="45.53055" lon="2.81123">
        <ele>1821</ele>
        <time>2019-02-18T14:21:34Z</time>
      </trkpt>
      <trkpt lat="45.53062" lon="2.81119">
        <ele>1824</ele>
        <time>2019-02-18T14:21:49Z</time>
      </trkpt>
      <trkpt lat="45.53066" lon="2.8111">
        <ele>1828</ele>
        <time>2019-02-18T14:22:13Z</time>
      </trkpt>
      <trkpt lat="45.53067" lon="2.81101">
        <ele>1828</ele>
        <time>2019-02-18T14:22:25Z</time>
      </trkpt>
      <trkpt lat="45.89655" lon="3.22464">
        <ele>246</ele>
        <time>2019-02-19T05:38:55Z</time>
      </trkpt>
      <trkpt lat="45.80625" lon="3.12663">
        <ele>334</ele>
        <time>2019-02-19T07:06:13Z</time>
      </trkpt>
      <trkpt lat="45.80563" lon="3.12492">
        <ele>345</ele>
        <time>2019-02-19T07:06:22Z</time>
      </trkpt>
      <trkpt lat="45.8055" lon="3.12458">
        <ele>346</ele>
        <time>2019-02-19T07:06:24Z</time>
      </trkpt>
      <trkpt lat="45.80542" lon="3.12427">
        <ele>344</ele>
        <time>2019-02-19T07:06:26Z</time>
      </trkpt>
      <trkpt lat="45.80548" lon="3.12392">
        <ele>342</ele>
        <time>2019-02-19T07:06:29Z</time>
      </trkpt>
      <trkpt lat="45.8054" lon="3.12365">
        <ele>337</ele>
        <time>2019-02-19T07:06:31Z</time>
      </trkpt>
      <trkpt lat="45.80534" lon="3.12355">
        <ele>337</ele>
        <time>2019-02-19T07:06:32Z</time>
      </trkpt>
      <trkpt lat="45.80529" lon="3.12346">
        <ele>336</ele>
        <time>2019-02-19T07:06:33Z</time>
      </trkpt>
      <trkpt lat="45.80518" lon="3.12324">
        <ele>337</ele>
        <time>2019-02-19T07:06:36Z</time>
      </trkpt>
      <trkpt lat="45.80493" lon="3.12254">
        <ele>331</ele>
        <time>2019-02-19T07:06:47Z</time>
      </trkpt>
      <trkpt lat="45.78862" lon="3.05195">
        <ele>511</ele>
        <time>2019-02-19T07:21:06Z</time>
      </trkpt>
      <trkpt lat="45.78857" lon="2.99674">
        <ele>519</ele>
        <time>2019-02-19T07:30:33Z</time>
      </trkpt>
      <trkpt lat="45.78846" lon="2.99673">
        <ele>519</ele>
        <time>2019-02-19T07:30:36Z</time>
      </trkpt>
      <trkpt lat="45.78844" lon="2.99696">
        <ele>519</ele>
        <time>2019-02-19T07:30:57Z</time>
      </trkpt>
      <trkpt lat="45.78842" lon="2.99672">
        <ele>519</ele>
        <time>2019-02-19T07:31:21Z</time>
      </trkpt>
      <trkpt lat="45.78856" lon="2.99674">
        <ele>520</ele>
        <time>2019-02-19T07:32:10Z</time>
      </trkpt>
      <trkpt lat="45.78852" lon="2.99684">
        <ele>520</ele>
        <time>2019-02-19T07:32:22Z</time>
      </trkpt>
      <trkpt lat="45.78841" lon="2.99675">
        <ele>520</ele>
        <time>2019-02-19T07:32:58Z</time>
      </trkpt>
      <trkpt lat="45.7885" lon="2.99675">
        <ele>520</ele>
        <time>2019-02-19T07:33:14Z</time>
      </trkpt>
      <trkpt lat="45.78855" lon="2.99677">
        <ele>522</ele>
        <time>2019-02-19T07:35:53Z</time>
      </trkpt>
      <trkpt lat="45.78858" lon="2.99677">
        <ele>523</ele>
        <time>2019-02-19T07:39:01Z</time>
      </trkpt>
      <trkpt lat="45.78859" lon="2.99667">
        <ele>524</ele>
        <time>2019-02-19T07:40:01Z</time>
      </trkpt>
      <trkpt lat="45.7885" lon="2.99635">
        <ele>526</ele>
        <time>2019-02-19T07:43:59Z</time>
      </trkpt>
      <trkpt lat="45.78842" lon="2.99618">
        <ele>526</ele>
        <time>2019-02-19T07:44:09Z</time>
      </trkpt>
      <trkpt lat="45.78842" lon="2.9958">
        <ele>527</ele>
        <time>2019-02-19T07:44:32Z</time>
      </trkpt>
      <trkpt lat="45.78847" lon="2.99547">
        <ele>529</ele>
        <time>2019-02-19T07:44:56Z</time>
      </trkpt>
      <trkpt lat="45.78847" lon="2.99536">
        <ele>530</ele>
        <time>2019-02-19T07:45:05Z</time>
      </trkpt>
      <trkpt lat="45.7885" lon="2.99498">
        <ele>531</ele>
        <time>2019-02-19T07:45:31Z</time>
      </trkpt>
      <trkpt lat="45.78848" lon="2.99478">
        <ele>533</ele>
        <time>2019-02-19T07:45:45Z</time>
      </trkpt>
      <trkpt lat="45.78851" lon="2.99452">
        <ele>534</ele>
        <time>2019-02-19T07:45:59Z</time>
      </trkpt>
      <trkpt lat="45.78849" lon="2.99444">
        <ele>534</ele>
        <time>2019-02-19T07:46:04Z</time>
      </trkpt>
      <trkpt lat="45.78851" lon="2.99423">
        <ele>535</ele>
        <time>2019-02-19T07:46:18Z</time>
      </trkpt>
      <trkpt lat="45.78848" lon="2.99408">
        <ele>535</ele>
        <time>2019-02-19T07:46:28Z</time>
      </trkpt>
      <trkpt lat="45.7885" lon="2.99388">
        <ele>536</ele>
        <time>2019-02-19T07:46:40Z</time>
      </trkpt>
      <trkpt lat="45.78846" lon="2.99373">
        <ele>537</ele>
        <time>2019-02-19T07:46:49Z</time>
      </trkpt>
      <trkpt lat="45.78847" lon="2.99356">
        <ele>538</ele>
        <time>2019-02-19T07:47:00Z</time>
      </trkpt>
      <trkpt lat="45.78844" lon="2.99323">
        <ele>539</ele>
        <time>2019-02-19T07:47:22Z</time>
      </trkpt>
      <trkpt lat="45.78847" lon="2.99316">
        <ele>539</ele>
        <time>2019-02-19T07:47:27Z</time>
      </trkpt>
      <trkpt lat="45.78851" lon="2.99293">
        <ele>541</ele>
        <time>2019-02-19T07:47:44Z</time>
      </trkpt>
      <trkpt lat="45.78851" lon="2.99279">
        <ele>541</ele>
        <time>2019-02-19T07:47:53Z</time>
      </trkpt>
      <trkpt lat="45.78853" lon="2.99269">
        <ele>542</ele>
        <time>2019-02-19T07:47:58Z</time>
      </trkpt>
      <trkpt lat="45.78853" lon="2.99244">
        <ele>543</ele>
        <time>2019-02-19T07:48:06Z</time>
      </trkpt>
      <trkpt lat="45.78859" lon="2.99218">
        <ele>544</ele>
        <time>2019-02-19T07:48:24Z</time>
      </trkpt>
      <trkpt lat="45.7888" lon="2.99164">
        <ele>547</ele>
        <time>2019-02-19T07:48:59Z</time>
      </trkpt>
      <trkpt lat="45.78888" lon="2.99146">
        <ele>547</ele>
        <time>2019-02-19T07:49:12Z</time>
      </trkpt>
      <trkpt lat="45.78898" lon="2.99082">
        <ele>551</ele>
        <time>2019-02-19T07:49:51Z</time>
      </trkpt>
      <trkpt lat="45.78886" lon="2.9907">
        <ele>551</ele>
        <time>2019-02-19T07:50:00Z</time>
      </trkpt>
      <trkpt lat="45.78842" lon="2.99051">
        <ele>553</ele>
        <time>2019-02-19T07:50:34Z</time>
      </trkpt>
      <trkpt lat="45.78833" lon="2.99034">
        <ele>554</ele>
        <time>2019-02-19T07:50:48Z</time>
      </trkpt>
      <trkpt lat="45.78826" lon="2.99017">
        <ele>555</ele>
        <time>2019-02-19T07:51:20Z</time>
      </trkpt>
      <trkpt lat="45.78817" lon="2.99001">
        <ele>556</ele>
        <time>2019-02-19T07:51:46Z</time>
      </trkpt>
      <trkpt lat="45.78809" lon="2.98981">
        <ele>557</ele>
        <time>2019-02-19T07:52:00Z</time>
      </trkpt>
      <trkpt lat="45.78804" lon="2.98962">
        <ele>558</ele>
        <time>2019-02-19T07:52:13Z</time>
      </trkpt>
      <trkpt lat="45.78802" lon="2.98941">
        <ele>559</ele>
        <time>2019-02-19T07:52:25Z</time>
      </trkpt>
      <trkpt lat="45.78792" lon="2.989">
        <ele>559</ele>
        <time>2019-02-19T07:52:42Z</time>
      </trkpt>
      <trkpt lat="45.78789" lon="2.98837">
        <ele>559</ele>
        <time>2019-02-19T07:53:10Z</time>
      </trkpt>
      <trkpt lat="45.78786" lon="2.98817">
        <ele>560</ele>
        <time>2019-02-19T07:53:23Z</time>
      </trkpt>
      <trkpt lat="45.788" lon="2.98771">
        <ele>561</ele>
        <time>2019-02-19T07:53:49Z</time>
      </trkpt>
      <trkpt lat="45.78804" lon="2.98708">
        <ele>562</ele>
        <time>2019-02-19T07:54:22Z</time>
      </trkpt>
      <trkpt lat="45.78802" lon="2.98681">
        <ele>563</ele>
        <time>2019-02-19T07:54:39Z</time>
      </trkpt>
      <trkpt lat="45.78809" lon="2.98645">
        <ele>563</ele>
        <time>2019-02-19T07:55:02Z</time>
      </trkpt>
      <trkpt lat="45.78816" lon="2.98571">
        <ele>561</ele>
        <time>2019-02-19T07:55:41Z</time>
      </trkpt>
      <trkpt lat="45.7883" lon="2.98535">
        <ele>562</ele>
        <time>2019-02-19T07:56:08Z</time>
      </trkpt>
      <trkpt lat="45.78852" lon="2.98506">
        <ele>562</ele>
        <time>2019-02-19T07:56:29Z</time>
      </trkpt>
      <trkpt lat="45.78862" lon="2.98488">
        <ele>563</ele>
        <time>2019-02-19T07:56:40Z</time>
      </trkpt>
      <trkpt lat="45.7887" lon="2.98471">
        <ele>563</ele>
        <time>2019-02-19T07:56:50Z</time>
      </trkpt>
      <trkpt lat="45.78867" lon="2.98443">
        <ele>564</ele>
        <time>2019-02-19T07:57:06Z</time>
      </trkpt>
      <trkpt lat="45.78868" lon="2.98434">
        <ele>563</ele>
        <time>2019-02-19T07:57:20Z</time>
      </trkpt>
      <trkpt lat="45.78871" lon="2.98419">
        <ele>563</ele>
        <time>2019-02-19T07:57:48Z</time>
      </trkpt>
      <trkpt lat="45.78882" lon="2.98397">
        <ele>564</ele>
        <time>2019-02-19T07:57:58Z</time>
      </trkpt>
      <trkpt lat="45.78887" lon="2.98391">
        <ele>564</ele>
        <time>2019-02-19T07:58:02Z</time>
      </trkpt>
      <trkpt lat="45.789" lon="2.98375">
        <ele>565</ele>
        <time>2019-02-19T07:58:16Z</time>
      </trkpt>
      <trkpt lat="45.78909" lon="2.98353">
        <ele>565</ele>
        <time>2019-02-19T07:58:29Z</time>
      </trkpt>
      <trkpt lat="45.78911" lon="2.98345">
        <ele>565</ele>
        <time>2019-02-19T07:58:34Z</time>
      </trkpt>
      <trkpt lat="45.78915" lon="2.98338">
        <ele>566</ele>
        <time>2019-02-19T07:58:39Z</time>
      </trkpt>
      <trkpt lat="45.7892" lon="2.9832">
        <ele>566</ele>
        <time>2019-02-19T07:58:49Z</time>
      </trkpt>
      <trkpt lat="45.78926" lon="2.98306">
        <ele>567</ele>
        <time>2019-02-19T07:58:58Z</time>
      </trkpt>
      <trkpt lat="45.78939" lon="2.98274">
        <ele>567</ele>
        <time>2019-02-19T07:59:19Z</time>
      </trkpt>
      <trkpt lat="45.78942" lon="2.98268">
        <ele>568</ele>
        <time>2019-02-19T07:59:25Z</time>
      </trkpt>
      <trkpt lat="45.78945" lon="2.98251">
        <ele>569</ele>
        <time>2019-02-19T07:59:40Z</time>
      </trkpt>
      <trkpt lat="45.7895" lon="2.98244">
        <ele>568</ele>
        <time>2019-02-19T07:59:44Z</time>
      </trkpt>
      <trkpt lat="45.78952" lon="2.98234">
        <ele>569</ele>
        <time>2019-02-19T07:59:50Z</time>
      </trkpt>
      <trkpt lat="45.78954" lon="2.98226">
        <ele>569</ele>
        <time>2019-02-19T07:59:55Z</time>
      </trkpt>
      <trkpt lat="45.78957" lon="2.98217">
        <ele>569</ele>
        <time>2019-02-19T07:59:59Z</time>
      </trkpt>
      <trkpt lat="45.7896" lon="2.9821">
        <ele>569</ele>
        <time>2019-02-19T08:00:03Z</time>
      </trkpt>
      <trkpt lat="45.78963" lon="2.98194">
        <ele>570</ele>
        <time>2019-02-19T08:00:13Z</time>
      </trkpt>
      <trkpt lat="45.78968" lon="2.98189">
        <ele>571</ele>
        <time>2019-02-19T08:00:21Z</time>
      </trkpt>
      <trkpt lat="45.78972" lon="2.98183">
        <ele>571</ele>
        <time>2019-02-19T08:00:25Z</time>
      </trkpt>
      <trkpt lat="45.78979" lon="2.98179">
        <ele>571</ele>
        <time>2019-02-19T08:00:32Z</time>
      </trkpt>
      <trkpt lat="45.78989" lon="2.98157">
        <ele>572</ele>
        <time>2019-02-19T08:00:46Z</time>
      </trkpt>
      <trkpt lat="45.78994" lon="2.98141">
        <ele>573</ele>
        <time>2019-02-19T08:00:56Z</time>
      </trkpt>
      <trkpt lat="45.78999" lon="2.98136">
        <ele>573</ele>
        <time>2019-02-19T08:01:01Z</time>
      </trkpt>
      <trkpt lat="45.79002" lon="2.98129">
        <ele>573</ele>
        <time>2019-02-19T08:01:06Z</time>
      </trkpt>
      <trkpt lat="45.79005" lon="2.98118">
        <ele>573</ele>
        <time>2019-02-19T08:01:12Z</time>
      </trkpt>
      <trkpt lat="45.79009" lon="2.98112">
        <ele>573</ele>
        <time>2019-02-19T08:01:16Z</time>
      </trkpt>
      <trkpt lat="45.79019" lon="2.9809">
        <ele>574</ele>
        <time>2019-02-19T08:01:35Z</time>
      </trkpt>
      <trkpt lat="45.79037" lon="2.9807">
        <ele>576</ele>
        <time>2019-02-19T08:01:55Z</time>
      </trkpt>
      <trkpt lat="45.79046" lon="2.98049">
        <ele>577</ele>
        <time>2019-02-19T08:02:09Z</time>
      </trkpt>
      <trkpt lat="45.79051" lon="2.98048">
        <ele>577</ele>
        <time>2019-02-19T08:02:15Z</time>
      </trkpt>
      <trkpt lat="45.79076" lon="2.98004">
        <ele>581</ele>
        <time>2019-02-19T08:02:49Z</time>
      </trkpt>
      <trkpt lat="45.79081" lon="2.98001">
        <ele>582</ele>
        <time>2019-02-19T08:02:55Z</time>
      </trkpt>
      <trkpt lat="45.79108" lon="2.97959">
        <ele>586</ele>
        <time>2019-02-19T08:03:30Z</time>
      </trkpt>
      <trkpt lat="45.7912" lon="2.97949">
        <ele>588</ele>
        <time>2019-02-19T08:03:42Z</time>
      </trkpt>
      <trkpt lat="45.79123" lon="2.9794">
        <ele>588</ele>
        <time>2019-02-19T08:03:47Z</time>
      </trkpt>
      <trkpt lat="45.79123" lon="2.97931">
        <ele>589</ele>
        <time>2019-02-19T08:03:51Z</time>
      </trkpt>
      <trkpt lat="45.79122" lon="2.97924">
        <ele>589</ele>
        <time>2019-02-19T08:03:56Z</time>
      </trkpt>
      <trkpt lat="45.79127" lon="2.97901">
        <ele>591</ele>
        <time>2019-02-19T08:04:12Z</time>
      </trkpt>
      <trkpt lat="45.7913" lon="2.97894">
        <ele>592</ele>
        <time>2019-02-19T08:04:17Z</time>
      </trkpt>
      <trkpt lat="45.79134" lon="2.97881">
        <ele>593</ele>
        <time>2019-02-19T08:04:28Z</time>
      </trkpt>
      <trkpt lat="45.7915" lon="2.97846">
        <ele>596</ele>
        <time>2019-02-19T08:04:59Z</time>
      </trkpt>
      <trkpt lat="45.79156" lon="2.97833">
        <ele>597</ele>
        <time>2019-02-19T08:05:09Z</time>
      </trkpt>
      <trkpt lat="45.7916" lon="2.97823">
        <ele>598</ele>
        <time>2019-02-19T08:05:17Z</time>
      </trkpt>
      <trkpt lat="45.79167" lon="2.97818">
        <ele>599</ele>
        <time>2019-02-19T08:05:27Z</time>
      </trkpt>
      <trkpt lat="45.79194" lon="2.97777">
        <ele>602</ele>
        <time>2019-02-19T08:05:59Z</time>
      </trkpt>
      <trkpt lat="45.79218" lon="2.97739">
        <ele>606</ele>
        <time>2019-02-19T08:06:31Z</time>
      </trkpt>
      <trkpt lat="45.79227" lon="2.97726">
        <ele>609</ele>
        <time>2019-02-19T08:07:18Z</time>
      </trkpt>
      <trkpt lat="45.79232" lon="2.9772">
        <ele>610</ele>
        <time>2019-02-19T08:07:24Z</time>
      </trkpt>
      <trkpt lat="45.79233" lon="2.97713">
        <ele>610</ele>
        <time>2019-02-19T08:07:29Z</time>
      </trkpt>
      <trkpt lat="45.79233" lon="2.97701">
        <ele>611</ele>
        <time>2019-02-19T08:07:37Z</time>
      </trkpt>
      <trkpt lat="45.79231" lon="2.97685">
        <ele>612</ele>
        <time>2019-02-19T08:07:48Z</time>
      </trkpt>
      <trkpt lat="45.79232" lon="2.97676">
        <ele>613</ele>
        <time>2019-02-19T08:07:54Z</time>
      </trkpt>
      <trkpt lat="45.79235" lon="2.97649">
        <ele>616</ele>
        <time>2019-02-19T08:08:13Z</time>
      </trkpt>
      <trkpt lat="45.79235" lon="2.97639">
        <ele>616</ele>
        <time>2019-02-19T08:08:17Z</time>
      </trkpt>
      <trkpt lat="45.79237" lon="2.97615">
        <ele>618</ele>
        <time>2019-02-19T08:08:30Z</time>
      </trkpt>
      <trkpt lat="45.79235" lon="2.97606">
        <ele>619</ele>
        <time>2019-02-19T08:08:37Z</time>
      </trkpt>
      <trkpt lat="45.79231" lon="2.976">
        <ele>619</ele>
        <time>2019-02-19T08:08:41Z</time>
      </trkpt>
      <trkpt lat="45.79231" lon="2.97587">
        <ele>620</ele>
        <time>2019-02-19T08:08:50Z</time>
      </trkpt>
      <trkpt lat="45.79228" lon="2.97572">
        <ele>621</ele>
        <time>2019-02-19T08:09:00Z</time>
      </trkpt>
      <trkpt lat="45.79231" lon="2.97563">
        <ele>622</ele>
        <time>2019-02-19T08:09:08Z</time>
      </trkpt>
      <trkpt lat="45.79231" lon="2.97555">
        <ele>623</ele>
        <time>2019-02-19T08:09:13Z</time>
      </trkpt>
      <trkpt lat="45.79227" lon="2.97521">
        <ele>626</ele>
        <time>2019-02-19T08:09:35Z</time>
      </trkpt>
      <trkpt lat="45.79231" lon="2.97505">
        <ele>627</ele>
        <time>2019-02-19T08:09:46Z</time>
      </trkpt>
      <trkpt lat="45.79231" lon="2.97497">
        <ele>628</ele>
        <time>2019-02-19T08:09:51Z</time>
      </trkpt>
      <trkpt lat="45.79235" lon="2.97491">
        <ele>629</ele>
        <time>2019-02-19T08:09:56Z</time>
      </trkpt>
      <trkpt lat="45.79231" lon="2.97483">
        <ele>630</ele>
        <time>2019-02-19T08:10:04Z</time>
      </trkpt>
      <trkpt lat="45.7923" lon="2.97445">
        <ele>635</ele>
        <time>2019-02-19T08:10:38Z</time>
      </trkpt>
      <trkpt lat="45.7923" lon="2.97422">
        <ele>637</ele>
        <time>2019-02-19T08:10:57Z</time>
      </trkpt>
      <trkpt lat="45.79238" lon="2.97402">
        <ele>640</ele>
        <time>2019-02-19T08:11:18Z</time>
      </trkpt>
      <trkpt lat="45.79238" lon="2.97389">
        <ele>642</ele>
        <time>2019-02-19T08:11:34Z</time>
      </trkpt>
      <trkpt lat="45.79241" lon="2.97378">
        <ele>645</ele>
        <time>2019-02-19T08:11:53Z</time>
      </trkpt>
      <trkpt lat="45.79242" lon="2.97364">
        <ele>647</ele>
        <time>2019-02-19T08:12:06Z</time>
      </trkpt>
      <trkpt lat="45.79246" lon="2.97345">
        <ele>651</ele>
        <time>2019-02-19T08:12:28Z</time>
      </trkpt>
      <trkpt lat="45.79246" lon="2.97332">
        <ele>652</ele>
        <time>2019-02-19T08:12:40Z</time>
      </trkpt>
      <trkpt lat="45.79248" lon="2.9732">
        <ele>654</ele>
        <time>2019-02-19T08:12:52Z</time>
      </trkpt>
      <trkpt lat="45.79254" lon="2.97302">
        <ele>658</ele>
        <time>2019-02-19T08:13:17Z</time>
      </trkpt>
      <trkpt lat="45.79256" lon="2.97278">
        <ele>661</ele>
        <time>2019-02-19T08:13:41Z</time>
      </trkpt>
      <trkpt lat="45.79257" lon="2.9727">
        <ele>663</ele>
        <time>2019-02-19T08:13:51Z</time>
      </trkpt>
      <trkpt lat="45.79256" lon="2.97247">
        <ele>666</ele>
        <time>2019-02-19T08:14:14Z</time>
      </trkpt>
      <trkpt lat="45.79252" lon="2.97238">
        <ele>667</ele>
        <time>2019-02-19T08:14:22Z</time>
      </trkpt>
      <trkpt lat="45.79256" lon="2.97224">
        <ele>669</ele>
        <time>2019-02-19T08:14:40Z</time>
      </trkpt>
      <trkpt lat="45.7926" lon="2.97214">
        <ele>671</ele>
        <time>2019-02-19T08:14:52Z</time>
      </trkpt>
      <trkpt lat="45.79262" lon="2.97202">
        <ele>672</ele>
        <time>2019-02-19T08:15:04Z</time>
      </trkpt>
      <trkpt lat="45.79265" lon="2.97191">
        <ele>675</ele>
        <time>2019-02-19T08:15:22Z</time>
      </trkpt>
      <trkpt lat="45.79266" lon="2.97179">
        <ele>676</ele>
        <time>2019-02-19T08:15:34Z</time>
      </trkpt>
      <trkpt lat="45.79266" lon="2.9717">
        <ele>677</ele>
        <time>2019-02-19T08:15:39Z</time>
      </trkpt>
      <trkpt lat="45.79261" lon="2.9716">
        <ele>679</ele>
        <time>2019-02-19T08:15:53Z</time>
      </trkpt>
      <trkpt lat="45.79261" lon="2.9715">
        <ele>680</ele>
        <time>2019-02-19T08:16:00Z</time>
      </trkpt>
      <trkpt lat="45.79262" lon="2.97142">
        <ele>682</ele>
        <time>2019-02-19T08:16:09Z</time>
      </trkpt>
      <trkpt lat="45.79265" lon="2.97134">
        <ele>682</ele>
        <time>2019-02-19T08:16:14Z</time>
      </trkpt>
      <trkpt lat="45.7927" lon="2.97126">
        <ele>684</ele>
        <time>2019-02-19T08:16:28Z</time>
      </trkpt>
      <trkpt lat="45.79274" lon="2.97119">
        <ele>686</ele>
        <time>2019-02-19T08:16:40Z</time>
      </trkpt>
      <trkpt lat="45.79278" lon="2.9711">
        <ele>688</ele>
        <time>2019-02-19T08:16:52Z</time>
      </trkpt>
      <trkpt lat="45.79283" lon="2.97093">
        <ele>691</ele>
        <time>2019-02-19T08:17:11Z</time>
      </trkpt>
      <trkpt lat="45.79286" lon="2.97086">
        <ele>692</ele>
        <time>2019-02-19T08:17:20Z</time>
      </trkpt>
      <trkpt lat="45.79286" lon="2.97074">
        <ele>694</ele>
        <time>2019-02-19T08:17:32Z</time>
      </trkpt>
      <trkpt lat="45.79291" lon="2.97053">
        <ele>698</ele>
        <time>2019-02-19T08:17:57Z</time>
      </trkpt>
      <trkpt lat="45.79293" lon="2.97041">
        <ele>700</ele>
        <time>2019-02-19T08:18:09Z</time>
      </trkpt>
      <trkpt lat="45.79295" lon="2.97033">
        <ele>701</ele>
        <time>2019-02-19T08:18:16Z</time>
      </trkpt>
      <trkpt lat="45.79298" lon="2.97026">
        <ele>703</ele>
        <time>2019-02-19T08:18:30Z</time>
      </trkpt>
      <trkpt lat="45.79293" lon="2.97013">
        <ele>704</ele>
        <time>2019-02-19T08:18:43Z</time>
      </trkpt>
      <trkpt lat="45.79295" lon="2.97">
        <ele>706</ele>
        <time>2019-02-19T08:18:57Z</time>
      </trkpt>
      <trkpt lat="45.79303" lon="2.96985">
        <ele>709</ele>
        <time>2019-02-19T08:19:12Z</time>
      </trkpt>
      <trkpt lat="45.7931" lon="2.96977">
        <ele>711</ele>
        <time>2019-02-19T08:19:26Z</time>
      </trkpt>
      <trkpt lat="45.79311" lon="2.96966">
        <ele>712</ele>
        <time>2019-02-19T08:19:37Z</time>
      </trkpt>
      <trkpt lat="45.79316" lon="2.96945">
        <ele>716</ele>
        <time>2019-02-19T08:20:03Z</time>
      </trkpt>
      <trkpt lat="45.79317" lon="2.96936">
        <ele>717</ele>
        <time>2019-02-19T08:20:11Z</time>
      </trkpt>
      <trkpt lat="45.79325" lon="2.96916">
        <ele>720</ele>
        <time>2019-02-19T08:20:35Z</time>
      </trkpt>
      <trkpt lat="45.79323" lon="2.96909">
        <ele>720</ele>
        <time>2019-02-19T08:20:40Z</time>
      </trkpt>
      <trkpt lat="45.79324" lon="2.96901">
        <ele>721</ele>
        <time>2019-02-19T08:20:46Z</time>
      </trkpt>
      <trkpt lat="45.7933" lon="2.96897">
        <ele>723</ele>
        <time>2019-02-19T08:20:58Z</time>
      </trkpt>
      <trkpt lat="45.79335" lon="2.96902">
        <ele>724</ele>
        <time>2019-02-19T08:21:26Z</time>
      </trkpt>
      <trkpt lat="45.79339" lon="2.96908">
        <ele>726</ele>
        <time>2019-02-19T08:21:57Z</time>
      </trkpt>
      <trkpt lat="45.79348" lon="2.96938">
        <ele>733</ele>
        <time>2019-02-19T08:22:38Z</time>
      </trkpt>
      <trkpt lat="45.79353" lon="2.96947">
        <ele>734</ele>
        <time>2019-02-19T08:22:49Z</time>
      </trkpt>
      <trkpt lat="45.79358" lon="2.96969">
        <ele>735</ele>
        <time>2019-02-19T08:23:06Z</time>
      </trkpt>
      <trkpt lat="45.7936" lon="2.96977">
        <ele>736</ele>
        <time>2019-02-19T08:23:13Z</time>
      </trkpt>
      <trkpt lat="45.79371" lon="2.96994">
        <ele>742</ele>
        <time>2019-02-19T08:23:39Z</time>
      </trkpt>
      <trkpt lat="45.79386" lon="2.97012">
        <ele>748</ele>
        <time>2019-02-19T08:24:10Z</time>
      </trkpt>
      <trkpt lat="45.79396" lon="2.97022">
        <ele>751</ele>
        <time>2019-02-19T08:24:28Z</time>
      </trkpt>
      <trkpt lat="45.79402" lon="2.9706">
        <ele>757</ele>
        <time>2019-02-19T08:25:07Z</time>
      </trkpt>
      <trkpt lat="45.79414" lon="2.97102">
        <ele>765</ele>
        <time>2019-02-19T08:25:52Z</time>
      </trkpt>
      <trkpt lat="45.7943" lon="2.97152">
        <ele>772</ele>
        <time>2019-02-19T08:26:40Z</time>
      </trkpt>
      <trkpt lat="45.79444" lon="2.97186">
        <ele>777</ele>
        <time>2019-02-19T08:27:12Z</time>
      </trkpt>
      <trkpt lat="45.79449" lon="2.97191">
        <ele>778</ele>
        <time>2019-02-19T08:27:17Z</time>
      </trkpt>
      <trkpt lat="45.79455" lon="2.97205">
        <ele>780</ele>
        <time>2019-02-19T08:27:30Z</time>
      </trkpt>
      <trkpt lat="45.79461" lon="2.97215">
        <ele>781</ele>
        <time>2019-02-19T08:27:41Z</time>
      </trkpt>
      <trkpt lat="45.79468" lon="2.97223">
        <ele>783</ele>
        <time>2019-02-19T08:27:53Z</time>
      </trkpt>
      <trkpt lat="45.79476" lon="2.97231">
        <ele>786</ele>
        <time>2019-02-19T08:28:08Z</time>
      </trkpt>
      <trkpt lat="45.79481" lon="2.97232">
        <ele>789</ele>
        <time>2019-02-19T08:29:22Z</time>
      </trkpt>
      <trkpt lat="45.79485" lon="2.9724">
        <ele>791</ele>
        <time>2019-02-19T08:29:36Z</time>
      </trkpt>
      <trkpt lat="45.79496" lon="2.97246">
        <ele>792</ele>
        <time>2019-02-19T08:29:50Z</time>
      </trkpt>
      <trkpt lat="45.79504" lon="2.97253">
        <ele>796</ele>
        <time>2019-02-19T08:30:05Z</time>
      </trkpt>
      <trkpt lat="45.7951" lon="2.97262">
        <ele>797</ele>
        <time>2019-02-19T08:30:17Z</time>
      </trkpt>
      <trkpt lat="45.79528" lon="2.97279">
        <ele>803</ele>
        <time>2019-02-19T08:30:49Z</time>
      </trkpt>
      <trkpt lat="45.79533" lon="2.97283">
        <ele>805</ele>
        <time>2019-02-19T08:30:58Z</time>
      </trkpt>
      <trkpt lat="45.79539" lon="2.97291">
        <ele>806</ele>
        <time>2019-02-19T08:31:11Z</time>
      </trkpt>
      <trkpt lat="45.79544" lon="2.97298">
        <ele>808</ele>
        <time>2019-02-19T08:31:21Z</time>
      </trkpt>
      <trkpt lat="45.79552" lon="2.97304">
        <ele>810</ele>
        <time>2019-02-19T08:31:33Z</time>
      </trkpt>
      <trkpt lat="45.79563" lon="2.97321">
        <ele>814</ele>
        <time>2019-02-19T08:31:54Z</time>
      </trkpt>
      <trkpt lat="45.79566" lon="2.97328">
        <ele>814</ele>
        <time>2019-02-19T08:31:58Z</time>
      </trkpt>
      <trkpt lat="45.79571" lon="2.97333">
        <ele>816</ele>
        <time>2019-02-19T08:32:07Z</time>
      </trkpt>
      <trkpt lat="45.79576" lon="2.9734">
        <ele>818</ele>
        <time>2019-02-19T08:32:19Z</time>
      </trkpt>
      <trkpt lat="45.79581" lon="2.97343">
        <ele>819</ele>
        <time>2019-02-19T08:32:24Z</time>
      </trkpt>
      <trkpt lat="45.79587" lon="2.97352">
        <ele>821</ele>
        <time>2019-02-19T08:32:36Z</time>
      </trkpt>
      <trkpt lat="45.79592" lon="2.97356">
        <ele>821</ele>
        <time>2019-02-19T08:32:42Z</time>
      </trkpt>
      <trkpt lat="45.79605" lon="2.97363">
        <ele>825</ele>
        <time>2019-02-19T08:33:02Z</time>
      </trkpt>
      <trkpt lat="45.79611" lon="2.97367">
        <ele>827</ele>
        <time>2019-02-19T08:33:10Z</time>
      </trkpt>
      <trkpt lat="45.79618" lon="2.97372">
        <ele>827</ele>
        <time>2019-02-19T08:33:22Z</time>
      </trkpt>
      <trkpt lat="45.79625" lon="2.97376">
        <ele>830</ele>
        <time>2019-02-19T08:33:34Z</time>
      </trkpt>
      <trkpt lat="45.79633" lon="2.97381">
        <ele>833</ele>
        <time>2019-02-19T08:33:46Z</time>
      </trkpt>
      <trkpt lat="45.7964" lon="2.97384">
        <ele>835</ele>
        <time>2019-02-19T08:33:58Z</time>
      </trkpt>
      <trkpt lat="45.79654" lon="2.97372">
        <ele>837</ele>
        <time>2019-02-19T08:34:17Z</time>
      </trkpt>
      <trkpt lat="45.79645" lon="2.97369">
        <ele>835</ele>
        <time>2019-02-19T08:34:58Z</time>
      </trkpt>
      <trkpt lat="45.79639" lon="2.97366">
        <ele>835</ele>
        <time>2019-02-19T08:35:03Z</time>
      </trkpt>
      <trkpt lat="45.79634" lon="2.9736">
        <ele>835</ele>
        <time>2019-02-19T08:35:07Z</time>
      </trkpt>
      <trkpt lat="45.7963" lon="2.97353">
        <ele>835</ele>
        <time>2019-02-19T08:35:12Z</time>
      </trkpt>
      <trkpt lat="45.7962" lon="2.97343">
        <ele>835</ele>
        <time>2019-02-19T08:35:47Z</time>
      </trkpt>
      <trkpt lat="45.79615" lon="2.97336">
        <ele>833</ele>
        <time>2019-02-19T08:35:51Z</time>
      </trkpt>
      <trkpt lat="45.79612" lon="2.97342">
        <ele>834</ele>
        <time>2019-02-19T08:36:03Z</time>
      </trkpt>
      <trkpt lat="45.79619" lon="2.97352">
        <ele>835</ele>
        <time>2019-02-19T08:36:11Z</time>
      </trkpt>
      <trkpt lat="45.79625" lon="2.97356">
        <ele>835</ele>
        <time>2019-02-19T08:36:16Z</time>
      </trkpt>
      <trkpt lat="45.79629" lon="2.97361">
        <ele>835</ele>
        <time>2019-02-19T08:36:20Z</time>
      </trkpt>
      <trkpt lat="45.79634" lon="2.97364">
        <ele>836</ele>
        <time>2019-02-19T08:36:25Z</time>
      </trkpt>
      <trkpt lat="45.7964" lon="2.97365">
        <ele>836</ele>
        <time>2019-02-19T08:36:29Z</time>
      </trkpt>
      <trkpt lat="45.79644" lon="2.9737">
        <ele>836</ele>
        <time>2019-02-19T08:36:33Z</time>
      </trkpt>
      <trkpt lat="45.7965" lon="2.97374">
        <ele>837</ele>
        <time>2019-02-19T08:36:39Z</time>
      </trkpt>
      <trkpt lat="45.79655" lon="2.97382">
        <ele>838</ele>
        <time>2019-02-19T08:36:47Z</time>
      </trkpt>
      <trkpt lat="45.79665" lon="2.97385">
        <ele>839</ele>
        <time>2019-02-19T08:36:57Z</time>
      </trkpt>
      <trkpt lat="45.79671" lon="2.97386">
        <ele>839</ele>
        <time>2019-02-19T08:37:02Z</time>
      </trkpt>
      <trkpt lat="45.79678" lon="2.97384">
        <ele>839</ele>
        <time>2019-02-19T08:37:07Z</time>
      </trkpt>
      <trkpt lat="45.79683" lon="2.97384">
        <ele>838</ele>
        <time>2019-02-19T08:37:11Z</time>
      </trkpt>
      <trkpt lat="45.797" lon="2.9738">
        <ele>836</ele>
        <time>2019-02-19T08:37:23Z</time>
      </trkpt>
      <trkpt lat="45.79715" lon="2.97371">
        <ele>834</ele>
        <time>2019-02-19T08:37:33Z</time>
      </trkpt>
      <trkpt lat="45.79727" lon="2.97369">
        <ele>833</ele>
        <time>2019-02-19T08:37:42Z</time>
      </trkpt>
      <trkpt lat="45.79732" lon="2.97367">
        <ele>833</ele>
        <time>2019-02-19T08:37:46Z</time>
      </trkpt>
      <trkpt lat="45.79739" lon="2.97364">
        <ele>832</ele>
        <time>2019-02-19T08:37:51Z</time>
      </trkpt>
      <trkpt lat="45.79754" lon="2.97353">
        <ele>829</ele>
        <time>2019-02-19T08:38:04Z</time>
      </trkpt>
      <trkpt lat="45.79759" lon="2.97346">
        <ele>829</ele>
        <time>2019-02-19T08:38:08Z</time>
      </trkpt>
      <trkpt lat="45.79761" lon="2.97339">
        <ele>829</ele>
        <time>2019-02-19T08:38:13Z</time>
      </trkpt>
      <trkpt lat="45.79771" lon="2.97331">
        <ele>828</ele>
        <time>2019-02-19T08:38:23Z</time>
      </trkpt>
      <trkpt lat="45.79775" lon="2.97323">
        <ele>828</ele>
        <time>2019-02-19T08:38:28Z</time>
      </trkpt>
      <trkpt lat="45.79783" lon="2.97312">
        <ele>826</ele>
        <time>2019-02-19T08:38:35Z</time>
      </trkpt>
      <trkpt lat="45.79787" lon="2.97306">
        <ele>826</ele>
        <time>2019-02-19T08:38:39Z</time>
      </trkpt>
      <trkpt lat="45.79796" lon="2.97284">
        <ele>824</ele>
        <time>2019-02-19T08:38:53Z</time>
      </trkpt>
      <trkpt lat="45.79799" lon="2.97276">
        <ele>823</ele>
        <time>2019-02-19T08:38:58Z</time>
      </trkpt>
      <trkpt lat="45.79806" lon="2.9725">
        <ele>822</ele>
        <time>2019-02-19T08:39:12Z</time>
      </trkpt>
      <trkpt lat="45.79808" lon="2.97241">
        <ele>821</ele>
        <time>2019-02-19T08:39:17Z</time>
      </trkpt>
      <trkpt lat="45.79809" lon="2.97233">
        <ele>821</ele>
        <time>2019-02-19T08:39:21Z</time>
      </trkpt>
      <trkpt lat="45.79811" lon="2.97225">
        <ele>819</ele>
        <time>2019-02-19T08:39:26Z</time>
      </trkpt>
      <trkpt lat="45.79813" lon="2.97217">
        <ele>819</ele>
        <time>2019-02-19T08:39:31Z</time>
      </trkpt>
      <trkpt lat="45.79811" lon="2.97157">
        <ele>815</ele>
        <time>2019-02-19T08:40:17Z</time>
      </trkpt>
      <trkpt lat="45.79811" lon="2.97147">
        <ele>815</ele>
        <time>2019-02-19T08:40:23Z</time>
      </trkpt>
      <trkpt lat="45.79808" lon="2.97131">
        <ele>813</ele>
        <time>2019-02-19T08:40:32Z</time>
      </trkpt>
      <trkpt lat="45.79808" lon="2.97122">
        <ele>813</ele>
        <time>2019-02-19T08:40:38Z</time>
      </trkpt>
      <trkpt lat="45.79803" lon="2.97108">
        <ele>813</ele>
        <time>2019-02-19T08:40:58Z</time>
      </trkpt>
      <trkpt lat="45.79799" lon="2.97103">
        <ele>813</ele>
        <time>2019-02-19T08:41:02Z</time>
      </trkpt>
      <trkpt lat="45.79795" lon="2.97075">
        <ele>814</ele>
        <time>2019-02-19T08:41:18Z</time>
      </trkpt>
      <trkpt lat="45.79791" lon="2.97069">
        <ele>814</ele>
        <time>2019-02-19T08:41:23Z</time>
      </trkpt>
      <trkpt lat="45.79787" lon="2.97064">
        <ele>814</ele>
        <time>2019-02-19T08:41:27Z</time>
      </trkpt>
      <trkpt lat="45.79783" lon="2.97057">
        <ele>814</ele>
        <time>2019-02-19T08:41:32Z</time>
      </trkpt>
      <trkpt lat="45.79783" lon="2.97049">
        <ele>814</ele>
        <time>2019-02-19T08:41:43Z</time>
      </trkpt>
      <trkpt lat="45.79779" lon="2.97031">
        <ele>816</ele>
        <time>2019-02-19T08:42:01Z</time>
      </trkpt>
      <trkpt lat="45.79777" lon="2.97014">
        <ele>816</ele>
        <time>2019-02-19T08:42:12Z</time>
      </trkpt>
      <trkpt lat="45.79776" lon="2.97019">
        <ele>816</ele>
        <time>2019-02-19T08:42:47Z</time>
      </trkpt>
      <trkpt lat="45.79778" lon="2.97026">
        <ele>816</ele>
        <time>2019-02-19T08:42:51Z</time>
      </trkpt>
      <trkpt lat="45.7978" lon="2.97033">
        <ele>816</ele>
        <time>2019-02-19T08:42:56Z</time>
      </trkpt>
      <trkpt lat="45.79779" lon="2.97041">
        <ele>816</ele>
        <time>2019-02-19T08:43:01Z</time>
      </trkpt>
      <trkpt lat="45.79781" lon="2.97053">
        <ele>815</ele>
        <time>2019-02-19T08:43:08Z</time>
      </trkpt>
      <trkpt lat="45.79785" lon="2.97059">
        <ele>815</ele>
        <time>2019-02-19T08:43:12Z</time>
      </trkpt>
      <trkpt lat="45.79789" lon="2.97066">
        <ele>815</ele>
        <time>2019-02-19T08:43:16Z</time>
      </trkpt>
      <trkpt lat="45.79799" lon="2.97097">
        <ele>814</ele>
        <time>2019-02-19T08:43:36Z</time>
      </trkpt>
      <trkpt lat="45.79802" lon="2.97106">
        <ele>815</ele>
        <time>2019-02-19T08:43:41Z</time>
      </trkpt>
      <trkpt lat="45.7981" lon="2.97123">
        <ele>814</ele>
        <time>2019-02-19T08:43:54Z</time>
      </trkpt>
      <trkpt lat="45.79813" lon="2.97153">
        <ele>815</ele>
        <time>2019-02-19T08:44:22Z</time>
      </trkpt>
      <trkpt lat="45.79817" lon="2.97162">
        <ele>816</ele>
        <time>2019-02-19T08:44:30Z</time>
      </trkpt>
      <trkpt lat="45.79818" lon="2.9717">
        <ele>816</ele>
        <time>2019-02-19T08:44:36Z</time>
      </trkpt>
      <trkpt lat="45.79819" lon="2.97178">
        <ele>817</ele>
        <time>2019-02-19T08:44:41Z</time>
      </trkpt>
      <trkpt lat="45.79819" lon="2.97186">
        <ele>818</ele>
        <time>2019-02-19T08:44:49Z</time>
      </trkpt>
      <trkpt lat="45.79818" lon="2.97195">
        <ele>819</ele>
        <time>2019-02-19T08:44:55Z</time>
      </trkpt>
      <trkpt lat="45.79818" lon="2.97204">
        <ele>819</ele>
        <time>2019-02-19T08:45:00Z</time>
      </trkpt>
      <trkpt lat="45.79818" lon="2.97212">
        <ele>819</ele>
        <time>2019-02-19T08:45:06Z</time>
      </trkpt>
      <trkpt lat="45.79816" lon="2.97232">
        <ele>822</ele>
        <time>2019-02-19T08:45:20Z</time>
      </trkpt>
      <trkpt lat="45.79812" lon="2.97241">
        <ele>823</ele>
        <time>2019-02-19T08:45:29Z</time>
      </trkpt>
      <trkpt lat="45.79811" lon="2.97251">
        <ele>824</ele>
        <time>2019-02-19T08:45:38Z</time>
      </trkpt>
      <trkpt lat="45.79807" lon="2.97257">
        <ele>824</ele>
        <time>2019-02-19T08:45:43Z</time>
      </trkpt>
      <trkpt lat="45.79804" lon="2.97273">
        <ele>825</ele>
        <time>2019-02-19T08:45:54Z</time>
      </trkpt>
      <trkpt lat="45.79799" lon="2.97281">
        <ele>826</ele>
        <time>2019-02-19T08:46:01Z</time>
      </trkpt>
      <trkpt lat="45.79796" lon="2.97287">
        <ele>826</ele>
        <time>2019-02-19T08:46:06Z</time>
      </trkpt>
      <trkpt lat="45.79791" lon="2.97295">
        <ele>827</ele>
        <time>2019-02-19T08:46:13Z</time>
      </trkpt>
      <trkpt lat="45.79786" lon="2.97302">
        <ele>828</ele>
        <time>2019-02-19T08:46:22Z</time>
      </trkpt>
      <trkpt lat="45.79783" lon="2.97312">
        <ele>829</ele>
        <time>2019-02-19T08:46:30Z</time>
      </trkpt>
      <trkpt lat="45.79774" lon="2.97319">
        <ele>830</ele>
        <time>2019-02-19T08:46:41Z</time>
      </trkpt>
      <trkpt lat="45.79764" lon="2.97332">
        <ele>832</ele>
        <time>2019-02-19T08:46:55Z</time>
      </trkpt>
      <trkpt lat="45.79759" lon="2.97338">
        <ele>831</ele>
        <time>2019-02-19T08:46:59Z</time>
      </trkpt>
      <trkpt lat="45.79748" lon="2.97349">
        <ele>833</ele>
        <time>2019-02-19T08:47:11Z</time>
      </trkpt>
      <trkpt lat="45.79737" lon="2.97362">
        <ele>835</ele>
        <time>2019-02-19T08:47:25Z</time>
      </trkpt>
      <trkpt lat="45.79731" lon="2.97362">
        <ele>835</ele>
        <time>2019-02-19T08:47:29Z</time>
      </trkpt>
      <trkpt lat="45.79726" lon="2.97362">
        <ele>836</ele>
        <time>2019-02-19T08:47:35Z</time>
      </trkpt>
      <trkpt lat="45.79714" lon="2.97372">
        <ele>838</ele>
        <time>2019-02-19T08:47:48Z</time>
      </trkpt>
      <trkpt lat="45.79706" lon="2.97374">
        <ele>838</ele>
        <time>2019-02-19T08:47:58Z</time>
      </trkpt>
      <trkpt lat="45.79699" lon="2.97378">
        <ele>839</ele>
        <time>2019-02-19T08:48:06Z</time>
      </trkpt>
      <trkpt lat="45.79683" lon="2.97381">
        <ele>842</ele>
        <time>2019-02-19T08:48:24Z</time>
      </trkpt>
      <trkpt lat="45.79677" lon="2.97383">
        <ele>843</ele>
        <time>2019-02-19T08:48:30Z</time>
      </trkpt>
      <trkpt lat="45.79671" lon="2.97384">
        <ele>844</ele>
        <time>2019-02-19T08:48:35Z</time>
      </trkpt>
      <trkpt lat="45.79665" lon="2.97382">
        <ele>844</ele>
        <time>2019-02-19T08:48:40Z</time>
      </trkpt>
      <trkpt lat="45.79654" lon="2.97378">
        <ele>844</ele>
        <time>2019-02-19T08:48:49Z</time>
      </trkpt>
      <trkpt lat="45.79643" lon="2.97378">
        <ele>844</ele>
        <time>2019-02-19T08:48:57Z</time>
      </trkpt>
      <trkpt lat="45.79636" lon="2.9738">
        <ele>843</ele>
        <time>2019-02-19T08:49:06Z</time>
      </trkpt>
      <trkpt lat="45.79604" lon="2.97365">
        <ele>836</ele>
        <time>2019-02-19T08:49:39Z</time>
      </trkpt>
      <trkpt lat="45.79585" lon="2.97349">
        <ele>832</ele>
        <time>2019-02-19T08:50:00Z</time>
      </trkpt>
      <trkpt lat="45.79559" lon="2.97318">
        <ele>825</ele>
        <time>2019-02-19T08:50:33Z</time>
      </trkpt>
      <trkpt lat="45.79549" lon="2.97303">
        <ele>822</ele>
        <time>2019-02-19T08:50:47Z</time>
      </trkpt>
      <trkpt lat="45.79522" lon="2.97274">
        <ele>815</ele>
        <time>2019-02-19T08:51:18Z</time>
      </trkpt>
      <trkpt lat="45.79498" lon="2.97249">
        <ele>807</ele>
        <time>2019-02-19T08:51:51Z</time>
      </trkpt>
      <trkpt lat="45.79487" lon="2.97241">
        <ele>804</ele>
        <time>2019-02-19T08:52:02Z</time>
      </trkpt>
      <trkpt lat="45.79477" lon="2.97226">
        <ele>801</ele>
        <time>2019-02-19T08:52:20Z</time>
      </trkpt>
      <trkpt lat="45.79456" lon="2.97206">
        <ele>796</ele>
        <time>2019-02-19T08:52:41Z</time>
      </trkpt>
      <trkpt lat="45.79441" lon="2.97177">
        <ele>791</ele>
        <time>2019-02-19T08:53:03Z</time>
      </trkpt>
      <trkpt lat="45.79437" lon="2.9717">
        <ele>792</ele>
        <time>2019-02-19T08:53:07Z</time>
      </trkpt>
      <trkpt lat="45.79423" lon="2.97153">
        <ele>788</ele>
        <time>2019-02-19T08:53:22Z</time>
      </trkpt>
      <trkpt lat="45.79397" lon="2.9711">
        <ele>780</ele>
        <time>2019-02-19T08:54:00Z</time>
      </trkpt>
      <trkpt lat="45.79382" lon="2.97081">
        <ele>776</ele>
        <time>2019-02-19T08:54:33Z</time>
      </trkpt>
      <trkpt lat="45.79372" lon="2.97063">
        <ele>772</ele>
        <time>2019-02-19T08:54:49Z</time>
      </trkpt>
      <trkpt lat="45.79364" lon="2.97031">
        <ele>767</ele>
        <time>2019-02-19T08:55:10Z</time>
      </trkpt>
      <trkpt lat="45.79357" lon="2.97013">
        <ele>763</ele>
        <time>2019-02-19T08:55:28Z</time>
      </trkpt>
      <trkpt lat="45.79354" lon="2.97004">
        <ele>761</ele>
        <time>2019-02-19T08:55:36Z</time>
      </trkpt>
      <trkpt lat="45.7935" lon="2.96997">
        <ele>759</ele>
        <time>2019-02-19T08:55:44Z</time>
      </trkpt>
      <trkpt lat="45.79344" lon="2.96979">
        <ele>754</ele>
        <time>2019-02-19T08:56:00Z</time>
      </trkpt>
      <trkpt lat="45.79343" lon="2.96963">
        <ele>753</ele>
        <time>2019-02-19T08:56:09Z</time>
      </trkpt>
      <trkpt lat="45.79344" lon="2.96955">
        <ele>753</ele>
        <time>2019-02-19T08:56:15Z</time>
      </trkpt>
      <trkpt lat="45.79346" lon="2.96937">
        <ele>752</ele>
        <time>2019-02-19T08:56:29Z</time>
      </trkpt>
      <trkpt lat="45.79347" lon="2.96924">
        <ele>750</ele>
        <time>2019-02-19T08:56:38Z</time>
      </trkpt>
      <trkpt lat="45.7934" lon="2.96909">
        <ele>747</ele>
        <time>2019-02-19T08:56:51Z</time>
      </trkpt>
      <trkpt lat="45.79335" lon="2.96907">
        <ele>745</ele>
        <time>2019-02-19T08:56:56Z</time>
      </trkpt>
      <trkpt lat="45.7933" lon="2.96898">
        <ele>745</ele>
        <time>2019-02-19T08:57:03Z</time>
      </trkpt>
      <trkpt lat="45.79331" lon="2.96867">
        <ele>747</ele>
        <time>2019-02-19T08:59:16Z</time>
      </trkpt>
      <trkpt lat="45.79332" lon="2.96861">
        <ele>747</ele>
        <time>2019-02-19T08:59:20Z</time>
      </trkpt>
      <trkpt lat="45.79332" lon="2.96853">
        <ele>746</ele>
        <time>2019-02-19T08:59:25Z</time>
      </trkpt>
      <trkpt lat="45.79332" lon="2.96839">
        <ele>747</ele>
        <time>2019-02-19T08:59:32Z</time>
      </trkpt>
      <trkpt lat="45.79337" lon="2.96832">
        <ele>746</ele>
        <time>2019-02-19T08:59:37Z</time>
      </trkpt>
      <trkpt lat="45.79341" lon="2.96818">
        <ele>745</ele>
        <time>2019-02-19T08:59:46Z</time>
      </trkpt>
      <trkpt lat="45.79342" lon="2.96809">
        <ele>746</ele>
        <time>2019-02-19T08:59:51Z</time>
      </trkpt>
      <trkpt lat="45.79344" lon="2.96801">
        <ele>746</ele>
        <time>2019-02-19T08:59:55Z</time>
      </trkpt>
      <trkpt lat="45.79348" lon="2.9679">
        <ele>744</ele>
        <time>2019-02-19T09:00:00Z</time>
      </trkpt>
      <trkpt lat="45.7935" lon="2.96782">
        <ele>743</ele>
        <time>2019-02-19T09:00:05Z</time>
      </trkpt>
      <trkpt lat="45.79353" lon="2.96773">
        <ele>743</ele>
        <time>2019-02-19T09:00:10Z</time>
      </trkpt>
      <trkpt lat="45.79357" lon="2.96769">
        <ele>743</ele>
        <time>2019-02-19T09:00:14Z</time>
      </trkpt>
      <trkpt lat="45.7936" lon="2.96762">
        <ele>742</ele>
        <time>2019-02-19T09:00:17Z</time>
      </trkpt>
      <trkpt lat="45.79362" lon="2.96754">
        <ele>742</ele>
        <time>2019-02-19T09:00:21Z</time>
      </trkpt>
      <trkpt lat="45.79364" lon="2.96745">
        <ele>741</ele>
        <time>2019-02-19T09:00:27Z</time>
      </trkpt>
      <trkpt lat="45.79369" lon="2.9674">
        <ele>739</ele>
        <time>2019-02-19T09:00:32Z</time>
      </trkpt>
      <trkpt lat="45.79372" lon="2.96734">
        <ele>739</ele>
        <time>2019-02-19T09:00:36Z</time>
      </trkpt>
      <trkpt lat="45.79381" lon="2.96709">
        <ele>737</ele>
        <time>2019-02-19T09:00:47Z</time>
      </trkpt>
      <trkpt lat="45.79396" lon="2.96675">
        <ele>733</ele>
        <time>2019-02-19T09:01:06Z</time>
      </trkpt>
      <trkpt lat="45.79385" lon="2.9664">
        <ele>729</ele>
        <time>2019-02-19T09:01:33Z</time>
      </trkpt>
      <trkpt lat="45.79378" lon="2.96622">
        <ele>729</ele>
        <time>2019-02-19T09:01:46Z</time>
      </trkpt>
      <trkpt lat="45.79377" lon="2.96599">
        <ele>732</ele>
        <time>2019-02-19T09:02:00Z</time>
      </trkpt>
      <trkpt lat="45.79367" lon="2.96573">
        <ele>731</ele>
        <time>2019-02-19T09:02:21Z</time>
      </trkpt>
      <trkpt lat="45.79347" lon="2.9653">
        <ele>736</ele>
        <time>2019-02-19T09:03:01Z</time>
      </trkpt>
      <trkpt lat="45.79342" lon="2.9651">
        <ele>737</ele>
        <time>2019-02-19T09:03:15Z</time>
      </trkpt>
      <trkpt lat="45.79346" lon="2.9649">
        <ele>739</ele>
        <time>2019-02-19T09:03:31Z</time>
      </trkpt>
      <trkpt lat="45.79341" lon="2.96469">
        <ele>742</ele>
        <time>2019-02-19T09:04:00Z</time>
      </trkpt>
      <trkpt lat="45.79324" lon="2.96449">
        <ele>746</ele>
        <time>2019-02-19T09:04:27Z</time>
      </trkpt>
      <trkpt lat="45.79315" lon="2.96425">
        <ele>749</ele>
        <time>2019-02-19T09:04:59Z</time>
      </trkpt>
      <trkpt lat="45.79311" lon="2.96403">
        <ele>753</ele>
        <time>2019-02-19T09:05:29Z</time>
      </trkpt>
      <trkpt lat="45.79305" lon="2.96382">
        <ele>755</ele>
        <time>2019-02-19T09:05:42Z</time>
      </trkpt>
      <trkpt lat="45.79295" lon="2.96367">
        <ele>757</ele>
        <time>2019-02-19T09:05:57Z</time>
      </trkpt>
      <trkpt lat="45.79293" lon="2.96338">
        <ele>757</ele>
        <time>2019-02-19T09:06:22Z</time>
      </trkpt>
      <trkpt lat="45.79268" lon="2.96299">
        <ele>761</ele>
        <time>2019-02-19T09:07:00Z</time>
      </trkpt>
      <trkpt lat="45.79259" lon="2.96283">
        <ele>762</ele>
        <time>2019-02-19T09:07:14Z</time>
      </trkpt>
      <trkpt lat="45.79236" lon="2.96245">
        <ele>765</ele>
        <time>2019-02-19T09:07:49Z</time>
      </trkpt>
      <trkpt lat="45.79224" lon="2.962">
        <ele>769</ele>
        <time>2019-02-19T09:08:26Z</time>
      </trkpt>
      <trkpt lat="45.79217" lon="2.96149">
        <ele>771</ele>
        <time>2019-02-19T09:09:14Z</time>
      </trkpt>
      <trkpt lat="45.79203" lon="2.96098">
        <ele>774</ele>
        <time>2019-02-19T09:09:59Z</time>
      </trkpt>
      <trkpt lat="45.79203" lon="2.96076">
        <ele>774</ele>
        <time>2019-02-19T09:10:14Z</time>
      </trkpt>
      <trkpt lat="45.79205" lon="2.96055">
        <ele>776</ele>
        <time>2019-02-19T09:10:29Z</time>
      </trkpt>
      <trkpt lat="45.79203" lon="2.96031">
        <ele>777</ele>
        <time>2019-02-19T09:10:45Z</time>
      </trkpt>
      <trkpt lat="45.79207" lon="2.95997">
        <ele>779</ele>
        <time>2019-02-19T09:11:14Z</time>
      </trkpt>
      <trkpt lat="45.79219" lon="2.9598">
        <ele>783</ele>
        <time>2019-02-19T09:11:53Z</time>
      </trkpt>
      <trkpt lat="45.79234" lon="2.95975">
        <ele>788</ele>
        <time>2019-02-19T09:12:23Z</time>
      </trkpt>
      <trkpt lat="45.79253" lon="2.95964">
        <ele>793</ele>
        <time>2019-02-19T09:12:59Z</time>
      </trkpt>
      <trkpt lat="45.79283" lon="2.95943">
        <ele>800</ele>
        <time>2019-02-19T09:13:53Z</time>
      </trkpt>
      <trkpt lat="45.79297" lon="2.95931">
        <ele>805</ele>
        <time>2019-02-19T09:14:39Z</time>
      </trkpt>
      <trkpt lat="45.79319" lon="2.95901">
        <ele>812</ele>
        <time>2019-02-19T09:15:24Z</time>
      </trkpt>
      <trkpt lat="45.79334" lon="2.95881">
        <ele>816</ele>
        <time>2019-02-19T09:15:49Z</time>
      </trkpt>
      <trkpt lat="45.79338" lon="2.95875">
        <ele>816</ele>
        <time>2019-02-19T09:15:54Z</time>
      </trkpt>
      <trkpt lat="45.79342" lon="2.9587">
        <ele>817</ele>
        <time>2019-02-19T09:16:00Z</time>
      </trkpt>
      <trkpt lat="45.7935" lon="2.95866">
        <ele>818</ele>
        <time>2019-02-19T09:16:09Z</time>
      </trkpt>
      <trkpt lat="45.79354" lon="2.95859">
        <ele>819</ele>
        <time>2019-02-19T09:16:14Z</time>
      </trkpt>
      <trkpt lat="45.79361" lon="2.9585">
        <ele>819</ele>
        <time>2019-02-19T09:16:21Z</time>
      </trkpt>
      <trkpt lat="45.79384" lon="2.95831">
        <ele>825</ele>
        <time>2019-02-19T09:16:59Z</time>
      </trkpt>
      <trkpt lat="45.79398" lon="2.95826">
        <ele>831</ele>
        <time>2019-02-19T09:17:51Z</time>
      </trkpt>
      <trkpt lat="45.79385" lon="2.95854">
        <ele>833</ele>
        <time>2019-02-19T09:18:23Z</time>
      </trkpt>
      <trkpt lat="45.79392" lon="2.95873">
        <ele>839</ele>
        <time>2019-02-19T09:19:19Z</time>
      </trkpt>
      <trkpt lat="45.79396" lon="2.95915">
        <ele>850</ele>
        <time>2019-02-19T09:21:06Z</time>
      </trkpt>
      <trkpt lat="45.79397" lon="2.95939">
        <ele>855</ele>
        <time>2019-02-19T09:21:36Z</time>
      </trkpt>
      <trkpt lat="45.79401" lon="2.95963">
        <ele>861</ele>
        <time>2019-02-19T09:22:18Z</time>
      </trkpt>
      <trkpt lat="45.79393" lon="2.9599">
        <ele>864</ele>
        <time>2019-02-19T09:22:39Z</time>
      </trkpt>
      <trkpt lat="45.79401" lon="2.9601">
        <ele>865</ele>
        <time>2019-02-19T09:22:55Z</time>
      </trkpt>
      <trkpt lat="45.79413" lon="2.96027">
        <ele>867</ele>
        <time>2019-02-19T09:23:13Z</time>
      </trkpt>
      <trkpt lat="45.79429" lon="2.96014">
        <ele>871</ele>
        <time>2019-02-19T09:23:36Z</time>
      </trkpt>
      <trkpt lat="45.79438" lon="2.96009">
        <ele>873</ele>
        <time>2019-02-19T09:24:06Z</time>
      </trkpt>
      <trkpt lat="45.79441" lon="2.95999">
        <ele>874</ele>
        <time>2019-02-19T09:25:03Z</time>
      </trkpt>
      <trkpt lat="45.79433" lon="2.95977">
        <ele>876</ele>
        <time>2019-02-19T09:27:16Z</time>
      </trkpt>
      <trkpt lat="45.79432" lon="2.9597">
        <ele>876</ele>
        <time>2019-02-19T09:27:21Z</time>
      </trkpt>
      <trkpt lat="45.79433" lon="2.95961">
        <ele>876</ele>
        <time>2019-02-19T09:27:27Z</time>
      </trkpt>
      <trkpt lat="45.79434" lon="2.95953">
        <ele>876</ele>
        <time>2019-02-19T09:27:33Z</time>
      </trkpt>
      <trkpt lat="45.79438" lon="2.95946">
        <ele>876</ele>
        <time>2019-02-19T09:27:54Z</time>
      </trkpt>
      <trkpt lat="45.79441" lon="2.95939">
        <ele>876</ele>
        <time>2019-02-19T09:28:19Z</time>
      </trkpt>
      <trkpt lat="45.79425" lon="2.959">
        <ele>871</ele>
        <time>2019-02-19T09:28:46Z</time>
      </trkpt>
      <trkpt lat="45.79424" lon="2.95884">
        <ele>866</ele>
        <time>2019-02-19T09:29:05Z</time>
      </trkpt>
      <trkpt lat="45.79436" lon="2.95874">
        <ele>863</ele>
        <time>2019-02-19T09:29:34Z</time>
      </trkpt>
      <trkpt lat="45.79428" lon="2.9587">
        <ele>861</ele>
        <time>2019-02-19T09:29:41Z</time>
      </trkpt>
      <trkpt lat="45.79422" lon="2.95873">
        <ele>859</ele>
        <time>2019-02-19T09:29:49Z</time>
      </trkpt>
      <trkpt lat="45.79414" lon="2.95875">
        <ele>859</ele>
        <time>2019-02-19T09:30:08Z</time>
      </trkpt>
      <trkpt lat="45.79405" lon="2.95873">
        <ele>857</ele>
        <time>2019-02-19T09:30:19Z</time>
      </trkpt>
      <trkpt lat="45.79398" lon="2.95879">
        <ele>855</ele>
        <time>2019-02-19T09:30:27Z</time>
      </trkpt>
      <trkpt lat="45.79382" lon="2.95841">
        <ele>840</ele>
        <time>2019-02-19T09:31:13Z</time>
      </trkpt>
      <trkpt lat="45.79372" lon="2.95841">
        <ele>831</ele>
        <time>2019-02-19T09:32:03Z</time>
      </trkpt>
      <trkpt lat="45.79359" lon="2.95852">
        <ele>828</ele>
        <time>2019-02-19T09:32:17Z</time>
      </trkpt>
      <trkpt lat="45.79349" lon="2.95869">
        <ele>827</ele>
        <time>2019-02-19T09:32:40Z</time>
      </trkpt>
      <trkpt lat="45.79342" lon="2.95889">
        <ele>824</ele>
        <time>2019-02-19T09:32:52Z</time>
      </trkpt>
      <trkpt lat="45.79319" lon="2.95924">
        <ele>816</ele>
        <time>2019-02-19T09:33:44Z</time>
      </trkpt>
      <trkpt lat="45.79314" lon="2.95931">
        <ele>811</ele>
        <time>2019-02-19T09:33:49Z</time>
      </trkpt>
      <trkpt lat="45.79306" lon="2.95937">
        <ele>811</ele>
        <time>2019-02-19T09:33:58Z</time>
      </trkpt>
      <trkpt lat="45.79276" lon="2.95974">
        <ele>799</ele>
        <time>2019-02-19T09:34:33Z</time>
      </trkpt>
      <trkpt lat="45.7925" lon="2.95994">
        <ele>793</ele>
        <time>2019-02-19T09:35:00Z</time>
      </trkpt>
      <trkpt lat="45.79237" lon="2.96002">
        <ele>793</ele>
        <time>2019-02-19T09:35:12Z</time>
      </trkpt>
      <trkpt lat="45.79224" lon="2.96012">
        <ele>795</ele>
        <time>2019-02-19T09:35:25Z</time>
      </trkpt>
      <trkpt lat="45.79196" lon="2.96007">
        <ele>800</ele>
        <time>2019-02-19T09:36:04Z</time>
      </trkpt>
      <trkpt lat="45.79185" lon="2.95986">
        <ele>814</ele>
        <time>2019-02-19T09:37:41Z</time>
      </trkpt>
      <trkpt lat="45.7915" lon="2.95964">
        <ele>823</ele>
        <time>2019-02-19T09:38:36Z</time>
      </trkpt>
      <trkpt lat="45.79117" lon="2.95957">
        <ele>836</ele>
        <time>2019-02-19T09:40:09Z</time>
      </trkpt>
      <trkpt lat="45.79091" lon="2.95941">
        <ele>845</ele>
        <time>2019-02-19T09:41:24Z</time>
      </trkpt>
      <trkpt lat="45.79048" lon="2.95917">
        <ele>851</ele>
        <time>2019-02-19T09:42:26Z</time>
      </trkpt>
      <trkpt lat="45.79034" lon="2.9591">
        <ele>852</ele>
        <time>2019-02-19T09:42:38Z</time>
      </trkpt>
      <trkpt lat="45.79015" lon="2.95904">
        <ele>854</ele>
        <time>2019-02-19T09:42:56Z</time>
      </trkpt>
      <trkpt lat="45.79" lon="2.95914">
        <ele>855</ele>
        <time>2019-02-19T09:43:25Z</time>
      </trkpt>
      <trkpt lat="45.78997" lon="2.95944">
        <ele>860</ele>
        <time>2019-02-19T09:44:15Z</time>
      </trkpt>
      <trkpt lat="45.7899" lon="2.9599">
        <ele>871</ele>
        <time>2019-02-19T09:45:16Z</time>
      </trkpt>
      <trkpt lat="45.78986" lon="2.95999">
        <ele>873</ele>
        <time>2019-02-19T09:45:33Z</time>
      </trkpt>
      <trkpt lat="45.78983" lon="2.96006">
        <ele>874</ele>
        <time>2019-02-19T09:45:43Z</time>
      </trkpt>
      <trkpt lat="45.78981" lon="2.96019">
        <ele>878</ele>
        <time>2019-02-19T09:45:59Z</time>
      </trkpt>
      <trkpt lat="45.78976" lon="2.9603">
        <ele>879</ele>
        <time>2019-02-19T09:46:10Z</time>
      </trkpt>
      <trkpt lat="45.78973" lon="2.96053">
        <ele>882</ele>
        <time>2019-02-19T09:46:33Z</time>
      </trkpt>
      <trkpt lat="45.78971" lon="2.9606">
        <ele>883</ele>
        <time>2019-02-19T09:46:39Z</time>
      </trkpt>
      <trkpt lat="45.78966" lon="2.96069">
        <ele>884</ele>
        <time>2019-02-19T09:46:48Z</time>
      </trkpt>
      <trkpt lat="45.78965" lon="2.96086">
        <ele>885</ele>
        <time>2019-02-19T09:47:00Z</time>
      </trkpt>
      <trkpt lat="45.78963" lon="2.96094">
        <ele>885</ele>
        <time>2019-02-19T09:47:09Z</time>
      </trkpt>
      <trkpt lat="45.78963" lon="2.96103">
        <ele>885</ele>
        <time>2019-02-19T09:47:14Z</time>
      </trkpt>
      <trkpt lat="45.78963" lon="2.96115">
        <ele>885</ele>
        <time>2019-02-19T09:47:23Z</time>
      </trkpt>
      <trkpt lat="45.7897" lon="2.9613">
        <ele>886</ele>
        <time>2019-02-19T09:47:33Z</time>
      </trkpt>
      <trkpt lat="45.78975" lon="2.96136">
        <ele>886</ele>
        <time>2019-02-19T09:47:40Z</time>
      </trkpt>
      <trkpt lat="45.78983" lon="2.96133">
        <ele>887</ele>
        <time>2019-02-19T09:47:49Z</time>
      </trkpt>
      <trkpt lat="45.78989" lon="2.96134">
        <ele>887</ele>
        <time>2019-02-19T09:47:57Z</time>
      </trkpt>
      <trkpt lat="45.78994" lon="2.96132">
        <ele>887</ele>
        <time>2019-02-19T09:49:03Z</time>
      </trkpt>
      <trkpt lat="45.78991" lon="2.96119">
        <ele>888</ele>
        <time>2019-02-19T09:49:40Z</time>
      </trkpt>
      <trkpt lat="45.78987" lon="2.96103">
        <ele>888</ele>
        <time>2019-02-19T09:49:49Z</time>
      </trkpt>
      <trkpt lat="45.78982" lon="2.96085">
        <ele>887</ele>
        <time>2019-02-19T09:49:57Z</time>
      </trkpt>
      <trkpt lat="45.78981" lon="2.96076">
        <ele>887</ele>
        <time>2019-02-19T09:50:02Z</time>
      </trkpt>
      <trkpt lat="45.7898" lon="2.96067">
        <ele>886</ele>
        <time>2019-02-19T09:50:06Z</time>
      </trkpt>
      <trkpt lat="45.7898" lon="2.9605">
        <ele>883</ele>
        <time>2019-02-19T09:50:15Z</time>
      </trkpt>
      <trkpt lat="45.78976" lon="2.96044">
        <ele>884</ele>
        <time>2019-02-19T09:50:19Z</time>
      </trkpt>
      <trkpt lat="45.78973" lon="2.96037">
        <ele>884</ele>
        <time>2019-02-19T09:50:24Z</time>
      </trkpt>
      <trkpt lat="45.78973" lon="2.96028">
        <ele>883</ele>
        <time>2019-02-19T09:50:29Z</time>
      </trkpt>
      <trkpt lat="45.78977" lon="2.96007">
        <ele>879</ele>
        <time>2019-02-19T09:50:42Z</time>
      </trkpt>
      <trkpt lat="45.78979" lon="2.9599">
        <ele>876</ele>
        <time>2019-02-19T09:50:53Z</time>
      </trkpt>
      <trkpt lat="45.78983" lon="2.9598">
        <ele>874</ele>
        <time>2019-02-19T09:51:14Z</time>
      </trkpt>
      <trkpt lat="45.78987" lon="2.95974">
        <ele>873</ele>
        <time>2019-02-19T09:51:20Z</time>
      </trkpt>
      <trkpt lat="45.78991" lon="2.95963">
        <ele>870</ele>
        <time>2019-02-19T09:51:26Z</time>
      </trkpt>
      <trkpt lat="45.78992" lon="2.9595">
        <ele>867</ele>
        <time>2019-02-19T09:51:35Z</time>
      </trkpt>
      <trkpt lat="45.78994" lon="2.95942">
        <ele>866</ele>
        <time>2019-02-19T09:51:39Z</time>
      </trkpt>
      <trkpt lat="45.78995" lon="2.95933">
        <ele>864</ele>
        <time>2019-02-19T09:51:43Z</time>
      </trkpt>
      <trkpt lat="45.79" lon="2.95915">
        <ele>861</ele>
        <time>2019-02-19T09:51:51Z</time>
      </trkpt>
      <trkpt lat="45.79002" lon="2.95908">
        <ele>861</ele>
        <time>2019-02-19T09:51:55Z</time>
      </trkpt>
      <trkpt lat="45.79003" lon="2.95899">
        <ele>859</ele>
        <time>2019-02-19T09:51:59Z</time>
      </trkpt>
      <trkpt lat="45.79013" lon="2.95868">
        <ele>861</ele>
        <time>2019-02-19T09:52:24Z</time>
      </trkpt>
      <trkpt lat="45.79014" lon="2.95823">
        <ele>869</ele>
        <time>2019-02-19T09:53:24Z</time>
      </trkpt>
      <trkpt lat="45.79018" lon="2.95803">
        <ele>873</ele>
        <time>2019-02-19T09:54:00Z</time>
      </trkpt>
      <trkpt lat="45.79024" lon="2.95762">
        <ele>881</ele>
        <time>2019-02-19T09:55:01Z</time>
      </trkpt>
      <trkpt lat="45.79026" lon="2.95737">
        <ele>886</ele>
        <time>2019-02-19T09:55:37Z</time>
      </trkpt>
      <trkpt lat="45.79032" lon="2.95689">
        <ele>894</ele>
        <time>2019-02-19T09:56:26Z</time>
      </trkpt>
      <trkpt lat="45.79029" lon="2.95643">
        <ele>903</ele>
        <time>2019-02-19T09:57:20Z</time>
      </trkpt>
      <trkpt lat="45.79031" lon="2.95622">
        <ele>907</ele>
        <time>2019-02-19T09:57:49Z</time>
      </trkpt>
      <trkpt lat="45.79034" lon="2.95595">
        <ele>913</ele>
        <time>2019-02-19T09:58:25Z</time>
      </trkpt>
      <trkpt lat="45.79037" lon="2.95565">
        <ele>918</ele>
        <time>2019-02-19T09:59:01Z</time>
      </trkpt>
      <trkpt lat="45.79037" lon="2.95555">
        <ele>921</ele>
        <time>2019-02-19T09:59:13Z</time>
      </trkpt>
      <trkpt lat="45.79039" lon="2.95543">
        <ele>923</ele>
        <time>2019-02-19T09:59:28Z</time>
      </trkpt>
      <trkpt lat="45.79042" lon="2.95538">
        <ele>924</ele>
        <time>2019-02-19T09:59:37Z</time>
      </trkpt>
      <trkpt lat="45.79046" lon="2.95522">
        <ele>928</ele>
        <time>2019-02-19T09:59:50Z</time>
      </trkpt>
      <trkpt lat="45.79049" lon="2.95511">
        <ele>928</ele>
        <time>2019-02-19T10:00:03Z</time>
      </trkpt>
      <trkpt lat="45.79053" lon="2.95503">
        <ele>929</ele>
        <time>2019-02-19T10:00:29Z</time>
      </trkpt>
      <trkpt lat="45.7906" lon="2.9549">
        <ele>928</ele>
        <time>2019-02-19T10:00:42Z</time>
      </trkpt>
      <trkpt lat="45.79068" lon="2.95479">
        <ele>926</ele>
        <time>2019-02-19T10:02:08Z</time>
      </trkpt>
      <trkpt lat="45.79074" lon="2.95467">
        <ele>925</ele>
        <time>2019-02-19T10:02:42Z</time>
      </trkpt>
      <trkpt lat="45.79089" lon="2.95429">
        <ele>920</ele>
        <time>2019-02-19T10:03:12Z</time>
      </trkpt>
      <trkpt lat="45.79092" lon="2.95421">
        <ele>920</ele>
        <time>2019-02-19T10:03:16Z</time>
      </trkpt>
      <trkpt lat="45.79102" lon="2.95383">
        <ele>914</ele>
        <time>2019-02-19T10:03:38Z</time>
      </trkpt>
      <trkpt lat="45.7911" lon="2.95372">
        <ele>910</ele>
        <time>2019-02-19T10:03:48Z</time>
      </trkpt>
      <trkpt lat="45.79112" lon="2.95361">
        <ele>908</ele>
        <time>2019-02-19T10:03:57Z</time>
      </trkpt>
      <trkpt lat="45.79118" lon="2.95349">
        <ele>905</ele>
        <time>2019-02-19T10:04:17Z</time>
      </trkpt>
      <trkpt lat="45.79121" lon="2.95331">
        <ele>902</ele>
        <time>2019-02-19T10:04:28Z</time>
      </trkpt>
      <trkpt lat="45.79123" lon="2.95323">
        <ele>901</ele>
        <time>2019-02-19T10:04:33Z</time>
      </trkpt>
      <trkpt lat="45.79122" lon="2.95314">
        <ele>899</ele>
        <time>2019-02-19T10:04:38Z</time>
      </trkpt>
      <trkpt lat="45.79126" lon="2.95309">
        <ele>896</ele>
        <time>2019-02-19T10:04:47Z</time>
      </trkpt>
      <trkpt lat="45.79138" lon="2.95283">
        <ele>888</ele>
        <time>2019-02-19T10:05:16Z</time>
      </trkpt>
      <trkpt lat="45.79139" lon="2.95275">
        <ele>886</ele>
        <time>2019-02-19T10:05:21Z</time>
      </trkpt>
      <trkpt lat="45.79142" lon="2.95267">
        <ele>882</ele>
        <time>2019-02-19T10:05:35Z</time>
      </trkpt>
      <trkpt lat="45.79144" lon="2.95259">
        <ele>880</ele>
        <time>2019-02-19T10:06:05Z</time>
      </trkpt>
      <trkpt lat="45.79148" lon="2.9525">
        <ele>876</ele>
        <time>2019-02-19T10:06:35Z</time>
      </trkpt>
      <trkpt lat="45.79152" lon="2.95226">
        <ele>866</ele>
        <time>2019-02-19T10:07:08Z</time>
      </trkpt>
      <trkpt lat="45.79164" lon="2.95213">
        <ele>858</ele>
        <time>2019-02-19T10:08:04Z</time>
      </trkpt>
      <trkpt lat="45.79179" lon="2.95197">
        <ele>854</ele>
        <time>2019-02-19T10:08:32Z</time>
      </trkpt>
      <trkpt lat="45.79194" lon="2.95169">
        <ele>842</ele>
        <time>2019-02-19T10:09:05Z</time>
      </trkpt>
      <trkpt lat="45.79221" lon="2.95132">
        <ele>827</ele>
        <time>2019-02-19T10:09:58Z</time>
      </trkpt>
      <trkpt lat="45.79228" lon="2.95115">
        <ele>822</ele>
        <time>2019-02-19T10:10:12Z</time>
      </trkpt>
      <trkpt lat="45.79235" lon="2.95087">
        <ele>816</ele>
        <time>2019-02-19T10:10:36Z</time>
      </trkpt>
      <trkpt lat="45.79241" lon="2.9507">
        <ele>810</ele>
        <time>2019-02-19T10:11:09Z</time>
      </trkpt>
      <trkpt lat="45.79247" lon="2.95029">
        <ele>801</ele>
        <time>2019-02-19T10:11:43Z</time>
      </trkpt>
      <trkpt lat="45.79255" lon="2.95012">
        <ele>795</ele>
        <time>2019-02-19T10:12:03Z</time>
      </trkpt>
      <trkpt lat="45.79263" lon="2.9499">
        <ele>791</ele>
        <time>2019-02-19T10:13:27Z</time>
      </trkpt>
      <trkpt lat="45.79273" lon="2.94954">
        <ele>781</ele>
        <time>2019-02-19T10:13:58Z</time>
      </trkpt>
      <trkpt lat="45.79282" lon="2.94939">
        <ele>775</ele>
        <time>2019-02-19T10:14:13Z</time>
      </trkpt>
      <trkpt lat="45.79292" lon="2.94885">
        <ele>762</ele>
        <time>2019-02-19T10:15:06Z</time>
      </trkpt>
      <trkpt lat="45.79297" lon="2.94835">
        <ele>750</ele>
        <time>2019-02-19T10:15:45Z</time>
      </trkpt>
      <trkpt lat="45.79295" lon="2.94812">
        <ele>747</ele>
        <time>2019-02-19T10:16:10Z</time>
      </trkpt>
      <trkpt lat="45.79312" lon="2.94786">
        <ele>739</ele>
        <time>2019-02-19T10:16:55Z</time>
      </trkpt>
      <trkpt lat="45.79323" lon="2.94749">
        <ele>733</ele>
        <time>2019-02-19T10:17:28Z</time>
      </trkpt>
      <trkpt lat="45.79326" lon="2.94728">
        <ele>730</ele>
        <time>2019-02-19T10:17:40Z</time>
      </trkpt>
      <trkpt lat="45.79332" lon="2.94702">
        <ele>729</ele>
        <time>2019-02-19T10:18:12Z</time>
      </trkpt>
      <trkpt lat="45.79309" lon="2.94664">
        <ele>729</ele>
        <time>2019-02-19T10:18:43Z</time>
      </trkpt>
      <trkpt lat="45.79284" lon="2.94609">
        <ele>731</ele>
        <time>2019-02-19T10:19:20Z</time>
      </trkpt>
      <trkpt lat="45.79275" lon="2.94592">
        <ele>731</ele>
        <time>2019-02-19T10:19:35Z</time>
      </trkpt>
      <trkpt lat="45.79265" lon="2.9457">
        <ele>733</ele>
        <time>2019-02-19T10:22:46Z</time>
      </trkpt>
      <trkpt lat="45.79256" lon="2.94552">
        <ele>733</ele>
        <time>2019-02-19T10:22:58Z</time>
      </trkpt>
      <trkpt lat="45.79264" lon="2.94561">
        <ele>734</ele>
        <time>2019-02-19T10:24:18Z</time>
      </trkpt>
      <trkpt lat="45.79269" lon="2.94585">
        <ele>734</ele>
        <time>2019-02-19T10:24:32Z</time>
      </trkpt>
      <trkpt lat="45.79297" lon="2.94624">
        <ele>734</ele>
        <time>2019-02-19T10:25:14Z</time>
      </trkpt>
      <trkpt lat="45.79301" lon="2.94601">
        <ele>739</ele>
        <time>2019-02-19T10:26:20Z</time>
      </trkpt>
      <trkpt lat="45.79319" lon="2.94566">
        <ele>752</ele>
        <time>2019-02-19T10:27:57Z</time>
      </trkpt>
      <trkpt lat="45.79343" lon="2.94538">
        <ele>768</ele>
        <time>2019-02-19T10:29:42Z</time>
      </trkpt>
      <trkpt lat="45.79365" lon="2.94511">
        <ele>787</ele>
        <time>2019-02-19T10:31:42Z</time>
      </trkpt>
      <trkpt lat="45.79391" lon="2.94487">
        <ele>804</ele>
        <time>2019-02-19T10:33:42Z</time>
      </trkpt>
      <trkpt lat="45.79401" lon="2.94442">
        <ele>825</ele>
        <time>2019-02-19T10:36:15Z</time>
      </trkpt>
      <trkpt lat="45.7966" lon="2.94271">
        <ele>1249.8</ele>
        <time>2019-02-19T10:57:11Z</time>
      </trkpt>
      <trkpt lat="45.79676" lon="2.93954">
        <ele>1205</ele>
        <time>2019-02-19T11:12:59Z</time>
      </trkpt>
      <trkpt lat="45.79486" lon="2.94016">
        <ele>1164</ele>
        <time>2019-02-19T11:17:38Z</time>
      </trkpt>
      <trkpt lat="45.79471" lon="2.94048">
        <ele>1164</ele>
        <time>2019-02-19T11:17:49Z</time>
      </trkpt>
      <trkpt lat="45.79472" lon="2.94032">
        <ele>1166</ele>
        <time>2019-02-19T11:19:35Z</time>
      </trkpt>
      <trkpt lat="45.796" lon="2.9381">
        <ele>1155</ele>
        <time>2019-02-19T11:23:38Z</time>
      </trkpt>
      <trkpt lat="45.79605" lon="2.93811">
        <ele>1155</ele>
        <time>2019-02-19T11:23:48Z</time>
      </trkpt>
      <trkpt lat="45.79651" lon="2.93825">
        <ele>1142</ele>
        <time>2019-02-19T11:25:10Z</time>
      </trkpt>
      <trkpt lat="45.79666" lon="2.93815">
        <ele>1140</ele>
        <time>2019-02-19T11:25:22Z</time>
      </trkpt>
      <trkpt lat="45.79679" lon="2.93808">
        <ele>1141</ele>
        <time>2019-02-19T11:25:33Z</time>
      </trkpt>
      <trkpt lat="45.79689" lon="2.93813">
        <ele>1141</ele>
        <time>2019-02-19T11:25:45Z</time>
      </trkpt>
      <trkpt lat="45.79694" lon="2.93812">
        <ele>1141</ele>
        <time>2019-02-19T11:25:51Z</time>
      </trkpt>
      <trkpt lat="45.77021" lon="2.96299">
        <ele>1410.4</ele>
        <time>2019-02-19T13:16:48Z</time>
      </trkpt>
      <trkpt lat="45.78578" lon="2.98046">
        <ele>882</ele>
        <time>2019-02-19T14:14:55Z</time>
      </trkpt>
      <trkpt lat="45.78573" lon="2.98068">
        <ele>997</ele>
        <time>2019-02-19T14:15:01Z</time>
      </trkpt>
      <trkpt lat="45.78582" lon="2.98086">
        <ele>984</ele>
        <time>2019-02-19T14:15:14Z</time>
      </trkpt>
    </trkseg>
  </trk>
  <trk>
    <name><![CDATA[18 févr. 2019 à 07:21:03]]></name>
    <cmt><![CDATA[18 févr. 2019 à 07:21:03]]></cmt>
    <trkseg>
      <trkpt lat="45.05196" lon="2.79358">
        <ele>1397</ele>
        <time>2019-02-18T06:21:03Z</time>
      </trkpt>
      <trkpt lat="45.05187" lon="2.79365">
        <ele>1396</ele>
        <time>2019-02-18T06:23:21Z</time>
      </trkpt>
      <trkpt lat="45.05194" lon="2.7938">
        <ele>1395</ele>
        <time>2019-02-18T06:23:59Z</time>
      </trkpt>
      <trkpt lat="45.05193" lon="2.79384">
        <ele>1394</ele>
        <time>2019-02-18T06:24:03Z</time>
      </trkpt>
      <trkpt lat="45.05199" lon="2.79388">
        <ele>1396</ele>
        <time>2019-02-18T06:24:16Z</time>
      </trkpt>
      <trkpt lat="45.05205" lon="2.79387">
        <ele>1396</ele>
        <time>2019-02-18T06:24:34Z</time>
      </trkpt>
      <trkpt lat="45.0521" lon="2.79381">
        <ele>1395</ele>
        <time>2019-02-18T06:24:46Z</time>
      </trkpt>
      <trkpt lat="45.05205" lon="2.79382">
        <ele>1392</ele>
        <time>2019-02-18T06:27:46Z</time>
      </trkpt>
      <trkpt lat="45.05203" lon="2.79374">
        <ele>1391</ele>
        <time>2019-02-18T06:28:18Z</time>
      </trkpt>
      <trkpt lat="45.05207" lon="2.79367">
        <ele>1391</ele>
        <time>2019-02-18T06:28:22Z</time>
      </trkpt>
      <trkpt lat="45.05212" lon="2.7934">
        <ele>1391</ele>
        <time>2019-02-18T06:28:34Z</time>
      </trkpt>
      <trkpt lat="45.05201" lon="2.79308">
        <ele>1392</ele>
        <time>2019-02-18T06:28:54Z</time>
      </trkpt>
      <trkpt lat="45.05189" lon="2.79292">
        <ele>1394</ele>
        <time>2019-02-18T06:29:08Z</time>
      </trkpt>
      <trkpt lat="45.05184" lon="2.79287">
        <ele>1395</ele>
        <time>2019-02-18T06:29:14Z</time>
      </trkpt>
      <trkpt lat="45.05179" lon="2.79284">
        <ele>1395</ele>
        <time>2019-02-18T06:29:18Z</time>
      </trkpt>
      <trkpt lat="45.05176" lon="2.79277">
        <ele>1395</ele>
        <time>2019-02-18T06:29:23Z</time>
      </trkpt>
      <trkpt lat="45.0517" lon="2.79277">
        <ele>1395</ele>
        <time>2019-02-18T06:29:27Z</time>
      </trkpt>
      <trkpt lat="45.05165" lon="2.79271">
        <ele>1396</ele>
        <time>2019-02-18T06:29:33Z</time>
      </trkpt>
      <trkpt lat="45.0516" lon="2.79266">
        <ele>1396</ele>
        <time>2019-02-18T06:29:37Z</time>
      </trkpt>
      <trkpt lat="45.05146" lon="2.79249">
        <ele>1398</ele>
        <time>2019-02-18T06:29:51Z</time>
      </trkpt>
      <trkpt lat="45.05136" lon="2.79245">
        <ele>1399</ele>
        <time>2019-02-18T06:30:01Z</time>
      </trkpt>
      <trkpt lat="45.05131" lon="2.79239">
        <ele>1399</ele>
        <time>2019-02-18T06:30:06Z</time>
      </trkpt>
      <trkpt lat="45.0513" lon="2.7923">
        <ele>1400</ele>
        <time>2019-02-18T06:30:11Z</time>
      </trkpt>
      <trkpt lat="45.05121" lon="2.79215">
        <ele>1402</ele>
        <time>2019-02-18T06:30:25Z</time>
      </trkpt>
      <trkpt lat="45.05116" lon="2.79212">
        <ele>1403</ele>
        <time>2019-02-18T06:30:30Z</time>
      </trkpt>
      <trkpt lat="45.05111" lon="2.79204">
        <ele>1404</ele>
        <time>2019-02-18T06:30:37Z</time>
      </trkpt>
      <trkpt lat="45.05109" lon="2.79196">
        <ele>1405</ele>
        <time>2019-02-18T06:30:43Z</time>
      </trkpt>
      <trkpt lat="45.05101" lon="2.79192">
        <ele>1407</ele>
        <time>2019-02-18T06:30:53Z</time>
      </trkpt>
      <trkpt lat="45.05095" lon="2.79184">
        <ele>1409</ele>
        <time>2019-02-18T06:31:03Z</time>
      </trkpt>
      <trkpt lat="45.05088" lon="2.79176">
        <ele>1412</ele>
        <time>2019-02-18T06:31:15Z</time>
      </trkpt>
      <trkpt lat="45.05071" lon="2.79154">
        <ele>1417</ele>
        <time>2019-02-18T06:31:42Z</time>
      </trkpt>
      <trkpt lat="45.05064" lon="2.7915">
        <ele>1419</ele>
        <time>2019-02-18T06:31:51Z</time>
      </trkpt>
      <trkpt lat="45.05064" lon="2.79139">
        <ele>1420</ele>
        <time>2019-02-18T06:31:59Z</time>
      </trkpt>
      <trkpt lat="45.05039" lon="2.79112">
        <ele>1426</ele>
        <time>2019-02-18T06:32:39Z</time>
      </trkpt>
      <trkpt lat="45.05024" lon="2.79099">
        <ele>1430</ele>
        <time>2019-02-18T06:33:06Z</time>
      </trkpt>
      <trkpt lat="45.05019" lon="2.79089">
        <ele>1433</ele>
        <time>2019-02-18T06:33:18Z</time>
      </trkpt>
      <trkpt lat="45.05009" lon="2.79084">
        <ele>1436</ele>
        <time>2019-02-18T06:33:36Z</time>
      </trkpt>
      <trkpt lat="45.04993" lon="2.79064">
        <ele>1441</ele>
        <time>2019-02-18T06:34:02Z</time>
      </trkpt>
      <trkpt lat="45.04985" lon="2.79041">
        <ele>1444</ele>
        <time>2019-02-18T06:34:22Z</time>
      </trkpt>
      <trkpt lat="45.04977" lon="2.79036">
        <ele>1445</ele>
        <time>2019-02-18T06:34:30Z</time>
      </trkpt>
      <trkpt lat="45.04971" lon="2.79037">
        <ele>1447</ele>
        <time>2019-02-18T06:34:40Z</time>
      </trkpt>
      <trkpt lat="45.04961" lon="2.79051">
        <ele>1450</ele>
        <time>2019-02-18T06:34:58Z</time>
      </trkpt>
      <trkpt lat="45.04949" lon="2.79059">
        <ele>1452</ele>
        <time>2019-02-18T06:35:13Z</time>
      </trkpt>
      <trkpt lat="45.0494" lon="2.79072">
        <ele>1455</ele>
        <time>2019-02-18T06:35:28Z</time>
      </trkpt>
      <trkpt lat="45.04929" lon="2.79084">
        <ele>1458</ele>
        <time>2019-02-18T06:35:43Z</time>
      </trkpt>
      <trkpt lat="45.04924" lon="2.79086">
        <ele>1458</ele>
        <time>2019-02-18T06:35:48Z</time>
      </trkpt>
      <trkpt lat="45.04916" lon="2.79085">
        <ele>1460</ele>
        <time>2019-02-18T06:35:59Z</time>
      </trkpt>
      <trkpt lat="45.04911" lon="2.79088">
        <ele>1462</ele>
        <time>2019-02-18T06:36:06Z</time>
      </trkpt>
      <trkpt lat="45.04897" lon="2.79098">
        <ele>1465</ele>
        <time>2019-02-18T06:36:25Z</time>
      </trkpt>
      <trkpt lat="45.0489" lon="2.79095">
        <ele>1468</ele>
        <time>2019-02-18T06:36:39Z</time>
      </trkpt>
      <trkpt lat="45.04884" lon="2.79099">
        <ele>1469</ele>
        <time>2019-02-18T06:36:49Z</time>
      </trkpt>
      <trkpt lat="45.04878" lon="2.79103">
        <ele>1472</ele>
        <time>2019-02-18T06:37:04Z</time>
      </trkpt>
      <trkpt lat="45.04872" lon="2.79106">
        <ele>1473</ele>
        <time>2019-02-18T06:37:19Z</time>
      </trkpt>
      <trkpt lat="45.04866" lon="2.79108">
        <ele>1476</ele>
        <time>2019-02-18T06:37:31Z</time>
      </trkpt>
      <trkpt lat="45.04858" lon="2.79102">
        <ele>1479</ele>
        <time>2019-02-18T06:37:49Z</time>
      </trkpt>
      <trkpt lat="45.04854" lon="2.79095">
        <ele>1480</ele>
        <time>2019-02-18T06:38:07Z</time>
      </trkpt>
      <trkpt lat="45.0485" lon="2.79061">
        <ele>1486</ele>
        <time>2019-02-18T06:38:50Z</time>
      </trkpt>
      <trkpt lat="45.04849" lon="2.79049">
        <ele>1489</ele>
        <time>2019-02-18T06:39:08Z</time>
      </trkpt>
      <trkpt lat="45.04849" lon="2.79038">
        <ele>1492</ele>
        <time>2019-02-18T06:39:26Z</time>
      </trkpt>
      <trkpt lat="45.04844" lon="2.79024">
        <ele>1495</ele>
        <time>2019-02-18T06:39:39Z</time>
      </trkpt>
      <trkpt lat="45.04846" lon="2.79015">
        <ele>1497</ele>
        <time>2019-02-18T06:39:52Z</time>
      </trkpt>
      <trkpt lat="45.04842" lon="2.78987">
        <ele>1501</ele>
        <time>2019-02-18T06:40:25Z</time>
      </trkpt>
      <trkpt lat="45.04839" lon="2.78979">
        <ele>1503</ele>
        <time>2019-02-18T06:40:37Z</time>
      </trkpt>
      <trkpt lat="45.04837" lon="2.78971">
        <ele>1505</ele>
        <time>2019-02-18T06:40:55Z</time>
      </trkpt>
      <trkpt lat="45.04828" lon="2.78963">
        <ele>1507</ele>
        <time>2019-02-18T06:41:14Z</time>
      </trkpt>
      <trkpt lat="45.04821" lon="2.7896">
        <ele>1508</ele>
        <time>2019-02-18T06:41:26Z</time>
      </trkpt>
      <trkpt lat="45.04814" lon="2.78955">
        <ele>1510</ele>
        <time>2019-02-18T06:41:38Z</time>
      </trkpt>
      <trkpt lat="45.04809" lon="2.78951">
        <ele>1510</ele>
        <time>2019-02-18T06:41:44Z</time>
      </trkpt>
      <trkpt lat="45.04803" lon="2.78945">
        <ele>1512</ele>
        <time>2019-02-18T06:41:53Z</time>
      </trkpt>
      <trkpt lat="45.04798" lon="2.78933">
        <ele>1514</ele>
        <time>2019-02-18T06:42:05Z</time>
      </trkpt>
      <trkpt lat="45.04791" lon="2.78925">
        <ele>1514</ele>
        <time>2019-02-18T06:42:17Z</time>
      </trkpt>
      <trkpt lat="45.04778" lon="2.78928">
        <ele>1515</ele>
        <time>2019-02-18T06:42:36Z</time>
      </trkpt>
      <trkpt lat="45.04772" lon="2.78928">
        <ele>1516</ele>
        <time>2019-02-18T06:42:45Z</time>
      </trkpt>
      <trkpt lat="45.04767" lon="2.78922">
        <ele>1517</ele>
        <time>2019-02-18T06:42:52Z</time>
      </trkpt>
      <trkpt lat="45.04761" lon="2.78922">
        <ele>1517</ele>
        <time>2019-02-18T06:42:58Z</time>
      </trkpt>
      <trkpt lat="45.04754" lon="2.78918">
        <ele>1517</ele>
        <time>2019-02-18T06:43:06Z</time>
      </trkpt>
      <trkpt lat="45.04749" lon="2.78916">
        <ele>1518</ele>
        <time>2019-02-18T06:43:14Z</time>
      </trkpt>
      <trkpt lat="45.04732" lon="2.7887">
        <ele>1521</ele>
        <time>2019-02-18T06:43:53Z</time>
      </trkpt>
      <trkpt lat="45.04728" lon="2.7886">
        <ele>1523</ele>
        <time>2019-02-18T06:44:03Z</time>
      </trkpt>
      <trkpt lat="45.04723" lon="2.7885">
        <ele>1523</ele>
        <time>2019-02-18T06:44:16Z</time>
      </trkpt>
      <trkpt lat="45.04712" lon="2.78843">
        <ele>1526</ele>
        <time>2019-02-18T06:44:37Z</time>
      </trkpt>
      <trkpt lat="45.04706" lon="2.78834">
        <ele>1527</ele>
        <time>2019-02-18T06:44:49Z</time>
      </trkpt>
      <trkpt lat="45.04692" lon="2.78819">
        <ele>1530</ele>
        <time>2019-02-18T06:45:10Z</time>
      </trkpt>
      <trkpt lat="45.04684" lon="2.78813">
        <ele>1531</ele>
        <time>2019-02-18T06:45:21Z</time>
      </trkpt>
      <trkpt lat="45.04674" lon="2.78803">
        <ele>1532</ele>
        <time>2019-02-18T06:45:36Z</time>
      </trkpt>
      <trkpt lat="45.04671" lon="2.78793">
        <ele>1534</ele>
        <time>2019-02-18T06:45:49Z</time>
      </trkpt>
      <trkpt lat="45.04669" lon="2.78785">
        <ele>1535</ele>
        <time>2019-02-18T06:45:55Z</time>
      </trkpt>
      <trkpt lat="45.04665" lon="2.78778">
        <ele>1535</ele>
        <time>2019-02-18T06:46:04Z</time>
      </trkpt>
      <trkpt lat="45.04658" lon="2.78764">
        <ele>1536</ele>
        <time>2019-02-18T06:46:17Z</time>
      </trkpt>
      <trkpt lat="45.04652" lon="2.78756">
        <ele>1536</ele>
        <time>2019-02-18T06:46:28Z</time>
      </trkpt>
      <trkpt lat="45.04645" lon="2.78752">
        <ele>1537</ele>
        <time>2019-02-18T06:46:39Z</time>
      </trkpt>
      <trkpt lat="45.04633" lon="2.78734">
        <ele>1540</ele>
        <time>2019-02-18T06:47:01Z</time>
      </trkpt>
      <trkpt lat="45.04628" lon="2.78731">
        <ele>1542</ele>
        <time>2019-02-18T06:47:15Z</time>
      </trkpt>
      <trkpt lat="45.04624" lon="2.78723">
        <ele>1542</ele>
        <time>2019-02-18T06:47:27Z</time>
      </trkpt>
      <trkpt lat="45.04616" lon="2.78716">
        <ele>1543</ele>
        <time>2019-02-18T06:47:39Z</time>
      </trkpt>
      <trkpt lat="45.04613" lon="2.78707">
        <ele>1544</ele>
        <time>2019-02-18T06:47:51Z</time>
      </trkpt>
      <trkpt lat="45.0461" lon="2.78696">
        <ele>1546</ele>
        <time>2019-02-18T06:48:03Z</time>
      </trkpt>
      <trkpt lat="45.04602" lon="2.78689">
        <ele>1546</ele>
        <time>2019-02-18T06:48:13Z</time>
      </trkpt>
      <trkpt lat="45.04593" lon="2.78684">
        <ele>1547</ele>
        <time>2019-02-18T06:48:28Z</time>
      </trkpt>
      <trkpt lat="45.04586" lon="2.78666">
        <ele>1552</ele>
        <time>2019-02-18T06:48:52Z</time>
      </trkpt>
      <trkpt lat="45.04587" lon="2.78644">
        <ele>1555</ele>
        <time>2019-02-18T06:49:16Z</time>
      </trkpt>
      <trkpt lat="45.04581" lon="2.78623">
        <ele>1557</ele>
        <time>2019-02-18T06:49:40Z</time>
      </trkpt>
      <trkpt lat="45.04578" lon="2.78614">
        <ele>1556</ele>
        <time>2019-02-18T06:49:48Z</time>
      </trkpt>
      <trkpt lat="45.04571" lon="2.78609">
        <ele>1558</ele>
        <time>2019-02-18T06:50:00Z</time>
      </trkpt>
      <trkpt lat="45.04568" lon="2.78597">
        <ele>1558</ele>
        <time>2019-02-18T06:50:13Z</time>
      </trkpt>
      <trkpt lat="45.04564" lon="2.78585">
        <ele>1559</ele>
        <time>2019-02-18T06:50:25Z</time>
      </trkpt>
      <trkpt lat="45.0455" lon="2.78564">
        <ele>1562</ele>
        <time>2019-02-18T06:50:51Z</time>
      </trkpt>
      <trkpt lat="45.04542" lon="2.78561">
        <ele>1562</ele>
        <time>2019-02-18T06:50:58Z</time>
      </trkpt>
      <trkpt lat="45.04537" lon="2.78554">
        <ele>1563</ele>
        <time>2019-02-18T06:51:04Z</time>
      </trkpt>
      <trkpt lat="45.04533" lon="2.78555">
        <ele>1564</ele>
        <time>2019-02-18T06:52:01Z</time>
      </trkpt>
      <trkpt lat="45.04529" lon="2.78545">
        <ele>1567</ele>
        <time>2019-02-18T06:52:14Z</time>
      </trkpt>
      <trkpt lat="45.04529" lon="2.78534">
        <ele>1569</ele>
        <time>2019-02-18T06:52:27Z</time>
      </trkpt>
      <trkpt lat="45.04531" lon="2.78521">
        <ele>1572</ele>
        <time>2019-02-18T06:52:42Z</time>
      </trkpt>
      <trkpt lat="45.04536" lon="2.7851">
        <ele>1574</ele>
        <time>2019-02-18T06:53:06Z</time>
      </trkpt>
      <trkpt lat="45.04535" lon="2.78503">
        <ele>1576</ele>
        <time>2019-02-18T06:53:18Z</time>
      </trkpt>
      <trkpt lat="45.04534" lon="2.78486">
        <ele>1578</ele>
        <time>2019-02-18T06:53:35Z</time>
      </trkpt>
      <trkpt lat="45.04533" lon="2.78477">
        <ele>1579</ele>
        <time>2019-02-18T06:53:46Z</time>
      </trkpt>
      <trkpt lat="45.04536" lon="2.78459">
        <ele>1583</ele>
        <time>2019-02-18T06:54:10Z</time>
      </trkpt>
      <trkpt lat="45.04541" lon="2.78453">
        <ele>1584</ele>
        <time>2019-02-18T06:54:22Z</time>
      </trkpt>
      <trkpt lat="45.04541" lon="2.78444">
        <ele>1586</ele>
        <time>2019-02-18T06:54:34Z</time>
      </trkpt>
      <trkpt lat="45.04547" lon="2.78439">
        <ele>1589</ele>
        <time>2019-02-18T06:54:47Z</time>
      </trkpt>
      <trkpt lat="45.04552" lon="2.78436">
        <ele>1592</ele>
        <time>2019-02-18T06:54:59Z</time>
      </trkpt>
      <trkpt lat="45.04557" lon="2.7843">
        <ele>1593</ele>
        <time>2019-02-18T06:55:11Z</time>
      </trkpt>
      <trkpt lat="45.04562" lon="2.78426">
        <ele>1595</ele>
        <time>2019-02-18T06:55:23Z</time>
      </trkpt>
      <trkpt lat="45.04563" lon="2.78417">
        <ele>1597</ele>
        <time>2019-02-18T06:55:35Z</time>
      </trkpt>
      <trkpt lat="45.04567" lon="2.78407">
        <ele>1599</ele>
        <time>2019-02-18T06:55:53Z</time>
      </trkpt>
      <trkpt lat="45.04565" lon="2.78387">
        <ele>1603</ele>
        <time>2019-02-18T06:56:16Z</time>
      </trkpt>
      <trkpt lat="45.04562" lon="2.78379">
        <ele>1605</ele>
        <time>2019-02-18T06:56:30Z</time>
      </trkpt>
      <trkpt lat="45.04565" lon="2.7837">
        <ele>1607</ele>
        <time>2019-02-18T06:56:42Z</time>
      </trkpt>
      <trkpt lat="45.04562" lon="2.78341">
        <ele>1611</ele>
        <time>2019-02-18T06:57:14Z</time>
      </trkpt>
      <trkpt lat="45.04561" lon="2.78331">
        <ele>1613</ele>
        <time>2019-02-18T06:57:26Z</time>
      </trkpt>
      <trkpt lat="45.04561" lon="2.78322">
        <ele>1614</ele>
        <time>2019-02-18T06:57:33Z</time>
      </trkpt>
      <trkpt lat="45.04556" lon="2.78313">
        <ele>1615</ele>
        <time>2019-02-18T06:57:46Z</time>
      </trkpt>
      <trkpt lat="45.04554" lon="2.78304">
        <ele>1616</ele>
        <time>2019-02-18T06:57:52Z</time>
      </trkpt>
      <trkpt lat="45.04554" lon="2.78294">
        <ele>1617</ele>
        <time>2019-02-18T06:58:04Z</time>
      </trkpt>
      <trkpt lat="45.04555" lon="2.78285">
        <ele>1619</ele>
        <time>2019-02-18T06:58:15Z</time>
      </trkpt>
      <trkpt lat="45.04555" lon="2.78274">
        <ele>1620</ele>
        <time>2019-02-18T06:58:25Z</time>
      </trkpt>
      <trkpt lat="45.04552" lon="2.78264">
        <ele>1621</ele>
        <time>2019-02-18T06:58:37Z</time>
      </trkpt>
      <trkpt lat="45.04549" lon="2.78244">
        <ele>1623</ele>
        <time>2019-02-18T06:59:00Z</time>
      </trkpt>
      <trkpt lat="45.04545" lon="2.78225">
        <ele>1626</ele>
        <time>2019-02-18T06:59:24Z</time>
      </trkpt>
      <trkpt lat="45.04545" lon="2.78214">
        <ele>1628</ele>
        <time>2019-02-18T06:59:35Z</time>
      </trkpt>
      <trkpt lat="45.04558" lon="2.78194">
        <ele>1632</ele>
        <time>2019-02-18T07:00:12Z</time>
      </trkpt>
      <trkpt lat="45.04559" lon="2.78189">
        <ele>1631</ele>
        <time>2019-02-18T07:00:16Z</time>
      </trkpt>
      <trkpt lat="45.04563" lon="2.78177">
        <ele>1633</ele>
        <time>2019-02-18T07:00:29Z</time>
      </trkpt>
      <trkpt lat="45.04568" lon="2.78165">
        <ele>1633</ele>
        <time>2019-02-18T07:00:41Z</time>
      </trkpt>
      <trkpt lat="45.0458" lon="2.78146">
        <ele>1636</ele>
        <time>2019-02-18T07:00:57Z</time>
      </trkpt>
      <trkpt lat="45.04597" lon="2.78132">
        <ele>1638</ele>
        <time>2019-02-18T07:01:15Z</time>
      </trkpt>
      <trkpt lat="45.04602" lon="2.78123">
        <ele>1638</ele>
        <time>2019-02-18T07:01:22Z</time>
      </trkpt>
      <trkpt lat="45.04618" lon="2.78107">
        <ele>1637</ele>
        <time>2019-02-18T07:01:39Z</time>
      </trkpt>
      <trkpt lat="45.04621" lon="2.781">
        <ele>1637</ele>
        <time>2019-02-18T07:01:43Z</time>
      </trkpt>
      <trkpt lat="45.04643" lon="2.78063">
        <ele>1638</ele>
        <time>2019-02-18T07:02:14Z</time>
      </trkpt>
      <trkpt lat="45.04646" lon="2.78057">
        <ele>1638</ele>
        <time>2019-02-18T07:02:18Z</time>
      </trkpt>
      <trkpt lat="45.04651" lon="2.78042">
        <ele>1638</ele>
        <time>2019-02-18T07:02:28Z</time>
      </trkpt>
      <trkpt lat="45.0466" lon="2.7803">
        <ele>1639</ele>
        <time>2019-02-18T07:02:39Z</time>
      </trkpt>
      <trkpt lat="45.04662" lon="2.78022">
        <ele>1639</ele>
        <time>2019-02-18T07:02:44Z</time>
      </trkpt>
      <trkpt lat="45.04664" lon="2.78014">
        <ele>1639</ele>
        <time>2019-02-18T07:02:49Z</time>
      </trkpt>
      <trkpt lat="45.04672" lon="2.78002">
        <ele>1639</ele>
        <time>2019-02-18T07:03:01Z</time>
      </trkpt>
      <trkpt lat="45.04685" lon="2.77985">
        <ele>1640</ele>
        <time>2019-02-18T07:03:15Z</time>
      </trkpt>
      <trkpt lat="45.04694" lon="2.77962">
        <ele>1639</ele>
        <time>2019-02-18T07:03:29Z</time>
      </trkpt>
      <trkpt lat="45.04698" lon="2.77957">
        <ele>1640</ele>
        <time>2019-02-18T07:03:35Z</time>
      </trkpt>
      <trkpt lat="45.04702" lon="2.77949">
        <ele>1640</ele>
        <time>2019-02-18T07:03:40Z</time>
      </trkpt>
      <trkpt lat="45.04706" lon="2.7794">
        <ele>1641</ele>
        <time>2019-02-18T07:03:48Z</time>
      </trkpt>
      <trkpt lat="45.04712" lon="2.77937">
        <ele>1641</ele>
        <time>2019-02-18T07:03:53Z</time>
      </trkpt>
      <trkpt lat="45.04721" lon="2.77927">
        <ele>1642</ele>
        <time>2019-02-18T07:04:04Z</time>
      </trkpt>
      <trkpt lat="45.04727" lon="2.77925">
        <ele>1643</ele>
        <time>2019-02-18T07:04:09Z</time>
      </trkpt>
      <trkpt lat="45.04745" lon="2.77923">
        <ele>1645</ele>
        <time>2019-02-18T07:04:22Z</time>
      </trkpt>
      <trkpt lat="45.04751" lon="2.7792">
        <ele>1644</ele>
        <time>2019-02-18T07:04:27Z</time>
      </trkpt>
      <trkpt lat="45.04755" lon="2.77915">
        <ele>1643</ele>
        <time>2019-02-18T07:04:31Z</time>
      </trkpt>
      <trkpt lat="45.04761" lon="2.77912">
        <ele>1644</ele>
        <time>2019-02-18T07:04:37Z</time>
      </trkpt>
      <trkpt lat="45.04778" lon="2.77896">
        <ele>1647</ele>
        <time>2019-02-18T07:04:57Z</time>
      </trkpt>
      <trkpt lat="45.0479" lon="2.7789">
        <ele>1647</ele>
        <time>2019-02-18T07:05:07Z</time>
      </trkpt>
      <trkpt lat="45.04796" lon="2.77887">
        <ele>1646</ele>
        <time>2019-02-18T07:05:13Z</time>
      </trkpt>
      <trkpt lat="45.04801" lon="2.77881">
        <ele>1647</ele>
        <time>2019-02-18T07:05:18Z</time>
      </trkpt>
      <trkpt lat="45.04805" lon="2.77875">
        <ele>1647</ele>
        <time>2019-02-18T07:05:22Z</time>
      </trkpt>
      <trkpt lat="45.04807" lon="2.77868">
        <ele>1644</ele>
        <time>2019-02-18T07:05:31Z</time>
      </trkpt>
      <trkpt lat="45.04813" lon="2.77866">
        <ele>1644</ele>
        <time>2019-02-18T07:05:35Z</time>
      </trkpt>
      <trkpt lat="45.04819" lon="2.77868">
        <ele>1644</ele>
        <time>2019-02-18T07:05:40Z</time>
      </trkpt>
      <trkpt lat="45.04836" lon="2.77876">
        <ele>1644</ele>
        <time>2019-02-18T07:05:53Z</time>
      </trkpt>
      <trkpt lat="45.04856" lon="2.77871">
        <ele>1646</ele>
        <time>2019-02-18T07:06:11Z</time>
      </trkpt>
      <trkpt lat="45.04874" lon="2.77865">
        <ele>1646</ele>
        <time>2019-02-18T07:06:26Z</time>
      </trkpt>
      <trkpt lat="45.04897" lon="2.77858">
        <ele>1642</ele>
        <time>2019-02-18T07:06:43Z</time>
      </trkpt>
      <trkpt lat="45.0493" lon="2.77836">
        <ele>1637</ele>
        <time>2019-02-18T07:07:08Z</time>
      </trkpt>
      <trkpt lat="45.0494" lon="2.77826">
        <ele>1635</ele>
        <time>2019-02-18T07:07:19Z</time>
      </trkpt>
      <trkpt lat="45.04955" lon="2.77813">
        <ele>1633</ele>
        <time>2019-02-18T07:07:32Z</time>
      </trkpt>
      <trkpt lat="45.04961" lon="2.77812">
        <ele>1633</ele>
        <time>2019-02-18T07:07:38Z</time>
      </trkpt>
      <trkpt lat="45.04967" lon="2.77805">
        <ele>1631</ele>
        <time>2019-02-18T07:07:44Z</time>
      </trkpt>
      <trkpt lat="45.0497" lon="2.77799">
        <ele>1631</ele>
        <time>2019-02-18T07:07:48Z</time>
      </trkpt>
      <trkpt lat="45.04976" lon="2.77794">
        <ele>1630</ele>
        <time>2019-02-18T07:07:53Z</time>
      </trkpt>
      <trkpt lat="45.05002" lon="2.77754">
        <ele>1619</ele>
        <time>2019-02-18T07:08:24Z</time>
      </trkpt>
      <trkpt lat="45.05019" lon="2.77741">
        <ele>1616</ele>
        <time>2019-02-18T07:08:38Z</time>
      </trkpt>
      <trkpt lat="45.05024" lon="2.77737">
        <ele>1616</ele>
        <time>2019-02-18T07:08:43Z</time>
      </trkpt>
      <trkpt lat="45.0503" lon="2.77734">
        <ele>1616</ele>
        <time>2019-02-18T07:08:48Z</time>
      </trkpt>
      <trkpt lat="45.05034" lon="2.77729">
        <ele>1615</ele>
        <time>2019-02-18T07:08:53Z</time>
      </trkpt>
      <trkpt lat="45.0504" lon="2.77727">
        <ele>1615</ele>
        <time>2019-02-18T07:08:57Z</time>
      </trkpt>
      <trkpt lat="45.05046" lon="2.77722">
        <ele>1614</ele>
        <time>2019-02-18T07:09:01Z</time>
      </trkpt>
      <trkpt lat="45.05057" lon="2.77714">
        <ele>1613</ele>
        <time>2019-02-18T07:09:12Z</time>
      </trkpt>
      <trkpt lat="45.05062" lon="2.77709">
        <ele>1613</ele>
        <time>2019-02-18T07:09:17Z</time>
      </trkpt>
      <trkpt lat="45.05071" lon="2.77698">
        <ele>1612</ele>
        <time>2019-02-18T07:09:27Z</time>
      </trkpt>
      <trkpt lat="45.05075" lon="2.77694">
        <ele>1612</ele>
        <time>2019-02-18T07:09:32Z</time>
      </trkpt>
      <trkpt lat="45.05078" lon="2.77686">
        <ele>1610</ele>
        <time>2019-02-18T07:09:37Z</time>
      </trkpt>
      <trkpt lat="45.05084" lon="2.77683">
        <ele>1610</ele>
        <time>2019-02-18T07:09:43Z</time>
      </trkpt>
      <trkpt lat="45.05091" lon="2.77681">
        <ele>1609</ele>
        <time>2019-02-18T07:09:52Z</time>
      </trkpt>
      <trkpt lat="45.05109" lon="2.77668">
        <ele>1601</ele>
        <time>2019-02-18T07:10:15Z</time>
      </trkpt>
      <trkpt lat="45.05118" lon="2.77663">
        <ele>1596</ele>
        <time>2019-02-18T07:10:27Z</time>
      </trkpt>
      <trkpt lat="45.05155" lon="2.77654">
        <ele>1590</ele>
        <time>2019-02-18T07:10:57Z</time>
      </trkpt>
      <trkpt lat="45.05161" lon="2.77655">
        <ele>1590</ele>
        <time>2019-02-18T07:11:01Z</time>
      </trkpt>
      <trkpt lat="45.05166" lon="2.77653">
        <ele>1590</ele>
        <time>2019-02-18T07:11:05Z</time>
      </trkpt>
      <trkpt lat="45.05172" lon="2.7765">
        <ele>1589</ele>
        <time>2019-02-18T07:11:11Z</time>
      </trkpt>
      <trkpt lat="45.05176" lon="2.77646">
        <ele>1589</ele>
        <time>2019-02-18T07:11:14Z</time>
      </trkpt>
      <trkpt lat="45.05195" lon="2.77641">
        <ele>1590</ele>
        <time>2019-02-18T07:11:30Z</time>
      </trkpt>
      <trkpt lat="45.05205" lon="2.77639">
        <ele>1590</ele>
        <time>2019-02-18T07:11:40Z</time>
      </trkpt>
      <trkpt lat="45.0521" lon="2.77636">
        <ele>1591</ele>
        <time>2019-02-18T07:11:48Z</time>
      </trkpt>
      <trkpt lat="45.05215" lon="2.77627">
        <ele>1595</ele>
        <time>2019-02-18T07:11:55Z</time>
      </trkpt>
      <trkpt lat="45.05217" lon="2.77619">
        <ele>1597</ele>
        <time>2019-02-18T07:12:02Z</time>
      </trkpt>
      <trkpt lat="45.0522" lon="2.77611">
        <ele>1596</ele>
        <time>2019-02-18T07:12:13Z</time>
      </trkpt>
      <trkpt lat="45.05224" lon="2.77607">
        <ele>1598</ele>
        <time>2019-02-18T07:12:20Z</time>
      </trkpt>
      <trkpt lat="45.05226" lon="2.77597">
        <ele>1600</ele>
        <time>2019-02-18T07:12:30Z</time>
      </trkpt>
      <trkpt lat="45.0523" lon="2.7759">
        <ele>1598</ele>
        <time>2019-02-18T07:12:40Z</time>
      </trkpt>
      <trkpt lat="45.05236" lon="2.77585">
        <ele>1598</ele>
        <time>2019-02-18T07:12:52Z</time>
      </trkpt>
      <trkpt lat="45.0524" lon="2.7758">
        <ele>1601</ele>
        <time>2019-02-18T07:13:04Z</time>
      </trkpt>
      <trkpt lat="45.05241" lon="2.77565">
        <ele>1604</ele>
        <time>2019-02-18T07:13:16Z</time>
      </trkpt>
      <trkpt lat="45.05241" lon="2.77556">
        <ele>1603</ele>
        <time>2019-02-18T07:13:23Z</time>
      </trkpt>
      <trkpt lat="45.05244" lon="2.77546">
        <ele>1605</ele>
        <time>2019-02-18T07:13:31Z</time>
      </trkpt>
      <trkpt lat="45.05247" lon="2.77532">
        <ele>1605</ele>
        <time>2019-02-18T07:13:46Z</time>
      </trkpt>
      <trkpt lat="45.05251" lon="2.77513">
        <ele>1607</ele>
        <time>2019-02-18T07:14:00Z</time>
      </trkpt>
      <trkpt lat="45.05253" lon="2.77505">
        <ele>1607</ele>
        <time>2019-02-18T07:14:04Z</time>
      </trkpt>
      <trkpt lat="45.05258" lon="2.775">
        <ele>1606</ele>
        <time>2019-02-18T07:14:10Z</time>
      </trkpt>
      <trkpt lat="45.05262" lon="2.77494">
        <ele>1606</ele>
        <time>2019-02-18T07:14:14Z</time>
      </trkpt>
      <trkpt lat="45.05266" lon="2.77488">
        <ele>1607</ele>
        <time>2019-02-18T07:14:19Z</time>
      </trkpt>
      <trkpt lat="45.0527" lon="2.77482">
        <ele>1606</ele>
        <time>2019-02-18T07:14:24Z</time>
      </trkpt>
      <trkpt lat="45.05272" lon="2.77475">
        <ele>1605</ele>
        <time>2019-02-18T07:14:30Z</time>
      </trkpt>
      <trkpt lat="45.05283" lon="2.77452">
        <ele>1607</ele>
        <time>2019-02-18T07:14:51Z</time>
      </trkpt>
      <trkpt lat="45.05292" lon="2.77443">
        <ele>1609</ele>
        <time>2019-02-18T07:15:02Z</time>
      </trkpt>
      <trkpt lat="45.05299" lon="2.77434">
        <ele>1610</ele>
        <time>2019-02-18T07:15:11Z</time>
      </trkpt>
      <trkpt lat="45.05304" lon="2.77432">
        <ele>1610</ele>
        <time>2019-02-18T07:15:17Z</time>
      </trkpt>
      <trkpt lat="45.05308" lon="2.77425">
        <ele>1611</ele>
        <time>2019-02-18T07:15:23Z</time>
      </trkpt>
      <trkpt lat="45.05313" lon="2.77422">
        <ele>1610</ele>
        <time>2019-02-18T07:15:28Z</time>
      </trkpt>
      <trkpt lat="45.05317" lon="2.77415">
        <ele>1610</ele>
        <time>2019-02-18T07:15:32Z</time>
      </trkpt>
      <trkpt lat="45.0532" lon="2.77407">
        <ele>1611</ele>
        <time>2019-02-18T07:15:38Z</time>
      </trkpt>
      <trkpt lat="45.05324" lon="2.774">
        <ele>1611</ele>
        <time>2019-02-18T07:15:42Z</time>
      </trkpt>
      <trkpt lat="45.05341" lon="2.77376">
        <ele>1614</ele>
        <time>2019-02-18T07:16:05Z</time>
      </trkpt>
      <trkpt lat="45.05345" lon="2.7737">
        <ele>1616</ele>
        <time>2019-02-18T07:16:13Z</time>
      </trkpt>
      <trkpt lat="45.05358" lon="2.77353">
        <ele>1621</ele>
        <time>2019-02-18T07:16:37Z</time>
      </trkpt>
      <trkpt lat="45.05375" lon="2.7733">
        <ele>1622</ele>
        <time>2019-02-18T07:17:01Z</time>
      </trkpt>
      <trkpt lat="45.05384" lon="2.77327">
        <ele>1624</ele>
        <time>2019-02-18T07:17:12Z</time>
      </trkpt>
      <trkpt lat="45.05385" lon="2.77316">
        <ele>1624</ele>
        <time>2019-02-18T07:17:22Z</time>
      </trkpt>
      <trkpt lat="45.05393" lon="2.77283">
        <ele>1622</ele>
        <time>2019-02-18T07:17:46Z</time>
      </trkpt>
      <trkpt lat="45.05396" lon="2.77274">
        <ele>1623</ele>
        <time>2019-02-18T07:17:53Z</time>
      </trkpt>
      <trkpt lat="45.054" lon="2.77266">
        <ele>1624</ele>
        <time>2019-02-18T07:18:01Z</time>
      </trkpt>
      <trkpt lat="45.05404" lon="2.77256">
        <ele>1626</ele>
        <time>2019-02-18T07:18:15Z</time>
      </trkpt>
      <trkpt lat="45.05404" lon="2.77245">
        <ele>1626</ele>
        <time>2019-02-18T07:18:27Z</time>
      </trkpt>
      <trkpt lat="45.05405" lon="2.77235">
        <ele>1628</ele>
        <time>2019-02-18T07:18:38Z</time>
      </trkpt>
      <trkpt lat="45.05409" lon="2.77229">
        <ele>1631</ele>
        <time>2019-02-18T07:18:50Z</time>
      </trkpt>
      <trkpt lat="45.05409" lon="2.77219">
        <ele>1631</ele>
        <time>2019-02-18T07:19:02Z</time>
      </trkpt>
      <trkpt lat="45.05408" lon="2.77214">
        <ele>1631</ele>
        <time>2019-02-18T07:19:08Z</time>
      </trkpt>
      <trkpt lat="45.05411" lon="2.77207">
        <ele>1634</ele>
        <time>2019-02-18T07:19:19Z</time>
      </trkpt>
      <trkpt lat="45.05415" lon="2.77203">
        <ele>1636</ele>
        <time>2019-02-18T07:19:31Z</time>
      </trkpt>
      <trkpt lat="45.0542" lon="2.77198">
        <ele>1636</ele>
        <time>2019-02-18T07:19:43Z</time>
      </trkpt>
      <trkpt lat="45.05422" lon="2.7719">
        <ele>1637</ele>
        <time>2019-02-18T07:19:55Z</time>
      </trkpt>
      <trkpt lat="45.05424" lon="2.77181">
        <ele>1638</ele>
        <time>2019-02-18T07:20:07Z</time>
      </trkpt>
      <trkpt lat="45.05431" lon="2.77163">
        <ele>1640</ele>
        <time>2019-02-18T07:20:31Z</time>
      </trkpt>
      <trkpt lat="45.05432" lon="2.77154">
        <ele>1642</ele>
        <time>2019-02-18T07:20:43Z</time>
      </trkpt>
      <trkpt lat="45.05433" lon="2.77147">
        <ele>1642</ele>
        <time>2019-02-18T07:20:55Z</time>
      </trkpt>
      <trkpt lat="45.05438" lon="2.77139">
        <ele>1644</ele>
        <time>2019-02-18T07:21:07Z</time>
      </trkpt>
      <trkpt lat="45.05444" lon="2.77122">
        <ele>1646</ele>
        <time>2019-02-18T07:21:31Z</time>
      </trkpt>
      <trkpt lat="45.05453" lon="2.77094">
        <ele>1652</ele>
        <time>2019-02-18T07:22:13Z</time>
      </trkpt>
      <trkpt lat="45.05456" lon="2.77086">
        <ele>1653</ele>
        <time>2019-02-18T07:22:25Z</time>
      </trkpt>
      <trkpt lat="45.05458" lon="2.77076">
        <ele>1655</ele>
        <time>2019-02-18T07:22:43Z</time>
      </trkpt>
      <trkpt lat="45.05457" lon="2.77068">
        <ele>1657</ele>
        <time>2019-02-18T07:22:55Z</time>
      </trkpt>
      <trkpt lat="45.05461" lon="2.7706">
        <ele>1659</ele>
        <time>2019-02-18T07:23:07Z</time>
      </trkpt>
      <trkpt lat="45.05466" lon="2.7704">
        <ele>1663</ele>
        <time>2019-02-18T07:23:32Z</time>
      </trkpt>
      <trkpt lat="45.0547" lon="2.7703">
        <ele>1665</ele>
        <time>2019-02-18T07:23:44Z</time>
      </trkpt>
      <trkpt lat="45.05472" lon="2.77021">
        <ele>1664</ele>
        <time>2019-02-18T07:23:56Z</time>
      </trkpt>
      <trkpt lat="45.05476" lon="2.77015">
        <ele>1666</ele>
        <time>2019-02-18T07:24:02Z</time>
      </trkpt>
      <trkpt lat="45.05478" lon="2.77007">
        <ele>1666</ele>
        <time>2019-02-18T07:24:10Z</time>
      </trkpt>
      <trkpt lat="45.05482" lon="2.76985">
        <ele>1668</ele>
        <time>2019-02-18T07:24:31Z</time>
      </trkpt>
      <trkpt lat="45.05484" lon="2.76973">
        <ele>1669</ele>
        <time>2019-02-18T07:24:42Z</time>
      </trkpt>
      <trkpt lat="45.05487" lon="2.76968">
        <ele>1670</ele>
        <time>2019-02-18T07:24:48Z</time>
      </trkpt>
      <trkpt lat="45.05495" lon="2.7695">
        <ele>1672</ele>
        <time>2019-02-18T07:25:08Z</time>
      </trkpt>
      <trkpt lat="45.05499" lon="2.76944">
        <ele>1675</ele>
        <time>2019-02-18T07:25:20Z</time>
      </trkpt>
      <trkpt lat="45.05501" lon="2.76934">
        <ele>1677</ele>
        <time>2019-02-18T07:25:32Z</time>
      </trkpt>
      <trkpt lat="45.05508" lon="2.76928">
        <ele>1678</ele>
        <time>2019-02-18T07:25:45Z</time>
      </trkpt>
      <trkpt lat="45.05508" lon="2.7692">
        <ele>1679</ele>
        <time>2019-02-18T07:25:55Z</time>
      </trkpt>
      <trkpt lat="45.05509" lon="2.76912">
        <ele>1678</ele>
        <time>2019-02-18T07:26:00Z</time>
      </trkpt>
      <trkpt lat="45.05513" lon="2.76898">
        <ele>1681</ele>
        <time>2019-02-18T07:26:15Z</time>
      </trkpt>
      <trkpt lat="45.05514" lon="2.76885">
        <ele>1683</ele>
        <time>2019-02-18T07:26:34Z</time>
      </trkpt>
      <trkpt lat="45.05517" lon="2.76871">
        <ele>1683</ele>
        <time>2019-02-18T07:26:46Z</time>
      </trkpt>
      <trkpt lat="45.05521" lon="2.7686">
        <ele>1684</ele>
        <time>2019-02-18T07:27:01Z</time>
      </trkpt>
      <trkpt lat="45.05539" lon="2.76851">
        <ele>1689</ele>
        <time>2019-02-18T07:27:24Z</time>
      </trkpt>
      <trkpt lat="45.05542" lon="2.76843">
        <ele>1690</ele>
        <time>2019-02-18T07:27:35Z</time>
      </trkpt>
      <trkpt lat="45.05552" lon="2.76817">
        <ele>1693</ele>
        <time>2019-02-18T07:28:10Z</time>
      </trkpt>
      <trkpt lat="45.05558" lon="2.76812">
        <ele>1695</ele>
        <time>2019-02-18T07:28:22Z</time>
      </trkpt>
      <trkpt lat="45.05564" lon="2.76805">
        <ele>1697</ele>
        <time>2019-02-18T07:28:35Z</time>
      </trkpt>
      <trkpt lat="45.05566" lon="2.76801">
        <ele>1697</ele>
        <time>2019-02-18T07:28:39Z</time>
      </trkpt>
      <trkpt lat="45.05568" lon="2.76781">
        <ele>1700</ele>
        <time>2019-02-18T07:29:04Z</time>
      </trkpt>
      <trkpt lat="45.05569" lon="2.7677">
        <ele>1704</ele>
        <time>2019-02-18T07:29:22Z</time>
      </trkpt>
      <trkpt lat="45.05574" lon="2.76762">
        <ele>1705</ele>
        <time>2019-02-18T07:29:34Z</time>
      </trkpt>
      <trkpt lat="45.05575" lon="2.76744">
        <ele>1708</ele>
        <time>2019-02-18T07:29:58Z</time>
      </trkpt>
      <trkpt lat="45.05581" lon="2.76729">
        <ele>1712</ele>
        <time>2019-02-18T07:30:22Z</time>
      </trkpt>
      <trkpt lat="45.05583" lon="2.76719">
        <ele>1712</ele>
        <time>2019-02-18T07:30:34Z</time>
      </trkpt>
      <trkpt lat="45.05585" lon="2.7671">
        <ele>1714</ele>
        <time>2019-02-18T07:30:46Z</time>
      </trkpt>
      <trkpt lat="45.05583" lon="2.76698">
        <ele>1715</ele>
        <time>2019-02-18T07:30:59Z</time>
      </trkpt>
      <trkpt lat="45.05583" lon="2.7669">
        <ele>1717</ele>
        <time>2019-02-18T07:31:11Z</time>
      </trkpt>
      <trkpt lat="45.05587" lon="2.76681">
        <ele>1719</ele>
        <time>2019-02-18T07:31:23Z</time>
      </trkpt>
      <trkpt lat="45.05589" lon="2.76672">
        <ele>1719</ele>
        <time>2019-02-18T07:31:35Z</time>
      </trkpt>
      <trkpt lat="45.05589" lon="2.76664">
        <ele>1721</ele>
        <time>2019-02-18T07:31:47Z</time>
      </trkpt>
      <trkpt lat="45.05586" lon="2.76657">
        <ele>1721</ele>
        <time>2019-02-18T07:31:53Z</time>
      </trkpt>
      <trkpt lat="45.05583" lon="2.76649">
        <ele>1723</ele>
        <time>2019-02-18T07:32:06Z</time>
      </trkpt>
      <trkpt lat="45.05583" lon="2.76639">
        <ele>1724</ele>
        <time>2019-02-18T07:32:18Z</time>
      </trkpt>
      <trkpt lat="45.05587" lon="2.76626">
        <ele>1727</ele>
        <time>2019-02-18T07:32:36Z</time>
      </trkpt>
      <trkpt lat="45.05585" lon="2.76616">
        <ele>1728</ele>
        <time>2019-02-18T07:32:48Z</time>
      </trkpt>
      <trkpt lat="45.05586" lon="2.76607">
        <ele>1729</ele>
        <time>2019-02-18T07:33:00Z</time>
      </trkpt>
      <trkpt lat="45.05589" lon="2.766">
        <ele>1730</ele>
        <time>2019-02-18T07:33:12Z</time>
      </trkpt>
      <trkpt lat="45.05591" lon="2.76591">
        <ele>1732</ele>
        <time>2019-02-18T07:33:24Z</time>
      </trkpt>
      <trkpt lat="45.05597" lon="2.76573">
        <ele>1736</ele>
        <time>2019-02-18T07:33:55Z</time>
      </trkpt>
      <trkpt lat="45.05598" lon="2.76565">
        <ele>1738</ele>
        <time>2019-02-18T07:34:18Z</time>
      </trkpt>
      <trkpt lat="45.056" lon="2.76557">
        <ele>1739</ele>
        <time>2019-02-18T07:34:30Z</time>
      </trkpt>
      <trkpt lat="45.05601" lon="2.7655">
        <ele>1741</ele>
        <time>2019-02-18T07:34:42Z</time>
      </trkpt>
      <trkpt lat="45.05603" lon="2.76541">
        <ele>1743</ele>
        <time>2019-02-18T07:34:54Z</time>
      </trkpt>
      <trkpt lat="45.05601" lon="2.76531">
        <ele>1748</ele>
        <time>2019-02-18T07:35:24Z</time>
      </trkpt>
      <trkpt lat="45.05608" lon="2.7652">
        <ele>1749</ele>
        <time>2019-02-18T07:35:35Z</time>
      </trkpt>
      <trkpt lat="45.0561" lon="2.76512">
        <ele>1750</ele>
        <time>2019-02-18T07:35:49Z</time>
      </trkpt>
      <trkpt lat="45.05607" lon="2.76502">
        <ele>1753</ele>
        <time>2019-02-18T07:36:01Z</time>
      </trkpt>
      <trkpt lat="45.05607" lon="2.76494">
        <ele>1754</ele>
        <time>2019-02-18T07:36:13Z</time>
      </trkpt>
      <trkpt lat="45.05616" lon="2.76476">
        <ele>1756</ele>
        <time>2019-02-18T07:36:32Z</time>
      </trkpt>
      <trkpt lat="45.05616" lon="2.76468">
        <ele>1756</ele>
        <time>2019-02-18T07:36:40Z</time>
      </trkpt>
      <trkpt lat="45.05614" lon="2.76458">
        <ele>1757</ele>
        <time>2019-02-18T07:36:52Z</time>
      </trkpt>
      <trkpt lat="45.05611" lon="2.7645">
        <ele>1759</ele>
        <time>2019-02-18T07:37:04Z</time>
      </trkpt>
      <trkpt lat="45.05611" lon="2.76442">
        <ele>1761</ele>
        <time>2019-02-18T07:37:46Z</time>
      </trkpt>
      <trkpt lat="45.05611" lon="2.76432">
        <ele>1763</ele>
        <time>2019-02-18T07:39:59Z</time>
      </trkpt>
      <trkpt lat="45.05614" lon="2.76422">
        <ele>1765</ele>
        <time>2019-02-18T07:40:11Z</time>
      </trkpt>
      <trkpt lat="45.05614" lon="2.76413">
        <ele>1767</ele>
        <time>2019-02-18T07:40:29Z</time>
      </trkpt>
      <trkpt lat="45.05619" lon="2.76404">
        <ele>1770</ele>
        <time>2019-02-18T07:40:47Z</time>
      </trkpt>
      <trkpt lat="45.05624" lon="2.76392">
        <ele>1771</ele>
        <time>2019-02-18T07:41:06Z</time>
      </trkpt>
      <trkpt lat="45.05627" lon="2.76385">
        <ele>1774</ele>
        <time>2019-02-18T07:41:24Z</time>
      </trkpt>
      <trkpt lat="45.05624" lon="2.76376">
        <ele>1774</ele>
        <time>2019-02-18T07:41:36Z</time>
      </trkpt>
      <trkpt lat="45.05629" lon="2.76366">
        <ele>1777</ele>
        <time>2019-02-18T07:41:54Z</time>
      </trkpt>
      <trkpt lat="45.05631" lon="2.76343">
        <ele>1780</ele>
        <time>2019-02-18T07:42:24Z</time>
      </trkpt>
      <trkpt lat="45.0563" lon="2.76332">
        <ele>1782</ele>
        <time>2019-02-18T07:42:42Z</time>
      </trkpt>
      <trkpt lat="45.05631" lon="2.76323">
        <ele>1783</ele>
        <time>2019-02-18T07:43:00Z</time>
      </trkpt>
      <trkpt lat="45.05631" lon="2.76315">
        <ele>1785</ele>
        <time>2019-02-18T07:43:18Z</time>
      </trkpt>
      <trkpt lat="45.05636" lon="2.76305">
        <ele>1787</ele>
        <time>2019-02-18T07:43:48Z</time>
      </trkpt>
      <trkpt lat="45.05639" lon="2.76283">
        <ele>1790</ele>
        <time>2019-02-18T07:44:12Z</time>
      </trkpt>
      <trkpt lat="45.05642" lon="2.76274">
        <ele>1791</ele>
        <time>2019-02-18T07:44:24Z</time>
      </trkpt>
      <trkpt lat="45.05641" lon="2.76265">
        <ele>1793</ele>
        <time>2019-02-18T07:44:36Z</time>
      </trkpt>
      <trkpt lat="45.05644" lon="2.76255">
        <ele>1795</ele>
        <time>2019-02-18T07:47:00Z</time>
      </trkpt>
      <trkpt lat="45.05645" lon="2.76248">
        <ele>1797</ele>
        <time>2019-02-18T07:47:12Z</time>
      </trkpt>
      <trkpt lat="45.05647" lon="2.76237">
        <ele>1798</ele>
        <time>2019-02-18T07:47:24Z</time>
      </trkpt>
      <trkpt lat="45.05647" lon="2.76228">
        <ele>1800</ele>
        <time>2019-02-18T07:47:36Z</time>
      </trkpt>
      <trkpt lat="45.05646" lon="2.76219">
        <ele>1803</ele>
        <time>2019-02-18T07:47:54Z</time>
      </trkpt>
      <trkpt lat="45.05652" lon="2.76215">
        <ele>1808</ele>
        <time>2019-02-18T07:48:18Z</time>
      </trkpt>
      <trkpt lat="45.05659" lon="2.76212">
        <ele>1810</ele>
        <time>2019-02-18T07:48:30Z</time>
      </trkpt>
      <trkpt lat="45.05664" lon="2.76206">
        <ele>1812</ele>
        <time>2019-02-18T07:48:42Z</time>
      </trkpt>
      <trkpt lat="45.05662" lon="2.76196">
        <ele>1814</ele>
        <time>2019-02-18T07:49:00Z</time>
      </trkpt>
      <trkpt lat="45.05665" lon="2.76184">
        <ele>1816</ele>
        <time>2019-02-18T07:49:14Z</time>
      </trkpt>
      <trkpt lat="45.05669" lon="2.76177">
        <ele>1818</ele>
        <time>2019-02-18T07:49:26Z</time>
      </trkpt>
      <trkpt lat="45.05676" lon="2.7617">
        <ele>1821</ele>
        <time>2019-02-18T07:49:45Z</time>
      </trkpt>
      <trkpt lat="45.05681" lon="2.76162">
        <ele>1824</ele>
        <time>2019-02-18T07:49:57Z</time>
      </trkpt>
      <trkpt lat="45.05687" lon="2.76152">
        <ele>1826</ele>
        <time>2019-02-18T07:50:10Z</time>
      </trkpt>
      <trkpt lat="45.05694" lon="2.76149">
        <ele>1827</ele>
        <time>2019-02-18T07:50:27Z</time>
      </trkpt>
      <trkpt lat="45.05704" lon="2.76147">
        <ele>1827</ele>
        <time>2019-02-18T07:50:39Z</time>
      </trkpt>
      <trkpt lat="45.05709" lon="2.76149">
        <ele>1827</ele>
        <time>2019-02-18T07:50:45Z</time>
      </trkpt>
      <trkpt lat="45.05717" lon="2.76153">
        <ele>1825</ele>
        <time>2019-02-18T07:50:58Z</time>
      </trkpt>
      <trkpt lat="45.05723" lon="2.76151">
        <ele>1824</ele>
        <time>2019-02-18T07:51:02Z</time>
      </trkpt>
      <trkpt lat="45.05729" lon="2.76153">
        <ele>1824</ele>
        <time>2019-02-18T07:51:06Z</time>
      </trkpt>
      <trkpt lat="45.05734" lon="2.76154">
        <ele>1823</ele>
        <time>2019-02-18T07:51:11Z</time>
      </trkpt>
      <trkpt lat="45.05739" lon="2.76153">
        <ele>1821</ele>
        <time>2019-02-18T07:51:16Z</time>
      </trkpt>
      <trkpt lat="45.05753" lon="2.76157">
        <ele>1819</ele>
        <time>2019-02-18T07:51:31Z</time>
      </trkpt>
      <trkpt lat="45.05758" lon="2.7616">
        <ele>1819</ele>
        <time>2019-02-18T07:51:37Z</time>
      </trkpt>
      <trkpt lat="45.05784" lon="2.76166">
        <ele>1822</ele>
        <time>2019-02-18T07:52:04Z</time>
      </trkpt>
      <trkpt lat="45.05792" lon="2.76163">
        <ele>1825</ele>
        <time>2019-02-18T07:52:16Z</time>
      </trkpt>
      <trkpt lat="45.05799" lon="2.76162">
        <ele>1829</ele>
        <time>2019-02-18T07:52:40Z</time>
      </trkpt>
      <trkpt lat="45.05808" lon="2.76159">
        <ele>1832</ele>
        <time>2019-02-18T07:52:58Z</time>
      </trkpt>
      <trkpt lat="45.05812" lon="2.76156">
        <ele>1835</ele>
        <time>2019-02-18T07:53:16Z</time>
      </trkpt>
      <trkpt lat="45.05819" lon="2.7615">
        <ele>1839</ele>
        <time>2019-02-18T07:53:40Z</time>
      </trkpt>
      <trkpt lat="45.05826" lon="2.76152">
        <ele>1847</ele>
        <time>2019-02-18T07:54:10Z</time>
      </trkpt>
      <trkpt lat="45.05836" lon="2.7615">
        <ele>1849</ele>
        <time>2019-02-18T07:54:36Z</time>
      </trkpt>
      <trkpt lat="45.05846" lon="2.76144">
        <ele>1850</ele>
        <time>2019-02-18T07:54:56Z</time>
      </trkpt>
      <trkpt lat="45.05852" lon="2.7614">
        <ele>1852</ele>
        <time>2019-02-18T07:55:08Z</time>
      </trkpt>
      <trkpt lat="45.05857" lon="2.76142">
        <ele>1852</ele>
        <time>2019-02-18T07:55:13Z</time>
      </trkpt>
      <trkpt lat="45.05867" lon="2.76142">
        <ele>1854</ele>
        <time>2019-02-18T07:55:29Z</time>
      </trkpt>
      <trkpt lat="45.05873" lon="2.76137">
        <ele>1855</ele>
        <time>2019-02-18T07:55:39Z</time>
      </trkpt>
      <trkpt lat="45.0588" lon="2.76134">
        <ele>1856</ele>
        <time>2019-02-18T07:55:46Z</time>
      </trkpt>
      <trkpt lat="45.05888" lon="2.76133">
        <ele>1857</ele>
        <time>2019-02-18T07:55:59Z</time>
      </trkpt>
    </trkseg>
  </trk>
  <trk>
    <name><![CDATA[16 févr. 2019 à 10:23:06]]></name>
    <cmt><![CDATA[16 févr. 2019 à 10:23:06]]></cmt>
    <trkseg>
      <trkpt lat="45.53884" lon="6.37307">
        <ele>1267</ele>
        <time>2019-02-16T09:23:06Z</time>
      </trkpt>
      <trkpt lat="45.53884" lon="6.37307">
        <ele>1267</ele>
        <time>2019-02-16T09:23:07Z</time>
      </trkpt>
      <trkpt lat="45.53908" lon="6.37316">
        <ele>1270</ele>
        <time>2019-02-16T09:23:34Z</time>
      </trkpt>
      <trkpt lat="45.53919" lon="6.37322">
        <ele>1273</ele>
        <time>2019-02-16T09:23:40Z</time>
      </trkpt>
      <trkpt lat="45.53925" lon="6.37327">
        <ele>1273</ele>
        <time>2019-02-16T09:23:45Z</time>
      </trkpt>
      <trkpt lat="45.53932" lon="6.37326">
        <ele>1274</ele>
        <time>2019-02-16T09:24:16Z</time>
      </trkpt>
      <trkpt lat="45.53937" lon="6.37325">
        <ele>1275</ele>
        <time>2019-02-16T09:24:19Z</time>
      </trkpt>
      <trkpt lat="45.53943" lon="6.37325">
        <ele>1276</ele>
        <time>2019-02-16T09:24:25Z</time>
      </trkpt>
      <trkpt lat="45.53953" lon="6.37313">
        <ele>1278</ele>
        <time>2019-02-16T09:24:40Z</time>
      </trkpt>
      <trkpt lat="45.53959" lon="6.3731">
        <ele>1279</ele>
        <time>2019-02-16T09:24:45Z</time>
      </trkpt>
      <trkpt lat="45.53965" lon="6.37311">
        <ele>1280</ele>
        <time>2019-02-16T09:24:56Z</time>
      </trkpt>
      <trkpt lat="45.53973" lon="6.37311">
        <ele>1282</ele>
        <time>2019-02-16T09:25:13Z</time>
      </trkpt>
      <trkpt lat="45.53986" lon="6.37312">
        <ele>1283</ele>
        <time>2019-02-16T09:25:29Z</time>
      </trkpt>
      <trkpt lat="45.53991" lon="6.37317">
        <ele>1285</ele>
        <time>2019-02-16T09:25:41Z</time>
      </trkpt>
      <trkpt lat="45.53995" lon="6.37327">
        <ele>1287</ele>
        <time>2019-02-16T09:25:54Z</time>
      </trkpt>
      <trkpt lat="45.54012" lon="6.37349">
        <ele>1290</ele>
        <time>2019-02-16T09:26:22Z</time>
      </trkpt>
      <trkpt lat="45.54018" lon="6.37361">
        <ele>1292</ele>
        <time>2019-02-16T09:26:32Z</time>
      </trkpt>
      <trkpt lat="45.54022" lon="6.37364">
        <ele>1292</ele>
        <time>2019-02-16T09:26:34Z</time>
      </trkpt>
      <trkpt lat="45.54026" lon="6.37366">
        <ele>1293</ele>
        <time>2019-02-16T09:26:45Z</time>
      </trkpt>
      <trkpt lat="45.54034" lon="6.37371">
        <ele>1294</ele>
        <time>2019-02-16T09:27:33Z</time>
      </trkpt>
      <trkpt lat="45.54044" lon="6.37375">
        <ele>1296</ele>
        <time>2019-02-16T09:27:43Z</time>
      </trkpt>
      <trkpt lat="45.54052" lon="6.37378">
        <ele>1298</ele>
        <time>2019-02-16T09:27:58Z</time>
      </trkpt>
      <trkpt lat="45.54061" lon="6.3738">
        <ele>1299</ele>
        <time>2019-02-16T09:28:06Z</time>
      </trkpt>
      <trkpt lat="45.54064" lon="6.37382">
        <ele>1300</ele>
        <time>2019-02-16T09:28:09Z</time>
      </trkpt>
      <trkpt lat="45.54069" lon="6.37383">
        <ele>1301</ele>
        <time>2019-02-16T09:28:13Z</time>
      </trkpt>
      <trkpt lat="45.54092" lon="6.37401">
        <ele>1305</ele>
        <time>2019-02-16T09:28:39Z</time>
      </trkpt>
      <trkpt lat="45.54097" lon="6.37398">
        <ele>1306</ele>
        <time>2019-02-16T09:28:45Z</time>
      </trkpt>
      <trkpt lat="45.54101" lon="6.37397">
        <ele>1307</ele>
        <time>2019-02-16T09:28:49Z</time>
      </trkpt>
      <trkpt lat="45.541" lon="6.37387">
        <ele>1309</ele>
        <time>2019-02-16T09:29:03Z</time>
      </trkpt>
      <trkpt lat="45.54096" lon="6.37379">
        <ele>1311</ele>
        <time>2019-02-16T09:29:16Z</time>
      </trkpt>
      <trkpt lat="45.54097" lon="6.3737">
        <ele>1312</ele>
        <time>2019-02-16T09:29:21Z</time>
      </trkpt>
      <trkpt lat="45.54102" lon="6.37363">
        <ele>1314</ele>
        <time>2019-02-16T09:29:33Z</time>
      </trkpt>
      <trkpt lat="45.54107" lon="6.37368">
        <ele>1317</ele>
        <time>2019-02-16T09:29:51Z</time>
      </trkpt>
      <trkpt lat="45.54131" lon="6.37394">
        <ele>1320</ele>
        <time>2019-02-16T09:30:16Z</time>
      </trkpt>
      <trkpt lat="45.54135" lon="6.37393">
        <ele>1321</ele>
        <time>2019-02-16T09:30:19Z</time>
      </trkpt>
      <trkpt lat="45.5414" lon="6.37395">
        <ele>1321</ele>
        <time>2019-02-16T09:30:23Z</time>
      </trkpt>
      <trkpt lat="45.54142" lon="6.37399">
        <ele>1322</ele>
        <time>2019-02-16T09:30:27Z</time>
      </trkpt>
      <trkpt lat="45.54146" lon="6.37406">
        <ele>1323</ele>
        <time>2019-02-16T09:30:35Z</time>
      </trkpt>
      <trkpt lat="45.54156" lon="6.37405">
        <ele>1324</ele>
        <time>2019-02-16T09:30:47Z</time>
      </trkpt>
      <trkpt lat="45.54151" lon="6.37394">
        <ele>1327</ele>
        <time>2019-02-16T09:31:05Z</time>
      </trkpt>
      <trkpt lat="45.54149" lon="6.37376">
        <ele>1328</ele>
        <time>2019-02-16T09:31:15Z</time>
      </trkpt>
      <trkpt lat="45.54153" lon="6.37364">
        <ele>1329</ele>
        <time>2019-02-16T09:31:23Z</time>
      </trkpt>
      <trkpt lat="45.54159" lon="6.37366">
        <ele>1331</ele>
        <time>2019-02-16T09:31:32Z</time>
      </trkpt>
      <trkpt lat="45.54166" lon="6.37362">
        <ele>1334</ele>
        <time>2019-02-16T09:31:49Z</time>
      </trkpt>
      <trkpt lat="45.54177" lon="6.3737">
        <ele>1336</ele>
        <time>2019-02-16T09:32:00Z</time>
      </trkpt>
      <trkpt lat="45.54185" lon="6.37377">
        <ele>1337</ele>
        <time>2019-02-16T09:32:07Z</time>
      </trkpt>
      <trkpt lat="45.54191" lon="6.37378">
        <ele>1337</ele>
        <time>2019-02-16T09:32:15Z</time>
      </trkpt>
      <trkpt lat="45.54199" lon="6.37386">
        <ele>1339</ele>
        <time>2019-02-16T09:32:27Z</time>
      </trkpt>
      <trkpt lat="45.54204" lon="6.37387">
        <ele>1340</ele>
        <time>2019-02-16T09:32:34Z</time>
      </trkpt>
      <trkpt lat="45.54221" lon="6.37396">
        <ele>1343</ele>
        <time>2019-02-16T09:32:53Z</time>
      </trkpt>
      <trkpt lat="45.54228" lon="6.37393">
        <ele>1345</ele>
        <time>2019-02-16T09:33:06Z</time>
      </trkpt>
      <trkpt lat="45.54235" lon="6.37393">
        <ele>1349</ele>
        <time>2019-02-16T09:33:24Z</time>
      </trkpt>
      <trkpt lat="45.54239" lon="6.374">
        <ele>1349</ele>
        <time>2019-02-16T09:33:29Z</time>
      </trkpt>
      <trkpt lat="45.54247" lon="6.37405">
        <ele>1351</ele>
        <time>2019-02-16T09:33:43Z</time>
      </trkpt>
      <trkpt lat="45.54253" lon="6.37403">
        <ele>1352</ele>
        <time>2019-02-16T09:33:49Z</time>
      </trkpt>
      <trkpt lat="45.54273" lon="6.37412">
        <ele>1355</ele>
        <time>2019-02-16T09:34:14Z</time>
      </trkpt>
      <trkpt lat="45.54278" lon="6.37412">
        <ele>1357</ele>
        <time>2019-02-16T09:34:19Z</time>
      </trkpt>
      <trkpt lat="45.54285" lon="6.37418">
        <ele>1357</ele>
        <time>2019-02-16T09:34:24Z</time>
      </trkpt>
      <trkpt lat="45.54289" lon="6.37422">
        <ele>1358</ele>
        <time>2019-02-16T09:34:41Z</time>
      </trkpt>
      <trkpt lat="45.54297" lon="6.3742">
        <ele>1358</ele>
        <time>2019-02-16T09:34:59Z</time>
      </trkpt>
      <trkpt lat="45.54307" lon="6.37423">
        <ele>1361</ele>
        <time>2019-02-16T09:36:23Z</time>
      </trkpt>
      <trkpt lat="45.54313" lon="6.37423">
        <ele>1363</ele>
        <time>2019-02-16T09:36:35Z</time>
      </trkpt>
      <trkpt lat="45.54327" lon="6.37434">
        <ele>1365</ele>
        <time>2019-02-16T09:36:55Z</time>
      </trkpt>
      <trkpt lat="45.54341" lon="6.37435">
        <ele>1368</ele>
        <time>2019-02-16T09:37:19Z</time>
      </trkpt>
      <trkpt lat="45.54353" lon="6.37427">
        <ele>1372</ele>
        <time>2019-02-16T09:37:41Z</time>
      </trkpt>
      <trkpt lat="45.54366" lon="6.37425">
        <ele>1377</ele>
        <time>2019-02-16T09:38:05Z</time>
      </trkpt>
      <trkpt lat="45.54382" lon="6.37422">
        <ele>1379</ele>
        <time>2019-02-16T09:38:25Z</time>
      </trkpt>
      <trkpt lat="45.54398" lon="6.37421">
        <ele>1380</ele>
        <time>2019-02-16T09:38:38Z</time>
      </trkpt>
      <trkpt lat="45.54407" lon="6.37418">
        <ele>1382</ele>
        <time>2019-02-16T09:38:53Z</time>
      </trkpt>
      <trkpt lat="45.54437" lon="6.37419">
        <ele>1389</ele>
        <time>2019-02-16T09:39:32Z</time>
      </trkpt>
      <trkpt lat="45.54446" lon="6.37421">
        <ele>1388</ele>
        <time>2019-02-16T09:39:43Z</time>
      </trkpt>
      <trkpt lat="45.54461" lon="6.37419">
        <ele>1389</ele>
        <time>2019-02-16T09:40:04Z</time>
      </trkpt>
      <trkpt lat="45.54467" lon="6.37419">
        <ele>1389</ele>
        <time>2019-02-16T09:40:09Z</time>
      </trkpt>
      <trkpt lat="45.54474" lon="6.37424">
        <ele>1389</ele>
        <time>2019-02-16T09:40:15Z</time>
      </trkpt>
      <trkpt lat="45.54482" lon="6.37425">
        <ele>1389</ele>
        <time>2019-02-16T09:40:24Z</time>
      </trkpt>
      <trkpt lat="45.54496" lon="6.3743">
        <ele>1388</ele>
        <time>2019-02-16T09:40:30Z</time>
      </trkpt>
      <trkpt lat="45.54503" lon="6.3743">
        <ele>1389</ele>
        <time>2019-02-16T09:40:37Z</time>
      </trkpt>
      <trkpt lat="45.54512" lon="6.37424">
        <ele>1389</ele>
        <time>2019-02-16T09:40:49Z</time>
      </trkpt>
      <trkpt lat="45.54516" lon="6.37427">
        <ele>1389</ele>
        <time>2019-02-16T09:40:51Z</time>
      </trkpt>
      <trkpt lat="45.54523" lon="6.37426">
        <ele>1389</ele>
        <time>2019-02-16T09:40:59Z</time>
      </trkpt>
      <trkpt lat="45.54532" lon="6.37426">
        <ele>1390</ele>
        <time>2019-02-16T09:41:06Z</time>
      </trkpt>
      <trkpt lat="45.54541" lon="6.37419">
        <ele>1390</ele>
        <time>2019-02-16T09:41:12Z</time>
      </trkpt>
      <trkpt lat="45.54545" lon="6.37415">
        <ele>1389</ele>
        <time>2019-02-16T09:41:14Z</time>
      </trkpt>
      <trkpt lat="45.54551" lon="6.37405">
        <ele>1388</ele>
        <time>2019-02-16T09:41:19Z</time>
      </trkpt>
      <trkpt lat="45.54555" lon="6.37402">
        <ele>1388</ele>
        <time>2019-02-16T09:41:23Z</time>
      </trkpt>
      <trkpt lat="45.54559" lon="6.37402">
        <ele>1388</ele>
        <time>2019-02-16T09:41:26Z</time>
      </trkpt>
      <trkpt lat="45.54563" lon="6.37399">
        <ele>1387</ele>
        <time>2019-02-16T09:41:29Z</time>
      </trkpt>
      <trkpt lat="45.54567" lon="6.37393">
        <ele>1387</ele>
        <time>2019-02-16T09:41:32Z</time>
      </trkpt>
      <trkpt lat="45.54569" lon="6.37388">
        <ele>1387</ele>
        <time>2019-02-16T09:41:35Z</time>
      </trkpt>
      <trkpt lat="45.54574" lon="6.37383">
        <ele>1386</ele>
        <time>2019-02-16T09:41:54Z</time>
      </trkpt>
      <trkpt lat="45.54579" lon="6.37378">
        <ele>1385</ele>
        <time>2019-02-16T09:42:18Z</time>
      </trkpt>
      <trkpt lat="45.54587" lon="6.37376">
        <ele>1384</ele>
        <time>2019-02-16T09:42:22Z</time>
      </trkpt>
      <trkpt lat="45.54596" lon="6.37381">
        <ele>1383</ele>
        <time>2019-02-16T09:42:48Z</time>
      </trkpt>
      <trkpt lat="45.54602" lon="6.37374">
        <ele>1382</ele>
        <time>2019-02-16T09:43:06Z</time>
      </trkpt>
      <trkpt lat="45.54607" lon="6.37375">
        <ele>1382</ele>
        <time>2019-02-16T09:43:18Z</time>
      </trkpt>
      <trkpt lat="45.54619" lon="6.37356">
        <ele>1382</ele>
        <time>2019-02-16T09:43:32Z</time>
      </trkpt>
      <trkpt lat="45.54624" lon="6.37351">
        <ele>1382</ele>
        <time>2019-02-16T09:43:38Z</time>
      </trkpt>
      <trkpt lat="45.54638" lon="6.37351">
        <ele>1381</ele>
        <time>2019-02-16T09:43:48Z</time>
      </trkpt>
      <trkpt lat="45.54639" lon="6.37341">
        <ele>1382</ele>
        <time>2019-02-16T09:43:56Z</time>
      </trkpt>
      <trkpt lat="45.54644" lon="6.37334">
        <ele>1382</ele>
        <time>2019-02-16T09:44:03Z</time>
      </trkpt>
      <trkpt lat="45.54651" lon="6.37332">
        <ele>1383</ele>
        <time>2019-02-16T09:44:13Z</time>
      </trkpt>
      <trkpt lat="45.54655" lon="6.37321">
        <ele>1384</ele>
        <time>2019-02-16T09:44:30Z</time>
      </trkpt>
      <trkpt lat="45.54662" lon="6.37315">
        <ele>1385</ele>
        <time>2019-02-16T09:44:41Z</time>
      </trkpt>
      <trkpt lat="45.5467" lon="6.37313">
        <ele>1386</ele>
        <time>2019-02-16T09:44:50Z</time>
      </trkpt>
      <trkpt lat="45.54675" lon="6.37308">
        <ele>1388</ele>
        <time>2019-02-16T09:45:08Z</time>
      </trkpt>
      <trkpt lat="45.54679" lon="6.37302">
        <ele>1390</ele>
        <time>2019-02-16T09:45:20Z</time>
      </trkpt>
      <trkpt lat="45.54681" lon="6.37302">
        <ele>1389</ele>
        <time>2019-02-16T09:46:14Z</time>
      </trkpt>
      <trkpt lat="45.54686" lon="6.37312">
        <ele>1393</ele>
        <time>2019-02-16T09:48:21Z</time>
      </trkpt>
      <trkpt lat="45.54681" lon="6.37313">
        <ele>1392</ele>
        <time>2019-02-16T09:48:59Z</time>
      </trkpt>
      <trkpt lat="45.54686" lon="6.3732">
        <ele>1392</ele>
        <time>2019-02-16T09:49:15Z</time>
      </trkpt>
      <trkpt lat="45.54684" lon="6.37327">
        <ele>1393</ele>
        <time>2019-02-16T09:49:29Z</time>
      </trkpt>
      <trkpt lat="45.54695" lon="6.37345">
        <ele>1398</ele>
        <time>2019-02-16T09:50:18Z</time>
      </trkpt>
      <trkpt lat="45.54708" lon="6.37358">
        <ele>1406</ele>
        <time>2019-02-16T09:51:21Z</time>
      </trkpt>
      <trkpt lat="45.54719" lon="6.37341">
        <ele>1411</ele>
        <time>2019-02-16T09:51:52Z</time>
      </trkpt>
      <trkpt lat="45.54734" lon="6.37344">
        <ele>1411</ele>
        <time>2019-02-16T09:53:00Z</time>
      </trkpt>
      <trkpt lat="45.54734" lon="6.37364">
        <ele>1416</ele>
        <time>2019-02-16T09:53:30Z</time>
      </trkpt>
      <trkpt lat="45.54751" lon="6.3736">
        <ele>1420</ele>
        <time>2019-02-16T09:53:55Z</time>
      </trkpt>
      <trkpt lat="45.54753" lon="6.37382">
        <ele>1425</ele>
        <time>2019-02-16T09:54:20Z</time>
      </trkpt>
      <trkpt lat="45.5475" lon="6.3739">
        <ele>1426</ele>
        <time>2019-02-16T09:54:31Z</time>
      </trkpt>
      <trkpt lat="45.54746" lon="6.37399">
        <ele>1428</ele>
        <time>2019-02-16T09:54:49Z</time>
      </trkpt>
      <trkpt lat="45.54747" lon="6.37405">
        <ele>1430</ele>
        <time>2019-02-16T09:55:01Z</time>
      </trkpt>
      <trkpt lat="45.54746" lon="6.3741">
        <ele>1431</ele>
        <time>2019-02-16T09:55:07Z</time>
      </trkpt>
      <trkpt lat="45.54747" lon="6.37416">
        <ele>1431</ele>
        <time>2019-02-16T09:55:10Z</time>
      </trkpt>
      <trkpt lat="45.5475" lon="6.37423">
        <ele>1433</ele>
        <time>2019-02-16T09:55:23Z</time>
      </trkpt>
      <trkpt lat="45.54753" lon="6.37429">
        <ele>1435</ele>
        <time>2019-02-16T09:55:35Z</time>
      </trkpt>
      <trkpt lat="45.54758" lon="6.37431">
        <ele>1441</ele>
        <time>2019-02-16T09:56:11Z</time>
      </trkpt>
      <trkpt lat="45.54764" lon="6.37427">
        <ele>1443</ele>
        <time>2019-02-16T09:56:23Z</time>
      </trkpt>
      <trkpt lat="45.54767" lon="6.37421">
        <ele>1444</ele>
        <time>2019-02-16T09:56:31Z</time>
      </trkpt>
      <trkpt lat="45.54771" lon="6.3742">
        <ele>1446</ele>
        <time>2019-02-16T09:56:43Z</time>
      </trkpt>
      <trkpt lat="45.54777" lon="6.37424">
        <ele>1448</ele>
        <time>2019-02-16T09:57:19Z</time>
      </trkpt>
      <trkpt lat="45.5478" lon="6.37435">
        <ele>1449</ele>
        <time>2019-02-16T09:57:30Z</time>
      </trkpt>
      <trkpt lat="45.54777" lon="6.37448">
        <ele>1452</ele>
        <time>2019-02-16T09:57:51Z</time>
      </trkpt>
      <trkpt lat="45.54779" lon="6.37457">
        <ele>1454</ele>
        <time>2019-02-16T09:58:03Z</time>
      </trkpt>
      <trkpt lat="45.54782" lon="6.37466">
        <ele>1455</ele>
        <time>2019-02-16T09:58:14Z</time>
      </trkpt>
      <trkpt lat="45.54777" lon="6.37471">
        <ele>1457</ele>
        <time>2019-02-16T09:58:27Z</time>
      </trkpt>
      <trkpt lat="45.5478" lon="6.37481">
        <ele>1459</ele>
        <time>2019-02-16T09:58:47Z</time>
      </trkpt>
      <trkpt lat="45.54784" lon="6.37477">
        <ele>1461</ele>
        <time>2019-02-16T09:59:03Z</time>
      </trkpt>
      <trkpt lat="45.54779" lon="6.37469">
        <ele>1462</ele>
        <time>2019-02-16T09:59:37Z</time>
      </trkpt>
      <trkpt lat="45.54781" lon="6.37493">
        <ele>1463</ele>
        <time>2019-02-16T10:04:42Z</time>
      </trkpt>
      <trkpt lat="45.5479" lon="6.37507">
        <ele>1466</ele>
        <time>2019-02-16T10:05:12Z</time>
      </trkpt>
      <trkpt lat="45.54796" lon="6.37511">
        <ele>1469</ele>
        <time>2019-02-16T10:05:48Z</time>
      </trkpt>
      <trkpt lat="45.54801" lon="6.37516">
        <ele>1472</ele>
        <time>2019-02-16T10:06:08Z</time>
      </trkpt>
      <trkpt lat="45.54796" lon="6.37525">
        <ele>1474</ele>
        <time>2019-02-16T10:06:23Z</time>
      </trkpt>
      <trkpt lat="45.54801" lon="6.37534">
        <ele>1475</ele>
        <time>2019-02-16T10:06:35Z</time>
      </trkpt>
      <trkpt lat="45.54807" lon="6.37536">
        <ele>1476</ele>
        <time>2019-02-16T10:06:39Z</time>
      </trkpt>
      <trkpt lat="45.54812" lon="6.37541">
        <ele>1477</ele>
        <time>2019-02-16T10:06:48Z</time>
      </trkpt>
      <trkpt lat="45.54809" lon="6.37552">
        <ele>1481</ele>
        <time>2019-02-16T10:07:12Z</time>
      </trkpt>
      <trkpt lat="45.54803" lon="6.37575">
        <ele>1483</ele>
        <time>2019-02-16T10:07:47Z</time>
      </trkpt>
      <trkpt lat="45.54798" lon="6.37578">
        <ele>1484</ele>
        <time>2019-02-16T10:07:52Z</time>
      </trkpt>
      <trkpt lat="45.54799" lon="6.37586">
        <ele>1485</ele>
        <time>2019-02-16T10:08:01Z</time>
      </trkpt>
      <trkpt lat="45.54796" lon="6.37592">
        <ele>1486</ele>
        <time>2019-02-16T10:08:13Z</time>
      </trkpt>
      <trkpt lat="45.54797" lon="6.37602">
        <ele>1489</ele>
        <time>2019-02-16T10:08:38Z</time>
      </trkpt>
      <trkpt lat="45.54791" lon="6.37628">
        <ele>1493</ele>
        <time>2019-02-16T10:09:11Z</time>
      </trkpt>
      <trkpt lat="45.54788" lon="6.37634">
        <ele>1494</ele>
        <time>2019-02-16T10:09:17Z</time>
      </trkpt>
      <trkpt lat="45.54785" lon="6.37643">
        <ele>1497</ele>
        <time>2019-02-16T10:09:43Z</time>
      </trkpt>
      <trkpt lat="45.54786" lon="6.37651">
        <ele>1498</ele>
        <time>2019-02-16T10:09:55Z</time>
      </trkpt>
      <trkpt lat="45.54787" lon="6.37667">
        <ele>1500</ele>
        <time>2019-02-16T10:10:04Z</time>
      </trkpt>
      <trkpt lat="45.5479" lon="6.37672">
        <ele>1501</ele>
        <time>2019-02-16T10:10:12Z</time>
      </trkpt>
      <trkpt lat="45.54795" lon="6.37678">
        <ele>1502</ele>
        <time>2019-02-16T10:10:24Z</time>
      </trkpt>
      <trkpt lat="45.54796" lon="6.37686">
        <ele>1503</ele>
        <time>2019-02-16T10:10:36Z</time>
      </trkpt>
      <trkpt lat="45.54801" lon="6.377">
        <ele>1506</ele>
        <time>2019-02-16T10:11:06Z</time>
      </trkpt>
      <trkpt lat="45.54807" lon="6.37702">
        <ele>1508</ele>
        <time>2019-02-16T10:11:18Z</time>
      </trkpt>
      <trkpt lat="45.54808" lon="6.37711">
        <ele>1511</ele>
        <time>2019-02-16T10:11:36Z</time>
      </trkpt>
      <trkpt lat="45.54815" lon="6.37717">
        <ele>1513</ele>
        <time>2019-02-16T10:11:54Z</time>
      </trkpt>
      <trkpt lat="45.54816" lon="6.37726">
        <ele>1515</ele>
        <time>2019-02-16T10:12:07Z</time>
      </trkpt>
      <trkpt lat="45.54819" lon="6.37734">
        <ele>1517</ele>
        <time>2019-02-16T10:12:25Z</time>
      </trkpt>
      <trkpt lat="45.54824" lon="6.37742">
        <ele>1519</ele>
        <time>2019-02-16T10:12:43Z</time>
      </trkpt>
      <trkpt lat="45.54831" lon="6.37746">
        <ele>1522</ele>
        <time>2019-02-16T10:13:03Z</time>
      </trkpt>
      <trkpt lat="45.54837" lon="6.37763">
        <ele>1526</ele>
        <time>2019-02-16T10:13:37Z</time>
      </trkpt>
      <trkpt lat="45.54841" lon="6.3777">
        <ele>1528</ele>
        <time>2019-02-16T10:13:55Z</time>
      </trkpt>
      <trkpt lat="45.54843" lon="6.37779">
        <ele>1530</ele>
        <time>2019-02-16T10:14:19Z</time>
      </trkpt>
      <trkpt lat="45.54842" lon="6.37788">
        <ele>1532</ele>
        <time>2019-02-16T10:14:32Z</time>
      </trkpt>
      <trkpt lat="45.54848" lon="6.37798">
        <ele>1532</ele>
        <time>2019-02-16T10:14:44Z</time>
      </trkpt>
      <trkpt lat="45.54852" lon="6.37805">
        <ele>1533</ele>
        <time>2019-02-16T10:14:53Z</time>
      </trkpt>
      <trkpt lat="45.54866" lon="6.37814">
        <ele>1536</ele>
        <time>2019-02-16T10:15:24Z</time>
      </trkpt>
      <trkpt lat="45.54872" lon="6.37817">
        <ele>1538</ele>
        <time>2019-02-16T10:15:37Z</time>
      </trkpt>
      <trkpt lat="45.54871" lon="6.37827">
        <ele>1538</ele>
        <time>2019-02-16T10:15:44Z</time>
      </trkpt>
      <trkpt lat="45.54876" lon="6.37836">
        <ele>1540</ele>
        <time>2019-02-16T10:16:21Z</time>
      </trkpt>
      <trkpt lat="45.54881" lon="6.37841">
        <ele>1541</ele>
        <time>2019-02-16T10:16:27Z</time>
      </trkpt>
      <trkpt lat="45.54886" lon="6.37848">
        <ele>1543</ele>
        <time>2019-02-16T10:16:53Z</time>
      </trkpt>
      <trkpt lat="45.5489" lon="6.37854">
        <ele>1544</ele>
        <time>2019-02-16T10:17:05Z</time>
      </trkpt>
      <trkpt lat="45.54892" lon="6.37862">
        <ele>1544</ele>
        <time>2019-02-16T10:17:11Z</time>
      </trkpt>
      <trkpt lat="45.54897" lon="6.3788">
        <ele>1545</ele>
        <time>2019-02-16T10:17:37Z</time>
      </trkpt>
      <trkpt lat="45.54899" lon="6.37894">
        <ele>1545</ele>
        <time>2019-02-16T10:17:52Z</time>
      </trkpt>
      <trkpt lat="45.54911" lon="6.37888">
        <ele>1547</ele>
        <time>2019-02-16T10:18:10Z</time>
      </trkpt>
      <trkpt lat="45.54915" lon="6.37894">
        <ele>1548</ele>
        <time>2019-02-16T10:18:18Z</time>
      </trkpt>
      <trkpt lat="45.54921" lon="6.37896">
        <ele>1549</ele>
        <time>2019-02-16T10:18:24Z</time>
      </trkpt>
      <trkpt lat="45.54926" lon="6.37904">
        <ele>1551</ele>
        <time>2019-02-16T10:18:43Z</time>
      </trkpt>
      <trkpt lat="45.54934" lon="6.37917">
        <ele>1552</ele>
        <time>2019-02-16T10:18:56Z</time>
      </trkpt>
      <trkpt lat="45.54935" lon="6.37929">
        <ele>1553</ele>
        <time>2019-02-16T10:19:10Z</time>
      </trkpt>
      <trkpt lat="45.54942" lon="6.37934">
        <ele>1555</ele>
        <time>2019-02-16T10:19:34Z</time>
      </trkpt>
      <trkpt lat="45.54947" lon="6.37938">
        <ele>1555</ele>
        <time>2019-02-16T10:19:40Z</time>
      </trkpt>
      <trkpt lat="45.54951" lon="6.37946">
        <ele>1556</ele>
        <time>2019-02-16T10:19:58Z</time>
      </trkpt>
      <trkpt lat="45.54958" lon="6.37945">
        <ele>1557</ele>
        <time>2019-02-16T10:20:07Z</time>
      </trkpt>
      <trkpt lat="45.54959" lon="6.37955">
        <ele>1558</ele>
        <time>2019-02-16T10:20:30Z</time>
      </trkpt>
      <trkpt lat="45.54969" lon="6.3796">
        <ele>1560</ele>
        <time>2019-02-16T10:20:43Z</time>
      </trkpt>
      <trkpt lat="45.54982" lon="6.37971">
        <ele>1562</ele>
        <time>2019-02-16T10:21:06Z</time>
      </trkpt>
      <trkpt lat="45.54992" lon="6.37971">
        <ele>1563</ele>
        <time>2019-02-16T10:21:24Z</time>
      </trkpt>
      <trkpt lat="45.54998" lon="6.37975">
        <ele>1566</ele>
        <time>2019-02-16T10:21:50Z</time>
      </trkpt>
      <trkpt lat="45.55004" lon="6.37978">
        <ele>1566</ele>
        <time>2019-02-16T10:22:08Z</time>
      </trkpt>
      <trkpt lat="45.55015" lon="6.37992">
        <ele>1570</ele>
        <time>2019-02-16T10:22:40Z</time>
      </trkpt>
      <trkpt lat="45.55032" lon="6.37994">
        <ele>1574</ele>
        <time>2019-02-16T10:23:16Z</time>
      </trkpt>
      <trkpt lat="45.55036" lon="6.37995">
        <ele>1576</ele>
        <time>2019-02-16T10:23:28Z</time>
      </trkpt>
      <trkpt lat="45.5505" lon="6.38002">
        <ele>1581</ele>
        <time>2019-02-16T10:24:05Z</time>
      </trkpt>
      <trkpt lat="45.55065" lon="6.37997">
        <ele>1584</ele>
        <time>2019-02-16T10:24:44Z</time>
      </trkpt>
      <trkpt lat="45.55071" lon="6.38002">
        <ele>1585</ele>
        <time>2019-02-16T10:24:49Z</time>
      </trkpt>
      <trkpt lat="45.55086" lon="6.38003">
        <ele>1591</ele>
        <time>2019-02-16T10:25:51Z</time>
      </trkpt>
      <trkpt lat="45.55093" lon="6.38001">
        <ele>1593</ele>
        <time>2019-02-16T10:26:03Z</time>
      </trkpt>
      <trkpt lat="45.55098" lon="6.38007">
        <ele>1595</ele>
        <time>2019-02-16T10:26:13Z</time>
      </trkpt>
      <trkpt lat="45.55101" lon="6.38009">
        <ele>1595</ele>
        <time>2019-02-16T10:26:17Z</time>
      </trkpt>
      <trkpt lat="45.55106" lon="6.38011">
        <ele>1597</ele>
        <time>2019-02-16T10:26:30Z</time>
      </trkpt>
      <trkpt lat="45.55112" lon="6.3801">
        <ele>1600</ele>
        <time>2019-02-16T10:26:54Z</time>
      </trkpt>
      <trkpt lat="45.55114" lon="6.38015">
        <ele>1601</ele>
        <time>2019-02-16T10:26:57Z</time>
      </trkpt>
      <trkpt lat="45.55119" lon="6.38015">
        <ele>1602</ele>
        <time>2019-02-16T10:27:13Z</time>
      </trkpt>
      <trkpt lat="45.55125" lon="6.38014">
        <ele>1604</ele>
        <time>2019-02-16T10:27:24Z</time>
      </trkpt>
      <trkpt lat="45.55128" lon="6.38012">
        <ele>1605</ele>
        <time>2019-02-16T10:27:35Z</time>
      </trkpt>
      <trkpt lat="45.5512" lon="6.37996">
        <ele>1608</ele>
        <time>2019-02-16T10:28:16Z</time>
      </trkpt>
      <trkpt lat="45.55125" lon="6.38">
        <ele>1611</ele>
        <time>2019-02-16T10:28:52Z</time>
      </trkpt>
      <trkpt lat="45.55131" lon="6.37998">
        <ele>1612</ele>
        <time>2019-02-16T10:29:10Z</time>
      </trkpt>
      <trkpt lat="45.55128" lon="6.37996">
        <ele>1615</ele>
        <time>2019-02-16T10:29:51Z</time>
      </trkpt>
      <trkpt lat="45.55125" lon="6.37987">
        <ele>1616</ele>
        <time>2019-02-16T10:30:01Z</time>
      </trkpt>
      <trkpt lat="45.55131" lon="6.3799">
        <ele>1617</ele>
        <time>2019-02-16T10:30:26Z</time>
      </trkpt>
      <trkpt lat="45.55135" lon="6.37984">
        <ele>1621</ele>
        <time>2019-02-16T10:31:03Z</time>
      </trkpt>
      <trkpt lat="45.55138" lon="6.37975">
        <ele>1623</ele>
        <time>2019-02-16T10:31:15Z</time>
      </trkpt>
      <trkpt lat="45.55141" lon="6.37969">
        <ele>1628</ele>
        <time>2019-02-16T10:33:02Z</time>
      </trkpt>
      <trkpt lat="45.55146" lon="6.37969">
        <ele>1628</ele>
        <time>2019-02-16T10:33:05Z</time>
      </trkpt>
      <trkpt lat="45.55149" lon="6.37966">
        <ele>1629</ele>
        <time>2019-02-16T10:33:15Z</time>
      </trkpt>
      <trkpt lat="45.55147" lon="6.37959">
        <ele>1631</ele>
        <time>2019-02-16T10:33:27Z</time>
      </trkpt>
      <trkpt lat="45.55147" lon="6.37952">
        <ele>1633</ele>
        <time>2019-02-16T10:33:39Z</time>
      </trkpt>
      <trkpt lat="45.55156" lon="6.37954">
        <ele>1634</ele>
        <time>2019-02-16T10:33:55Z</time>
      </trkpt>
      <trkpt lat="45.55166" lon="6.37953">
        <ele>1636</ele>
        <time>2019-02-16T10:34:17Z</time>
      </trkpt>
      <trkpt lat="45.55169" lon="6.37956">
        <ele>1637</ele>
        <time>2019-02-16T10:34:27Z</time>
      </trkpt>
      <trkpt lat="45.55173" lon="6.37956">
        <ele>1638</ele>
        <time>2019-02-16T10:34:37Z</time>
      </trkpt>
      <trkpt lat="45.55177" lon="6.37954">
        <ele>1640</ele>
        <time>2019-02-16T10:34:49Z</time>
      </trkpt>
      <trkpt lat="45.5518" lon="6.3795">
        <ele>1641</ele>
        <time>2019-02-16T10:35:01Z</time>
      </trkpt>
      <trkpt lat="45.5518" lon="6.37944">
        <ele>1642</ele>
        <time>2019-02-16T10:35:19Z</time>
      </trkpt>
      <trkpt lat="45.55175" lon="6.37934">
        <ele>1644</ele>
        <time>2019-02-16T10:35:37Z</time>
      </trkpt>
      <trkpt lat="45.55181" lon="6.37932">
        <ele>1646</ele>
        <time>2019-02-16T10:35:51Z</time>
      </trkpt>
      <trkpt lat="45.55188" lon="6.37932">
        <ele>1647</ele>
        <time>2019-02-16T10:36:04Z</time>
      </trkpt>
      <trkpt lat="45.55191" lon="6.37933">
        <ele>1648</ele>
        <time>2019-02-16T10:36:16Z</time>
      </trkpt>
      <trkpt lat="45.55196" lon="6.37935">
        <ele>1649</ele>
        <time>2019-02-16T10:36:28Z</time>
      </trkpt>
      <trkpt lat="45.55197" lon="6.37928">
        <ele>1650</ele>
        <time>2019-02-16T10:36:46Z</time>
      </trkpt>
      <trkpt lat="45.55195" lon="6.37923">
        <ele>1650</ele>
        <time>2019-02-16T10:36:50Z</time>
      </trkpt>
      <trkpt lat="45.55191" lon="6.3792">
        <ele>1651</ele>
        <time>2019-02-16T10:37:04Z</time>
      </trkpt>
      <trkpt lat="45.55191" lon="6.37917">
        <ele>1653</ele>
        <time>2019-02-16T10:37:40Z</time>
      </trkpt>
      <trkpt lat="45.55196" lon="6.37916">
        <ele>1654</ele>
        <time>2019-02-16T10:38:04Z</time>
      </trkpt>
      <trkpt lat="45.55202" lon="6.37916">
        <ele>1655</ele>
        <time>2019-02-16T10:38:14Z</time>
      </trkpt>
      <trkpt lat="45.55199" lon="6.3791">
        <ele>1656</ele>
        <time>2019-02-16T10:38:26Z</time>
      </trkpt>
      <trkpt lat="45.55191" lon="6.37905">
        <ele>1657</ele>
        <time>2019-02-16T10:38:40Z</time>
      </trkpt>
      <trkpt lat="45.55189" lon="6.37901">
        <ele>1658</ele>
        <time>2019-02-16T10:38:52Z</time>
      </trkpt>
      <trkpt lat="45.55185" lon="6.37903">
        <ele>1657</ele>
        <time>2019-02-16T10:39:23Z</time>
      </trkpt>
      <trkpt lat="45.55181" lon="6.37895">
        <ele>1658</ele>
        <time>2019-02-16T10:39:34Z</time>
      </trkpt>
      <trkpt lat="45.55186" lon="6.37894">
        <ele>1659</ele>
        <time>2019-02-16T10:39:44Z</time>
      </trkpt>
      <trkpt lat="45.55194" lon="6.37896">
        <ele>1660</ele>
        <time>2019-02-16T10:40:00Z</time>
      </trkpt>
      <trkpt lat="45.55199" lon="6.37897">
        <ele>1662</ele>
        <time>2019-02-16T10:40:19Z</time>
      </trkpt>
      <trkpt lat="45.55206" lon="6.37892">
        <ele>1663</ele>
        <time>2019-02-16T10:40:54Z</time>
      </trkpt>
      <trkpt lat="45.5521" lon="6.3789">
        <ele>1664</ele>
        <time>2019-02-16T10:41:02Z</time>
      </trkpt>
      <trkpt lat="45.55218" lon="6.37889">
        <ele>1666</ele>
        <time>2019-02-16T10:41:21Z</time>
      </trkpt>
      <trkpt lat="45.55223" lon="6.37886">
        <ele>1667</ele>
        <time>2019-02-16T10:41:32Z</time>
      </trkpt>
      <trkpt lat="45.5523" lon="6.3788">
        <ele>1670</ele>
        <time>2019-02-16T10:41:56Z</time>
      </trkpt>
      <trkpt lat="45.55235" lon="6.37872">
        <ele>1672</ele>
        <time>2019-02-16T10:42:19Z</time>
      </trkpt>
      <trkpt lat="45.5523" lon="6.37867">
        <ele>1673</ele>
        <time>2019-02-16T10:42:37Z</time>
      </trkpt>
      <trkpt lat="45.55226" lon="6.3786">
        <ele>1675</ele>
        <time>2019-02-16T10:42:46Z</time>
      </trkpt>
      <trkpt lat="45.55223" lon="6.37858">
        <ele>1676</ele>
        <time>2019-02-16T10:42:56Z</time>
      </trkpt>
      <trkpt lat="45.55222" lon="6.37851">
        <ele>1676</ele>
        <time>2019-02-16T10:43:00Z</time>
      </trkpt>
      <trkpt lat="45.55215" lon="6.37849">
        <ele>1677</ele>
        <time>2019-02-16T10:43:08Z</time>
      </trkpt>
      <trkpt lat="45.55208" lon="6.37845">
        <ele>1679</ele>
        <time>2019-02-16T10:43:27Z</time>
      </trkpt>
      <trkpt lat="45.55201" lon="6.37841">
        <ele>1681</ele>
        <time>2019-02-16T10:43:46Z</time>
      </trkpt>
      <trkpt lat="45.55195" lon="6.37834">
        <ele>1682</ele>
        <time>2019-02-16T10:44:02Z</time>
      </trkpt>
      <trkpt lat="45.55188" lon="6.37832">
        <ele>1684</ele>
        <time>2019-02-16T10:44:14Z</time>
      </trkpt>
      <trkpt lat="45.55185" lon="6.37829">
        <ele>1684</ele>
        <time>2019-02-16T10:44:20Z</time>
      </trkpt>
      <trkpt lat="45.5518" lon="6.37825">
        <ele>1686</ele>
        <time>2019-02-16T10:44:32Z</time>
      </trkpt>
      <trkpt lat="45.55176" lon="6.37825">
        <ele>1686</ele>
        <time>2019-02-16T10:44:37Z</time>
      </trkpt>
      <trkpt lat="45.55171" lon="6.37814">
        <ele>1688</ele>
        <time>2019-02-16T10:44:55Z</time>
      </trkpt>
      <trkpt lat="45.55168" lon="6.37809">
        <ele>1689</ele>
        <time>2019-02-16T10:45:07Z</time>
      </trkpt>
      <trkpt lat="45.55165" lon="6.37805">
        <ele>1691</ele>
        <time>2019-02-16T10:45:14Z</time>
      </trkpt>
      <trkpt lat="45.55162" lon="6.37801">
        <ele>1692</ele>
        <time>2019-02-16T10:45:26Z</time>
      </trkpt>
      <trkpt lat="45.55159" lon="6.37789">
        <ele>1694</ele>
        <time>2019-02-16T10:45:45Z</time>
      </trkpt>
      <trkpt lat="45.55159" lon="6.37783">
        <ele>1695</ele>
        <time>2019-02-16T10:45:53Z</time>
      </trkpt>
      <trkpt lat="45.55161" lon="6.37775">
        <ele>1696</ele>
        <time>2019-02-16T10:46:05Z</time>
      </trkpt>
      <trkpt lat="45.55157" lon="6.3776">
        <ele>1698</ele>
        <time>2019-02-16T10:46:36Z</time>
      </trkpt>
      <trkpt lat="45.55155" lon="6.37756">
        <ele>1698</ele>
        <time>2019-02-16T10:46:41Z</time>
      </trkpt>
      <trkpt lat="45.55151" lon="6.37753">
        <ele>1699</ele>
        <time>2019-02-16T10:46:45Z</time>
      </trkpt>
      <trkpt lat="45.5515" lon="6.37746">
        <ele>1700</ele>
        <time>2019-02-16T10:46:53Z</time>
      </trkpt>
      <trkpt lat="45.55149" lon="6.3774">
        <ele>1701</ele>
        <time>2019-02-16T10:47:05Z</time>
      </trkpt>
      <trkpt lat="45.55157" lon="6.37715">
        <ele>1705</ele>
        <time>2019-02-16T10:48:04Z</time>
      </trkpt>
      <trkpt lat="45.55158" lon="6.37709">
        <ele>1706</ele>
        <time>2019-02-16T10:48:18Z</time>
      </trkpt>
      <trkpt lat="45.55161" lon="6.37703">
        <ele>1708</ele>
        <time>2019-02-16T10:48:32Z</time>
      </trkpt>
      <trkpt lat="45.5516" lon="6.37698">
        <ele>1709</ele>
        <time>2019-02-16T10:48:40Z</time>
      </trkpt>
      <trkpt lat="45.55158" lon="6.3769">
        <ele>1710</ele>
        <time>2019-02-16T10:48:50Z</time>
      </trkpt>
      <trkpt lat="45.55156" lon="6.37668">
        <ele>1715</ele>
        <time>2019-02-16T10:49:30Z</time>
      </trkpt>
      <trkpt lat="45.55159" lon="6.37662">
        <ele>1716</ele>
        <time>2019-02-16T10:49:49Z</time>
      </trkpt>
      <trkpt lat="45.55169" lon="6.37663">
        <ele>1719</ele>
        <time>2019-02-16T10:50:06Z</time>
      </trkpt>
      <trkpt lat="45.55174" lon="6.3766">
        <ele>1721</ele>
        <time>2019-02-16T10:50:20Z</time>
      </trkpt>
      <trkpt lat="45.55178" lon="6.37658">
        <ele>1723</ele>
        <time>2019-02-16T10:50:38Z</time>
      </trkpt>
      <trkpt lat="45.55187" lon="6.37663">
        <ele>1725</ele>
        <time>2019-02-16T10:50:55Z</time>
      </trkpt>
      <trkpt lat="45.5519" lon="6.37657">
        <ele>1726</ele>
        <time>2019-02-16T10:51:03Z</time>
      </trkpt>
      <trkpt lat="45.55204" lon="6.37651">
        <ele>1732</ele>
        <time>2019-02-16T10:56:04Z</time>
      </trkpt>
      <trkpt lat="45.55208" lon="6.37649">
        <ele>1733</ele>
        <time>2019-02-16T10:56:17Z</time>
      </trkpt>
      <trkpt lat="45.55217" lon="6.37642">
        <ele>1736</ele>
        <time>2019-02-16T10:56:41Z</time>
      </trkpt>
      <trkpt lat="45.55226" lon="6.37637">
        <ele>1739</ele>
        <time>2019-02-16T10:57:05Z</time>
      </trkpt>
      <trkpt lat="45.55232" lon="6.37635">
        <ele>1740</ele>
        <time>2019-02-16T10:57:23Z</time>
      </trkpt>
      <trkpt lat="45.55234" lon="6.37631">
        <ele>1742</ele>
        <time>2019-02-16T10:57:35Z</time>
      </trkpt>
      <trkpt lat="45.55245" lon="6.37626">
        <ele>1745</ele>
        <time>2019-02-16T10:57:59Z</time>
      </trkpt>
      <trkpt lat="45.55249" lon="6.37625">
        <ele>1747</ele>
        <time>2019-02-16T10:58:11Z</time>
      </trkpt>
      <trkpt lat="45.55251" lon="6.37618">
        <ele>1748</ele>
        <time>2019-02-16T10:58:23Z</time>
      </trkpt>
      <trkpt lat="45.55254" lon="6.37614">
        <ele>1749</ele>
        <time>2019-02-16T10:58:35Z</time>
      </trkpt>
      <trkpt lat="45.55269" lon="6.37608">
        <ele>1754</ele>
        <time>2019-02-16T10:59:12Z</time>
      </trkpt>
      <trkpt lat="45.55274" lon="6.37604">
        <ele>1755</ele>
        <time>2019-02-16T10:59:24Z</time>
      </trkpt>
      <trkpt lat="45.55278" lon="6.37601">
        <ele>1756</ele>
        <time>2019-02-16T10:59:36Z</time>
      </trkpt>
      <trkpt lat="45.55282" lon="6.37597">
        <ele>1757</ele>
        <time>2019-02-16T10:59:47Z</time>
      </trkpt>
      <trkpt lat="45.55288" lon="6.3759">
        <ele>1759</ele>
        <time>2019-02-16T11:00:01Z</time>
      </trkpt>
      <trkpt lat="45.55292" lon="6.37584">
        <ele>1761</ele>
        <time>2019-02-16T11:00:19Z</time>
      </trkpt>
      <trkpt lat="45.55297" lon="6.37581">
        <ele>1762</ele>
        <time>2019-02-16T11:00:31Z</time>
      </trkpt>
      <trkpt lat="45.55299" lon="6.37571">
        <ele>1764</ele>
        <time>2019-02-16T11:00:49Z</time>
      </trkpt>
      <trkpt lat="45.55306" lon="6.37567">
        <ele>1766</ele>
        <time>2019-02-16T11:01:00Z</time>
      </trkpt>
      <trkpt lat="45.55312" lon="6.37563">
        <ele>1768</ele>
        <time>2019-02-16T11:01:20Z</time>
      </trkpt>
      <trkpt lat="45.55317" lon="6.37558">
        <ele>1770</ele>
        <time>2019-02-16T11:01:44Z</time>
      </trkpt>
      <trkpt lat="45.55321" lon="6.37555">
        <ele>1771</ele>
        <time>2019-02-16T11:01:51Z</time>
      </trkpt>
      <trkpt lat="45.55326" lon="6.37551">
        <ele>1772</ele>
        <time>2019-02-16T11:02:06Z</time>
      </trkpt>
      <trkpt lat="45.55333" lon="6.3755">
        <ele>1775</ele>
        <time>2019-02-16T11:02:24Z</time>
      </trkpt>
      <trkpt lat="45.55344" lon="6.37551">
        <ele>1778</ele>
        <time>2019-02-16T11:02:54Z</time>
      </trkpt>
      <trkpt lat="45.55352" lon="6.37549">
        <ele>1781</ele>
        <time>2019-02-16T11:03:20Z</time>
      </trkpt>
      <trkpt lat="45.55357" lon="6.37546">
        <ele>1783</ele>
        <time>2019-02-16T11:03:34Z</time>
      </trkpt>
      <trkpt lat="45.55356" lon="6.3754">
        <ele>1785</ele>
        <time>2019-02-16T11:03:46Z</time>
      </trkpt>
      <trkpt lat="45.55361" lon="6.37536">
        <ele>1787</ele>
        <time>2019-02-16T11:03:58Z</time>
      </trkpt>
      <trkpt lat="45.55365" lon="6.37538">
        <ele>1788</ele>
        <time>2019-02-16T11:04:04Z</time>
      </trkpt>
      <trkpt lat="45.55369" lon="6.37531">
        <ele>1790</ele>
        <time>2019-02-16T11:04:16Z</time>
      </trkpt>
      <trkpt lat="45.55375" lon="6.37529">
        <ele>1792</ele>
        <time>2019-02-16T11:04:28Z</time>
      </trkpt>
      <trkpt lat="45.55384" lon="6.37515">
        <ele>1796</ele>
        <time>2019-02-16T11:04:58Z</time>
      </trkpt>
      <trkpt lat="45.55384" lon="6.37502">
        <ele>1799</ele>
        <time>2019-02-16T11:05:18Z</time>
      </trkpt>
      <trkpt lat="45.55385" lon="6.37493">
        <ele>1800</ele>
        <time>2019-02-16T11:05:30Z</time>
      </trkpt>
      <trkpt lat="45.55503" lon="6.37273">
        <ele>1885.4</ele>
        <time>2019-02-16T11:19:08Z</time>
      </trkpt>
      <trkpt lat="45.5554" lon="6.37264">
        <ele>1742</ele>
        <time>2019-02-16T11:26:14Z</time>
      </trkpt>
      <trkpt lat="45.55569" lon="6.37222">
        <ele>1868</ele>
        <time>2019-02-16T11:26:20Z</time>
      </trkpt>
    </trkseg>
  </trk>
  <trk>
    <name><![CDATA[10 févr. 2019 à 15:06:08]]></name>
    <cmt><![CDATA[10 févr. 2019 à 15:06:08]]></cmt>
    <desc><![CDATA[{DC1}Heure de fin	: 
Durée totale	: 0h00:00
Moyenne globale	: -
Pente moyenne	: 8.03 %
Aire incluse	: 204.0794 ha
Détails par segments
distance  | durée    | vit.moy. | vit.max. | déniv. + | déniv -
   km     | hh:mn:ss |   km/h   |   km/h   |    m     |    m
    12.88 | 00:00:00 |      0.0 |      0.0 |        0 |        0{DC2}]]></desc>
    <trkseg>
      <trkpt lat="45.5509" lon="5.9394">
        <ele>368</ele>
      </trkpt>
      <trkpt lat="45.55093" lon="5.93932">
        <ele>369</ele>
      </trkpt>
      <trkpt lat="45.55087" lon="5.93913">
        <ele>369</ele>
      </trkpt>
      <trkpt lat="45.55048" lon="5.93904">
        <ele>371</ele>
      </trkpt>
      <trkpt lat="45.54987" lon="5.93908">
        <ele>373</ele>
      </trkpt>
      <trkpt lat="45.54988" lon="5.93944">
        <ele>374</ele>
      </trkpt>
      <trkpt lat="45.54944" lon="5.94075">
        <ele>372</ele>
      </trkpt>
      <trkpt lat="45.54931" lon="5.94084">
        <ele>371</ele>
      </trkpt>
      <trkpt lat="45.54922" lon="5.94102">
        <ele>369</ele>
      </trkpt>
      <trkpt lat="45.5492" lon="5.9412">
        <ele>367</ele>
      </trkpt>
      <trkpt lat="45.54913" lon="5.94138">
        <ele>366</ele>
      </trkpt>
      <trkpt lat="45.5491" lon="5.94193">
        <ele>366</ele>
      </trkpt>
      <trkpt lat="45.54912" lon="5.94211">
        <ele>366</ele>
      </trkpt>
      <trkpt lat="45.5492" lon="5.94248">
        <ele>366</ele>
      </trkpt>
      <trkpt lat="45.54906" lon="5.94257">
        <ele>367</ele>
      </trkpt>
      <trkpt lat="45.54893" lon="5.94255">
        <ele>369</ele>
      </trkpt>
      <trkpt lat="45.54868" lon="5.94238">
        <ele>370</ele>
      </trkpt>
      <trkpt lat="45.54855" lon="5.94233">
        <ele>372</ele>
      </trkpt>
      <trkpt lat="45.5483" lon="5.94224">
        <ele>374</ele>
      </trkpt>
      <trkpt lat="45.54827" lon="5.94275">
        <ele>377</ele>
      </trkpt>
      <trkpt lat="45.54821" lon="5.94293">
        <ele>379</ele>
      </trkpt>
      <trkpt lat="45.54844" lon="5.94348">
        <ele>382</ele>
      </trkpt>
      <trkpt lat="45.54845" lon="5.94442">
        <ele>389</ele>
      </trkpt>
      <trkpt lat="45.54842" lon="5.9446">
        <ele>393</ele>
      </trkpt>
      <trkpt lat="45.54817" lon="5.94484">
        <ele>398</ele>
      </trkpt>
      <trkpt lat="45.54813" lon="5.94464">
        <ele>402</ele>
      </trkpt>
      <trkpt lat="45.54812" lon="5.94446">
        <ele>405</ele>
      </trkpt>
      <trkpt lat="45.54787" lon="5.94428">
        <ele>409</ele>
      </trkpt>
      <trkpt lat="45.54773" lon="5.94428">
        <ele>412</ele>
      </trkpt>
      <trkpt lat="45.54766" lon="5.94446">
        <ele>415</ele>
      </trkpt>
      <trkpt lat="45.54751" lon="5.94463">
        <ele>418</ele>
      </trkpt>
      <trkpt lat="45.54716" lon="5.94422">
        <ele>424</ele>
      </trkpt>
      <trkpt lat="45.54691" lon="5.94413">
        <ele>429</ele>
      </trkpt>
      <trkpt lat="45.54678" lon="5.94401">
        <ele>433</ele>
      </trkpt>
      <trkpt lat="45.54671" lon="5.94383">
        <ele>437</ele>
      </trkpt>
      <trkpt lat="45.54671" lon="5.94365">
        <ele>440</ele>
      </trkpt>
      <trkpt lat="45.54665" lon="5.94346">
        <ele>442</ele>
      </trkpt>
      <trkpt lat="45.5464" lon="5.94313">
        <ele>446</ele>
      </trkpt>
      <trkpt lat="45.54627" lon="5.94302">
        <ele>449</ele>
      </trkpt>
      <trkpt lat="45.54588" lon="5.94302">
        <ele>455</ele>
      </trkpt>
      <trkpt lat="45.54574" lon="5.94298">
        <ele>459</ele>
      </trkpt>
      <trkpt lat="45.54561" lon="5.94287">
        <ele>464</ele>
      </trkpt>
      <trkpt lat="45.54509" lon="5.94283">
        <ele>470</ele>
      </trkpt>
      <trkpt lat="45.54483" lon="5.94261">
        <ele>477</ele>
      </trkpt>
      <trkpt lat="45.54477" lon="5.94242">
        <ele>483</ele>
      </trkpt>
      <trkpt lat="45.54472" lon="5.94205">
        <ele>489</ele>
      </trkpt>
      <trkpt lat="45.5446" lon="5.9418">
        <ele>494</ele>
      </trkpt>
      <trkpt lat="45.54439" lon="5.94171">
        <ele>499</ele>
      </trkpt>
      <trkpt lat="45.54413" lon="5.94148">
        <ele>505</ele>
      </trkpt>
      <trkpt lat="45.54401" lon="5.94142">
        <ele>509</ele>
      </trkpt>
      <trkpt lat="45.54374" lon="5.94142">
        <ele>514</ele>
      </trkpt>
      <trkpt lat="45.54348" lon="5.9413">
        <ele>519</ele>
      </trkpt>
      <trkpt lat="45.54283" lon="5.94055">
        <ele>526</ele>
      </trkpt>
      <trkpt lat="45.54231" lon="5.94026">
        <ele>535</ele>
      </trkpt>
      <trkpt lat="45.54218" lon="5.94011">
        <ele>541</ele>
      </trkpt>
      <trkpt lat="45.54205" lon="5.94006">
        <ele>546</ele>
      </trkpt>
      <trkpt lat="45.54192" lon="5.94006">
        <ele>550</ele>
      </trkpt>
      <trkpt lat="45.54183" lon="5.9397">
        <ele>553</ele>
      </trkpt>
      <trkpt lat="45.5417" lon="5.93955">
        <ele>556</ele>
      </trkpt>
      <trkpt lat="45.54144" lon="5.93944">
        <ele>560</ele>
      </trkpt>
      <trkpt lat="45.54132" lon="5.93942">
        <ele>564</ele>
      </trkpt>
      <trkpt lat="45.54078" lon="5.93907">
        <ele>571</ele>
      </trkpt>
      <trkpt lat="45.54053" lon="5.9389">
        <ele>578</ele>
      </trkpt>
      <trkpt lat="45.5404" lon="5.93853">
        <ele>584</ele>
      </trkpt>
      <trkpt lat="45.54026" lon="5.93837">
        <ele>589</ele>
      </trkpt>
      <trkpt lat="45.53974" lon="5.93806">
        <ele>597</ele>
      </trkpt>
      <trkpt lat="45.53897" lon="5.93709">
        <ele>605</ele>
      </trkpt>
      <trkpt lat="45.53884" lon="5.93705">
        <ele>609</ele>
      </trkpt>
      <trkpt lat="45.53819" lon="5.93651">
        <ele>611</ele>
      </trkpt>
      <trkpt lat="45.5378" lon="5.93605">
        <ele>613</ele>
      </trkpt>
      <trkpt lat="45.53767" lon="5.936">
        <ele>613</ele>
      </trkpt>
      <trkpt lat="45.53754" lon="5.93583">
        <ele>614</ele>
      </trkpt>
      <trkpt lat="45.53741" lon="5.93546">
        <ele>615</ele>
      </trkpt>
      <trkpt lat="45.53724" lon="5.93536">
        <ele>615</ele>
      </trkpt>
      <trkpt lat="45.53703" lon="5.93534">
        <ele>616</ele>
      </trkpt>
      <trkpt lat="45.53678" lon="5.93548">
        <ele>617</ele>
      </trkpt>
      <trkpt lat="45.53639" lon="5.93549">
        <ele>620</ele>
      </trkpt>
      <trkpt lat="45.53626" lon="5.93546">
        <ele>622</ele>
      </trkpt>
      <trkpt lat="45.53575" lon="5.9351">
        <ele>629</ele>
      </trkpt>
      <trkpt lat="45.53566" lon="5.93491">
        <ele>635</ele>
      </trkpt>
      <trkpt lat="45.53565" lon="5.93454">
        <ele>640</ele>
      </trkpt>
      <trkpt lat="45.5357" lon="5.93416">
        <ele>645</ele>
      </trkpt>
      <trkpt lat="45.5357" lon="5.9338">
        <ele>650</ele>
      </trkpt>
      <trkpt lat="45.53558" lon="5.93324">
        <ele>656</ele>
      </trkpt>
      <trkpt lat="45.53545" lon="5.93315">
        <ele>662</ele>
      </trkpt>
      <trkpt lat="45.53518" lon="5.93319">
        <ele>669</ele>
      </trkpt>
      <trkpt lat="45.53454" lon="5.93339">
        <ele>677</ele>
      </trkpt>
      <trkpt lat="45.53415" lon="5.93339">
        <ele>685</ele>
      </trkpt>
      <trkpt lat="45.53364" lon="5.93312">
        <ele>694</ele>
      </trkpt>
      <trkpt lat="45.53259" lon="5.93304">
        <ele>705</ele>
      </trkpt>
      <trkpt lat="45.53253" lon="5.93285">
        <ele>712</ele>
      </trkpt>
      <trkpt lat="45.53314" lon="5.93194">
        <ele>721</ele>
      </trkpt>
      <trkpt lat="45.53321" lon="5.93176">
        <ele>726</ele>
      </trkpt>
      <trkpt lat="45.53347" lon="5.93143">
        <ele>731</ele>
      </trkpt>
      <trkpt lat="45.53355" lon="5.93124">
        <ele>733</ele>
      </trkpt>
      <trkpt lat="45.53314" lon="5.93123">
        <ele>733</ele>
      </trkpt>
      <trkpt lat="45.5327" lon="5.93142">
        <ele>734</ele>
      </trkpt>
      <trkpt lat="45.53242" lon="5.93158">
        <ele>735</ele>
      </trkpt>
      <trkpt lat="45.53203" lon="5.93158">
        <ele>737</ele>
      </trkpt>
      <trkpt lat="45.53168" lon="5.9317">
        <ele>740</ele>
      </trkpt>
      <trkpt lat="45.53134" lon="5.93185">
        <ele>745</ele>
      </trkpt>
      <trkpt lat="45.53107" lon="5.9319">
        <ele>750</ele>
      </trkpt>
      <trkpt lat="45.53078" lon="5.93198">
        <ele>756</ele>
      </trkpt>
      <trkpt lat="45.52976" lon="5.93195">
        <ele>772</ele>
      </trkpt>
      <trkpt lat="45.52787" lon="5.93172">
        <ele>799</ele>
      </trkpt>
      <trkpt lat="45.52762" lon="5.93153">
        <ele>809</ele>
      </trkpt>
      <trkpt lat="45.52698" lon="5.93124">
        <ele>820</ele>
      </trkpt>
      <trkpt lat="45.52597" lon="5.93084">
        <ele>838</ele>
      </trkpt>
      <trkpt lat="45.52558" lon="5.93054">
        <ele>844</ele>
      </trkpt>
      <trkpt lat="45.52467" lon="5.92969">
        <ele>847</ele>
      </trkpt>
      <trkpt lat="45.52439" lon="5.92957">
        <ele>846</ele>
      </trkpt>
      <trkpt lat="45.52317" lon="5.92954">
        <ele>844</ele>
      </trkpt>
      <trkpt lat="45.52237" lon="5.92931">
        <ele>842</ele>
      </trkpt>
      <trkpt lat="45.52211" lon="5.92916">
        <ele>839</ele>
      </trkpt>
      <trkpt lat="45.52169" lon="5.92911">
        <ele>837</ele>
      </trkpt>
      <trkpt lat="45.52113" lon="5.92873">
        <ele>837</ele>
      </trkpt>
      <trkpt lat="45.52061" lon="5.92808">
        <ele>841</ele>
      </trkpt>
      <trkpt lat="45.52034" lon="5.92792">
        <ele>846</ele>
      </trkpt>
      <trkpt lat="45.51994" lon="5.92781">
        <ele>852</ele>
      </trkpt>
      <trkpt lat="45.51848" lon="5.92773">
        <ele>865</ele>
      </trkpt>
      <trkpt lat="45.51835" lon="5.92783">
        <ele>869</ele>
      </trkpt>
      <trkpt lat="45.51782" lon="5.92782">
        <ele>872</ele>
      </trkpt>
      <trkpt lat="45.51754" lon="5.92798">
        <ele>874</ele>
      </trkpt>
      <trkpt lat="45.51714" lon="5.92822">
        <ele>875</ele>
      </trkpt>
      <trkpt lat="45.51674" lon="5.92821">
        <ele>876</ele>
      </trkpt>
      <trkpt lat="45.51622" lon="5.92806">
        <ele>877</ele>
      </trkpt>
      <trkpt lat="45.51595" lon="5.92808">
        <ele>877</ele>
      </trkpt>
      <trkpt lat="45.51582" lon="5.92818">
        <ele>876</ele>
      </trkpt>
      <trkpt lat="45.51569" lon="5.9282">
        <ele>874</ele>
      </trkpt>
      <trkpt lat="45.51557" lon="5.92805">
        <ele>873</ele>
      </trkpt>
      <trkpt lat="45.51539" lon="5.92765">
        <ele>873</ele>
      </trkpt>
      <trkpt lat="45.51526" lon="5.92726">
        <ele>874</ele>
      </trkpt>
      <trkpt lat="45.51501" lon="5.92693">
        <ele>875</ele>
      </trkpt>
      <trkpt lat="45.51451" lon="5.92672">
        <ele>872</ele>
      </trkpt>
      <trkpt lat="45.51417" lon="5.92649">
        <ele>868</ele>
      </trkpt>
      <trkpt lat="45.51399" lon="5.92626">
        <ele>865</ele>
      </trkpt>
      <trkpt lat="45.51351" lon="5.92622">
        <ele>859</ele>
      </trkpt>
      <trkpt lat="45.51287" lon="5.92602">
        <ele>853</ele>
      </trkpt>
      <trkpt lat="45.51281" lon="5.92583">
        <ele>849</ele>
      </trkpt>
      <trkpt lat="45.51341" lon="5.92494">
        <ele>850</ele>
      </trkpt>
      <trkpt lat="45.51346" lon="5.92475">
        <ele>847</ele>
      </trkpt>
      <trkpt lat="45.51359" lon="5.92468">
        <ele>843</ele>
      </trkpt>
      <trkpt lat="45.51384" lon="5.9247">
        <ele>838</ele>
      </trkpt>
      <trkpt lat="45.51463" lon="5.92516">
        <ele>833</ele>
      </trkpt>
      <trkpt lat="45.51528" lon="5.92533">
        <ele>828</ele>
      </trkpt>
      <trkpt lat="45.51633" lon="5.92607">
        <ele>821</ele>
      </trkpt>
      <trkpt lat="45.51672" lon="5.92622">
        <ele>816</ele>
      </trkpt>
      <trkpt lat="45.51726" lon="5.92659">
        <ele>812</ele>
      </trkpt>
      <trkpt lat="45.51779" lon="5.92661">
        <ele>812</ele>
      </trkpt>
      <trkpt lat="45.51813" lon="5.92655">
        <ele>809</ele>
      </trkpt>
      <trkpt lat="45.51917" lon="5.92638">
        <ele>801</ele>
      </trkpt>
      <trkpt lat="45.51931" lon="5.92644">
        <ele>798</ele>
      </trkpt>
      <trkpt lat="45.51944" lon="5.92643">
        <ele>796</ele>
      </trkpt>
      <trkpt lat="45.51983" lon="5.92624">
        <ele>792</ele>
      </trkpt>
      <trkpt lat="45.52049" lon="5.92618">
        <ele>786</ele>
      </trkpt>
      <trkpt lat="45.52062" lon="5.92623">
        <ele>782</ele>
      </trkpt>
      <trkpt lat="45.52072" lon="5.92642">
        <ele>779</ele>
      </trkpt>
      <trkpt lat="45.52085" lon="5.92651">
        <ele>778</ele>
      </trkpt>
      <trkpt lat="45.52097" lon="5.92633">
        <ele>774</ele>
      </trkpt>
      <trkpt lat="45.52084" lon="5.9262">
        <ele>771</ele>
      </trkpt>
      <trkpt lat="45.52044" lon="5.92602">
        <ele>769</ele>
      </trkpt>
      <trkpt lat="45.51838" lon="5.92567">
        <ele>759</ele>
      </trkpt>
      <trkpt lat="45.51773" lon="5.92567">
        <ele>754</ele>
      </trkpt>
      <trkpt lat="45.5176" lon="5.92562">
        <ele>752</ele>
      </trkpt>
      <trkpt lat="45.51735" lon="5.92543">
        <ele>748</ele>
      </trkpt>
      <trkpt lat="45.51722" lon="5.92527">
        <ele>745</ele>
      </trkpt>
      <trkpt lat="45.51709" lon="5.92518">
        <ele>743</ele>
      </trkpt>
      <trkpt lat="45.51682" lon="5.92506">
        <ele>742</ele>
      </trkpt>
      <trkpt lat="45.51622" lon="5.9244">
        <ele>740</ele>
      </trkpt>
      <trkpt lat="45.51614" lon="5.9241">
        <ele>737</ele>
      </trkpt>
      <trkpt lat="45.51602" lon="5.92395">
        <ele>734</ele>
      </trkpt>
      <trkpt lat="45.51587" lon="5.92392">
        <ele>733</ele>
      </trkpt>
      <trkpt lat="45.51533" lon="5.92329">
        <ele>731</ele>
      </trkpt>
      <trkpt lat="45.51523" lon="5.92311">
        <ele>729</ele>
      </trkpt>
      <trkpt lat="45.51487" lon="5.92261">
        <ele>726</ele>
      </trkpt>
      <trkpt lat="45.51451" lon="5.92206">
        <ele>724</ele>
      </trkpt>
      <trkpt lat="45.51445" lon="5.92188">
        <ele>722</ele>
      </trkpt>
      <trkpt lat="45.5143" lon="5.92074">
        <ele>718</ele>
      </trkpt>
      <trkpt lat="45.51425" lon="5.92056">
        <ele>715</ele>
      </trkpt>
      <trkpt lat="45.51438" lon="5.92071">
        <ele>713</ele>
      </trkpt>
      <trkpt lat="45.51447" lon="5.9209">
        <ele>712</ele>
      </trkpt>
      <trkpt lat="45.51452" lon="5.92129">
        <ele>711</ele>
      </trkpt>
      <trkpt lat="45.51458" lon="5.92147">
        <ele>710</ele>
      </trkpt>
      <trkpt lat="45.51471" lon="5.92164">
        <ele>709</ele>
      </trkpt>
      <trkpt lat="45.51535" lon="5.9219">
        <ele>707</ele>
      </trkpt>
      <trkpt lat="45.51587" lon="5.92238">
        <ele>705</ele>
      </trkpt>
      <trkpt lat="45.51635" lon="5.9231">
        <ele>704</ele>
      </trkpt>
      <trkpt lat="45.51702" lon="5.92362">
        <ele>702</ele>
      </trkpt>
      <trkpt lat="45.51781" lon="5.92399">
        <ele>700</ele>
      </trkpt>
      <trkpt lat="45.51803" lon="5.92401">
        <ele>699</ele>
      </trkpt>
      <trkpt lat="45.51854" lon="5.92408">
        <ele>698</ele>
      </trkpt>
      <trkpt lat="45.5192" lon="5.92381">
        <ele>695</ele>
      </trkpt>
      <trkpt lat="45.5203" lon="5.92374">
        <ele>689</ele>
      </trkpt>
      <trkpt lat="45.5214" lon="5.92393">
        <ele>679</ele>
      </trkpt>
      <trkpt lat="45.52179" lon="5.92412">
        <ele>674</ele>
      </trkpt>
      <trkpt lat="45.52249" lon="5.92511">
        <ele>668</ele>
      </trkpt>
      <trkpt lat="45.5228" lon="5.92526">
        <ele>664</ele>
      </trkpt>
      <trkpt lat="45.52491" lon="5.92518">
        <ele>651</ele>
      </trkpt>
      <trkpt lat="45.52731" lon="5.92606">
        <ele>630</ele>
      </trkpt>
      <trkpt lat="45.52771" lon="5.92641">
        <ele>626</ele>
      </trkpt>
      <trkpt lat="45.5282" lon="5.92663">
        <ele>623</ele>
      </trkpt>
      <trkpt lat="45.52896" lon="5.92692">
        <ele>619</ele>
      </trkpt>
      <trkpt lat="45.52924" lon="5.92691">
        <ele>615</ele>
      </trkpt>
      <trkpt lat="45.52964" lon="5.92721">
        <ele>612</ele>
      </trkpt>
      <trkpt lat="45.53088" lon="5.9278">
        <ele>607</ele>
      </trkpt>
      <trkpt lat="45.5313" lon="5.92815">
        <ele>605</ele>
      </trkpt>
      <trkpt lat="45.53179" lon="5.92838">
        <ele>604</ele>
      </trkpt>
      <trkpt lat="45.53225" lon="5.92867">
        <ele>604</ele>
      </trkpt>
      <trkpt lat="45.53238" lon="5.92871">
        <ele>605</ele>
      </trkpt>
      <trkpt lat="45.53306" lon="5.92868">
        <ele>605</ele>
      </trkpt>
      <trkpt lat="45.53346" lon="5.92855">
        <ele>604</ele>
      </trkpt>
      <trkpt lat="45.53388" lon="5.92849">
        <ele>604</ele>
      </trkpt>
      <trkpt lat="45.53476" lon="5.92829">
        <ele>603</ele>
      </trkpt>
      <trkpt lat="45.53503" lon="5.92828">
        <ele>603</ele>
      </trkpt>
      <trkpt lat="45.53516" lon="5.92812">
        <ele>603</ele>
      </trkpt>
      <trkpt lat="45.53524" lon="5.92794">
        <ele>602</ele>
      </trkpt>
      <trkpt lat="45.53537" lon="5.92782">
        <ele>602</ele>
      </trkpt>
      <trkpt lat="45.5355" lon="5.92778">
        <ele>603</ele>
      </trkpt>
      <trkpt lat="45.53577" lon="5.9278">
        <ele>603</ele>
      </trkpt>
      <trkpt lat="45.53668" lon="5.92796">
        <ele>600</ele>
      </trkpt>
      <trkpt lat="45.53703" lon="5.92799">
        <ele>598</ele>
      </trkpt>
      <trkpt lat="45.53717" lon="5.9281">
        <ele>596</ele>
      </trkpt>
      <trkpt lat="45.5373" lon="5.92826">
        <ele>594</ele>
      </trkpt>
      <trkpt lat="45.53773" lon="5.92922">
        <ele>586</ele>
      </trkpt>
      <trkpt lat="45.53773" lon="5.9296">
        <ele>579</ele>
      </trkpt>
      <trkpt lat="45.53768" lon="5.9298">
        <ele>574</ele>
      </trkpt>
      <trkpt lat="45.53759" lon="5.92998">
        <ele>571</ele>
      </trkpt>
      <trkpt lat="45.53757" lon="5.93016">
        <ele>568</ele>
      </trkpt>
      <trkpt lat="45.5377" lon="5.93028">
        <ele>564</ele>
      </trkpt>
      <trkpt lat="45.53783" lon="5.93028">
        <ele>561</ele>
      </trkpt>
      <trkpt lat="45.53809" lon="5.93006">
        <ele>558</ele>
      </trkpt>
      <trkpt lat="45.53906" lon="5.92965">
        <ele>557</ele>
      </trkpt>
      <trkpt lat="45.54012" lon="5.92956">
        <ele>557</ele>
      </trkpt>
      <trkpt lat="45.54025" lon="5.92952">
        <ele>558</ele>
      </trkpt>
      <trkpt lat="45.54031" lon="5.92933">
        <ele>559</ele>
      </trkpt>
      <trkpt lat="45.54054" lon="5.92936">
        <ele>559</ele>
      </trkpt>
      <trkpt lat="45.54081" lon="5.92953">
        <ele>560</ele>
      </trkpt>
      <trkpt lat="45.54251" lon="5.93026">
        <ele>557</ele>
      </trkpt>
      <trkpt lat="45.54321" lon="5.9307">
        <ele>553</ele>
      </trkpt>
      <trkpt lat="45.5451" lon="5.93128">
        <ele>545</ele>
      </trkpt>
      <trkpt lat="45.54526" lon="5.93143">
        <ele>540</ele>
      </trkpt>
      <trkpt lat="45.5457" lon="5.93153">
        <ele>537</ele>
      </trkpt>
      <trkpt lat="45.54665" lon="5.93153">
        <ele>535</ele>
      </trkpt>
      <trkpt lat="45.54693" lon="5.93164">
        <ele>533</ele>
      </trkpt>
      <trkpt lat="45.54762" lon="5.93234">
        <ele>528</ele>
      </trkpt>
      <trkpt lat="45.54815" lon="5.9325">
        <ele>523</ele>
      </trkpt>
      <trkpt lat="45.54818" lon="5.93269">
        <ele>520</ele>
      </trkpt>
      <trkpt lat="45.54818" lon="5.93289">
        <ele>516</ele>
      </trkpt>
      <trkpt lat="45.54806" lon="5.93306">
        <ele>512</ele>
      </trkpt>
      <trkpt lat="45.54797" lon="5.93325">
        <ele>509</ele>
      </trkpt>
      <trkpt lat="45.54793" lon="5.93362">
        <ele>505</ele>
      </trkpt>
      <trkpt lat="45.54793" lon="5.934">
        <ele>500</ele>
      </trkpt>
      <trkpt lat="45.548" lon="5.93418">
        <ele>496</ele>
      </trkpt>
      <trkpt lat="45.54813" lon="5.93428">
        <ele>493</ele>
      </trkpt>
      <trkpt lat="45.54826" lon="5.93432">
        <ele>490</ele>
      </trkpt>
      <trkpt lat="45.54929" lon="5.93426">
        <ele>483</ele>
      </trkpt>
      <trkpt lat="45.5494" lon="5.93445">
        <ele>477</ele>
      </trkpt>
      <trkpt lat="45.54954" lon="5.93455">
        <ele>472</ele>
      </trkpt>
      <trkpt lat="45.54979" lon="5.93455">
        <ele>468</ele>
      </trkpt>
      <trkpt lat="45.55017" lon="5.93428">
        <ele>465</ele>
      </trkpt>
      <trkpt lat="45.5503" lon="5.93425">
        <ele>463</ele>
      </trkpt>
      <trkpt lat="45.55043" lon="5.93431">
        <ele>462</ele>
      </trkpt>
      <trkpt lat="45.55057" lon="5.93443">
        <ele>460</ele>
      </trkpt>
      <trkpt lat="45.55083" lon="5.93419">
        <ele>459</ele>
      </trkpt>
      <trkpt lat="45.5511" lon="5.93419">
        <ele>457</ele>
      </trkpt>
      <trkpt lat="45.55123" lon="5.93413">
        <ele>456</ele>
      </trkpt>
      <trkpt lat="45.55136" lon="5.93401">
        <ele>455</ele>
      </trkpt>
      <trkpt lat="45.55149" lon="5.934">
        <ele>454</ele>
      </trkpt>
      <trkpt lat="45.55162" lon="5.93417">
        <ele>452</ele>
      </trkpt>
      <trkpt lat="45.55168" lon="5.93436">
        <ele>451</ele>
      </trkpt>
      <trkpt lat="45.5518" lon="5.93444">
        <ele>449</ele>
      </trkpt>
      <trkpt lat="45.55245" lon="5.93447">
        <ele>445</ele>
      </trkpt>
      <trkpt lat="45.553" lon="5.935">
        <ele>437</ele>
      </trkpt>
      <trkpt lat="45.55313" lon="5.93506">
        <ele>432</ele>
      </trkpt>
      <trkpt lat="45.55325" lon="5.93525">
        <ele>428</ele>
      </trkpt>
      <trkpt lat="45.55329" lon="5.93543">
        <ele>424</ele>
      </trkpt>
      <trkpt lat="45.5533" lon="5.9358">
        <ele>421</ele>
      </trkpt>
      <trkpt lat="45.55278" lon="5.93589">
        <ele>417</ele>
      </trkpt>
      <trkpt lat="45.55223" lon="5.93633">
        <ele>412</ele>
      </trkpt>
      <trkpt lat="45.55203" lon="5.93664">
        <ele>408</ele>
      </trkpt>
      <trkpt lat="45.55203" lon="5.93702">
        <ele>403</ele>
      </trkpt>
      <trkpt lat="45.55211" lon="5.93721">
        <ele>400</ele>
      </trkpt>
      <trkpt lat="45.55217" lon="5.93791">
        <ele>377</ele>
      </trkpt>
    </trkseg>
  </trk>
  <trk>
    <name><![CDATA[10 févr. 2019 à 14:22:06]]></name>
    <cmt><![CDATA[10 févr. 2019 à 14:22:06]]></cmt>
    <desc><![CDATA[{DC1}Heure de fin	: 00:09:21
Durée totale	: -17690438h37:54
Moyenne globale	: -
Pente moyenne	: 5.62 %
Aire incluse	: 5.7967 ha
Détails par segments
distance  | durée    | vit.moy. | vit.max. | déniv. + | déniv -
   km     | hh:mn:ss |   km/h   |   km/h   |    m     |    m
     3.30 | 00:00:00 |      0.0 |      0.0 |        0 |        0{DC2}]]></desc>
    <trkseg>
      <trkpt lat="45.55169" lon="5.93089">
        <ele>415</ele>
      </trkpt>
      <trkpt lat="45.55335" lon="5.93549">
        <ele>408</ele>
      </trkpt>
      <trkpt lat="45.55329" lon="5.93541">
        <ele>408</ele>
      </trkpt>
      <trkpt lat="45.55324" lon="5.93517">
        <ele>409</ele>
      </trkpt>
      <trkpt lat="45.55318" lon="5.93503">
        <ele>410</ele>
      </trkpt>
      <trkpt lat="45.55297" lon="5.93331">
        <ele>413</ele>
      </trkpt>
      <trkpt lat="45.55297" lon="5.93268">
        <ele>414</ele>
      </trkpt>
      <trkpt lat="45.55294" lon="5.93252">
        <ele>415</ele>
      </trkpt>
      <trkpt lat="45.55242" lon="5.93154">
        <ele>415</ele>
      </trkpt>
      <trkpt lat="45.55195" lon="5.93092">
        <ele>413</ele>
      </trkpt>
      <trkpt lat="45.55177" lon="5.93081">
        <ele>412</ele>
      </trkpt>
      <trkpt lat="45.55071" lon="5.92946">
        <ele>412</ele>
      </trkpt>
      <trkpt lat="45.55065" lon="5.92935">
        <ele>412</ele>
      </trkpt>
      <trkpt lat="45.55063" lon="5.92921">
        <ele>412</ele>
      </trkpt>
      <trkpt lat="45.55024" lon="5.92904">
        <ele>413</ele>
      </trkpt>
      <trkpt lat="45.55039" lon="5.92864">
        <ele>415</ele>
      </trkpt>
      <trkpt lat="45.55048" lon="5.92851">
        <ele>416</ele>
      </trkpt>
      <trkpt lat="45.55081" lon="5.92836">
        <ele>418</ele>
      </trkpt>
      <trkpt lat="45.5517" lon="5.92763">
        <ele>423</ele>
      </trkpt>
      <trkpt lat="45.55212" lon="5.92754">
        <ele>428</ele>
      </trkpt>
      <trkpt lat="45.55226" lon="5.92743">
        <ele>431</ele>
      </trkpt>
      <trkpt lat="45.55229" lon="5.92726">
        <ele>433</ele>
      </trkpt>
      <trkpt lat="45.552" lon="5.92594">
        <ele>439</ele>
      </trkpt>
      <trkpt lat="45.55187" lon="5.92572">
        <ele>443</ele>
      </trkpt>
      <trkpt lat="45.55176" lon="5.92562">
        <ele>446</ele>
      </trkpt>
      <trkpt lat="45.55171" lon="5.92559">
        <ele>448</ele>
      </trkpt>
      <trkpt lat="45.5516" lon="5.92554">
        <ele>450</ele>
      </trkpt>
      <trkpt lat="45.55115" lon="5.92513">
        <ele>453</ele>
      </trkpt>
      <trkpt lat="45.55092" lon="5.92464">
        <ele>456</ele>
      </trkpt>
      <trkpt lat="45.55087" lon="5.92448">
        <ele>458</ele>
      </trkpt>
      <trkpt lat="45.55078" lon="5.92434">
        <ele>460</ele>
      </trkpt>
      <trkpt lat="45.55059" lon="5.92419">
        <ele>461</ele>
      </trkpt>
      <trkpt lat="45.55048" lon="5.92419">
        <ele>463</ele>
      </trkpt>
      <trkpt lat="45.55036" lon="5.92433">
        <ele>464</ele>
      </trkpt>
      <trkpt lat="45.55027" lon="5.92437">
        <ele>466</ele>
      </trkpt>
      <trkpt lat="45.55013" lon="5.92437">
        <ele>467</ele>
      </trkpt>
      <trkpt lat="45.54967" lon="5.92423">
        <ele>469</ele>
      </trkpt>
      <trkpt lat="45.54957" lon="5.92424">
        <ele>470</ele>
      </trkpt>
      <trkpt lat="45.54903" lon="5.92457">
        <ele>471</ele>
      </trkpt>
      <trkpt lat="45.54891" lon="5.92461">
        <ele>472</ele>
      </trkpt>
      <trkpt lat="45.54897" lon="5.9251">
        <ele>472</ele>
      </trkpt>
      <trkpt lat="45.54924" lon="5.92547">
        <ele>472</ele>
      </trkpt>
      <trkpt lat="45.54937" lon="5.92618">
        <ele>470</ele>
      </trkpt>
      <trkpt lat="45.54908" lon="5.92849">
        <ele>457</ele>
      </trkpt>
      <trkpt lat="45.54962" lon="5.92892">
        <ele>447</ele>
      </trkpt>
      <trkpt lat="45.55018" lon="5.92892">
        <ele>439</ele>
      </trkpt>
      <trkpt lat="45.55057" lon="5.92914">
        <ele>432</ele>
      </trkpt>
      <trkpt lat="45.55077" lon="5.92991">
        <ele>428</ele>
      </trkpt>
      <trkpt lat="45.55099" lon="5.9303">
        <ele>426</ele>
      </trkpt>
      <trkpt lat="45.55182" lon="5.93088">
        <ele>422</ele>
      </trkpt>
      <trkpt lat="45.55195" lon="5.93148">
        <ele>423</ele>
      </trkpt>
      <trkpt lat="45.5523" lon="5.93248">
        <ele>428</ele>
      </trkpt>
      <trkpt lat="45.553" lon="5.93366">
        <ele>426</ele>
      </trkpt>
      <trkpt lat="45.55306" lon="5.93403">
        <ele>425</ele>
      </trkpt>
      <trkpt lat="45.55306" lon="5.9348">
        <ele>422</ele>
      </trkpt>
      <trkpt lat="45.5532" lon="5.93549">
        <ele>419</ele>
      </trkpt>
      <trkpt lat="45.55236" lon="5.93662">
        <ele>408</ele>
      </trkpt>
      <trkpt lat="45.55213" lon="5.93699">
        <ele>403</ele>
      </trkpt>
      <trkpt lat="45.5518" lon="5.93905">
        <ele>366</ele>
      </trkpt>
    </trkseg>
  </trk>
  <trk>
    <name><![CDATA[10 févr. 2019 à 14:18:42]]></name>
    <cmt><![CDATA[10 févr. 2019 à 14:18:42]]></cmt>
    <trkseg>
      <trkpt lat="45.55248" lon="5.93806">
        <ele>371</ele>
        <time>2019-02-10T13:18:49Z</time>
      </trkpt>
      <trkpt lat="45.55248" lon="5.93807">
        <ele>372</ele>
        <time>2019-02-10T13:18:56Z</time>
      </trkpt>
    </trkseg>
  </trk>
  <trk>
    <name><![CDATA[10 févr. 2019 à 14:13:09]]></name>
    <cmt><![CDATA[10 févr. 2019 à 14:13:09]]></cmt>
    <trkseg>
      <trkpt lat="45.55248" lon="5.93803">
        <ele>372</ele>
        <time>2019-02-10T13:13:10Z</time>
      </trkpt>
      <trkpt lat="45.55248" lon="5.93803">
        <ele>372</ele>
        <time>2019-02-10T13:13:17Z</time>
      </trkpt>
    </trkseg>
  </trk>
  <trk>
    <name><![CDATA[10 févr. 2019 à 09:55:02]]></name>
    <cmt><![CDATA[10 févr. 2019 à 09:55:02]]></cmt>
    <desc><![CDATA[{DC1}Heure de fin	: 
Durée totale	: 0h00:00
Moyenne globale	: -
Pente moyenne	: 0.00 %
Aire incluse	: 113.6551 ha
Détails par segments
distance  | durée    | vit.moy. | vit.max. | déniv. + | déniv -
   km     | hh:mn:ss |   km/h   |   km/h   |    m     |    m
     5.33 | 00:00:00 |      0.0 |      0.0 |        0 |        0{DC2}]]></desc>
    <trkseg>
      <trkpt lat="45.5515" lon="5.93928">
        <ele>365.7</ele>
      </trkpt>
      <trkpt lat="45.55137" lon="5.93932">
        <ele>366.5</ele>
      </trkpt>
      <trkpt lat="45.55124" lon="5.93937">
        <ele>366.9</ele>
      </trkpt>
      <trkpt lat="45.55073" lon="5.93939">
        <ele>369</ele>
      </trkpt>
      <trkpt lat="45.55066" lon="5.93938">
        <ele>369.4</ele>
      </trkpt>
      <trkpt lat="45.55056" lon="5.93919">
        <ele>371.7</ele>
      </trkpt>
      <trkpt lat="45.55042" lon="5.93911">
        <ele>373.8</ele>
      </trkpt>
      <trkpt lat="45.55036" lon="5.9391">
        <ele>374.3</ele>
      </trkpt>
      <trkpt lat="45.55023" lon="5.93918">
        <ele>374.7</ele>
      </trkpt>
      <trkpt lat="45.54996" lon="5.93918">
        <ele>379.2</ele>
      </trkpt>
      <trkpt lat="45.5499" lon="5.93912">
        <ele>380.2</ele>
      </trkpt>
      <trkpt lat="45.54984" lon="5.93922">
        <ele>379.8</ele>
      </trkpt>
      <trkpt lat="45.54981" lon="5.93941">
        <ele>379.2</ele>
      </trkpt>
      <trkpt lat="45.54978" lon="5.93951">
        <ele>378.6</ele>
      </trkpt>
      <trkpt lat="45.54973" lon="5.93988">
        <ele>375.2</ele>
      </trkpt>
      <trkpt lat="45.5497" lon="5.93997">
        <ele>374.6</ele>
      </trkpt>
      <trkpt lat="45.54963" lon="5.94007">
        <ele>374.5</ele>
      </trkpt>
      <trkpt lat="45.54957" lon="5.94027">
        <ele>373.3</ele>
      </trkpt>
      <trkpt lat="45.54946" lon="5.94072">
        <ele>367.4</ele>
      </trkpt>
      <trkpt lat="45.54938" lon="5.94088">
        <ele>364</ele>
      </trkpt>
      <trkpt lat="45.54932" lon="5.9409">
        <ele>363.4</ele>
      </trkpt>
      <trkpt lat="45.54928" lon="5.94099">
        <ele>362.3</ele>
      </trkpt>
      <trkpt lat="45.54925" lon="5.94117">
        <ele>360.4</ele>
      </trkpt>
      <trkpt lat="45.54921" lon="5.94126">
        <ele>359.5</ele>
      </trkpt>
      <trkpt lat="45.54915" lon="5.94131">
        <ele>359</ele>
      </trkpt>
      <trkpt lat="45.5491" lon="5.9414">
        <ele>359</ele>
      </trkpt>
      <trkpt lat="45.54905" lon="5.94159">
        <ele>359.7</ele>
      </trkpt>
      <trkpt lat="45.54904" lon="5.94177">
        <ele>361.3</ele>
      </trkpt>
      <trkpt lat="45.54909" lon="5.94195">
        <ele>362.4</ele>
      </trkpt>
      <trkpt lat="45.54912" lon="5.94204">
        <ele>362.6</ele>
      </trkpt>
      <trkpt lat="45.54912" lon="5.94223">
        <ele>365.3</ele>
      </trkpt>
      <trkpt lat="45.54915" lon="5.94232">
        <ele>366.6</ele>
      </trkpt>
      <trkpt lat="45.54925" lon="5.9425">
        <ele>368.8</ele>
      </trkpt>
      <trkpt lat="45.54925" lon="5.9426">
        <ele>370.1</ele>
      </trkpt>
      <trkpt lat="45.54913" lon="5.9426">
        <ele>372.2</ele>
      </trkpt>
      <trkpt lat="45.54906" lon="5.94257">
        <ele>372.9</ele>
      </trkpt>
      <trkpt lat="45.549" lon="5.94252">
        <ele>373.2</ele>
      </trkpt>
      <trkpt lat="45.54887" lon="5.9425">
        <ele>375.4</ele>
      </trkpt>
      <trkpt lat="45.54874" lon="5.94252">
        <ele>377.5</ele>
      </trkpt>
      <trkpt lat="45.54867" lon="5.9425">
        <ele>378.2</ele>
      </trkpt>
      <trkpt lat="45.54854" lon="5.94238">
        <ele>378.9</ele>
      </trkpt>
      <trkpt lat="45.54835" lon="5.94222">
        <ele>380.8</ele>
      </trkpt>
      <trkpt lat="45.54828" lon="5.9423">
        <ele>382.7</ele>
      </trkpt>
      <trkpt lat="45.54817" lon="5.94268">
        <ele>388.2</ele>
      </trkpt>
      <trkpt lat="45.54817" lon="5.94277">
        <ele>388.8</ele>
      </trkpt>
      <trkpt lat="45.54834" lon="5.94323">
        <ele>393.4</ele>
      </trkpt>
      <trkpt lat="45.54841" lon="5.94357">
        <ele>397.5</ele>
      </trkpt>
      <trkpt lat="45.54843" lon="5.94422">
        <ele>406.1</ele>
      </trkpt>
      <trkpt lat="45.54844" lon="5.94431">
        <ele>407.3</ele>
      </trkpt>
      <trkpt lat="45.54844" lon="5.94449">
        <ele>410.1</ele>
      </trkpt>
      <trkpt lat="45.54842" lon="5.94459">
        <ele>411.1</ele>
      </trkpt>
      <trkpt lat="45.54835" lon="5.94468">
        <ele>412.7</ele>
      </trkpt>
      <trkpt lat="45.54815" lon="5.94476">
        <ele>417.1</ele>
      </trkpt>
      <trkpt lat="45.5481" lon="5.94467">
        <ele>419.3</ele>
      </trkpt>
      <trkpt lat="45.5481" lon="5.94447">
        <ele>420.5</ele>
      </trkpt>
      <trkpt lat="45.54807" lon="5.94438">
        <ele>420.6</ele>
      </trkpt>
      <trkpt lat="45.548" lon="5.9443">
        <ele>421.3</ele>
      </trkpt>
      <trkpt lat="45.54794" lon="5.94426">
        <ele>422.5</ele>
      </trkpt>
      <trkpt lat="45.54775" lon="5.94425">
        <ele>427.4</ele>
      </trkpt>
      <trkpt lat="45.54763" lon="5.94438">
        <ele>431.3</ele>
      </trkpt>
      <trkpt lat="45.54754" lon="5.94444">
        <ele>433.9</ele>
      </trkpt>
      <trkpt lat="45.54741" lon="5.94458">
        <ele>436.4</ele>
      </trkpt>
      <trkpt lat="45.54735" lon="5.94456">
        <ele>438.3</ele>
      </trkpt>
      <trkpt lat="45.54724" lon="5.94437">
        <ele>442.9</ele>
      </trkpt>
      <trkpt lat="45.54722" lon="5.94428">
        <ele>444.2</ele>
      </trkpt>
      <trkpt lat="45.54718" lon="5.94418">
        <ele>445.5</ele>
      </trkpt>
      <trkpt lat="45.54711" lon="5.94414">
        <ele>446.2</ele>
      </trkpt>
      <trkpt lat="45.54678" lon="5.94404">
        <ele>454</ele>
      </trkpt>
      <trkpt lat="45.54673" lon="5.94395">
        <ele>456.1</ele>
      </trkpt>
      <trkpt lat="45.5467" lon="5.94358">
        <ele>457.2</ele>
      </trkpt>
      <trkpt lat="45.54665" lon="5.94349">
        <ele>458.5</ele>
      </trkpt>
      <trkpt lat="45.54633" lon="5.94315">
        <ele>467.3</ele>
      </trkpt>
      <trkpt lat="45.54622" lon="5.94297">
        <ele>469.5</ele>
      </trkpt>
      <trkpt lat="45.5457" lon="5.94292">
        <ele>483.2</ele>
      </trkpt>
      <trkpt lat="45.54563" lon="5.94289">
        <ele>484.9</ele>
      </trkpt>
      <trkpt lat="45.54551" lon="5.94285">
        <ele>487.7</ele>
      </trkpt>
      <trkpt lat="45.54498" lon="5.94283">
        <ele>497.2</ele>
      </trkpt>
      <trkpt lat="45.54491" lon="5.94279">
        <ele>498.9</ele>
      </trkpt>
      <trkpt lat="45.5449" lon="5.9427">
        <ele>501</ele>
      </trkpt>
      <trkpt lat="45.54477" lon="5.94242">
        <ele>508.1</ele>
      </trkpt>
      <trkpt lat="45.5446" lon="5.94215">
        <ele>513.7</ele>
      </trkpt>
      <trkpt lat="45.54455" lon="5.94178">
        <ele>517</ele>
      </trkpt>
      <trkpt lat="45.54429" lon="5.94153">
        <ele>520</ele>
      </trkpt>
      <trkpt lat="45.54418" lon="5.94147">
        <ele>523.4</ele>
      </trkpt>
      <trkpt lat="45.54391" lon="5.94145">
        <ele>529.4</ele>
      </trkpt>
      <trkpt lat="45.54356" lon="5.94131">
        <ele>537.3</ele>
      </trkpt>
      <trkpt lat="45.5433" lon="5.94102">
        <ele>542.3</ele>
      </trkpt>
      <trkpt lat="45.54324" lon="5.94098">
        <ele>543.3</ele>
      </trkpt>
      <trkpt lat="45.54317" lon="5.94095">
        <ele>544.2</ele>
      </trkpt>
      <trkpt lat="45.5431" lon="5.94088">
        <ele>545.9</ele>
      </trkpt>
      <trkpt lat="45.54292" lon="5.94062">
        <ele>551.5</ele>
      </trkpt>
      <trkpt lat="45.54286" lon="5.94057">
        <ele>553.4</ele>
      </trkpt>
      <trkpt lat="45.54279" lon="5.94055">
        <ele>554.7</ele>
      </trkpt>
      <trkpt lat="45.5426" lon="5.94041">
        <ele>558.7</ele>
      </trkpt>
      <trkpt lat="45.5424" lon="5.94028">
        <ele>563.3</ele>
      </trkpt>
      <trkpt lat="45.54233" lon="5.94022">
        <ele>563.1</ele>
      </trkpt>
      <trkpt lat="45.54227" lon="5.94013">
        <ele>563.6</ele>
      </trkpt>
      <trkpt lat="45.5422" lon="5.94007">
        <ele>564.9</ele>
      </trkpt>
      <trkpt lat="45.542" lon="5.94005">
        <ele>567.1</ele>
      </trkpt>
      <trkpt lat="45.54194" lon="5.94006">
        <ele>567.5</ele>
      </trkpt>
      <trkpt lat="45.54188" lon="5.94004">
        <ele>568.6</ele>
      </trkpt>
      <trkpt lat="45.54185" lon="5.93995">
        <ele>570.8</ele>
      </trkpt>
      <trkpt lat="45.54181" lon="5.93976">
        <ele>574.8</ele>
      </trkpt>
      <trkpt lat="45.54177" lon="5.93966">
        <ele>574.8</ele>
      </trkpt>
      <trkpt lat="45.54171" lon="5.93957">
        <ele>575.4</ele>
      </trkpt>
      <trkpt lat="45.5416" lon="5.93952">
        <ele>579</ele>
      </trkpt>
      <trkpt lat="45.54152" lon="5.93951">
        <ele>581.5</ele>
      </trkpt>
      <trkpt lat="45.54124" lon="5.93938">
        <ele>588.3</ele>
      </trkpt>
      <trkpt lat="45.54104" lon="5.93923">
        <ele>594</ele>
      </trkpt>
      <trkpt lat="45.5409" lon="5.93918">
        <ele>598.7</ele>
      </trkpt>
      <trkpt lat="45.54076" lon="5.93907">
        <ele>603.9</ele>
      </trkpt>
      <trkpt lat="45.54063" lon="5.93889">
        <ele>610.1</ele>
      </trkpt>
      <trkpt lat="45.54057" lon="5.93885">
        <ele>611.6</ele>
      </trkpt>
      <trkpt lat="45.54051" lon="5.93875">
        <ele>612.7</ele>
      </trkpt>
      <trkpt lat="45.5404" lon="5.93853">
        <ele>613</ele>
      </trkpt>
      <trkpt lat="45.54005" lon="5.93845">
        <ele>621.6</ele>
      </trkpt>
      <trkpt lat="45.53998" lon="5.93841">
        <ele>623.4</ele>
      </trkpt>
      <trkpt lat="45.53993" lon="5.93831">
        <ele>625.2</ele>
      </trkpt>
      <trkpt lat="45.53991" lon="5.93822">
        <ele>626.3</ele>
      </trkpt>
      <trkpt lat="45.53984" lon="5.93804">
        <ele>628.2</ele>
      </trkpt>
      <trkpt lat="45.53945" lon="5.93761">
        <ele>633.4</ele>
      </trkpt>
      <trkpt lat="45.53938" lon="5.93757">
        <ele>633.6</ele>
      </trkpt>
      <trkpt lat="45.53931" lon="5.93749">
        <ele>633.4</ele>
      </trkpt>
      <trkpt lat="45.5392" lon="5.9373">
        <ele>631.9</ele>
      </trkpt>
      <trkpt lat="45.53907" lon="5.93721">
        <ele>633.5</ele>
      </trkpt>
      <trkpt lat="45.53855" lon="5.93696">
        <ele>628.5</ele>
      </trkpt>
      <trkpt lat="45.53835" lon="5.93669">
        <ele>621.4</ele>
      </trkpt>
      <trkpt lat="45.53815" lon="5.93654">
        <ele>619.8</ele>
      </trkpt>
      <trkpt lat="45.53776" lon="5.936">
        <ele>617.4</ele>
      </trkpt>
      <trkpt lat="45.53762" lon="5.93587">
        <ele>617.4</ele>
      </trkpt>
      <trkpt lat="45.53731" lon="5.93548">
        <ele>622.1</ele>
      </trkpt>
      <trkpt lat="45.53729" lon="5.93539">
        <ele>620.8</ele>
      </trkpt>
      <trkpt lat="45.53722" lon="5.93532">
        <ele>621.4</ele>
      </trkpt>
      <trkpt lat="45.53699" lon="5.93534">
        <ele>619.6</ele>
      </trkpt>
      <trkpt lat="45.53693" lon="5.93505">
        <ele>614.7</ele>
      </trkpt>
      <trkpt lat="45.53689" lon="5.93486">
        <ele>611.8</ele>
      </trkpt>
      <trkpt lat="45.5369" lon="5.93476">
        <ele>608.7</ele>
      </trkpt>
      <trkpt lat="45.53692" lon="5.93467">
        <ele>605</ele>
      </trkpt>
      <trkpt lat="45.53697" lon="5.93386">
        <ele>587.7</ele>
      </trkpt>
      <trkpt lat="45.53697" lon="5.93327">
        <ele>581.2</ele>
      </trkpt>
      <trkpt lat="45.53726" lon="5.9323">
        <ele>560.9</ele>
      </trkpt>
      <trkpt lat="45.53773" lon="5.93171">
        <ele>537.9</ele>
      </trkpt>
      <trkpt lat="45.53778" lon="5.93161">
        <ele>536.3</ele>
      </trkpt>
      <trkpt lat="45.53781" lon="5.93142">
        <ele>536</ele>
      </trkpt>
      <trkpt lat="45.53781" lon="5.93121">
        <ele>537.5</ele>
      </trkpt>
      <trkpt lat="45.53778" lon="5.93102">
        <ele>539.5</ele>
      </trkpt>
      <trkpt lat="45.5378" lon="5.93093">
        <ele>539.9</ele>
      </trkpt>
      <trkpt lat="45.53798" lon="5.93072">
        <ele>539</ele>
      </trkpt>
      <trkpt lat="45.53806" lon="5.93043">
        <ele>540.3</ele>
      </trkpt>
      <trkpt lat="45.53808" lon="5.93024">
        <ele>542.3</ele>
      </trkpt>
      <trkpt lat="45.5381" lon="5.93014">
        <ele>543.3</ele>
      </trkpt>
      <trkpt lat="45.53817" lon="5.93005">
        <ele>544</ele>
      </trkpt>
      <trkpt lat="45.53869" lon="5.92969">
        <ele>549.3</ele>
      </trkpt>
      <trkpt lat="45.54005" lon="5.92959">
        <ele>558.3</ele>
      </trkpt>
      <trkpt lat="45.54025" lon="5.92948">
        <ele>559.9</ele>
      </trkpt>
      <trkpt lat="45.54028" lon="5.92937">
        <ele>560.5</ele>
      </trkpt>
      <trkpt lat="45.54042" lon="5.92946">
        <ele>560</ele>
      </trkpt>
      <trkpt lat="45.54069" lon="5.92945">
        <ele>560.9</ele>
      </trkpt>
      <trkpt lat="45.54097" lon="5.92965">
        <ele>560.3</ele>
      </trkpt>
      <trkpt lat="45.54206" lon="5.93">
        <ele>559</ele>
      </trkpt>
      <trkpt lat="45.54239" lon="5.93031">
        <ele>555.7</ele>
      </trkpt>
      <trkpt lat="45.54261" lon="5.93042">
        <ele>552.2</ele>
      </trkpt>
      <trkpt lat="45.54274" lon="5.93057">
        <ele>549.6</ele>
      </trkpt>
      <trkpt lat="45.54289" lon="5.93065">
        <ele>547.7</ele>
      </trkpt>
      <trkpt lat="45.5433" lon="5.93076">
        <ele>545.6</ele>
      </trkpt>
      <trkpt lat="45.54337" lon="5.9308">
        <ele>545.6</ele>
      </trkpt>
      <trkpt lat="45.54457" lon="5.93112">
        <ele>538.7</ele>
      </trkpt>
      <trkpt lat="45.54501" lon="5.93131">
        <ele>532</ele>
      </trkpt>
      <trkpt lat="45.54516" lon="5.93134">
        <ele>531.2</ele>
      </trkpt>
      <trkpt lat="45.54526" lon="5.93141">
        <ele>529.5</ele>
      </trkpt>
      <trkpt lat="45.54582" lon="5.93145">
        <ele>529.3</ele>
      </trkpt>
      <trkpt lat="45.54618" lon="5.93157">
        <ele>528.3</ele>
      </trkpt>
      <trkpt lat="45.54684" lon="5.93159">
        <ele>529.3</ele>
      </trkpt>
      <trkpt lat="45.54734" lon="5.93196">
        <ele>523.1</ele>
      </trkpt>
      <trkpt lat="45.54747" lon="5.93214">
        <ele>519.7</ele>
      </trkpt>
      <trkpt lat="45.54749" lon="5.93223">
        <ele>517.8</ele>
      </trkpt>
      <trkpt lat="45.54749" lon="5.93233">
        <ele>515.6</ele>
      </trkpt>
      <trkpt lat="45.54815" lon="5.93256">
        <ele>509.3</ele>
      </trkpt>
      <trkpt lat="45.54822" lon="5.93263">
        <ele>507.3</ele>
      </trkpt>
      <trkpt lat="45.54822" lon="5.93273">
        <ele>505.1</ele>
      </trkpt>
      <trkpt lat="45.54818" lon="5.93282">
        <ele>502.8</ele>
      </trkpt>
      <trkpt lat="45.5479" lon="5.93307">
        <ele>496.7</ele>
      </trkpt>
      <trkpt lat="45.54785" lon="5.93317">
        <ele>494.1</ele>
      </trkpt>
      <trkpt lat="45.5478" lon="5.93336">
        <ele>489.6</ele>
      </trkpt>
      <trkpt lat="45.54779" lon="5.93365">
        <ele>485.5</ele>
      </trkpt>
      <trkpt lat="45.5479" lon="5.93422">
        <ele>476.1</ele>
      </trkpt>
      <trkpt lat="45.54794" lon="5.93431">
        <ele>474.5</ele>
      </trkpt>
      <trkpt lat="45.54813" lon="5.93453">
        <ele>468.8</ele>
      </trkpt>
      <trkpt lat="45.54826" lon="5.93457">
        <ele>466.3</ele>
      </trkpt>
      <trkpt lat="45.5484" lon="5.93456">
        <ele>464.6</ele>
      </trkpt>
      <trkpt lat="45.54918" lon="5.93425">
        <ele>463</ele>
      </trkpt>
      <trkpt lat="45.54933" lon="5.93425">
        <ele>462</ele>
      </trkpt>
      <trkpt lat="45.5494" lon="5.93428">
        <ele>460.7</ele>
      </trkpt>
      <trkpt lat="45.54943" lon="5.93446">
        <ele>454.9</ele>
      </trkpt>
      <trkpt lat="45.54949" lon="5.93463">
        <ele>449.7</ele>
      </trkpt>
      <trkpt lat="45.54956" lon="5.9347">
        <ele>447</ele>
      </trkpt>
      <trkpt lat="45.54962" lon="5.93469">
        <ele>446.5</ele>
      </trkpt>
      <trkpt lat="45.55023" lon="5.93429">
        <ele>456.3</ele>
      </trkpt>
      <trkpt lat="45.55044" lon="5.93427">
        <ele>456.4</ele>
      </trkpt>
      <trkpt lat="45.55051" lon="5.93429">
        <ele>455.7</ele>
      </trkpt>
      <trkpt lat="45.55064" lon="5.93435">
        <ele>452.8</ele>
      </trkpt>
      <trkpt lat="45.55067" lon="5.93425">
        <ele>454.9</ele>
      </trkpt>
      <trkpt lat="45.55067" lon="5.93416">
        <ele>457.1</ele>
      </trkpt>
      <trkpt lat="45.55074" lon="5.9341">
        <ele>456.9</ele>
      </trkpt>
      <trkpt lat="45.55108" lon="5.93406">
        <ele>451.8</ele>
      </trkpt>
      <trkpt lat="45.55129" lon="5.93398">
        <ele>450.7</ele>
      </trkpt>
      <trkpt lat="45.55136" lon="5.93398">
        <ele>450.2</ele>
      </trkpt>
      <trkpt lat="45.55143" lon="5.93406">
        <ele>448.9</ele>
      </trkpt>
      <trkpt lat="45.5516" lon="5.93435">
        <ele>443.8</ele>
      </trkpt>
      <trkpt lat="45.55182" lon="5.93446">
        <ele>440.1</ele>
      </trkpt>
      <trkpt lat="45.55199" lon="5.93448">
        <ele>437.4</ele>
      </trkpt>
      <trkpt lat="45.5522" lon="5.93445">
        <ele>433.5</ele>
      </trkpt>
      <trkpt lat="45.55226" lon="5.93442">
        <ele>432.6</ele>
      </trkpt>
      <trkpt lat="45.55239" lon="5.93441">
        <ele>430.3</ele>
      </trkpt>
      <trkpt lat="45.55274" lon="5.93479">
        <ele>420.9</ele>
      </trkpt>
      <trkpt lat="45.55313" lon="5.93502">
        <ele>414.3</ele>
      </trkpt>
      <trkpt lat="45.55319" lon="5.93509">
        <ele>412.9</ele>
      </trkpt>
      <trkpt lat="45.55324" lon="5.93518">
        <ele>411.5</ele>
      </trkpt>
      <trkpt lat="45.55326" lon="5.93528">
        <ele>410.3</ele>
      </trkpt>
      <trkpt lat="45.55327" lon="5.93556">
        <ele>406.8</ele>
      </trkpt>
      <trkpt lat="45.55325" lon="5.93565">
        <ele>405.6</ele>
      </trkpt>
      <trkpt lat="45.55319" lon="5.93572">
        <ele>405.1</ele>
      </trkpt>
      <trkpt lat="45.55297" lon="5.9358">
        <ele>405.6</ele>
      </trkpt>
      <trkpt lat="45.55271" lon="5.93581">
        <ele>407.7</ele>
      </trkpt>
      <trkpt lat="45.55251" lon="5.93602">
        <ele>402.7</ele>
      </trkpt>
      <trkpt lat="45.55206" lon="5.93665">
        <ele>390.9</ele>
      </trkpt>
      <trkpt lat="45.55202" lon="5.93711">
        <ele>386.7</ele>
      </trkpt>
      <trkpt lat="45.55209" lon="5.9374">
        <ele>383.8</ele>
      </trkpt>
      <trkpt lat="45.5521" lon="5.93771">
        <ele>380.5</ele>
      </trkpt>
      <trkpt lat="45.55203" lon="5.93827">
        <ele>373.8</ele>
      </trkpt>
      <trkpt lat="45.55182" lon="5.93903">
        <ele>365.8</ele>
      </trkpt>
      <trkpt lat="45.55163" lon="5.93918">
        <ele>365.3</ele>
      </trkpt>
      <trkpt lat="45.55153" lon="5.93923">
        <ele>365.8</ele>
      </trkpt>
      <trkpt lat="45.55157" lon="5.93921">
        <ele>365.7</ele>
      </trkpt>
      <trkpt lat="45.55217" lon="5.93733">
        <ele>372</ele>
        <time>2019-02-10T09:00:48Z</time>
      </trkpt>
      <trkpt lat="45.55247" lon="5.93799">
        <ele>373</ele>
        <time>2019-02-10T09:01:56Z</time>
      </trkpt>
      <trkpt lat="45.55215" lon="5.93766">
        <ele>379</ele>
        <time>2019-02-10T09:07:19Z</time>
      </trkpt>
      <trkpt lat="45.55215" lon="5.93766">
        <ele>379</ele>
        <time>2019-02-10T09:07:20Z</time>
      </trkpt>
      <trkpt lat="45.55248" lon="5.93801">
        <ele>372</ele>
        <time>2019-02-10T13:07:41Z</time>
      </trkpt>
    </trkseg>
  </trk>
  <trk>
    <name><![CDATA[10 févr. 2019 à 09:50:45]]></name>
    <cmt><![CDATA[10 févr. 2019 à 09:50:45]]></cmt>
    <desc><![CDATA[{DC1}Heure de fin	: 00:09:21
Durée totale	: -17690433h09:14
Moyenne globale	: -
Pente moyenne	: 0.00 %
Aire incluse	: 50.7119 ha
Détails par segments
distance  | durée    | vit.moy. | vit.max. | déniv. + | déniv -
   km     | hh:mn:ss |   km/h   |   km/h   |    m     |    m
     4.33 | 00:00:00 |      0.0 |      0.0 |        0 |        0{DC2}]]></desc>
    <trkseg>
      <trkpt lat="45.5503" lon="5.93918">
        <ele>373.6</ele>
      </trkpt>
      <trkpt lat="45.54773" lon="5.93796">
        <ele>408</ele>
      </trkpt>
      <trkpt lat="45.54758" lon="5.93682">
        <ele>422.7</ele>
      </trkpt>
      <trkpt lat="45.54642" lon="5.93639">
        <ele>427.9</ele>
      </trkpt>
      <trkpt lat="45.54214" lon="5.93494">
        <ele>464.4</ele>
      </trkpt>
      <trkpt lat="45.53962" lon="5.93348">
        <ele>498.1</ele>
      </trkpt>
      <trkpt lat="45.54056" lon="5.93236">
        <ele>508.1</ele>
      </trkpt>
      <trkpt lat="45.53793" lon="5.93084">
        <ele>538.7</ele>
      </trkpt>
      <trkpt lat="45.54008" lon="5.92948">
        <ele>559.1</ele>
      </trkpt>
      <trkpt lat="45.54393" lon="5.93097">
        <ele>545.4</ele>
      </trkpt>
      <trkpt lat="45.54676" lon="5.93172">
        <ele>527.1</ele>
      </trkpt>
      <trkpt lat="45.54737" lon="5.9323">
        <ele>516.4</ele>
      </trkpt>
      <trkpt lat="45.54809" lon="5.9326">
        <ele>508.5</ele>
      </trkpt>
      <trkpt lat="45.54772" lon="5.93328">
        <ele>491.3</ele>
      </trkpt>
      <trkpt lat="45.54784" lon="5.93429">
        <ele>474.8</ele>
      </trkpt>
      <trkpt lat="45.5482" lon="5.93459">
        <ele>466.3</ele>
      </trkpt>
      <trkpt lat="45.54914" lon="5.93438">
        <ele>460.6</ele>
      </trkpt>
      <trkpt lat="45.54821" lon="5.93539">
        <ele>446.4</ele>
      </trkpt>
      <trkpt lat="45.55039" lon="5.93423">
        <ele>457.9</ele>
      </trkpt>
      <trkpt lat="45.55179" lon="5.93418">
        <ele>444.4</ele>
      </trkpt>
      <trkpt lat="45.55293" lon="5.93487">
        <ele>417.5</ele>
      </trkpt>
      <trkpt lat="45.5532" lon="5.9356">
        <ele>407.1</ele>
      </trkpt>
      <trkpt lat="45.55269" lon="5.93594">
        <ele>404.2</ele>
      </trkpt>
      <trkpt lat="45.55212" lon="5.93712">
        <ele>386.5</ele>
      </trkpt>
      <trkpt lat="45.55191" lon="5.93893">
        <ele>366.7</ele>
      </trkpt>
    </trkseg>
  </trk>
  <trk>
    <name><![CDATA[10 févr. 2019 à 09:31:15]]></name>
    <cmt><![CDATA[10 févr. 2019 à 09:31:15]]></cmt>
    <trkseg>
  </trk>
  <trk>
    <name><![CDATA[10 févr. 2019 à 09:31:06]]></name>
    <cmt><![CDATA[10 févr. 2019 à 09:31:06]]></cmt>
    <trkseg>
  </trk>
  <rte>
    <name><![CDATA[4 avr. 2019 à 23:11:12]]></name>
    <cmt><![CDATA[4 avr. 2019 à 23:11:12]]></cmt>
    <desc><![CDATA[{DC1}Heure de fin	: 
Durée totale	: 0h00:00
Moyenne globale	: -
Pente moyenne	: 0.00 %
Aire incluse	: 7.4932 ha
Détails par segments
distance  | durée    | vit.moy. | vit.max. | déniv. + | déniv -
   km     | hh:mn:ss |   km/h   |   km/h   |    m     |    m
     0.81 | 00:00:00 |      0.0 |      0.0 |        0 |        0{DC2}]]></desc>
      <rtept lat="45.60077" lon="6.18221">
        <ele>1608.6</ele>
      </rtept>
      <rtept lat="45.59468" lon="6.1822">
        <ele>1760.9</ele>
      </rtept>
      <rtept lat="45.59468" lon="6.1822">
        <ele>1760.9</ele>
      </rtept>
    </rte>
  <rte>
    <name><![CDATA[10 févr. 2019 à 15:16:12]]></name>
    <cmt><![CDATA[10 févr. 2019 à 15:16:12]]></cmt>
    <desc><![CDATA[{DC1}Heure de fin	: 00:09:21
Durée totale	: -17690439h43:48
Moyenne globale	: -
Pente moyenne	: 7.00 %
Aire incluse	: 221.0936 ha
Détails par segments
distance  | durée    | vit.moy. | vit.max. | déniv. + | déniv -
   km     | hh:mn:ss |   km/h   |   km/h   |    m     |    m
     7.48 | 00:00:00 |      0.0 |      0.0 |        0 |        0{DC2}]]></desc>
      <rtept lat="45.55203" lon="5.93805">
        <ele>376</ele>
      </rtept>
      <rtept lat="45.55177" lon="5.93873">
        <ele>369</ele>
      </rtept>
      <rtept lat="45.55176" lon="5.93942">
        <ele>367</ele>
      </rtept>
      <rtept lat="45.55105" lon="5.93942">
        <ele>367</ele>
      </rtept>
      <rtept lat="45.54993" lon="5.93908">
        <ele>371</ele>
      </rtept>
      <rtept lat="45.54929" lon="5.94099">
        <ele>370</ele>
      </rtept>
      <rtept lat="45.54908" lon="5.94204">
        <ele>367</ele>
      </rtept>
      <rtept lat="45.54991" lon="5.94287">
        <ele>365</ele>
      </rtept>
      <rtept lat="45.5506" lon="5.94384">
        <ele>361</ele>
      </rtept>
      <rtept lat="45.55147" lon="5.94384">
        <ele>357</ele>
      </rtept>
      <rtept lat="45.55129" lon="5.94607">
        <ele>358</ele>
      </rtept>
      <rtept lat="45.55029" lon="5.94809">
        <ele>355</ele>
      </rtept>
      <rtept lat="45.54884" lon="5.94886">
        <ele>346</ele>
      </rtept>
      <rtept lat="45.5477" lon="5.94931">
        <ele>342</ele>
      </rtept>
      <rtept lat="45.5468" lon="5.95004">
        <ele>339</ele>
      </rtept>
      <rtept lat="45.54596" lon="5.95133">
        <ele>340</ele>
      </rtept>
      <rtept lat="45.54446" lon="5.95195">
        <ele>343</ele>
      </rtept>
      <rtept lat="45.543" lon="5.95262">
        <ele>344</ele>
      </rtept>
      <rtept lat="45.54156" lon="5.95212">
        <ele>337</ele>
      </rtept>
      <rtept lat="45.54041" lon="5.95204">
        <ele>338</ele>
      </rtept>
      <rtept lat="45.53917" lon="5.95141">
        <ele>343</ele>
      </rtept>
      <rtept lat="45.53844" lon="5.95135">
        <ele>347</ele>
      </rtept>
      <rtept lat="45.53765" lon="5.9503">
        <ele>349</ele>
      </rtept>
      <rtept lat="45.5381" lon="5.94993">
        <ele>352</ele>
      </rtept>
      <rtept lat="45.53781" lon="5.94901">
        <ele>358</ele>
      </rtept>
      <rtept lat="45.53711" lon="5.94845">
        <ele>365</ele>
      </rtept>
      <rtept lat="45.53702" lon="5.94764">
        <ele>369</ele>
      </rtept>
      <rtept lat="45.53817" lon="5.94807">
        <ele>376</ele>
      </rtept>
      <rtept lat="45.53865" lon="5.94633">
        <ele>389</ele>
      </rtept>
      <rtept lat="45.53778" lon="5.94491">
        <ele>408</ele>
      </rtept>
      <rtept lat="45.53757" lon="5.94371">
        <ele>425</ele>
      </rtept>
      <rtept lat="45.53775" lon="5.94279">
        <ele>434</ele>
      </rtept>
      <rtept lat="45.53726" lon="5.94227">
        <ele>442</ele>
      </rtept>
      <rtept lat="45.53572" lon="5.94146">
        <ele>468</ele>
      </rtept>
      <rtept lat="45.53664" lon="5.94039">
        <ele>483</ele>
      </rtept>
      <rtept lat="45.53532" lon="5.93983">
        <ele>505</ele>
      </rtept>
      <rtept lat="45.53416" lon="5.93985">
        <ele>516</ele>
      </rtept>
      <rtept lat="45.5355" lon="5.93869">
        <ele>532</ele>
      </rtept>
      <rtept lat="45.5359" lon="5.93845">
        <ele>537</ele>
      </rtept>
      <rtept lat="45.5355" lon="5.93802">
        <ele>544</ele>
      </rtept>
      <rtept lat="45.53724" lon="5.93554">
        <ele>587</ele>
      </rtept>
      <rtept lat="45.53691" lon="5.93339">
        <ele>592</ele>
      </rtept>
      <rtept lat="45.5376" lon="5.93178">
        <ele>575</ele>
      </rtept>
      <rtept lat="45.53843" lon="5.93069">
        <ele>555</ele>
      </rtept>
      <rtept lat="45.53939" lon="5.93157">
        <ele>541</ele>
      </rtept>
      <rtept lat="45.54068" lon="5.93234">
        <ele>522</ele>
      </rtept>
      <rtept lat="45.54219" lon="5.93247">
        <ele>514</ele>
      </rtept>
      <rtept lat="45.54355" lon="5.93232">
        <ele>512</ele>
      </rtept>
      <rtept lat="45.54489" lon="5.9326">
        <ele>508</ele>
      </rtept>
      <rtept lat="45.54636" lon="5.93249">
        <ele>510</ele>
      </rtept>
      <rtept lat="45.54758" lon="5.93249">
        <ele>510</ele>
      </rtept>
      <rtept lat="45.54818" lon="5.93298">
        <ele>507</ele>
      </rtept>
      <rtept lat="45.54796" lon="5.93418">
        <ele>496</ele>
      </rtept>
      <rtept lat="45.5491" lon="5.93433">
        <ele>483</ele>
      </rtept>
      <rtept lat="45.55126" lon="5.9341">
        <ele>463</ele>
      </rtept>
      <rtept lat="45.55256" lon="5.93453">
        <ele>444</ele>
      </rtept>
      <rtept lat="45.55329" lon="5.93558">
        <ele>430</ele>
      </rtept>
      <rtept lat="45.55222" lon="5.93642">
        <ele>415</ele>
      </rtept>
      <rtept lat="45.55195" lon="5.93811">
        <ele>375</ele>
      </rtept>
    </rte>
  <rte>
    <name><![CDATA[10 févr. 2019 à 15:15:48]]></name>
    <cmt><![CDATA[10 févr. 2019 à 15:15:48]]></cmt>
    <desc><![CDATA[{DC1}Heure de fin	: 00:09:21
Durée totale	: -17690439h44:12
Moyenne globale	: -
Pente moyenne	: nan %
Aire incluse	: 0.0000 ha
Détails par segments
distance  | durée    | vit.moy. | vit.max. | déniv. + | déniv -
   km     | hh:mn:ss |   km/h   |   km/h   |    m     |    m
     0.00 | 00:00:00 |      0.0 |      0.0 |        0 |        0{DC2}]]></desc>
      <rtept lat="45.5175" lon="5.93483">
        <ele>732.3</ele>
      </rtept>
    </rte>
  <rte>
    <name><![CDATA[10 févr. 2019 à 15:06:08]]></name>
    <cmt><![CDATA[10 févr. 2019 à 15:06:08]]></cmt>
    <desc><![CDATA[{DC1}Heure de fin	: 
Durée totale	: 0h00:00
Moyenne globale	: -
Pente moyenne	: 8.03 %
Aire incluse	: 204.0794 ha
Détails par segments
distance  | durée    | vit.moy. | vit.max. | déniv. + | déniv -
   km     | hh:mn:ss |   km/h   |   km/h   |    m     |    m
    12.88 | 00:00:00 |      0.0 |      0.0 |        0 |        0{DC2}]]></desc>
      <rtept lat="45.5509" lon="5.9394">
        <ele>368</ele>
      </rtept>
      <rtept lat="45.55217" lon="5.93791">
        <ele>377</ele>
      </rtept>
    </rte>
  <rte>
    <name><![CDATA[10 févr. 2019 à 14:22:06]]></name>
    <cmt><![CDATA[10 févr. 2019 à 14:22:06]]></cmt>
    <desc><![CDATA[{DC1}Heure de fin	: 00:09:21
Durée totale	: -17690438h37:54
Moyenne globale	: -
Pente moyenne	: 5.62 %
Aire incluse	: 5.7967 ha
Détails par segments
distance  | durée    | vit.moy. | vit.max. | déniv. + | déniv -
   km     | hh:mn:ss |   km/h   |   km/h   |    m     |    m
     3.30 | 00:00:00 |      0.0 |      0.0 |        0 |        0{DC2}]]></desc>
      <rtept lat="45.55169" lon="5.93089">
        <ele>415</ele>
      </rtept>
      <rtept lat="45.5518" lon="5.93905">
        <ele>366</ele>
      </rtept>
    </rte>
  <rte>
    <name><![CDATA[10 févr. 2019 à 09:50:45]]></name>
    <cmt><![CDATA[10 févr. 2019 à 09:50:45]]></cmt>
    <desc><![CDATA[{DC1}Heure de fin	: 00:09:21
Durée totale	: -17690433h09:14
Moyenne globale	: -
Pente moyenne	: 0.00 %
Aire incluse	: 50.7119 ha
Détails par segments
distance  | durée    | vit.moy. | vit.max. | déniv. + | déniv -
   km     | hh:mn:ss |   km/h   |   km/h   |    m     |    m
     4.33 | 00:00:00 |      0.0 |      0.0 |        0 |        0{DC2}]]></desc>
      <rtept lat="45.5503" lon="5.93918">
        <ele>373.6</ele>
      </rtept>
      <rtept lat="45.55191" lon="5.93893">
        <ele>366.7</ele>
      </rtept>
    </rte>
  <rte>
    <name><![CDATA[10 févr. 2019 à 09:07:08]]></name>
    <cmt><![CDATA[10 févr. 2019 à 09:07:08]]></cmt>
    <desc><![CDATA[{DC1}Heure de fin	: 00:09:21
Durée totale	: -17690433h52:52
Moyenne globale	: -
Pente moyenne	: nan %
Aire incluse	: 0.0000 ha
Détails par segments
distance  | durée    | vit.moy. | vit.max. | déniv. + | déniv -
   km     | hh:mn:ss |   km/h   |   km/h   |    m     |    m
     0.00 | 00:00:00 |      0.0 |      0.0 |        0 |        0{DC2}]]></desc>
      <rtept lat="45.55102" lon="5.93919">
        <ele>370.1</ele>
      </rtept>
    </rte>
  <rte>
    <name><![CDATA[10 févr. 2019 à 09:02:25]]></name>
    <cmt><![CDATA[10 févr. 2019 à 09:02:25]]></cmt>
    <desc><![CDATA[{DC1}Heure de fin	: 00:09:21
Durée totale	: -17690433h57:35
Moyenne globale	: -
Pente moyenne	: nan %
Aire incluse	: 0.0000 ha
Détails par segments
distance  | durée    | vit.moy. | vit.max. | déniv. + | déniv -
   km     | hh:mn:ss |   km/h   |   km/h   |    m     |    m
     0.00 | 00:00:00 |      0.0 |      0.0 |        0 |        0{DC2}]]></desc>
      <rtept lat="45.55207" lon="5.93813">
        <ele>375.2</ele>
      </rtept>
    </rte>
  <rte>
    <name><![CDATA[10 févr. 2019 à 09:00:27]]></name>
    <cmt><![CDATA[10 févr. 2019 à 09:00:27]]></cmt>
    <desc><![CDATA[{DC1}Heure de fin	: 00:09:21
Durée totale	: -17690433h59:32
Moyenne globale	: -
Pente moyenne	: nan %
Aire incluse	: 0.0000 ha
Détails par segments
distance  | durée    | vit.moy. | vit.max. | déniv. + | déniv -
   km     | hh:mn:ss |   km/h   |   km/h   |    m     |    m
     0.00 | 00:00:00 |      0.0 |      0.0 |        0 |        0{DC2}]]></desc>
      <rtept lat="45.55244" lon="5.93858">
        <ele>366.6</ele>
      </rtept>
    </rte>
</gpx>